<?xml version="1.0" encoding="UTF-8"?>
<gpx version="1.1" creator="https://www.youtrack.es" xsi:schemaLocation="http://www.topografix.com/GPX/1/1 http://www.topografix.com/GPX/1/1/gpx.xsd http://www.garmin.com/xmlschemas/GpxExtensions/v3 http://www.garmin.com/xmlschemas/GpxExtensionsv3.xsd http://www.garmin.com/xmlschemas/TrackPointExtension/v1 http://www.garmin.com/xmlschemas/TrackPointExtensionv1.xsd" xmlns:gpxtpx="http://www.garmin.com/xmlschemas/TrackPointExtension/v1" xmlns:gpxx="http://www.garmin.com/xmlschemas/GpxExtensions/v3" xmlns:xsi="http://www.w3.org/2001/XMLSchema-instance">
  <metadata>
    <link href="https://www.youtrack.es">
      <text>YouTrack.es</text>
    </link>
    <time>2026-05-09T03:20:04Z</time>
  </metadata>
  <trk>
    <src>https://www.youtrack.es</src>
    <link href="https://www.youtrack.es/ruta/794-david">
      <text>YouTrack.es</text>
    </link>
    <trkseg>
      <trkpt lat="40.505315" lon="-3.69882333">
        <ele>709.0</ele>
        <time>2018-05-26T06:08:00.136Z</time>
      </trkpt>
      <trkpt lat="40.505315" lon="-3.69882333">
        <ele>709.0</ele>
        <time>2018-05-26T06:08:01.153Z</time>
      </trkpt>
      <trkpt lat="40.505315" lon="-3.69882333">
        <ele>709.0</ele>
        <time>2018-05-26T06:08:02.171Z</time>
      </trkpt>
      <trkpt lat="40.505315" lon="-3.69882333">
        <ele>709.0</ele>
        <time>2018-05-26T06:08:03.152Z</time>
      </trkpt>
      <trkpt lat="40.50532667" lon="-3.698785">
        <ele>709.0</ele>
        <time>2018-05-26T06:08:04.147Z</time>
      </trkpt>
      <trkpt lat="40.50532667" lon="-3.698785">
        <ele>709.0</ele>
        <time>2018-05-26T06:08:05.147Z</time>
      </trkpt>
      <trkpt lat="40.50531667" lon="-3.69880333">
        <ele>709.0</ele>
        <time>2018-05-26T06:08:06.144Z</time>
      </trkpt>
      <trkpt lat="40.50532" lon="-3.698815">
        <ele>709.0</ele>
        <time>2018-05-26T06:08:07.149Z</time>
      </trkpt>
      <trkpt lat="40.50532" lon="-3.698815">
        <ele>709.0</ele>
        <time>2018-05-26T06:08:08.144Z</time>
      </trkpt>
      <trkpt lat="40.50533333" lon="-3.69883667">
        <ele>709.0</ele>
        <time>2018-05-26T06:08:09.147Z</time>
      </trkpt>
      <trkpt lat="40.50533333" lon="-3.69883667">
        <ele>709.0</ele>
        <time>2018-05-26T06:08:10.148Z</time>
      </trkpt>
      <trkpt lat="40.50534833" lon="-3.69885667">
        <ele>709.0</ele>
        <time>2018-05-26T06:08:11.162Z</time>
      </trkpt>
      <trkpt lat="40.50534833" lon="-3.69885667">
        <ele>709.0</ele>
        <time>2018-05-26T06:08:12.156Z</time>
      </trkpt>
      <trkpt lat="40.50536167" lon="-3.698875">
        <ele>709.0</ele>
        <time>2018-05-26T06:08:13.157Z</time>
      </trkpt>
      <trkpt lat="40.50536167" lon="-3.698875">
        <ele>709.0</ele>
        <time>2018-05-26T06:08:14.154Z</time>
      </trkpt>
      <trkpt lat="40.50538167" lon="-3.698895">
        <ele>709.0</ele>
        <time>2018-05-26T06:08:15.156Z</time>
      </trkpt>
      <trkpt lat="40.50538167" lon="-3.698895">
        <ele>709.0</ele>
        <time>2018-05-26T06:08:16.153Z</time>
      </trkpt>
      <trkpt lat="40.50540833" lon="-3.69891833">
        <ele>709.0</ele>
        <time>2018-05-26T06:08:17.146Z</time>
      </trkpt>
      <trkpt lat="40.50540833" lon="-3.69891833">
        <ele>709.0</ele>
        <time>2018-05-26T06:08:18.144Z</time>
      </trkpt>
      <trkpt lat="40.50544" lon="-3.69893667">
        <ele>709.0</ele>
        <time>2018-05-26T06:08:19.148Z</time>
      </trkpt>
      <trkpt lat="40.505455" lon="-3.69894667">
        <ele>709.0</ele>
        <time>2018-05-26T06:08:20.150Z</time>
      </trkpt>
      <trkpt lat="40.505455" lon="-3.69894667">
        <ele>709.0</ele>
        <time>2018-05-26T06:08:21.144Z</time>
      </trkpt>
      <trkpt lat="40.50548833" lon="-3.69896667">
        <ele>709.0</ele>
        <time>2018-05-26T06:08:22.147Z</time>
      </trkpt>
      <trkpt lat="40.50548833" lon="-3.69896667">
        <ele>709.0</ele>
        <time>2018-05-26T06:08:23.143Z</time>
      </trkpt>
      <trkpt lat="40.50553167" lon="-3.69898667">
        <ele>709.0</ele>
        <time>2018-05-26T06:08:24.147Z</time>
      </trkpt>
      <trkpt lat="40.50553167" lon="-3.69898667">
        <ele>709.0</ele>
        <time>2018-05-26T06:08:25.149Z</time>
      </trkpt>
      <trkpt lat="40.505585" lon="-3.699015">
        <ele>709.0</ele>
        <time>2018-05-26T06:08:26.146Z</time>
      </trkpt>
      <trkpt lat="40.50561333" lon="-3.69901333">
        <ele>710.0</ele>
        <time>2018-05-26T06:08:27.147Z</time>
      </trkpt>
      <trkpt lat="40.50561333" lon="-3.69901333">
        <ele>710.0</ele>
        <time>2018-05-26T06:08:28.142Z</time>
      </trkpt>
      <trkpt lat="40.50566667" lon="-3.698945">
        <ele>712.0</ele>
        <time>2018-05-26T06:08:29.145Z</time>
      </trkpt>
      <trkpt lat="40.50566667" lon="-3.698945">
        <ele>712.0</ele>
        <time>2018-05-26T06:08:30.144Z</time>
      </trkpt>
      <trkpt lat="40.50573" lon="-3.69883333">
        <ele>713.0</ele>
        <time>2018-05-26T06:08:31.148Z</time>
      </trkpt>
      <trkpt lat="40.50573" lon="-3.69883333">
        <ele>713.0</ele>
        <time>2018-05-26T06:08:32.144Z</time>
      </trkpt>
      <trkpt lat="40.5058" lon="-3.69869833">
        <ele>714.0</ele>
        <time>2018-05-26T06:08:33.147Z</time>
      </trkpt>
      <trkpt lat="40.5058" lon="-3.69869833">
        <ele>714.0</ele>
        <time>2018-05-26T06:08:34.147Z</time>
      </trkpt>
      <trkpt lat="40.50587667" lon="-3.69857167">
        <ele>715.0</ele>
        <time>2018-05-26T06:08:35.147Z</time>
      </trkpt>
      <trkpt lat="40.50591833" lon="-3.69850833">
        <ele>715.0</ele>
        <time>2018-05-26T06:08:36.147Z</time>
      </trkpt>
      <trkpt lat="40.505955" lon="-3.69845">
        <ele>715.0</ele>
        <time>2018-05-26T06:08:37.169Z</time>
      </trkpt>
      <trkpt lat="40.50599167" lon="-3.698395">
        <ele>716.0</ele>
        <time>2018-05-26T06:08:38.157Z</time>
      </trkpt>
      <trkpt lat="40.50602667" lon="-3.69834167">
        <ele>716.0</ele>
        <time>2018-05-26T06:08:39.155Z</time>
      </trkpt>
      <trkpt lat="40.50602667" lon="-3.69834167">
        <ele>716.0</ele>
        <time>2018-05-26T06:08:40.167Z</time>
      </trkpt>
      <trkpt lat="40.50611167" lon="-3.69823">
        <ele>717.0</ele>
        <time>2018-05-26T06:08:41.160Z</time>
      </trkpt>
      <trkpt lat="40.50611167" lon="-3.69823">
        <ele>717.0</ele>
        <time>2018-05-26T06:08:42.157Z</time>
      </trkpt>
      <trkpt lat="40.50621333" lon="-3.698115">
        <ele>718.0</ele>
        <time>2018-05-26T06:08:43.148Z</time>
      </trkpt>
      <trkpt lat="40.50621333" lon="-3.698115">
        <ele>718.0</ele>
        <time>2018-05-26T06:08:44.144Z</time>
      </trkpt>
      <trkpt lat="40.50631" lon="-3.697985">
        <ele>718.0</ele>
        <time>2018-05-26T06:08:45.145Z</time>
      </trkpt>
      <trkpt lat="40.50635833" lon="-3.697925">
        <ele>718.0</ele>
        <time>2018-05-26T06:08:46.147Z</time>
      </trkpt>
      <trkpt lat="40.50635833" lon="-3.697925">
        <ele>718.0</ele>
        <time>2018-05-26T06:08:47.141Z</time>
      </trkpt>
      <trkpt lat="40.50646167" lon="-3.69781167">
        <ele>719.0</ele>
        <time>2018-05-26T06:08:48.146Z</time>
      </trkpt>
      <trkpt lat="40.50651667" lon="-3.69776167">
        <ele>719.0</ele>
        <time>2018-05-26T06:08:49.148Z</time>
      </trkpt>
      <trkpt lat="40.50651667" lon="-3.69776167">
        <ele>719.0</ele>
        <time>2018-05-26T06:08:50.145Z</time>
      </trkpt>
      <trkpt lat="40.50662833" lon="-3.69766667">
        <ele>720.0</ele>
        <time>2018-05-26T06:08:51.156Z</time>
      </trkpt>
      <trkpt lat="40.50662833" lon="-3.69766667">
        <ele>720.0</ele>
        <time>2018-05-26T06:08:52.144Z</time>
      </trkpt>
      <trkpt lat="40.50673833" lon="-3.69758167">
        <ele>720.0</ele>
        <time>2018-05-26T06:08:53.147Z</time>
      </trkpt>
      <trkpt lat="40.50673833" lon="-3.69758167">
        <ele>720.0</ele>
        <time>2018-05-26T06:08:54.142Z</time>
      </trkpt>
      <trkpt lat="40.50684833" lon="-3.69754167">
        <ele>723.0</ele>
        <time>2018-05-26T06:08:55.148Z</time>
      </trkpt>
      <trkpt lat="40.50684833" lon="-3.69754167">
        <ele>723.0</ele>
        <time>2018-05-26T06:08:56.143Z</time>
      </trkpt>
      <trkpt lat="40.506945" lon="-3.69757167">
        <ele>724.0</ele>
        <time>2018-05-26T06:08:57.147Z</time>
      </trkpt>
      <trkpt lat="40.506945" lon="-3.69757167">
        <ele>724.0</ele>
        <time>2018-05-26T06:08:58.144Z</time>
      </trkpt>
      <trkpt lat="40.50699833" lon="-3.69766833">
        <ele>725.0</ele>
        <time>2018-05-26T06:08:59.146Z</time>
      </trkpt>
      <trkpt lat="40.50702167" lon="-3.69771667">
        <ele>726.0</ele>
        <time>2018-05-26T06:09:00.141Z</time>
      </trkpt>
      <trkpt lat="40.50702167" lon="-3.69771667">
        <ele>726.0</ele>
        <time>2018-05-26T06:09:01.143Z</time>
      </trkpt>
      <trkpt lat="40.50705667" lon="-3.69778833">
        <ele>726.0</ele>
        <time>2018-05-26T06:09:02.147Z</time>
      </trkpt>
      <trkpt lat="40.50707833" lon="-3.69781833">
        <ele>725.0</ele>
        <time>2018-05-26T06:09:03.147Z</time>
      </trkpt>
      <trkpt lat="40.50707833" lon="-3.69781833">
        <ele>725.0</ele>
        <time>2018-05-26T06:09:04.144Z</time>
      </trkpt>
      <trkpt lat="40.50713833" lon="-3.69787333">
        <ele>725.0</ele>
        <time>2018-05-26T06:09:05.146Z</time>
      </trkpt>
      <trkpt lat="40.50717833" lon="-3.697895">
        <ele>726.0</ele>
        <time>2018-05-26T06:09:06.148Z</time>
      </trkpt>
      <trkpt lat="40.50717833" lon="-3.697895">
        <ele>726.0</ele>
        <time>2018-05-26T06:09:07.145Z</time>
      </trkpt>
      <trkpt lat="40.50727" lon="-3.69794">
        <ele>726.0</ele>
        <time>2018-05-26T06:09:08.147Z</time>
      </trkpt>
      <trkpt lat="40.50731833" lon="-3.69796833">
        <ele>726.0</ele>
        <time>2018-05-26T06:09:09.148Z</time>
      </trkpt>
      <trkpt lat="40.50731833" lon="-3.69796833">
        <ele>726.0</ele>
        <time>2018-05-26T06:09:10.139Z</time>
      </trkpt>
      <trkpt lat="40.50742167" lon="-3.69803">
        <ele>726.0</ele>
        <time>2018-05-26T06:09:11.146Z</time>
      </trkpt>
      <trkpt lat="40.50742167" lon="-3.69803">
        <ele>726.0</ele>
        <time>2018-05-26T06:09:12.144Z</time>
      </trkpt>
      <trkpt lat="40.507535" lon="-3.69808333">
        <ele>726.0</ele>
        <time>2018-05-26T06:09:13.147Z</time>
      </trkpt>
      <trkpt lat="40.507535" lon="-3.69808333">
        <ele>726.0</ele>
        <time>2018-05-26T06:09:14.142Z</time>
      </trkpt>
      <trkpt lat="40.507635" lon="-3.69812667">
        <ele>725.0</ele>
        <time>2018-05-26T06:09:15.156Z</time>
      </trkpt>
      <trkpt lat="40.507635" lon="-3.69812667">
        <ele>725.0</ele>
        <time>2018-05-26T06:09:16.144Z</time>
      </trkpt>
      <trkpt lat="40.50772333" lon="-3.69816667">
        <ele>725.0</ele>
        <time>2018-05-26T06:09:17.146Z</time>
      </trkpt>
      <trkpt lat="40.50772333" lon="-3.69816667">
        <ele>725.0</ele>
        <time>2018-05-26T06:09:18.144Z</time>
      </trkpt>
      <trkpt lat="40.50778167" lon="-3.69818167">
        <ele>725.0</ele>
        <time>2018-05-26T06:09:19.149Z</time>
      </trkpt>
      <trkpt lat="40.50778167" lon="-3.69818167">
        <ele>725.0</ele>
        <time>2018-05-26T06:09:20.144Z</time>
      </trkpt>
      <trkpt lat="40.50781833" lon="-3.69819333">
        <ele>725.0</ele>
        <time>2018-05-26T06:09:21.148Z</time>
      </trkpt>
      <trkpt lat="40.50781833" lon="-3.69819333">
        <ele>725.0</ele>
        <time>2018-05-26T06:09:22.159Z</time>
      </trkpt>
      <trkpt lat="40.50785833" lon="-3.69821167">
        <ele>725.0</ele>
        <time>2018-05-26T06:09:23.145Z</time>
      </trkpt>
      <trkpt lat="40.50785833" lon="-3.69821167">
        <ele>725.0</ele>
        <time>2018-05-26T06:09:24.144Z</time>
      </trkpt>
      <trkpt lat="40.50791333" lon="-3.69823667">
        <ele>725.0</ele>
        <time>2018-05-26T06:09:25.152Z</time>
      </trkpt>
      <trkpt lat="40.50791333" lon="-3.69823667">
        <ele>725.0</ele>
        <time>2018-05-26T06:09:26.144Z</time>
      </trkpt>
      <trkpt lat="40.50796333" lon="-3.69826">
        <ele>725.0</ele>
        <time>2018-05-26T06:09:27.151Z</time>
      </trkpt>
      <trkpt lat="40.50796333" lon="-3.69826">
        <ele>725.0</ele>
        <time>2018-05-26T06:09:28.145Z</time>
      </trkpt>
      <trkpt lat="40.50802333" lon="-3.698295">
        <ele>726.0</ele>
        <time>2018-05-26T06:09:29.147Z</time>
      </trkpt>
      <trkpt lat="40.50805333" lon="-3.69831167">
        <ele>726.0</ele>
        <time>2018-05-26T06:09:30.148Z</time>
      </trkpt>
      <trkpt lat="40.50808167" lon="-3.698325">
        <ele>727.0</ele>
        <time>2018-05-26T06:09:31.147Z</time>
      </trkpt>
      <trkpt lat="40.50808167" lon="-3.698325">
        <ele>727.0</ele>
        <time>2018-05-26T06:09:32.144Z</time>
      </trkpt>
      <trkpt lat="40.508135" lon="-3.69834667">
        <ele>727.0</ele>
        <time>2018-05-26T06:09:33.147Z</time>
      </trkpt>
      <trkpt lat="40.508135" lon="-3.69834667">
        <ele>727.0</ele>
        <time>2018-05-26T06:09:34.144Z</time>
      </trkpt>
      <trkpt lat="40.508195" lon="-3.69837667">
        <ele>727.0</ele>
        <time>2018-05-26T06:09:35.147Z</time>
      </trkpt>
      <trkpt lat="40.508195" lon="-3.69837667">
        <ele>727.0</ele>
        <time>2018-05-26T06:09:36.144Z</time>
      </trkpt>
      <trkpt lat="40.50827167" lon="-3.6984">
        <ele>727.0</ele>
        <time>2018-05-26T06:09:37.148Z</time>
      </trkpt>
      <trkpt lat="40.50827167" lon="-3.6984">
        <ele>727.0</ele>
        <time>2018-05-26T06:09:38.144Z</time>
      </trkpt>
      <trkpt lat="40.50834" lon="-3.698435">
        <ele>727.0</ele>
        <time>2018-05-26T06:09:39.147Z</time>
      </trkpt>
      <trkpt lat="40.50834" lon="-3.698435">
        <ele>727.0</ele>
        <time>2018-05-26T06:09:40.161Z</time>
      </trkpt>
      <trkpt lat="40.508405" lon="-3.69847167">
        <ele>726.0</ele>
        <time>2018-05-26T06:09:41.150Z</time>
      </trkpt>
      <trkpt lat="40.50843833" lon="-3.698485">
        <ele>726.0</ele>
        <time>2018-05-26T06:09:42.146Z</time>
      </trkpt>
      <trkpt lat="40.50847667" lon="-3.69849667">
        <ele>726.0</ele>
        <time>2018-05-26T06:09:43.148Z</time>
      </trkpt>
      <trkpt lat="40.50847667" lon="-3.69849667">
        <ele>726.0</ele>
        <time>2018-05-26T06:09:44.142Z</time>
      </trkpt>
      <trkpt lat="40.50854667" lon="-3.69852333">
        <ele>725.0</ele>
        <time>2018-05-26T06:09:45.147Z</time>
      </trkpt>
      <trkpt lat="40.50854667" lon="-3.69852333">
        <ele>725.0</ele>
        <time>2018-05-26T06:09:46.144Z</time>
      </trkpt>
      <trkpt lat="40.50861667" lon="-3.69855333">
        <ele>725.0</ele>
        <time>2018-05-26T06:09:47.147Z</time>
      </trkpt>
      <trkpt lat="40.50861667" lon="-3.69855333">
        <ele>725.0</ele>
        <time>2018-05-26T06:09:48.144Z</time>
      </trkpt>
      <trkpt lat="40.50867833" lon="-3.69858167">
        <ele>725.0</ele>
        <time>2018-05-26T06:09:49.147Z</time>
      </trkpt>
      <trkpt lat="40.50867833" lon="-3.69858167">
        <ele>725.0</ele>
        <time>2018-05-26T06:09:50.148Z</time>
      </trkpt>
      <trkpt lat="40.50875333" lon="-3.69859833">
        <ele>725.0</ele>
        <time>2018-05-26T06:09:51.148Z</time>
      </trkpt>
      <trkpt lat="40.50875333" lon="-3.69859833">
        <ele>725.0</ele>
        <time>2018-05-26T06:09:52.143Z</time>
      </trkpt>
      <trkpt lat="40.50884667" lon="-3.69863167">
        <ele>724.0</ele>
        <time>2018-05-26T06:09:53.147Z</time>
      </trkpt>
      <trkpt lat="40.5089" lon="-3.698645">
        <ele>724.0</ele>
        <time>2018-05-26T06:09:54.161Z</time>
      </trkpt>
      <trkpt lat="40.5089" lon="-3.698645">
        <ele>724.0</ele>
        <time>2018-05-26T06:09:55.152Z</time>
      </trkpt>
      <trkpt lat="40.50902" lon="-3.69868167">
        <ele>724.0</ele>
        <time>2018-05-26T06:09:56.148Z</time>
      </trkpt>
      <trkpt lat="40.50908167" lon="-3.69871333">
        <ele>724.0</ele>
        <time>2018-05-26T06:09:57.148Z</time>
      </trkpt>
      <trkpt lat="40.50908167" lon="-3.69871333">
        <ele>724.0</ele>
        <time>2018-05-26T06:09:58.144Z</time>
      </trkpt>
      <trkpt lat="40.50922" lon="-3.69877167">
        <ele>723.0</ele>
        <time>2018-05-26T06:09:59.149Z</time>
      </trkpt>
      <trkpt lat="40.50922" lon="-3.69877167">
        <ele>723.0</ele>
        <time>2018-05-26T06:10:00.145Z</time>
      </trkpt>
      <trkpt lat="40.50934833" lon="-3.69883667">
        <ele>723.0</ele>
        <time>2018-05-26T06:10:01.149Z</time>
      </trkpt>
      <trkpt lat="40.50934833" lon="-3.69883667">
        <ele>723.0</ele>
        <time>2018-05-26T06:10:02.144Z</time>
      </trkpt>
      <trkpt lat="40.50947333" lon="-3.698875">
        <ele>722.0</ele>
        <time>2018-05-26T06:10:03.146Z</time>
      </trkpt>
      <trkpt lat="40.50951833" lon="-3.69889333">
        <ele>723.0</ele>
        <time>2018-05-26T06:10:04.144Z</time>
      </trkpt>
      <trkpt lat="40.50951833" lon="-3.69889333">
        <ele>723.0</ele>
        <time>2018-05-26T06:10:05.144Z</time>
      </trkpt>
      <trkpt lat="40.509595" lon="-3.69892167">
        <ele>723.0</ele>
        <time>2018-05-26T06:10:06.147Z</time>
      </trkpt>
      <trkpt lat="40.50963333" lon="-3.69892667">
        <ele>723.0</ele>
        <time>2018-05-26T06:10:07.170Z</time>
      </trkpt>
      <trkpt lat="40.50963333" lon="-3.69892667">
        <ele>723.0</ele>
        <time>2018-05-26T06:10:08.154Z</time>
      </trkpt>
      <trkpt lat="40.50971833" lon="-3.69894167">
        <ele>723.0</ele>
        <time>2018-05-26T06:10:09.144Z</time>
      </trkpt>
      <trkpt lat="40.50971833" lon="-3.69894167">
        <ele>723.0</ele>
        <time>2018-05-26T06:10:10.151Z</time>
      </trkpt>
      <trkpt lat="40.50982833" lon="-3.69897667">
        <ele>723.0</ele>
        <time>2018-05-26T06:10:11.158Z</time>
      </trkpt>
      <trkpt lat="40.50988667" lon="-3.69899833">
        <ele>723.0</ele>
        <time>2018-05-26T06:10:12.151Z</time>
      </trkpt>
      <trkpt lat="40.509945" lon="-3.699025">
        <ele>723.0</ele>
        <time>2018-05-26T06:10:13.147Z</time>
      </trkpt>
      <trkpt lat="40.509945" lon="-3.699025">
        <ele>723.0</ele>
        <time>2018-05-26T06:10:14.145Z</time>
      </trkpt>
      <trkpt lat="40.51007167" lon="-3.69907167">
        <ele>723.0</ele>
        <time>2018-05-26T06:10:15.147Z</time>
      </trkpt>
      <trkpt lat="40.51007167" lon="-3.69907167">
        <ele>723.0</ele>
        <time>2018-05-26T06:10:16.157Z</time>
      </trkpt>
      <trkpt lat="40.51020833" lon="-3.69913167">
        <ele>722.0</ele>
        <time>2018-05-26T06:10:17.147Z</time>
      </trkpt>
      <trkpt lat="40.51027833" lon="-3.69916167">
        <ele>722.0</ele>
        <time>2018-05-26T06:10:18.147Z</time>
      </trkpt>
      <trkpt lat="40.51035167" lon="-3.69919">
        <ele>722.0</ele>
        <time>2018-05-26T06:10:19.145Z</time>
      </trkpt>
      <trkpt lat="40.51035167" lon="-3.69919">
        <ele>722.0</ele>
        <time>2018-05-26T06:10:20.142Z</time>
      </trkpt>
      <trkpt lat="40.5105" lon="-3.69924333">
        <ele>720.0</ele>
        <time>2018-05-26T06:10:21.147Z</time>
      </trkpt>
      <trkpt lat="40.5105" lon="-3.69924333">
        <ele>720.0</ele>
        <time>2018-05-26T06:10:22.144Z</time>
      </trkpt>
      <trkpt lat="40.51063667" lon="-3.699275">
        <ele>719.0</ele>
        <time>2018-05-26T06:10:23.147Z</time>
      </trkpt>
      <trkpt lat="40.51063667" lon="-3.699275">
        <ele>719.0</ele>
        <time>2018-05-26T06:10:24.144Z</time>
      </trkpt>
      <trkpt lat="40.51075667" lon="-3.69928667">
        <ele>717.0</ele>
        <time>2018-05-26T06:10:25.148Z</time>
      </trkpt>
      <trkpt lat="40.51075667" lon="-3.69928667">
        <ele>717.0</ele>
        <time>2018-05-26T06:10:26.145Z</time>
      </trkpt>
      <trkpt lat="40.51087167" lon="-3.6993">
        <ele>715.0</ele>
        <time>2018-05-26T06:10:27.147Z</time>
      </trkpt>
      <trkpt lat="40.51087167" lon="-3.6993">
        <ele>715.0</ele>
        <time>2018-05-26T06:10:28.145Z</time>
      </trkpt>
      <trkpt lat="40.51096667" lon="-3.69934833">
        <ele>714.0</ele>
        <time>2018-05-26T06:10:29.147Z</time>
      </trkpt>
      <trkpt lat="40.511005" lon="-3.69936833">
        <ele>714.0</ele>
        <time>2018-05-26T06:10:30.149Z</time>
      </trkpt>
      <trkpt lat="40.511005" lon="-3.69936833">
        <ele>714.0</ele>
        <time>2018-05-26T06:10:31.146Z</time>
      </trkpt>
      <trkpt lat="40.51108333" lon="-3.69937833">
        <ele>712.0</ele>
        <time>2018-05-26T06:10:32.147Z</time>
      </trkpt>
      <trkpt lat="40.51112167" lon="-3.699375">
        <ele>711.0</ele>
        <time>2018-05-26T06:10:33.148Z</time>
      </trkpt>
      <trkpt lat="40.51112167" lon="-3.699375">
        <ele>711.0</ele>
        <time>2018-05-26T06:10:34.139Z</time>
      </trkpt>
      <trkpt lat="40.511205" lon="-3.69938">
        <ele>710.0</ele>
        <time>2018-05-26T06:10:35.147Z</time>
      </trkpt>
      <trkpt lat="40.511205" lon="-3.69938">
        <ele>710.0</ele>
        <time>2018-05-26T06:10:36.147Z</time>
      </trkpt>
      <trkpt lat="40.511285" lon="-3.69942667">
        <ele>709.0</ele>
        <time>2018-05-26T06:10:37.148Z</time>
      </trkpt>
      <trkpt lat="40.511285" lon="-3.69942667">
        <ele>709.0</ele>
        <time>2018-05-26T06:10:38.144Z</time>
      </trkpt>
      <trkpt lat="40.51132833" lon="-3.69951167">
        <ele>707.0</ele>
        <time>2018-05-26T06:10:39.148Z</time>
      </trkpt>
      <trkpt lat="40.511335" lon="-3.69955167">
        <ele>707.0</ele>
        <time>2018-05-26T06:10:40.148Z</time>
      </trkpt>
      <trkpt lat="40.51134" lon="-3.699595">
        <ele>707.0</ele>
        <time>2018-05-26T06:10:41.155Z</time>
      </trkpt>
      <trkpt lat="40.51134" lon="-3.699595">
        <ele>707.0</ele>
        <time>2018-05-26T06:10:42.145Z</time>
      </trkpt>
      <trkpt lat="40.51133833" lon="-3.69970167">
        <ele>705.0</ele>
        <time>2018-05-26T06:10:43.148Z</time>
      </trkpt>
      <trkpt lat="40.51133833" lon="-3.69970167">
        <ele>705.0</ele>
        <time>2018-05-26T06:10:44.144Z</time>
      </trkpt>
      <trkpt lat="40.51132333" lon="-3.699805">
        <ele>704.0</ele>
        <time>2018-05-26T06:10:45.145Z</time>
      </trkpt>
      <trkpt lat="40.51132333" lon="-3.699805">
        <ele>704.0</ele>
        <time>2018-05-26T06:10:46.141Z</time>
      </trkpt>
      <trkpt lat="40.51129" lon="-3.699905">
        <ele>703.0</ele>
        <time>2018-05-26T06:10:47.147Z</time>
      </trkpt>
      <trkpt lat="40.51126667" lon="-3.69996333">
        <ele>702.0</ele>
        <time>2018-05-26T06:10:48.146Z</time>
      </trkpt>
      <trkpt lat="40.51124167" lon="-3.70002333">
        <ele>701.0</ele>
        <time>2018-05-26T06:10:49.147Z</time>
      </trkpt>
      <trkpt lat="40.51124167" lon="-3.70002333">
        <ele>701.0</ele>
        <time>2018-05-26T06:10:50.144Z</time>
      </trkpt>
      <trkpt lat="40.51119" lon="-3.70014">
        <ele>700.0</ele>
        <time>2018-05-26T06:10:51.144Z</time>
      </trkpt>
      <trkpt lat="40.51119" lon="-3.70014">
        <ele>700.0</ele>
        <time>2018-05-26T06:10:52.144Z</time>
      </trkpt>
      <trkpt lat="40.51113167" lon="-3.70025833">
        <ele>699.0</ele>
        <time>2018-05-26T06:10:53.146Z</time>
      </trkpt>
      <trkpt lat="40.51113167" lon="-3.70025833">
        <ele>699.0</ele>
        <time>2018-05-26T06:10:54.144Z</time>
      </trkpt>
      <trkpt lat="40.51106" lon="-3.70038333">
        <ele>699.0</ele>
        <time>2018-05-26T06:10:55.148Z</time>
      </trkpt>
      <trkpt lat="40.51106" lon="-3.70038333">
        <ele>699.0</ele>
        <time>2018-05-26T06:10:56.137Z</time>
      </trkpt>
      <trkpt lat="40.51098167" lon="-3.70052">
        <ele>698.0</ele>
        <time>2018-05-26T06:10:57.160Z</time>
      </trkpt>
      <trkpt lat="40.51093167" lon="-3.700585">
        <ele>698.0</ele>
        <time>2018-05-26T06:10:58.166Z</time>
      </trkpt>
      <trkpt lat="40.51093167" lon="-3.700585">
        <ele>698.0</ele>
        <time>2018-05-26T06:10:59.159Z</time>
      </trkpt>
      <trkpt lat="40.51083" lon="-3.700705">
        <ele>697.0</ele>
        <time>2018-05-26T06:11:00.160Z</time>
      </trkpt>
      <trkpt lat="40.510805" lon="-3.70076167">
        <ele>696.0</ele>
        <time>2018-05-26T06:11:01.152Z</time>
      </trkpt>
      <trkpt lat="40.510805" lon="-3.70076167">
        <ele>696.0</ele>
        <time>2018-05-26T06:11:02.144Z</time>
      </trkpt>
      <trkpt lat="40.51083333" lon="-3.70088333">
        <ele>696.0</ele>
        <time>2018-05-26T06:11:03.144Z</time>
      </trkpt>
      <trkpt lat="40.51083333" lon="-3.70088333">
        <ele>696.0</ele>
        <time>2018-05-26T06:11:04.144Z</time>
      </trkpt>
      <trkpt lat="40.51093" lon="-3.70098167">
        <ele>695.0</ele>
        <time>2018-05-26T06:11:05.147Z</time>
      </trkpt>
      <trkpt lat="40.51093" lon="-3.70098167">
        <ele>695.0</ele>
        <time>2018-05-26T06:11:06.147Z</time>
      </trkpt>
      <trkpt lat="40.51102167" lon="-3.701075">
        <ele>694.0</ele>
        <time>2018-05-26T06:11:07.145Z</time>
      </trkpt>
      <trkpt lat="40.51102167" lon="-3.701075">
        <ele>694.0</ele>
        <time>2018-05-26T06:11:08.144Z</time>
      </trkpt>
      <trkpt lat="40.51110167" lon="-3.70117">
        <ele>692.0</ele>
        <time>2018-05-26T06:11:09.147Z</time>
      </trkpt>
      <trkpt lat="40.51110167" lon="-3.70117">
        <ele>692.0</ele>
        <time>2018-05-26T06:11:10.142Z</time>
      </trkpt>
      <trkpt lat="40.511175" lon="-3.70128667">
        <ele>692.0</ele>
        <time>2018-05-26T06:11:11.147Z</time>
      </trkpt>
      <trkpt lat="40.511175" lon="-3.70128667">
        <ele>692.0</ele>
        <time>2018-05-26T06:11:12.144Z</time>
      </trkpt>
      <trkpt lat="40.51125833" lon="-3.70143333">
        <ele>691.0</ele>
        <time>2018-05-26T06:11:13.148Z</time>
      </trkpt>
      <trkpt lat="40.51125833" lon="-3.70143333">
        <ele>691.0</ele>
        <time>2018-05-26T06:11:14.143Z</time>
      </trkpt>
      <trkpt lat="40.51135833" lon="-3.70160167">
        <ele>690.0</ele>
        <time>2018-05-26T06:11:15.144Z</time>
      </trkpt>
      <trkpt lat="40.51135833" lon="-3.70160167">
        <ele>690.0</ele>
        <time>2018-05-26T06:11:16.145Z</time>
      </trkpt>
      <trkpt lat="40.51146833" lon="-3.70170667">
        <ele>689.0</ele>
        <time>2018-05-26T06:11:17.151Z</time>
      </trkpt>
      <trkpt lat="40.51146833" lon="-3.70170667">
        <ele>689.0</ele>
        <time>2018-05-26T06:11:18.145Z</time>
      </trkpt>
      <trkpt lat="40.51156833" lon="-3.701865">
        <ele>689.0</ele>
        <time>2018-05-26T06:11:19.149Z</time>
      </trkpt>
      <trkpt lat="40.51156833" lon="-3.701865">
        <ele>689.0</ele>
        <time>2018-05-26T06:11:20.145Z</time>
      </trkpt>
      <trkpt lat="40.51167833" lon="-3.70203667">
        <ele>688.0</ele>
        <time>2018-05-26T06:11:21.147Z</time>
      </trkpt>
      <trkpt lat="40.51167833" lon="-3.70203667">
        <ele>688.0</ele>
        <time>2018-05-26T06:11:22.149Z</time>
      </trkpt>
      <trkpt lat="40.51182333" lon="-3.70217667">
        <ele>688.0</ele>
        <time>2018-05-26T06:11:23.147Z</time>
      </trkpt>
      <trkpt lat="40.51189167" lon="-3.70224333">
        <ele>689.0</ele>
        <time>2018-05-26T06:11:24.147Z</time>
      </trkpt>
      <trkpt lat="40.51195333" lon="-3.70232">
        <ele>689.0</ele>
        <time>2018-05-26T06:11:25.148Z</time>
      </trkpt>
      <trkpt lat="40.51195333" lon="-3.70232">
        <ele>689.0</ele>
        <time>2018-05-26T06:11:26.141Z</time>
      </trkpt>
      <trkpt lat="40.51208" lon="-3.70248667">
        <ele>688.0</ele>
        <time>2018-05-26T06:11:27.146Z</time>
      </trkpt>
      <trkpt lat="40.51208" lon="-3.70248667">
        <ele>688.0</ele>
        <time>2018-05-26T06:11:28.144Z</time>
      </trkpt>
      <trkpt lat="40.512215" lon="-3.702655">
        <ele>688.0</ele>
        <time>2018-05-26T06:11:29.147Z</time>
      </trkpt>
      <trkpt lat="40.512285" lon="-3.70274167">
        <ele>688.0</ele>
        <time>2018-05-26T06:11:30.148Z</time>
      </trkpt>
      <trkpt lat="40.512285" lon="-3.70274167">
        <ele>688.0</ele>
        <time>2018-05-26T06:11:31.145Z</time>
      </trkpt>
      <trkpt lat="40.51243" lon="-3.70291333">
        <ele>688.0</ele>
        <time>2018-05-26T06:11:32.147Z</time>
      </trkpt>
      <trkpt lat="40.51250333" lon="-3.703">
        <ele>687.0</ele>
        <time>2018-05-26T06:11:33.147Z</time>
      </trkpt>
      <trkpt lat="40.51250333" lon="-3.703">
        <ele>687.0</ele>
        <time>2018-05-26T06:11:34.142Z</time>
      </trkpt>
      <trkpt lat="40.51265167" lon="-3.703155">
        <ele>686.0</ele>
        <time>2018-05-26T06:11:35.147Z</time>
      </trkpt>
      <trkpt lat="40.51265167" lon="-3.703155">
        <ele>686.0</ele>
        <time>2018-05-26T06:11:36.144Z</time>
      </trkpt>
      <trkpt lat="40.51276167" lon="-3.703255">
        <ele>686.0</ele>
        <time>2018-05-26T06:11:37.149Z</time>
      </trkpt>
      <trkpt lat="40.51276167" lon="-3.703255">
        <ele>686.0</ele>
        <time>2018-05-26T06:11:38.141Z</time>
      </trkpt>
      <trkpt lat="40.51284833" lon="-3.70330167">
        <ele>685.0</ele>
        <time>2018-05-26T06:11:39.149Z</time>
      </trkpt>
      <trkpt lat="40.51284833" lon="-3.70330167">
        <ele>685.0</ele>
        <time>2018-05-26T06:11:40.137Z</time>
      </trkpt>
      <trkpt lat="40.51292333" lon="-3.70333">
        <ele>685.0</ele>
        <time>2018-05-26T06:11:41.160Z</time>
      </trkpt>
      <trkpt lat="40.51292333" lon="-3.70333">
        <ele>685.0</ele>
        <time>2018-05-26T06:11:42.150Z</time>
      </trkpt>
      <trkpt lat="40.51297833" lon="-3.70333667">
        <ele>685.0</ele>
        <time>2018-05-26T06:11:43.148Z</time>
      </trkpt>
      <trkpt lat="40.51297833" lon="-3.70333667">
        <ele>685.0</ele>
        <time>2018-05-26T06:11:44.144Z</time>
      </trkpt>
      <trkpt lat="40.51302333" lon="-3.70333333">
        <ele>685.0</ele>
        <time>2018-05-26T06:11:45.157Z</time>
      </trkpt>
      <trkpt lat="40.51302333" lon="-3.70333333">
        <ele>685.0</ele>
        <time>2018-05-26T06:11:46.151Z</time>
      </trkpt>
      <trkpt lat="40.51305333" lon="-3.703335">
        <ele>685.0</ele>
        <time>2018-05-26T06:11:47.152Z</time>
      </trkpt>
      <trkpt lat="40.51305333" lon="-3.703335">
        <ele>685.0</ele>
        <time>2018-05-26T06:11:48.144Z</time>
      </trkpt>
      <trkpt lat="40.513075" lon="-3.70333667">
        <ele>684.0</ele>
        <time>2018-05-26T06:11:49.147Z</time>
      </trkpt>
      <trkpt lat="40.51308" lon="-3.70333833">
        <ele>684.0</ele>
        <time>2018-05-26T06:11:50.157Z</time>
      </trkpt>
      <trkpt lat="40.51308" lon="-3.70333833">
        <ele>684.0</ele>
        <time>2018-05-26T06:11:51.171Z</time>
      </trkpt>
      <trkpt lat="40.51308" lon="-3.70333833">
        <ele>684.0</ele>
        <time>2018-05-26T06:11:52.137Z</time>
      </trkpt>
      <trkpt lat="40.51308" lon="-3.70333833">
        <ele>684.0</ele>
        <time>2018-05-26T06:11:53.144Z</time>
      </trkpt>
      <trkpt lat="40.51325167" lon="-3.7034">
        <ele>683.0</ele>
        <time>2018-05-26T06:11:54.159Z</time>
      </trkpt>
      <trkpt lat="40.51325833" lon="-3.70340667">
        <ele>683.0</ele>
        <time>2018-05-26T06:11:55.158Z</time>
      </trkpt>
      <trkpt lat="40.51325833" lon="-3.70340667">
        <ele>683.0</ele>
        <time>2018-05-26T06:11:56.147Z</time>
      </trkpt>
      <trkpt lat="40.513275" lon="-3.70341833">
        <ele>683.0</ele>
        <time>2018-05-26T06:11:57.153Z</time>
      </trkpt>
      <trkpt lat="40.513275" lon="-3.70341833">
        <ele>683.0</ele>
        <time>2018-05-26T06:11:58.154Z</time>
      </trkpt>
      <trkpt lat="40.51329833" lon="-3.70343833">
        <ele>683.0</ele>
        <time>2018-05-26T06:11:59.151Z</time>
      </trkpt>
      <trkpt lat="40.51331667" lon="-3.703455">
        <ele>683.0</ele>
        <time>2018-05-26T06:12:00.164Z</time>
      </trkpt>
      <trkpt lat="40.51334" lon="-3.70346833">
        <ele>683.0</ele>
        <time>2018-05-26T06:12:01.155Z</time>
      </trkpt>
      <trkpt lat="40.51334" lon="-3.70346833">
        <ele>683.0</ele>
        <time>2018-05-26T06:12:02.149Z</time>
      </trkpt>
      <trkpt lat="40.513395" lon="-3.70349">
        <ele>682.0</ele>
        <time>2018-05-26T06:12:03.153Z</time>
      </trkpt>
      <trkpt lat="40.513395" lon="-3.70349">
        <ele>682.0</ele>
        <time>2018-05-26T06:12:04.151Z</time>
      </trkpt>
      <trkpt lat="40.51345667" lon="-3.703505">
        <ele>682.0</ele>
        <time>2018-05-26T06:12:05.152Z</time>
      </trkpt>
      <trkpt lat="40.51345667" lon="-3.703505">
        <ele>682.0</ele>
        <time>2018-05-26T06:12:06.146Z</time>
      </trkpt>
      <trkpt lat="40.51353" lon="-3.70351833">
        <ele>682.0</ele>
        <time>2018-05-26T06:12:07.154Z</time>
      </trkpt>
      <trkpt lat="40.51353" lon="-3.70351833">
        <ele>682.0</ele>
        <time>2018-05-26T06:12:08.147Z</time>
      </trkpt>
      <trkpt lat="40.513615" lon="-3.70353167">
        <ele>682.0</ele>
        <time>2018-05-26T06:12:09.152Z</time>
      </trkpt>
      <trkpt lat="40.513615" lon="-3.70353167">
        <ele>682.0</ele>
        <time>2018-05-26T06:12:10.150Z</time>
      </trkpt>
      <trkpt lat="40.51371167" lon="-3.703535">
        <ele>681.0</ele>
        <time>2018-05-26T06:12:11.152Z</time>
      </trkpt>
      <trkpt lat="40.51376333" lon="-3.703545">
        <ele>681.0</ele>
        <time>2018-05-26T06:12:12.153Z</time>
      </trkpt>
      <trkpt lat="40.51381833" lon="-3.703555">
        <ele>681.0</ele>
        <time>2018-05-26T06:12:13.150Z</time>
      </trkpt>
      <trkpt lat="40.51381833" lon="-3.703555">
        <ele>681.0</ele>
        <time>2018-05-26T06:12:14.149Z</time>
      </trkpt>
      <trkpt lat="40.51392333" lon="-3.70359">
        <ele>683.0</ele>
        <time>2018-05-26T06:12:15.153Z</time>
      </trkpt>
      <trkpt lat="40.51392333" lon="-3.70359">
        <ele>683.0</ele>
        <time>2018-05-26T06:12:16.143Z</time>
      </trkpt>
      <trkpt lat="40.51404" lon="-3.703625">
        <ele>684.0</ele>
        <time>2018-05-26T06:12:17.152Z</time>
      </trkpt>
      <trkpt lat="40.51409833" lon="-3.703635">
        <ele>684.0</ele>
        <time>2018-05-26T06:12:18.153Z</time>
      </trkpt>
      <trkpt lat="40.514155" lon="-3.70364833">
        <ele>684.0</ele>
        <time>2018-05-26T06:12:19.151Z</time>
      </trkpt>
      <trkpt lat="40.514155" lon="-3.70364833">
        <ele>684.0</ele>
        <time>2018-05-26T06:12:20.149Z</time>
      </trkpt>
      <trkpt lat="40.51427667" lon="-3.70367833">
        <ele>685.0</ele>
        <time>2018-05-26T06:12:21.153Z</time>
      </trkpt>
      <trkpt lat="40.51427667" lon="-3.70367833">
        <ele>685.0</ele>
        <time>2018-05-26T06:12:22.148Z</time>
      </trkpt>
      <trkpt lat="40.51438333" lon="-3.70371333">
        <ele>687.0</ele>
        <time>2018-05-26T06:12:23.152Z</time>
      </trkpt>
      <trkpt lat="40.51443667" lon="-3.70372667">
        <ele>687.0</ele>
        <time>2018-05-26T06:12:24.152Z</time>
      </trkpt>
      <trkpt lat="40.51449333" lon="-3.703735">
        <ele>688.0</ele>
        <time>2018-05-26T06:12:25.156Z</time>
      </trkpt>
      <trkpt lat="40.51449333" lon="-3.703735">
        <ele>688.0</ele>
        <time>2018-05-26T06:12:26.147Z</time>
      </trkpt>
      <trkpt lat="40.514605" lon="-3.703765">
        <ele>688.0</ele>
        <time>2018-05-26T06:12:27.168Z</time>
      </trkpt>
      <trkpt lat="40.514605" lon="-3.703765">
        <ele>688.0</ele>
        <time>2018-05-26T06:12:28.172Z</time>
      </trkpt>
      <trkpt lat="40.51471167" lon="-3.70381167">
        <ele>688.0</ele>
        <time>2018-05-26T06:12:29.162Z</time>
      </trkpt>
      <trkpt lat="40.51471167" lon="-3.70381167">
        <ele>688.0</ele>
        <time>2018-05-26T06:12:30.150Z</time>
      </trkpt>
      <trkpt lat="40.514815" lon="-3.70385333">
        <ele>689.0</ele>
        <time>2018-05-26T06:12:31.150Z</time>
      </trkpt>
      <trkpt lat="40.514815" lon="-3.70385333">
        <ele>689.0</ele>
        <time>2018-05-26T06:12:32.150Z</time>
      </trkpt>
      <trkpt lat="40.51491333" lon="-3.70389">
        <ele>690.0</ele>
        <time>2018-05-26T06:12:33.154Z</time>
      </trkpt>
      <trkpt lat="40.51491333" lon="-3.70389">
        <ele>690.0</ele>
        <time>2018-05-26T06:12:34.147Z</time>
      </trkpt>
      <trkpt lat="40.51501167" lon="-3.70393167">
        <ele>690.0</ele>
        <time>2018-05-26T06:12:35.152Z</time>
      </trkpt>
      <trkpt lat="40.51501167" lon="-3.70393167">
        <ele>690.0</ele>
        <time>2018-05-26T06:12:36.151Z</time>
      </trkpt>
      <trkpt lat="40.51511" lon="-3.703965">
        <ele>691.0</ele>
        <time>2018-05-26T06:12:37.152Z</time>
      </trkpt>
      <trkpt lat="40.51511" lon="-3.703965">
        <ele>691.0</ele>
        <time>2018-05-26T06:12:38.150Z</time>
      </trkpt>
      <trkpt lat="40.51521167" lon="-3.70399333">
        <ele>691.0</ele>
        <time>2018-05-26T06:12:39.153Z</time>
      </trkpt>
      <trkpt lat="40.51521167" lon="-3.70399333">
        <ele>691.0</ele>
        <time>2018-05-26T06:12:40.150Z</time>
      </trkpt>
      <trkpt lat="40.51530833" lon="-3.70402">
        <ele>692.0</ele>
        <time>2018-05-26T06:12:41.152Z</time>
      </trkpt>
      <trkpt lat="40.51535667" lon="-3.70403">
        <ele>693.0</ele>
        <time>2018-05-26T06:12:42.153Z</time>
      </trkpt>
      <trkpt lat="40.51535667" lon="-3.70403">
        <ele>693.0</ele>
        <time>2018-05-26T06:12:43.151Z</time>
      </trkpt>
      <trkpt lat="40.51544" lon="-3.704045">
        <ele>695.0</ele>
        <time>2018-05-26T06:12:44.152Z</time>
      </trkpt>
      <trkpt lat="40.51544" lon="-3.704045">
        <ele>695.0</ele>
        <time>2018-05-26T06:12:45.148Z</time>
      </trkpt>
      <trkpt lat="40.51551667" lon="-3.70406">
        <ele>696.0</ele>
        <time>2018-05-26T06:12:46.152Z</time>
      </trkpt>
      <trkpt lat="40.51555667" lon="-3.70407">
        <ele>696.0</ele>
        <time>2018-05-26T06:12:47.153Z</time>
      </trkpt>
      <trkpt lat="40.51555667" lon="-3.70407">
        <ele>696.0</ele>
        <time>2018-05-26T06:12:48.136Z</time>
      </trkpt>
      <trkpt lat="40.51562667" lon="-3.704095">
        <ele>697.0</ele>
        <time>2018-05-26T06:12:49.162Z</time>
      </trkpt>
      <trkpt lat="40.51562667" lon="-3.704095">
        <ele>697.0</ele>
        <time>2018-05-26T06:12:50.151Z</time>
      </trkpt>
      <trkpt lat="40.51569167" lon="-3.70412">
        <ele>698.0</ele>
        <time>2018-05-26T06:12:51.154Z</time>
      </trkpt>
      <trkpt lat="40.51569167" lon="-3.70412">
        <ele>698.0</ele>
        <time>2018-05-26T06:12:52.148Z</time>
      </trkpt>
      <trkpt lat="40.515755" lon="-3.704145">
        <ele>699.0</ele>
        <time>2018-05-26T06:12:53.157Z</time>
      </trkpt>
      <trkpt lat="40.51578667" lon="-3.70415667">
        <ele>699.0</ele>
        <time>2018-05-26T06:12:54.154Z</time>
      </trkpt>
      <trkpt lat="40.51582" lon="-3.704165">
        <ele>699.0</ele>
        <time>2018-05-26T06:12:55.151Z</time>
      </trkpt>
      <trkpt lat="40.51582" lon="-3.704165">
        <ele>699.0</ele>
        <time>2018-05-26T06:12:56.149Z</time>
      </trkpt>
      <trkpt lat="40.51589" lon="-3.704175">
        <ele>698.0</ele>
        <time>2018-05-26T06:12:57.157Z</time>
      </trkpt>
      <trkpt lat="40.51589" lon="-3.704175">
        <ele>698.0</ele>
        <time>2018-05-26T06:12:58.161Z</time>
      </trkpt>
      <trkpt lat="40.51596" lon="-3.70418">
        <ele>698.0</ele>
        <time>2018-05-26T06:12:59.153Z</time>
      </trkpt>
      <trkpt lat="40.51599667" lon="-3.70418">
        <ele>698.0</ele>
        <time>2018-05-26T06:13:00.169Z</time>
      </trkpt>
      <trkpt lat="40.51599667" lon="-3.70418">
        <ele>698.0</ele>
        <time>2018-05-26T06:13:01.158Z</time>
      </trkpt>
      <trkpt lat="40.51607333" lon="-3.70418167">
        <ele>698.0</ele>
        <time>2018-05-26T06:13:02.153Z</time>
      </trkpt>
      <trkpt lat="40.51611" lon="-3.704185">
        <ele>698.0</ele>
        <time>2018-05-26T06:13:03.153Z</time>
      </trkpt>
      <trkpt lat="40.51611" lon="-3.704185">
        <ele>698.0</ele>
        <time>2018-05-26T06:13:04.149Z</time>
      </trkpt>
      <trkpt lat="40.51619333" lon="-3.704195">
        <ele>698.0</ele>
        <time>2018-05-26T06:13:05.152Z</time>
      </trkpt>
      <trkpt lat="40.51619333" lon="-3.704195">
        <ele>698.0</ele>
        <time>2018-05-26T06:13:06.150Z</time>
      </trkpt>
      <trkpt lat="40.51627333" lon="-3.70421">
        <ele>698.0</ele>
        <time>2018-05-26T06:13:07.153Z</time>
      </trkpt>
      <trkpt lat="40.51627333" lon="-3.70421">
        <ele>698.0</ele>
        <time>2018-05-26T06:13:08.169Z</time>
      </trkpt>
      <trkpt lat="40.51635667" lon="-3.70422833">
        <ele>698.0</ele>
        <time>2018-05-26T06:13:09.154Z</time>
      </trkpt>
      <trkpt lat="40.51635667" lon="-3.70422833">
        <ele>698.0</ele>
        <time>2018-05-26T06:13:10.150Z</time>
      </trkpt>
      <trkpt lat="40.51644" lon="-3.704245">
        <ele>699.0</ele>
        <time>2018-05-26T06:13:11.152Z</time>
      </trkpt>
      <trkpt lat="40.51647667" lon="-3.70425333">
        <ele>699.0</ele>
        <time>2018-05-26T06:13:12.151Z</time>
      </trkpt>
      <trkpt lat="40.51647667" lon="-3.70425333">
        <ele>699.0</ele>
        <time>2018-05-26T06:13:13.152Z</time>
      </trkpt>
      <trkpt lat="40.51655167" lon="-3.70426333">
        <ele>700.0</ele>
        <time>2018-05-26T06:13:14.153Z</time>
      </trkpt>
      <trkpt lat="40.51655167" lon="-3.70426333">
        <ele>700.0</ele>
        <time>2018-05-26T06:13:15.149Z</time>
      </trkpt>
      <trkpt lat="40.51662333" lon="-3.70426667">
        <ele>701.0</ele>
        <time>2018-05-26T06:13:16.153Z</time>
      </trkpt>
      <trkpt lat="40.51662333" lon="-3.70426667">
        <ele>701.0</ele>
        <time>2018-05-26T06:13:17.149Z</time>
      </trkpt>
      <trkpt lat="40.51669167" lon="-3.70427333">
        <ele>701.0</ele>
        <time>2018-05-26T06:13:18.152Z</time>
      </trkpt>
      <trkpt lat="40.51673167" lon="-3.70427833">
        <ele>701.0</ele>
        <time>2018-05-26T06:13:19.150Z</time>
      </trkpt>
      <trkpt lat="40.51673167" lon="-3.70427833">
        <ele>701.0</ele>
        <time>2018-05-26T06:13:20.147Z</time>
      </trkpt>
      <trkpt lat="40.51681333" lon="-3.70429">
        <ele>701.0</ele>
        <time>2018-05-26T06:13:21.150Z</time>
      </trkpt>
      <trkpt lat="40.51681333" lon="-3.70429">
        <ele>701.0</ele>
        <time>2018-05-26T06:13:22.150Z</time>
      </trkpt>
      <trkpt lat="40.51689333" lon="-3.70430333">
        <ele>702.0</ele>
        <time>2018-05-26T06:13:23.152Z</time>
      </trkpt>
      <trkpt lat="40.51693167" lon="-3.70431333">
        <ele>702.0</ele>
        <time>2018-05-26T06:13:24.153Z</time>
      </trkpt>
      <trkpt lat="40.51697167" lon="-3.70432">
        <ele>702.0</ele>
        <time>2018-05-26T06:13:25.154Z</time>
      </trkpt>
      <trkpt lat="40.51697167" lon="-3.70432">
        <ele>702.0</ele>
        <time>2018-05-26T06:13:26.149Z</time>
      </trkpt>
      <trkpt lat="40.51705167" lon="-3.70432833">
        <ele>701.0</ele>
        <time>2018-05-26T06:13:27.152Z</time>
      </trkpt>
      <trkpt lat="40.517085" lon="-3.70433167">
        <ele>702.0</ele>
        <time>2018-05-26T06:13:28.149Z</time>
      </trkpt>
      <trkpt lat="40.517085" lon="-3.70433167">
        <ele>702.0</ele>
        <time>2018-05-26T06:13:29.147Z</time>
      </trkpt>
      <trkpt lat="40.51714667" lon="-3.704325">
        <ele>702.0</ele>
        <time>2018-05-26T06:13:30.151Z</time>
      </trkpt>
      <trkpt lat="40.51718" lon="-3.70432333">
        <ele>703.0</ele>
        <time>2018-05-26T06:13:31.151Z</time>
      </trkpt>
      <trkpt lat="40.51718" lon="-3.70432333">
        <ele>703.0</ele>
        <time>2018-05-26T06:13:32.150Z</time>
      </trkpt>
      <trkpt lat="40.517245" lon="-3.70431667">
        <ele>702.0</ele>
        <time>2018-05-26T06:13:33.153Z</time>
      </trkpt>
      <trkpt lat="40.517245" lon="-3.70431667">
        <ele>702.0</ele>
        <time>2018-05-26T06:13:34.149Z</time>
      </trkpt>
      <trkpt lat="40.517325" lon="-3.70430167">
        <ele>702.0</ele>
        <time>2018-05-26T06:13:35.152Z</time>
      </trkpt>
      <trkpt lat="40.51736833" lon="-3.70428833">
        <ele>702.0</ele>
        <time>2018-05-26T06:13:36.153Z</time>
      </trkpt>
      <trkpt lat="40.51736833" lon="-3.70428833">
        <ele>702.0</ele>
        <time>2018-05-26T06:13:37.150Z</time>
      </trkpt>
      <trkpt lat="40.51745167" lon="-3.70425333">
        <ele>702.0</ele>
        <time>2018-05-26T06:13:38.152Z</time>
      </trkpt>
      <trkpt lat="40.51749333" lon="-3.70423333">
        <ele>702.0</ele>
        <time>2018-05-26T06:13:39.153Z</time>
      </trkpt>
      <trkpt lat="40.51749333" lon="-3.70423333">
        <ele>702.0</ele>
        <time>2018-05-26T06:13:40.150Z</time>
      </trkpt>
      <trkpt lat="40.51757833" lon="-3.70421667">
        <ele>702.0</ele>
        <time>2018-05-26T06:13:41.152Z</time>
      </trkpt>
      <trkpt lat="40.51757833" lon="-3.70421667">
        <ele>702.0</ele>
        <time>2018-05-26T06:13:42.148Z</time>
      </trkpt>
      <trkpt lat="40.51766333" lon="-3.70423667">
        <ele>701.0</ele>
        <time>2018-05-26T06:13:43.138Z</time>
      </trkpt>
      <trkpt lat="40.51766333" lon="-3.70423667">
        <ele>701.0</ele>
        <time>2018-05-26T06:13:44.160Z</time>
      </trkpt>
      <trkpt lat="40.51774333" lon="-3.70426667">
        <ele>702.0</ele>
        <time>2018-05-26T06:13:45.153Z</time>
      </trkpt>
      <trkpt lat="40.51774333" lon="-3.70426667">
        <ele>702.0</ele>
        <time>2018-05-26T06:13:46.147Z</time>
      </trkpt>
      <trkpt lat="40.51782167" lon="-3.70429667">
        <ele>702.0</ele>
        <time>2018-05-26T06:13:47.152Z</time>
      </trkpt>
      <trkpt lat="40.51785833" lon="-3.70430667">
        <ele>702.0</ele>
        <time>2018-05-26T06:13:48.163Z</time>
      </trkpt>
      <trkpt lat="40.51789667" lon="-3.70431167">
        <ele>703.0</ele>
        <time>2018-05-26T06:13:49.155Z</time>
      </trkpt>
      <trkpt lat="40.51789667" lon="-3.70431167">
        <ele>703.0</ele>
        <time>2018-05-26T06:13:50.149Z</time>
      </trkpt>
      <trkpt lat="40.51797" lon="-3.704315">
        <ele>703.0</ele>
        <time>2018-05-26T06:13:51.152Z</time>
      </trkpt>
      <trkpt lat="40.51800667" lon="-3.704315">
        <ele>703.0</ele>
        <time>2018-05-26T06:13:52.152Z</time>
      </trkpt>
      <trkpt lat="40.51800667" lon="-3.704315">
        <ele>703.0</ele>
        <time>2018-05-26T06:13:53.147Z</time>
      </trkpt>
      <trkpt lat="40.518075" lon="-3.704305">
        <ele>704.0</ele>
        <time>2018-05-26T06:13:54.154Z</time>
      </trkpt>
      <trkpt lat="40.518105" lon="-3.7043">
        <ele>704.0</ele>
        <time>2018-05-26T06:13:55.156Z</time>
      </trkpt>
      <trkpt lat="40.518105" lon="-3.7043">
        <ele>704.0</ele>
        <time>2018-05-26T06:13:56.152Z</time>
      </trkpt>
      <trkpt lat="40.51817" lon="-3.70428167">
        <ele>705.0</ele>
        <time>2018-05-26T06:13:57.150Z</time>
      </trkpt>
      <trkpt lat="40.51820167" lon="-3.70426833">
        <ele>706.0</ele>
        <time>2018-05-26T06:13:58.154Z</time>
      </trkpt>
      <trkpt lat="40.51823333" lon="-3.70425333">
        <ele>706.0</ele>
        <time>2018-05-26T06:13:59.144Z</time>
      </trkpt>
      <trkpt lat="40.51823333" lon="-3.70425333">
        <ele>706.0</ele>
        <time>2018-05-26T06:14:00.158Z</time>
      </trkpt>
      <trkpt lat="40.5183" lon="-3.70422">
        <ele>707.0</ele>
        <time>2018-05-26T06:14:01.157Z</time>
      </trkpt>
      <trkpt lat="40.5183" lon="-3.70422">
        <ele>707.0</ele>
        <time>2018-05-26T06:14:02.158Z</time>
      </trkpt>
      <trkpt lat="40.518365" lon="-3.70417833">
        <ele>707.0</ele>
        <time>2018-05-26T06:14:03.158Z</time>
      </trkpt>
      <trkpt lat="40.51839667" lon="-3.70415667">
        <ele>707.0</ele>
        <time>2018-05-26T06:14:04.166Z</time>
      </trkpt>
      <trkpt lat="40.51839667" lon="-3.70415667">
        <ele>707.0</ele>
        <time>2018-05-26T06:14:05.167Z</time>
      </trkpt>
      <trkpt lat="40.51845667" lon="-3.70411333">
        <ele>708.0</ele>
        <time>2018-05-26T06:14:06.157Z</time>
      </trkpt>
      <trkpt lat="40.51845667" lon="-3.70411333">
        <ele>708.0</ele>
        <time>2018-05-26T06:14:07.157Z</time>
      </trkpt>
      <trkpt lat="40.51852" lon="-3.70407833">
        <ele>708.0</ele>
        <time>2018-05-26T06:14:08.155Z</time>
      </trkpt>
      <trkpt lat="40.51855333" lon="-3.70406667">
        <ele>708.0</ele>
        <time>2018-05-26T06:14:09.156Z</time>
      </trkpt>
      <trkpt lat="40.51855333" lon="-3.70406667">
        <ele>708.0</ele>
        <time>2018-05-26T06:14:10.154Z</time>
      </trkpt>
      <trkpt lat="40.518625" lon="-3.70405">
        <ele>708.0</ele>
        <time>2018-05-26T06:14:11.157Z</time>
      </trkpt>
      <trkpt lat="40.518625" lon="-3.70405">
        <ele>708.0</ele>
        <time>2018-05-26T06:14:12.163Z</time>
      </trkpt>
      <trkpt lat="40.51869" lon="-3.70403667">
        <ele>708.0</ele>
        <time>2018-05-26T06:14:13.163Z</time>
      </trkpt>
      <trkpt lat="40.51869" lon="-3.70403667">
        <ele>708.0</ele>
        <time>2018-05-26T06:14:14.159Z</time>
      </trkpt>
      <trkpt lat="40.51875167" lon="-3.70402333">
        <ele>709.0</ele>
        <time>2018-05-26T06:14:15.155Z</time>
      </trkpt>
      <trkpt lat="40.51878333" lon="-3.70401833">
        <ele>710.0</ele>
        <time>2018-05-26T06:14:16.154Z</time>
      </trkpt>
      <trkpt lat="40.51878333" lon="-3.70401833">
        <ele>710.0</ele>
        <time>2018-05-26T06:14:17.154Z</time>
      </trkpt>
      <trkpt lat="40.51884667" lon="-3.704015">
        <ele>711.0</ele>
        <time>2018-05-26T06:14:18.164Z</time>
      </trkpt>
      <trkpt lat="40.51887833" lon="-3.70401333">
        <ele>711.0</ele>
        <time>2018-05-26T06:14:19.159Z</time>
      </trkpt>
      <trkpt lat="40.51887833" lon="-3.70401333">
        <ele>711.0</ele>
        <time>2018-05-26T06:14:20.163Z</time>
      </trkpt>
      <trkpt lat="40.51893167" lon="-3.70401">
        <ele>712.0</ele>
        <time>2018-05-26T06:14:21.159Z</time>
      </trkpt>
      <trkpt lat="40.51893167" lon="-3.70401">
        <ele>712.0</ele>
        <time>2018-05-26T06:14:22.157Z</time>
      </trkpt>
      <trkpt lat="40.51897" lon="-3.70401167">
        <ele>712.0</ele>
        <time>2018-05-26T06:14:23.155Z</time>
      </trkpt>
      <trkpt lat="40.51897" lon="-3.70401167">
        <ele>712.0</ele>
        <time>2018-05-26T06:14:24.151Z</time>
      </trkpt>
      <trkpt lat="40.519005" lon="-3.70401667">
        <ele>712.0</ele>
        <time>2018-05-26T06:14:25.151Z</time>
      </trkpt>
      <trkpt lat="40.519005" lon="-3.70401667">
        <ele>712.0</ele>
        <time>2018-05-26T06:14:26.150Z</time>
      </trkpt>
      <trkpt lat="40.51905167" lon="-3.70401833">
        <ele>712.0</ele>
        <time>2018-05-26T06:14:27.154Z</time>
      </trkpt>
      <trkpt lat="40.51905167" lon="-3.70401833">
        <ele>712.0</ele>
        <time>2018-05-26T06:14:28.152Z</time>
      </trkpt>
      <trkpt lat="40.51910167" lon="-3.704015">
        <ele>712.0</ele>
        <time>2018-05-26T06:14:29.153Z</time>
      </trkpt>
      <trkpt lat="40.51910167" lon="-3.704015">
        <ele>712.0</ele>
        <time>2018-05-26T06:14:30.151Z</time>
      </trkpt>
      <trkpt lat="40.51914333" lon="-3.70402167">
        <ele>712.0</ele>
        <time>2018-05-26T06:14:31.151Z</time>
      </trkpt>
      <trkpt lat="40.51914333" lon="-3.70402167">
        <ele>712.0</ele>
        <time>2018-05-26T06:14:32.148Z</time>
      </trkpt>
      <trkpt lat="40.519185" lon="-3.70405">
        <ele>713.0</ele>
        <time>2018-05-26T06:14:33.155Z</time>
      </trkpt>
      <trkpt lat="40.519185" lon="-3.70405">
        <ele>713.0</ele>
        <time>2018-05-26T06:14:34.150Z</time>
      </trkpt>
      <trkpt lat="40.51923" lon="-3.70408333">
        <ele>713.0</ele>
        <time>2018-05-26T06:14:35.153Z</time>
      </trkpt>
      <trkpt lat="40.51923" lon="-3.70408333">
        <ele>713.0</ele>
        <time>2018-05-26T06:14:36.148Z</time>
      </trkpt>
      <trkpt lat="40.51928" lon="-3.704115">
        <ele>713.0</ele>
        <time>2018-05-26T06:14:37.154Z</time>
      </trkpt>
      <trkpt lat="40.51930833" lon="-3.70412833">
        <ele>713.0</ele>
        <time>2018-05-26T06:14:38.152Z</time>
      </trkpt>
      <trkpt lat="40.51933833" lon="-3.70414">
        <ele>714.0</ele>
        <time>2018-05-26T06:14:39.154Z</time>
      </trkpt>
      <trkpt lat="40.51933833" lon="-3.70414">
        <ele>714.0</ele>
        <time>2018-05-26T06:14:40.151Z</time>
      </trkpt>
      <trkpt lat="40.51939833" lon="-3.70417167">
        <ele>714.0</ele>
        <time>2018-05-26T06:14:41.153Z</time>
      </trkpt>
      <trkpt lat="40.51939833" lon="-3.70417167">
        <ele>714.0</ele>
        <time>2018-05-26T06:14:42.150Z</time>
      </trkpt>
      <trkpt lat="40.51946167" lon="-3.70420667">
        <ele>714.0</ele>
        <time>2018-05-26T06:14:43.151Z</time>
      </trkpt>
      <trkpt lat="40.51946167" lon="-3.70420667">
        <ele>714.0</ele>
        <time>2018-05-26T06:14:44.151Z</time>
      </trkpt>
      <trkpt lat="40.51953167" lon="-3.704245">
        <ele>714.0</ele>
        <time>2018-05-26T06:14:45.153Z</time>
      </trkpt>
      <trkpt lat="40.51953167" lon="-3.704245">
        <ele>714.0</ele>
        <time>2018-05-26T06:14:46.149Z</time>
      </trkpt>
      <trkpt lat="40.519595" lon="-3.704285">
        <ele>714.0</ele>
        <time>2018-05-26T06:14:47.154Z</time>
      </trkpt>
      <trkpt lat="40.519595" lon="-3.704285">
        <ele>714.0</ele>
        <time>2018-05-26T06:14:48.156Z</time>
      </trkpt>
      <trkpt lat="40.51966" lon="-3.704325">
        <ele>715.0</ele>
        <time>2018-05-26T06:14:49.151Z</time>
      </trkpt>
      <trkpt lat="40.51966" lon="-3.704325">
        <ele>715.0</ele>
        <time>2018-05-26T06:14:50.152Z</time>
      </trkpt>
      <trkpt lat="40.51972" lon="-3.70436667">
        <ele>715.0</ele>
        <time>2018-05-26T06:14:51.153Z</time>
      </trkpt>
      <trkpt lat="40.51974667" lon="-3.70438333">
        <ele>716.0</ele>
        <time>2018-05-26T06:14:52.158Z</time>
      </trkpt>
      <trkpt lat="40.51974667" lon="-3.70438333">
        <ele>716.0</ele>
        <time>2018-05-26T06:14:53.154Z</time>
      </trkpt>
      <trkpt lat="40.51979833" lon="-3.70441333">
        <ele>716.0</ele>
        <time>2018-05-26T06:14:54.154Z</time>
      </trkpt>
      <trkpt lat="40.519815" lon="-3.70442167">
        <ele>716.0</ele>
        <time>2018-05-26T06:14:55.151Z</time>
      </trkpt>
      <trkpt lat="40.519815" lon="-3.70442167">
        <ele>716.0</ele>
        <time>2018-05-26T06:14:56.149Z</time>
      </trkpt>
      <trkpt lat="40.51982833" lon="-3.704425">
        <ele>717.0</ele>
        <time>2018-05-26T06:14:57.155Z</time>
      </trkpt>
      <trkpt lat="40.51982833" lon="-3.704425">
        <ele>717.0</ele>
        <time>2018-05-26T06:14:58.151Z</time>
      </trkpt>
      <trkpt lat="40.51982667" lon="-3.704425">
        <ele>717.0</ele>
        <time>2018-05-26T06:14:59.154Z</time>
      </trkpt>
      <trkpt lat="40.51986667" lon="-3.70444833">
        <ele>717.0</ele>
        <time>2018-05-26T06:15:00.153Z</time>
      </trkpt>
      <trkpt lat="40.51986667" lon="-3.70444833">
        <ele>717.0</ele>
        <time>2018-05-26T06:15:01.153Z</time>
      </trkpt>
      <trkpt lat="40.5199" lon="-3.70445833">
        <ele>717.0</ele>
        <time>2018-05-26T06:15:02.147Z</time>
      </trkpt>
      <trkpt lat="40.5199" lon="-3.70445833">
        <ele>717.0</ele>
        <time>2018-05-26T06:15:03.143Z</time>
      </trkpt>
      <trkpt lat="40.519935" lon="-3.704475">
        <ele>717.0</ele>
        <time>2018-05-26T06:15:04.149Z</time>
      </trkpt>
      <trkpt lat="40.51995167" lon="-3.70448167">
        <ele>717.0</ele>
        <time>2018-05-26T06:15:05.170Z</time>
      </trkpt>
      <trkpt lat="40.51995167" lon="-3.70448167">
        <ele>717.0</ele>
        <time>2018-05-26T06:15:06.140Z</time>
      </trkpt>
      <trkpt lat="40.519985" lon="-3.70448333">
        <ele>717.0</ele>
        <time>2018-05-26T06:15:07.148Z</time>
      </trkpt>
      <trkpt lat="40.519985" lon="-3.70448333">
        <ele>717.0</ele>
        <time>2018-05-26T06:15:08.155Z</time>
      </trkpt>
      <trkpt lat="40.52002333" lon="-3.70449333">
        <ele>718.0</ele>
        <time>2018-05-26T06:15:09.163Z</time>
      </trkpt>
      <trkpt lat="40.520045" lon="-3.70450333">
        <ele>718.0</ele>
        <time>2018-05-26T06:15:10.149Z</time>
      </trkpt>
      <trkpt lat="40.520045" lon="-3.70450333">
        <ele>718.0</ele>
        <time>2018-05-26T06:15:11.143Z</time>
      </trkpt>
      <trkpt lat="40.520095" lon="-3.70453">
        <ele>718.0</ele>
        <time>2018-05-26T06:15:12.146Z</time>
      </trkpt>
      <trkpt lat="40.520095" lon="-3.70453">
        <ele>718.0</ele>
        <time>2018-05-26T06:15:13.141Z</time>
      </trkpt>
      <trkpt lat="40.52014667" lon="-3.70455333">
        <ele>719.0</ele>
        <time>2018-05-26T06:15:14.160Z</time>
      </trkpt>
      <trkpt lat="40.52017333" lon="-3.70456667">
        <ele>719.0</ele>
        <time>2018-05-26T06:15:15.155Z</time>
      </trkpt>
      <trkpt lat="40.5202" lon="-3.70458333">
        <ele>719.0</ele>
        <time>2018-05-26T06:15:16.144Z</time>
      </trkpt>
      <trkpt lat="40.5202" lon="-3.70458333">
        <ele>719.0</ele>
        <time>2018-05-26T06:15:17.142Z</time>
      </trkpt>
      <trkpt lat="40.520255" lon="-3.70461667">
        <ele>719.0</ele>
        <time>2018-05-26T06:15:18.146Z</time>
      </trkpt>
      <trkpt lat="40.520255" lon="-3.70461667">
        <ele>719.0</ele>
        <time>2018-05-26T06:15:19.143Z</time>
      </trkpt>
      <trkpt lat="40.520315" lon="-3.70465333">
        <ele>719.0</ele>
        <time>2018-05-26T06:15:20.146Z</time>
      </trkpt>
      <trkpt lat="40.520315" lon="-3.70465333">
        <ele>719.0</ele>
        <time>2018-05-26T06:15:21.141Z</time>
      </trkpt>
      <trkpt lat="40.52038167" lon="-3.70468667">
        <ele>719.0</ele>
        <time>2018-05-26T06:15:22.147Z</time>
      </trkpt>
      <trkpt lat="40.52038167" lon="-3.70468667">
        <ele>719.0</ele>
        <time>2018-05-26T06:15:23.143Z</time>
      </trkpt>
      <trkpt lat="40.52045333" lon="-3.70471667">
        <ele>720.0</ele>
        <time>2018-05-26T06:15:24.147Z</time>
      </trkpt>
      <trkpt lat="40.52045333" lon="-3.70471667">
        <ele>720.0</ele>
        <time>2018-05-26T06:15:25.143Z</time>
      </trkpt>
      <trkpt lat="40.520525" lon="-3.70475833">
        <ele>720.0</ele>
        <time>2018-05-26T06:15:26.148Z</time>
      </trkpt>
      <trkpt lat="40.520525" lon="-3.70475833">
        <ele>720.0</ele>
        <time>2018-05-26T06:15:27.143Z</time>
      </trkpt>
      <trkpt lat="40.52059333" lon="-3.7048">
        <ele>720.0</ele>
        <time>2018-05-26T06:15:28.144Z</time>
      </trkpt>
      <trkpt lat="40.52059333" lon="-3.7048">
        <ele>720.0</ele>
        <time>2018-05-26T06:15:29.156Z</time>
      </trkpt>
      <trkpt lat="40.520655" lon="-3.70484333">
        <ele>721.0</ele>
        <time>2018-05-26T06:15:30.152Z</time>
      </trkpt>
      <trkpt lat="40.520655" lon="-3.70484333">
        <ele>721.0</ele>
        <time>2018-05-26T06:15:31.145Z</time>
      </trkpt>
      <trkpt lat="40.52071667" lon="-3.70489333">
        <ele>722.0</ele>
        <time>2018-05-26T06:15:32.145Z</time>
      </trkpt>
      <trkpt lat="40.52071667" lon="-3.70489333">
        <ele>722.0</ele>
        <time>2018-05-26T06:15:33.143Z</time>
      </trkpt>
      <trkpt lat="40.520785" lon="-3.70493">
        <ele>722.0</ele>
        <time>2018-05-26T06:15:34.145Z</time>
      </trkpt>
      <trkpt lat="40.520785" lon="-3.70493">
        <ele>722.0</ele>
        <time>2018-05-26T06:15:35.143Z</time>
      </trkpt>
      <trkpt lat="40.520855" lon="-3.70495833">
        <ele>723.0</ele>
        <time>2018-05-26T06:15:36.147Z</time>
      </trkpt>
      <trkpt lat="40.520855" lon="-3.70495833">
        <ele>723.0</ele>
        <time>2018-05-26T06:15:37.143Z</time>
      </trkpt>
      <trkpt lat="40.52092833" lon="-3.704975">
        <ele>722.0</ele>
        <time>2018-05-26T06:15:38.146Z</time>
      </trkpt>
      <trkpt lat="40.52092833" lon="-3.704975">
        <ele>722.0</ele>
        <time>2018-05-26T06:15:39.143Z</time>
      </trkpt>
      <trkpt lat="40.52100167" lon="-3.70498667">
        <ele>723.0</ele>
        <time>2018-05-26T06:15:40.144Z</time>
      </trkpt>
      <trkpt lat="40.52100167" lon="-3.70498667">
        <ele>723.0</ele>
        <time>2018-05-26T06:15:41.144Z</time>
      </trkpt>
      <trkpt lat="40.52107333" lon="-3.70499333">
        <ele>723.0</ele>
        <time>2018-05-26T06:15:42.146Z</time>
      </trkpt>
      <trkpt lat="40.521105" lon="-3.70500333">
        <ele>723.0</ele>
        <time>2018-05-26T06:15:43.145Z</time>
      </trkpt>
      <trkpt lat="40.521105" lon="-3.70500333">
        <ele>723.0</ele>
        <time>2018-05-26T06:15:44.143Z</time>
      </trkpt>
      <trkpt lat="40.521165" lon="-3.70502333">
        <ele>723.0</ele>
        <time>2018-05-26T06:15:45.156Z</time>
      </trkpt>
      <trkpt lat="40.52119833" lon="-3.70503333">
        <ele>723.0</ele>
        <time>2018-05-26T06:15:46.145Z</time>
      </trkpt>
      <trkpt lat="40.52119833" lon="-3.70503333">
        <ele>723.0</ele>
        <time>2018-05-26T06:15:47.144Z</time>
      </trkpt>
      <trkpt lat="40.52125333" lon="-3.705065">
        <ele>724.0</ele>
        <time>2018-05-26T06:15:48.145Z</time>
      </trkpt>
      <trkpt lat="40.52125333" lon="-3.705065">
        <ele>724.0</ele>
        <time>2018-05-26T06:15:49.138Z</time>
      </trkpt>
      <trkpt lat="40.52131667" lon="-3.70509667">
        <ele>724.0</ele>
        <time>2018-05-26T06:15:50.146Z</time>
      </trkpt>
      <trkpt lat="40.52135167" lon="-3.70511333">
        <ele>725.0</ele>
        <time>2018-05-26T06:15:51.145Z</time>
      </trkpt>
      <trkpt lat="40.52138667" lon="-3.70512833">
        <ele>725.0</ele>
        <time>2018-05-26T06:15:52.145Z</time>
      </trkpt>
      <trkpt lat="40.52138667" lon="-3.70512833">
        <ele>725.0</ele>
        <time>2018-05-26T06:15:53.140Z</time>
      </trkpt>
      <trkpt lat="40.52145167" lon="-3.70515667">
        <ele>725.0</ele>
        <time>2018-05-26T06:15:54.146Z</time>
      </trkpt>
      <trkpt lat="40.52145167" lon="-3.70515667">
        <ele>725.0</ele>
        <time>2018-05-26T06:15:55.144Z</time>
      </trkpt>
      <trkpt lat="40.52151667" lon="-3.70519">
        <ele>726.0</ele>
        <time>2018-05-26T06:15:56.146Z</time>
      </trkpt>
      <trkpt lat="40.52151667" lon="-3.70519">
        <ele>726.0</ele>
        <time>2018-05-26T06:15:57.143Z</time>
      </trkpt>
      <trkpt lat="40.52158167" lon="-3.70523">
        <ele>726.0</ele>
        <time>2018-05-26T06:15:58.146Z</time>
      </trkpt>
      <trkpt lat="40.52158167" lon="-3.70523">
        <ele>726.0</ele>
        <time>2018-05-26T06:15:59.143Z</time>
      </trkpt>
      <trkpt lat="40.52164167" lon="-3.70527167">
        <ele>726.0</ele>
        <time>2018-05-26T06:16:00.161Z</time>
      </trkpt>
      <trkpt lat="40.52164167" lon="-3.70527167">
        <ele>726.0</ele>
        <time>2018-05-26T06:16:01.165Z</time>
      </trkpt>
      <trkpt lat="40.52169667" lon="-3.70533333">
        <ele>726.0</ele>
        <time>2018-05-26T06:16:02.156Z</time>
      </trkpt>
      <trkpt lat="40.52172333" lon="-3.70536667">
        <ele>726.0</ele>
        <time>2018-05-26T06:16:03.165Z</time>
      </trkpt>
      <trkpt lat="40.52172333" lon="-3.70536667">
        <ele>726.0</ele>
        <time>2018-05-26T06:16:04.152Z</time>
      </trkpt>
      <trkpt lat="40.52177667" lon="-3.70543">
        <ele>727.0</ele>
        <time>2018-05-26T06:16:05.157Z</time>
      </trkpt>
      <trkpt lat="40.52177667" lon="-3.70543">
        <ele>727.0</ele>
        <time>2018-05-26T06:16:06.149Z</time>
      </trkpt>
      <trkpt lat="40.52183" lon="-3.70549167">
        <ele>727.0</ele>
        <time>2018-05-26T06:16:07.146Z</time>
      </trkpt>
      <trkpt lat="40.52183" lon="-3.70549167">
        <ele>727.0</ele>
        <time>2018-05-26T06:16:08.144Z</time>
      </trkpt>
      <trkpt lat="40.52188167" lon="-3.70555667">
        <ele>728.0</ele>
        <time>2018-05-26T06:16:09.146Z</time>
      </trkpt>
      <trkpt lat="40.52190667" lon="-3.70558833">
        <ele>728.0</ele>
        <time>2018-05-26T06:16:10.144Z</time>
      </trkpt>
      <trkpt lat="40.52190667" lon="-3.70558833">
        <ele>728.0</ele>
        <time>2018-05-26T06:16:11.141Z</time>
      </trkpt>
      <trkpt lat="40.52195333" lon="-3.70566333">
        <ele>728.0</ele>
        <time>2018-05-26T06:16:12.147Z</time>
      </trkpt>
      <trkpt lat="40.52195333" lon="-3.70566333">
        <ele>728.0</ele>
        <time>2018-05-26T06:16:13.143Z</time>
      </trkpt>
      <trkpt lat="40.52199833" lon="-3.70576667">
        <ele>729.0</ele>
        <time>2018-05-26T06:16:14.145Z</time>
      </trkpt>
      <trkpt lat="40.52199833" lon="-3.70576667">
        <ele>729.0</ele>
        <time>2018-05-26T06:16:15.145Z</time>
      </trkpt>
      <trkpt lat="40.52204667" lon="-3.70588167">
        <ele>729.0</ele>
        <time>2018-05-26T06:16:16.161Z</time>
      </trkpt>
      <trkpt lat="40.52204667" lon="-3.70588167">
        <ele>729.0</ele>
        <time>2018-05-26T06:16:17.152Z</time>
      </trkpt>
      <trkpt lat="40.52209333" lon="-3.705995">
        <ele>730.0</ele>
        <time>2018-05-26T06:16:18.146Z</time>
      </trkpt>
      <trkpt lat="40.52212167" lon="-3.70604833">
        <ele>730.0</ele>
        <time>2018-05-26T06:16:19.146Z</time>
      </trkpt>
      <trkpt lat="40.52212167" lon="-3.70604833">
        <ele>730.0</ele>
        <time>2018-05-26T06:16:20.143Z</time>
      </trkpt>
      <trkpt lat="40.52218333" lon="-3.70614833">
        <ele>730.0</ele>
        <time>2018-05-26T06:16:21.145Z</time>
      </trkpt>
      <trkpt lat="40.522215" lon="-3.70619667">
        <ele>731.0</ele>
        <time>2018-05-26T06:16:22.149Z</time>
      </trkpt>
      <trkpt lat="40.522215" lon="-3.70619667">
        <ele>731.0</ele>
        <time>2018-05-26T06:16:23.141Z</time>
      </trkpt>
      <trkpt lat="40.522285" lon="-3.70629167">
        <ele>730.0</ele>
        <time>2018-05-26T06:16:24.148Z</time>
      </trkpt>
      <trkpt lat="40.52232167" lon="-3.70633333">
        <ele>730.0</ele>
        <time>2018-05-26T06:16:25.147Z</time>
      </trkpt>
      <trkpt lat="40.52236167" lon="-3.70637333">
        <ele>730.0</ele>
        <time>2018-05-26T06:16:26.145Z</time>
      </trkpt>
      <trkpt lat="40.52236167" lon="-3.70637333">
        <ele>730.0</ele>
        <time>2018-05-26T06:16:27.143Z</time>
      </trkpt>
      <trkpt lat="40.52244333" lon="-3.70644333">
        <ele>730.0</ele>
        <time>2018-05-26T06:16:28.147Z</time>
      </trkpt>
      <trkpt lat="40.52244333" lon="-3.70644333">
        <ele>730.0</ele>
        <time>2018-05-26T06:16:29.144Z</time>
      </trkpt>
      <trkpt lat="40.522525" lon="-3.706505">
        <ele>730.0</ele>
        <time>2018-05-26T06:16:30.161Z</time>
      </trkpt>
      <trkpt lat="40.522525" lon="-3.706505">
        <ele>730.0</ele>
        <time>2018-05-26T06:16:31.150Z</time>
      </trkpt>
      <trkpt lat="40.52261" lon="-3.706555">
        <ele>731.0</ele>
        <time>2018-05-26T06:16:32.146Z</time>
      </trkpt>
      <trkpt lat="40.52261" lon="-3.706555">
        <ele>731.0</ele>
        <time>2018-05-26T06:16:33.143Z</time>
      </trkpt>
      <trkpt lat="40.52269167" lon="-3.706605">
        <ele>731.0</ele>
        <time>2018-05-26T06:16:34.147Z</time>
      </trkpt>
      <trkpt lat="40.52269167" lon="-3.706605">
        <ele>731.0</ele>
        <time>2018-05-26T06:16:35.143Z</time>
      </trkpt>
      <trkpt lat="40.52277167" lon="-3.70665667">
        <ele>731.0</ele>
        <time>2018-05-26T06:16:36.147Z</time>
      </trkpt>
      <trkpt lat="40.52277167" lon="-3.70665667">
        <ele>731.0</ele>
        <time>2018-05-26T06:16:37.141Z</time>
      </trkpt>
      <trkpt lat="40.52285667" lon="-3.70670833">
        <ele>731.0</ele>
        <time>2018-05-26T06:16:38.145Z</time>
      </trkpt>
      <trkpt lat="40.52285667" lon="-3.70670833">
        <ele>731.0</ele>
        <time>2018-05-26T06:16:39.143Z</time>
      </trkpt>
      <trkpt lat="40.52294667" lon="-3.70676167">
        <ele>731.0</ele>
        <time>2018-05-26T06:16:40.148Z</time>
      </trkpt>
      <trkpt lat="40.52294667" lon="-3.70676167">
        <ele>731.0</ele>
        <time>2018-05-26T06:16:41.152Z</time>
      </trkpt>
      <trkpt lat="40.52303667" lon="-3.70682333">
        <ele>731.0</ele>
        <time>2018-05-26T06:16:42.146Z</time>
      </trkpt>
      <trkpt lat="40.52308333" lon="-3.70685">
        <ele>731.0</ele>
        <time>2018-05-26T06:16:43.147Z</time>
      </trkpt>
      <trkpt lat="40.52308333" lon="-3.70685">
        <ele>731.0</ele>
        <time>2018-05-26T06:16:44.144Z</time>
      </trkpt>
      <trkpt lat="40.52318" lon="-3.70689833">
        <ele>731.0</ele>
        <time>2018-05-26T06:16:45.147Z</time>
      </trkpt>
      <trkpt lat="40.52322833" lon="-3.70692333">
        <ele>731.0</ele>
        <time>2018-05-26T06:16:46.148Z</time>
      </trkpt>
      <trkpt lat="40.52322833" lon="-3.70692333">
        <ele>731.0</ele>
        <time>2018-05-26T06:16:47.142Z</time>
      </trkpt>
      <trkpt lat="40.523335" lon="-3.70698">
        <ele>731.0</ele>
        <time>2018-05-26T06:16:48.148Z</time>
      </trkpt>
      <trkpt lat="40.523335" lon="-3.70698">
        <ele>731.0</ele>
        <time>2018-05-26T06:16:49.143Z</time>
      </trkpt>
      <trkpt lat="40.52344333" lon="-3.70704">
        <ele>731.0</ele>
        <time>2018-05-26T06:16:50.146Z</time>
      </trkpt>
      <trkpt lat="40.52344333" lon="-3.70704">
        <ele>731.0</ele>
        <time>2018-05-26T06:16:51.144Z</time>
      </trkpt>
      <trkpt lat="40.52355167" lon="-3.707105">
        <ele>731.0</ele>
        <time>2018-05-26T06:16:52.147Z</time>
      </trkpt>
      <trkpt lat="40.52355167" lon="-3.707105">
        <ele>731.0</ele>
        <time>2018-05-26T06:16:53.143Z</time>
      </trkpt>
      <trkpt lat="40.52366" lon="-3.70717833">
        <ele>731.0</ele>
        <time>2018-05-26T06:16:54.143Z</time>
      </trkpt>
      <trkpt lat="40.52366" lon="-3.70717833">
        <ele>731.0</ele>
        <time>2018-05-26T06:16:55.143Z</time>
      </trkpt>
      <trkpt lat="40.52377" lon="-3.70725">
        <ele>731.0</ele>
        <time>2018-05-26T06:16:56.143Z</time>
      </trkpt>
      <trkpt lat="40.52377" lon="-3.70725">
        <ele>731.0</ele>
        <time>2018-05-26T06:16:57.140Z</time>
      </trkpt>
      <trkpt lat="40.52388167" lon="-3.707315">
        <ele>731.0</ele>
        <time>2018-05-26T06:16:58.147Z</time>
      </trkpt>
      <trkpt lat="40.52388167" lon="-3.707315">
        <ele>731.0</ele>
        <time>2018-05-26T06:16:59.144Z</time>
      </trkpt>
      <trkpt lat="40.523995" lon="-3.70737333">
        <ele>731.0</ele>
        <time>2018-05-26T06:17:00.146Z</time>
      </trkpt>
      <trkpt lat="40.52405333" lon="-3.70740333">
        <ele>731.0</ele>
        <time>2018-05-26T06:17:01.146Z</time>
      </trkpt>
      <trkpt lat="40.52405333" lon="-3.70740333">
        <ele>731.0</ele>
        <time>2018-05-26T06:17:02.149Z</time>
      </trkpt>
      <trkpt lat="40.524165" lon="-3.70746667">
        <ele>732.0</ele>
        <time>2018-05-26T06:17:03.146Z</time>
      </trkpt>
      <trkpt lat="40.52422" lon="-3.70749667">
        <ele>732.0</ele>
        <time>2018-05-26T06:17:04.147Z</time>
      </trkpt>
      <trkpt lat="40.52422" lon="-3.70749667">
        <ele>732.0</ele>
        <time>2018-05-26T06:17:05.144Z</time>
      </trkpt>
      <trkpt lat="40.52433167" lon="-3.70755833">
        <ele>732.0</ele>
        <time>2018-05-26T06:17:06.143Z</time>
      </trkpt>
      <trkpt lat="40.52438833" lon="-3.707585">
        <ele>732.0</ele>
        <time>2018-05-26T06:17:07.147Z</time>
      </trkpt>
      <trkpt lat="40.52438833" lon="-3.707585">
        <ele>732.0</ele>
        <time>2018-05-26T06:17:08.141Z</time>
      </trkpt>
      <trkpt lat="40.524505" lon="-3.707635">
        <ele>732.0</ele>
        <time>2018-05-26T06:17:09.147Z</time>
      </trkpt>
      <trkpt lat="40.524505" lon="-3.707635">
        <ele>732.0</ele>
        <time>2018-05-26T06:17:10.144Z</time>
      </trkpt>
      <trkpt lat="40.52462833" lon="-3.707685">
        <ele>732.0</ele>
        <time>2018-05-26T06:17:11.146Z</time>
      </trkpt>
      <trkpt lat="40.52462833" lon="-3.707685">
        <ele>732.0</ele>
        <time>2018-05-26T06:17:12.138Z</time>
      </trkpt>
      <trkpt lat="40.52476667" lon="-3.70771833">
        <ele>731.0</ele>
        <time>2018-05-26T06:17:13.147Z</time>
      </trkpt>
      <trkpt lat="40.524835" lon="-3.70772667">
        <ele>731.0</ele>
        <time>2018-05-26T06:17:14.155Z</time>
      </trkpt>
      <trkpt lat="40.524835" lon="-3.70772667">
        <ele>731.0</ele>
        <time>2018-05-26T06:17:15.146Z</time>
      </trkpt>
      <trkpt lat="40.52496167" lon="-3.70775167">
        <ele>732.0</ele>
        <time>2018-05-26T06:17:16.145Z</time>
      </trkpt>
      <trkpt lat="40.52502167" lon="-3.70776167">
        <ele>732.0</ele>
        <time>2018-05-26T06:17:17.147Z</time>
      </trkpt>
      <trkpt lat="40.52508" lon="-3.70776333">
        <ele>732.0</ele>
        <time>2018-05-26T06:17:18.147Z</time>
      </trkpt>
      <trkpt lat="40.52508" lon="-3.70776333">
        <ele>732.0</ele>
        <time>2018-05-26T06:17:19.145Z</time>
      </trkpt>
      <trkpt lat="40.525195" lon="-3.707745">
        <ele>733.0</ele>
        <time>2018-05-26T06:17:20.148Z</time>
      </trkpt>
      <trkpt lat="40.525195" lon="-3.707745">
        <ele>733.0</ele>
        <time>2018-05-26T06:17:21.141Z</time>
      </trkpt>
      <trkpt lat="40.52530667" lon="-3.70773333">
        <ele>734.0</ele>
        <time>2018-05-26T06:17:22.149Z</time>
      </trkpt>
      <trkpt lat="40.52530667" lon="-3.70773333">
        <ele>734.0</ele>
        <time>2018-05-26T06:17:23.145Z</time>
      </trkpt>
      <trkpt lat="40.52541833" lon="-3.707735">
        <ele>734.0</ele>
        <time>2018-05-26T06:17:24.145Z</time>
      </trkpt>
      <trkpt lat="40.52547333" lon="-3.70773333">
        <ele>734.0</ele>
        <time>2018-05-26T06:17:25.145Z</time>
      </trkpt>
      <trkpt lat="40.52547333" lon="-3.70773333">
        <ele>734.0</ele>
        <time>2018-05-26T06:17:26.138Z</time>
      </trkpt>
      <trkpt lat="40.525585" lon="-3.70773">
        <ele>734.0</ele>
        <time>2018-05-26T06:17:27.153Z</time>
      </trkpt>
      <trkpt lat="40.52564333" lon="-3.707715">
        <ele>734.0</ele>
        <time>2018-05-26T06:17:28.147Z</time>
      </trkpt>
      <trkpt lat="40.52564333" lon="-3.707715">
        <ele>734.0</ele>
        <time>2018-05-26T06:17:29.146Z</time>
      </trkpt>
      <trkpt lat="40.52576333" lon="-3.707695">
        <ele>734.0</ele>
        <time>2018-05-26T06:17:30.146Z</time>
      </trkpt>
      <trkpt lat="40.52576333" lon="-3.707695">
        <ele>734.0</ele>
        <time>2018-05-26T06:17:31.142Z</time>
      </trkpt>
      <trkpt lat="40.525895" lon="-3.70769667">
        <ele>734.0</ele>
        <time>2018-05-26T06:17:32.145Z</time>
      </trkpt>
      <trkpt lat="40.52596333" lon="-3.70769333">
        <ele>733.0</ele>
        <time>2018-05-26T06:17:33.146Z</time>
      </trkpt>
      <trkpt lat="40.52603167" lon="-3.70769">
        <ele>733.0</ele>
        <time>2018-05-26T06:17:34.144Z</time>
      </trkpt>
      <trkpt lat="40.52603167" lon="-3.70769">
        <ele>733.0</ele>
        <time>2018-05-26T06:17:35.140Z</time>
      </trkpt>
      <trkpt lat="40.52617333" lon="-3.70767333">
        <ele>733.0</ele>
        <time>2018-05-26T06:17:36.139Z</time>
      </trkpt>
      <trkpt lat="40.52624667" lon="-3.70766167">
        <ele>732.0</ele>
        <time>2018-05-26T06:17:37.147Z</time>
      </trkpt>
      <trkpt lat="40.52624667" lon="-3.70766167">
        <ele>732.0</ele>
        <time>2018-05-26T06:17:38.144Z</time>
      </trkpt>
      <trkpt lat="40.52639" lon="-3.70763833">
        <ele>732.0</ele>
        <time>2018-05-26T06:17:39.147Z</time>
      </trkpt>
      <trkpt lat="40.526465" lon="-3.707635">
        <ele>732.0</ele>
        <time>2018-05-26T06:17:40.148Z</time>
      </trkpt>
      <trkpt lat="40.526465" lon="-3.707635">
        <ele>732.0</ele>
        <time>2018-05-26T06:17:41.145Z</time>
      </trkpt>
      <trkpt lat="40.52661667" lon="-3.70762833">
        <ele>732.0</ele>
        <time>2018-05-26T06:17:42.147Z</time>
      </trkpt>
      <trkpt lat="40.526695" lon="-3.70763">
        <ele>731.0</ele>
        <time>2018-05-26T06:17:43.149Z</time>
      </trkpt>
      <trkpt lat="40.526695" lon="-3.70763">
        <ele>731.0</ele>
        <time>2018-05-26T06:17:44.142Z</time>
      </trkpt>
      <trkpt lat="40.52685167" lon="-3.70765">
        <ele>731.0</ele>
        <time>2018-05-26T06:17:45.149Z</time>
      </trkpt>
      <trkpt lat="40.52685167" lon="-3.70765">
        <ele>731.0</ele>
        <time>2018-05-26T06:17:46.147Z</time>
      </trkpt>
      <trkpt lat="40.52700833" lon="-3.70763167">
        <ele>731.0</ele>
        <time>2018-05-26T06:17:47.148Z</time>
      </trkpt>
      <trkpt lat="40.52708333" lon="-3.70761333">
        <ele>731.0</ele>
        <time>2018-05-26T06:17:48.146Z</time>
      </trkpt>
      <trkpt lat="40.52708333" lon="-3.70761333">
        <ele>731.0</ele>
        <time>2018-05-26T06:17:49.143Z</time>
      </trkpt>
      <trkpt lat="40.52723" lon="-3.70758667">
        <ele>731.0</ele>
        <time>2018-05-26T06:17:50.143Z</time>
      </trkpt>
      <trkpt lat="40.52723" lon="-3.70758667">
        <ele>731.0</ele>
        <time>2018-05-26T06:17:51.141Z</time>
      </trkpt>
      <trkpt lat="40.52737667" lon="-3.70755167">
        <ele>730.0</ele>
        <time>2018-05-26T06:17:52.147Z</time>
      </trkpt>
      <trkpt lat="40.52737667" lon="-3.70755167">
        <ele>730.0</ele>
        <time>2018-05-26T06:17:53.143Z</time>
      </trkpt>
      <trkpt lat="40.52753" lon="-3.70751167">
        <ele>730.0</ele>
        <time>2018-05-26T06:17:54.146Z</time>
      </trkpt>
      <trkpt lat="40.52760833" lon="-3.70749167">
        <ele>729.0</ele>
        <time>2018-05-26T06:17:55.147Z</time>
      </trkpt>
      <trkpt lat="40.52760833" lon="-3.70749167">
        <ele>729.0</ele>
        <time>2018-05-26T06:17:56.145Z</time>
      </trkpt>
      <trkpt lat="40.52776333" lon="-3.70745833">
        <ele>729.0</ele>
        <time>2018-05-26T06:17:57.146Z</time>
      </trkpt>
      <trkpt lat="40.52784167" lon="-3.70744333">
        <ele>728.0</ele>
        <time>2018-05-26T06:17:58.149Z</time>
      </trkpt>
      <trkpt lat="40.52784167" lon="-3.70744333">
        <ele>728.0</ele>
        <time>2018-05-26T06:17:59.141Z</time>
      </trkpt>
      <trkpt lat="40.52799667" lon="-3.70742833">
        <ele>728.0</ele>
        <time>2018-05-26T06:18:00.145Z</time>
      </trkpt>
      <trkpt lat="40.52799667" lon="-3.70742833">
        <ele>728.0</ele>
        <time>2018-05-26T06:18:01.144Z</time>
      </trkpt>
      <trkpt lat="40.52814333" lon="-3.707425">
        <ele>729.0</ele>
        <time>2018-05-26T06:18:02.146Z</time>
      </trkpt>
      <trkpt lat="40.52821667" lon="-3.70742167">
        <ele>729.0</ele>
        <time>2018-05-26T06:18:03.147Z</time>
      </trkpt>
      <trkpt lat="40.52828667" lon="-3.70741833">
        <ele>729.0</ele>
        <time>2018-05-26T06:18:04.147Z</time>
      </trkpt>
      <trkpt lat="40.52828667" lon="-3.70741833">
        <ele>729.0</ele>
        <time>2018-05-26T06:18:05.141Z</time>
      </trkpt>
      <trkpt lat="40.52842167" lon="-3.707395">
        <ele>730.0</ele>
        <time>2018-05-26T06:18:06.149Z</time>
      </trkpt>
      <trkpt lat="40.52848333" lon="-3.70737833">
        <ele>730.0</ele>
        <time>2018-05-26T06:18:07.160Z</time>
      </trkpt>
      <trkpt lat="40.52848333" lon="-3.70737833">
        <ele>730.0</ele>
        <time>2018-05-26T06:18:08.151Z</time>
      </trkpt>
      <trkpt lat="40.52860833" lon="-3.70735333">
        <ele>730.0</ele>
        <time>2018-05-26T06:18:09.147Z</time>
      </trkpt>
      <trkpt lat="40.52860833" lon="-3.70735333">
        <ele>730.0</ele>
        <time>2018-05-26T06:18:10.145Z</time>
      </trkpt>
      <trkpt lat="40.52873333" lon="-3.70733">
        <ele>730.0</ele>
        <time>2018-05-26T06:18:11.145Z</time>
      </trkpt>
      <trkpt lat="40.52873333" lon="-3.70733">
        <ele>730.0</ele>
        <time>2018-05-26T06:18:12.141Z</time>
      </trkpt>
      <trkpt lat="40.52886167" lon="-3.7073">
        <ele>730.0</ele>
        <time>2018-05-26T06:18:13.146Z</time>
      </trkpt>
      <trkpt lat="40.52886167" lon="-3.7073">
        <ele>730.0</ele>
        <time>2018-05-26T06:18:14.145Z</time>
      </trkpt>
      <trkpt lat="40.52899833" lon="-3.70728667">
        <ele>730.0</ele>
        <time>2018-05-26T06:18:15.147Z</time>
      </trkpt>
      <trkpt lat="40.52907" lon="-3.70728167">
        <ele>730.0</ele>
        <time>2018-05-26T06:18:16.145Z</time>
      </trkpt>
      <trkpt lat="40.52907" lon="-3.70728167">
        <ele>730.0</ele>
        <time>2018-05-26T06:18:17.142Z</time>
      </trkpt>
      <trkpt lat="40.52921167" lon="-3.70727167">
        <ele>730.0</ele>
        <time>2018-05-26T06:18:18.146Z</time>
      </trkpt>
      <trkpt lat="40.52921167" lon="-3.70727167">
        <ele>730.0</ele>
        <time>2018-05-26T06:18:19.145Z</time>
      </trkpt>
      <trkpt lat="40.52934333" lon="-3.70726167">
        <ele>730.0</ele>
        <time>2018-05-26T06:18:20.146Z</time>
      </trkpt>
      <trkpt lat="40.52934333" lon="-3.70726167">
        <ele>730.0</ele>
        <time>2018-05-26T06:18:21.142Z</time>
      </trkpt>
      <trkpt lat="40.52945833" lon="-3.70727">
        <ele>731.0</ele>
        <time>2018-05-26T06:18:22.147Z</time>
      </trkpt>
      <trkpt lat="40.52945833" lon="-3.70727">
        <ele>731.0</ele>
        <time>2018-05-26T06:18:23.143Z</time>
      </trkpt>
      <trkpt lat="40.52956833" lon="-3.70729333">
        <ele>732.0</ele>
        <time>2018-05-26T06:18:24.146Z</time>
      </trkpt>
      <trkpt lat="40.52956833" lon="-3.70729333">
        <ele>732.0</ele>
        <time>2018-05-26T06:18:25.142Z</time>
      </trkpt>
      <trkpt lat="40.52967333" lon="-3.70732667">
        <ele>732.0</ele>
        <time>2018-05-26T06:18:26.147Z</time>
      </trkpt>
      <trkpt lat="40.52967333" lon="-3.70732667">
        <ele>732.0</ele>
        <time>2018-05-26T06:18:27.144Z</time>
      </trkpt>
      <trkpt lat="40.52978" lon="-3.707355">
        <ele>733.0</ele>
        <time>2018-05-26T06:18:28.148Z</time>
      </trkpt>
      <trkpt lat="40.52978" lon="-3.707355">
        <ele>733.0</ele>
        <time>2018-05-26T06:18:29.142Z</time>
      </trkpt>
      <trkpt lat="40.52989333" lon="-3.70738">
        <ele>733.0</ele>
        <time>2018-05-26T06:18:30.148Z</time>
      </trkpt>
      <trkpt lat="40.52989333" lon="-3.70738">
        <ele>733.0</ele>
        <time>2018-05-26T06:18:31.143Z</time>
      </trkpt>
      <trkpt lat="40.53001167" lon="-3.70738">
        <ele>733.0</ele>
        <time>2018-05-26T06:18:32.145Z</time>
      </trkpt>
      <trkpt lat="40.53001167" lon="-3.70738">
        <ele>733.0</ele>
        <time>2018-05-26T06:18:33.141Z</time>
      </trkpt>
      <trkpt lat="40.53012333" lon="-3.707375">
        <ele>734.0</ele>
        <time>2018-05-26T06:18:34.147Z</time>
      </trkpt>
      <trkpt lat="40.53012333" lon="-3.707375">
        <ele>734.0</ele>
        <time>2018-05-26T06:18:35.143Z</time>
      </trkpt>
      <trkpt lat="40.53024" lon="-3.70738">
        <ele>734.0</ele>
        <time>2018-05-26T06:18:36.146Z</time>
      </trkpt>
      <trkpt lat="40.53029333" lon="-3.707385">
        <ele>735.0</ele>
        <time>2018-05-26T06:18:37.147Z</time>
      </trkpt>
      <trkpt lat="40.53029333" lon="-3.707385">
        <ele>735.0</ele>
        <time>2018-05-26T06:18:38.141Z</time>
      </trkpt>
      <trkpt lat="40.53040167" lon="-3.70738333">
        <ele>736.0</ele>
        <time>2018-05-26T06:18:39.156Z</time>
      </trkpt>
      <trkpt lat="40.53045833" lon="-3.70737167">
        <ele>736.0</ele>
        <time>2018-05-26T06:18:40.149Z</time>
      </trkpt>
      <trkpt lat="40.53045833" lon="-3.70737167">
        <ele>736.0</ele>
        <time>2018-05-26T06:18:41.145Z</time>
      </trkpt>
      <trkpt lat="40.530575" lon="-3.70734">
        <ele>737.0</ele>
        <time>2018-05-26T06:18:42.147Z</time>
      </trkpt>
      <trkpt lat="40.53063167" lon="-3.70732">
        <ele>737.0</ele>
        <time>2018-05-26T06:18:43.147Z</time>
      </trkpt>
      <trkpt lat="40.53063167" lon="-3.70732">
        <ele>737.0</ele>
        <time>2018-05-26T06:18:44.143Z</time>
      </trkpt>
      <trkpt lat="40.530745" lon="-3.707275">
        <ele>737.0</ele>
        <time>2018-05-26T06:18:45.148Z</time>
      </trkpt>
      <trkpt lat="40.53080333" lon="-3.707255">
        <ele>737.0</ele>
        <time>2018-05-26T06:18:46.147Z</time>
      </trkpt>
      <trkpt lat="40.53080333" lon="-3.707255">
        <ele>737.0</ele>
        <time>2018-05-26T06:18:47.144Z</time>
      </trkpt>
      <trkpt lat="40.53092" lon="-3.70722333">
        <ele>737.0</ele>
        <time>2018-05-26T06:18:48.147Z</time>
      </trkpt>
      <trkpt lat="40.53097833" lon="-3.70721333">
        <ele>737.0</ele>
        <time>2018-05-26T06:18:49.147Z</time>
      </trkpt>
      <trkpt lat="40.53097833" lon="-3.70721333">
        <ele>737.0</ele>
        <time>2018-05-26T06:18:50.144Z</time>
      </trkpt>
      <trkpt lat="40.53109667" lon="-3.70719667">
        <ele>736.0</ele>
        <time>2018-05-26T06:18:51.144Z</time>
      </trkpt>
      <trkpt lat="40.53109667" lon="-3.70719667">
        <ele>736.0</ele>
        <time>2018-05-26T06:18:52.145Z</time>
      </trkpt>
      <trkpt lat="40.53122" lon="-3.70715167">
        <ele>736.0</ele>
        <time>2018-05-26T06:18:53.144Z</time>
      </trkpt>
      <trkpt lat="40.53127833" lon="-3.70712333">
        <ele>736.0</ele>
        <time>2018-05-26T06:18:54.148Z</time>
      </trkpt>
      <trkpt lat="40.53127833" lon="-3.70712333">
        <ele>736.0</ele>
        <time>2018-05-26T06:18:55.150Z</time>
      </trkpt>
      <trkpt lat="40.53139167" lon="-3.70706">
        <ele>736.0</ele>
        <time>2018-05-26T06:18:56.146Z</time>
      </trkpt>
      <trkpt lat="40.53139167" lon="-3.70706">
        <ele>736.0</ele>
        <time>2018-05-26T06:18:57.141Z</time>
      </trkpt>
      <trkpt lat="40.53150333" lon="-3.70699167">
        <ele>735.0</ele>
        <time>2018-05-26T06:18:58.148Z</time>
      </trkpt>
      <trkpt lat="40.53150333" lon="-3.70699167">
        <ele>735.0</ele>
        <time>2018-05-26T06:18:59.144Z</time>
      </trkpt>
      <trkpt lat="40.53161667" lon="-3.706935">
        <ele>735.0</ele>
        <time>2018-05-26T06:19:00.175Z</time>
      </trkpt>
      <trkpt lat="40.53167333" lon="-3.70690333">
        <ele>735.0</ele>
        <time>2018-05-26T06:19:01.160Z</time>
      </trkpt>
      <trkpt lat="40.53167333" lon="-3.70690333">
        <ele>735.0</ele>
        <time>2018-05-26T06:19:02.150Z</time>
      </trkpt>
      <trkpt lat="40.53178833" lon="-3.70685167">
        <ele>735.0</ele>
        <time>2018-05-26T06:19:03.147Z</time>
      </trkpt>
      <trkpt lat="40.53178833" lon="-3.70685167">
        <ele>735.0</ele>
        <time>2018-05-26T06:19:04.145Z</time>
      </trkpt>
      <trkpt lat="40.53190333" lon="-3.70679833">
        <ele>735.0</ele>
        <time>2018-05-26T06:19:05.164Z</time>
      </trkpt>
      <trkpt lat="40.53190333" lon="-3.70679833">
        <ele>735.0</ele>
        <time>2018-05-26T06:19:06.155Z</time>
      </trkpt>
      <trkpt lat="40.53202167" lon="-3.70676">
        <ele>735.0</ele>
        <time>2018-05-26T06:19:07.151Z</time>
      </trkpt>
      <trkpt lat="40.53202167" lon="-3.70676">
        <ele>735.0</ele>
        <time>2018-05-26T06:19:08.144Z</time>
      </trkpt>
      <trkpt lat="40.53214167" lon="-3.706735">
        <ele>735.0</ele>
        <time>2018-05-26T06:19:09.147Z</time>
      </trkpt>
      <trkpt lat="40.53220167" lon="-3.70672667">
        <ele>735.0</ele>
        <time>2018-05-26T06:19:10.147Z</time>
      </trkpt>
      <trkpt lat="40.53220167" lon="-3.70672667">
        <ele>735.0</ele>
        <time>2018-05-26T06:19:11.144Z</time>
      </trkpt>
      <trkpt lat="40.53232" lon="-3.706715">
        <ele>735.0</ele>
        <time>2018-05-26T06:19:12.147Z</time>
      </trkpt>
      <trkpt lat="40.53237833" lon="-3.706705">
        <ele>735.0</ele>
        <time>2018-05-26T06:19:13.147Z</time>
      </trkpt>
      <trkpt lat="40.53237833" lon="-3.706705">
        <ele>735.0</ele>
        <time>2018-05-26T06:19:14.144Z</time>
      </trkpt>
      <trkpt lat="40.53249333" lon="-3.706665">
        <ele>735.0</ele>
        <time>2018-05-26T06:19:15.147Z</time>
      </trkpt>
      <trkpt lat="40.53255167" lon="-3.706635">
        <ele>734.0</ele>
        <time>2018-05-26T06:19:16.148Z</time>
      </trkpt>
      <trkpt lat="40.53255167" lon="-3.706635">
        <ele>734.0</ele>
        <time>2018-05-26T06:19:17.151Z</time>
      </trkpt>
      <trkpt lat="40.53267167" lon="-3.706585">
        <ele>734.0</ele>
        <time>2018-05-26T06:19:18.146Z</time>
      </trkpt>
      <trkpt lat="40.53272833" lon="-3.706565">
        <ele>734.0</ele>
        <time>2018-05-26T06:19:19.146Z</time>
      </trkpt>
      <trkpt lat="40.53272833" lon="-3.706565">
        <ele>734.0</ele>
        <time>2018-05-26T06:19:20.143Z</time>
      </trkpt>
      <trkpt lat="40.53284333" lon="-3.70652667">
        <ele>733.0</ele>
        <time>2018-05-26T06:19:21.145Z</time>
      </trkpt>
      <trkpt lat="40.53290167" lon="-3.70651">
        <ele>733.0</ele>
        <time>2018-05-26T06:19:22.147Z</time>
      </trkpt>
      <trkpt lat="40.53290167" lon="-3.70651">
        <ele>733.0</ele>
        <time>2018-05-26T06:19:23.141Z</time>
      </trkpt>
      <trkpt lat="40.53302" lon="-3.70647">
        <ele>733.0</ele>
        <time>2018-05-26T06:19:24.146Z</time>
      </trkpt>
      <trkpt lat="40.53302" lon="-3.70647">
        <ele>733.0</ele>
        <time>2018-05-26T06:19:25.165Z</time>
      </trkpt>
      <trkpt lat="40.53314" lon="-3.70643167">
        <ele>732.0</ele>
        <time>2018-05-26T06:19:26.147Z</time>
      </trkpt>
      <trkpt lat="40.53314" lon="-3.70643167">
        <ele>732.0</ele>
        <time>2018-05-26T06:19:27.136Z</time>
      </trkpt>
      <trkpt lat="40.533265" lon="-3.70639">
        <ele>732.0</ele>
        <time>2018-05-26T06:19:28.148Z</time>
      </trkpt>
      <trkpt lat="40.533265" lon="-3.70639">
        <ele>732.0</ele>
        <time>2018-05-26T06:19:29.143Z</time>
      </trkpt>
      <trkpt lat="40.53339333" lon="-3.70635167">
        <ele>732.0</ele>
        <time>2018-05-26T06:19:30.152Z</time>
      </trkpt>
      <trkpt lat="40.53339333" lon="-3.70635167">
        <ele>732.0</ele>
        <time>2018-05-26T06:19:31.145Z</time>
      </trkpt>
      <trkpt lat="40.53351333" lon="-3.70631833">
        <ele>731.0</ele>
        <time>2018-05-26T06:19:32.148Z</time>
      </trkpt>
      <trkpt lat="40.53351333" lon="-3.70631833">
        <ele>731.0</ele>
        <time>2018-05-26T06:19:33.144Z</time>
      </trkpt>
      <trkpt lat="40.53362667" lon="-3.70627833">
        <ele>731.0</ele>
        <time>2018-05-26T06:19:34.157Z</time>
      </trkpt>
      <trkpt lat="40.53362667" lon="-3.70627833">
        <ele>731.0</ele>
        <time>2018-05-26T06:19:35.165Z</time>
      </trkpt>
      <trkpt lat="40.53374167" lon="-3.70624167">
        <ele>732.0</ele>
        <time>2018-05-26T06:19:36.155Z</time>
      </trkpt>
      <trkpt lat="40.53374167" lon="-3.70624167">
        <ele>732.0</ele>
        <time>2018-05-26T06:19:37.149Z</time>
      </trkpt>
      <trkpt lat="40.53385167" lon="-3.706215">
        <ele>731.0</ele>
        <time>2018-05-26T06:19:38.147Z</time>
      </trkpt>
      <trkpt lat="40.53385167" lon="-3.706215">
        <ele>731.0</ele>
        <time>2018-05-26T06:19:39.145Z</time>
      </trkpt>
      <trkpt lat="40.533955" lon="-3.70617833">
        <ele>732.0</ele>
        <time>2018-05-26T06:19:40.149Z</time>
      </trkpt>
      <trkpt lat="40.534005" lon="-3.70615833">
        <ele>732.0</ele>
        <time>2018-05-26T06:19:41.147Z</time>
      </trkpt>
      <trkpt lat="40.534005" lon="-3.70615833">
        <ele>732.0</ele>
        <time>2018-05-26T06:19:42.141Z</time>
      </trkpt>
      <trkpt lat="40.53409833" lon="-3.706125">
        <ele>733.0</ele>
        <time>2018-05-26T06:19:43.143Z</time>
      </trkpt>
      <trkpt lat="40.53409833" lon="-3.706125">
        <ele>733.0</ele>
        <time>2018-05-26T06:19:44.143Z</time>
      </trkpt>
      <trkpt lat="40.53419167" lon="-3.70609">
        <ele>733.0</ele>
        <time>2018-05-26T06:19:45.151Z</time>
      </trkpt>
      <trkpt lat="40.534235" lon="-3.70607333">
        <ele>733.0</ele>
        <time>2018-05-26T06:19:46.147Z</time>
      </trkpt>
      <trkpt lat="40.534235" lon="-3.70607333">
        <ele>733.0</ele>
        <time>2018-05-26T06:19:47.144Z</time>
      </trkpt>
      <trkpt lat="40.53432167" lon="-3.70604">
        <ele>733.0</ele>
        <time>2018-05-26T06:19:48.148Z</time>
      </trkpt>
      <trkpt lat="40.53432167" lon="-3.70604">
        <ele>733.0</ele>
        <time>2018-05-26T06:19:49.143Z</time>
      </trkpt>
      <trkpt lat="40.53440667" lon="-3.706">
        <ele>734.0</ele>
        <time>2018-05-26T06:19:50.146Z</time>
      </trkpt>
      <trkpt lat="40.53445333" lon="-3.70598333">
        <ele>734.0</ele>
        <time>2018-05-26T06:19:51.149Z</time>
      </trkpt>
      <trkpt lat="40.53445333" lon="-3.70598333">
        <ele>734.0</ele>
        <time>2018-05-26T06:19:52.142Z</time>
      </trkpt>
      <trkpt lat="40.53454667" lon="-3.70594833">
        <ele>734.0</ele>
        <time>2018-05-26T06:19:53.147Z</time>
      </trkpt>
      <trkpt lat="40.53459333" lon="-3.70592833">
        <ele>734.0</ele>
        <time>2018-05-26T06:19:54.147Z</time>
      </trkpt>
      <trkpt lat="40.53459333" lon="-3.70592833">
        <ele>734.0</ele>
        <time>2018-05-26T06:19:55.143Z</time>
      </trkpt>
      <trkpt lat="40.53469" lon="-3.70589">
        <ele>735.0</ele>
        <time>2018-05-26T06:19:56.147Z</time>
      </trkpt>
      <trkpt lat="40.53474" lon="-3.70587167">
        <ele>735.0</ele>
        <time>2018-05-26T06:19:57.144Z</time>
      </trkpt>
      <trkpt lat="40.53478833" lon="-3.705855">
        <ele>735.0</ele>
        <time>2018-05-26T06:19:58.148Z</time>
      </trkpt>
      <trkpt lat="40.53478833" lon="-3.705855">
        <ele>735.0</ele>
        <time>2018-05-26T06:19:59.140Z</time>
      </trkpt>
      <trkpt lat="40.53488167" lon="-3.705815">
        <ele>735.0</ele>
        <time>2018-05-26T06:20:00.157Z</time>
      </trkpt>
      <trkpt lat="40.53488167" lon="-3.705815">
        <ele>735.0</ele>
        <time>2018-05-26T06:20:01.147Z</time>
      </trkpt>
      <trkpt lat="40.53497167" lon="-3.70578">
        <ele>736.0</ele>
        <time>2018-05-26T06:20:02.148Z</time>
      </trkpt>
      <trkpt lat="40.53497167" lon="-3.70578">
        <ele>736.0</ele>
        <time>2018-05-26T06:20:03.141Z</time>
      </trkpt>
      <trkpt lat="40.53506" lon="-3.70573667">
        <ele>737.0</ele>
        <time>2018-05-26T06:20:04.147Z</time>
      </trkpt>
      <trkpt lat="40.53506" lon="-3.70573667">
        <ele>737.0</ele>
        <time>2018-05-26T06:20:05.143Z</time>
      </trkpt>
      <trkpt lat="40.53515" lon="-3.70569167">
        <ele>738.0</ele>
        <time>2018-05-26T06:20:06.149Z</time>
      </trkpt>
      <trkpt lat="40.53515" lon="-3.70569167">
        <ele>738.0</ele>
        <time>2018-05-26T06:20:07.144Z</time>
      </trkpt>
      <trkpt lat="40.53524333" lon="-3.70565167">
        <ele>738.0</ele>
        <time>2018-05-26T06:20:08.147Z</time>
      </trkpt>
      <trkpt lat="40.53529167" lon="-3.70562833">
        <ele>738.0</ele>
        <time>2018-05-26T06:20:09.146Z</time>
      </trkpt>
      <trkpt lat="40.53534" lon="-3.70560667">
        <ele>738.0</ele>
        <time>2018-05-26T06:20:10.147Z</time>
      </trkpt>
      <trkpt lat="40.53534" lon="-3.70560667">
        <ele>738.0</ele>
        <time>2018-05-26T06:20:11.156Z</time>
      </trkpt>
      <trkpt lat="40.53543333" lon="-3.705565">
        <ele>739.0</ele>
        <time>2018-05-26T06:20:12.146Z</time>
      </trkpt>
      <trkpt lat="40.53548167" lon="-3.70554333">
        <ele>739.0</ele>
        <time>2018-05-26T06:20:13.144Z</time>
      </trkpt>
      <trkpt lat="40.53548167" lon="-3.70554333">
        <ele>739.0</ele>
        <time>2018-05-26T06:20:14.144Z</time>
      </trkpt>
      <trkpt lat="40.535575" lon="-3.705505">
        <ele>739.0</ele>
        <time>2018-05-26T06:20:15.148Z</time>
      </trkpt>
      <trkpt lat="40.53562167" lon="-3.70548333">
        <ele>740.0</ele>
        <time>2018-05-26T06:20:16.147Z</time>
      </trkpt>
      <trkpt lat="40.53562167" lon="-3.70548333">
        <ele>740.0</ele>
        <time>2018-05-26T06:20:17.142Z</time>
      </trkpt>
      <trkpt lat="40.53571833" lon="-3.70543333">
        <ele>741.0</ele>
        <time>2018-05-26T06:20:18.148Z</time>
      </trkpt>
      <trkpt lat="40.53571833" lon="-3.70543333">
        <ele>741.0</ele>
        <time>2018-05-26T06:20:19.143Z</time>
      </trkpt>
      <trkpt lat="40.53581333" lon="-3.70538833">
        <ele>741.0</ele>
        <time>2018-05-26T06:20:20.146Z</time>
      </trkpt>
      <trkpt lat="40.53586167" lon="-3.70536833">
        <ele>741.0</ele>
        <time>2018-05-26T06:20:21.147Z</time>
      </trkpt>
      <trkpt lat="40.53590833" lon="-3.70534833">
        <ele>742.0</ele>
        <time>2018-05-26T06:20:22.149Z</time>
      </trkpt>
      <trkpt lat="40.53590833" lon="-3.70534833">
        <ele>742.0</ele>
        <time>2018-05-26T06:20:23.144Z</time>
      </trkpt>
      <trkpt lat="40.536005" lon="-3.70530333">
        <ele>742.0</ele>
        <time>2018-05-26T06:20:24.157Z</time>
      </trkpt>
      <trkpt lat="40.53605" lon="-3.70528333">
        <ele>742.0</ele>
        <time>2018-05-26T06:20:25.149Z</time>
      </trkpt>
      <trkpt lat="40.53605" lon="-3.70528333">
        <ele>742.0</ele>
        <time>2018-05-26T06:20:26.139Z</time>
      </trkpt>
      <trkpt lat="40.53614" lon="-3.705245">
        <ele>743.0</ele>
        <time>2018-05-26T06:20:27.147Z</time>
      </trkpt>
      <trkpt lat="40.53619" lon="-3.70522667">
        <ele>743.0</ele>
        <time>2018-05-26T06:20:28.147Z</time>
      </trkpt>
      <trkpt lat="40.53619" lon="-3.70522667">
        <ele>743.0</ele>
        <time>2018-05-26T06:20:29.144Z</time>
      </trkpt>
      <trkpt lat="40.53628667" lon="-3.70519">
        <ele>743.0</ele>
        <time>2018-05-26T06:20:30.146Z</time>
      </trkpt>
      <trkpt lat="40.536335" lon="-3.70517">
        <ele>743.0</ele>
        <time>2018-05-26T06:20:31.147Z</time>
      </trkpt>
      <trkpt lat="40.536335" lon="-3.70517">
        <ele>743.0</ele>
        <time>2018-05-26T06:20:32.143Z</time>
      </trkpt>
      <trkpt lat="40.53643" lon="-3.70512833">
        <ele>743.0</ele>
        <time>2018-05-26T06:20:33.146Z</time>
      </trkpt>
      <trkpt lat="40.53647333" lon="-3.70510667">
        <ele>743.0</ele>
        <time>2018-05-26T06:20:34.148Z</time>
      </trkpt>
      <trkpt lat="40.53647333" lon="-3.70510667">
        <ele>743.0</ele>
        <time>2018-05-26T06:20:35.144Z</time>
      </trkpt>
      <trkpt lat="40.53657" lon="-3.70507833">
        <ele>744.0</ele>
        <time>2018-05-26T06:20:36.147Z</time>
      </trkpt>
      <trkpt lat="40.536615" lon="-3.70505667">
        <ele>744.0</ele>
        <time>2018-05-26T06:20:37.152Z</time>
      </trkpt>
      <trkpt lat="40.536615" lon="-3.70505667">
        <ele>744.0</ele>
        <time>2018-05-26T06:20:38.141Z</time>
      </trkpt>
      <trkpt lat="40.536705" lon="-3.70501833">
        <ele>745.0</ele>
        <time>2018-05-26T06:20:39.148Z</time>
      </trkpt>
      <trkpt lat="40.53675167" lon="-3.70499667">
        <ele>746.0</ele>
        <time>2018-05-26T06:20:40.149Z</time>
      </trkpt>
      <trkpt lat="40.53675167" lon="-3.70499667">
        <ele>746.0</ele>
        <time>2018-05-26T06:20:41.145Z</time>
      </trkpt>
      <trkpt lat="40.53684833" lon="-3.70495833">
        <ele>746.0</ele>
        <time>2018-05-26T06:20:42.147Z</time>
      </trkpt>
      <trkpt lat="40.53689667" lon="-3.70493667">
        <ele>747.0</ele>
        <time>2018-05-26T06:20:43.148Z</time>
      </trkpt>
      <trkpt lat="40.53689667" lon="-3.70493667">
        <ele>747.0</ele>
        <time>2018-05-26T06:20:44.144Z</time>
      </trkpt>
      <trkpt lat="40.53699" lon="-3.70489333">
        <ele>748.0</ele>
        <time>2018-05-26T06:20:45.146Z</time>
      </trkpt>
      <trkpt lat="40.53703667" lon="-3.70486667">
        <ele>748.0</ele>
        <time>2018-05-26T06:20:46.151Z</time>
      </trkpt>
      <trkpt lat="40.53703667" lon="-3.70486667">
        <ele>748.0</ele>
        <time>2018-05-26T06:20:47.144Z</time>
      </trkpt>
      <trkpt lat="40.537125" lon="-3.70479">
        <ele>749.0</ele>
        <time>2018-05-26T06:20:48.147Z</time>
      </trkpt>
      <trkpt lat="40.537125" lon="-3.70479">
        <ele>749.0</ele>
        <time>2018-05-26T06:20:49.141Z</time>
      </trkpt>
      <trkpt lat="40.53720333" lon="-3.704705">
        <ele>749.0</ele>
        <time>2018-05-26T06:20:50.148Z</time>
      </trkpt>
      <trkpt lat="40.53720333" lon="-3.704705">
        <ele>749.0</ele>
        <time>2018-05-26T06:20:51.144Z</time>
      </trkpt>
      <trkpt lat="40.537285" lon="-3.70461667">
        <ele>749.0</ele>
        <time>2018-05-26T06:20:52.147Z</time>
      </trkpt>
      <trkpt lat="40.537285" lon="-3.70461667">
        <ele>749.0</ele>
        <time>2018-05-26T06:20:53.142Z</time>
      </trkpt>
      <trkpt lat="40.53736333" lon="-3.70452167">
        <ele>750.0</ele>
        <time>2018-05-26T06:20:54.149Z</time>
      </trkpt>
      <trkpt lat="40.53736333" lon="-3.70452167">
        <ele>750.0</ele>
        <time>2018-05-26T06:20:55.144Z</time>
      </trkpt>
      <trkpt lat="40.53743833" lon="-3.70441667">
        <ele>750.0</ele>
        <time>2018-05-26T06:20:56.147Z</time>
      </trkpt>
      <trkpt lat="40.53747167" lon="-3.70435833">
        <ele>750.0</ele>
        <time>2018-05-26T06:20:57.147Z</time>
      </trkpt>
      <trkpt lat="40.53747167" lon="-3.70435833">
        <ele>750.0</ele>
        <time>2018-05-26T06:20:58.145Z</time>
      </trkpt>
      <trkpt lat="40.53754167" lon="-3.70423167">
        <ele>749.0</ele>
        <time>2018-05-26T06:20:59.147Z</time>
      </trkpt>
      <trkpt lat="40.537575" lon="-3.70416333">
        <ele>749.0</ele>
        <time>2018-05-26T06:21:00.153Z</time>
      </trkpt>
      <trkpt lat="40.537575" lon="-3.70416333">
        <ele>749.0</ele>
        <time>2018-05-26T06:21:01.144Z</time>
      </trkpt>
      <trkpt lat="40.537625" lon="-3.70402">
        <ele>749.0</ele>
        <time>2018-05-26T06:21:02.148Z</time>
      </trkpt>
      <trkpt lat="40.537625" lon="-3.70402">
        <ele>749.0</ele>
        <time>2018-05-26T06:21:03.143Z</time>
      </trkpt>
      <trkpt lat="40.53763833" lon="-3.70386833">
        <ele>750.0</ele>
        <time>2018-05-26T06:21:04.149Z</time>
      </trkpt>
      <trkpt lat="40.53763833" lon="-3.70386833">
        <ele>750.0</ele>
        <time>2018-05-26T06:21:05.152Z</time>
      </trkpt>
      <trkpt lat="40.53763833" lon="-3.70371">
        <ele>750.0</ele>
        <time>2018-05-26T06:21:06.148Z</time>
      </trkpt>
      <trkpt lat="40.53764" lon="-3.70363">
        <ele>750.0</ele>
        <time>2018-05-26T06:21:07.148Z</time>
      </trkpt>
      <trkpt lat="40.53764" lon="-3.70363">
        <ele>750.0</ele>
        <time>2018-05-26T06:21:08.141Z</time>
      </trkpt>
      <trkpt lat="40.53765333" lon="-3.70347333">
        <ele>750.0</ele>
        <time>2018-05-26T06:21:09.148Z</time>
      </trkpt>
      <trkpt lat="40.53765333" lon="-3.70347333">
        <ele>750.0</ele>
        <time>2018-05-26T06:21:10.145Z</time>
      </trkpt>
      <trkpt lat="40.53769833" lon="-3.70333">
        <ele>750.0</ele>
        <time>2018-05-26T06:21:11.147Z</time>
      </trkpt>
      <trkpt lat="40.53769833" lon="-3.70333">
        <ele>750.0</ele>
        <time>2018-05-26T06:21:12.139Z</time>
      </trkpt>
      <trkpt lat="40.53776833" lon="-3.7032">
        <ele>750.0</ele>
        <time>2018-05-26T06:21:13.143Z</time>
      </trkpt>
      <trkpt lat="40.53776833" lon="-3.7032">
        <ele>750.0</ele>
        <time>2018-05-26T06:21:14.144Z</time>
      </trkpt>
      <trkpt lat="40.53785" lon="-3.70308">
        <ele>750.0</ele>
        <time>2018-05-26T06:21:15.146Z</time>
      </trkpt>
      <trkpt lat="40.53789167" lon="-3.703025">
        <ele>750.0</ele>
        <time>2018-05-26T06:21:16.147Z</time>
      </trkpt>
      <trkpt lat="40.53789167" lon="-3.703025">
        <ele>750.0</ele>
        <time>2018-05-26T06:21:17.144Z</time>
      </trkpt>
      <trkpt lat="40.53798167" lon="-3.702915">
        <ele>749.0</ele>
        <time>2018-05-26T06:21:18.138Z</time>
      </trkpt>
      <trkpt lat="40.53802833" lon="-3.70286167">
        <ele>749.0</ele>
        <time>2018-05-26T06:21:19.144Z</time>
      </trkpt>
      <trkpt lat="40.53802833" lon="-3.70286167">
        <ele>749.0</ele>
        <time>2018-05-26T06:21:20.142Z</time>
      </trkpt>
      <trkpt lat="40.53813333" lon="-3.70277667">
        <ele>749.0</ele>
        <time>2018-05-26T06:21:21.143Z</time>
      </trkpt>
      <trkpt lat="40.53819667" lon="-3.70275">
        <ele>749.0</ele>
        <time>2018-05-26T06:21:22.159Z</time>
      </trkpt>
      <trkpt lat="40.53819667" lon="-3.70275">
        <ele>749.0</ele>
        <time>2018-05-26T06:21:23.155Z</time>
      </trkpt>
      <trkpt lat="40.53833667" lon="-3.70275667">
        <ele>748.0</ele>
        <time>2018-05-26T06:21:24.148Z</time>
      </trkpt>
      <trkpt lat="40.53833667" lon="-3.70275667">
        <ele>748.0</ele>
        <time>2018-05-26T06:21:25.142Z</time>
      </trkpt>
      <trkpt lat="40.538475" lon="-3.70285167">
        <ele>747.0</ele>
        <time>2018-05-26T06:21:26.146Z</time>
      </trkpt>
      <trkpt lat="40.53854167" lon="-3.70292167">
        <ele>746.0</ele>
        <time>2018-05-26T06:21:27.147Z</time>
      </trkpt>
      <trkpt lat="40.53854167" lon="-3.70292167">
        <ele>746.0</ele>
        <time>2018-05-26T06:21:28.159Z</time>
      </trkpt>
      <trkpt lat="40.53866667" lon="-3.70308167">
        <ele>745.0</ele>
        <time>2018-05-26T06:21:29.147Z</time>
      </trkpt>
      <trkpt lat="40.53873" lon="-3.70316833">
        <ele>744.0</ele>
        <time>2018-05-26T06:21:30.148Z</time>
      </trkpt>
      <trkpt lat="40.53873" lon="-3.70316833">
        <ele>744.0</ele>
        <time>2018-05-26T06:21:31.144Z</time>
      </trkpt>
      <trkpt lat="40.53885" lon="-3.70332">
        <ele>743.0</ele>
        <time>2018-05-26T06:21:32.144Z</time>
      </trkpt>
      <trkpt lat="40.53885" lon="-3.70332">
        <ele>743.0</ele>
        <time>2018-05-26T06:21:33.142Z</time>
      </trkpt>
      <trkpt lat="40.53894333" lon="-3.70345833">
        <ele>744.0</ele>
        <time>2018-05-26T06:21:34.149Z</time>
      </trkpt>
      <trkpt lat="40.53894333" lon="-3.70345833">
        <ele>744.0</ele>
        <time>2018-05-26T06:21:35.149Z</time>
      </trkpt>
      <trkpt lat="40.539025" lon="-3.70357">
        <ele>744.0</ele>
        <time>2018-05-26T06:21:36.146Z</time>
      </trkpt>
      <trkpt lat="40.53906" lon="-3.70361667">
        <ele>745.0</ele>
        <time>2018-05-26T06:21:37.143Z</time>
      </trkpt>
      <trkpt lat="40.53906" lon="-3.70361667">
        <ele>745.0</ele>
        <time>2018-05-26T06:21:38.146Z</time>
      </trkpt>
      <trkpt lat="40.53913167" lon="-3.70371">
        <ele>746.0</ele>
        <time>2018-05-26T06:21:39.147Z</time>
      </trkpt>
      <trkpt lat="40.53913167" lon="-3.70371">
        <ele>746.0</ele>
        <time>2018-05-26T06:21:40.145Z</time>
      </trkpt>
      <trkpt lat="40.53920167" lon="-3.703805">
        <ele>747.0</ele>
        <time>2018-05-26T06:21:41.147Z</time>
      </trkpt>
      <trkpt lat="40.53920167" lon="-3.703805">
        <ele>747.0</ele>
        <time>2018-05-26T06:21:42.141Z</time>
      </trkpt>
      <trkpt lat="40.53927333" lon="-3.703895">
        <ele>747.0</ele>
        <time>2018-05-26T06:21:43.150Z</time>
      </trkpt>
      <trkpt lat="40.53927333" lon="-3.703895">
        <ele>747.0</ele>
        <time>2018-05-26T06:21:44.144Z</time>
      </trkpt>
      <trkpt lat="40.53934833" lon="-3.703975">
        <ele>748.0</ele>
        <time>2018-05-26T06:21:45.153Z</time>
      </trkpt>
      <trkpt lat="40.53938667" lon="-3.70401167">
        <ele>748.0</ele>
        <time>2018-05-26T06:21:46.149Z</time>
      </trkpt>
      <trkpt lat="40.53938667" lon="-3.70401167">
        <ele>748.0</ele>
        <time>2018-05-26T06:21:47.142Z</time>
      </trkpt>
      <trkpt lat="40.53945833" lon="-3.70409167">
        <ele>748.0</ele>
        <time>2018-05-26T06:21:48.148Z</time>
      </trkpt>
      <trkpt lat="40.539495" lon="-3.70413333">
        <ele>749.0</ele>
        <time>2018-05-26T06:21:49.160Z</time>
      </trkpt>
      <trkpt lat="40.53953167" lon="-3.704175">
        <ele>749.0</ele>
        <time>2018-05-26T06:21:50.155Z</time>
      </trkpt>
      <trkpt lat="40.53953167" lon="-3.704175">
        <ele>749.0</ele>
        <time>2018-05-26T06:21:51.144Z</time>
      </trkpt>
      <trkpt lat="40.53960667" lon="-3.70425833">
        <ele>750.0</ele>
        <time>2018-05-26T06:21:52.149Z</time>
      </trkpt>
      <trkpt lat="40.53960667" lon="-3.70425833">
        <ele>750.0</ele>
        <time>2018-05-26T06:21:53.141Z</time>
      </trkpt>
      <trkpt lat="40.53968667" lon="-3.70434333">
        <ele>750.0</ele>
        <time>2018-05-26T06:21:54.147Z</time>
      </trkpt>
      <trkpt lat="40.53968667" lon="-3.70434333">
        <ele>750.0</ele>
        <time>2018-05-26T06:21:55.144Z</time>
      </trkpt>
      <trkpt lat="40.539765" lon="-3.70443667">
        <ele>750.0</ele>
        <time>2018-05-26T06:21:56.147Z</time>
      </trkpt>
      <trkpt lat="40.539765" lon="-3.70443667">
        <ele>750.0</ele>
        <time>2018-05-26T06:21:57.143Z</time>
      </trkpt>
      <trkpt lat="40.53984333" lon="-3.70453667">
        <ele>750.0</ele>
        <time>2018-05-26T06:21:58.149Z</time>
      </trkpt>
      <trkpt lat="40.53984333" lon="-3.70453667">
        <ele>750.0</ele>
        <time>2018-05-26T06:21:59.144Z</time>
      </trkpt>
      <trkpt lat="40.53993333" lon="-3.70462833">
        <ele>750.0</ele>
        <time>2018-05-26T06:22:00.146Z</time>
      </trkpt>
      <trkpt lat="40.53997833" lon="-3.70466833">
        <ele>750.0</ele>
        <time>2018-05-26T06:22:01.146Z</time>
      </trkpt>
      <trkpt lat="40.54003" lon="-3.70470333">
        <ele>750.0</ele>
        <time>2018-05-26T06:22:02.144Z</time>
      </trkpt>
      <trkpt lat="40.54003" lon="-3.70470333">
        <ele>750.0</ele>
        <time>2018-05-26T06:22:03.175Z</time>
      </trkpt>
      <trkpt lat="40.54013167" lon="-3.70476667">
        <ele>750.0</ele>
        <time>2018-05-26T06:22:04.149Z</time>
      </trkpt>
      <trkpt lat="40.54013167" lon="-3.70476667">
        <ele>750.0</ele>
        <time>2018-05-26T06:22:05.143Z</time>
      </trkpt>
      <trkpt lat="40.54022333" lon="-3.70485">
        <ele>751.0</ele>
        <time>2018-05-26T06:22:06.147Z</time>
      </trkpt>
      <trkpt lat="40.54022333" lon="-3.70485">
        <ele>751.0</ele>
        <time>2018-05-26T06:22:07.144Z</time>
      </trkpt>
      <trkpt lat="40.54031333" lon="-3.70494667">
        <ele>751.0</ele>
        <time>2018-05-26T06:22:08.149Z</time>
      </trkpt>
      <trkpt lat="40.54031333" lon="-3.70494667">
        <ele>751.0</ele>
        <time>2018-05-26T06:22:09.144Z</time>
      </trkpt>
      <trkpt lat="40.54040833" lon="-3.70504167">
        <ele>751.0</ele>
        <time>2018-05-26T06:22:10.149Z</time>
      </trkpt>
      <trkpt lat="40.54040833" lon="-3.70504167">
        <ele>751.0</ele>
        <time>2018-05-26T06:22:11.144Z</time>
      </trkpt>
      <trkpt lat="40.54050667" lon="-3.70513">
        <ele>751.0</ele>
        <time>2018-05-26T06:22:12.148Z</time>
      </trkpt>
      <trkpt lat="40.54055667" lon="-3.70517333">
        <ele>751.0</ele>
        <time>2018-05-26T06:22:13.144Z</time>
      </trkpt>
      <trkpt lat="40.54055667" lon="-3.70517333">
        <ele>751.0</ele>
        <time>2018-05-26T06:22:14.142Z</time>
      </trkpt>
      <trkpt lat="40.54065167" lon="-3.70526333">
        <ele>752.0</ele>
        <time>2018-05-26T06:22:15.144Z</time>
      </trkpt>
      <trkpt lat="40.5407" lon="-3.70530667">
        <ele>752.0</ele>
        <time>2018-05-26T06:22:16.149Z</time>
      </trkpt>
      <trkpt lat="40.5407" lon="-3.70530667">
        <ele>752.0</ele>
        <time>2018-05-26T06:22:17.145Z</time>
      </trkpt>
      <trkpt lat="40.54079333" lon="-3.70539167">
        <ele>752.0</ele>
        <time>2018-05-26T06:22:18.146Z</time>
      </trkpt>
      <trkpt lat="40.54083833" lon="-3.705435">
        <ele>752.0</ele>
        <time>2018-05-26T06:22:19.147Z</time>
      </trkpt>
      <trkpt lat="40.54083833" lon="-3.705435">
        <ele>752.0</ele>
        <time>2018-05-26T06:22:20.144Z</time>
      </trkpt>
      <trkpt lat="40.54093833" lon="-3.70554">
        <ele>751.0</ele>
        <time>2018-05-26T06:22:21.144Z</time>
      </trkpt>
      <trkpt lat="40.54099333" lon="-3.70560333">
        <ele>750.0</ele>
        <time>2018-05-26T06:22:22.149Z</time>
      </trkpt>
      <trkpt lat="40.54099333" lon="-3.70560333">
        <ele>750.0</ele>
        <time>2018-05-26T06:22:23.139Z</time>
      </trkpt>
      <trkpt lat="40.54110167" lon="-3.70576167">
        <ele>749.0</ele>
        <time>2018-05-26T06:22:24.148Z</time>
      </trkpt>
      <trkpt lat="40.54110167" lon="-3.70576167">
        <ele>749.0</ele>
        <time>2018-05-26T06:22:25.147Z</time>
      </trkpt>
      <trkpt lat="40.541215" lon="-3.70594">
        <ele>747.0</ele>
        <time>2018-05-26T06:22:26.144Z</time>
      </trkpt>
      <trkpt lat="40.541215" lon="-3.70594">
        <ele>747.0</ele>
        <time>2018-05-26T06:22:27.142Z</time>
      </trkpt>
      <trkpt lat="40.54135167" lon="-3.70611167">
        <ele>745.0</ele>
        <time>2018-05-26T06:22:28.147Z</time>
      </trkpt>
      <trkpt lat="40.54135167" lon="-3.70611167">
        <ele>745.0</ele>
        <time>2018-05-26T06:22:29.140Z</time>
      </trkpt>
      <trkpt lat="40.54150167" lon="-3.70625833">
        <ele>743.0</ele>
        <time>2018-05-26T06:22:30.147Z</time>
      </trkpt>
      <trkpt lat="40.54150167" lon="-3.70625833">
        <ele>743.0</ele>
        <time>2018-05-26T06:22:31.143Z</time>
      </trkpt>
      <trkpt lat="40.541645" lon="-3.70637">
        <ele>742.0</ele>
        <time>2018-05-26T06:22:32.144Z</time>
      </trkpt>
      <trkpt lat="40.541645" lon="-3.70637">
        <ele>742.0</ele>
        <time>2018-05-26T06:22:33.142Z</time>
      </trkpt>
      <trkpt lat="40.54177" lon="-3.70649333">
        <ele>742.0</ele>
        <time>2018-05-26T06:22:34.157Z</time>
      </trkpt>
      <trkpt lat="40.54177" lon="-3.70649333">
        <ele>742.0</ele>
        <time>2018-05-26T06:22:35.145Z</time>
      </trkpt>
      <trkpt lat="40.54188" lon="-3.70659667">
        <ele>741.0</ele>
        <time>2018-05-26T06:22:36.149Z</time>
      </trkpt>
      <trkpt lat="40.54188" lon="-3.70659667">
        <ele>741.0</ele>
        <time>2018-05-26T06:22:37.142Z</time>
      </trkpt>
      <trkpt lat="40.54198" lon="-3.70668">
        <ele>742.0</ele>
        <time>2018-05-26T06:22:38.144Z</time>
      </trkpt>
      <trkpt lat="40.54198" lon="-3.70668">
        <ele>742.0</ele>
        <time>2018-05-26T06:22:39.143Z</time>
      </trkpt>
      <trkpt lat="40.54206667" lon="-3.706745">
        <ele>744.0</ele>
        <time>2018-05-26T06:22:40.149Z</time>
      </trkpt>
      <trkpt lat="40.54206667" lon="-3.706745">
        <ele>744.0</ele>
        <time>2018-05-26T06:22:41.141Z</time>
      </trkpt>
      <trkpt lat="40.54213667" lon="-3.70680167">
        <ele>745.0</ele>
        <time>2018-05-26T06:22:42.147Z</time>
      </trkpt>
      <trkpt lat="40.542165" lon="-3.70682833">
        <ele>746.0</ele>
        <time>2018-05-26T06:22:43.147Z</time>
      </trkpt>
      <trkpt lat="40.542165" lon="-3.70682833">
        <ele>746.0</ele>
        <time>2018-05-26T06:22:44.144Z</time>
      </trkpt>
      <trkpt lat="40.54221667" lon="-3.70687333">
        <ele>747.0</ele>
        <time>2018-05-26T06:22:45.150Z</time>
      </trkpt>
      <trkpt lat="40.54224167" lon="-3.70689667">
        <ele>747.0</ele>
        <time>2018-05-26T06:22:46.149Z</time>
      </trkpt>
      <trkpt lat="40.54224167" lon="-3.70689667">
        <ele>747.0</ele>
        <time>2018-05-26T06:22:47.142Z</time>
      </trkpt>
      <trkpt lat="40.54229167" lon="-3.70694167">
        <ele>748.0</ele>
        <time>2018-05-26T06:22:48.155Z</time>
      </trkpt>
      <trkpt lat="40.54229167" lon="-3.70694167">
        <ele>748.0</ele>
        <time>2018-05-26T06:22:49.143Z</time>
      </trkpt>
      <trkpt lat="40.54234" lon="-3.70698167">
        <ele>749.0</ele>
        <time>2018-05-26T06:22:50.144Z</time>
      </trkpt>
      <trkpt lat="40.54234" lon="-3.70698167">
        <ele>749.0</ele>
        <time>2018-05-26T06:22:51.142Z</time>
      </trkpt>
      <trkpt lat="40.54238667" lon="-3.70701833">
        <ele>749.0</ele>
        <time>2018-05-26T06:22:52.149Z</time>
      </trkpt>
      <trkpt lat="40.54238667" lon="-3.70701833">
        <ele>749.0</ele>
        <time>2018-05-26T06:22:53.143Z</time>
      </trkpt>
      <trkpt lat="40.542435" lon="-3.70706">
        <ele>750.0</ele>
        <time>2018-05-26T06:22:54.147Z</time>
      </trkpt>
      <trkpt lat="40.542435" lon="-3.70706">
        <ele>750.0</ele>
        <time>2018-05-26T06:22:55.143Z</time>
      </trkpt>
      <trkpt lat="40.54248667" lon="-3.70710167">
        <ele>751.0</ele>
        <time>2018-05-26T06:22:56.147Z</time>
      </trkpt>
      <trkpt lat="40.54248667" lon="-3.70710167">
        <ele>751.0</ele>
        <time>2018-05-26T06:22:57.144Z</time>
      </trkpt>
      <trkpt lat="40.54254167" lon="-3.70714667">
        <ele>751.0</ele>
        <time>2018-05-26T06:22:58.149Z</time>
      </trkpt>
      <trkpt lat="40.54254167" lon="-3.70714667">
        <ele>751.0</ele>
        <time>2018-05-26T06:22:59.142Z</time>
      </trkpt>
      <trkpt lat="40.5426" lon="-3.70719">
        <ele>752.0</ele>
        <time>2018-05-26T06:23:00.161Z</time>
      </trkpt>
      <trkpt lat="40.54263" lon="-3.70721167">
        <ele>752.0</ele>
        <time>2018-05-26T06:23:01.156Z</time>
      </trkpt>
      <trkpt lat="40.54263" lon="-3.70721167">
        <ele>752.0</ele>
        <time>2018-05-26T06:23:02.144Z</time>
      </trkpt>
      <trkpt lat="40.54268667" lon="-3.70726167">
        <ele>753.0</ele>
        <time>2018-05-26T06:23:03.145Z</time>
      </trkpt>
      <trkpt lat="40.54268667" lon="-3.70726167">
        <ele>753.0</ele>
        <time>2018-05-26T06:23:04.145Z</time>
      </trkpt>
      <trkpt lat="40.54275333" lon="-3.707315">
        <ele>753.0</ele>
        <time>2018-05-26T06:23:05.148Z</time>
      </trkpt>
      <trkpt lat="40.54279" lon="-3.70734167">
        <ele>753.0</ele>
        <time>2018-05-26T06:23:06.147Z</time>
      </trkpt>
      <trkpt lat="40.54279" lon="-3.70734167">
        <ele>753.0</ele>
        <time>2018-05-26T06:23:07.144Z</time>
      </trkpt>
      <trkpt lat="40.54286833" lon="-3.7074">
        <ele>753.0</ele>
        <time>2018-05-26T06:23:08.144Z</time>
      </trkpt>
      <trkpt lat="40.54286833" lon="-3.7074">
        <ele>753.0</ele>
        <time>2018-05-26T06:23:09.141Z</time>
      </trkpt>
      <trkpt lat="40.54296167" lon="-3.70746333">
        <ele>752.0</ele>
        <time>2018-05-26T06:23:10.148Z</time>
      </trkpt>
      <trkpt lat="40.54296167" lon="-3.70746333">
        <ele>752.0</ele>
        <time>2018-05-26T06:23:11.145Z</time>
      </trkpt>
      <trkpt lat="40.54307" lon="-3.70752667">
        <ele>751.0</ele>
        <time>2018-05-26T06:23:12.146Z</time>
      </trkpt>
      <trkpt lat="40.54307" lon="-3.70752667">
        <ele>751.0</ele>
        <time>2018-05-26T06:23:13.144Z</time>
      </trkpt>
      <trkpt lat="40.54319833" lon="-3.70760167">
        <ele>750.0</ele>
        <time>2018-05-26T06:23:14.146Z</time>
      </trkpt>
      <trkpt lat="40.54319833" lon="-3.70760167">
        <ele>750.0</ele>
        <time>2018-05-26T06:23:15.146Z</time>
      </trkpt>
      <trkpt lat="40.543335" lon="-3.707695">
        <ele>749.0</ele>
        <time>2018-05-26T06:23:16.147Z</time>
      </trkpt>
      <trkpt lat="40.543335" lon="-3.707695">
        <ele>749.0</ele>
        <time>2018-05-26T06:23:17.143Z</time>
      </trkpt>
      <trkpt lat="40.54349167" lon="-3.707785">
        <ele>748.0</ele>
        <time>2018-05-26T06:23:18.146Z</time>
      </trkpt>
      <trkpt lat="40.54349167" lon="-3.707785">
        <ele>748.0</ele>
        <time>2018-05-26T06:23:19.145Z</time>
      </trkpt>
      <trkpt lat="40.54365833" lon="-3.70783667">
        <ele>747.0</ele>
        <time>2018-05-26T06:23:20.156Z</time>
      </trkpt>
      <trkpt lat="40.54365833" lon="-3.70783667">
        <ele>747.0</ele>
        <time>2018-05-26T06:23:21.145Z</time>
      </trkpt>
      <trkpt lat="40.54383167" lon="-3.70788667">
        <ele>745.0</ele>
        <time>2018-05-26T06:23:22.149Z</time>
      </trkpt>
      <trkpt lat="40.54383167" lon="-3.70788667">
        <ele>745.0</ele>
        <time>2018-05-26T06:23:23.139Z</time>
      </trkpt>
      <trkpt lat="40.54400833" lon="-3.707955">
        <ele>744.0</ele>
        <time>2018-05-26T06:23:24.147Z</time>
      </trkpt>
      <trkpt lat="40.54400833" lon="-3.707955">
        <ele>744.0</ele>
        <time>2018-05-26T06:23:25.145Z</time>
      </trkpt>
      <trkpt lat="40.54417333" lon="-3.70803167">
        <ele>743.0</ele>
        <time>2018-05-26T06:23:26.144Z</time>
      </trkpt>
      <trkpt lat="40.54417333" lon="-3.70803167">
        <ele>743.0</ele>
        <time>2018-05-26T06:23:27.142Z</time>
      </trkpt>
      <trkpt lat="40.54433333" lon="-3.70812333">
        <ele>742.0</ele>
        <time>2018-05-26T06:23:28.145Z</time>
      </trkpt>
      <trkpt lat="40.54433333" lon="-3.70812333">
        <ele>742.0</ele>
        <time>2018-05-26T06:23:29.145Z</time>
      </trkpt>
      <trkpt lat="40.54451167" lon="-3.70823167">
        <ele>740.0</ele>
        <time>2018-05-26T06:23:30.151Z</time>
      </trkpt>
      <trkpt lat="40.54460833" lon="-3.70829">
        <ele>739.0</ele>
        <time>2018-05-26T06:23:31.147Z</time>
      </trkpt>
      <trkpt lat="40.54471" lon="-3.70833833">
        <ele>738.0</ele>
        <time>2018-05-26T06:23:32.146Z</time>
      </trkpt>
      <trkpt lat="40.54471" lon="-3.70833833">
        <ele>738.0</ele>
        <time>2018-05-26T06:23:33.144Z</time>
      </trkpt>
      <trkpt lat="40.54492" lon="-3.708425">
        <ele>737.0</ele>
        <time>2018-05-26T06:23:34.149Z</time>
      </trkpt>
      <trkpt lat="40.54492" lon="-3.708425">
        <ele>737.0</ele>
        <time>2018-05-26T06:23:35.142Z</time>
      </trkpt>
      <trkpt lat="40.54511667" lon="-3.70850333">
        <ele>737.0</ele>
        <time>2018-05-26T06:23:36.147Z</time>
      </trkpt>
      <trkpt lat="40.54511667" lon="-3.70850333">
        <ele>737.0</ele>
        <time>2018-05-26T06:23:37.141Z</time>
      </trkpt>
      <trkpt lat="40.54531" lon="-3.708525">
        <ele>737.0</ele>
        <time>2018-05-26T06:23:38.144Z</time>
      </trkpt>
      <trkpt lat="40.54531" lon="-3.708525">
        <ele>737.0</ele>
        <time>2018-05-26T06:23:39.141Z</time>
      </trkpt>
      <trkpt lat="40.545465" lon="-3.70850333">
        <ele>738.0</ele>
        <time>2018-05-26T06:23:40.147Z</time>
      </trkpt>
      <trkpt lat="40.545465" lon="-3.70850333">
        <ele>738.0</ele>
        <time>2018-05-26T06:23:41.144Z</time>
      </trkpt>
      <trkpt lat="40.54560333" lon="-3.70851333">
        <ele>738.0</ele>
        <time>2018-05-26T06:23:42.146Z</time>
      </trkpt>
      <trkpt lat="40.54566" lon="-3.70852333">
        <ele>739.0</ele>
        <time>2018-05-26T06:23:43.144Z</time>
      </trkpt>
      <trkpt lat="40.54566" lon="-3.70852333">
        <ele>739.0</ele>
        <time>2018-05-26T06:23:44.142Z</time>
      </trkpt>
      <trkpt lat="40.54576167" lon="-3.70854833">
        <ele>740.0</ele>
        <time>2018-05-26T06:23:45.151Z</time>
      </trkpt>
      <trkpt lat="40.54580833" lon="-3.70855">
        <ele>740.0</ele>
        <time>2018-05-26T06:23:46.154Z</time>
      </trkpt>
      <trkpt lat="40.54580833" lon="-3.70855">
        <ele>740.0</ele>
        <time>2018-05-26T06:23:47.144Z</time>
      </trkpt>
      <trkpt lat="40.54589" lon="-3.70852">
        <ele>742.0</ele>
        <time>2018-05-26T06:23:48.146Z</time>
      </trkpt>
      <trkpt lat="40.54592667" lon="-3.70849">
        <ele>743.0</ele>
        <time>2018-05-26T06:23:49.144Z</time>
      </trkpt>
      <trkpt lat="40.54592667" lon="-3.70849">
        <ele>743.0</ele>
        <time>2018-05-26T06:23:50.143Z</time>
      </trkpt>
      <trkpt lat="40.54599" lon="-3.70841833">
        <ele>743.0</ele>
        <time>2018-05-26T06:23:51.143Z</time>
      </trkpt>
      <trkpt lat="40.54601167" lon="-3.708375">
        <ele>743.0</ele>
        <time>2018-05-26T06:23:52.147Z</time>
      </trkpt>
      <trkpt lat="40.54601167" lon="-3.708375">
        <ele>743.0</ele>
        <time>2018-05-26T06:23:53.143Z</time>
      </trkpt>
      <trkpt lat="40.54602833" lon="-3.70827833">
        <ele>744.0</ele>
        <time>2018-05-26T06:23:54.146Z</time>
      </trkpt>
      <trkpt lat="40.54602833" lon="-3.70827833">
        <ele>744.0</ele>
        <time>2018-05-26T06:23:55.145Z</time>
      </trkpt>
      <trkpt lat="40.54604667" lon="-3.70819833">
        <ele>745.0</ele>
        <time>2018-05-26T06:23:56.144Z</time>
      </trkpt>
      <trkpt lat="40.54604667" lon="-3.70819833">
        <ele>745.0</ele>
        <time>2018-05-26T06:23:57.143Z</time>
      </trkpt>
      <trkpt lat="40.54606" lon="-3.70814">
        <ele>746.0</ele>
        <time>2018-05-26T06:23:58.149Z</time>
      </trkpt>
      <trkpt lat="40.54606" lon="-3.70814">
        <ele>746.0</ele>
        <time>2018-05-26T06:23:59.143Z</time>
      </trkpt>
      <trkpt lat="40.54608833" lon="-3.70810667">
        <ele>748.0</ele>
        <time>2018-05-26T06:24:00.145Z</time>
      </trkpt>
      <trkpt lat="40.54609667" lon="-3.70809833">
        <ele>748.0</ele>
        <time>2018-05-26T06:24:01.147Z</time>
      </trkpt>
      <trkpt lat="40.54609667" lon="-3.70809833">
        <ele>748.0</ele>
        <time>2018-05-26T06:24:02.144Z</time>
      </trkpt>
      <trkpt lat="40.546125" lon="-3.708065">
        <ele>749.0</ele>
        <time>2018-05-26T06:24:03.144Z</time>
      </trkpt>
      <trkpt lat="40.54614333" lon="-3.708045">
        <ele>750.0</ele>
        <time>2018-05-26T06:24:04.147Z</time>
      </trkpt>
      <trkpt lat="40.54614333" lon="-3.708045">
        <ele>750.0</ele>
        <time>2018-05-26T06:24:05.143Z</time>
      </trkpt>
      <trkpt lat="40.54617167" lon="-3.70800667">
        <ele>751.0</ele>
        <time>2018-05-26T06:24:06.147Z</time>
      </trkpt>
      <trkpt lat="40.54617167" lon="-3.70800667">
        <ele>751.0</ele>
        <time>2018-05-26T06:24:07.150Z</time>
      </trkpt>
      <trkpt lat="40.54621" lon="-3.70798833">
        <ele>752.0</ele>
        <time>2018-05-26T06:24:08.146Z</time>
      </trkpt>
      <trkpt lat="40.54623333" lon="-3.707985">
        <ele>753.0</ele>
        <time>2018-05-26T06:24:09.149Z</time>
      </trkpt>
      <trkpt lat="40.54623333" lon="-3.707985">
        <ele>753.0</ele>
        <time>2018-05-26T06:24:10.147Z</time>
      </trkpt>
      <trkpt lat="40.54627667" lon="-3.70797667">
        <ele>753.0</ele>
        <time>2018-05-26T06:24:11.144Z</time>
      </trkpt>
      <trkpt lat="40.54630167" lon="-3.70798167">
        <ele>754.0</ele>
        <time>2018-05-26T06:24:12.146Z</time>
      </trkpt>
      <trkpt lat="40.54630167" lon="-3.70798167">
        <ele>754.0</ele>
        <time>2018-05-26T06:24:13.142Z</time>
      </trkpt>
      <trkpt lat="40.54634833" lon="-3.70801167">
        <ele>754.0</ele>
        <time>2018-05-26T06:24:14.143Z</time>
      </trkpt>
      <trkpt lat="40.54634833" lon="-3.70801167">
        <ele>754.0</ele>
        <time>2018-05-26T06:24:15.143Z</time>
      </trkpt>
      <trkpt lat="40.54639333" lon="-3.70805">
        <ele>754.0</ele>
        <time>2018-05-26T06:24:16.149Z</time>
      </trkpt>
      <trkpt lat="40.54639333" lon="-3.70805">
        <ele>754.0</ele>
        <time>2018-05-26T06:24:17.142Z</time>
      </trkpt>
      <trkpt lat="40.54644167" lon="-3.708095">
        <ele>755.0</ele>
        <time>2018-05-26T06:24:18.147Z</time>
      </trkpt>
      <trkpt lat="40.54647" lon="-3.70812167">
        <ele>755.0</ele>
        <time>2018-05-26T06:24:19.146Z</time>
      </trkpt>
      <trkpt lat="40.54647" lon="-3.70812167">
        <ele>755.0</ele>
        <time>2018-05-26T06:24:20.143Z</time>
      </trkpt>
      <trkpt lat="40.54653667" lon="-3.70816833">
        <ele>756.0</ele>
        <time>2018-05-26T06:24:21.143Z</time>
      </trkpt>
      <trkpt lat="40.54657333" lon="-3.70819333">
        <ele>756.0</ele>
        <time>2018-05-26T06:24:22.148Z</time>
      </trkpt>
      <trkpt lat="40.54657333" lon="-3.70819333">
        <ele>756.0</ele>
        <time>2018-05-26T06:24:23.144Z</time>
      </trkpt>
      <trkpt lat="40.54664667" lon="-3.70825333">
        <ele>756.0</ele>
        <time>2018-05-26T06:24:24.147Z</time>
      </trkpt>
      <trkpt lat="40.54664667" lon="-3.70825333">
        <ele>756.0</ele>
        <time>2018-05-26T06:24:25.144Z</time>
      </trkpt>
      <trkpt lat="40.54672667" lon="-3.70830833">
        <ele>756.0</ele>
        <time>2018-05-26T06:24:26.147Z</time>
      </trkpt>
      <trkpt lat="40.54672667" lon="-3.70830833">
        <ele>756.0</ele>
        <time>2018-05-26T06:24:27.143Z</time>
      </trkpt>
      <trkpt lat="40.54680333" lon="-3.708365">
        <ele>756.0</ele>
        <time>2018-05-26T06:24:28.147Z</time>
      </trkpt>
      <trkpt lat="40.54680333" lon="-3.708365">
        <ele>756.0</ele>
        <time>2018-05-26T06:24:29.144Z</time>
      </trkpt>
      <trkpt lat="40.54687833" lon="-3.708415">
        <ele>757.0</ele>
        <time>2018-05-26T06:24:30.146Z</time>
      </trkpt>
      <trkpt lat="40.54691667" lon="-3.70843833">
        <ele>756.0</ele>
        <time>2018-05-26T06:24:31.143Z</time>
      </trkpt>
      <trkpt lat="40.54691667" lon="-3.70843833">
        <ele>756.0</ele>
        <time>2018-05-26T06:24:32.143Z</time>
      </trkpt>
      <trkpt lat="40.54699" lon="-3.708475">
        <ele>757.0</ele>
        <time>2018-05-26T06:24:33.153Z</time>
      </trkpt>
      <trkpt lat="40.54702833" lon="-3.708485">
        <ele>757.0</ele>
        <time>2018-05-26T06:24:34.149Z</time>
      </trkpt>
      <trkpt lat="40.54702833" lon="-3.708485">
        <ele>757.0</ele>
        <time>2018-05-26T06:24:35.143Z</time>
      </trkpt>
      <trkpt lat="40.54710167" lon="-3.70848667">
        <ele>757.0</ele>
        <time>2018-05-26T06:24:36.147Z</time>
      </trkpt>
      <trkpt lat="40.54710167" lon="-3.70848667">
        <ele>757.0</ele>
        <time>2018-05-26T06:24:37.142Z</time>
      </trkpt>
      <trkpt lat="40.54716167" lon="-3.708465">
        <ele>758.0</ele>
        <time>2018-05-26T06:24:38.144Z</time>
      </trkpt>
      <trkpt lat="40.54716167" lon="-3.708465">
        <ele>758.0</ele>
        <time>2018-05-26T06:24:39.143Z</time>
      </trkpt>
      <trkpt lat="40.54721167" lon="-3.70844333">
        <ele>759.0</ele>
        <time>2018-05-26T06:24:40.146Z</time>
      </trkpt>
      <trkpt lat="40.54723333" lon="-3.70843333">
        <ele>759.0</ele>
        <time>2018-05-26T06:24:41.146Z</time>
      </trkpt>
      <trkpt lat="40.547255" lon="-3.70842167">
        <ele>759.0</ele>
        <time>2018-05-26T06:24:42.147Z</time>
      </trkpt>
      <trkpt lat="40.547255" lon="-3.70842167">
        <ele>759.0</ele>
        <time>2018-05-26T06:24:43.143Z</time>
      </trkpt>
      <trkpt lat="40.54729833" lon="-3.70839333">
        <ele>760.0</ele>
        <time>2018-05-26T06:24:44.145Z</time>
      </trkpt>
      <trkpt lat="40.54729833" lon="-3.70839333">
        <ele>760.0</ele>
        <time>2018-05-26T06:24:45.150Z</time>
      </trkpt>
      <trkpt lat="40.54734333" lon="-3.70837833">
        <ele>760.0</ele>
        <time>2018-05-26T06:24:46.146Z</time>
      </trkpt>
      <trkpt lat="40.54734333" lon="-3.70837833">
        <ele>760.0</ele>
        <time>2018-05-26T06:24:47.144Z</time>
      </trkpt>
      <trkpt lat="40.547385" lon="-3.70838333">
        <ele>761.0</ele>
        <time>2018-05-26T06:24:48.147Z</time>
      </trkpt>
      <trkpt lat="40.547385" lon="-3.70838333">
        <ele>761.0</ele>
        <time>2018-05-26T06:24:49.141Z</time>
      </trkpt>
      <trkpt lat="40.54742667" lon="-3.7084">
        <ele>762.0</ele>
        <time>2018-05-26T06:24:50.145Z</time>
      </trkpt>
      <trkpt lat="40.547445" lon="-3.70841333">
        <ele>763.0</ele>
        <time>2018-05-26T06:24:51.145Z</time>
      </trkpt>
      <trkpt lat="40.547465" lon="-3.70843333">
        <ele>763.0</ele>
        <time>2018-05-26T06:24:52.147Z</time>
      </trkpt>
      <trkpt lat="40.547465" lon="-3.70843333">
        <ele>763.0</ele>
        <time>2018-05-26T06:24:53.143Z</time>
      </trkpt>
      <trkpt lat="40.54749667" lon="-3.70847167">
        <ele>763.0</ele>
        <time>2018-05-26T06:24:54.147Z</time>
      </trkpt>
      <trkpt lat="40.54749667" lon="-3.70847167">
        <ele>763.0</ele>
        <time>2018-05-26T06:24:55.147Z</time>
      </trkpt>
      <trkpt lat="40.547525" lon="-3.70852">
        <ele>764.0</ele>
        <time>2018-05-26T06:24:56.146Z</time>
      </trkpt>
      <trkpt lat="40.547525" lon="-3.70852">
        <ele>764.0</ele>
        <time>2018-05-26T06:24:57.143Z</time>
      </trkpt>
      <trkpt lat="40.54754833" lon="-3.708575">
        <ele>764.0</ele>
        <time>2018-05-26T06:24:58.147Z</time>
      </trkpt>
      <trkpt lat="40.54756167" lon="-3.708605">
        <ele>764.0</ele>
        <time>2018-05-26T06:24:59.170Z</time>
      </trkpt>
      <trkpt lat="40.54756167" lon="-3.708605">
        <ele>764.0</ele>
        <time>2018-05-26T06:25:00.151Z</time>
      </trkpt>
      <trkpt lat="40.5476" lon="-3.70866333">
        <ele>765.0</ele>
        <time>2018-05-26T06:25:01.147Z</time>
      </trkpt>
      <trkpt lat="40.5476" lon="-3.70866333">
        <ele>765.0</ele>
        <time>2018-05-26T06:25:02.143Z</time>
      </trkpt>
      <trkpt lat="40.54763667" lon="-3.70872167">
        <ele>765.0</ele>
        <time>2018-05-26T06:25:03.146Z</time>
      </trkpt>
      <trkpt lat="40.54763667" lon="-3.70872167">
        <ele>765.0</ele>
        <time>2018-05-26T06:25:04.145Z</time>
      </trkpt>
      <trkpt lat="40.54767667" lon="-3.70877167">
        <ele>766.0</ele>
        <time>2018-05-26T06:25:05.146Z</time>
      </trkpt>
      <trkpt lat="40.547695" lon="-3.70879667">
        <ele>766.0</ele>
        <time>2018-05-26T06:25:06.147Z</time>
      </trkpt>
      <trkpt lat="40.547695" lon="-3.70879667">
        <ele>766.0</ele>
        <time>2018-05-26T06:25:07.142Z</time>
      </trkpt>
      <trkpt lat="40.54773" lon="-3.70884833">
        <ele>766.0</ele>
        <time>2018-05-26T06:25:08.149Z</time>
      </trkpt>
      <trkpt lat="40.54773" lon="-3.70884833">
        <ele>766.0</ele>
        <time>2018-05-26T06:25:09.143Z</time>
      </trkpt>
      <trkpt lat="40.54776833" lon="-3.708905">
        <ele>767.0</ele>
        <time>2018-05-26T06:25:10.155Z</time>
      </trkpt>
      <trkpt lat="40.54776833" lon="-3.708905">
        <ele>767.0</ele>
        <time>2018-05-26T06:25:11.141Z</time>
      </trkpt>
      <trkpt lat="40.54781333" lon="-3.70896833">
        <ele>767.0</ele>
        <time>2018-05-26T06:25:12.146Z</time>
      </trkpt>
      <trkpt lat="40.54781333" lon="-3.70896833">
        <ele>767.0</ele>
        <time>2018-05-26T06:25:13.143Z</time>
      </trkpt>
      <trkpt lat="40.54786667" lon="-3.70903167">
        <ele>767.0</ele>
        <time>2018-05-26T06:25:14.143Z</time>
      </trkpt>
      <trkpt lat="40.54786667" lon="-3.70903167">
        <ele>767.0</ele>
        <time>2018-05-26T06:25:15.148Z</time>
      </trkpt>
      <trkpt lat="40.54793" lon="-3.70908833">
        <ele>768.0</ele>
        <time>2018-05-26T06:25:16.149Z</time>
      </trkpt>
      <trkpt lat="40.54793" lon="-3.70908833">
        <ele>768.0</ele>
        <time>2018-05-26T06:25:17.143Z</time>
      </trkpt>
      <trkpt lat="40.54801" lon="-3.70912">
        <ele>769.0</ele>
        <time>2018-05-26T06:25:18.147Z</time>
      </trkpt>
      <trkpt lat="40.54801" lon="-3.70912">
        <ele>769.0</ele>
        <time>2018-05-26T06:25:19.144Z</time>
      </trkpt>
      <trkpt lat="40.54809833" lon="-3.70914167">
        <ele>769.0</ele>
        <time>2018-05-26T06:25:20.170Z</time>
      </trkpt>
      <trkpt lat="40.54814333" lon="-3.70915667">
        <ele>769.0</ele>
        <time>2018-05-26T06:25:21.165Z</time>
      </trkpt>
      <trkpt lat="40.54819833" lon="-3.70917667">
        <ele>768.0</ele>
        <time>2018-05-26T06:25:22.157Z</time>
      </trkpt>
      <trkpt lat="40.54819833" lon="-3.70917667">
        <ele>768.0</ele>
        <time>2018-05-26T06:25:23.145Z</time>
      </trkpt>
      <trkpt lat="40.54830667" lon="-3.70923667">
        <ele>767.0</ele>
        <time>2018-05-26T06:25:24.147Z</time>
      </trkpt>
      <trkpt lat="40.54830667" lon="-3.70923667">
        <ele>767.0</ele>
        <time>2018-05-26T06:25:25.142Z</time>
      </trkpt>
      <trkpt lat="40.54842833" lon="-3.70930167">
        <ele>767.0</ele>
        <time>2018-05-26T06:25:26.144Z</time>
      </trkpt>
      <trkpt lat="40.54842833" lon="-3.70930167">
        <ele>767.0</ele>
        <time>2018-05-26T06:25:27.143Z</time>
      </trkpt>
      <trkpt lat="40.54856167" lon="-3.70937667">
        <ele>766.0</ele>
        <time>2018-05-26T06:25:28.147Z</time>
      </trkpt>
      <trkpt lat="40.54856167" lon="-3.70937667">
        <ele>766.0</ele>
        <time>2018-05-26T06:25:29.143Z</time>
      </trkpt>
      <trkpt lat="40.54871" lon="-3.70944667">
        <ele>765.0</ele>
        <time>2018-05-26T06:25:30.147Z</time>
      </trkpt>
      <trkpt lat="40.54871" lon="-3.70944667">
        <ele>765.0</ele>
        <time>2018-05-26T06:25:31.144Z</time>
      </trkpt>
      <trkpt lat="40.54886167" lon="-3.709505">
        <ele>764.0</ele>
        <time>2018-05-26T06:25:32.144Z</time>
      </trkpt>
      <trkpt lat="40.54886167" lon="-3.709505">
        <ele>764.0</ele>
        <time>2018-05-26T06:25:33.142Z</time>
      </trkpt>
      <trkpt lat="40.549015" lon="-3.70956333">
        <ele>764.0</ele>
        <time>2018-05-26T06:25:34.149Z</time>
      </trkpt>
      <trkpt lat="40.549015" lon="-3.70956333">
        <ele>764.0</ele>
        <time>2018-05-26T06:25:35.141Z</time>
      </trkpt>
      <trkpt lat="40.54917167" lon="-3.709625">
        <ele>763.0</ele>
        <time>2018-05-26T06:25:36.147Z</time>
      </trkpt>
      <trkpt lat="40.54917167" lon="-3.709625">
        <ele>763.0</ele>
        <time>2018-05-26T06:25:37.144Z</time>
      </trkpt>
      <trkpt lat="40.54933333" lon="-3.709695">
        <ele>762.0</ele>
        <time>2018-05-26T06:25:38.143Z</time>
      </trkpt>
      <trkpt lat="40.54941333" lon="-3.70973167">
        <ele>762.0</ele>
        <time>2018-05-26T06:25:39.147Z</time>
      </trkpt>
      <trkpt lat="40.54941333" lon="-3.70973167">
        <ele>762.0</ele>
        <time>2018-05-26T06:25:40.144Z</time>
      </trkpt>
      <trkpt lat="40.54957833" lon="-3.70979667">
        <ele>762.0</ele>
        <time>2018-05-26T06:25:41.143Z</time>
      </trkpt>
      <trkpt lat="40.54965333" lon="-3.70983333">
        <ele>761.0</ele>
        <time>2018-05-26T06:25:42.147Z</time>
      </trkpt>
      <trkpt lat="40.54965333" lon="-3.70983333">
        <ele>761.0</ele>
        <time>2018-05-26T06:25:43.142Z</time>
      </trkpt>
      <trkpt lat="40.54978833" lon="-3.70996167">
        <ele>760.0</ele>
        <time>2018-05-26T06:25:44.145Z</time>
      </trkpt>
      <trkpt lat="40.54978833" lon="-3.70996167">
        <ele>760.0</ele>
        <time>2018-05-26T06:25:45.152Z</time>
      </trkpt>
      <trkpt lat="40.54988167" lon="-3.71017">
        <ele>759.0</ele>
        <time>2018-05-26T06:25:46.159Z</time>
      </trkpt>
      <trkpt lat="40.54988167" lon="-3.71017">
        <ele>759.0</ele>
        <time>2018-05-26T06:25:47.148Z</time>
      </trkpt>
      <trkpt lat="40.54999333" lon="-3.71038167">
        <ele>757.0</ele>
        <time>2018-05-26T06:25:48.147Z</time>
      </trkpt>
      <trkpt lat="40.54999333" lon="-3.71038167">
        <ele>757.0</ele>
        <time>2018-05-26T06:25:49.139Z</time>
      </trkpt>
      <trkpt lat="40.55016167" lon="-3.710565">
        <ele>755.0</ele>
        <time>2018-05-26T06:25:50.144Z</time>
      </trkpt>
      <trkpt lat="40.55016167" lon="-3.710565">
        <ele>755.0</ele>
        <time>2018-05-26T06:25:51.144Z</time>
      </trkpt>
      <trkpt lat="40.55036167" lon="-3.71069833">
        <ele>753.0</ele>
        <time>2018-05-26T06:25:52.149Z</time>
      </trkpt>
      <trkpt lat="40.55046333" lon="-3.710755">
        <ele>752.0</ele>
        <time>2018-05-26T06:25:53.146Z</time>
      </trkpt>
      <trkpt lat="40.55046333" lon="-3.710755">
        <ele>752.0</ele>
        <time>2018-05-26T06:25:54.145Z</time>
      </trkpt>
      <trkpt lat="40.55066667" lon="-3.710855">
        <ele>751.0</ele>
        <time>2018-05-26T06:25:55.148Z</time>
      </trkpt>
      <trkpt lat="40.55066667" lon="-3.710855">
        <ele>751.0</ele>
        <time>2018-05-26T06:25:56.144Z</time>
      </trkpt>
      <trkpt lat="40.55085667" lon="-3.71094">
        <ele>751.0</ele>
        <time>2018-05-26T06:25:57.147Z</time>
      </trkpt>
      <trkpt lat="40.550945" lon="-3.710975">
        <ele>750.0</ele>
        <time>2018-05-26T06:25:58.147Z</time>
      </trkpt>
      <trkpt lat="40.550945" lon="-3.710975">
        <ele>750.0</ele>
        <time>2018-05-26T06:25:59.143Z</time>
      </trkpt>
      <trkpt lat="40.55111167" lon="-3.711045">
        <ele>751.0</ele>
        <time>2018-05-26T06:26:00.161Z</time>
      </trkpt>
      <trkpt lat="40.55111167" lon="-3.711045">
        <ele>751.0</ele>
        <time>2018-05-26T06:26:01.149Z</time>
      </trkpt>
      <trkpt lat="40.55126833" lon="-3.71108333">
        <ele>752.0</ele>
        <time>2018-05-26T06:26:02.144Z</time>
      </trkpt>
      <trkpt lat="40.55126833" lon="-3.71108333">
        <ele>752.0</ele>
        <time>2018-05-26T06:26:03.143Z</time>
      </trkpt>
      <trkpt lat="40.55139833" lon="-3.71110667">
        <ele>754.0</ele>
        <time>2018-05-26T06:26:04.149Z</time>
      </trkpt>
      <trkpt lat="40.55139833" lon="-3.71110667">
        <ele>754.0</ele>
        <time>2018-05-26T06:26:05.142Z</time>
      </trkpt>
      <trkpt lat="40.55148" lon="-3.71113333">
        <ele>755.0</ele>
        <time>2018-05-26T06:26:06.147Z</time>
      </trkpt>
      <trkpt lat="40.55148" lon="-3.71113333">
        <ele>755.0</ele>
        <time>2018-05-26T06:26:07.142Z</time>
      </trkpt>
      <trkpt lat="40.55154667" lon="-3.71117167">
        <ele>757.0</ele>
        <time>2018-05-26T06:26:08.145Z</time>
      </trkpt>
      <trkpt lat="40.55154667" lon="-3.71117167">
        <ele>757.0</ele>
        <time>2018-05-26T06:26:09.142Z</time>
      </trkpt>
      <trkpt lat="40.55162167" lon="-3.71123">
        <ele>757.0</ele>
        <time>2018-05-26T06:26:10.145Z</time>
      </trkpt>
      <trkpt lat="40.55162167" lon="-3.71123">
        <ele>757.0</ele>
        <time>2018-05-26T06:26:11.146Z</time>
      </trkpt>
      <trkpt lat="40.55169833" lon="-3.71130667">
        <ele>757.0</ele>
        <time>2018-05-26T06:26:12.147Z</time>
      </trkpt>
      <trkpt lat="40.55169833" lon="-3.71130667">
        <ele>757.0</ele>
        <time>2018-05-26T06:26:13.141Z</time>
      </trkpt>
      <trkpt lat="40.55177833" lon="-3.71139667">
        <ele>756.0</ele>
        <time>2018-05-26T06:26:14.145Z</time>
      </trkpt>
      <trkpt lat="40.55182" lon="-3.71145167">
        <ele>756.0</ele>
        <time>2018-05-26T06:26:15.147Z</time>
      </trkpt>
      <trkpt lat="40.55182" lon="-3.71145167">
        <ele>756.0</ele>
        <time>2018-05-26T06:26:16.142Z</time>
      </trkpt>
      <trkpt lat="40.551915" lon="-3.71152833">
        <ele>757.0</ele>
        <time>2018-05-26T06:26:17.148Z</time>
      </trkpt>
      <trkpt lat="40.55196167" lon="-3.71155333">
        <ele>757.0</ele>
        <time>2018-05-26T06:26:18.150Z</time>
      </trkpt>
      <trkpt lat="40.55196167" lon="-3.71155333">
        <ele>757.0</ele>
        <time>2018-05-26T06:26:19.143Z</time>
      </trkpt>
      <trkpt lat="40.55205333" lon="-3.71158667">
        <ele>758.0</ele>
        <time>2018-05-26T06:26:20.149Z</time>
      </trkpt>
      <trkpt lat="40.55205333" lon="-3.71158667">
        <ele>758.0</ele>
        <time>2018-05-26T06:26:21.146Z</time>
      </trkpt>
      <trkpt lat="40.55213167" lon="-3.71161">
        <ele>759.0</ele>
        <time>2018-05-26T06:26:22.148Z</time>
      </trkpt>
      <trkpt lat="40.55213167" lon="-3.71161">
        <ele>759.0</ele>
        <time>2018-05-26T06:26:23.142Z</time>
      </trkpt>
      <trkpt lat="40.55221333" lon="-3.71162833">
        <ele>760.0</ele>
        <time>2018-05-26T06:26:24.146Z</time>
      </trkpt>
      <trkpt lat="40.55221333" lon="-3.71162833">
        <ele>760.0</ele>
        <time>2018-05-26T06:26:25.143Z</time>
      </trkpt>
      <trkpt lat="40.552305" lon="-3.71165">
        <ele>761.0</ele>
        <time>2018-05-26T06:26:26.148Z</time>
      </trkpt>
      <trkpt lat="40.552305" lon="-3.71165">
        <ele>761.0</ele>
        <time>2018-05-26T06:26:27.144Z</time>
      </trkpt>
      <trkpt lat="40.55241333" lon="-3.711665">
        <ele>760.0</ele>
        <time>2018-05-26T06:26:28.149Z</time>
      </trkpt>
      <trkpt lat="40.55241333" lon="-3.711665">
        <ele>760.0</ele>
        <time>2018-05-26T06:26:29.142Z</time>
      </trkpt>
      <trkpt lat="40.55247833" lon="-3.711615">
        <ele>761.0</ele>
        <time>2018-05-26T06:26:30.147Z</time>
      </trkpt>
      <trkpt lat="40.55247833" lon="-3.711615">
        <ele>761.0</ele>
        <time>2018-05-26T06:26:31.143Z</time>
      </trkpt>
      <trkpt lat="40.55248667" lon="-3.71150833">
        <ele>761.0</ele>
        <time>2018-05-26T06:26:32.147Z</time>
      </trkpt>
      <trkpt lat="40.55248667" lon="-3.71150833">
        <ele>761.0</ele>
        <time>2018-05-26T06:26:33.142Z</time>
      </trkpt>
      <trkpt lat="40.55248167" lon="-3.71138333">
        <ele>761.0</ele>
        <time>2018-05-26T06:26:34.149Z</time>
      </trkpt>
      <trkpt lat="40.55248" lon="-3.71132667">
        <ele>761.0</ele>
        <time>2018-05-26T06:26:35.149Z</time>
      </trkpt>
      <trkpt lat="40.55248667" lon="-3.71128167">
        <ele>762.0</ele>
        <time>2018-05-26T06:26:36.145Z</time>
      </trkpt>
      <trkpt lat="40.55248667" lon="-3.71128167">
        <ele>762.0</ele>
        <time>2018-05-26T06:26:37.142Z</time>
      </trkpt>
      <trkpt lat="40.55253667" lon="-3.71128333">
        <ele>761.0</ele>
        <time>2018-05-26T06:26:38.145Z</time>
      </trkpt>
      <trkpt lat="40.55253667" lon="-3.71128333">
        <ele>761.0</ele>
        <time>2018-05-26T06:26:39.143Z</time>
      </trkpt>
      <trkpt lat="40.55261833" lon="-3.71136167">
        <ele>761.0</ele>
        <time>2018-05-26T06:26:40.149Z</time>
      </trkpt>
      <trkpt lat="40.55261833" lon="-3.71136167">
        <ele>761.0</ele>
        <time>2018-05-26T06:26:41.142Z</time>
      </trkpt>
      <trkpt lat="40.55270667" lon="-3.711445">
        <ele>761.0</ele>
        <time>2018-05-26T06:26:42.147Z</time>
      </trkpt>
      <trkpt lat="40.55270667" lon="-3.711445">
        <ele>761.0</ele>
        <time>2018-05-26T06:26:43.142Z</time>
      </trkpt>
      <trkpt lat="40.55280167" lon="-3.71154667">
        <ele>761.0</ele>
        <time>2018-05-26T06:26:44.150Z</time>
      </trkpt>
      <trkpt lat="40.55280167" lon="-3.71154667">
        <ele>761.0</ele>
        <time>2018-05-26T06:26:45.148Z</time>
      </trkpt>
      <trkpt lat="40.55289833" lon="-3.71167333">
        <ele>761.0</ele>
        <time>2018-05-26T06:26:46.149Z</time>
      </trkpt>
      <trkpt lat="40.55289833" lon="-3.71167333">
        <ele>761.0</ele>
        <time>2018-05-26T06:26:47.142Z</time>
      </trkpt>
      <trkpt lat="40.55301333" lon="-3.71178833">
        <ele>760.0</ele>
        <time>2018-05-26T06:26:48.147Z</time>
      </trkpt>
      <trkpt lat="40.55301333" lon="-3.71178833">
        <ele>760.0</ele>
        <time>2018-05-26T06:26:49.145Z</time>
      </trkpt>
      <trkpt lat="40.55316333" lon="-3.71187">
        <ele>758.0</ele>
        <time>2018-05-26T06:26:50.147Z</time>
      </trkpt>
      <trkpt lat="40.55316333" lon="-3.71187">
        <ele>758.0</ele>
        <time>2018-05-26T06:26:51.152Z</time>
      </trkpt>
      <trkpt lat="40.55333" lon="-3.71192833">
        <ele>757.0</ele>
        <time>2018-05-26T06:26:52.156Z</time>
      </trkpt>
      <trkpt lat="40.55333" lon="-3.71192833">
        <ele>757.0</ele>
        <time>2018-05-26T06:26:53.148Z</time>
      </trkpt>
      <trkpt lat="40.55350667" lon="-3.71199667">
        <ele>757.0</ele>
        <time>2018-05-26T06:26:54.148Z</time>
      </trkpt>
      <trkpt lat="40.55350667" lon="-3.71199667">
        <ele>757.0</ele>
        <time>2018-05-26T06:26:55.142Z</time>
      </trkpt>
      <trkpt lat="40.55369" lon="-3.712075">
        <ele>756.0</ele>
        <time>2018-05-26T06:26:56.145Z</time>
      </trkpt>
      <trkpt lat="40.55369" lon="-3.712075">
        <ele>756.0</ele>
        <time>2018-05-26T06:26:57.142Z</time>
      </trkpt>
      <trkpt lat="40.55387833" lon="-3.712165">
        <ele>755.0</ele>
        <time>2018-05-26T06:26:58.149Z</time>
      </trkpt>
      <trkpt lat="40.55387833" lon="-3.712165">
        <ele>755.0</ele>
        <time>2018-05-26T06:26:59.144Z</time>
      </trkpt>
      <trkpt lat="40.554075" lon="-3.71225833">
        <ele>754.0</ele>
        <time>2018-05-26T06:27:00.160Z</time>
      </trkpt>
      <trkpt lat="40.554075" lon="-3.71225833">
        <ele>754.0</ele>
        <time>2018-05-26T06:27:01.145Z</time>
      </trkpt>
      <trkpt lat="40.554275" lon="-3.712335">
        <ele>753.0</ele>
        <time>2018-05-26T06:27:02.147Z</time>
      </trkpt>
      <trkpt lat="40.554275" lon="-3.712335">
        <ele>753.0</ele>
        <time>2018-05-26T06:27:03.142Z</time>
      </trkpt>
      <trkpt lat="40.55447167" lon="-3.7124">
        <ele>752.0</ele>
        <time>2018-05-26T06:27:04.149Z</time>
      </trkpt>
      <trkpt lat="40.55447167" lon="-3.7124">
        <ele>752.0</ele>
        <time>2018-05-26T06:27:05.145Z</time>
      </trkpt>
      <trkpt lat="40.55466667" lon="-3.71246167">
        <ele>752.0</ele>
        <time>2018-05-26T06:27:06.147Z</time>
      </trkpt>
      <trkpt lat="40.55466667" lon="-3.71246167">
        <ele>752.0</ele>
        <time>2018-05-26T06:27:07.143Z</time>
      </trkpt>
      <trkpt lat="40.55486" lon="-3.712525">
        <ele>751.0</ele>
        <time>2018-05-26T06:27:08.148Z</time>
      </trkpt>
      <trkpt lat="40.55486" lon="-3.712525">
        <ele>751.0</ele>
        <time>2018-05-26T06:27:09.144Z</time>
      </trkpt>
      <trkpt lat="40.55504333" lon="-3.71258333">
        <ele>751.0</ele>
        <time>2018-05-26T06:27:10.149Z</time>
      </trkpt>
      <trkpt lat="40.55504333" lon="-3.71258333">
        <ele>751.0</ele>
        <time>2018-05-26T06:27:11.145Z</time>
      </trkpt>
      <trkpt lat="40.55522167" lon="-3.71263167">
        <ele>752.0</ele>
        <time>2018-05-26T06:27:12.148Z</time>
      </trkpt>
      <trkpt lat="40.55522167" lon="-3.71263167">
        <ele>752.0</ele>
        <time>2018-05-26T06:27:13.142Z</time>
      </trkpt>
      <trkpt lat="40.55539333" lon="-3.71266667">
        <ele>752.0</ele>
        <time>2018-05-26T06:27:14.145Z</time>
      </trkpt>
      <trkpt lat="40.55547333" lon="-3.71268167">
        <ele>753.0</ele>
        <time>2018-05-26T06:27:15.147Z</time>
      </trkpt>
      <trkpt lat="40.55555" lon="-3.712695">
        <ele>753.0</ele>
        <time>2018-05-26T06:27:16.149Z</time>
      </trkpt>
      <trkpt lat="40.55555" lon="-3.712695">
        <ele>753.0</ele>
        <time>2018-05-26T06:27:17.141Z</time>
      </trkpt>
      <trkpt lat="40.55570667" lon="-3.712705">
        <ele>753.0</ele>
        <time>2018-05-26T06:27:18.147Z</time>
      </trkpt>
      <trkpt lat="40.55570667" lon="-3.712705">
        <ele>753.0</ele>
        <time>2018-05-26T06:27:19.143Z</time>
      </trkpt>
      <trkpt lat="40.55585833" lon="-3.712705">
        <ele>753.0</ele>
        <time>2018-05-26T06:27:20.148Z</time>
      </trkpt>
      <trkpt lat="40.555935" lon="-3.71269833">
        <ele>752.0</ele>
        <time>2018-05-26T06:27:21.147Z</time>
      </trkpt>
      <trkpt lat="40.555935" lon="-3.71269833">
        <ele>752.0</ele>
        <time>2018-05-26T06:27:22.144Z</time>
      </trkpt>
      <trkpt lat="40.556095" lon="-3.71267333">
        <ele>751.0</ele>
        <time>2018-05-26T06:27:23.144Z</time>
      </trkpt>
      <trkpt lat="40.556095" lon="-3.71267333">
        <ele>751.0</ele>
        <time>2018-05-26T06:27:24.142Z</time>
      </trkpt>
      <trkpt lat="40.55626167" lon="-3.71263">
        <ele>750.0</ele>
        <time>2018-05-26T06:27:25.147Z</time>
      </trkpt>
      <trkpt lat="40.55626167" lon="-3.71263">
        <ele>750.0</ele>
        <time>2018-05-26T06:27:26.142Z</time>
      </trkpt>
      <trkpt lat="40.55643" lon="-3.71255667">
        <ele>749.0</ele>
        <time>2018-05-26T06:27:27.144Z</time>
      </trkpt>
      <trkpt lat="40.556515" lon="-3.71252333">
        <ele>749.0</ele>
        <time>2018-05-26T06:27:28.149Z</time>
      </trkpt>
      <trkpt lat="40.556515" lon="-3.71252333">
        <ele>749.0</ele>
        <time>2018-05-26T06:27:29.140Z</time>
      </trkpt>
      <trkpt lat="40.55666667" lon="-3.71248833">
        <ele>748.0</ele>
        <time>2018-05-26T06:27:30.155Z</time>
      </trkpt>
      <trkpt lat="40.55673667" lon="-3.712485">
        <ele>748.0</ele>
        <time>2018-05-26T06:27:31.147Z</time>
      </trkpt>
      <trkpt lat="40.55673667" lon="-3.712485">
        <ele>748.0</ele>
        <time>2018-05-26T06:27:32.143Z</time>
      </trkpt>
      <trkpt lat="40.55689" lon="-3.71247167">
        <ele>748.0</ele>
        <time>2018-05-26T06:27:33.147Z</time>
      </trkpt>
      <trkpt lat="40.55696833" lon="-3.712475">
        <ele>748.0</ele>
        <time>2018-05-26T06:27:34.149Z</time>
      </trkpt>
      <trkpt lat="40.55696833" lon="-3.712475">
        <ele>748.0</ele>
        <time>2018-05-26T06:27:35.147Z</time>
      </trkpt>
      <trkpt lat="40.55712333" lon="-3.71252667">
        <ele>747.0</ele>
        <time>2018-05-26T06:27:36.147Z</time>
      </trkpt>
      <trkpt lat="40.55712333" lon="-3.71252667">
        <ele>747.0</ele>
        <time>2018-05-26T06:27:37.142Z</time>
      </trkpt>
      <trkpt lat="40.55726833" lon="-3.71261667">
        <ele>747.0</ele>
        <time>2018-05-26T06:27:38.147Z</time>
      </trkpt>
      <trkpt lat="40.55734" lon="-3.71266667">
        <ele>747.0</ele>
        <time>2018-05-26T06:27:39.148Z</time>
      </trkpt>
      <trkpt lat="40.55741333" lon="-3.71271333">
        <ele>747.0</ele>
        <time>2018-05-26T06:27:40.149Z</time>
      </trkpt>
      <trkpt lat="40.55741333" lon="-3.71271333">
        <ele>747.0</ele>
        <time>2018-05-26T06:27:41.142Z</time>
      </trkpt>
      <trkpt lat="40.55756667" lon="-3.71279833">
        <ele>747.0</ele>
        <time>2018-05-26T06:27:42.147Z</time>
      </trkpt>
      <trkpt lat="40.55756667" lon="-3.71279833">
        <ele>747.0</ele>
        <time>2018-05-26T06:27:43.147Z</time>
      </trkpt>
      <trkpt lat="40.55772" lon="-3.71288">
        <ele>747.0</ele>
        <time>2018-05-26T06:27:44.147Z</time>
      </trkpt>
      <trkpt lat="40.55779" lon="-3.71292833">
        <ele>747.0</ele>
        <time>2018-05-26T06:27:45.147Z</time>
      </trkpt>
      <trkpt lat="40.55785667" lon="-3.71297667">
        <ele>747.0</ele>
        <time>2018-05-26T06:27:46.149Z</time>
      </trkpt>
      <trkpt lat="40.55785667" lon="-3.71297667">
        <ele>747.0</ele>
        <time>2018-05-26T06:27:47.142Z</time>
      </trkpt>
      <trkpt lat="40.55799" lon="-3.713075">
        <ele>747.0</ele>
        <time>2018-05-26T06:27:48.147Z</time>
      </trkpt>
      <trkpt lat="40.55799" lon="-3.713075">
        <ele>747.0</ele>
        <time>2018-05-26T06:27:49.143Z</time>
      </trkpt>
      <trkpt lat="40.55812333" lon="-3.71314">
        <ele>748.0</ele>
        <time>2018-05-26T06:27:50.147Z</time>
      </trkpt>
      <trkpt lat="40.55818667" lon="-3.71316833">
        <ele>748.0</ele>
        <time>2018-05-26T06:27:51.147Z</time>
      </trkpt>
      <trkpt lat="40.55824833" lon="-3.71319167">
        <ele>749.0</ele>
        <time>2018-05-26T06:27:52.150Z</time>
      </trkpt>
      <trkpt lat="40.55824833" lon="-3.71319167">
        <ele>749.0</ele>
        <time>2018-05-26T06:27:53.143Z</time>
      </trkpt>
      <trkpt lat="40.55837333" lon="-3.713215">
        <ele>749.0</ele>
        <time>2018-05-26T06:27:54.148Z</time>
      </trkpt>
      <trkpt lat="40.55837333" lon="-3.713215">
        <ele>749.0</ele>
        <time>2018-05-26T06:27:55.148Z</time>
      </trkpt>
      <trkpt lat="40.55848833" lon="-3.71321333">
        <ele>749.0</ele>
        <time>2018-05-26T06:27:56.147Z</time>
      </trkpt>
      <trkpt lat="40.55854167" lon="-3.71320833">
        <ele>749.0</ele>
        <time>2018-05-26T06:27:57.147Z</time>
      </trkpt>
      <trkpt lat="40.55854167" lon="-3.71320833">
        <ele>749.0</ele>
        <time>2018-05-26T06:27:58.143Z</time>
      </trkpt>
      <trkpt lat="40.55865333" lon="-3.71318">
        <ele>748.0</ele>
        <time>2018-05-26T06:27:59.147Z</time>
      </trkpt>
      <trkpt lat="40.55865333" lon="-3.71318">
        <ele>748.0</ele>
        <time>2018-05-26T06:28:00.145Z</time>
      </trkpt>
      <trkpt lat="40.55877167" lon="-3.71318">
        <ele>747.0</ele>
        <time>2018-05-26T06:28:01.149Z</time>
      </trkpt>
      <trkpt lat="40.55877167" lon="-3.71318">
        <ele>747.0</ele>
        <time>2018-05-26T06:28:02.145Z</time>
      </trkpt>
      <trkpt lat="40.558895" lon="-3.71324333">
        <ele>746.0</ele>
        <time>2018-05-26T06:28:03.147Z</time>
      </trkpt>
      <trkpt lat="40.558895" lon="-3.71324333">
        <ele>746.0</ele>
        <time>2018-05-26T06:28:04.146Z</time>
      </trkpt>
      <trkpt lat="40.559015" lon="-3.713335">
        <ele>746.0</ele>
        <time>2018-05-26T06:28:05.147Z</time>
      </trkpt>
      <trkpt lat="40.55907167" lon="-3.71338833">
        <ele>747.0</ele>
        <time>2018-05-26T06:28:06.147Z</time>
      </trkpt>
      <trkpt lat="40.55907167" lon="-3.71338833">
        <ele>747.0</ele>
        <time>2018-05-26T06:28:07.142Z</time>
      </trkpt>
      <trkpt lat="40.55918333" lon="-3.71349333">
        <ele>747.0</ele>
        <time>2018-05-26T06:28:08.146Z</time>
      </trkpt>
      <trkpt lat="40.55924333" lon="-3.71354">
        <ele>747.0</ele>
        <time>2018-05-26T06:28:09.148Z</time>
      </trkpt>
      <trkpt lat="40.55924333" lon="-3.71354">
        <ele>747.0</ele>
        <time>2018-05-26T06:28:10.144Z</time>
      </trkpt>
      <trkpt lat="40.55936167" lon="-3.71362667">
        <ele>748.0</ele>
        <time>2018-05-26T06:28:11.147Z</time>
      </trkpt>
      <trkpt lat="40.55936167" lon="-3.71362667">
        <ele>748.0</ele>
        <time>2018-05-26T06:28:12.139Z</time>
      </trkpt>
      <trkpt lat="40.55947667" lon="-3.71371">
        <ele>748.0</ele>
        <time>2018-05-26T06:28:13.147Z</time>
      </trkpt>
      <trkpt lat="40.55947667" lon="-3.71371">
        <ele>748.0</ele>
        <time>2018-05-26T06:28:14.142Z</time>
      </trkpt>
      <trkpt lat="40.55958667" lon="-3.713795">
        <ele>748.0</ele>
        <time>2018-05-26T06:28:15.149Z</time>
      </trkpt>
      <trkpt lat="40.55963833" lon="-3.713835">
        <ele>749.0</ele>
        <time>2018-05-26T06:28:16.149Z</time>
      </trkpt>
      <trkpt lat="40.55963833" lon="-3.713835">
        <ele>749.0</ele>
        <time>2018-05-26T06:28:17.143Z</time>
      </trkpt>
      <trkpt lat="40.559735" lon="-3.71391667">
        <ele>749.0</ele>
        <time>2018-05-26T06:28:18.146Z</time>
      </trkpt>
      <trkpt lat="40.559735" lon="-3.71391667">
        <ele>749.0</ele>
        <time>2018-05-26T06:28:19.142Z</time>
      </trkpt>
      <trkpt lat="40.55982333" lon="-3.713995">
        <ele>750.0</ele>
        <time>2018-05-26T06:28:20.146Z</time>
      </trkpt>
      <trkpt lat="40.55982333" lon="-3.713995">
        <ele>750.0</ele>
        <time>2018-05-26T06:28:21.142Z</time>
      </trkpt>
      <trkpt lat="40.559905" lon="-3.71407167">
        <ele>751.0</ele>
        <time>2018-05-26T06:28:22.140Z</time>
      </trkpt>
      <trkpt lat="40.559945" lon="-3.71410833">
        <ele>751.0</ele>
        <time>2018-05-26T06:28:23.146Z</time>
      </trkpt>
      <trkpt lat="40.55998667" lon="-3.71414">
        <ele>751.0</ele>
        <time>2018-05-26T06:28:24.147Z</time>
      </trkpt>
      <trkpt lat="40.55998667" lon="-3.71414">
        <ele>751.0</ele>
        <time>2018-05-26T06:28:25.144Z</time>
      </trkpt>
      <trkpt lat="40.56007667" lon="-3.71419833">
        <ele>752.0</ele>
        <time>2018-05-26T06:28:26.147Z</time>
      </trkpt>
      <trkpt lat="40.56012833" lon="-3.71422667">
        <ele>752.0</ele>
        <time>2018-05-26T06:28:27.147Z</time>
      </trkpt>
      <trkpt lat="40.56018167" lon="-3.71424833">
        <ele>752.0</ele>
        <time>2018-05-26T06:28:28.147Z</time>
      </trkpt>
      <trkpt lat="40.56018167" lon="-3.71424833">
        <ele>752.0</ele>
        <time>2018-05-26T06:28:29.144Z</time>
      </trkpt>
      <trkpt lat="40.56029167" lon="-3.71428833">
        <ele>752.0</ele>
        <time>2018-05-26T06:28:30.149Z</time>
      </trkpt>
      <trkpt lat="40.56029167" lon="-3.71428833">
        <ele>752.0</ele>
        <time>2018-05-26T06:28:31.143Z</time>
      </trkpt>
      <trkpt lat="40.56040333" lon="-3.71433167">
        <ele>752.0</ele>
        <time>2018-05-26T06:28:32.146Z</time>
      </trkpt>
      <trkpt lat="40.56045833" lon="-3.71435">
        <ele>752.0</ele>
        <time>2018-05-26T06:28:33.147Z</time>
      </trkpt>
      <trkpt lat="40.56051167" lon="-3.71436833">
        <ele>752.0</ele>
        <time>2018-05-26T06:28:34.149Z</time>
      </trkpt>
      <trkpt lat="40.56051167" lon="-3.71436833">
        <ele>752.0</ele>
        <time>2018-05-26T06:28:35.142Z</time>
      </trkpt>
      <trkpt lat="40.56061833" lon="-3.71439833">
        <ele>752.0</ele>
        <time>2018-05-26T06:28:36.147Z</time>
      </trkpt>
      <trkpt lat="40.56061833" lon="-3.71439833">
        <ele>752.0</ele>
        <time>2018-05-26T06:28:37.145Z</time>
      </trkpt>
      <trkpt lat="40.56072" lon="-3.714405">
        <ele>753.0</ele>
        <time>2018-05-26T06:28:38.145Z</time>
      </trkpt>
      <trkpt lat="40.56077333" lon="-3.71440167">
        <ele>753.0</ele>
        <time>2018-05-26T06:28:39.147Z</time>
      </trkpt>
      <trkpt lat="40.56077333" lon="-3.71440167">
        <ele>753.0</ele>
        <time>2018-05-26T06:28:40.143Z</time>
      </trkpt>
      <trkpt lat="40.56088" lon="-3.71438667">
        <ele>753.0</ele>
        <time>2018-05-26T06:28:41.147Z</time>
      </trkpt>
      <trkpt lat="40.56088" lon="-3.71438667">
        <ele>753.0</ele>
        <time>2018-05-26T06:28:42.140Z</time>
      </trkpt>
      <trkpt lat="40.56099" lon="-3.71436333">
        <ele>753.0</ele>
        <time>2018-05-26T06:28:43.147Z</time>
      </trkpt>
      <trkpt lat="40.56099" lon="-3.71436333">
        <ele>753.0</ele>
        <time>2018-05-26T06:28:44.142Z</time>
      </trkpt>
      <trkpt lat="40.56109833" lon="-3.71433">
        <ele>753.0</ele>
        <time>2018-05-26T06:28:45.150Z</time>
      </trkpt>
      <trkpt lat="40.56115333" lon="-3.71431167">
        <ele>753.0</ele>
        <time>2018-05-26T06:28:46.150Z</time>
      </trkpt>
      <trkpt lat="40.56115333" lon="-3.71431167">
        <ele>753.0</ele>
        <time>2018-05-26T06:28:47.142Z</time>
      </trkpt>
      <trkpt lat="40.56126833" lon="-3.71428">
        <ele>753.0</ele>
        <time>2018-05-26T06:28:48.147Z</time>
      </trkpt>
      <trkpt lat="40.56126833" lon="-3.71428">
        <ele>753.0</ele>
        <time>2018-05-26T06:28:49.144Z</time>
      </trkpt>
      <trkpt lat="40.561385" lon="-3.71427">
        <ele>753.0</ele>
        <time>2018-05-26T06:28:50.147Z</time>
      </trkpt>
      <trkpt lat="40.56144667" lon="-3.71427333">
        <ele>752.0</ele>
        <time>2018-05-26T06:28:51.147Z</time>
      </trkpt>
      <trkpt lat="40.56144667" lon="-3.71427333">
        <ele>752.0</ele>
        <time>2018-05-26T06:28:52.159Z</time>
      </trkpt>
      <trkpt lat="40.56157333" lon="-3.71427833">
        <ele>752.0</ele>
        <time>2018-05-26T06:28:53.147Z</time>
      </trkpt>
      <trkpt lat="40.56163833" lon="-3.71429">
        <ele>751.0</ele>
        <time>2018-05-26T06:28:54.149Z</time>
      </trkpt>
      <trkpt lat="40.56163833" lon="-3.71429">
        <ele>751.0</ele>
        <time>2018-05-26T06:28:55.145Z</time>
      </trkpt>
      <trkpt lat="40.561775" lon="-3.71432167">
        <ele>751.0</ele>
        <time>2018-05-26T06:28:56.149Z</time>
      </trkpt>
      <trkpt lat="40.561775" lon="-3.71432167">
        <ele>751.0</ele>
        <time>2018-05-26T06:28:57.143Z</time>
      </trkpt>
      <trkpt lat="40.5619" lon="-3.71438667">
        <ele>749.0</ele>
        <time>2018-05-26T06:28:58.149Z</time>
      </trkpt>
      <trkpt lat="40.5619" lon="-3.71438667">
        <ele>749.0</ele>
        <time>2018-05-26T06:28:59.142Z</time>
      </trkpt>
      <trkpt lat="40.56202333" lon="-3.71447167">
        <ele>747.0</ele>
        <time>2018-05-26T06:29:00.147Z</time>
      </trkpt>
      <trkpt lat="40.56202333" lon="-3.71447167">
        <ele>747.0</ele>
        <time>2018-05-26T06:29:01.143Z</time>
      </trkpt>
      <trkpt lat="40.56216833" lon="-3.714495">
        <ele>746.0</ele>
        <time>2018-05-26T06:29:02.149Z</time>
      </trkpt>
      <trkpt lat="40.56223667" lon="-3.71449667">
        <ele>747.0</ele>
        <time>2018-05-26T06:29:03.160Z</time>
      </trkpt>
      <trkpt lat="40.56223667" lon="-3.71449667">
        <ele>747.0</ele>
        <time>2018-05-26T06:29:04.151Z</time>
      </trkpt>
      <trkpt lat="40.56236833" lon="-3.714515">
        <ele>747.0</ele>
        <time>2018-05-26T06:29:05.147Z</time>
      </trkpt>
      <trkpt lat="40.56243333" lon="-3.714535">
        <ele>747.0</ele>
        <time>2018-05-26T06:29:06.149Z</time>
      </trkpt>
      <trkpt lat="40.56243333" lon="-3.714535">
        <ele>747.0</ele>
        <time>2018-05-26T06:29:07.143Z</time>
      </trkpt>
      <trkpt lat="40.56255667" lon="-3.71459667">
        <ele>747.0</ele>
        <time>2018-05-26T06:29:08.158Z</time>
      </trkpt>
      <trkpt lat="40.56255667" lon="-3.71459667">
        <ele>747.0</ele>
        <time>2018-05-26T06:29:09.143Z</time>
      </trkpt>
      <trkpt lat="40.562675" lon="-3.71466">
        <ele>747.0</ele>
        <time>2018-05-26T06:29:10.154Z</time>
      </trkpt>
      <trkpt lat="40.562675" lon="-3.71466">
        <ele>747.0</ele>
        <time>2018-05-26T06:29:11.165Z</time>
      </trkpt>
      <trkpt lat="40.56279" lon="-3.714715">
        <ele>748.0</ele>
        <time>2018-05-26T06:29:12.147Z</time>
      </trkpt>
      <trkpt lat="40.56284333" lon="-3.71473833">
        <ele>749.0</ele>
        <time>2018-05-26T06:29:13.144Z</time>
      </trkpt>
      <trkpt lat="40.56288833" lon="-3.71475167">
        <ele>751.0</ele>
        <time>2018-05-26T06:29:14.148Z</time>
      </trkpt>
      <trkpt lat="40.56288833" lon="-3.71475167">
        <ele>751.0</ele>
        <time>2018-05-26T06:29:15.163Z</time>
      </trkpt>
      <trkpt lat="40.56296833" lon="-3.71473833">
        <ele>752.0</ele>
        <time>2018-05-26T06:29:16.149Z</time>
      </trkpt>
      <trkpt lat="40.56296833" lon="-3.71473833">
        <ele>752.0</ele>
        <time>2018-05-26T06:29:17.156Z</time>
      </trkpt>
      <trkpt lat="40.56303167" lon="-3.71471833">
        <ele>753.0</ele>
        <time>2018-05-26T06:29:18.164Z</time>
      </trkpt>
      <trkpt lat="40.56306" lon="-3.71470667">
        <ele>754.0</ele>
        <time>2018-05-26T06:29:19.148Z</time>
      </trkpt>
      <trkpt lat="40.56306" lon="-3.71470667">
        <ele>754.0</ele>
        <time>2018-05-26T06:29:20.158Z</time>
      </trkpt>
      <trkpt lat="40.563105" lon="-3.71468667">
        <ele>755.0</ele>
        <time>2018-05-26T06:29:21.147Z</time>
      </trkpt>
      <trkpt lat="40.56312167" lon="-3.71467833">
        <ele>755.0</ele>
        <time>2018-05-26T06:29:22.156Z</time>
      </trkpt>
      <trkpt lat="40.56312167" lon="-3.71467833">
        <ele>755.0</ele>
        <time>2018-05-26T06:29:23.145Z</time>
      </trkpt>
      <trkpt lat="40.56316333" lon="-3.71466167">
        <ele>755.0</ele>
        <time>2018-05-26T06:29:24.157Z</time>
      </trkpt>
      <trkpt lat="40.563185" lon="-3.71465167">
        <ele>755.0</ele>
        <time>2018-05-26T06:29:25.147Z</time>
      </trkpt>
      <trkpt lat="40.563185" lon="-3.71465167">
        <ele>755.0</ele>
        <time>2018-05-26T06:29:26.157Z</time>
      </trkpt>
      <trkpt lat="40.56322333" lon="-3.71462">
        <ele>756.0</ele>
        <time>2018-05-26T06:29:27.145Z</time>
      </trkpt>
      <trkpt lat="40.56322333" lon="-3.71462">
        <ele>756.0</ele>
        <time>2018-05-26T06:29:28.153Z</time>
      </trkpt>
      <trkpt lat="40.56327" lon="-3.7146">
        <ele>757.0</ele>
        <time>2018-05-26T06:29:29.164Z</time>
      </trkpt>
      <trkpt lat="40.56327" lon="-3.7146">
        <ele>757.0</ele>
        <time>2018-05-26T06:29:30.143Z</time>
      </trkpt>
      <trkpt lat="40.56331667" lon="-3.71459333">
        <ele>757.0</ele>
        <time>2018-05-26T06:29:31.152Z</time>
      </trkpt>
      <trkpt lat="40.56331667" lon="-3.71459333">
        <ele>757.0</ele>
        <time>2018-05-26T06:29:32.161Z</time>
      </trkpt>
      <trkpt lat="40.563365" lon="-3.714605">
        <ele>758.0</ele>
        <time>2018-05-26T06:29:33.146Z</time>
      </trkpt>
      <trkpt lat="40.56339333" lon="-3.71462">
        <ele>759.0</ele>
        <time>2018-05-26T06:29:34.156Z</time>
      </trkpt>
      <trkpt lat="40.56339333" lon="-3.71462">
        <ele>759.0</ele>
        <time>2018-05-26T06:29:35.143Z</time>
      </trkpt>
      <trkpt lat="40.563455" lon="-3.71466167">
        <ele>759.0</ele>
        <time>2018-05-26T06:29:36.156Z</time>
      </trkpt>
      <trkpt lat="40.563485" lon="-3.71468667">
        <ele>760.0</ele>
        <time>2018-05-26T06:29:37.147Z</time>
      </trkpt>
      <trkpt lat="40.563485" lon="-3.71468667">
        <ele>760.0</ele>
        <time>2018-05-26T06:29:38.155Z</time>
      </trkpt>
      <trkpt lat="40.56354667" lon="-3.714735">
        <ele>760.0</ele>
        <time>2018-05-26T06:29:39.163Z</time>
      </trkpt>
      <trkpt lat="40.56358167" lon="-3.71475833">
        <ele>760.0</ele>
        <time>2018-05-26T06:29:40.149Z</time>
      </trkpt>
      <trkpt lat="40.56358167" lon="-3.71475833">
        <ele>760.0</ele>
        <time>2018-05-26T06:29:41.165Z</time>
      </trkpt>
      <trkpt lat="40.56365167" lon="-3.71481833">
        <ele>761.0</ele>
        <time>2018-05-26T06:29:42.150Z</time>
      </trkpt>
      <trkpt lat="40.56365167" lon="-3.71481833">
        <ele>761.0</ele>
        <time>2018-05-26T06:29:43.161Z</time>
      </trkpt>
      <trkpt lat="40.56372" lon="-3.71488333">
        <ele>761.0</ele>
        <time>2018-05-26T06:29:44.147Z</time>
      </trkpt>
      <trkpt lat="40.56372" lon="-3.71488333">
        <ele>761.0</ele>
        <time>2018-05-26T06:29:45.175Z</time>
      </trkpt>
      <trkpt lat="40.56379833" lon="-3.71493833">
        <ele>761.0</ele>
        <time>2018-05-26T06:29:46.157Z</time>
      </trkpt>
      <trkpt lat="40.56379833" lon="-3.71493833">
        <ele>761.0</ele>
        <time>2018-05-26T06:29:47.144Z</time>
      </trkpt>
      <trkpt lat="40.56388333" lon="-3.71497333">
        <ele>762.0</ele>
        <time>2018-05-26T06:29:48.156Z</time>
      </trkpt>
      <trkpt lat="40.56388333" lon="-3.71497333">
        <ele>762.0</ele>
        <time>2018-05-26T06:29:49.163Z</time>
      </trkpt>
      <trkpt lat="40.56398333" lon="-3.71498667">
        <ele>762.0</ele>
        <time>2018-05-26T06:29:50.147Z</time>
      </trkpt>
      <trkpt lat="40.56403667" lon="-3.714985">
        <ele>762.0</ele>
        <time>2018-05-26T06:29:51.156Z</time>
      </trkpt>
      <trkpt lat="40.56409" lon="-3.71498167">
        <ele>762.0</ele>
        <time>2018-05-26T06:29:52.149Z</time>
      </trkpt>
      <trkpt lat="40.56409" lon="-3.71498167">
        <ele>762.0</ele>
        <time>2018-05-26T06:29:53.170Z</time>
      </trkpt>
      <trkpt lat="40.56420167" lon="-3.71498333">
        <ele>762.0</ele>
        <time>2018-05-26T06:29:54.149Z</time>
      </trkpt>
      <trkpt lat="40.56420167" lon="-3.71498333">
        <ele>762.0</ele>
        <time>2018-05-26T06:29:55.152Z</time>
      </trkpt>
      <trkpt lat="40.56431667" lon="-3.714975">
        <ele>762.0</ele>
        <time>2018-05-26T06:29:56.160Z</time>
      </trkpt>
      <trkpt lat="40.56431667" lon="-3.714975">
        <ele>762.0</ele>
        <time>2018-05-26T06:29:57.145Z</time>
      </trkpt>
      <trkpt lat="40.56443667" lon="-3.71496333">
        <ele>762.0</ele>
        <time>2018-05-26T06:29:58.156Z</time>
      </trkpt>
      <trkpt lat="40.56443667" lon="-3.71496333">
        <ele>762.0</ele>
        <time>2018-05-26T06:29:59.165Z</time>
      </trkpt>
      <trkpt lat="40.56455667" lon="-3.71495833">
        <ele>762.0</ele>
        <time>2018-05-26T06:30:00.147Z</time>
      </trkpt>
      <trkpt lat="40.56461667" lon="-3.71495167">
        <ele>762.0</ele>
        <time>2018-05-26T06:30:01.151Z</time>
      </trkpt>
      <trkpt lat="40.56467667" lon="-3.714945">
        <ele>762.0</ele>
        <time>2018-05-26T06:30:02.160Z</time>
      </trkpt>
      <trkpt lat="40.56467667" lon="-3.714945">
        <ele>762.0</ele>
        <time>2018-05-26T06:30:03.141Z</time>
      </trkpt>
      <trkpt lat="40.564795" lon="-3.71490667">
        <ele>762.0</ele>
        <time>2018-05-26T06:30:04.151Z</time>
      </trkpt>
      <trkpt lat="40.564795" lon="-3.71490667">
        <ele>762.0</ele>
        <time>2018-05-26T06:30:05.145Z</time>
      </trkpt>
      <trkpt lat="40.56489333" lon="-3.71482833">
        <ele>763.0</ele>
        <time>2018-05-26T06:30:06.156Z</time>
      </trkpt>
      <trkpt lat="40.56489333" lon="-3.71482833">
        <ele>763.0</ele>
        <time>2018-05-26T06:30:07.164Z</time>
      </trkpt>
      <trkpt lat="40.56498667" lon="-3.714765">
        <ele>763.0</ele>
        <time>2018-05-26T06:30:08.147Z</time>
      </trkpt>
      <trkpt lat="40.56498667" lon="-3.714765">
        <ele>763.0</ele>
        <time>2018-05-26T06:30:09.154Z</time>
      </trkpt>
      <trkpt lat="40.56509" lon="-3.714715">
        <ele>764.0</ele>
        <time>2018-05-26T06:30:10.164Z</time>
      </trkpt>
      <trkpt lat="40.56509" lon="-3.714715">
        <ele>764.0</ele>
        <time>2018-05-26T06:30:11.143Z</time>
      </trkpt>
      <trkpt lat="40.56519667" lon="-3.71468">
        <ele>765.0</ele>
        <time>2018-05-26T06:30:12.160Z</time>
      </trkpt>
      <trkpt lat="40.565245" lon="-3.71467667">
        <ele>765.0</ele>
        <time>2018-05-26T06:30:13.147Z</time>
      </trkpt>
      <trkpt lat="40.565245" lon="-3.71467667">
        <ele>765.0</ele>
        <time>2018-05-26T06:30:14.155Z</time>
      </trkpt>
      <trkpt lat="40.56532833" lon="-3.714665">
        <ele>766.0</ele>
        <time>2018-05-26T06:30:15.148Z</time>
      </trkpt>
      <trkpt lat="40.565365" lon="-3.71466">
        <ele>766.0</ele>
        <time>2018-05-26T06:30:16.159Z</time>
      </trkpt>
      <trkpt lat="40.565365" lon="-3.71466">
        <ele>766.0</ele>
        <time>2018-05-26T06:30:17.142Z</time>
      </trkpt>
      <trkpt lat="40.56544" lon="-3.71464333">
        <ele>766.0</ele>
        <time>2018-05-26T06:30:18.152Z</time>
      </trkpt>
      <trkpt lat="40.56548" lon="-3.71463167">
        <ele>766.0</ele>
        <time>2018-05-26T06:30:19.166Z</time>
      </trkpt>
      <trkpt lat="40.56552167" lon="-3.71461833">
        <ele>767.0</ele>
        <time>2018-05-26T06:30:20.148Z</time>
      </trkpt>
      <trkpt lat="40.56552167" lon="-3.71461833">
        <ele>767.0</ele>
        <time>2018-05-26T06:30:21.160Z</time>
      </trkpt>
      <trkpt lat="40.565605" lon="-3.71458333">
        <ele>767.0</ele>
        <time>2018-05-26T06:30:22.149Z</time>
      </trkpt>
      <trkpt lat="40.565605" lon="-3.71458333">
        <ele>767.0</ele>
        <time>2018-05-26T06:30:23.165Z</time>
      </trkpt>
      <trkpt lat="40.565685" lon="-3.71453167">
        <ele>767.0</ele>
        <time>2018-05-26T06:30:24.147Z</time>
      </trkpt>
      <trkpt lat="40.56572667" lon="-3.71450167">
        <ele>767.0</ele>
        <time>2018-05-26T06:30:25.160Z</time>
      </trkpt>
      <trkpt lat="40.56572667" lon="-3.71450167">
        <ele>767.0</ele>
        <time>2018-05-26T06:30:26.142Z</time>
      </trkpt>
      <trkpt lat="40.56580667" lon="-3.71443833">
        <ele>767.0</ele>
        <time>2018-05-26T06:30:27.151Z</time>
      </trkpt>
      <trkpt lat="40.56584833" lon="-3.71440333">
        <ele>767.0</ele>
        <time>2018-05-26T06:30:28.149Z</time>
      </trkpt>
      <trkpt lat="40.56584833" lon="-3.71440333">
        <ele>767.0</ele>
        <time>2018-05-26T06:30:29.165Z</time>
      </trkpt>
      <trkpt lat="40.56593" lon="-3.71432667">
        <ele>767.0</ele>
        <time>2018-05-26T06:30:30.147Z</time>
      </trkpt>
      <trkpt lat="40.56593" lon="-3.71432667">
        <ele>767.0</ele>
        <time>2018-05-26T06:30:31.155Z</time>
      </trkpt>
      <trkpt lat="40.56601167" lon="-3.71424">
        <ele>768.0</ele>
        <time>2018-05-26T06:30:32.149Z</time>
      </trkpt>
      <trkpt lat="40.56601167" lon="-3.71424">
        <ele>768.0</ele>
        <time>2018-05-26T06:30:33.165Z</time>
      </trkpt>
      <trkpt lat="40.56610333" lon="-3.71416167">
        <ele>768.0</ele>
        <time>2018-05-26T06:30:34.147Z</time>
      </trkpt>
      <trkpt lat="40.56610333" lon="-3.71416167">
        <ele>768.0</ele>
        <time>2018-05-26T06:30:35.165Z</time>
      </trkpt>
      <trkpt lat="40.5662" lon="-3.71409667">
        <ele>768.0</ele>
        <time>2018-05-26T06:30:36.148Z</time>
      </trkpt>
      <trkpt lat="40.5662" lon="-3.71409667">
        <ele>768.0</ele>
        <time>2018-05-26T06:30:37.155Z</time>
      </trkpt>
      <trkpt lat="40.56630833" lon="-3.71403">
        <ele>766.0</ele>
        <time>2018-05-26T06:30:38.147Z</time>
      </trkpt>
      <trkpt lat="40.56630833" lon="-3.71403">
        <ele>766.0</ele>
        <time>2018-05-26T06:30:39.154Z</time>
      </trkpt>
      <trkpt lat="40.56641167" lon="-3.71399">
        <ele>766.0</ele>
        <time>2018-05-26T06:30:40.164Z</time>
      </trkpt>
      <trkpt lat="40.56641167" lon="-3.71399">
        <ele>766.0</ele>
        <time>2018-05-26T06:30:41.143Z</time>
      </trkpt>
      <trkpt lat="40.56650833" lon="-3.71403167">
        <ele>766.0</ele>
        <time>2018-05-26T06:30:42.152Z</time>
      </trkpt>
      <trkpt lat="40.56650833" lon="-3.71403167">
        <ele>766.0</ele>
        <time>2018-05-26T06:30:43.169Z</time>
      </trkpt>
      <trkpt lat="40.56661667" lon="-3.71412167">
        <ele>766.0</ele>
        <time>2018-05-26T06:30:44.147Z</time>
      </trkpt>
      <trkpt lat="40.566685" lon="-3.71417333">
        <ele>765.0</ele>
        <time>2018-05-26T06:30:45.159Z</time>
      </trkpt>
      <trkpt lat="40.56676333" lon="-3.71421167">
        <ele>764.0</ele>
        <time>2018-05-26T06:30:46.149Z</time>
      </trkpt>
      <trkpt lat="40.56676333" lon="-3.71421167">
        <ele>764.0</ele>
        <time>2018-05-26T06:30:47.160Z</time>
      </trkpt>
      <trkpt lat="40.56693667" lon="-3.714235">
        <ele>762.0</ele>
        <time>2018-05-26T06:30:48.147Z</time>
      </trkpt>
      <trkpt lat="40.56693667" lon="-3.714235">
        <ele>762.0</ele>
        <time>2018-05-26T06:30:49.154Z</time>
      </trkpt>
      <trkpt lat="40.56715" lon="-3.71420667">
        <ele>758.0</ele>
        <time>2018-05-26T06:30:50.168Z</time>
      </trkpt>
      <trkpt lat="40.56715" lon="-3.71420667">
        <ele>758.0</ele>
        <time>2018-05-26T06:30:51.142Z</time>
      </trkpt>
      <trkpt lat="40.567395" lon="-3.71415333">
        <ele>754.0</ele>
        <time>2018-05-26T06:30:52.163Z</time>
      </trkpt>
      <trkpt lat="40.567395" lon="-3.71415333">
        <ele>754.0</ele>
        <time>2018-05-26T06:30:53.145Z</time>
      </trkpt>
      <trkpt lat="40.56764333" lon="-3.71408667">
        <ele>751.0</ele>
        <time>2018-05-26T06:30:54.161Z</time>
      </trkpt>
      <trkpt lat="40.56764333" lon="-3.71408667">
        <ele>751.0</ele>
        <time>2018-05-26T06:30:55.143Z</time>
      </trkpt>
      <trkpt lat="40.56789833" lon="-3.713995">
        <ele>749.0</ele>
        <time>2018-05-26T06:30:56.157Z</time>
      </trkpt>
      <trkpt lat="40.56789833" lon="-3.713995">
        <ele>749.0</ele>
        <time>2018-05-26T06:30:57.143Z</time>
      </trkpt>
      <trkpt lat="40.56813" lon="-3.71388167">
        <ele>751.0</ele>
        <time>2018-05-26T06:30:58.154Z</time>
      </trkpt>
      <trkpt lat="40.56813" lon="-3.71388167">
        <ele>751.0</ele>
        <time>2018-05-26T06:30:59.143Z</time>
      </trkpt>
      <trkpt lat="40.56830333" lon="-3.71375833">
        <ele>754.0</ele>
        <time>2018-05-26T06:31:00.149Z</time>
      </trkpt>
      <trkpt lat="40.56830333" lon="-3.71375833">
        <ele>754.0</ele>
        <time>2018-05-26T06:31:01.175Z</time>
      </trkpt>
      <trkpt lat="40.56842167" lon="-3.71363833">
        <ele>756.0</ele>
        <time>2018-05-26T06:31:02.148Z</time>
      </trkpt>
      <trkpt lat="40.56842167" lon="-3.71363833">
        <ele>756.0</ele>
        <time>2018-05-26T06:31:03.155Z</time>
      </trkpt>
      <trkpt lat="40.56853667" lon="-3.71353833">
        <ele>756.0</ele>
        <time>2018-05-26T06:31:04.149Z</time>
      </trkpt>
      <trkpt lat="40.56853667" lon="-3.71353833">
        <ele>756.0</ele>
        <time>2018-05-26T06:31:05.144Z</time>
      </trkpt>
      <trkpt lat="40.56867667" lon="-3.71345833">
        <ele>754.0</ele>
        <time>2018-05-26T06:31:06.156Z</time>
      </trkpt>
      <trkpt lat="40.56867667" lon="-3.71345833">
        <ele>754.0</ele>
        <time>2018-05-26T06:31:07.164Z</time>
      </trkpt>
      <trkpt lat="40.56884333" lon="-3.71342333">
        <ele>752.0</ele>
        <time>2018-05-26T06:31:08.148Z</time>
      </trkpt>
      <trkpt lat="40.56884333" lon="-3.71342333">
        <ele>752.0</ele>
        <time>2018-05-26T06:31:09.155Z</time>
      </trkpt>
      <trkpt lat="40.56904833" lon="-3.713355">
        <ele>750.0</ele>
        <time>2018-05-26T06:31:10.164Z</time>
      </trkpt>
      <trkpt lat="40.56904833" lon="-3.713355">
        <ele>750.0</ele>
        <time>2018-05-26T06:31:11.144Z</time>
      </trkpt>
      <trkpt lat="40.56923833" lon="-3.71322833">
        <ele>749.0</ele>
        <time>2018-05-26T06:31:12.156Z</time>
      </trkpt>
      <trkpt lat="40.56923833" lon="-3.71322833">
        <ele>749.0</ele>
        <time>2018-05-26T06:31:13.164Z</time>
      </trkpt>
      <trkpt lat="40.56940167" lon="-3.71308833">
        <ele>749.0</ele>
        <time>2018-05-26T06:31:14.148Z</time>
      </trkpt>
      <trkpt lat="40.56940167" lon="-3.71308833">
        <ele>749.0</ele>
        <time>2018-05-26T06:31:15.157Z</time>
      </trkpt>
      <trkpt lat="40.56952833" lon="-3.71297167">
        <ele>749.0</ele>
        <time>2018-05-26T06:31:16.164Z</time>
      </trkpt>
      <trkpt lat="40.56952833" lon="-3.71297167">
        <ele>749.0</ele>
        <time>2018-05-26T06:31:17.145Z</time>
      </trkpt>
      <trkpt lat="40.56964167" lon="-3.71289333">
        <ele>749.0</ele>
        <time>2018-05-26T06:31:18.156Z</time>
      </trkpt>
      <trkpt lat="40.56964167" lon="-3.71289333">
        <ele>749.0</ele>
        <time>2018-05-26T06:31:19.164Z</time>
      </trkpt>
      <trkpt lat="40.56978" lon="-3.71282">
        <ele>746.0</ele>
        <time>2018-05-26T06:31:20.148Z</time>
      </trkpt>
      <trkpt lat="40.56978" lon="-3.71282">
        <ele>746.0</ele>
        <time>2018-05-26T06:31:21.155Z</time>
      </trkpt>
      <trkpt lat="40.569935" lon="-3.71272">
        <ele>744.0</ele>
        <time>2018-05-26T06:31:22.163Z</time>
      </trkpt>
      <trkpt lat="40.569935" lon="-3.71272">
        <ele>744.0</ele>
        <time>2018-05-26T06:31:23.143Z</time>
      </trkpt>
      <trkpt lat="40.5701" lon="-3.71259667">
        <ele>742.0</ele>
        <time>2018-05-26T06:31:24.158Z</time>
      </trkpt>
      <trkpt lat="40.57019" lon="-3.71253167">
        <ele>741.0</ele>
        <time>2018-05-26T06:31:25.149Z</time>
      </trkpt>
      <trkpt lat="40.57019" lon="-3.71253167">
        <ele>741.0</ele>
        <time>2018-05-26T06:31:26.170Z</time>
      </trkpt>
      <trkpt lat="40.57038667" lon="-3.71241333">
        <ele>739.0</ele>
        <time>2018-05-26T06:31:27.145Z</time>
      </trkpt>
      <trkpt lat="40.57046833" lon="-3.71236">
        <ele>738.0</ele>
        <time>2018-05-26T06:31:28.156Z</time>
      </trkpt>
      <trkpt lat="40.57046833" lon="-3.71236">
        <ele>738.0</ele>
        <time>2018-05-26T06:31:29.169Z</time>
      </trkpt>
      <trkpt lat="40.570565" lon="-3.712285">
        <ele>739.0</ele>
        <time>2018-05-26T06:31:30.148Z</time>
      </trkpt>
      <trkpt lat="40.57058833" lon="-3.71225833">
        <ele>739.0</ele>
        <time>2018-05-26T06:31:31.162Z</time>
      </trkpt>
      <trkpt lat="40.57058833" lon="-3.71225833">
        <ele>739.0</ele>
        <time>2018-05-26T06:31:32.143Z</time>
      </trkpt>
      <trkpt lat="40.57063" lon="-3.71221333">
        <ele>740.0</ele>
        <time>2018-05-26T06:31:33.152Z</time>
      </trkpt>
      <trkpt lat="40.57064333" lon="-3.7122">
        <ele>741.0</ele>
        <time>2018-05-26T06:31:34.163Z</time>
      </trkpt>
      <trkpt lat="40.57064333" lon="-3.7122">
        <ele>741.0</ele>
        <time>2018-05-26T06:31:35.145Z</time>
      </trkpt>
      <trkpt lat="40.57066833" lon="-3.71217">
        <ele>742.0</ele>
        <time>2018-05-26T06:31:36.155Z</time>
      </trkpt>
      <trkpt lat="40.57068" lon="-3.712155">
        <ele>743.0</ele>
        <time>2018-05-26T06:31:37.162Z</time>
      </trkpt>
      <trkpt lat="40.57068" lon="-3.712155">
        <ele>743.0</ele>
        <time>2018-05-26T06:31:38.143Z</time>
      </trkpt>
      <trkpt lat="40.57070667" lon="-3.71213333">
        <ele>744.0</ele>
        <time>2018-05-26T06:31:39.153Z</time>
      </trkpt>
      <trkpt lat="40.57072333" lon="-3.712115">
        <ele>745.0</ele>
        <time>2018-05-26T06:31:40.150Z</time>
      </trkpt>
      <trkpt lat="40.57072333" lon="-3.712115">
        <ele>745.0</ele>
        <time>2018-05-26T06:31:41.165Z</time>
      </trkpt>
      <trkpt lat="40.570765" lon="-3.71208">
        <ele>745.0</ele>
        <time>2018-05-26T06:31:42.148Z</time>
      </trkpt>
      <trkpt lat="40.57079333" lon="-3.712065">
        <ele>745.0</ele>
        <time>2018-05-26T06:31:43.156Z</time>
      </trkpt>
      <trkpt lat="40.57079333" lon="-3.712065">
        <ele>745.0</ele>
        <time>2018-05-26T06:31:44.144Z</time>
      </trkpt>
      <trkpt lat="40.57086833" lon="-3.71202333">
        <ele>744.0</ele>
        <time>2018-05-26T06:31:45.168Z</time>
      </trkpt>
      <trkpt lat="40.57091333" lon="-3.712005">
        <ele>744.0</ele>
        <time>2018-05-26T06:31:46.150Z</time>
      </trkpt>
      <trkpt lat="40.57091333" lon="-3.712005">
        <ele>744.0</ele>
        <time>2018-05-26T06:31:47.161Z</time>
      </trkpt>
      <trkpt lat="40.57102" lon="-3.71195833">
        <ele>743.0</ele>
        <time>2018-05-26T06:31:48.149Z</time>
      </trkpt>
      <trkpt lat="40.57102" lon="-3.71195833">
        <ele>743.0</ele>
        <time>2018-05-26T06:31:49.155Z</time>
      </trkpt>
      <trkpt lat="40.57115" lon="-3.71190333">
        <ele>742.0</ele>
        <time>2018-05-26T06:31:50.149Z</time>
      </trkpt>
      <trkpt lat="40.57115" lon="-3.71190333">
        <ele>742.0</ele>
        <time>2018-05-26T06:31:51.156Z</time>
      </trkpt>
      <trkpt lat="40.57130167" lon="-3.711835">
        <ele>740.0</ele>
        <time>2018-05-26T06:31:52.164Z</time>
      </trkpt>
      <trkpt lat="40.57130167" lon="-3.711835">
        <ele>740.0</ele>
        <time>2018-05-26T06:31:53.143Z</time>
      </trkpt>
      <trkpt lat="40.571455" lon="-3.71174333">
        <ele>738.0</ele>
        <time>2018-05-26T06:31:54.153Z</time>
      </trkpt>
      <trkpt lat="40.57153167" lon="-3.71168333">
        <ele>737.0</ele>
        <time>2018-05-26T06:31:55.163Z</time>
      </trkpt>
      <trkpt lat="40.57153167" lon="-3.71168333">
        <ele>737.0</ele>
        <time>2018-05-26T06:31:56.143Z</time>
      </trkpt>
      <trkpt lat="40.57168667" lon="-3.71152667">
        <ele>734.0</ele>
        <time>2018-05-26T06:31:57.152Z</time>
      </trkpt>
      <trkpt lat="40.57177667" lon="-3.71145167">
        <ele>733.0</ele>
        <time>2018-05-26T06:31:58.162Z</time>
      </trkpt>
      <trkpt lat="40.57177667" lon="-3.71145167">
        <ele>733.0</ele>
        <time>2018-05-26T06:31:59.143Z</time>
      </trkpt>
      <trkpt lat="40.57195833" lon="-3.71137">
        <ele>732.0</ele>
        <time>2018-05-26T06:32:00.155Z</time>
      </trkpt>
      <trkpt lat="40.572045" lon="-3.71134">
        <ele>732.0</ele>
        <time>2018-05-26T06:32:01.148Z</time>
      </trkpt>
      <trkpt lat="40.572045" lon="-3.71134">
        <ele>732.0</ele>
        <time>2018-05-26T06:32:02.156Z</time>
      </trkpt>
      <trkpt lat="40.57216833" lon="-3.71128167">
        <ele>731.0</ele>
        <time>2018-05-26T06:32:03.147Z</time>
      </trkpt>
      <trkpt lat="40.57216833" lon="-3.71128167">
        <ele>731.0</ele>
        <time>2018-05-26T06:32:04.143Z</time>
      </trkpt>
      <trkpt lat="40.57225833" lon="-3.71124333">
        <ele>731.0</ele>
        <time>2018-05-26T06:32:05.165Z</time>
      </trkpt>
      <trkpt lat="40.57229" lon="-3.71122167">
        <ele>731.0</ele>
        <time>2018-05-26T06:32:06.149Z</time>
      </trkpt>
      <trkpt lat="40.57229" lon="-3.71122167">
        <ele>731.0</ele>
        <time>2018-05-26T06:32:07.156Z</time>
      </trkpt>
      <trkpt lat="40.572335" lon="-3.71119">
        <ele>733.0</ele>
        <time>2018-05-26T06:32:08.149Z</time>
      </trkpt>
      <trkpt lat="40.572335" lon="-3.71119">
        <ele>733.0</ele>
        <time>2018-05-26T06:32:09.158Z</time>
      </trkpt>
      <trkpt lat="40.57237333" lon="-3.71116167">
        <ele>735.0</ele>
        <time>2018-05-26T06:32:10.149Z</time>
      </trkpt>
      <trkpt lat="40.57237333" lon="-3.71116167">
        <ele>735.0</ele>
        <time>2018-05-26T06:32:11.142Z</time>
      </trkpt>
      <trkpt lat="40.57241333" lon="-3.711135">
        <ele>737.0</ele>
        <time>2018-05-26T06:32:12.152Z</time>
      </trkpt>
      <trkpt lat="40.57241333" lon="-3.711135">
        <ele>737.0</ele>
        <time>2018-05-26T06:32:13.161Z</time>
      </trkpt>
      <trkpt lat="40.57246833" lon="-3.71110333">
        <ele>738.0</ele>
        <time>2018-05-26T06:32:14.140Z</time>
      </trkpt>
      <trkpt lat="40.5725" lon="-3.71108333">
        <ele>738.0</ele>
        <time>2018-05-26T06:32:15.157Z</time>
      </trkpt>
      <trkpt lat="40.572535" lon="-3.711065">
        <ele>738.0</ele>
        <time>2018-05-26T06:32:16.149Z</time>
      </trkpt>
      <trkpt lat="40.572535" lon="-3.711065">
        <ele>738.0</ele>
        <time>2018-05-26T06:32:17.165Z</time>
      </trkpt>
      <trkpt lat="40.57263" lon="-3.711025">
        <ele>737.0</ele>
        <time>2018-05-26T06:32:18.149Z</time>
      </trkpt>
      <trkpt lat="40.57263" lon="-3.711025">
        <ele>737.0</ele>
        <time>2018-05-26T06:32:19.156Z</time>
      </trkpt>
      <trkpt lat="40.572765" lon="-3.71095667">
        <ele>735.0</ele>
        <time>2018-05-26T06:32:20.149Z</time>
      </trkpt>
      <trkpt lat="40.572765" lon="-3.71095667">
        <ele>735.0</ele>
        <time>2018-05-26T06:32:21.156Z</time>
      </trkpt>
      <trkpt lat="40.57293833" lon="-3.71087333">
        <ele>733.0</ele>
        <time>2018-05-26T06:32:22.150Z</time>
      </trkpt>
      <trkpt lat="40.57293833" lon="-3.71087333">
        <ele>733.0</ele>
        <time>2018-05-26T06:32:23.165Z</time>
      </trkpt>
      <trkpt lat="40.57307333" lon="-3.71080333">
        <ele>736.0</ele>
        <time>2018-05-26T06:32:24.148Z</time>
      </trkpt>
      <trkpt lat="40.57313333" lon="-3.710775">
        <ele>737.0</ele>
        <time>2018-05-26T06:32:25.159Z</time>
      </trkpt>
      <trkpt lat="40.57317833" lon="-3.71075167">
        <ele>738.0</ele>
        <time>2018-05-26T06:32:26.149Z</time>
      </trkpt>
      <trkpt lat="40.57317833" lon="-3.71075167">
        <ele>738.0</ele>
        <time>2018-05-26T06:32:27.156Z</time>
      </trkpt>
      <trkpt lat="40.57323333" lon="-3.71071667">
        <ele>740.0</ele>
        <time>2018-05-26T06:32:28.165Z</time>
      </trkpt>
      <trkpt lat="40.57323333" lon="-3.71071667">
        <ele>740.0</ele>
        <time>2018-05-26T06:32:29.143Z</time>
      </trkpt>
      <trkpt lat="40.573275" lon="-3.71069">
        <ele>742.0</ele>
        <time>2018-05-26T06:32:30.158Z</time>
      </trkpt>
      <trkpt lat="40.573275" lon="-3.71069">
        <ele>742.0</ele>
        <time>2018-05-26T06:32:31.143Z</time>
      </trkpt>
      <trkpt lat="40.57331" lon="-3.71066">
        <ele>743.0</ele>
        <time>2018-05-26T06:32:32.154Z</time>
      </trkpt>
      <trkpt lat="40.57331" lon="-3.71066">
        <ele>743.0</ele>
        <time>2018-05-26T06:32:33.163Z</time>
      </trkpt>
      <trkpt lat="40.57334" lon="-3.71063333">
        <ele>744.0</ele>
        <time>2018-05-26T06:32:34.155Z</time>
      </trkpt>
      <trkpt lat="40.57334" lon="-3.71063333">
        <ele>744.0</ele>
        <time>2018-05-26T06:32:35.165Z</time>
      </trkpt>
      <trkpt lat="40.57337" lon="-3.71060167">
        <ele>745.0</ele>
        <time>2018-05-26T06:32:36.149Z</time>
      </trkpt>
      <trkpt lat="40.57337" lon="-3.71060167">
        <ele>745.0</ele>
        <time>2018-05-26T06:32:37.158Z</time>
      </trkpt>
      <trkpt lat="40.57339833" lon="-3.71057667">
        <ele>746.0</ele>
        <time>2018-05-26T06:32:38.149Z</time>
      </trkpt>
      <trkpt lat="40.57339833" lon="-3.71057667">
        <ele>746.0</ele>
        <time>2018-05-26T06:32:39.156Z</time>
      </trkpt>
      <trkpt lat="40.57343" lon="-3.71055">
        <ele>747.0</ele>
        <time>2018-05-26T06:32:40.165Z</time>
      </trkpt>
      <trkpt lat="40.57343" lon="-3.71055">
        <ele>747.0</ele>
        <time>2018-05-26T06:32:41.144Z</time>
      </trkpt>
      <trkpt lat="40.57347" lon="-3.71052167">
        <ele>748.0</ele>
        <time>2018-05-26T06:32:42.156Z</time>
      </trkpt>
      <trkpt lat="40.57347" lon="-3.71052167">
        <ele>748.0</ele>
        <time>2018-05-26T06:32:43.163Z</time>
      </trkpt>
      <trkpt lat="40.573515" lon="-3.71049">
        <ele>748.0</ele>
        <time>2018-05-26T06:32:44.149Z</time>
      </trkpt>
      <trkpt lat="40.573515" lon="-3.71049">
        <ele>748.0</ele>
        <time>2018-05-26T06:32:45.156Z</time>
      </trkpt>
      <trkpt lat="40.573565" lon="-3.71045167">
        <ele>749.0</ele>
        <time>2018-05-26T06:32:46.150Z</time>
      </trkpt>
      <trkpt lat="40.573565" lon="-3.71045167">
        <ele>749.0</ele>
        <time>2018-05-26T06:32:47.165Z</time>
      </trkpt>
      <trkpt lat="40.57362" lon="-3.710405">
        <ele>749.0</ele>
        <time>2018-05-26T06:32:48.145Z</time>
      </trkpt>
      <trkpt lat="40.57364167" lon="-3.71037333">
        <ele>749.0</ele>
        <time>2018-05-26T06:32:49.155Z</time>
      </trkpt>
      <trkpt lat="40.57364167" lon="-3.71037333">
        <ele>749.0</ele>
        <time>2018-05-26T06:32:50.164Z</time>
      </trkpt>
      <trkpt lat="40.573655" lon="-3.71027833">
        <ele>750.0</ele>
        <time>2018-05-26T06:32:51.149Z</time>
      </trkpt>
      <trkpt lat="40.57365333" lon="-3.71022833">
        <ele>750.0</ele>
        <time>2018-05-26T06:32:52.161Z</time>
      </trkpt>
      <trkpt lat="40.57365333" lon="-3.71022833">
        <ele>750.0</ele>
        <time>2018-05-26T06:32:53.143Z</time>
      </trkpt>
      <trkpt lat="40.57364333" lon="-3.71013667">
        <ele>751.0</ele>
        <time>2018-05-26T06:32:54.156Z</time>
      </trkpt>
      <trkpt lat="40.57364333" lon="-3.71013667">
        <ele>751.0</ele>
        <time>2018-05-26T06:32:55.168Z</time>
      </trkpt>
      <trkpt lat="40.573645" lon="-3.71008667">
        <ele>751.0</ele>
        <time>2018-05-26T06:32:56.144Z</time>
      </trkpt>
      <trkpt lat="40.573665" lon="-3.71007167">
        <ele>751.0</ele>
        <time>2018-05-26T06:32:57.156Z</time>
      </trkpt>
      <trkpt lat="40.57369" lon="-3.71006">
        <ele>751.0</ele>
        <time>2018-05-26T06:32:58.164Z</time>
      </trkpt>
      <trkpt lat="40.57369" lon="-3.71006">
        <ele>751.0</ele>
        <time>2018-05-26T06:32:59.146Z</time>
      </trkpt>
      <trkpt lat="40.57375667" lon="-3.710025">
        <ele>752.0</ele>
        <time>2018-05-26T06:33:00.148Z</time>
      </trkpt>
      <trkpt lat="40.57375667" lon="-3.710025">
        <ele>752.0</ele>
        <time>2018-05-26T06:33:01.151Z</time>
      </trkpt>
      <trkpt lat="40.57383" lon="-3.709985">
        <ele>752.0</ele>
        <time>2018-05-26T06:33:02.163Z</time>
      </trkpt>
      <trkpt lat="40.57383" lon="-3.709985">
        <ele>752.0</ele>
        <time>2018-05-26T06:33:03.143Z</time>
      </trkpt>
      <trkpt lat="40.57391833" lon="-3.709935">
        <ele>752.0</ele>
        <time>2018-05-26T06:33:04.153Z</time>
      </trkpt>
      <trkpt lat="40.57391833" lon="-3.709935">
        <ele>752.0</ele>
        <time>2018-05-26T06:33:05.144Z</time>
      </trkpt>
      <trkpt lat="40.57400667" lon="-3.70989">
        <ele>752.0</ele>
        <time>2018-05-26T06:33:06.153Z</time>
      </trkpt>
      <trkpt lat="40.57400667" lon="-3.70989">
        <ele>752.0</ele>
        <time>2018-05-26T06:33:07.144Z</time>
      </trkpt>
      <trkpt lat="40.57410167" lon="-3.70984667">
        <ele>752.0</ele>
        <time>2018-05-26T06:33:08.168Z</time>
      </trkpt>
      <trkpt lat="40.57410167" lon="-3.70984667">
        <ele>752.0</ele>
        <time>2018-05-26T06:33:09.146Z</time>
      </trkpt>
      <trkpt lat="40.574195" lon="-3.709825">
        <ele>752.0</ele>
        <time>2018-05-26T06:33:10.163Z</time>
      </trkpt>
      <trkpt lat="40.57423667" lon="-3.70980333">
        <ele>753.0</ele>
        <time>2018-05-26T06:33:11.149Z</time>
      </trkpt>
      <trkpt lat="40.57423667" lon="-3.70980333">
        <ele>753.0</ele>
        <time>2018-05-26T06:33:12.159Z</time>
      </trkpt>
      <trkpt lat="40.57433167" lon="-3.70976333">
        <ele>753.0</ele>
        <time>2018-05-26T06:33:13.148Z</time>
      </trkpt>
      <trkpt lat="40.57433167" lon="-3.70976333">
        <ele>753.0</ele>
        <time>2018-05-26T06:33:14.157Z</time>
      </trkpt>
      <trkpt lat="40.57442667" lon="-3.70971667">
        <ele>753.0</ele>
        <time>2018-05-26T06:33:15.148Z</time>
      </trkpt>
      <trkpt lat="40.57442667" lon="-3.70971667">
        <ele>753.0</ele>
        <time>2018-05-26T06:33:16.149Z</time>
      </trkpt>
      <trkpt lat="40.574525" lon="-3.70966833">
        <ele>754.0</ele>
        <time>2018-05-26T06:33:17.157Z</time>
      </trkpt>
      <trkpt lat="40.574525" lon="-3.70966833">
        <ele>754.0</ele>
        <time>2018-05-26T06:33:18.164Z</time>
      </trkpt>
      <trkpt lat="40.57462333" lon="-3.70963">
        <ele>754.0</ele>
        <time>2018-05-26T06:33:19.147Z</time>
      </trkpt>
      <trkpt lat="40.57462333" lon="-3.70963">
        <ele>754.0</ele>
        <time>2018-05-26T06:33:20.168Z</time>
      </trkpt>
      <trkpt lat="40.57472" lon="-3.70959167">
        <ele>754.0</ele>
        <time>2018-05-26T06:33:21.150Z</time>
      </trkpt>
      <trkpt lat="40.57472" lon="-3.70959167">
        <ele>754.0</ele>
        <time>2018-05-26T06:33:22.165Z</time>
      </trkpt>
      <trkpt lat="40.57481333" lon="-3.709545">
        <ele>755.0</ele>
        <time>2018-05-26T06:33:23.147Z</time>
      </trkpt>
      <trkpt lat="40.57486833" lon="-3.70951833">
        <ele>754.0</ele>
        <time>2018-05-26T06:33:24.156Z</time>
      </trkpt>
      <trkpt lat="40.57486833" lon="-3.70951833">
        <ele>754.0</ele>
        <time>2018-05-26T06:33:25.144Z</time>
      </trkpt>
      <trkpt lat="40.574975" lon="-3.70947333">
        <ele>754.0</ele>
        <time>2018-05-26T06:33:26.156Z</time>
      </trkpt>
      <trkpt lat="40.574975" lon="-3.70947333">
        <ele>754.0</ele>
        <time>2018-05-26T06:33:27.163Z</time>
      </trkpt>
      <trkpt lat="40.57508" lon="-3.70943">
        <ele>754.0</ele>
        <time>2018-05-26T06:33:28.150Z</time>
      </trkpt>
      <trkpt lat="40.57508" lon="-3.70943">
        <ele>754.0</ele>
        <time>2018-05-26T06:33:29.157Z</time>
      </trkpt>
      <trkpt lat="40.57518833" lon="-3.709385">
        <ele>754.0</ele>
        <time>2018-05-26T06:33:30.149Z</time>
      </trkpt>
      <trkpt lat="40.57518833" lon="-3.709385">
        <ele>754.0</ele>
        <time>2018-05-26T06:33:31.161Z</time>
      </trkpt>
      <trkpt lat="40.5753" lon="-3.70934167">
        <ele>754.0</ele>
        <time>2018-05-26T06:33:32.149Z</time>
      </trkpt>
      <trkpt lat="40.5753" lon="-3.70934167">
        <ele>754.0</ele>
        <time>2018-05-26T06:33:33.156Z</time>
      </trkpt>
      <trkpt lat="40.5754" lon="-3.709295">
        <ele>754.0</ele>
        <time>2018-05-26T06:33:34.165Z</time>
      </trkpt>
      <trkpt lat="40.5754" lon="-3.709295">
        <ele>754.0</ele>
        <time>2018-05-26T06:33:35.149Z</time>
      </trkpt>
      <trkpt lat="40.5755" lon="-3.70926167">
        <ele>754.0</ele>
        <time>2018-05-26T06:33:36.159Z</time>
      </trkpt>
      <trkpt lat="40.5755" lon="-3.70926167">
        <ele>754.0</ele>
        <time>2018-05-26T06:33:37.143Z</time>
      </trkpt>
      <trkpt lat="40.57559333" lon="-3.70922">
        <ele>755.0</ele>
        <time>2018-05-26T06:33:38.149Z</time>
      </trkpt>
      <trkpt lat="40.57559333" lon="-3.70922">
        <ele>755.0</ele>
        <time>2018-05-26T06:33:39.165Z</time>
      </trkpt>
      <trkpt lat="40.57569333" lon="-3.70918667">
        <ele>755.0</ele>
        <time>2018-05-26T06:33:40.149Z</time>
      </trkpt>
      <trkpt lat="40.57569333" lon="-3.70918667">
        <ele>755.0</ele>
        <time>2018-05-26T06:33:41.156Z</time>
      </trkpt>
      <trkpt lat="40.5758" lon="-3.70920333">
        <ele>755.0</ele>
        <time>2018-05-26T06:33:42.164Z</time>
      </trkpt>
      <trkpt lat="40.575855" lon="-3.70921">
        <ele>755.0</ele>
        <time>2018-05-26T06:33:43.149Z</time>
      </trkpt>
      <trkpt lat="40.575855" lon="-3.70921">
        <ele>755.0</ele>
        <time>2018-05-26T06:33:44.156Z</time>
      </trkpt>
      <trkpt lat="40.57597167" lon="-3.70919667">
        <ele>755.0</ele>
        <time>2018-05-26T06:33:45.153Z</time>
      </trkpt>
      <trkpt lat="40.57602833" lon="-3.70918">
        <ele>755.0</ele>
        <time>2018-05-26T06:33:46.160Z</time>
      </trkpt>
      <trkpt lat="40.576085" lon="-3.70915167">
        <ele>754.0</ele>
        <time>2018-05-26T06:33:47.148Z</time>
      </trkpt>
      <trkpt lat="40.57614" lon="-3.70912">
        <ele>754.0</ele>
        <time>2018-05-26T06:33:48.159Z</time>
      </trkpt>
      <trkpt lat="40.57614" lon="-3.70912">
        <ele>754.0</ele>
        <time>2018-05-26T06:33:49.143Z</time>
      </trkpt>
      <trkpt lat="40.57625667" lon="-3.70908">
        <ele>754.0</ele>
        <time>2018-05-26T06:33:50.155Z</time>
      </trkpt>
      <trkpt lat="40.576315" lon="-3.70906667">
        <ele>753.0</ele>
        <time>2018-05-26T06:33:51.164Z</time>
      </trkpt>
      <trkpt lat="40.57636833" lon="-3.70904333">
        <ele>753.0</ele>
        <time>2018-05-26T06:33:52.150Z</time>
      </trkpt>
      <trkpt lat="40.57636833" lon="-3.70904333">
        <ele>753.0</ele>
        <time>2018-05-26T06:33:53.145Z</time>
      </trkpt>
      <trkpt lat="40.57646667" lon="-3.70897833">
        <ele>754.0</ele>
        <time>2018-05-26T06:33:54.162Z</time>
      </trkpt>
      <trkpt lat="40.57646667" lon="-3.70897833">
        <ele>754.0</ele>
        <time>2018-05-26T06:33:55.142Z</time>
      </trkpt>
      <trkpt lat="40.57657333" lon="-3.70895">
        <ele>754.0</ele>
        <time>2018-05-26T06:33:56.152Z</time>
      </trkpt>
      <trkpt lat="40.57657333" lon="-3.70895">
        <ele>754.0</ele>
        <time>2018-05-26T06:33:57.160Z</time>
      </trkpt>
      <trkpt lat="40.57667833" lon="-3.70890333">
        <ele>754.0</ele>
        <time>2018-05-26T06:33:58.150Z</time>
      </trkpt>
      <trkpt lat="40.57667833" lon="-3.70890333">
        <ele>754.0</ele>
        <time>2018-05-26T06:33:59.156Z</time>
      </trkpt>
      <trkpt lat="40.57679833" lon="-3.70887">
        <ele>753.0</ele>
        <time>2018-05-26T06:34:00.149Z</time>
      </trkpt>
      <trkpt lat="40.57679833" lon="-3.70887">
        <ele>753.0</ele>
        <time>2018-05-26T06:34:01.150Z</time>
      </trkpt>
      <trkpt lat="40.576925" lon="-3.708865">
        <ele>753.0</ele>
        <time>2018-05-26T06:34:02.161Z</time>
      </trkpt>
      <trkpt lat="40.576925" lon="-3.708865">
        <ele>753.0</ele>
        <time>2018-05-26T06:34:03.143Z</time>
      </trkpt>
      <trkpt lat="40.57704667" lon="-3.70885333">
        <ele>754.0</ele>
        <time>2018-05-26T06:34:04.152Z</time>
      </trkpt>
      <trkpt lat="40.57704667" lon="-3.70885333">
        <ele>754.0</ele>
        <time>2018-05-26T06:34:05.167Z</time>
      </trkpt>
      <trkpt lat="40.57716167" lon="-3.70880167">
        <ele>754.0</ele>
        <time>2018-05-26T06:34:06.149Z</time>
      </trkpt>
      <trkpt lat="40.57716167" lon="-3.70880167">
        <ele>754.0</ele>
        <time>2018-05-26T06:34:07.165Z</time>
      </trkpt>
      <trkpt lat="40.57728667" lon="-3.708745">
        <ele>754.0</ele>
        <time>2018-05-26T06:34:08.149Z</time>
      </trkpt>
      <trkpt lat="40.57728667" lon="-3.708745">
        <ele>754.0</ele>
        <time>2018-05-26T06:34:09.156Z</time>
      </trkpt>
      <trkpt lat="40.57742" lon="-3.708745">
        <ele>753.0</ele>
        <time>2018-05-26T06:34:10.150Z</time>
      </trkpt>
      <trkpt lat="40.57742" lon="-3.708745">
        <ele>753.0</ele>
        <time>2018-05-26T06:34:11.159Z</time>
      </trkpt>
      <trkpt lat="40.57755833" lon="-3.70875">
        <ele>753.0</ele>
        <time>2018-05-26T06:34:12.149Z</time>
      </trkpt>
      <trkpt lat="40.57763167" lon="-3.70874167">
        <ele>753.0</ele>
        <time>2018-05-26T06:34:13.166Z</time>
      </trkpt>
      <trkpt lat="40.57763167" lon="-3.70874167">
        <ele>753.0</ele>
        <time>2018-05-26T06:34:14.142Z</time>
      </trkpt>
      <trkpt lat="40.57781" lon="-3.708705">
        <ele>752.0</ele>
        <time>2018-05-26T06:34:15.165Z</time>
      </trkpt>
      <trkpt lat="40.57781" lon="-3.708705">
        <ele>752.0</ele>
        <time>2018-05-26T06:34:16.143Z</time>
      </trkpt>
      <trkpt lat="40.57799" lon="-3.708685">
        <ele>751.0</ele>
        <time>2018-05-26T06:34:17.155Z</time>
      </trkpt>
      <trkpt lat="40.57807667" lon="-3.70870833">
        <ele>751.0</ele>
        <time>2018-05-26T06:34:18.164Z</time>
      </trkpt>
      <trkpt lat="40.57807667" lon="-3.70870833">
        <ele>751.0</ele>
        <time>2018-05-26T06:34:19.142Z</time>
      </trkpt>
      <trkpt lat="40.57825" lon="-3.70877667">
        <ele>749.0</ele>
        <time>2018-05-26T06:34:20.150Z</time>
      </trkpt>
      <trkpt lat="40.57833333" lon="-3.70882">
        <ele>748.0</ele>
        <time>2018-05-26T06:34:21.149Z</time>
      </trkpt>
      <trkpt lat="40.57841833" lon="-3.70886167">
        <ele>748.0</ele>
        <time>2018-05-26T06:34:22.156Z</time>
      </trkpt>
      <trkpt lat="40.57841833" lon="-3.70886167">
        <ele>748.0</ele>
        <time>2018-05-26T06:34:23.163Z</time>
      </trkpt>
      <trkpt lat="40.57859833" lon="-3.708895">
        <ele>747.0</ele>
        <time>2018-05-26T06:34:24.149Z</time>
      </trkpt>
      <trkpt lat="40.57859833" lon="-3.708895">
        <ele>747.0</ele>
        <time>2018-05-26T06:34:25.173Z</time>
      </trkpt>
      <trkpt lat="40.57878333" lon="-3.70886167">
        <ele>745.0</ele>
        <time>2018-05-26T06:34:26.147Z</time>
      </trkpt>
      <trkpt lat="40.57878333" lon="-3.70886167">
        <ele>745.0</ele>
        <time>2018-05-26T06:34:27.142Z</time>
      </trkpt>
      <trkpt lat="40.578935" lon="-3.70886833">
        <ele>744.0</ele>
        <time>2018-05-26T06:34:28.152Z</time>
      </trkpt>
      <trkpt lat="40.578935" lon="-3.70886833">
        <ele>744.0</ele>
        <time>2018-05-26T06:34:29.162Z</time>
      </trkpt>
      <trkpt lat="40.57904167" lon="-3.70894">
        <ele>743.0</ele>
        <time>2018-05-26T06:34:30.147Z</time>
      </trkpt>
      <trkpt lat="40.57904167" lon="-3.70894">
        <ele>743.0</ele>
        <time>2018-05-26T06:34:31.144Z</time>
      </trkpt>
      <trkpt lat="40.57913667" lon="-3.70905167">
        <ele>742.0</ele>
        <time>2018-05-26T06:34:32.156Z</time>
      </trkpt>
      <trkpt lat="40.57913667" lon="-3.70905167">
        <ele>742.0</ele>
        <time>2018-05-26T06:34:33.163Z</time>
      </trkpt>
      <trkpt lat="40.579265" lon="-3.70914333">
        <ele>740.0</ele>
        <time>2018-05-26T06:34:34.149Z</time>
      </trkpt>
      <trkpt lat="40.579265" lon="-3.70914333">
        <ele>740.0</ele>
        <time>2018-05-26T06:34:35.161Z</time>
      </trkpt>
      <trkpt lat="40.57941667" lon="-3.709165">
        <ele>739.0</ele>
        <time>2018-05-26T06:34:36.149Z</time>
      </trkpt>
      <trkpt lat="40.57941667" lon="-3.709165">
        <ele>739.0</ele>
        <time>2018-05-26T06:34:37.165Z</time>
      </trkpt>
      <trkpt lat="40.57957167" lon="-3.70916167">
        <ele>740.0</ele>
        <time>2018-05-26T06:34:38.149Z</time>
      </trkpt>
      <trkpt lat="40.57957167" lon="-3.70916167">
        <ele>740.0</ele>
        <time>2018-05-26T06:34:39.156Z</time>
      </trkpt>
      <trkpt lat="40.57973167" lon="-3.70916833">
        <ele>740.0</ele>
        <time>2018-05-26T06:34:40.169Z</time>
      </trkpt>
      <trkpt lat="40.57973167" lon="-3.70916833">
        <ele>740.0</ele>
        <time>2018-05-26T06:34:41.143Z</time>
      </trkpt>
      <trkpt lat="40.57988" lon="-3.70918833">
        <ele>740.0</ele>
        <time>2018-05-26T06:34:42.153Z</time>
      </trkpt>
      <trkpt lat="40.57988" lon="-3.70918833">
        <ele>740.0</ele>
        <time>2018-05-26T06:34:43.165Z</time>
      </trkpt>
      <trkpt lat="40.58002" lon="-3.70921833">
        <ele>741.0</ele>
        <time>2018-05-26T06:34:44.147Z</time>
      </trkpt>
      <trkpt lat="40.58002" lon="-3.70921833">
        <ele>741.0</ele>
        <time>2018-05-26T06:34:45.154Z</time>
      </trkpt>
      <trkpt lat="40.58016" lon="-3.70924667">
        <ele>741.0</ele>
        <time>2018-05-26T06:34:46.149Z</time>
      </trkpt>
      <trkpt lat="40.58016" lon="-3.70924667">
        <ele>741.0</ele>
        <time>2018-05-26T06:34:47.156Z</time>
      </trkpt>
      <trkpt lat="40.580295" lon="-3.70926833">
        <ele>742.0</ele>
        <time>2018-05-26T06:34:48.164Z</time>
      </trkpt>
      <trkpt lat="40.58035833" lon="-3.70927333">
        <ele>742.0</ele>
        <time>2018-05-26T06:34:49.171Z</time>
      </trkpt>
      <trkpt lat="40.58035833" lon="-3.70927333">
        <ele>742.0</ele>
        <time>2018-05-26T06:34:50.143Z</time>
      </trkpt>
      <trkpt lat="40.58048667" lon="-3.709275">
        <ele>741.0</ele>
        <time>2018-05-26T06:34:51.156Z</time>
      </trkpt>
      <trkpt lat="40.58055333" lon="-3.70927833">
        <ele>741.0</ele>
        <time>2018-05-26T06:34:52.169Z</time>
      </trkpt>
      <trkpt lat="40.58062167" lon="-3.709285">
        <ele>741.0</ele>
        <time>2018-05-26T06:34:53.149Z</time>
      </trkpt>
      <trkpt lat="40.58069" lon="-3.709295">
        <ele>740.0</ele>
        <time>2018-05-26T06:34:54.160Z</time>
      </trkpt>
      <trkpt lat="40.58069" lon="-3.709295">
        <ele>740.0</ele>
        <time>2018-05-26T06:34:55.144Z</time>
      </trkpt>
      <trkpt lat="40.58082" lon="-3.70933333">
        <ele>740.0</ele>
        <time>2018-05-26T06:34:56.156Z</time>
      </trkpt>
      <trkpt lat="40.58082" lon="-3.70933333">
        <ele>740.0</ele>
        <time>2018-05-26T06:34:57.163Z</time>
      </trkpt>
      <trkpt lat="40.58092667" lon="-3.70937167">
        <ele>740.0</ele>
        <time>2018-05-26T06:34:58.150Z</time>
      </trkpt>
      <trkpt lat="40.58097" lon="-3.70938333">
        <ele>740.0</ele>
        <time>2018-05-26T06:34:59.160Z</time>
      </trkpt>
      <trkpt lat="40.58097" lon="-3.70938333">
        <ele>740.0</ele>
        <time>2018-05-26T06:35:00.143Z</time>
      </trkpt>
      <trkpt lat="40.58104333" lon="-3.709395">
        <ele>741.0</ele>
        <time>2018-05-26T06:35:01.149Z</time>
      </trkpt>
      <trkpt lat="40.58104333" lon="-3.709395">
        <ele>741.0</ele>
        <time>2018-05-26T06:35:02.160Z</time>
      </trkpt>
      <trkpt lat="40.58110167" lon="-3.70940333">
        <ele>742.0</ele>
        <time>2018-05-26T06:35:03.150Z</time>
      </trkpt>
      <trkpt lat="40.58110167" lon="-3.70940333">
        <ele>742.0</ele>
        <time>2018-05-26T06:35:04.160Z</time>
      </trkpt>
      <trkpt lat="40.58115167" lon="-3.70941">
        <ele>743.0</ele>
        <time>2018-05-26T06:35:05.149Z</time>
      </trkpt>
      <trkpt lat="40.58116833" lon="-3.70941167">
        <ele>744.0</ele>
        <time>2018-05-26T06:35:06.160Z</time>
      </trkpt>
      <trkpt lat="40.58116833" lon="-3.70941167">
        <ele>744.0</ele>
        <time>2018-05-26T06:35:07.143Z</time>
      </trkpt>
      <trkpt lat="40.581205" lon="-3.70941167">
        <ele>744.0</ele>
        <time>2018-05-26T06:35:08.153Z</time>
      </trkpt>
      <trkpt lat="40.581205" lon="-3.70941167">
        <ele>744.0</ele>
        <time>2018-05-26T06:35:09.144Z</time>
      </trkpt>
      <trkpt lat="40.58124" lon="-3.709405">
        <ele>745.0</ele>
        <time>2018-05-26T06:35:10.169Z</time>
      </trkpt>
      <trkpt lat="40.58124" lon="-3.709405">
        <ele>745.0</ele>
        <time>2018-05-26T06:35:11.143Z</time>
      </trkpt>
      <trkpt lat="40.58127667" lon="-3.7094">
        <ele>746.0</ele>
        <time>2018-05-26T06:35:12.152Z</time>
      </trkpt>
      <trkpt lat="40.581295" lon="-3.70939667">
        <ele>746.0</ele>
        <time>2018-05-26T06:35:13.149Z</time>
      </trkpt>
      <trkpt lat="40.581295" lon="-3.70939667">
        <ele>746.0</ele>
        <time>2018-05-26T06:35:14.158Z</time>
      </trkpt>
      <trkpt lat="40.58133167" lon="-3.70939">
        <ele>747.0</ele>
        <time>2018-05-26T06:35:15.149Z</time>
      </trkpt>
      <trkpt lat="40.58135167" lon="-3.70938333">
        <ele>748.0</ele>
        <time>2018-05-26T06:35:16.162Z</time>
      </trkpt>
      <trkpt lat="40.58135167" lon="-3.70938333">
        <ele>748.0</ele>
        <time>2018-05-26T06:35:17.142Z</time>
      </trkpt>
      <trkpt lat="40.58138833" lon="-3.70937167">
        <ele>748.0</ele>
        <time>2018-05-26T06:35:18.151Z</time>
      </trkpt>
      <trkpt lat="40.58138833" lon="-3.70937167">
        <ele>748.0</ele>
        <time>2018-05-26T06:35:19.161Z</time>
      </trkpt>
      <trkpt lat="40.58142333" lon="-3.70936">
        <ele>749.0</ele>
        <time>2018-05-26T06:35:20.149Z</time>
      </trkpt>
      <trkpt lat="40.58142333" lon="-3.70936">
        <ele>749.0</ele>
        <time>2018-05-26T06:35:21.156Z</time>
      </trkpt>
      <trkpt lat="40.581455" lon="-3.70935333">
        <ele>750.0</ele>
        <time>2018-05-26T06:35:22.164Z</time>
      </trkpt>
      <trkpt lat="40.581455" lon="-3.70935333">
        <ele>750.0</ele>
        <time>2018-05-26T06:35:23.143Z</time>
      </trkpt>
      <trkpt lat="40.58148667" lon="-3.70934333">
        <ele>751.0</ele>
        <time>2018-05-26T06:35:24.161Z</time>
      </trkpt>
      <trkpt lat="40.58148667" lon="-3.70934333">
        <ele>751.0</ele>
        <time>2018-05-26T06:35:25.142Z</time>
      </trkpt>
      <trkpt lat="40.58151167" lon="-3.70933333">
        <ele>752.0</ele>
        <time>2018-05-26T06:35:26.154Z</time>
      </trkpt>
      <trkpt lat="40.58152333" lon="-3.70933">
        <ele>752.0</ele>
        <time>2018-05-26T06:35:27.163Z</time>
      </trkpt>
      <trkpt lat="40.58152333" lon="-3.70933">
        <ele>752.0</ele>
        <time>2018-05-26T06:35:28.145Z</time>
      </trkpt>
      <trkpt lat="40.58155667" lon="-3.70932833">
        <ele>753.0</ele>
        <time>2018-05-26T06:35:29.156Z</time>
      </trkpt>
      <trkpt lat="40.58155667" lon="-3.70932833">
        <ele>753.0</ele>
        <time>2018-05-26T06:35:30.164Z</time>
      </trkpt>
      <trkpt lat="40.58159" lon="-3.70932167">
        <ele>754.0</ele>
        <time>2018-05-26T06:35:31.145Z</time>
      </trkpt>
      <trkpt lat="40.58159" lon="-3.70932167">
        <ele>754.0</ele>
        <time>2018-05-26T06:35:32.154Z</time>
      </trkpt>
      <trkpt lat="40.58162167" lon="-3.70931">
        <ele>755.0</ele>
        <time>2018-05-26T06:35:33.168Z</time>
      </trkpt>
      <trkpt lat="40.58163833" lon="-3.709305">
        <ele>755.0</ele>
        <time>2018-05-26T06:35:34.150Z</time>
      </trkpt>
      <trkpt lat="40.58163833" lon="-3.709305">
        <ele>755.0</ele>
        <time>2018-05-26T06:35:35.160Z</time>
      </trkpt>
      <trkpt lat="40.58167" lon="-3.709295">
        <ele>756.0</ele>
        <time>2018-05-26T06:35:36.146Z</time>
      </trkpt>
      <trkpt lat="40.58168667" lon="-3.70928667">
        <ele>756.0</ele>
        <time>2018-05-26T06:35:37.157Z</time>
      </trkpt>
      <trkpt lat="40.58168667" lon="-3.70928667">
        <ele>756.0</ele>
        <time>2018-05-26T06:35:38.145Z</time>
      </trkpt>
      <trkpt lat="40.58171667" lon="-3.70928667">
        <ele>757.0</ele>
        <time>2018-05-26T06:35:39.154Z</time>
      </trkpt>
      <trkpt lat="40.58171667" lon="-3.70928667">
        <ele>757.0</ele>
        <time>2018-05-26T06:35:40.166Z</time>
      </trkpt>
      <trkpt lat="40.58175167" lon="-3.70928333">
        <ele>758.0</ele>
        <time>2018-05-26T06:35:41.149Z</time>
      </trkpt>
      <trkpt lat="40.58176667" lon="-3.70928167">
        <ele>758.0</ele>
        <time>2018-05-26T06:35:42.156Z</time>
      </trkpt>
      <trkpt lat="40.58176667" lon="-3.70928167">
        <ele>758.0</ele>
        <time>2018-05-26T06:35:43.164Z</time>
      </trkpt>
      <trkpt lat="40.581805" lon="-3.709275">
        <ele>758.0</ele>
        <time>2018-05-26T06:35:44.150Z</time>
      </trkpt>
      <trkpt lat="40.581805" lon="-3.709275">
        <ele>758.0</ele>
        <time>2018-05-26T06:35:45.146Z</time>
      </trkpt>
      <trkpt lat="40.58184167" lon="-3.70927167">
        <ele>759.0</ele>
        <time>2018-05-26T06:35:46.156Z</time>
      </trkpt>
      <trkpt lat="40.58186333" lon="-3.70927333">
        <ele>759.0</ele>
        <time>2018-05-26T06:35:47.145Z</time>
      </trkpt>
      <trkpt lat="40.581885" lon="-3.70927833">
        <ele>759.0</ele>
        <time>2018-05-26T06:35:48.156Z</time>
      </trkpt>
      <trkpt lat="40.581885" lon="-3.70927833">
        <ele>759.0</ele>
        <time>2018-05-26T06:35:49.164Z</time>
      </trkpt>
      <trkpt lat="40.58193167" lon="-3.709295">
        <ele>760.0</ele>
        <time>2018-05-26T06:35:50.149Z</time>
      </trkpt>
      <trkpt lat="40.58193167" lon="-3.709295">
        <ele>760.0</ele>
        <time>2018-05-26T06:35:51.156Z</time>
      </trkpt>
      <trkpt lat="40.58198667" lon="-3.709305">
        <ele>760.0</ele>
        <time>2018-05-26T06:35:52.164Z</time>
      </trkpt>
      <trkpt lat="40.58198667" lon="-3.709305">
        <ele>760.0</ele>
        <time>2018-05-26T06:35:53.163Z</time>
      </trkpt>
      <trkpt lat="40.58205" lon="-3.70931167">
        <ele>759.0</ele>
        <time>2018-05-26T06:35:54.149Z</time>
      </trkpt>
      <trkpt lat="40.58205" lon="-3.70931167">
        <ele>759.0</ele>
        <time>2018-05-26T06:35:55.165Z</time>
      </trkpt>
      <trkpt lat="40.58212" lon="-3.70932667">
        <ele>759.0</ele>
        <time>2018-05-26T06:35:56.149Z</time>
      </trkpt>
      <trkpt lat="40.58216" lon="-3.70933833">
        <ele>759.0</ele>
        <time>2018-05-26T06:35:57.157Z</time>
      </trkpt>
      <trkpt lat="40.58216" lon="-3.70933833">
        <ele>759.0</ele>
        <time>2018-05-26T06:35:58.164Z</time>
      </trkpt>
      <trkpt lat="40.58225" lon="-3.70936333">
        <ele>757.0</ele>
        <time>2018-05-26T06:35:59.149Z</time>
      </trkpt>
      <trkpt lat="40.5823" lon="-3.70937833">
        <ele>757.0</ele>
        <time>2018-05-26T06:36:00.149Z</time>
      </trkpt>
      <trkpt lat="40.5823" lon="-3.70937833">
        <ele>757.0</ele>
        <time>2018-05-26T06:36:01.150Z</time>
      </trkpt>
      <trkpt lat="40.58242" lon="-3.70942">
        <ele>755.0</ele>
        <time>2018-05-26T06:36:02.160Z</time>
      </trkpt>
      <trkpt lat="40.58242" lon="-3.70942">
        <ele>755.0</ele>
        <time>2018-05-26T06:36:03.143Z</time>
      </trkpt>
      <trkpt lat="40.58257833" lon="-3.70947167">
        <ele>752.0</ele>
        <time>2018-05-26T06:36:04.154Z</time>
      </trkpt>
      <trkpt lat="40.58257833" lon="-3.70947167">
        <ele>752.0</ele>
        <time>2018-05-26T06:36:05.167Z</time>
      </trkpt>
      <trkpt lat="40.58277167" lon="-3.70954833">
        <ele>750.0</ele>
        <time>2018-05-26T06:36:06.152Z</time>
      </trkpt>
      <trkpt lat="40.58277167" lon="-3.70954833">
        <ele>750.0</ele>
        <time>2018-05-26T06:36:07.165Z</time>
      </trkpt>
      <trkpt lat="40.58297833" lon="-3.70961167">
        <ele>748.0</ele>
        <time>2018-05-26T06:36:08.149Z</time>
      </trkpt>
      <trkpt lat="40.58307333" lon="-3.709625">
        <ele>747.0</ele>
        <time>2018-05-26T06:36:09.159Z</time>
      </trkpt>
      <trkpt lat="40.58315333" lon="-3.70961833">
        <ele>747.0</ele>
        <time>2018-05-26T06:36:10.150Z</time>
      </trkpt>
      <trkpt lat="40.58315333" lon="-3.70961833">
        <ele>747.0</ele>
        <time>2018-05-26T06:36:11.165Z</time>
      </trkpt>
      <trkpt lat="40.58323667" lon="-3.70954167">
        <ele>748.0</ele>
        <time>2018-05-26T06:36:12.149Z</time>
      </trkpt>
      <trkpt lat="40.58323667" lon="-3.70954167">
        <ele>748.0</ele>
        <time>2018-05-26T06:36:13.144Z</time>
      </trkpt>
      <trkpt lat="40.58324833" lon="-3.70946167">
        <ele>749.0</ele>
        <time>2018-05-26T06:36:14.153Z</time>
      </trkpt>
      <trkpt lat="40.58325" lon="-3.70942833">
        <ele>749.0</ele>
        <time>2018-05-26T06:36:15.163Z</time>
      </trkpt>
      <trkpt lat="40.58324833" lon="-3.70939833">
        <ele>750.0</ele>
        <time>2018-05-26T06:36:16.159Z</time>
      </trkpt>
      <trkpt lat="40.58324833" lon="-3.70939833">
        <ele>750.0</ele>
        <time>2018-05-26T06:36:17.143Z</time>
      </trkpt>
      <trkpt lat="40.58325" lon="-3.709345">
        <ele>750.0</ele>
        <time>2018-05-26T06:36:18.153Z</time>
      </trkpt>
      <trkpt lat="40.58325" lon="-3.709345">
        <ele>750.0</ele>
        <time>2018-05-26T06:36:19.165Z</time>
      </trkpt>
      <trkpt lat="40.58324833" lon="-3.709285">
        <ele>751.0</ele>
        <time>2018-05-26T06:36:20.149Z</time>
      </trkpt>
      <trkpt lat="40.58324833" lon="-3.70925">
        <ele>751.0</ele>
        <time>2018-05-26T06:36:21.155Z</time>
      </trkpt>
      <trkpt lat="40.58324833" lon="-3.70925">
        <ele>751.0</ele>
        <time>2018-05-26T06:36:22.162Z</time>
      </trkpt>
      <trkpt lat="40.58325833" lon="-3.70917833">
        <ele>751.0</ele>
        <time>2018-05-26T06:36:23.149Z</time>
      </trkpt>
      <trkpt lat="40.58325833" lon="-3.70917833">
        <ele>751.0</ele>
        <time>2018-05-26T06:36:24.155Z</time>
      </trkpt>
      <trkpt lat="40.58327833" lon="-3.70911833">
        <ele>751.0</ele>
        <time>2018-05-26T06:36:25.166Z</time>
      </trkpt>
      <trkpt lat="40.58327833" lon="-3.70911833">
        <ele>751.0</ele>
        <time>2018-05-26T06:36:26.144Z</time>
      </trkpt>
      <trkpt lat="40.58330333" lon="-3.70905833">
        <ele>751.0</ele>
        <time>2018-05-26T06:36:27.156Z</time>
      </trkpt>
      <trkpt lat="40.583315" lon="-3.70902667">
        <ele>752.0</ele>
        <time>2018-05-26T06:36:28.148Z</time>
      </trkpt>
      <trkpt lat="40.583315" lon="-3.70902667">
        <ele>752.0</ele>
        <time>2018-05-26T06:36:29.158Z</time>
      </trkpt>
      <trkpt lat="40.58334333" lon="-3.70897">
        <ele>752.0</ele>
        <time>2018-05-26T06:36:30.145Z</time>
      </trkpt>
      <trkpt lat="40.583355" lon="-3.708945">
        <ele>752.0</ele>
        <time>2018-05-26T06:36:31.162Z</time>
      </trkpt>
      <trkpt lat="40.583355" lon="-3.708945">
        <ele>752.0</ele>
        <time>2018-05-26T06:36:32.143Z</time>
      </trkpt>
      <trkpt lat="40.58336833" lon="-3.70889667">
        <ele>753.0</ele>
        <time>2018-05-26T06:36:33.156Z</time>
      </trkpt>
      <trkpt lat="40.58336833" lon="-3.70889667">
        <ele>753.0</ele>
        <time>2018-05-26T06:36:34.164Z</time>
      </trkpt>
      <trkpt lat="40.583385" lon="-3.70886167">
        <ele>754.0</ele>
        <time>2018-05-26T06:36:35.150Z</time>
      </trkpt>
      <trkpt lat="40.58339333" lon="-3.70884167">
        <ele>754.0</ele>
        <time>2018-05-26T06:36:36.164Z</time>
      </trkpt>
      <trkpt lat="40.58339333" lon="-3.70884167">
        <ele>754.0</ele>
        <time>2018-05-26T06:36:37.144Z</time>
      </trkpt>
      <trkpt lat="40.58340667" lon="-3.708795">
        <ele>755.0</ele>
        <time>2018-05-26T06:36:38.154Z</time>
      </trkpt>
      <trkpt lat="40.58341167" lon="-3.70877333">
        <ele>756.0</ele>
        <time>2018-05-26T06:36:39.168Z</time>
      </trkpt>
      <trkpt lat="40.58341167" lon="-3.70877333">
        <ele>756.0</ele>
        <time>2018-05-26T06:36:40.145Z</time>
      </trkpt>
      <trkpt lat="40.58342667" lon="-3.70873333">
        <ele>756.0</ele>
        <time>2018-05-26T06:36:41.154Z</time>
      </trkpt>
      <trkpt lat="40.58343167" lon="-3.70871167">
        <ele>757.0</ele>
        <time>2018-05-26T06:36:42.163Z</time>
      </trkpt>
      <trkpt lat="40.58343167" lon="-3.70871167">
        <ele>757.0</ele>
        <time>2018-05-26T06:36:43.144Z</time>
      </trkpt>
      <trkpt lat="40.583445" lon="-3.708665">
        <ele>758.0</ele>
        <time>2018-05-26T06:36:44.153Z</time>
      </trkpt>
      <trkpt lat="40.583445" lon="-3.708665">
        <ele>758.0</ele>
        <time>2018-05-26T06:36:45.154Z</time>
      </trkpt>
      <trkpt lat="40.58346333" lon="-3.70862">
        <ele>758.0</ele>
        <time>2018-05-26T06:36:46.164Z</time>
      </trkpt>
      <trkpt lat="40.58346333" lon="-3.70862">
        <ele>758.0</ele>
        <time>2018-05-26T06:36:47.144Z</time>
      </trkpt>
      <trkpt lat="40.58347667" lon="-3.70857833">
        <ele>759.0</ele>
        <time>2018-05-26T06:36:48.153Z</time>
      </trkpt>
      <trkpt lat="40.58348333" lon="-3.70855667">
        <ele>760.0</ele>
        <time>2018-05-26T06:36:49.161Z</time>
      </trkpt>
      <trkpt lat="40.58348333" lon="-3.70855667">
        <ele>760.0</ele>
        <time>2018-05-26T06:36:50.144Z</time>
      </trkpt>
      <trkpt lat="40.58349833" lon="-3.70850833">
        <ele>760.0</ele>
        <time>2018-05-26T06:36:51.156Z</time>
      </trkpt>
      <trkpt lat="40.58350667" lon="-3.70848">
        <ele>761.0</ele>
        <time>2018-05-26T06:36:52.162Z</time>
      </trkpt>
      <trkpt lat="40.58350667" lon="-3.70848">
        <ele>761.0</ele>
        <time>2018-05-26T06:36:53.144Z</time>
      </trkpt>
      <trkpt lat="40.58352667" lon="-3.708425">
        <ele>761.0</ele>
        <time>2018-05-26T06:36:54.154Z</time>
      </trkpt>
      <trkpt lat="40.58352667" lon="-3.708425">
        <ele>761.0</ele>
        <time>2018-05-26T06:36:55.163Z</time>
      </trkpt>
      <trkpt lat="40.58354667" lon="-3.70836167">
        <ele>760.0</ele>
        <time>2018-05-26T06:36:56.149Z</time>
      </trkpt>
      <trkpt lat="40.58354667" lon="-3.70836167">
        <ele>760.0</ele>
        <time>2018-05-26T06:36:57.160Z</time>
      </trkpt>
      <trkpt lat="40.58357333" lon="-3.70829">
        <ele>761.0</ele>
        <time>2018-05-26T06:36:58.150Z</time>
      </trkpt>
      <trkpt lat="40.58357333" lon="-3.70829">
        <ele>761.0</ele>
        <time>2018-05-26T06:36:59.163Z</time>
      </trkpt>
      <trkpt lat="40.58359833" lon="-3.70821">
        <ele>760.0</ele>
        <time>2018-05-26T06:37:00.152Z</time>
      </trkpt>
      <trkpt lat="40.58361167" lon="-3.708165">
        <ele>760.0</ele>
        <time>2018-05-26T06:37:01.157Z</time>
      </trkpt>
      <trkpt lat="40.583625" lon="-3.70812167">
        <ele>760.0</ele>
        <time>2018-05-26T06:37:02.149Z</time>
      </trkpt>
      <trkpt lat="40.583625" lon="-3.70812167">
        <ele>760.0</ele>
        <time>2018-05-26T06:37:03.163Z</time>
      </trkpt>
      <trkpt lat="40.58365167" lon="-3.70802833">
        <ele>760.0</ele>
        <time>2018-05-26T06:37:04.149Z</time>
      </trkpt>
      <trkpt lat="40.58365167" lon="-3.70802833">
        <ele>760.0</ele>
        <time>2018-05-26T06:37:05.149Z</time>
      </trkpt>
      <trkpt lat="40.58368167" lon="-3.70792833">
        <ele>760.0</ele>
        <time>2018-05-26T06:37:06.152Z</time>
      </trkpt>
      <trkpt lat="40.58368167" lon="-3.70792833">
        <ele>760.0</ele>
        <time>2018-05-26T06:37:07.156Z</time>
      </trkpt>
      <trkpt lat="40.58371833" lon="-3.70783">
        <ele>760.0</ele>
        <time>2018-05-26T06:37:08.146Z</time>
      </trkpt>
      <trkpt lat="40.58371833" lon="-3.70783">
        <ele>760.0</ele>
        <time>2018-05-26T06:37:09.139Z</time>
      </trkpt>
      <trkpt lat="40.58376333" lon="-3.707735">
        <ele>760.0</ele>
        <time>2018-05-26T06:37:10.158Z</time>
      </trkpt>
      <trkpt lat="40.58376333" lon="-3.707735">
        <ele>760.0</ele>
        <time>2018-05-26T06:37:11.153Z</time>
      </trkpt>
      <trkpt lat="40.583815" lon="-3.70763167">
        <ele>760.0</ele>
        <time>2018-05-26T06:37:12.160Z</time>
      </trkpt>
      <trkpt lat="40.58383833" lon="-3.70757667">
        <ele>760.0</ele>
        <time>2018-05-26T06:37:13.167Z</time>
      </trkpt>
      <trkpt lat="40.58383833" lon="-3.70757667">
        <ele>760.0</ele>
        <time>2018-05-26T06:37:14.155Z</time>
      </trkpt>
      <trkpt lat="40.58387167" lon="-3.70747167">
        <ele>760.0</ele>
        <time>2018-05-26T06:37:15.168Z</time>
      </trkpt>
      <trkpt lat="40.58388667" lon="-3.707405">
        <ele>760.0</ele>
        <time>2018-05-26T06:37:16.157Z</time>
      </trkpt>
      <trkpt lat="40.58388667" lon="-3.707405">
        <ele>760.0</ele>
        <time>2018-05-26T06:37:17.153Z</time>
      </trkpt>
      <trkpt lat="40.58394333" lon="-3.707295">
        <ele>759.0</ele>
        <time>2018-05-26T06:37:18.155Z</time>
      </trkpt>
      <trkpt lat="40.58394333" lon="-3.707295">
        <ele>759.0</ele>
        <time>2018-05-26T06:37:19.144Z</time>
      </trkpt>
      <trkpt lat="40.58403333" lon="-3.707225">
        <ele>758.0</ele>
        <time>2018-05-26T06:37:20.159Z</time>
      </trkpt>
      <trkpt lat="40.58403333" lon="-3.707225">
        <ele>758.0</ele>
        <time>2018-05-26T06:37:21.143Z</time>
      </trkpt>
      <trkpt lat="40.584125" lon="-3.70714">
        <ele>757.0</ele>
        <time>2018-05-26T06:37:22.155Z</time>
      </trkpt>
      <trkpt lat="40.584125" lon="-3.70714">
        <ele>757.0</ele>
        <time>2018-05-26T06:37:23.148Z</time>
      </trkpt>
      <trkpt lat="40.584225" lon="-3.70705">
        <ele>757.0</ele>
        <time>2018-05-26T06:37:24.143Z</time>
      </trkpt>
      <trkpt lat="40.584225" lon="-3.70705">
        <ele>757.0</ele>
        <time>2018-05-26T06:37:25.162Z</time>
      </trkpt>
      <trkpt lat="40.58432833" lon="-3.70694">
        <ele>756.0</ele>
        <time>2018-05-26T06:37:26.169Z</time>
      </trkpt>
      <trkpt lat="40.584375" lon="-3.706875">
        <ele>756.0</ele>
        <time>2018-05-26T06:37:27.136Z</time>
      </trkpt>
      <trkpt lat="40.58442667" lon="-3.70682167">
        <ele>756.0</ele>
        <time>2018-05-26T06:37:28.157Z</time>
      </trkpt>
      <trkpt lat="40.58442667" lon="-3.70682167">
        <ele>756.0</ele>
        <time>2018-05-26T06:37:29.158Z</time>
      </trkpt>
      <trkpt lat="40.58457" lon="-3.70679833">
        <ele>756.0</ele>
        <time>2018-05-26T06:37:30.155Z</time>
      </trkpt>
      <trkpt lat="40.58457" lon="-3.70679833">
        <ele>756.0</ele>
        <time>2018-05-26T06:37:31.144Z</time>
      </trkpt>
      <trkpt lat="40.58470333" lon="-3.70687167">
        <ele>756.0</ele>
        <time>2018-05-26T06:37:32.155Z</time>
      </trkpt>
      <trkpt lat="40.58470333" lon="-3.70687167">
        <ele>756.0</ele>
        <time>2018-05-26T06:37:33.145Z</time>
      </trkpt>
      <trkpt lat="40.584825" lon="-3.70696333">
        <ele>755.0</ele>
        <time>2018-05-26T06:37:34.159Z</time>
      </trkpt>
      <trkpt lat="40.584825" lon="-3.70696333">
        <ele>755.0</ele>
        <time>2018-05-26T06:37:35.144Z</time>
      </trkpt>
      <trkpt lat="40.584935" lon="-3.70703">
        <ele>755.0</ele>
        <time>2018-05-26T06:37:36.140Z</time>
      </trkpt>
      <trkpt lat="40.584935" lon="-3.70703">
        <ele>755.0</ele>
        <time>2018-05-26T06:37:37.137Z</time>
      </trkpt>
      <trkpt lat="40.58504667" lon="-3.70709333">
        <ele>755.0</ele>
        <time>2018-05-26T06:37:38.150Z</time>
      </trkpt>
      <trkpt lat="40.58504667" lon="-3.70709333">
        <ele>755.0</ele>
        <time>2018-05-26T06:37:39.160Z</time>
      </trkpt>
      <trkpt lat="40.58515333" lon="-3.70716">
        <ele>755.0</ele>
        <time>2018-05-26T06:37:40.161Z</time>
      </trkpt>
      <trkpt lat="40.58515333" lon="-3.70716">
        <ele>755.0</ele>
        <time>2018-05-26T06:37:41.173Z</time>
      </trkpt>
      <trkpt lat="40.58525667" lon="-3.70723">
        <ele>755.0</ele>
        <time>2018-05-26T06:37:42.150Z</time>
      </trkpt>
      <trkpt lat="40.58525667" lon="-3.70723">
        <ele>755.0</ele>
        <time>2018-05-26T06:37:43.163Z</time>
      </trkpt>
      <trkpt lat="40.58536" lon="-3.70730333">
        <ele>755.0</ele>
        <time>2018-05-26T06:37:44.174Z</time>
      </trkpt>
      <trkpt lat="40.58536" lon="-3.70730333">
        <ele>755.0</ele>
        <time>2018-05-26T06:37:45.146Z</time>
      </trkpt>
      <trkpt lat="40.585475" lon="-3.70738167">
        <ele>756.0</ele>
        <time>2018-05-26T06:37:46.155Z</time>
      </trkpt>
      <trkpt lat="40.585475" lon="-3.70738167">
        <ele>756.0</ele>
        <time>2018-05-26T06:37:47.164Z</time>
      </trkpt>
      <trkpt lat="40.58559" lon="-3.707465">
        <ele>756.0</ele>
        <time>2018-05-26T06:37:48.139Z</time>
      </trkpt>
      <trkpt lat="40.58559" lon="-3.707465">
        <ele>756.0</ele>
        <time>2018-05-26T06:37:49.150Z</time>
      </trkpt>
      <trkpt lat="40.58571833" lon="-3.70754833">
        <ele>756.0</ele>
        <time>2018-05-26T06:37:50.164Z</time>
      </trkpt>
      <trkpt lat="40.58571833" lon="-3.70754833">
        <ele>756.0</ele>
        <time>2018-05-26T06:37:51.161Z</time>
      </trkpt>
      <trkpt lat="40.58585833" lon="-3.70764167">
        <ele>755.0</ele>
        <time>2018-05-26T06:37:52.172Z</time>
      </trkpt>
      <trkpt lat="40.58585833" lon="-3.70764167">
        <ele>755.0</ele>
        <time>2018-05-26T06:37:53.159Z</time>
      </trkpt>
      <trkpt lat="40.58600333" lon="-3.70774">
        <ele>754.0</ele>
        <time>2018-05-26T06:37:54.144Z</time>
      </trkpt>
      <trkpt lat="40.58600333" lon="-3.70774">
        <ele>754.0</ele>
        <time>2018-05-26T06:37:55.143Z</time>
      </trkpt>
      <trkpt lat="40.58614833" lon="-3.70785">
        <ele>754.0</ele>
        <time>2018-05-26T06:37:56.160Z</time>
      </trkpt>
      <trkpt lat="40.58614833" lon="-3.70785">
        <ele>754.0</ele>
        <time>2018-05-26T06:37:57.154Z</time>
      </trkpt>
      <trkpt lat="40.586295" lon="-3.707965">
        <ele>754.0</ele>
        <time>2018-05-26T06:37:58.156Z</time>
      </trkpt>
      <trkpt lat="40.586295" lon="-3.707965">
        <ele>754.0</ele>
        <time>2018-05-26T06:37:59.162Z</time>
      </trkpt>
      <trkpt lat="40.58644" lon="-3.70808667">
        <ele>754.0</ele>
        <time>2018-05-26T06:38:00.151Z</time>
      </trkpt>
      <trkpt lat="40.58651167" lon="-3.70814833">
        <ele>754.0</ele>
        <time>2018-05-26T06:38:01.164Z</time>
      </trkpt>
      <trkpt lat="40.58658333" lon="-3.70821167">
        <ele>754.0</ele>
        <time>2018-05-26T06:38:02.141Z</time>
      </trkpt>
      <trkpt lat="40.58658333" lon="-3.70821167">
        <ele>754.0</ele>
        <time>2018-05-26T06:38:03.153Z</time>
      </trkpt>
      <trkpt lat="40.58672" lon="-3.70834167">
        <ele>754.0</ele>
        <time>2018-05-26T06:38:04.166Z</time>
      </trkpt>
      <trkpt lat="40.58672" lon="-3.70834167">
        <ele>754.0</ele>
        <time>2018-05-26T06:38:05.162Z</time>
      </trkpt>
      <trkpt lat="40.586855" lon="-3.70847667">
        <ele>753.0</ele>
        <time>2018-05-26T06:38:06.174Z</time>
      </trkpt>
      <trkpt lat="40.586855" lon="-3.70847667">
        <ele>753.0</ele>
        <time>2018-05-26T06:38:07.144Z</time>
      </trkpt>
      <trkpt lat="40.58698333" lon="-3.708615">
        <ele>753.0</ele>
        <time>2018-05-26T06:38:08.157Z</time>
      </trkpt>
      <trkpt lat="40.58698333" lon="-3.708615">
        <ele>753.0</ele>
        <time>2018-05-26T06:38:09.176Z</time>
      </trkpt>
      <trkpt lat="40.58710667" lon="-3.70875667">
        <ele>753.0</ele>
        <time>2018-05-26T06:38:10.147Z</time>
      </trkpt>
      <trkpt lat="40.58710667" lon="-3.70875667">
        <ele>753.0</ele>
        <time>2018-05-26T06:38:11.162Z</time>
      </trkpt>
      <trkpt lat="40.58722833" lon="-3.70890167">
        <ele>753.0</ele>
        <time>2018-05-26T06:38:12.175Z</time>
      </trkpt>
      <trkpt lat="40.58722833" lon="-3.70890167">
        <ele>753.0</ele>
        <time>2018-05-26T06:38:13.147Z</time>
      </trkpt>
      <trkpt lat="40.58734333" lon="-3.70904667">
        <ele>753.0</ele>
        <time>2018-05-26T06:38:14.161Z</time>
      </trkpt>
      <trkpt lat="40.58734333" lon="-3.70904667">
        <ele>753.0</ele>
        <time>2018-05-26T06:38:15.138Z</time>
      </trkpt>
      <trkpt lat="40.587455" lon="-3.7092">
        <ele>753.0</ele>
        <time>2018-05-26T06:38:16.148Z</time>
      </trkpt>
      <trkpt lat="40.587455" lon="-3.7092">
        <ele>753.0</ele>
        <time>2018-05-26T06:38:17.158Z</time>
      </trkpt>
      <trkpt lat="40.58757" lon="-3.70934833">
        <ele>753.0</ele>
        <time>2018-05-26T06:38:18.173Z</time>
      </trkpt>
      <trkpt lat="40.58757" lon="-3.70934833">
        <ele>753.0</ele>
        <time>2018-05-26T06:38:19.146Z</time>
      </trkpt>
      <trkpt lat="40.58768167" lon="-3.70949833">
        <ele>753.0</ele>
        <time>2018-05-26T06:38:20.155Z</time>
      </trkpt>
      <trkpt lat="40.58768167" lon="-3.70949833">
        <ele>753.0</ele>
        <time>2018-05-26T06:38:21.155Z</time>
      </trkpt>
      <trkpt lat="40.58778333" lon="-3.70964167">
        <ele>752.0</ele>
        <time>2018-05-26T06:38:22.166Z</time>
      </trkpt>
      <trkpt lat="40.58778333" lon="-3.70964167">
        <ele>752.0</ele>
        <time>2018-05-26T06:38:23.137Z</time>
      </trkpt>
      <trkpt lat="40.58788" lon="-3.709785">
        <ele>752.0</ele>
        <time>2018-05-26T06:38:24.165Z</time>
      </trkpt>
      <trkpt lat="40.58788" lon="-3.709785">
        <ele>752.0</ele>
        <time>2018-05-26T06:38:25.141Z</time>
      </trkpt>
      <trkpt lat="40.58797667" lon="-3.70993167">
        <ele>752.0</ele>
        <time>2018-05-26T06:38:26.148Z</time>
      </trkpt>
      <trkpt lat="40.58797667" lon="-3.70993167">
        <ele>752.0</ele>
        <time>2018-05-26T06:38:27.143Z</time>
      </trkpt>
      <trkpt lat="40.58808167" lon="-3.71008167">
        <ele>752.0</ele>
        <time>2018-05-26T06:38:28.141Z</time>
      </trkpt>
      <trkpt lat="40.58808167" lon="-3.71008167">
        <ele>752.0</ele>
        <time>2018-05-26T06:38:29.168Z</time>
      </trkpt>
      <trkpt lat="40.58818833" lon="-3.710235">
        <ele>752.0</ele>
        <time>2018-05-26T06:38:30.144Z</time>
      </trkpt>
      <trkpt lat="40.58824333" lon="-3.71031333">
        <ele>752.0</ele>
        <time>2018-05-26T06:38:31.177Z</time>
      </trkpt>
      <trkpt lat="40.58824333" lon="-3.71031333">
        <ele>752.0</ele>
        <time>2018-05-26T06:38:32.136Z</time>
      </trkpt>
      <trkpt lat="40.58835333" lon="-3.71046667">
        <ele>752.0</ele>
        <time>2018-05-26T06:38:33.145Z</time>
      </trkpt>
      <trkpt lat="40.58840833" lon="-3.71054167">
        <ele>752.0</ele>
        <time>2018-05-26T06:38:34.156Z</time>
      </trkpt>
      <trkpt lat="40.58840833" lon="-3.71054167">
        <ele>752.0</ele>
        <time>2018-05-26T06:38:35.173Z</time>
      </trkpt>
      <trkpt lat="40.58852" lon="-3.71068833">
        <ele>752.0</ele>
        <time>2018-05-26T06:38:36.145Z</time>
      </trkpt>
      <trkpt lat="40.58857667" lon="-3.710755">
        <ele>753.0</ele>
        <time>2018-05-26T06:38:37.150Z</time>
      </trkpt>
      <trkpt lat="40.58857667" lon="-3.710755">
        <ele>753.0</ele>
        <time>2018-05-26T06:38:38.158Z</time>
      </trkpt>
      <trkpt lat="40.58867833" lon="-3.71087833">
        <ele>753.0</ele>
        <time>2018-05-26T06:38:39.164Z</time>
      </trkpt>
      <trkpt lat="40.58867833" lon="-3.71087833">
        <ele>753.0</ele>
        <time>2018-05-26T06:38:40.157Z</time>
      </trkpt>
      <trkpt lat="40.58878667" lon="-3.71099167">
        <ele>754.0</ele>
        <time>2018-05-26T06:38:41.175Z</time>
      </trkpt>
      <trkpt lat="40.588845" lon="-3.711045">
        <ele>753.0</ele>
        <time>2018-05-26T06:38:42.136Z</time>
      </trkpt>
      <trkpt lat="40.58889667" lon="-3.711105">
        <ele>754.0</ele>
        <time>2018-05-26T06:38:43.149Z</time>
      </trkpt>
      <trkpt lat="40.58889667" lon="-3.711105">
        <ele>754.0</ele>
        <time>2018-05-26T06:38:44.156Z</time>
      </trkpt>
      <trkpt lat="40.589015" lon="-3.71122167">
        <ele>753.0</ele>
        <time>2018-05-26T06:38:45.167Z</time>
      </trkpt>
      <trkpt lat="40.58907833" lon="-3.71128167">
        <ele>753.0</ele>
        <time>2018-05-26T06:38:46.143Z</time>
      </trkpt>
      <trkpt lat="40.58907833" lon="-3.71128167">
        <ele>753.0</ele>
        <time>2018-05-26T06:38:47.168Z</time>
      </trkpt>
      <trkpt lat="40.58921" lon="-3.7114">
        <ele>752.0</ele>
        <time>2018-05-26T06:38:48.141Z</time>
      </trkpt>
      <trkpt lat="40.58928" lon="-3.71145833">
        <ele>752.0</ele>
        <time>2018-05-26T06:38:49.147Z</time>
      </trkpt>
      <trkpt lat="40.58928" lon="-3.71145833">
        <ele>752.0</ele>
        <time>2018-05-26T06:38:50.164Z</time>
      </trkpt>
      <trkpt lat="40.58941667" lon="-3.71157167">
        <ele>752.0</ele>
        <time>2018-05-26T06:38:51.145Z</time>
      </trkpt>
      <trkpt lat="40.589485" lon="-3.71162833">
        <ele>752.0</ele>
        <time>2018-05-26T06:38:52.149Z</time>
      </trkpt>
      <trkpt lat="40.589485" lon="-3.71162833">
        <ele>752.0</ele>
        <time>2018-05-26T06:38:53.156Z</time>
      </trkpt>
      <trkpt lat="40.58961167" lon="-3.711725">
        <ele>752.0</ele>
        <time>2018-05-26T06:38:54.164Z</time>
      </trkpt>
      <trkpt lat="40.58961167" lon="-3.711725">
        <ele>752.0</ele>
        <time>2018-05-26T06:38:55.142Z</time>
      </trkpt>
      <trkpt lat="40.58973833" lon="-3.71181167">
        <ele>752.0</ele>
        <time>2018-05-26T06:38:56.152Z</time>
      </trkpt>
      <trkpt lat="40.58973833" lon="-3.71181167">
        <ele>752.0</ele>
        <time>2018-05-26T06:38:57.166Z</time>
      </trkpt>
      <trkpt lat="40.58986833" lon="-3.71189667">
        <ele>752.0</ele>
        <time>2018-05-26T06:38:58.143Z</time>
      </trkpt>
      <trkpt lat="40.58986833" lon="-3.71189667">
        <ele>752.0</ele>
        <time>2018-05-26T06:38:59.157Z</time>
      </trkpt>
      <trkpt lat="40.59" lon="-3.71198333">
        <ele>753.0</ele>
        <time>2018-05-26T06:39:00.154Z</time>
      </trkpt>
      <trkpt lat="40.59006833" lon="-3.71202167">
        <ele>753.0</ele>
        <time>2018-05-26T06:39:01.163Z</time>
      </trkpt>
      <trkpt lat="40.59006833" lon="-3.71202167">
        <ele>753.0</ele>
        <time>2018-05-26T06:39:02.137Z</time>
      </trkpt>
      <trkpt lat="40.59020667" lon="-3.71209833">
        <ele>753.0</ele>
        <time>2018-05-26T06:39:03.145Z</time>
      </trkpt>
      <trkpt lat="40.590275" lon="-3.712135">
        <ele>753.0</ele>
        <time>2018-05-26T06:39:04.136Z</time>
      </trkpt>
      <trkpt lat="40.590275" lon="-3.712135">
        <ele>753.0</ele>
        <time>2018-05-26T06:39:05.159Z</time>
      </trkpt>
      <trkpt lat="40.59041333" lon="-3.71220833">
        <ele>752.0</ele>
        <time>2018-05-26T06:39:06.168Z</time>
      </trkpt>
      <trkpt lat="40.59041333" lon="-3.71220833">
        <ele>752.0</ele>
        <time>2018-05-26T06:39:07.161Z</time>
      </trkpt>
      <trkpt lat="40.590555" lon="-3.71227833">
        <ele>752.0</ele>
        <time>2018-05-26T06:39:08.175Z</time>
      </trkpt>
      <trkpt lat="40.590555" lon="-3.71227833">
        <ele>752.0</ele>
        <time>2018-05-26T06:39:09.154Z</time>
      </trkpt>
      <trkpt lat="40.59069667" lon="-3.71235">
        <ele>752.0</ele>
        <time>2018-05-26T06:39:10.166Z</time>
      </trkpt>
      <trkpt lat="40.590765" lon="-3.712385">
        <ele>753.0</ele>
        <time>2018-05-26T06:39:11.140Z</time>
      </trkpt>
      <trkpt lat="40.590765" lon="-3.712385">
        <ele>753.0</ele>
        <time>2018-05-26T06:39:12.144Z</time>
      </trkpt>
      <trkpt lat="40.59089833" lon="-3.71245667">
        <ele>753.0</ele>
        <time>2018-05-26T06:39:13.159Z</time>
      </trkpt>
      <trkpt lat="40.59089833" lon="-3.71245667">
        <ele>753.0</ele>
        <time>2018-05-26T06:39:14.176Z</time>
      </trkpt>
      <trkpt lat="40.59102667" lon="-3.71252">
        <ele>754.0</ele>
        <time>2018-05-26T06:39:15.145Z</time>
      </trkpt>
      <trkpt lat="40.591085" lon="-3.712555">
        <ele>754.0</ele>
        <time>2018-05-26T06:39:16.158Z</time>
      </trkpt>
      <trkpt lat="40.591085" lon="-3.712555">
        <ele>754.0</ele>
        <time>2018-05-26T06:39:17.170Z</time>
      </trkpt>
      <trkpt lat="40.59120333" lon="-3.71263">
        <ele>755.0</ele>
        <time>2018-05-26T06:39:18.140Z</time>
      </trkpt>
      <trkpt lat="40.59120333" lon="-3.71263">
        <ele>755.0</ele>
        <time>2018-05-26T06:39:19.168Z</time>
      </trkpt>
      <trkpt lat="40.59132833" lon="-3.71268667">
        <ele>755.0</ele>
        <time>2018-05-26T06:39:20.141Z</time>
      </trkpt>
      <trkpt lat="40.59132833" lon="-3.71268667">
        <ele>755.0</ele>
        <time>2018-05-26T06:39:21.160Z</time>
      </trkpt>
      <trkpt lat="40.59145" lon="-3.712735">
        <ele>756.0</ele>
        <time>2018-05-26T06:39:22.165Z</time>
      </trkpt>
      <trkpt lat="40.59145" lon="-3.712735">
        <ele>756.0</ele>
        <time>2018-05-26T06:39:23.155Z</time>
      </trkpt>
      <trkpt lat="40.591575" lon="-3.71277833">
        <ele>757.0</ele>
        <time>2018-05-26T06:39:24.165Z</time>
      </trkpt>
      <trkpt lat="40.591575" lon="-3.71277833">
        <ele>757.0</ele>
        <time>2018-05-26T06:39:25.143Z</time>
      </trkpt>
      <trkpt lat="40.59169167" lon="-3.71281667">
        <ele>757.0</ele>
        <time>2018-05-26T06:39:26.167Z</time>
      </trkpt>
      <trkpt lat="40.59169167" lon="-3.71281667">
        <ele>757.0</ele>
        <time>2018-05-26T06:39:27.147Z</time>
      </trkpt>
      <trkpt lat="40.59181167" lon="-3.71286333">
        <ele>758.0</ele>
        <time>2018-05-26T06:39:28.163Z</time>
      </trkpt>
      <trkpt lat="40.59181167" lon="-3.71286333">
        <ele>758.0</ele>
        <time>2018-05-26T06:39:29.139Z</time>
      </trkpt>
      <trkpt lat="40.591945" lon="-3.71291">
        <ele>758.0</ele>
        <time>2018-05-26T06:39:30.158Z</time>
      </trkpt>
      <trkpt lat="40.591945" lon="-3.71291">
        <ele>758.0</ele>
        <time>2018-05-26T06:39:31.138Z</time>
      </trkpt>
      <trkpt lat="40.59208167" lon="-3.71295333">
        <ele>758.0</ele>
        <time>2018-05-26T06:39:32.154Z</time>
      </trkpt>
      <trkpt lat="40.59208167" lon="-3.71295333">
        <ele>758.0</ele>
        <time>2018-05-26T06:39:33.159Z</time>
      </trkpt>
      <trkpt lat="40.592225" lon="-3.712995">
        <ele>758.0</ele>
        <time>2018-05-26T06:39:34.168Z</time>
      </trkpt>
      <trkpt lat="40.592225" lon="-3.712995">
        <ele>758.0</ele>
        <time>2018-05-26T06:39:35.138Z</time>
      </trkpt>
      <trkpt lat="40.59236833" lon="-3.71303667">
        <ele>758.0</ele>
        <time>2018-05-26T06:39:36.150Z</time>
      </trkpt>
      <trkpt lat="40.59236833" lon="-3.71303667">
        <ele>758.0</ele>
        <time>2018-05-26T06:39:37.138Z</time>
      </trkpt>
      <trkpt lat="40.59250167" lon="-3.71306833">
        <ele>759.0</ele>
        <time>2018-05-26T06:39:38.169Z</time>
      </trkpt>
      <trkpt lat="40.59256833" lon="-3.71308167">
        <ele>759.0</ele>
        <time>2018-05-26T06:39:39.137Z</time>
      </trkpt>
      <trkpt lat="40.59263167" lon="-3.713095">
        <ele>759.0</ele>
        <time>2018-05-26T06:39:40.160Z</time>
      </trkpt>
      <trkpt lat="40.59263167" lon="-3.713095">
        <ele>759.0</ele>
        <time>2018-05-26T06:39:41.136Z</time>
      </trkpt>
      <trkpt lat="40.59276" lon="-3.71312">
        <ele>760.0</ele>
        <time>2018-05-26T06:39:42.155Z</time>
      </trkpt>
      <trkpt lat="40.59276" lon="-3.71312">
        <ele>760.0</ele>
        <time>2018-05-26T06:39:43.175Z</time>
      </trkpt>
      <trkpt lat="40.59289833" lon="-3.71315333">
        <ele>759.0</ele>
        <time>2018-05-26T06:39:44.156Z</time>
      </trkpt>
      <trkpt lat="40.59289833" lon="-3.71315333">
        <ele>759.0</ele>
        <time>2018-05-26T06:39:45.168Z</time>
      </trkpt>
      <trkpt lat="40.59303667" lon="-3.71319333">
        <ele>759.0</ele>
        <time>2018-05-26T06:39:46.141Z</time>
      </trkpt>
      <trkpt lat="40.59303667" lon="-3.71319333">
        <ele>759.0</ele>
        <time>2018-05-26T06:39:47.155Z</time>
      </trkpt>
      <trkpt lat="40.59317" lon="-3.71322833">
        <ele>759.0</ele>
        <time>2018-05-26T06:39:48.164Z</time>
      </trkpt>
      <trkpt lat="40.59324" lon="-3.71324333">
        <ele>759.0</ele>
        <time>2018-05-26T06:39:49.156Z</time>
      </trkpt>
      <trkpt lat="40.59331" lon="-3.71325833">
        <ele>759.0</ele>
        <time>2018-05-26T06:39:50.166Z</time>
      </trkpt>
      <trkpt lat="40.59331" lon="-3.71325833">
        <ele>759.0</ele>
        <time>2018-05-26T06:39:51.142Z</time>
      </trkpt>
      <trkpt lat="40.593455" lon="-3.713305">
        <ele>758.0</ele>
        <time>2018-05-26T06:39:52.151Z</time>
      </trkpt>
      <trkpt lat="40.593455" lon="-3.713305">
        <ele>758.0</ele>
        <time>2018-05-26T06:39:53.160Z</time>
      </trkpt>
      <trkpt lat="40.59359333" lon="-3.71338167">
        <ele>758.0</ele>
        <time>2018-05-26T06:39:54.161Z</time>
      </trkpt>
      <trkpt lat="40.59359333" lon="-3.71338167">
        <ele>758.0</ele>
        <time>2018-05-26T06:39:55.147Z</time>
      </trkpt>
      <trkpt lat="40.59372833" lon="-3.71347667">
        <ele>758.0</ele>
        <time>2018-05-26T06:39:56.160Z</time>
      </trkpt>
      <trkpt lat="40.59372833" lon="-3.71347667">
        <ele>758.0</ele>
        <time>2018-05-26T06:39:57.138Z</time>
      </trkpt>
      <trkpt lat="40.59387167" lon="-3.71358">
        <ele>757.0</ele>
        <time>2018-05-26T06:39:58.174Z</time>
      </trkpt>
      <trkpt lat="40.59394" lon="-3.71362333">
        <ele>758.0</ele>
        <time>2018-05-26T06:39:59.149Z</time>
      </trkpt>
      <trkpt lat="40.59394" lon="-3.71362333">
        <ele>758.0</ele>
        <time>2018-05-26T06:40:00.137Z</time>
      </trkpt>
      <trkpt lat="40.59408833" lon="-3.71369667">
        <ele>757.0</ele>
        <time>2018-05-26T06:40:01.146Z</time>
      </trkpt>
      <trkpt lat="40.59416167" lon="-3.71372333">
        <ele>757.0</ele>
        <time>2018-05-26T06:40:02.145Z</time>
      </trkpt>
      <trkpt lat="40.59416167" lon="-3.71372333">
        <ele>757.0</ele>
        <time>2018-05-26T06:40:03.162Z</time>
      </trkpt>
      <trkpt lat="40.59429667" lon="-3.71380167">
        <ele>757.0</ele>
        <time>2018-05-26T06:40:04.170Z</time>
      </trkpt>
      <trkpt lat="40.59436667" lon="-3.713855">
        <ele>757.0</ele>
        <time>2018-05-26T06:40:05.143Z</time>
      </trkpt>
      <trkpt lat="40.59436667" lon="-3.713855">
        <ele>757.0</ele>
        <time>2018-05-26T06:40:06.160Z</time>
      </trkpt>
      <trkpt lat="40.59450667" lon="-3.713975">
        <ele>757.0</ele>
        <time>2018-05-26T06:40:07.167Z</time>
      </trkpt>
      <trkpt lat="40.59450667" lon="-3.713975">
        <ele>757.0</ele>
        <time>2018-05-26T06:40:08.144Z</time>
      </trkpt>
      <trkpt lat="40.594635" lon="-3.71410667">
        <ele>757.0</ele>
        <time>2018-05-26T06:40:09.155Z</time>
      </trkpt>
      <trkpt lat="40.594635" lon="-3.71410667">
        <ele>757.0</ele>
        <time>2018-05-26T06:40:10.169Z</time>
      </trkpt>
      <trkpt lat="40.59476833" lon="-3.71424">
        <ele>757.0</ele>
        <time>2018-05-26T06:40:11.136Z</time>
      </trkpt>
      <trkpt lat="40.59476833" lon="-3.71424">
        <ele>757.0</ele>
        <time>2018-05-26T06:40:12.144Z</time>
      </trkpt>
      <trkpt lat="40.594895" lon="-3.714375">
        <ele>757.0</ele>
        <time>2018-05-26T06:40:13.161Z</time>
      </trkpt>
      <trkpt lat="40.594895" lon="-3.714375">
        <ele>757.0</ele>
        <time>2018-05-26T06:40:14.138Z</time>
      </trkpt>
      <trkpt lat="40.59501667" lon="-3.714515">
        <ele>757.0</ele>
        <time>2018-05-26T06:40:15.146Z</time>
      </trkpt>
      <trkpt lat="40.59501667" lon="-3.714515">
        <ele>757.0</ele>
        <time>2018-05-26T06:40:16.162Z</time>
      </trkpt>
      <trkpt lat="40.59513333" lon="-3.71466167">
        <ele>757.0</ele>
        <time>2018-05-26T06:40:17.154Z</time>
      </trkpt>
      <trkpt lat="40.59513333" lon="-3.71466167">
        <ele>757.0</ele>
        <time>2018-05-26T06:40:18.136Z</time>
      </trkpt>
      <trkpt lat="40.59524" lon="-3.714825">
        <ele>756.0</ele>
        <time>2018-05-26T06:40:19.149Z</time>
      </trkpt>
      <trkpt lat="40.59524" lon="-3.714825">
        <ele>756.0</ele>
        <time>2018-05-26T06:40:20.158Z</time>
      </trkpt>
      <trkpt lat="40.59534333" lon="-3.71499167">
        <ele>756.0</ele>
        <time>2018-05-26T06:40:21.170Z</time>
      </trkpt>
      <trkpt lat="40.59534333" lon="-3.71499167">
        <ele>756.0</ele>
        <time>2018-05-26T06:40:22.147Z</time>
      </trkpt>
      <trkpt lat="40.59545167" lon="-3.71515333">
        <ele>756.0</ele>
        <time>2018-05-26T06:40:23.175Z</time>
      </trkpt>
      <trkpt lat="40.59545167" lon="-3.71515333">
        <ele>756.0</ele>
        <time>2018-05-26T06:40:24.167Z</time>
      </trkpt>
      <trkpt lat="40.59555833" lon="-3.71531667">
        <ele>756.0</ele>
        <time>2018-05-26T06:40:25.143Z</time>
      </trkpt>
      <trkpt lat="40.59555833" lon="-3.71531667">
        <ele>756.0</ele>
        <time>2018-05-26T06:40:26.158Z</time>
      </trkpt>
      <trkpt lat="40.59566333" lon="-3.71547833">
        <ele>756.0</ele>
        <time>2018-05-26T06:40:27.166Z</time>
      </trkpt>
      <trkpt lat="40.59571333" lon="-3.71556167">
        <ele>756.0</ele>
        <time>2018-05-26T06:40:28.141Z</time>
      </trkpt>
      <trkpt lat="40.59571333" lon="-3.71556167">
        <ele>756.0</ele>
        <time>2018-05-26T06:40:29.155Z</time>
      </trkpt>
      <trkpt lat="40.59579167" lon="-3.71574">
        <ele>756.0</ele>
        <time>2018-05-26T06:40:30.164Z</time>
      </trkpt>
      <trkpt lat="40.59579167" lon="-3.71574">
        <ele>756.0</ele>
        <time>2018-05-26T06:40:31.140Z</time>
      </trkpt>
      <trkpt lat="40.59584333" lon="-3.71593333">
        <ele>757.0</ele>
        <time>2018-05-26T06:40:32.151Z</time>
      </trkpt>
      <trkpt lat="40.59584333" lon="-3.71593333">
        <ele>757.0</ele>
        <time>2018-05-26T06:40:33.141Z</time>
      </trkpt>
      <trkpt lat="40.59588833" lon="-3.71612333">
        <ele>757.0</ele>
        <time>2018-05-26T06:40:34.153Z</time>
      </trkpt>
      <trkpt lat="40.59588833" lon="-3.71612333">
        <ele>757.0</ele>
        <time>2018-05-26T06:40:35.164Z</time>
      </trkpt>
      <trkpt lat="40.59593667" lon="-3.716305">
        <ele>757.0</ele>
        <time>2018-05-26T06:40:36.150Z</time>
      </trkpt>
      <trkpt lat="40.59593667" lon="-3.716305">
        <ele>757.0</ele>
        <time>2018-05-26T06:40:37.155Z</time>
      </trkpt>
      <trkpt lat="40.595985" lon="-3.71648833">
        <ele>757.0</ele>
        <time>2018-05-26T06:40:38.165Z</time>
      </trkpt>
      <trkpt lat="40.59601" lon="-3.71657833">
        <ele>757.0</ele>
        <time>2018-05-26T06:40:39.148Z</time>
      </trkpt>
      <trkpt lat="40.596035" lon="-3.71667167">
        <ele>757.0</ele>
        <time>2018-05-26T06:40:40.171Z</time>
      </trkpt>
      <trkpt lat="40.596035" lon="-3.71667167">
        <ele>757.0</ele>
        <time>2018-05-26T06:40:41.144Z</time>
      </trkpt>
      <trkpt lat="40.596085" lon="-3.71686333">
        <ele>757.0</ele>
        <time>2018-05-26T06:40:42.161Z</time>
      </trkpt>
      <trkpt lat="40.59610833" lon="-3.71696">
        <ele>757.0</ele>
        <time>2018-05-26T06:40:43.141Z</time>
      </trkpt>
      <trkpt lat="40.59610833" lon="-3.71696">
        <ele>757.0</ele>
        <time>2018-05-26T06:40:44.158Z</time>
      </trkpt>
      <trkpt lat="40.59615833" lon="-3.71714833">
        <ele>756.0</ele>
        <time>2018-05-26T06:40:45.168Z</time>
      </trkpt>
      <trkpt lat="40.59615833" lon="-3.71714833">
        <ele>756.0</ele>
        <time>2018-05-26T06:40:46.139Z</time>
      </trkpt>
      <trkpt lat="40.59620333" lon="-3.71733833">
        <ele>756.0</ele>
        <time>2018-05-26T06:40:47.155Z</time>
      </trkpt>
      <trkpt lat="40.59620333" lon="-3.71733833">
        <ele>756.0</ele>
        <time>2018-05-26T06:40:48.167Z</time>
      </trkpt>
      <trkpt lat="40.59625" lon="-3.71752833">
        <ele>756.0</ele>
        <time>2018-05-26T06:40:49.140Z</time>
      </trkpt>
      <trkpt lat="40.59625" lon="-3.71752833">
        <ele>756.0</ele>
        <time>2018-05-26T06:40:50.157Z</time>
      </trkpt>
      <trkpt lat="40.59630167" lon="-3.71771833">
        <ele>755.0</ele>
        <time>2018-05-26T06:40:51.163Z</time>
      </trkpt>
      <trkpt lat="40.59630167" lon="-3.71771833">
        <ele>755.0</ele>
        <time>2018-05-26T06:40:52.174Z</time>
      </trkpt>
      <trkpt lat="40.59637" lon="-3.71790167">
        <ele>754.0</ele>
        <time>2018-05-26T06:40:53.146Z</time>
      </trkpt>
      <trkpt lat="40.59637" lon="-3.71790167">
        <ele>754.0</ele>
        <time>2018-05-26T06:40:54.160Z</time>
      </trkpt>
      <trkpt lat="40.59639667" lon="-3.71808833">
        <ele>754.0</ele>
        <time>2018-05-26T06:40:55.140Z</time>
      </trkpt>
      <trkpt lat="40.59639667" lon="-3.71808833">
        <ele>754.0</ele>
        <time>2018-05-26T06:40:56.158Z</time>
      </trkpt>
      <trkpt lat="40.59637833" lon="-3.71829">
        <ele>754.0</ele>
        <time>2018-05-26T06:40:57.166Z</time>
      </trkpt>
      <trkpt lat="40.59637167" lon="-3.71839833">
        <ele>754.0</ele>
        <time>2018-05-26T06:40:58.141Z</time>
      </trkpt>
      <trkpt lat="40.59637167" lon="-3.71839833">
        <ele>754.0</ele>
        <time>2018-05-26T06:40:59.156Z</time>
      </trkpt>
      <trkpt lat="40.596345" lon="-3.71860667">
        <ele>753.0</ele>
        <time>2018-05-26T06:41:00.137Z</time>
      </trkpt>
      <trkpt lat="40.59632167" lon="-3.7187">
        <ele>753.0</ele>
        <time>2018-05-26T06:41:01.161Z</time>
      </trkpt>
      <trkpt lat="40.59632167" lon="-3.7187">
        <ele>753.0</ele>
        <time>2018-05-26T06:41:02.175Z</time>
      </trkpt>
      <trkpt lat="40.59628833" lon="-3.71886667">
        <ele>753.0</ele>
        <time>2018-05-26T06:41:03.144Z</time>
      </trkpt>
      <trkpt lat="40.59628333" lon="-3.71895167">
        <ele>753.0</ele>
        <time>2018-05-26T06:41:04.159Z</time>
      </trkpt>
      <trkpt lat="40.59628333" lon="-3.71895167">
        <ele>753.0</ele>
        <time>2018-05-26T06:41:05.141Z</time>
      </trkpt>
      <trkpt lat="40.59625833" lon="-3.71911167">
        <ele>753.0</ele>
        <time>2018-05-26T06:41:06.155Z</time>
      </trkpt>
      <trkpt lat="40.59625833" lon="-3.71911167">
        <ele>753.0</ele>
        <time>2018-05-26T06:41:07.168Z</time>
      </trkpt>
      <trkpt lat="40.59620667" lon="-3.71922167">
        <ele>752.0</ele>
        <time>2018-05-26T06:41:08.143Z</time>
      </trkpt>
      <trkpt lat="40.59620667" lon="-3.71922167">
        <ele>752.0</ele>
        <time>2018-05-26T06:41:09.169Z</time>
      </trkpt>
      <trkpt lat="40.59615667" lon="-3.71934833">
        <ele>752.0</ele>
        <time>2018-05-26T06:41:10.173Z</time>
      </trkpt>
      <trkpt lat="40.596135" lon="-3.71942">
        <ele>753.0</ele>
        <time>2018-05-26T06:41:11.138Z</time>
      </trkpt>
      <trkpt lat="40.596135" lon="-3.71942">
        <ele>753.0</ele>
        <time>2018-05-26T06:41:12.141Z</time>
      </trkpt>
      <trkpt lat="40.59610167" lon="-3.71957667">
        <ele>753.0</ele>
        <time>2018-05-26T06:41:13.154Z</time>
      </trkpt>
      <trkpt lat="40.59610167" lon="-3.71957667">
        <ele>753.0</ele>
        <time>2018-05-26T06:41:14.136Z</time>
      </trkpt>
      <trkpt lat="40.59606333" lon="-3.71972667">
        <ele>753.0</ele>
        <time>2018-05-26T06:41:15.149Z</time>
      </trkpt>
      <trkpt lat="40.59604167" lon="-3.71980167">
        <ele>753.0</ele>
        <time>2018-05-26T06:41:16.146Z</time>
      </trkpt>
      <trkpt lat="40.59604167" lon="-3.71980167">
        <ele>753.0</ele>
        <time>2018-05-26T06:41:17.157Z</time>
      </trkpt>
      <trkpt lat="40.59599833" lon="-3.71996167">
        <ele>752.0</ele>
        <time>2018-05-26T06:41:18.170Z</time>
      </trkpt>
      <trkpt lat="40.59599833" lon="-3.71996167">
        <ele>752.0</ele>
        <time>2018-05-26T06:41:19.141Z</time>
      </trkpt>
      <trkpt lat="40.595945" lon="-3.72013167">
        <ele>751.0</ele>
        <time>2018-05-26T06:41:20.152Z</time>
      </trkpt>
      <trkpt lat="40.59592167" lon="-3.72022167">
        <ele>751.0</ele>
        <time>2018-05-26T06:41:21.144Z</time>
      </trkpt>
      <trkpt lat="40.59589833" lon="-3.72031833">
        <ele>750.0</ele>
        <time>2018-05-26T06:41:22.140Z</time>
      </trkpt>
      <trkpt lat="40.59589833" lon="-3.72031833">
        <ele>750.0</ele>
        <time>2018-05-26T06:41:23.168Z</time>
      </trkpt>
      <trkpt lat="40.59585333" lon="-3.72052833">
        <ele>750.0</ele>
        <time>2018-05-26T06:41:24.175Z</time>
      </trkpt>
      <trkpt lat="40.59583167" lon="-3.72064167">
        <ele>749.0</ele>
        <time>2018-05-26T06:41:25.162Z</time>
      </trkpt>
      <trkpt lat="40.59581" lon="-3.72075667">
        <ele>749.0</ele>
        <time>2018-05-26T06:41:26.137Z</time>
      </trkpt>
      <trkpt lat="40.59578833" lon="-3.72087833">
        <ele>749.0</ele>
        <time>2018-05-26T06:41:27.154Z</time>
      </trkpt>
      <trkpt lat="40.59577" lon="-3.72099833">
        <ele>748.0</ele>
        <time>2018-05-26T06:41:28.152Z</time>
      </trkpt>
      <trkpt lat="40.59577" lon="-3.72099833">
        <ele>748.0</ele>
        <time>2018-05-26T06:41:29.168Z</time>
      </trkpt>
      <trkpt lat="40.59575" lon="-3.72125">
        <ele>747.0</ele>
        <time>2018-05-26T06:41:30.153Z</time>
      </trkpt>
      <trkpt lat="40.59575" lon="-3.72125">
        <ele>747.0</ele>
        <time>2018-05-26T06:41:31.145Z</time>
      </trkpt>
      <trkpt lat="40.59575" lon="-3.72149667">
        <ele>747.0</ele>
        <time>2018-05-26T06:41:32.156Z</time>
      </trkpt>
      <trkpt lat="40.59575333" lon="-3.721615">
        <ele>747.0</ele>
        <time>2018-05-26T06:41:33.136Z</time>
      </trkpt>
      <trkpt lat="40.595755" lon="-3.72173">
        <ele>747.0</ele>
        <time>2018-05-26T06:41:34.148Z</time>
      </trkpt>
      <trkpt lat="40.595755" lon="-3.72173">
        <ele>747.0</ele>
        <time>2018-05-26T06:41:35.163Z</time>
      </trkpt>
      <trkpt lat="40.59574" lon="-3.72195333">
        <ele>746.0</ele>
        <time>2018-05-26T06:41:36.172Z</time>
      </trkpt>
      <trkpt lat="40.59574" lon="-3.72195333">
        <ele>746.0</ele>
        <time>2018-05-26T06:41:37.148Z</time>
      </trkpt>
      <trkpt lat="40.595695" lon="-3.72213333">
        <ele>745.0</ele>
        <time>2018-05-26T06:41:38.170Z</time>
      </trkpt>
      <trkpt lat="40.595695" lon="-3.72213333">
        <ele>745.0</ele>
        <time>2018-05-26T06:41:39.153Z</time>
      </trkpt>
      <trkpt lat="40.59562333" lon="-3.72231333">
        <ele>744.0</ele>
        <time>2018-05-26T06:41:40.165Z</time>
      </trkpt>
      <trkpt lat="40.59562333" lon="-3.72231333">
        <ele>744.0</ele>
        <time>2018-05-26T06:41:41.155Z</time>
      </trkpt>
      <trkpt lat="40.59557167" lon="-3.722515">
        <ele>743.0</ele>
        <time>2018-05-26T06:41:42.171Z</time>
      </trkpt>
      <trkpt lat="40.59555333" lon="-3.72262">
        <ele>742.0</ele>
        <time>2018-05-26T06:41:43.152Z</time>
      </trkpt>
      <trkpt lat="40.59555333" lon="-3.72262">
        <ele>742.0</ele>
        <time>2018-05-26T06:41:44.170Z</time>
      </trkpt>
      <trkpt lat="40.595535" lon="-3.72285">
        <ele>740.0</ele>
        <time>2018-05-26T06:41:45.137Z</time>
      </trkpt>
      <trkpt lat="40.595535" lon="-3.72297667">
        <ele>739.0</ele>
        <time>2018-05-26T06:41:46.161Z</time>
      </trkpt>
      <trkpt lat="40.595535" lon="-3.723105">
        <ele>739.0</ele>
        <time>2018-05-26T06:41:47.142Z</time>
      </trkpt>
      <trkpt lat="40.595535" lon="-3.723105">
        <ele>739.0</ele>
        <time>2018-05-26T06:41:48.157Z</time>
      </trkpt>
      <trkpt lat="40.59554667" lon="-3.723355">
        <ele>738.0</ele>
        <time>2018-05-26T06:41:49.167Z</time>
      </trkpt>
      <trkpt lat="40.59556333" lon="-3.72347167">
        <ele>738.0</ele>
        <time>2018-05-26T06:41:50.143Z</time>
      </trkpt>
      <trkpt lat="40.59559" lon="-3.72358">
        <ele>739.0</ele>
        <time>2018-05-26T06:41:51.169Z</time>
      </trkpt>
      <trkpt lat="40.59559" lon="-3.72358">
        <ele>739.0</ele>
        <time>2018-05-26T06:41:52.144Z</time>
      </trkpt>
      <trkpt lat="40.59566833" lon="-3.72377667">
        <ele>739.0</ele>
        <time>2018-05-26T06:41:53.155Z</time>
      </trkpt>
      <trkpt lat="40.59566833" lon="-3.72377667">
        <ele>739.0</ele>
        <time>2018-05-26T06:41:54.164Z</time>
      </trkpt>
      <trkpt lat="40.59577167" lon="-3.723945">
        <ele>738.0</ele>
        <time>2018-05-26T06:41:55.141Z</time>
      </trkpt>
      <trkpt lat="40.595825" lon="-3.724025">
        <ele>738.0</ele>
        <time>2018-05-26T06:41:56.178Z</time>
      </trkpt>
      <trkpt lat="40.595825" lon="-3.724025">
        <ele>738.0</ele>
        <time>2018-05-26T06:41:57.152Z</time>
      </trkpt>
      <trkpt lat="40.595945" lon="-3.72419167">
        <ele>737.0</ele>
        <time>2018-05-26T06:41:58.163Z</time>
      </trkpt>
      <trkpt lat="40.595945" lon="-3.72419167">
        <ele>737.0</ele>
        <time>2018-05-26T06:41:59.172Z</time>
      </trkpt>
      <trkpt lat="40.59606" lon="-3.72437833">
        <ele>737.0</ele>
        <time>2018-05-26T06:42:00.160Z</time>
      </trkpt>
      <trkpt lat="40.59611167" lon="-3.72448167">
        <ele>736.0</ele>
        <time>2018-05-26T06:42:01.150Z</time>
      </trkpt>
      <trkpt lat="40.59611167" lon="-3.72448167">
        <ele>736.0</ele>
        <time>2018-05-26T06:42:02.173Z</time>
      </trkpt>
      <trkpt lat="40.59620833" lon="-3.72468833">
        <ele>736.0</ele>
        <time>2018-05-26T06:42:03.152Z</time>
      </trkpt>
      <trkpt lat="40.59625333" lon="-3.72479333">
        <ele>736.0</ele>
        <time>2018-05-26T06:42:04.138Z</time>
      </trkpt>
      <trkpt lat="40.59625333" lon="-3.72479333">
        <ele>736.0</ele>
        <time>2018-05-26T06:42:05.159Z</time>
      </trkpt>
      <trkpt lat="40.596345" lon="-3.72498833">
        <ele>736.0</ele>
        <time>2018-05-26T06:42:06.170Z</time>
      </trkpt>
      <trkpt lat="40.59637333" lon="-3.72509167">
        <ele>735.0</ele>
        <time>2018-05-26T06:42:07.145Z</time>
      </trkpt>
      <trkpt lat="40.59639" lon="-3.72519667">
        <ele>735.0</ele>
        <time>2018-05-26T06:42:08.167Z</time>
      </trkpt>
      <trkpt lat="40.59639" lon="-3.72519667">
        <ele>735.0</ele>
        <time>2018-05-26T06:42:09.153Z</time>
      </trkpt>
      <trkpt lat="40.59642167" lon="-3.72542833">
        <ele>732.0</ele>
        <time>2018-05-26T06:42:10.168Z</time>
      </trkpt>
      <trkpt lat="40.59642167" lon="-3.72542833">
        <ele>732.0</ele>
        <time>2018-05-26T06:42:11.153Z</time>
      </trkpt>
      <trkpt lat="40.59643167" lon="-3.72568167">
        <ele>729.0</ele>
        <time>2018-05-26T06:42:12.147Z</time>
      </trkpt>
      <trkpt lat="40.59643167" lon="-3.72568167">
        <ele>729.0</ele>
        <time>2018-05-26T06:42:13.162Z</time>
      </trkpt>
      <trkpt lat="40.59643833" lon="-3.72592">
        <ele>727.0</ele>
        <time>2018-05-26T06:42:14.136Z</time>
      </trkpt>
      <trkpt lat="40.59643833" lon="-3.72592">
        <ele>727.0</ele>
        <time>2018-05-26T06:42:15.164Z</time>
      </trkpt>
      <trkpt lat="40.59647667" lon="-3.72614">
        <ele>725.0</ele>
        <time>2018-05-26T06:42:16.145Z</time>
      </trkpt>
      <trkpt lat="40.59647667" lon="-3.72614">
        <ele>725.0</ele>
        <time>2018-05-26T06:42:17.140Z</time>
      </trkpt>
      <trkpt lat="40.59654667" lon="-3.726355">
        <ele>723.0</ele>
        <time>2018-05-26T06:42:18.154Z</time>
      </trkpt>
      <trkpt lat="40.59654667" lon="-3.726355">
        <ele>723.0</ele>
        <time>2018-05-26T06:42:19.137Z</time>
      </trkpt>
      <trkpt lat="40.59661333" lon="-3.726555">
        <ele>722.0</ele>
        <time>2018-05-26T06:42:20.137Z</time>
      </trkpt>
      <trkpt lat="40.59662833" lon="-3.72664833">
        <ele>721.0</ele>
        <time>2018-05-26T06:42:21.176Z</time>
      </trkpt>
      <trkpt lat="40.59662667" lon="-3.72674167">
        <ele>720.0</ele>
        <time>2018-05-26T06:42:22.159Z</time>
      </trkpt>
      <trkpt lat="40.59662667" lon="-3.72674167">
        <ele>720.0</ele>
        <time>2018-05-26T06:42:23.138Z</time>
      </trkpt>
      <trkpt lat="40.59658833" lon="-3.72694333">
        <ele>719.0</ele>
        <time>2018-05-26T06:42:24.155Z</time>
      </trkpt>
      <trkpt lat="40.59658833" lon="-3.72694333">
        <ele>719.0</ele>
        <time>2018-05-26T06:42:25.145Z</time>
      </trkpt>
      <trkpt lat="40.59652167" lon="-3.72713333">
        <ele>717.0</ele>
        <time>2018-05-26T06:42:26.171Z</time>
      </trkpt>
      <trkpt lat="40.59652167" lon="-3.72713333">
        <ele>717.0</ele>
        <time>2018-05-26T06:42:27.147Z</time>
      </trkpt>
      <trkpt lat="40.59649667" lon="-3.72730833">
        <ele>717.0</ele>
        <time>2018-05-26T06:42:28.160Z</time>
      </trkpt>
      <trkpt lat="40.59649667" lon="-3.72730833">
        <ele>717.0</ele>
        <time>2018-05-26T06:42:29.143Z</time>
      </trkpt>
      <trkpt lat="40.596535" lon="-3.72750333">
        <ele>715.0</ele>
        <time>2018-05-26T06:42:30.147Z</time>
      </trkpt>
      <trkpt lat="40.596535" lon="-3.72750333">
        <ele>715.0</ele>
        <time>2018-05-26T06:42:31.168Z</time>
      </trkpt>
      <trkpt lat="40.59657333" lon="-3.72772">
        <ele>713.0</ele>
        <time>2018-05-26T06:42:32.141Z</time>
      </trkpt>
      <trkpt lat="40.59658333" lon="-3.72783833">
        <ele>713.0</ele>
        <time>2018-05-26T06:42:33.176Z</time>
      </trkpt>
      <trkpt lat="40.59658333" lon="-3.72783833">
        <ele>713.0</ele>
        <time>2018-05-26T06:42:34.152Z</time>
      </trkpt>
      <trkpt lat="40.59656" lon="-3.728085">
        <ele>711.0</ele>
        <time>2018-05-26T06:42:35.165Z</time>
      </trkpt>
      <trkpt lat="40.59656" lon="-3.728085">
        <ele>711.0</ele>
        <time>2018-05-26T06:42:36.161Z</time>
      </trkpt>
      <trkpt lat="40.59650167" lon="-3.72831833">
        <ele>710.0</ele>
        <time>2018-05-26T06:42:37.170Z</time>
      </trkpt>
      <trkpt lat="40.59650167" lon="-3.72831833">
        <ele>710.0</ele>
        <time>2018-05-26T06:42:38.140Z</time>
      </trkpt>
      <trkpt lat="40.59646167" lon="-3.72849167">
        <ele>709.0</ele>
        <time>2018-05-26T06:42:39.154Z</time>
      </trkpt>
      <trkpt lat="40.59646167" lon="-3.72849167">
        <ele>709.0</ele>
        <time>2018-05-26T06:42:40.172Z</time>
      </trkpt>
      <trkpt lat="40.59641667" lon="-3.72863333">
        <ele>707.0</ele>
        <time>2018-05-26T06:42:41.144Z</time>
      </trkpt>
      <trkpt lat="40.59641667" lon="-3.72863333">
        <ele>707.0</ele>
        <time>2018-05-26T06:42:42.166Z</time>
      </trkpt>
      <trkpt lat="40.59637" lon="-3.72875333">
        <ele>705.0</ele>
        <time>2018-05-26T06:42:43.138Z</time>
      </trkpt>
      <trkpt lat="40.59637" lon="-3.72875333">
        <ele>705.0</ele>
        <time>2018-05-26T06:42:44.148Z</time>
      </trkpt>
      <trkpt lat="40.59631167" lon="-3.72887833">
        <ele>704.0</ele>
        <time>2018-05-26T06:42:45.171Z</time>
      </trkpt>
      <trkpt lat="40.59628" lon="-3.72894333">
        <ele>704.0</ele>
        <time>2018-05-26T06:42:46.146Z</time>
      </trkpt>
      <trkpt lat="40.59628" lon="-3.72894333">
        <ele>704.0</ele>
        <time>2018-05-26T06:42:47.158Z</time>
      </trkpt>
      <trkpt lat="40.59627833" lon="-3.72911167">
        <ele>704.0</ele>
        <time>2018-05-26T06:42:48.167Z</time>
      </trkpt>
      <trkpt lat="40.59627833" lon="-3.72911167">
        <ele>704.0</ele>
        <time>2018-05-26T06:42:49.161Z</time>
      </trkpt>
      <trkpt lat="40.59632" lon="-3.72930333">
        <ele>703.0</ele>
        <time>2018-05-26T06:42:50.173Z</time>
      </trkpt>
      <trkpt lat="40.59632" lon="-3.72930333">
        <ele>703.0</ele>
        <time>2018-05-26T06:42:51.167Z</time>
      </trkpt>
      <trkpt lat="40.59637333" lon="-3.729515">
        <ele>702.0</ele>
        <time>2018-05-26T06:42:52.178Z</time>
      </trkpt>
      <trkpt lat="40.59637333" lon="-3.729515">
        <ele>702.0</ele>
        <time>2018-05-26T06:42:53.147Z</time>
      </trkpt>
      <trkpt lat="40.59643333" lon="-3.72973">
        <ele>701.0</ele>
        <time>2018-05-26T06:42:54.162Z</time>
      </trkpt>
      <trkpt lat="40.59643333" lon="-3.72973">
        <ele>701.0</ele>
        <time>2018-05-26T06:42:55.136Z</time>
      </trkpt>
      <trkpt lat="40.596475" lon="-3.72994">
        <ele>701.0</ele>
        <time>2018-05-26T06:42:56.147Z</time>
      </trkpt>
      <trkpt lat="40.59648" lon="-3.730045">
        <ele>701.0</ele>
        <time>2018-05-26T06:42:57.160Z</time>
      </trkpt>
      <trkpt lat="40.596475" lon="-3.73015167">
        <ele>700.0</ele>
        <time>2018-05-26T06:42:58.171Z</time>
      </trkpt>
      <trkpt lat="40.596475" lon="-3.73015167">
        <ele>700.0</ele>
        <time>2018-05-26T06:42:59.143Z</time>
      </trkpt>
      <trkpt lat="40.59644167" lon="-3.73036833">
        <ele>699.0</ele>
        <time>2018-05-26T06:43:00.142Z</time>
      </trkpt>
      <trkpt lat="40.59642833" lon="-3.73047833">
        <ele>699.0</ele>
        <time>2018-05-26T06:43:01.170Z</time>
      </trkpt>
      <trkpt lat="40.59642833" lon="-3.73047833">
        <ele>699.0</ele>
        <time>2018-05-26T06:43:02.143Z</time>
      </trkpt>
      <trkpt lat="40.596415" lon="-3.73069667">
        <ele>699.0</ele>
        <time>2018-05-26T06:43:03.161Z</time>
      </trkpt>
      <trkpt lat="40.596405" lon="-3.7308">
        <ele>699.0</ele>
        <time>2018-05-26T06:43:04.143Z</time>
      </trkpt>
      <trkpt lat="40.596405" lon="-3.7308">
        <ele>699.0</ele>
        <time>2018-05-26T06:43:05.159Z</time>
      </trkpt>
      <trkpt lat="40.59637833" lon="-3.73100167">
        <ele>699.0</ele>
        <time>2018-05-26T06:43:06.170Z</time>
      </trkpt>
      <trkpt lat="40.59636" lon="-3.73109833">
        <ele>699.0</ele>
        <time>2018-05-26T06:43:07.170Z</time>
      </trkpt>
      <trkpt lat="40.59636" lon="-3.73109833">
        <ele>699.0</ele>
        <time>2018-05-26T06:43:08.163Z</time>
      </trkpt>
      <trkpt lat="40.596325" lon="-3.73128167">
        <ele>698.0</ele>
        <time>2018-05-26T06:43:09.136Z</time>
      </trkpt>
      <trkpt lat="40.59629333" lon="-3.73137667">
        <ele>697.0</ele>
        <time>2018-05-26T06:43:10.168Z</time>
      </trkpt>
      <trkpt lat="40.59629333" lon="-3.73137667">
        <ele>697.0</ele>
        <time>2018-05-26T06:43:11.155Z</time>
      </trkpt>
      <trkpt lat="40.59619167" lon="-3.73158667">
        <ele>697.0</ele>
        <time>2018-05-26T06:43:12.141Z</time>
      </trkpt>
      <trkpt lat="40.59619167" lon="-3.73158667">
        <ele>697.0</ele>
        <time>2018-05-26T06:43:13.175Z</time>
      </trkpt>
      <trkpt lat="40.59608167" lon="-3.731805">
        <ele>695.0</ele>
        <time>2018-05-26T06:43:14.149Z</time>
      </trkpt>
      <trkpt lat="40.59608167" lon="-3.731805">
        <ele>695.0</ele>
        <time>2018-05-26T06:43:15.167Z</time>
      </trkpt>
      <trkpt lat="40.59603" lon="-3.73204167">
        <ele>695.0</ele>
        <time>2018-05-26T06:43:16.160Z</time>
      </trkpt>
      <trkpt lat="40.59603" lon="-3.73204167">
        <ele>695.0</ele>
        <time>2018-05-26T06:43:17.142Z</time>
      </trkpt>
      <trkpt lat="40.59598167" lon="-3.73226333">
        <ele>696.0</ele>
        <time>2018-05-26T06:43:18.165Z</time>
      </trkpt>
      <trkpt lat="40.59598167" lon="-3.73226333">
        <ele>696.0</ele>
        <time>2018-05-26T06:43:19.142Z</time>
      </trkpt>
      <trkpt lat="40.595925" lon="-3.73246833">
        <ele>695.0</ele>
        <time>2018-05-26T06:43:20.166Z</time>
      </trkpt>
      <trkpt lat="40.595925" lon="-3.73246833">
        <ele>695.0</ele>
        <time>2018-05-26T06:43:21.140Z</time>
      </trkpt>
      <trkpt lat="40.59586333" lon="-3.73269">
        <ele>694.0</ele>
        <time>2018-05-26T06:43:22.159Z</time>
      </trkpt>
      <trkpt lat="40.59586333" lon="-3.73269">
        <ele>694.0</ele>
        <time>2018-05-26T06:43:23.137Z</time>
      </trkpt>
      <trkpt lat="40.59581333" lon="-3.73293">
        <ele>693.0</ele>
        <time>2018-05-26T06:43:24.168Z</time>
      </trkpt>
      <trkpt lat="40.595795" lon="-3.73305">
        <ele>693.0</ele>
        <time>2018-05-26T06:43:25.146Z</time>
      </trkpt>
      <trkpt lat="40.595795" lon="-3.73305">
        <ele>693.0</ele>
        <time>2018-05-26T06:43:26.139Z</time>
      </trkpt>
      <trkpt lat="40.59574833" lon="-3.73327">
        <ele>694.0</ele>
        <time>2018-05-26T06:43:27.147Z</time>
      </trkpt>
      <trkpt lat="40.59574833" lon="-3.73327">
        <ele>694.0</ele>
        <time>2018-05-26T06:43:28.160Z</time>
      </trkpt>
      <trkpt lat="40.59571" lon="-3.73348667">
        <ele>694.0</ele>
        <time>2018-05-26T06:43:29.136Z</time>
      </trkpt>
      <trkpt lat="40.59571" lon="-3.73348667">
        <ele>694.0</ele>
        <time>2018-05-26T06:43:30.150Z</time>
      </trkpt>
      <trkpt lat="40.59568333" lon="-3.73372667">
        <ele>694.0</ele>
        <time>2018-05-26T06:43:31.165Z</time>
      </trkpt>
      <trkpt lat="40.59568333" lon="-3.73372667">
        <ele>694.0</ele>
        <time>2018-05-26T06:43:32.140Z</time>
      </trkpt>
      <trkpt lat="40.59566833" lon="-3.73397667">
        <ele>693.0</ele>
        <time>2018-05-26T06:43:33.172Z</time>
      </trkpt>
      <trkpt lat="40.59566167" lon="-3.73410333">
        <ele>692.0</ele>
        <time>2018-05-26T06:43:34.160Z</time>
      </trkpt>
      <trkpt lat="40.59566167" lon="-3.73410333">
        <ele>692.0</ele>
        <time>2018-05-26T06:43:35.137Z</time>
      </trkpt>
      <trkpt lat="40.59564167" lon="-3.734355">
        <ele>692.0</ele>
        <time>2018-05-26T06:43:36.148Z</time>
      </trkpt>
      <trkpt lat="40.595635" lon="-3.73447667">
        <ele>691.0</ele>
        <time>2018-05-26T06:43:37.165Z</time>
      </trkpt>
      <trkpt lat="40.595635" lon="-3.73447667">
        <ele>691.0</ele>
        <time>2018-05-26T06:43:38.144Z</time>
      </trkpt>
      <trkpt lat="40.59564167" lon="-3.73472">
        <ele>690.0</ele>
        <time>2018-05-26T06:43:39.158Z</time>
      </trkpt>
      <trkpt lat="40.59564167" lon="-3.734835">
        <ele>689.0</ele>
        <time>2018-05-26T06:43:40.172Z</time>
      </trkpt>
      <trkpt lat="40.59564167" lon="-3.734835">
        <ele>689.0</ele>
        <time>2018-05-26T06:43:41.157Z</time>
      </trkpt>
      <trkpt lat="40.59563" lon="-3.73503833">
        <ele>689.0</ele>
        <time>2018-05-26T06:43:42.169Z</time>
      </trkpt>
      <trkpt lat="40.59563" lon="-3.73503833">
        <ele>689.0</ele>
        <time>2018-05-26T06:43:43.137Z</time>
      </trkpt>
      <trkpt lat="40.59562" lon="-3.735215">
        <ele>688.0</ele>
        <time>2018-05-26T06:43:44.150Z</time>
      </trkpt>
      <trkpt lat="40.59562" lon="-3.735215">
        <ele>688.0</ele>
        <time>2018-05-26T06:43:45.169Z</time>
      </trkpt>
      <trkpt lat="40.59560167" lon="-3.735385">
        <ele>687.0</ele>
        <time>2018-05-26T06:43:46.146Z</time>
      </trkpt>
      <trkpt lat="40.59560167" lon="-3.735385">
        <ele>687.0</ele>
        <time>2018-05-26T06:43:47.137Z</time>
      </trkpt>
      <trkpt lat="40.59557333" lon="-3.735545">
        <ele>686.0</ele>
        <time>2018-05-26T06:43:48.153Z</time>
      </trkpt>
      <trkpt lat="40.59557333" lon="-3.735545">
        <ele>686.0</ele>
        <time>2018-05-26T06:43:49.175Z</time>
      </trkpt>
      <trkpt lat="40.59551" lon="-3.73567667">
        <ele>685.0</ele>
        <time>2018-05-26T06:43:50.142Z</time>
      </trkpt>
      <trkpt lat="40.595465" lon="-3.735745">
        <ele>685.0</ele>
        <time>2018-05-26T06:43:51.139Z</time>
      </trkpt>
      <trkpt lat="40.595425" lon="-3.735825">
        <ele>684.0</ele>
        <time>2018-05-26T06:43:52.154Z</time>
      </trkpt>
      <trkpt lat="40.595425" lon="-3.735825">
        <ele>684.0</ele>
        <time>2018-05-26T06:43:53.174Z</time>
      </trkpt>
      <trkpt lat="40.595385" lon="-3.73602">
        <ele>683.0</ele>
        <time>2018-05-26T06:43:54.148Z</time>
      </trkpt>
      <trkpt lat="40.595385" lon="-3.73602">
        <ele>683.0</ele>
        <time>2018-05-26T06:43:55.163Z</time>
      </trkpt>
      <trkpt lat="40.59536" lon="-3.73621333">
        <ele>682.0</ele>
        <time>2018-05-26T06:43:56.172Z</time>
      </trkpt>
      <trkpt lat="40.59536" lon="-3.73621333">
        <ele>682.0</ele>
        <time>2018-05-26T06:43:57.156Z</time>
      </trkpt>
      <trkpt lat="40.59531" lon="-3.73638667">
        <ele>681.0</ele>
        <time>2018-05-26T06:43:58.162Z</time>
      </trkpt>
      <trkpt lat="40.59531" lon="-3.73638667">
        <ele>681.0</ele>
        <time>2018-05-26T06:43:59.162Z</time>
      </trkpt>
      <trkpt lat="40.59527" lon="-3.73656667">
        <ele>679.0</ele>
        <time>2018-05-26T06:44:00.162Z</time>
      </trkpt>
      <trkpt lat="40.59525167" lon="-3.73665333">
        <ele>679.0</ele>
        <time>2018-05-26T06:44:01.154Z</time>
      </trkpt>
      <trkpt lat="40.59525167" lon="-3.73665333">
        <ele>679.0</ele>
        <time>2018-05-26T06:44:02.166Z</time>
      </trkpt>
      <trkpt lat="40.595225" lon="-3.73685167">
        <ele>676.0</ele>
        <time>2018-05-26T06:44:03.141Z</time>
      </trkpt>
      <trkpt lat="40.595215" lon="-3.736955">
        <ele>676.0</ele>
        <time>2018-05-26T06:44:04.168Z</time>
      </trkpt>
      <trkpt lat="40.595215" lon="-3.736955">
        <ele>676.0</ele>
        <time>2018-05-26T06:44:05.142Z</time>
      </trkpt>
      <trkpt lat="40.59517167" lon="-3.73716833">
        <ele>675.0</ele>
        <time>2018-05-26T06:44:06.151Z</time>
      </trkpt>
      <trkpt lat="40.59514667" lon="-3.73728">
        <ele>674.0</ele>
        <time>2018-05-26T06:44:07.142Z</time>
      </trkpt>
      <trkpt lat="40.59514667" lon="-3.73728">
        <ele>674.0</ele>
        <time>2018-05-26T06:44:08.139Z</time>
      </trkpt>
      <trkpt lat="40.59511833" lon="-3.73748667">
        <ele>673.0</ele>
        <time>2018-05-26T06:44:09.150Z</time>
      </trkpt>
      <trkpt lat="40.59510833" lon="-3.73757833">
        <ele>672.0</ele>
        <time>2018-05-26T06:44:10.164Z</time>
      </trkpt>
      <trkpt lat="40.59510167" lon="-3.73766667">
        <ele>671.0</ele>
        <time>2018-05-26T06:44:11.139Z</time>
      </trkpt>
      <trkpt lat="40.59510167" lon="-3.73766667">
        <ele>671.0</ele>
        <time>2018-05-26T06:44:12.163Z</time>
      </trkpt>
      <trkpt lat="40.595075" lon="-3.73782833">
        <ele>668.0</ele>
        <time>2018-05-26T06:44:13.175Z</time>
      </trkpt>
      <trkpt lat="40.595075" lon="-3.73782833">
        <ele>668.0</ele>
        <time>2018-05-26T06:44:14.166Z</time>
      </trkpt>
      <trkpt lat="40.59499" lon="-3.73791833">
        <ele>667.0</ele>
        <time>2018-05-26T06:44:15.145Z</time>
      </trkpt>
      <trkpt lat="40.59499" lon="-3.73791833">
        <ele>667.0</ele>
        <time>2018-05-26T06:44:16.145Z</time>
      </trkpt>
      <trkpt lat="40.59485667" lon="-3.737935">
        <ele>666.0</ele>
        <time>2018-05-26T06:44:17.163Z</time>
      </trkpt>
      <trkpt lat="40.59485667" lon="-3.737935">
        <ele>666.0</ele>
        <time>2018-05-26T06:44:18.138Z</time>
      </trkpt>
      <trkpt lat="40.59469833" lon="-3.73793333">
        <ele>666.0</ele>
        <time>2018-05-26T06:44:19.141Z</time>
      </trkpt>
      <trkpt lat="40.59469833" lon="-3.73793333">
        <ele>666.0</ele>
        <time>2018-05-26T06:44:20.138Z</time>
      </trkpt>
      <trkpt lat="40.59454333" lon="-3.73798667">
        <ele>666.0</ele>
        <time>2018-05-26T06:44:21.139Z</time>
      </trkpt>
      <trkpt lat="40.59446833" lon="-3.73803167">
        <ele>666.0</ele>
        <time>2018-05-26T06:44:22.146Z</time>
      </trkpt>
      <trkpt lat="40.59446833" lon="-3.73803167">
        <ele>666.0</ele>
        <time>2018-05-26T06:44:23.169Z</time>
      </trkpt>
      <trkpt lat="40.59432667" lon="-3.73813167">
        <ele>667.0</ele>
        <time>2018-05-26T06:44:24.142Z</time>
      </trkpt>
      <trkpt lat="40.59432667" lon="-3.73813167">
        <ele>667.0</ele>
        <time>2018-05-26T06:44:25.162Z</time>
      </trkpt>
      <trkpt lat="40.59418667" lon="-3.73821333">
        <ele>666.0</ele>
        <time>2018-05-26T06:44:26.141Z</time>
      </trkpt>
      <trkpt lat="40.59410667" lon="-3.73825">
        <ele>667.0</ele>
        <time>2018-05-26T06:44:27.145Z</time>
      </trkpt>
      <trkpt lat="40.59402833" lon="-3.738295">
        <ele>666.0</ele>
        <time>2018-05-26T06:44:28.145Z</time>
      </trkpt>
      <trkpt lat="40.59402833" lon="-3.738295">
        <ele>666.0</ele>
        <time>2018-05-26T06:44:29.175Z</time>
      </trkpt>
      <trkpt lat="40.593875" lon="-3.73840667">
        <ele>665.0</ele>
        <time>2018-05-26T06:44:30.144Z</time>
      </trkpt>
      <trkpt lat="40.59380167" lon="-3.73847333">
        <ele>665.0</ele>
        <time>2018-05-26T06:44:31.163Z</time>
      </trkpt>
      <trkpt lat="40.59380167" lon="-3.73847333">
        <ele>665.0</ele>
        <time>2018-05-26T06:44:32.138Z</time>
      </trkpt>
      <trkpt lat="40.59367333" lon="-3.73862833">
        <ele>665.0</ele>
        <time>2018-05-26T06:44:33.147Z</time>
      </trkpt>
      <trkpt lat="40.59360667" lon="-3.73870333">
        <ele>664.0</ele>
        <time>2018-05-26T06:44:34.144Z</time>
      </trkpt>
      <trkpt lat="40.59360667" lon="-3.73870333">
        <ele>664.0</ele>
        <time>2018-05-26T06:44:35.167Z</time>
      </trkpt>
      <trkpt lat="40.59346667" lon="-3.738835">
        <ele>661.0</ele>
        <time>2018-05-26T06:44:36.143Z</time>
      </trkpt>
      <trkpt lat="40.59346667" lon="-3.738835">
        <ele>661.0</ele>
        <time>2018-05-26T06:44:37.167Z</time>
      </trkpt>
      <trkpt lat="40.5933" lon="-3.73888167">
        <ele>660.0</ele>
        <time>2018-05-26T06:44:38.153Z</time>
      </trkpt>
      <trkpt lat="40.5933" lon="-3.73888167">
        <ele>660.0</ele>
        <time>2018-05-26T06:44:39.137Z</time>
      </trkpt>
      <trkpt lat="40.59312333" lon="-3.738865">
        <ele>658.0</ele>
        <time>2018-05-26T06:44:40.146Z</time>
      </trkpt>
      <trkpt lat="40.59312333" lon="-3.738865">
        <ele>658.0</ele>
        <time>2018-05-26T06:44:41.147Z</time>
      </trkpt>
      <trkpt lat="40.59295167" lon="-3.738905">
        <ele>658.0</ele>
        <time>2018-05-26T06:44:42.161Z</time>
      </trkpt>
      <trkpt lat="40.59287167" lon="-3.738925">
        <ele>658.0</ele>
        <time>2018-05-26T06:44:43.175Z</time>
      </trkpt>
      <trkpt lat="40.59287167" lon="-3.738925">
        <ele>658.0</ele>
        <time>2018-05-26T06:44:44.161Z</time>
      </trkpt>
      <trkpt lat="40.592705" lon="-3.73895667">
        <ele>656.0</ele>
        <time>2018-05-26T06:44:45.137Z</time>
      </trkpt>
      <trkpt lat="40.59263333" lon="-3.73900167">
        <ele>656.0</ele>
        <time>2018-05-26T06:44:46.171Z</time>
      </trkpt>
      <trkpt lat="40.59263333" lon="-3.73900167">
        <ele>656.0</ele>
        <time>2018-05-26T06:44:47.143Z</time>
      </trkpt>
      <trkpt lat="40.59252667" lon="-3.73916333">
        <ele>655.0</ele>
        <time>2018-05-26T06:44:48.151Z</time>
      </trkpt>
      <trkpt lat="40.592485" lon="-3.739245">
        <ele>654.0</ele>
        <time>2018-05-26T06:44:49.173Z</time>
      </trkpt>
      <trkpt lat="40.592485" lon="-3.739245">
        <ele>654.0</ele>
        <time>2018-05-26T06:44:50.163Z</time>
      </trkpt>
      <trkpt lat="40.59240333" lon="-3.73931333">
        <ele>654.0</ele>
        <time>2018-05-26T06:44:51.175Z</time>
      </trkpt>
      <trkpt lat="40.59240333" lon="-3.73931333">
        <ele>654.0</ele>
        <time>2018-05-26T06:44:52.153Z</time>
      </trkpt>
      <trkpt lat="40.5923" lon="-3.73930667">
        <ele>654.0</ele>
        <time>2018-05-26T06:44:53.140Z</time>
      </trkpt>
      <trkpt lat="40.5923" lon="-3.73930667">
        <ele>654.0</ele>
        <time>2018-05-26T06:44:54.143Z</time>
      </trkpt>
      <trkpt lat="40.59218" lon="-3.73931167">
        <ele>655.0</ele>
        <time>2018-05-26T06:44:55.157Z</time>
      </trkpt>
      <trkpt lat="40.59211833" lon="-3.73931833">
        <ele>655.0</ele>
        <time>2018-05-26T06:44:56.144Z</time>
      </trkpt>
      <trkpt lat="40.59211833" lon="-3.73931833">
        <ele>655.0</ele>
        <time>2018-05-26T06:44:57.137Z</time>
      </trkpt>
      <trkpt lat="40.592005" lon="-3.73932167">
        <ele>655.0</ele>
        <time>2018-05-26T06:44:58.152Z</time>
      </trkpt>
      <trkpt lat="40.592005" lon="-3.73932167">
        <ele>655.0</ele>
        <time>2018-05-26T06:44:59.164Z</time>
      </trkpt>
      <trkpt lat="40.59190833" lon="-3.73930167">
        <ele>656.0</ele>
        <time>2018-05-26T06:45:00.151Z</time>
      </trkpt>
      <trkpt lat="40.59190833" lon="-3.73930167">
        <ele>656.0</ele>
        <time>2018-05-26T06:45:01.169Z</time>
      </trkpt>
      <trkpt lat="40.59180333" lon="-3.739285">
        <ele>656.0</ele>
        <time>2018-05-26T06:45:02.139Z</time>
      </trkpt>
      <trkpt lat="40.59175" lon="-3.73926">
        <ele>656.0</ele>
        <time>2018-05-26T06:45:03.167Z</time>
      </trkpt>
      <trkpt lat="40.5917" lon="-3.73922167">
        <ele>657.0</ele>
        <time>2018-05-26T06:45:04.174Z</time>
      </trkpt>
      <trkpt lat="40.5917" lon="-3.73922167">
        <ele>657.0</ele>
        <time>2018-05-26T06:45:05.159Z</time>
      </trkpt>
      <trkpt lat="40.591605" lon="-3.73916">
        <ele>657.0</ele>
        <time>2018-05-26T06:45:06.168Z</time>
      </trkpt>
      <trkpt lat="40.59155833" lon="-3.73917">
        <ele>657.0</ele>
        <time>2018-05-26T06:45:07.165Z</time>
      </trkpt>
      <trkpt lat="40.591525" lon="-3.73919833">
        <ele>656.0</ele>
        <time>2018-05-26T06:45:08.145Z</time>
      </trkpt>
      <trkpt lat="40.591525" lon="-3.73919833">
        <ele>656.0</ele>
        <time>2018-05-26T06:45:09.164Z</time>
      </trkpt>
      <trkpt lat="40.59149167" lon="-3.739275">
        <ele>656.0</ele>
        <time>2018-05-26T06:45:10.143Z</time>
      </trkpt>
      <trkpt lat="40.59149167" lon="-3.739275">
        <ele>656.0</ele>
        <time>2018-05-26T06:45:11.163Z</time>
      </trkpt>
      <trkpt lat="40.59148333" lon="-3.73935167">
        <ele>656.0</ele>
        <time>2018-05-26T06:45:12.169Z</time>
      </trkpt>
      <trkpt lat="40.59147" lon="-3.73939167">
        <ele>657.0</ele>
        <time>2018-05-26T06:45:13.149Z</time>
      </trkpt>
      <trkpt lat="40.59147" lon="-3.73939167">
        <ele>657.0</ele>
        <time>2018-05-26T06:45:14.162Z</time>
      </trkpt>
      <trkpt lat="40.59143333" lon="-3.73947667">
        <ele>657.0</ele>
        <time>2018-05-26T06:45:15.140Z</time>
      </trkpt>
      <trkpt lat="40.59141667" lon="-3.73951833">
        <ele>657.0</ele>
        <time>2018-05-26T06:45:16.160Z</time>
      </trkpt>
      <trkpt lat="40.59141667" lon="-3.73951833">
        <ele>657.0</ele>
        <time>2018-05-26T06:45:17.172Z</time>
      </trkpt>
      <trkpt lat="40.59139" lon="-3.73959333">
        <ele>657.0</ele>
        <time>2018-05-26T06:45:18.147Z</time>
      </trkpt>
      <trkpt lat="40.59139" lon="-3.73959333">
        <ele>657.0</ele>
        <time>2018-05-26T06:45:19.161Z</time>
      </trkpt>
      <trkpt lat="40.59135667" lon="-3.73966167">
        <ele>658.0</ele>
        <time>2018-05-26T06:45:20.173Z</time>
      </trkpt>
      <trkpt lat="40.59135667" lon="-3.73966167">
        <ele>658.0</ele>
        <time>2018-05-26T06:45:21.150Z</time>
      </trkpt>
      <trkpt lat="40.59132167" lon="-3.739725">
        <ele>658.0</ele>
        <time>2018-05-26T06:45:22.150Z</time>
      </trkpt>
      <trkpt lat="40.59132167" lon="-3.739725">
        <ele>658.0</ele>
        <time>2018-05-26T06:45:23.138Z</time>
      </trkpt>
      <trkpt lat="40.591295" lon="-3.73979">
        <ele>658.0</ele>
        <time>2018-05-26T06:45:24.148Z</time>
      </trkpt>
      <trkpt lat="40.59128" lon="-3.73981">
        <ele>659.0</ele>
        <time>2018-05-26T06:45:25.142Z</time>
      </trkpt>
      <trkpt lat="40.59128" lon="-3.73981">
        <ele>659.0</ele>
        <time>2018-05-26T06:45:26.159Z</time>
      </trkpt>
      <trkpt lat="40.59125833" lon="-3.73985">
        <ele>659.0</ele>
        <time>2018-05-26T06:45:27.139Z</time>
      </trkpt>
      <trkpt lat="40.59124833" lon="-3.73986667">
        <ele>660.0</ele>
        <time>2018-05-26T06:45:28.168Z</time>
      </trkpt>
      <trkpt lat="40.59124833" lon="-3.73986667">
        <ele>660.0</ele>
        <time>2018-05-26T06:45:29.148Z</time>
      </trkpt>
      <trkpt lat="40.59122333" lon="-3.73989833">
        <ele>661.0</ele>
        <time>2018-05-26T06:45:30.161Z</time>
      </trkpt>
      <trkpt lat="40.59122333" lon="-3.73989833">
        <ele>661.0</ele>
        <time>2018-05-26T06:45:31.143Z</time>
      </trkpt>
      <trkpt lat="40.59121" lon="-3.73994">
        <ele>661.0</ele>
        <time>2018-05-26T06:45:32.141Z</time>
      </trkpt>
      <trkpt lat="40.591205" lon="-3.739965">
        <ele>662.0</ele>
        <time>2018-05-26T06:45:33.150Z</time>
      </trkpt>
      <trkpt lat="40.591205" lon="-3.739965">
        <ele>662.0</ele>
        <time>2018-05-26T06:45:34.166Z</time>
      </trkpt>
      <trkpt lat="40.591205" lon="-3.74001">
        <ele>663.0</ele>
        <time>2018-05-26T06:45:35.141Z</time>
      </trkpt>
      <trkpt lat="40.591205" lon="-3.74001">
        <ele>663.0</ele>
        <time>2018-05-26T06:45:36.166Z</time>
      </trkpt>
      <trkpt lat="40.59120667" lon="-3.74005833">
        <ele>664.0</ele>
        <time>2018-05-26T06:45:37.147Z</time>
      </trkpt>
      <trkpt lat="40.59120667" lon="-3.74005833">
        <ele>664.0</ele>
        <time>2018-05-26T06:45:38.149Z</time>
      </trkpt>
      <trkpt lat="40.59121333" lon="-3.74010667">
        <ele>665.0</ele>
        <time>2018-05-26T06:45:39.159Z</time>
      </trkpt>
      <trkpt lat="40.59121333" lon="-3.74010667">
        <ele>665.0</ele>
        <time>2018-05-26T06:45:40.137Z</time>
      </trkpt>
      <trkpt lat="40.59122333" lon="-3.74016">
        <ele>665.0</ele>
        <time>2018-05-26T06:45:41.155Z</time>
      </trkpt>
      <trkpt lat="40.591225" lon="-3.74018833">
        <ele>666.0</ele>
        <time>2018-05-26T06:45:42.146Z</time>
      </trkpt>
      <trkpt lat="40.591225" lon="-3.74018833">
        <ele>666.0</ele>
        <time>2018-05-26T06:45:43.139Z</time>
      </trkpt>
      <trkpt lat="40.59123667" lon="-3.74024167">
        <ele>667.0</ele>
        <time>2018-05-26T06:45:44.148Z</time>
      </trkpt>
      <trkpt lat="40.59124" lon="-3.74027167">
        <ele>667.0</ele>
        <time>2018-05-26T06:45:45.166Z</time>
      </trkpt>
      <trkpt lat="40.591245" lon="-3.740305">
        <ele>668.0</ele>
        <time>2018-05-26T06:45:46.150Z</time>
      </trkpt>
      <trkpt lat="40.591245" lon="-3.740305">
        <ele>668.0</ele>
        <time>2018-05-26T06:45:47.159Z</time>
      </trkpt>
      <trkpt lat="40.59125833" lon="-3.74037667">
        <ele>668.0</ele>
        <time>2018-05-26T06:45:48.173Z</time>
      </trkpt>
      <trkpt lat="40.59125833" lon="-3.74037667">
        <ele>668.0</ele>
        <time>2018-05-26T06:45:49.149Z</time>
      </trkpt>
      <trkpt lat="40.591285" lon="-3.74045167">
        <ele>669.0</ele>
        <time>2018-05-26T06:45:50.167Z</time>
      </trkpt>
      <trkpt lat="40.591285" lon="-3.74045167">
        <ele>669.0</ele>
        <time>2018-05-26T06:45:51.145Z</time>
      </trkpt>
      <trkpt lat="40.59132667" lon="-3.74053333">
        <ele>669.0</ele>
        <time>2018-05-26T06:45:52.154Z</time>
      </trkpt>
      <trkpt lat="40.59132667" lon="-3.74053333">
        <ele>669.0</ele>
        <time>2018-05-26T06:45:53.141Z</time>
      </trkpt>
      <trkpt lat="40.59138167" lon="-3.740625">
        <ele>670.0</ele>
        <time>2018-05-26T06:45:54.151Z</time>
      </trkpt>
      <trkpt lat="40.59138167" lon="-3.740625">
        <ele>670.0</ele>
        <time>2018-05-26T06:45:55.137Z</time>
      </trkpt>
      <trkpt lat="40.59144" lon="-3.74072333">
        <ele>669.0</ele>
        <time>2018-05-26T06:45:56.187Z</time>
      </trkpt>
      <trkpt lat="40.59144" lon="-3.74072333">
        <ele>669.0</ele>
        <time>2018-05-26T06:45:57.157Z</time>
      </trkpt>
      <trkpt lat="40.59149" lon="-3.74083167">
        <ele>669.0</ele>
        <time>2018-05-26T06:45:58.168Z</time>
      </trkpt>
      <trkpt lat="40.59149" lon="-3.74083167">
        <ele>669.0</ele>
        <time>2018-05-26T06:45:59.144Z</time>
      </trkpt>
      <trkpt lat="40.59151833" lon="-3.74094833">
        <ele>669.0</ele>
        <time>2018-05-26T06:46:00.159Z</time>
      </trkpt>
      <trkpt lat="40.59151833" lon="-3.74094833">
        <ele>669.0</ele>
        <time>2018-05-26T06:46:01.154Z</time>
      </trkpt>
      <trkpt lat="40.59154333" lon="-3.74107833">
        <ele>669.0</ele>
        <time>2018-05-26T06:46:02.162Z</time>
      </trkpt>
      <trkpt lat="40.59154333" lon="-3.74107833">
        <ele>669.0</ele>
        <time>2018-05-26T06:46:03.137Z</time>
      </trkpt>
      <trkpt lat="40.59156" lon="-3.74121">
        <ele>670.0</ele>
        <time>2018-05-26T06:46:04.148Z</time>
      </trkpt>
      <trkpt lat="40.59156" lon="-3.74121">
        <ele>670.0</ele>
        <time>2018-05-26T06:46:05.139Z</time>
      </trkpt>
      <trkpt lat="40.59156667" lon="-3.74132667">
        <ele>670.0</ele>
        <time>2018-05-26T06:46:06.149Z</time>
      </trkpt>
      <trkpt lat="40.59156667" lon="-3.74132667">
        <ele>670.0</ele>
        <time>2018-05-26T06:46:07.153Z</time>
      </trkpt>
      <trkpt lat="40.59156667" lon="-3.74142833">
        <ele>670.0</ele>
        <time>2018-05-26T06:46:08.161Z</time>
      </trkpt>
      <trkpt lat="40.59156667" lon="-3.74142833">
        <ele>670.0</ele>
        <time>2018-05-26T06:46:09.138Z</time>
      </trkpt>
      <trkpt lat="40.59157333" lon="-3.741515">
        <ele>671.0</ele>
        <time>2018-05-26T06:46:10.152Z</time>
      </trkpt>
      <trkpt lat="40.59157333" lon="-3.741515">
        <ele>671.0</ele>
        <time>2018-05-26T06:46:11.175Z</time>
      </trkpt>
      <trkpt lat="40.59157833" lon="-3.7416">
        <ele>671.0</ele>
        <time>2018-05-26T06:46:12.167Z</time>
      </trkpt>
      <trkpt lat="40.59157833" lon="-3.7416">
        <ele>671.0</ele>
        <time>2018-05-26T06:46:13.143Z</time>
      </trkpt>
      <trkpt lat="40.59157167" lon="-3.74167167">
        <ele>672.0</ele>
        <time>2018-05-26T06:46:14.154Z</time>
      </trkpt>
      <trkpt lat="40.59157167" lon="-3.74167167">
        <ele>672.0</ele>
        <time>2018-05-26T06:46:15.136Z</time>
      </trkpt>
      <trkpt lat="40.591575" lon="-3.74174667">
        <ele>672.0</ele>
        <time>2018-05-26T06:46:16.145Z</time>
      </trkpt>
      <trkpt lat="40.59157833" lon="-3.74178667">
        <ele>672.0</ele>
        <time>2018-05-26T06:46:17.169Z</time>
      </trkpt>
      <trkpt lat="40.59157833" lon="-3.74178667">
        <ele>672.0</ele>
        <time>2018-05-26T06:46:18.136Z</time>
      </trkpt>
      <trkpt lat="40.59160167" lon="-3.74187167">
        <ele>672.0</ele>
        <time>2018-05-26T06:46:19.150Z</time>
      </trkpt>
      <trkpt lat="40.59160167" lon="-3.74187167">
        <ele>672.0</ele>
        <time>2018-05-26T06:46:20.162Z</time>
      </trkpt>
      <trkpt lat="40.591625" lon="-3.74195833">
        <ele>673.0</ele>
        <time>2018-05-26T06:46:21.175Z</time>
      </trkpt>
      <trkpt lat="40.591625" lon="-3.74195833">
        <ele>673.0</ele>
        <time>2018-05-26T06:46:22.140Z</time>
      </trkpt>
      <trkpt lat="40.59164333" lon="-3.74204333">
        <ele>673.0</ele>
        <time>2018-05-26T06:46:23.162Z</time>
      </trkpt>
      <trkpt lat="40.59164333" lon="-3.74204333">
        <ele>673.0</ele>
        <time>2018-05-26T06:46:24.150Z</time>
      </trkpt>
      <trkpt lat="40.59168667" lon="-3.74213333">
        <ele>674.0</ele>
        <time>2018-05-26T06:46:25.162Z</time>
      </trkpt>
      <trkpt lat="40.59171" lon="-3.74218">
        <ele>674.0</ele>
        <time>2018-05-26T06:46:26.163Z</time>
      </trkpt>
      <trkpt lat="40.59171" lon="-3.74218">
        <ele>674.0</ele>
        <time>2018-05-26T06:46:27.155Z</time>
      </trkpt>
      <trkpt lat="40.59174667" lon="-3.74227167">
        <ele>674.0</ele>
        <time>2018-05-26T06:46:28.175Z</time>
      </trkpt>
      <trkpt lat="40.59174667" lon="-3.74227167">
        <ele>674.0</ele>
        <time>2018-05-26T06:46:29.145Z</time>
      </trkpt>
      <trkpt lat="40.59177833" lon="-3.74237167">
        <ele>674.0</ele>
        <time>2018-05-26T06:46:30.154Z</time>
      </trkpt>
      <trkpt lat="40.59177833" lon="-3.74237167">
        <ele>674.0</ele>
        <time>2018-05-26T06:46:31.143Z</time>
      </trkpt>
      <trkpt lat="40.59181833" lon="-3.74247667">
        <ele>673.0</ele>
        <time>2018-05-26T06:46:32.137Z</time>
      </trkpt>
      <trkpt lat="40.59183333" lon="-3.74252667">
        <ele>673.0</ele>
        <time>2018-05-26T06:46:33.167Z</time>
      </trkpt>
      <trkpt lat="40.59183333" lon="-3.74252667">
        <ele>673.0</ele>
        <time>2018-05-26T06:46:34.147Z</time>
      </trkpt>
      <trkpt lat="40.59186167" lon="-3.74264">
        <ele>673.0</ele>
        <time>2018-05-26T06:46:35.158Z</time>
      </trkpt>
      <trkpt lat="40.59186167" lon="-3.74264">
        <ele>673.0</ele>
        <time>2018-05-26T06:46:36.143Z</time>
      </trkpt>
      <trkpt lat="40.59188833" lon="-3.742755">
        <ele>673.0</ele>
        <time>2018-05-26T06:46:37.155Z</time>
      </trkpt>
      <trkpt lat="40.59188833" lon="-3.742755">
        <ele>673.0</ele>
        <time>2018-05-26T06:46:38.171Z</time>
      </trkpt>
      <trkpt lat="40.59192667" lon="-3.74287">
        <ele>672.0</ele>
        <time>2018-05-26T06:46:39.149Z</time>
      </trkpt>
      <trkpt lat="40.59195333" lon="-3.742925">
        <ele>673.0</ele>
        <time>2018-05-26T06:46:40.171Z</time>
      </trkpt>
      <trkpt lat="40.59195333" lon="-3.742925">
        <ele>673.0</ele>
        <time>2018-05-26T06:46:41.141Z</time>
      </trkpt>
      <trkpt lat="40.59199667" lon="-3.74303833">
        <ele>672.0</ele>
        <time>2018-05-26T06:46:42.155Z</time>
      </trkpt>
      <trkpt lat="40.59201167" lon="-3.743095">
        <ele>672.0</ele>
        <time>2018-05-26T06:46:43.142Z</time>
      </trkpt>
      <trkpt lat="40.59202667" lon="-3.74315167">
        <ele>672.0</ele>
        <time>2018-05-26T06:46:44.172Z</time>
      </trkpt>
      <trkpt lat="40.59202667" lon="-3.74315167">
        <ele>672.0</ele>
        <time>2018-05-26T06:46:45.152Z</time>
      </trkpt>
      <trkpt lat="40.59205167" lon="-3.74327167">
        <ele>672.0</ele>
        <time>2018-05-26T06:46:46.162Z</time>
      </trkpt>
      <trkpt lat="40.59205167" lon="-3.74327167">
        <ele>672.0</ele>
        <time>2018-05-26T06:46:47.144Z</time>
      </trkpt>
      <trkpt lat="40.59207" lon="-3.74339167">
        <ele>673.0</ele>
        <time>2018-05-26T06:46:48.155Z</time>
      </trkpt>
      <trkpt lat="40.59207667" lon="-3.74345333">
        <ele>672.0</ele>
        <time>2018-05-26T06:46:49.175Z</time>
      </trkpt>
      <trkpt lat="40.59207667" lon="-3.74345333">
        <ele>672.0</ele>
        <time>2018-05-26T06:46:50.165Z</time>
      </trkpt>
      <trkpt lat="40.59209667" lon="-3.74357333">
        <ele>672.0</ele>
        <time>2018-05-26T06:46:51.144Z</time>
      </trkpt>
      <trkpt lat="40.5921" lon="-3.743635">
        <ele>673.0</ele>
        <time>2018-05-26T06:46:52.168Z</time>
      </trkpt>
      <trkpt lat="40.5921" lon="-3.743635">
        <ele>673.0</ele>
        <time>2018-05-26T06:46:53.137Z</time>
      </trkpt>
      <trkpt lat="40.592105" lon="-3.74375333">
        <ele>673.0</ele>
        <time>2018-05-26T06:46:54.149Z</time>
      </trkpt>
      <trkpt lat="40.59210667" lon="-3.74381333">
        <ele>674.0</ele>
        <time>2018-05-26T06:46:55.151Z</time>
      </trkpt>
      <trkpt lat="40.59210667" lon="-3.74381333">
        <ele>674.0</ele>
        <time>2018-05-26T06:46:56.170Z</time>
      </trkpt>
      <trkpt lat="40.592125" lon="-3.74393">
        <ele>674.0</ele>
        <time>2018-05-26T06:46:57.138Z</time>
      </trkpt>
      <trkpt lat="40.59213833" lon="-3.74398667">
        <ele>674.0</ele>
        <time>2018-05-26T06:46:58.173Z</time>
      </trkpt>
      <trkpt lat="40.59213833" lon="-3.74398667">
        <ele>674.0</ele>
        <time>2018-05-26T06:46:59.154Z</time>
      </trkpt>
      <trkpt lat="40.592165" lon="-3.74409667">
        <ele>675.0</ele>
        <time>2018-05-26T06:47:00.143Z</time>
      </trkpt>
      <trkpt lat="40.592165" lon="-3.74409667">
        <ele>675.0</ele>
        <time>2018-05-26T06:47:01.137Z</time>
      </trkpt>
      <trkpt lat="40.59217667" lon="-3.74421167">
        <ele>675.0</ele>
        <time>2018-05-26T06:47:02.154Z</time>
      </trkpt>
      <trkpt lat="40.59217667" lon="-3.74421167">
        <ele>675.0</ele>
        <time>2018-05-26T06:47:03.169Z</time>
      </trkpt>
      <trkpt lat="40.59218833" lon="-3.74433167">
        <ele>675.0</ele>
        <time>2018-05-26T06:47:04.139Z</time>
      </trkpt>
      <trkpt lat="40.59218833" lon="-3.74433167">
        <ele>675.0</ele>
        <time>2018-05-26T06:47:05.156Z</time>
      </trkpt>
      <trkpt lat="40.59219833" lon="-3.74444833">
        <ele>675.0</ele>
        <time>2018-05-26T06:47:06.170Z</time>
      </trkpt>
      <trkpt lat="40.59219833" lon="-3.74444833">
        <ele>675.0</ele>
        <time>2018-05-26T06:47:07.150Z</time>
      </trkpt>
      <trkpt lat="40.592205" lon="-3.74456167">
        <ele>676.0</ele>
        <time>2018-05-26T06:47:08.170Z</time>
      </trkpt>
      <trkpt lat="40.59220333" lon="-3.74461833">
        <ele>676.0</ele>
        <time>2018-05-26T06:47:09.146Z</time>
      </trkpt>
      <trkpt lat="40.59220333" lon="-3.74461833">
        <ele>676.0</ele>
        <time>2018-05-26T06:47:10.162Z</time>
      </trkpt>
      <trkpt lat="40.59220167" lon="-3.74472">
        <ele>676.0</ele>
        <time>2018-05-26T06:47:11.171Z</time>
      </trkpt>
      <trkpt lat="40.59220167" lon="-3.74472">
        <ele>676.0</ele>
        <time>2018-05-26T06:47:12.154Z</time>
      </trkpt>
      <trkpt lat="40.5922" lon="-3.74482167">
        <ele>677.0</ele>
        <time>2018-05-26T06:47:13.170Z</time>
      </trkpt>
      <trkpt lat="40.5922" lon="-3.74482167">
        <ele>677.0</ele>
        <time>2018-05-26T06:47:14.149Z</time>
      </trkpt>
      <trkpt lat="40.592195" lon="-3.744925">
        <ele>678.0</ele>
        <time>2018-05-26T06:47:15.138Z</time>
      </trkpt>
      <trkpt lat="40.592195" lon="-3.744925">
        <ele>678.0</ele>
        <time>2018-05-26T06:47:16.154Z</time>
      </trkpt>
      <trkpt lat="40.59219" lon="-3.74502667">
        <ele>679.0</ele>
        <time>2018-05-26T06:47:17.164Z</time>
      </trkpt>
      <trkpt lat="40.59219167" lon="-3.74507333">
        <ele>679.0</ele>
        <time>2018-05-26T06:47:18.156Z</time>
      </trkpt>
      <trkpt lat="40.59219167" lon="-3.74507333">
        <ele>679.0</ele>
        <time>2018-05-26T06:47:19.139Z</time>
      </trkpt>
      <trkpt lat="40.59219833" lon="-3.74517333">
        <ele>679.0</ele>
        <time>2018-05-26T06:47:20.147Z</time>
      </trkpt>
      <trkpt lat="40.59220167" lon="-3.74522333">
        <ele>679.0</ele>
        <time>2018-05-26T06:47:21.170Z</time>
      </trkpt>
      <trkpt lat="40.59221" lon="-3.74527333">
        <ele>679.0</ele>
        <time>2018-05-26T06:47:22.142Z</time>
      </trkpt>
      <trkpt lat="40.592225" lon="-3.745325">
        <ele>680.0</ele>
        <time>2018-05-26T06:47:23.165Z</time>
      </trkpt>
      <trkpt lat="40.592225" lon="-3.745325">
        <ele>680.0</ele>
        <time>2018-05-26T06:47:24.145Z</time>
      </trkpt>
      <trkpt lat="40.59224833" lon="-3.74543167">
        <ele>680.0</ele>
        <time>2018-05-26T06:47:25.154Z</time>
      </trkpt>
      <trkpt lat="40.59224833" lon="-3.74543167">
        <ele>680.0</ele>
        <time>2018-05-26T06:47:26.171Z</time>
      </trkpt>
      <trkpt lat="40.59227" lon="-3.74554667">
        <ele>680.0</ele>
        <time>2018-05-26T06:47:27.153Z</time>
      </trkpt>
      <trkpt lat="40.59227" lon="-3.74554667">
        <ele>680.0</ele>
        <time>2018-05-26T06:47:28.152Z</time>
      </trkpt>
      <trkpt lat="40.59228833" lon="-3.745665">
        <ele>680.0</ele>
        <time>2018-05-26T06:47:29.161Z</time>
      </trkpt>
      <trkpt lat="40.59228833" lon="-3.745665">
        <ele>680.0</ele>
        <time>2018-05-26T06:47:30.137Z</time>
      </trkpt>
      <trkpt lat="40.59230667" lon="-3.74578667">
        <ele>680.0</ele>
        <time>2018-05-26T06:47:31.147Z</time>
      </trkpt>
      <trkpt lat="40.59231667" lon="-3.74584833">
        <ele>680.0</ele>
        <time>2018-05-26T06:47:32.158Z</time>
      </trkpt>
      <trkpt lat="40.59231667" lon="-3.74584833">
        <ele>680.0</ele>
        <time>2018-05-26T06:47:33.159Z</time>
      </trkpt>
      <trkpt lat="40.59234167" lon="-3.74597167">
        <ele>680.0</ele>
        <time>2018-05-26T06:47:34.173Z</time>
      </trkpt>
      <trkpt lat="40.59234167" lon="-3.74597167">
        <ele>680.0</ele>
        <time>2018-05-26T06:47:35.155Z</time>
      </trkpt>
      <trkpt lat="40.59236" lon="-3.74609667">
        <ele>680.0</ele>
        <time>2018-05-26T06:47:36.167Z</time>
      </trkpt>
      <trkpt lat="40.59236" lon="-3.74609667">
        <ele>680.0</ele>
        <time>2018-05-26T06:47:37.143Z</time>
      </trkpt>
      <trkpt lat="40.59237667" lon="-3.74621667">
        <ele>680.0</ele>
        <time>2018-05-26T06:47:38.159Z</time>
      </trkpt>
      <trkpt lat="40.59237667" lon="-3.74621667">
        <ele>680.0</ele>
        <time>2018-05-26T06:47:39.168Z</time>
      </trkpt>
      <trkpt lat="40.5924" lon="-3.74633333">
        <ele>680.0</ele>
        <time>2018-05-26T06:47:40.150Z</time>
      </trkpt>
      <trkpt lat="40.5924" lon="-3.74633333">
        <ele>680.0</ele>
        <time>2018-05-26T06:47:41.168Z</time>
      </trkpt>
      <trkpt lat="40.59242" lon="-3.74645667">
        <ele>680.0</ele>
        <time>2018-05-26T06:47:42.141Z</time>
      </trkpt>
      <trkpt lat="40.59242" lon="-3.74645667">
        <ele>680.0</ele>
        <time>2018-05-26T06:47:43.171Z</time>
      </trkpt>
      <trkpt lat="40.592435" lon="-3.74657833">
        <ele>681.0</ele>
        <time>2018-05-26T06:47:44.145Z</time>
      </trkpt>
      <trkpt lat="40.592435" lon="-3.74657833">
        <ele>681.0</ele>
        <time>2018-05-26T06:47:45.138Z</time>
      </trkpt>
      <trkpt lat="40.59245167" lon="-3.74669333">
        <ele>681.0</ele>
        <time>2018-05-26T06:47:46.146Z</time>
      </trkpt>
      <trkpt lat="40.59245167" lon="-3.74669333">
        <ele>681.0</ele>
        <time>2018-05-26T06:47:47.163Z</time>
      </trkpt>
      <trkpt lat="40.59246833" lon="-3.74681">
        <ele>681.0</ele>
        <time>2018-05-26T06:47:48.174Z</time>
      </trkpt>
      <trkpt lat="40.59247833" lon="-3.74686833">
        <ele>681.0</ele>
        <time>2018-05-26T06:47:49.154Z</time>
      </trkpt>
      <trkpt lat="40.59247833" lon="-3.74686833">
        <ele>681.0</ele>
        <time>2018-05-26T06:47:50.173Z</time>
      </trkpt>
      <trkpt lat="40.59249167" lon="-3.74698833">
        <ele>681.0</ele>
        <time>2018-05-26T06:47:51.140Z</time>
      </trkpt>
      <trkpt lat="40.59249167" lon="-3.74698833">
        <ele>681.0</ele>
        <time>2018-05-26T06:47:52.161Z</time>
      </trkpt>
      <trkpt lat="40.59250333" lon="-3.74711">
        <ele>681.0</ele>
        <time>2018-05-26T06:47:53.170Z</time>
      </trkpt>
      <trkpt lat="40.59250333" lon="-3.74711">
        <ele>681.0</ele>
        <time>2018-05-26T06:47:54.152Z</time>
      </trkpt>
      <trkpt lat="40.59251833" lon="-3.74723333">
        <ele>681.0</ele>
        <time>2018-05-26T06:47:55.164Z</time>
      </trkpt>
      <trkpt lat="40.59252833" lon="-3.747295">
        <ele>682.0</ele>
        <time>2018-05-26T06:47:56.145Z</time>
      </trkpt>
      <trkpt lat="40.59252833" lon="-3.747295">
        <ele>682.0</ele>
        <time>2018-05-26T06:47:57.166Z</time>
      </trkpt>
      <trkpt lat="40.59254333" lon="-3.74740833">
        <ele>682.0</ele>
        <time>2018-05-26T06:47:58.179Z</time>
      </trkpt>
      <trkpt lat="40.59254333" lon="-3.74740833">
        <ele>682.0</ele>
        <time>2018-05-26T06:47:59.149Z</time>
      </trkpt>
      <trkpt lat="40.59256167" lon="-3.74752333">
        <ele>682.0</ele>
        <time>2018-05-26T06:48:00.171Z</time>
      </trkpt>
      <trkpt lat="40.59257" lon="-3.74758333">
        <ele>682.0</ele>
        <time>2018-05-26T06:48:01.164Z</time>
      </trkpt>
      <trkpt lat="40.59257833" lon="-3.74764167">
        <ele>682.0</ele>
        <time>2018-05-26T06:48:02.164Z</time>
      </trkpt>
      <trkpt lat="40.59257833" lon="-3.74764167">
        <ele>682.0</ele>
        <time>2018-05-26T06:48:03.141Z</time>
      </trkpt>
      <trkpt lat="40.59259" lon="-3.74776">
        <ele>682.0</ele>
        <time>2018-05-26T06:48:04.150Z</time>
      </trkpt>
      <trkpt lat="40.59259" lon="-3.74776">
        <ele>682.0</ele>
        <time>2018-05-26T06:48:05.171Z</time>
      </trkpt>
      <trkpt lat="40.59260333" lon="-3.74788167">
        <ele>683.0</ele>
        <time>2018-05-26T06:48:06.149Z</time>
      </trkpt>
      <trkpt lat="40.59260333" lon="-3.74788167">
        <ele>683.0</ele>
        <time>2018-05-26T06:48:07.162Z</time>
      </trkpt>
      <trkpt lat="40.59262333" lon="-3.74799833">
        <ele>683.0</ele>
        <time>2018-05-26T06:48:08.169Z</time>
      </trkpt>
      <trkpt lat="40.59262333" lon="-3.74799833">
        <ele>683.0</ele>
        <time>2018-05-26T06:48:09.137Z</time>
      </trkpt>
      <trkpt lat="40.59264" lon="-3.74811667">
        <ele>683.0</ele>
        <time>2018-05-26T06:48:10.148Z</time>
      </trkpt>
      <trkpt lat="40.59264" lon="-3.74811667">
        <ele>683.0</ele>
        <time>2018-05-26T06:48:11.164Z</time>
      </trkpt>
      <trkpt lat="40.592655" lon="-3.74823333">
        <ele>683.0</ele>
        <time>2018-05-26T06:48:12.165Z</time>
      </trkpt>
      <trkpt lat="40.592655" lon="-3.74823333">
        <ele>683.0</ele>
        <time>2018-05-26T06:48:13.150Z</time>
      </trkpt>
      <trkpt lat="40.59267" lon="-3.74834833">
        <ele>684.0</ele>
        <time>2018-05-26T06:48:14.161Z</time>
      </trkpt>
      <trkpt lat="40.59267" lon="-3.74834833">
        <ele>684.0</ele>
        <time>2018-05-26T06:48:15.146Z</time>
      </trkpt>
      <trkpt lat="40.59269" lon="-3.74846333">
        <ele>684.0</ele>
        <time>2018-05-26T06:48:16.153Z</time>
      </trkpt>
      <trkpt lat="40.59269" lon="-3.74846333">
        <ele>684.0</ele>
        <time>2018-05-26T06:48:17.165Z</time>
      </trkpt>
      <trkpt lat="40.592705" lon="-3.74858">
        <ele>684.0</ele>
        <time>2018-05-26T06:48:18.166Z</time>
      </trkpt>
      <trkpt lat="40.592705" lon="-3.74858">
        <ele>684.0</ele>
        <time>2018-05-26T06:48:19.147Z</time>
      </trkpt>
      <trkpt lat="40.59271667" lon="-3.748695">
        <ele>684.0</ele>
        <time>2018-05-26T06:48:20.155Z</time>
      </trkpt>
      <trkpt lat="40.59272333" lon="-3.748755">
        <ele>685.0</ele>
        <time>2018-05-26T06:48:21.173Z</time>
      </trkpt>
      <trkpt lat="40.59273" lon="-3.748815">
        <ele>685.0</ele>
        <time>2018-05-26T06:48:22.149Z</time>
      </trkpt>
      <trkpt lat="40.59273" lon="-3.748815">
        <ele>685.0</ele>
        <time>2018-05-26T06:48:23.139Z</time>
      </trkpt>
      <trkpt lat="40.592745" lon="-3.74894167">
        <ele>684.0</ele>
        <time>2018-05-26T06:48:24.148Z</time>
      </trkpt>
      <trkpt lat="40.592745" lon="-3.74894167">
        <ele>684.0</ele>
        <time>2018-05-26T06:48:25.144Z</time>
      </trkpt>
      <trkpt lat="40.59275333" lon="-3.74907">
        <ele>685.0</ele>
        <time>2018-05-26T06:48:26.145Z</time>
      </trkpt>
      <trkpt lat="40.59275333" lon="-3.74907">
        <ele>685.0</ele>
        <time>2018-05-26T06:48:27.159Z</time>
      </trkpt>
      <trkpt lat="40.59276667" lon="-3.74919333">
        <ele>685.0</ele>
        <time>2018-05-26T06:48:28.168Z</time>
      </trkpt>
      <trkpt lat="40.59276667" lon="-3.74919333">
        <ele>685.0</ele>
        <time>2018-05-26T06:48:29.140Z</time>
      </trkpt>
      <trkpt lat="40.592785" lon="-3.74931667">
        <ele>685.0</ele>
        <time>2018-05-26T06:48:30.150Z</time>
      </trkpt>
      <trkpt lat="40.592785" lon="-3.74931667">
        <ele>685.0</ele>
        <time>2018-05-26T06:48:31.160Z</time>
      </trkpt>
      <trkpt lat="40.59280667" lon="-3.74943167">
        <ele>685.0</ele>
        <time>2018-05-26T06:48:32.138Z</time>
      </trkpt>
      <trkpt lat="40.59280667" lon="-3.74943167">
        <ele>685.0</ele>
        <time>2018-05-26T06:48:33.167Z</time>
      </trkpt>
      <trkpt lat="40.59283667" lon="-3.74954333">
        <ele>685.0</ele>
        <time>2018-05-26T06:48:34.136Z</time>
      </trkpt>
      <trkpt lat="40.59283667" lon="-3.74954333">
        <ele>685.0</ele>
        <time>2018-05-26T06:48:35.155Z</time>
      </trkpt>
      <trkpt lat="40.59288" lon="-3.74965167">
        <ele>685.0</ele>
        <time>2018-05-26T06:48:36.163Z</time>
      </trkpt>
      <trkpt lat="40.59288" lon="-3.74965167">
        <ele>685.0</ele>
        <time>2018-05-26T06:48:37.139Z</time>
      </trkpt>
      <trkpt lat="40.59291833" lon="-3.74976167">
        <ele>685.0</ele>
        <time>2018-05-26T06:48:38.173Z</time>
      </trkpt>
      <trkpt lat="40.59291833" lon="-3.74976167">
        <ele>685.0</ele>
        <time>2018-05-26T06:48:39.143Z</time>
      </trkpt>
      <trkpt lat="40.59295667" lon="-3.74987333">
        <ele>685.0</ele>
        <time>2018-05-26T06:48:40.153Z</time>
      </trkpt>
      <trkpt lat="40.59295667" lon="-3.74987333">
        <ele>685.0</ele>
        <time>2018-05-26T06:48:41.140Z</time>
      </trkpt>
      <trkpt lat="40.593" lon="-3.74998833">
        <ele>685.0</ele>
        <time>2018-05-26T06:48:42.162Z</time>
      </trkpt>
      <trkpt lat="40.59301667" lon="-3.75004833">
        <ele>685.0</ele>
        <time>2018-05-26T06:48:43.145Z</time>
      </trkpt>
      <trkpt lat="40.59301667" lon="-3.75004833">
        <ele>685.0</ele>
        <time>2018-05-26T06:48:44.137Z</time>
      </trkpt>
      <trkpt lat="40.593055" lon="-3.75016833">
        <ele>685.0</ele>
        <time>2018-05-26T06:48:45.154Z</time>
      </trkpt>
      <trkpt lat="40.59307667" lon="-3.750225">
        <ele>685.0</ele>
        <time>2018-05-26T06:48:46.158Z</time>
      </trkpt>
      <trkpt lat="40.59307667" lon="-3.750225">
        <ele>685.0</ele>
        <time>2018-05-26T06:48:47.172Z</time>
      </trkpt>
      <trkpt lat="40.59311833" lon="-3.75034167">
        <ele>686.0</ele>
        <time>2018-05-26T06:48:48.142Z</time>
      </trkpt>
      <trkpt lat="40.59311833" lon="-3.75034167">
        <ele>686.0</ele>
        <time>2018-05-26T06:48:49.157Z</time>
      </trkpt>
      <trkpt lat="40.59316167" lon="-3.75045667">
        <ele>686.0</ele>
        <time>2018-05-26T06:48:50.168Z</time>
      </trkpt>
      <trkpt lat="40.593185" lon="-3.75051167">
        <ele>686.0</ele>
        <time>2018-05-26T06:48:51.157Z</time>
      </trkpt>
      <trkpt lat="40.59320833" lon="-3.75056333">
        <ele>686.0</ele>
        <time>2018-05-26T06:48:52.175Z</time>
      </trkpt>
      <trkpt lat="40.59320833" lon="-3.75056333">
        <ele>686.0</ele>
        <time>2018-05-26T06:48:53.157Z</time>
      </trkpt>
      <trkpt lat="40.59325833" lon="-3.75067">
        <ele>686.0</ele>
        <time>2018-05-26T06:48:54.167Z</time>
      </trkpt>
      <trkpt lat="40.59325833" lon="-3.75067">
        <ele>686.0</ele>
        <time>2018-05-26T06:48:55.139Z</time>
      </trkpt>
      <trkpt lat="40.59330333" lon="-3.750775">
        <ele>686.0</ele>
        <time>2018-05-26T06:48:56.149Z</time>
      </trkpt>
      <trkpt lat="40.59330333" lon="-3.750775">
        <ele>686.0</ele>
        <time>2018-05-26T06:48:57.160Z</time>
      </trkpt>
      <trkpt lat="40.59334" lon="-3.75088833">
        <ele>687.0</ele>
        <time>2018-05-26T06:48:58.164Z</time>
      </trkpt>
      <trkpt lat="40.59334" lon="-3.75088833">
        <ele>687.0</ele>
        <time>2018-05-26T06:48:59.137Z</time>
      </trkpt>
      <trkpt lat="40.59338167" lon="-3.75100333">
        <ele>687.0</ele>
        <time>2018-05-26T06:49:00.162Z</time>
      </trkpt>
      <trkpt lat="40.5934" lon="-3.75106">
        <ele>687.0</ele>
        <time>2018-05-26T06:49:01.144Z</time>
      </trkpt>
      <trkpt lat="40.5934" lon="-3.75106">
        <ele>687.0</ele>
        <time>2018-05-26T06:49:02.159Z</time>
      </trkpt>
      <trkpt lat="40.593445" lon="-3.75117333">
        <ele>687.0</ele>
        <time>2018-05-26T06:49:03.168Z</time>
      </trkpt>
      <trkpt lat="40.59347333" lon="-3.75122167">
        <ele>687.0</ele>
        <time>2018-05-26T06:49:04.153Z</time>
      </trkpt>
      <trkpt lat="40.593505" lon="-3.75126667">
        <ele>687.0</ele>
        <time>2018-05-26T06:49:05.173Z</time>
      </trkpt>
      <trkpt lat="40.593505" lon="-3.75126667">
        <ele>687.0</ele>
        <time>2018-05-26T06:49:06.148Z</time>
      </trkpt>
      <trkpt lat="40.59356667" lon="-3.751345">
        <ele>688.0</ele>
        <time>2018-05-26T06:49:07.160Z</time>
      </trkpt>
      <trkpt lat="40.59356667" lon="-3.751345">
        <ele>688.0</ele>
        <time>2018-05-26T06:49:08.138Z</time>
      </trkpt>
      <trkpt lat="40.59363333" lon="-3.75142167">
        <ele>688.0</ele>
        <time>2018-05-26T06:49:09.145Z</time>
      </trkpt>
      <trkpt lat="40.59366833" lon="-3.75145667">
        <ele>688.0</ele>
        <time>2018-05-26T06:49:10.158Z</time>
      </trkpt>
      <trkpt lat="40.59366833" lon="-3.75145667">
        <ele>688.0</ele>
        <time>2018-05-26T06:49:11.136Z</time>
      </trkpt>
      <trkpt lat="40.59372667" lon="-3.75152833">
        <ele>688.0</ele>
        <time>2018-05-26T06:49:12.145Z</time>
      </trkpt>
      <trkpt lat="40.59372667" lon="-3.75152833">
        <ele>688.0</ele>
        <time>2018-05-26T06:49:13.137Z</time>
      </trkpt>
      <trkpt lat="40.59379167" lon="-3.75160667">
        <ele>689.0</ele>
        <time>2018-05-26T06:49:14.158Z</time>
      </trkpt>
      <trkpt lat="40.59379167" lon="-3.75160667">
        <ele>689.0</ele>
        <time>2018-05-26T06:49:15.159Z</time>
      </trkpt>
      <trkpt lat="40.59385833" lon="-3.75168167">
        <ele>690.0</ele>
        <time>2018-05-26T06:49:16.169Z</time>
      </trkpt>
      <trkpt lat="40.59385833" lon="-3.75168167">
        <ele>690.0</ele>
        <time>2018-05-26T06:49:17.145Z</time>
      </trkpt>
      <trkpt lat="40.59392667" lon="-3.75175167">
        <ele>689.0</ele>
        <time>2018-05-26T06:49:18.166Z</time>
      </trkpt>
      <trkpt lat="40.59396167" lon="-3.75178333">
        <ele>690.0</ele>
        <time>2018-05-26T06:49:19.165Z</time>
      </trkpt>
      <trkpt lat="40.59396167" lon="-3.75178333">
        <ele>690.0</ele>
        <time>2018-05-26T06:49:20.174Z</time>
      </trkpt>
      <trkpt lat="40.59402833" lon="-3.751855">
        <ele>689.0</ele>
        <time>2018-05-26T06:49:21.155Z</time>
      </trkpt>
      <trkpt lat="40.59406333" lon="-3.75189333">
        <ele>690.0</ele>
        <time>2018-05-26T06:49:22.139Z</time>
      </trkpt>
      <trkpt lat="40.59406333" lon="-3.75189333">
        <ele>690.0</ele>
        <time>2018-05-26T06:49:23.152Z</time>
      </trkpt>
      <trkpt lat="40.594125" lon="-3.75197167">
        <ele>690.0</ele>
        <time>2018-05-26T06:49:24.165Z</time>
      </trkpt>
      <trkpt lat="40.594125" lon="-3.75197167">
        <ele>690.0</ele>
        <time>2018-05-26T06:49:25.137Z</time>
      </trkpt>
      <trkpt lat="40.59418667" lon="-3.75203333">
        <ele>691.0</ele>
        <time>2018-05-26T06:49:26.155Z</time>
      </trkpt>
      <trkpt lat="40.59418667" lon="-3.75203333">
        <ele>691.0</ele>
        <time>2018-05-26T06:49:27.144Z</time>
      </trkpt>
      <trkpt lat="40.59425833" lon="-3.7521">
        <ele>690.0</ele>
        <time>2018-05-26T06:49:28.152Z</time>
      </trkpt>
      <trkpt lat="40.59425833" lon="-3.7521">
        <ele>690.0</ele>
        <time>2018-05-26T06:49:29.169Z</time>
      </trkpt>
      <trkpt lat="40.59433333" lon="-3.75217667">
        <ele>690.0</ele>
        <time>2018-05-26T06:49:30.139Z</time>
      </trkpt>
      <trkpt lat="40.59433333" lon="-3.75217667">
        <ele>690.0</ele>
        <time>2018-05-26T06:49:31.161Z</time>
      </trkpt>
      <trkpt lat="40.594405" lon="-3.75227333">
        <ele>690.0</ele>
        <time>2018-05-26T06:49:32.148Z</time>
      </trkpt>
      <trkpt lat="40.594405" lon="-3.75227333">
        <ele>690.0</ele>
        <time>2018-05-26T06:49:33.164Z</time>
      </trkpt>
      <trkpt lat="40.59446167" lon="-3.75237667">
        <ele>690.0</ele>
        <time>2018-05-26T06:49:34.181Z</time>
      </trkpt>
      <trkpt lat="40.59446167" lon="-3.75237667">
        <ele>690.0</ele>
        <time>2018-05-26T06:49:35.159Z</time>
      </trkpt>
      <trkpt lat="40.594515" lon="-3.75248333">
        <ele>690.0</ele>
        <time>2018-05-26T06:49:36.166Z</time>
      </trkpt>
      <trkpt lat="40.594515" lon="-3.75248333">
        <ele>690.0</ele>
        <time>2018-05-26T06:49:37.144Z</time>
      </trkpt>
      <trkpt lat="40.59455667" lon="-3.75258667">
        <ele>691.0</ele>
        <time>2018-05-26T06:49:38.149Z</time>
      </trkpt>
      <trkpt lat="40.59455667" lon="-3.75258667">
        <ele>691.0</ele>
        <time>2018-05-26T06:49:39.145Z</time>
      </trkpt>
      <trkpt lat="40.594605" lon="-3.75267833">
        <ele>691.0</ele>
        <time>2018-05-26T06:49:40.169Z</time>
      </trkpt>
      <trkpt lat="40.594605" lon="-3.75267833">
        <ele>691.0</ele>
        <time>2018-05-26T06:49:41.161Z</time>
      </trkpt>
      <trkpt lat="40.594655" lon="-3.75276333">
        <ele>691.0</ele>
        <time>2018-05-26T06:49:42.174Z</time>
      </trkpt>
      <trkpt lat="40.594655" lon="-3.75276333">
        <ele>691.0</ele>
        <time>2018-05-26T06:49:43.151Z</time>
      </trkpt>
      <trkpt lat="40.59470333" lon="-3.75284833">
        <ele>691.0</ele>
        <time>2018-05-26T06:49:44.165Z</time>
      </trkpt>
      <trkpt lat="40.59470333" lon="-3.75284833">
        <ele>691.0</ele>
        <time>2018-05-26T06:49:45.166Z</time>
      </trkpt>
      <trkpt lat="40.59475" lon="-3.75295">
        <ele>691.0</ele>
        <time>2018-05-26T06:49:46.174Z</time>
      </trkpt>
      <trkpt lat="40.59475" lon="-3.75295">
        <ele>691.0</ele>
        <time>2018-05-26T06:49:47.170Z</time>
      </trkpt>
      <trkpt lat="40.594765" lon="-3.75307333">
        <ele>691.0</ele>
        <time>2018-05-26T06:49:48.153Z</time>
      </trkpt>
      <trkpt lat="40.594765" lon="-3.75307333">
        <ele>691.0</ele>
        <time>2018-05-26T06:49:49.144Z</time>
      </trkpt>
      <trkpt lat="40.59476333" lon="-3.753195">
        <ele>691.0</ele>
        <time>2018-05-26T06:49:50.151Z</time>
      </trkpt>
      <trkpt lat="40.59476333" lon="-3.753195">
        <ele>691.0</ele>
        <time>2018-05-26T06:49:51.145Z</time>
      </trkpt>
      <trkpt lat="40.59476333" lon="-3.75331333">
        <ele>691.0</ele>
        <time>2018-05-26T06:49:52.163Z</time>
      </trkpt>
      <trkpt lat="40.59476333" lon="-3.75331333">
        <ele>691.0</ele>
        <time>2018-05-26T06:49:53.137Z</time>
      </trkpt>
      <trkpt lat="40.59476333" lon="-3.75343">
        <ele>692.0</ele>
        <time>2018-05-26T06:49:54.145Z</time>
      </trkpt>
      <trkpt lat="40.59476333" lon="-3.75343">
        <ele>692.0</ele>
        <time>2018-05-26T06:49:55.156Z</time>
      </trkpt>
      <trkpt lat="40.59476833" lon="-3.75354667">
        <ele>692.0</ele>
        <time>2018-05-26T06:49:56.164Z</time>
      </trkpt>
      <trkpt lat="40.59476833" lon="-3.75354667">
        <ele>692.0</ele>
        <time>2018-05-26T06:49:57.147Z</time>
      </trkpt>
      <trkpt lat="40.59479167" lon="-3.75366">
        <ele>692.0</ele>
        <time>2018-05-26T06:49:58.162Z</time>
      </trkpt>
      <trkpt lat="40.59479167" lon="-3.75366">
        <ele>692.0</ele>
        <time>2018-05-26T06:49:59.153Z</time>
      </trkpt>
      <trkpt lat="40.59483" lon="-3.75376833">
        <ele>693.0</ele>
        <time>2018-05-26T06:50:00.148Z</time>
      </trkpt>
      <trkpt lat="40.59484667" lon="-3.75382333">
        <ele>692.0</ele>
        <time>2018-05-26T06:50:01.162Z</time>
      </trkpt>
      <trkpt lat="40.59484667" lon="-3.75382333">
        <ele>692.0</ele>
        <time>2018-05-26T06:50:02.137Z</time>
      </trkpt>
      <trkpt lat="40.59489" lon="-3.75393167">
        <ele>692.0</ele>
        <time>2018-05-26T06:50:03.146Z</time>
      </trkpt>
      <trkpt lat="40.59491167" lon="-3.75398167">
        <ele>692.0</ele>
        <time>2018-05-26T06:50:04.158Z</time>
      </trkpt>
      <trkpt lat="40.59491167" lon="-3.75398167">
        <ele>692.0</ele>
        <time>2018-05-26T06:50:05.142Z</time>
      </trkpt>
      <trkpt lat="40.59496" lon="-3.754085">
        <ele>692.0</ele>
        <time>2018-05-26T06:50:06.167Z</time>
      </trkpt>
      <trkpt lat="40.59496" lon="-3.754085">
        <ele>692.0</ele>
        <time>2018-05-26T06:50:07.162Z</time>
      </trkpt>
      <trkpt lat="40.59500667" lon="-3.75419333">
        <ele>692.0</ele>
        <time>2018-05-26T06:50:08.173Z</time>
      </trkpt>
      <trkpt lat="40.59502833" lon="-3.754245">
        <ele>693.0</ele>
        <time>2018-05-26T06:50:09.152Z</time>
      </trkpt>
      <trkpt lat="40.59505333" lon="-3.75429167">
        <ele>693.0</ele>
        <time>2018-05-26T06:50:10.137Z</time>
      </trkpt>
      <trkpt lat="40.59505333" lon="-3.75429167">
        <ele>693.0</ele>
        <time>2018-05-26T06:50:11.147Z</time>
      </trkpt>
      <trkpt lat="40.59510667" lon="-3.75437667">
        <ele>693.0</ele>
        <time>2018-05-26T06:50:12.158Z</time>
      </trkpt>
      <trkpt lat="40.59512833" lon="-3.75442167">
        <ele>693.0</ele>
        <time>2018-05-26T06:50:13.172Z</time>
      </trkpt>
      <trkpt lat="40.59512833" lon="-3.75442167">
        <ele>693.0</ele>
        <time>2018-05-26T06:50:14.146Z</time>
      </trkpt>
      <trkpt lat="40.59517333" lon="-3.75452667">
        <ele>693.0</ele>
        <time>2018-05-26T06:50:15.160Z</time>
      </trkpt>
      <trkpt lat="40.595195" lon="-3.75458">
        <ele>693.0</ele>
        <time>2018-05-26T06:50:16.141Z</time>
      </trkpt>
      <trkpt lat="40.595195" lon="-3.75458">
        <ele>693.0</ele>
        <time>2018-05-26T06:50:17.137Z</time>
      </trkpt>
      <trkpt lat="40.59524" lon="-3.75469167">
        <ele>694.0</ele>
        <time>2018-05-26T06:50:18.146Z</time>
      </trkpt>
      <trkpt lat="40.59526167" lon="-3.75474667">
        <ele>694.0</ele>
        <time>2018-05-26T06:50:19.161Z</time>
      </trkpt>
      <trkpt lat="40.59526167" lon="-3.75474667">
        <ele>694.0</ele>
        <time>2018-05-26T06:50:20.139Z</time>
      </trkpt>
      <trkpt lat="40.59530167" lon="-3.75485833">
        <ele>694.0</ele>
        <time>2018-05-26T06:50:21.150Z</time>
      </trkpt>
      <trkpt lat="40.59532167" lon="-3.75491333">
        <ele>695.0</ele>
        <time>2018-05-26T06:50:22.156Z</time>
      </trkpt>
      <trkpt lat="40.59532167" lon="-3.75491333">
        <ele>695.0</ele>
        <time>2018-05-26T06:50:23.170Z</time>
      </trkpt>
      <trkpt lat="40.59535333" lon="-3.75502167">
        <ele>695.0</ele>
        <time>2018-05-26T06:50:24.146Z</time>
      </trkpt>
      <trkpt lat="40.59537167" lon="-3.75507667">
        <ele>695.0</ele>
        <time>2018-05-26T06:50:25.176Z</time>
      </trkpt>
      <trkpt lat="40.59537167" lon="-3.75507667">
        <ele>695.0</ele>
        <time>2018-05-26T06:50:26.157Z</time>
      </trkpt>
      <trkpt lat="40.59539833" lon="-3.75518833">
        <ele>696.0</ele>
        <time>2018-05-26T06:50:27.172Z</time>
      </trkpt>
      <trkpt lat="40.59539833" lon="-3.75518833">
        <ele>696.0</ele>
        <time>2018-05-26T06:50:28.147Z</time>
      </trkpt>
      <trkpt lat="40.59542667" lon="-3.7553">
        <ele>696.0</ele>
        <time>2018-05-26T06:50:29.162Z</time>
      </trkpt>
      <trkpt lat="40.59542667" lon="-3.7553">
        <ele>696.0</ele>
        <time>2018-05-26T06:50:30.137Z</time>
      </trkpt>
      <trkpt lat="40.595465" lon="-3.755415">
        <ele>696.0</ele>
        <time>2018-05-26T06:50:31.148Z</time>
      </trkpt>
      <trkpt lat="40.595465" lon="-3.755415">
        <ele>696.0</ele>
        <time>2018-05-26T06:50:32.161Z</time>
      </trkpt>
      <trkpt lat="40.59551167" lon="-3.755525">
        <ele>696.0</ele>
        <time>2018-05-26T06:50:33.173Z</time>
      </trkpt>
      <trkpt lat="40.59553667" lon="-3.75557667">
        <ele>696.0</ele>
        <time>2018-05-26T06:50:34.147Z</time>
      </trkpt>
      <trkpt lat="40.59553667" lon="-3.75557667">
        <ele>696.0</ele>
        <time>2018-05-26T06:50:35.164Z</time>
      </trkpt>
      <trkpt lat="40.59558333" lon="-3.75567667">
        <ele>696.0</ele>
        <time>2018-05-26T06:50:36.136Z</time>
      </trkpt>
      <trkpt lat="40.59560833" lon="-3.75572667">
        <ele>696.0</ele>
        <time>2018-05-26T06:50:37.155Z</time>
      </trkpt>
      <trkpt lat="40.59560833" lon="-3.75572667">
        <ele>696.0</ele>
        <time>2018-05-26T06:50:38.169Z</time>
      </trkpt>
      <trkpt lat="40.595655" lon="-3.75582833">
        <ele>697.0</ele>
        <time>2018-05-26T06:50:39.143Z</time>
      </trkpt>
      <trkpt lat="40.595655" lon="-3.75582833">
        <ele>697.0</ele>
        <time>2018-05-26T06:50:40.156Z</time>
      </trkpt>
      <trkpt lat="40.59569667" lon="-3.75593333">
        <ele>697.0</ele>
        <time>2018-05-26T06:50:41.163Z</time>
      </trkpt>
      <trkpt lat="40.59569667" lon="-3.75593333">
        <ele>697.0</ele>
        <time>2018-05-26T06:50:42.144Z</time>
      </trkpt>
      <trkpt lat="40.59572667" lon="-3.756045">
        <ele>697.0</ele>
        <time>2018-05-26T06:50:43.143Z</time>
      </trkpt>
      <trkpt lat="40.59572667" lon="-3.756045">
        <ele>697.0</ele>
        <time>2018-05-26T06:50:44.137Z</time>
      </trkpt>
      <trkpt lat="40.59575667" lon="-3.756155">
        <ele>697.0</ele>
        <time>2018-05-26T06:50:45.149Z</time>
      </trkpt>
      <trkpt lat="40.59577167" lon="-3.75621333">
        <ele>698.0</ele>
        <time>2018-05-26T06:50:46.160Z</time>
      </trkpt>
      <trkpt lat="40.59577167" lon="-3.75621333">
        <ele>698.0</ele>
        <time>2018-05-26T06:50:47.175Z</time>
      </trkpt>
      <trkpt lat="40.59580667" lon="-3.75631667">
        <ele>698.0</ele>
        <time>2018-05-26T06:50:48.145Z</time>
      </trkpt>
      <trkpt lat="40.59580667" lon="-3.75631667">
        <ele>698.0</ele>
        <time>2018-05-26T06:50:49.162Z</time>
      </trkpt>
      <trkpt lat="40.595845" lon="-3.756425">
        <ele>698.0</ele>
        <time>2018-05-26T06:50:50.154Z</time>
      </trkpt>
      <trkpt lat="40.595845" lon="-3.756425">
        <ele>698.0</ele>
        <time>2018-05-26T06:50:51.170Z</time>
      </trkpt>
      <trkpt lat="40.5959" lon="-3.75652667">
        <ele>698.0</ele>
        <time>2018-05-26T06:50:52.141Z</time>
      </trkpt>
      <trkpt lat="40.5959" lon="-3.75652667">
        <ele>698.0</ele>
        <time>2018-05-26T06:50:53.162Z</time>
      </trkpt>
      <trkpt lat="40.59595333" lon="-3.75662333">
        <ele>699.0</ele>
        <time>2018-05-26T06:50:54.173Z</time>
      </trkpt>
      <trkpt lat="40.59595333" lon="-3.75662333">
        <ele>699.0</ele>
        <time>2018-05-26T06:50:55.148Z</time>
      </trkpt>
      <trkpt lat="40.59600167" lon="-3.75671667">
        <ele>699.0</ele>
        <time>2018-05-26T06:50:56.164Z</time>
      </trkpt>
      <trkpt lat="40.59602333" lon="-3.75676333">
        <ele>699.0</ele>
        <time>2018-05-26T06:50:57.143Z</time>
      </trkpt>
      <trkpt lat="40.59602333" lon="-3.75676333">
        <ele>699.0</ele>
        <time>2018-05-26T06:50:58.169Z</time>
      </trkpt>
      <trkpt lat="40.59606167" lon="-3.756855">
        <ele>699.0</ele>
        <time>2018-05-26T06:50:59.144Z</time>
      </trkpt>
      <trkpt lat="40.59606167" lon="-3.756855">
        <ele>699.0</ele>
        <time>2018-05-26T06:51:00.150Z</time>
      </trkpt>
      <trkpt lat="40.59608833" lon="-3.75694">
        <ele>700.0</ele>
        <time>2018-05-26T06:51:01.162Z</time>
      </trkpt>
      <trkpt lat="40.59609667" lon="-3.75698">
        <ele>700.0</ele>
        <time>2018-05-26T06:51:02.137Z</time>
      </trkpt>
      <trkpt lat="40.59609667" lon="-3.75698">
        <ele>700.0</ele>
        <time>2018-05-26T06:51:03.141Z</time>
      </trkpt>
      <trkpt lat="40.59612" lon="-3.75706">
        <ele>700.0</ele>
        <time>2018-05-26T06:51:04.151Z</time>
      </trkpt>
      <trkpt lat="40.59612" lon="-3.75706">
        <ele>700.0</ele>
        <time>2018-05-26T06:51:05.166Z</time>
      </trkpt>
      <trkpt lat="40.59614667" lon="-3.75713833">
        <ele>701.0</ele>
        <time>2018-05-26T06:51:06.139Z</time>
      </trkpt>
      <trkpt lat="40.59614667" lon="-3.75713833">
        <ele>701.0</ele>
        <time>2018-05-26T06:51:07.153Z</time>
      </trkpt>
      <trkpt lat="40.59617167" lon="-3.757215">
        <ele>702.0</ele>
        <time>2018-05-26T06:51:08.170Z</time>
      </trkpt>
      <trkpt lat="40.596185" lon="-3.75725167">
        <ele>702.0</ele>
        <time>2018-05-26T06:51:09.154Z</time>
      </trkpt>
      <trkpt lat="40.596185" lon="-3.75725167">
        <ele>702.0</ele>
        <time>2018-05-26T06:51:10.165Z</time>
      </trkpt>
      <trkpt lat="40.596215" lon="-3.75732">
        <ele>703.0</ele>
        <time>2018-05-26T06:51:11.149Z</time>
      </trkpt>
      <trkpt lat="40.596215" lon="-3.75732">
        <ele>703.0</ele>
        <time>2018-05-26T06:51:12.159Z</time>
      </trkpt>
      <trkpt lat="40.59623667" lon="-3.75738667">
        <ele>704.0</ele>
        <time>2018-05-26T06:51:13.166Z</time>
      </trkpt>
      <trkpt lat="40.59623667" lon="-3.75738667">
        <ele>704.0</ele>
        <time>2018-05-26T06:51:14.169Z</time>
      </trkpt>
      <trkpt lat="40.59625" lon="-3.75746667">
        <ele>705.0</ele>
        <time>2018-05-26T06:51:15.143Z</time>
      </trkpt>
      <trkpt lat="40.59625333" lon="-3.75750833">
        <ele>705.0</ele>
        <time>2018-05-26T06:51:16.143Z</time>
      </trkpt>
      <trkpt lat="40.59625333" lon="-3.75750833">
        <ele>705.0</ele>
        <time>2018-05-26T06:51:17.137Z</time>
      </trkpt>
      <trkpt lat="40.59626333" lon="-3.75758833">
        <ele>706.0</ele>
        <time>2018-05-26T06:51:18.147Z</time>
      </trkpt>
      <trkpt lat="40.59626333" lon="-3.75758833">
        <ele>706.0</ele>
        <time>2018-05-26T06:51:19.168Z</time>
      </trkpt>
      <trkpt lat="40.59627333" lon="-3.75766667">
        <ele>706.0</ele>
        <time>2018-05-26T06:51:20.151Z</time>
      </trkpt>
      <trkpt lat="40.59627333" lon="-3.75766667">
        <ele>706.0</ele>
        <time>2018-05-26T06:51:21.168Z</time>
      </trkpt>
      <trkpt lat="40.59628333" lon="-3.75774167">
        <ele>707.0</ele>
        <time>2018-05-26T06:51:22.138Z</time>
      </trkpt>
      <trkpt lat="40.59628333" lon="-3.75774167">
        <ele>707.0</ele>
        <time>2018-05-26T06:51:23.148Z</time>
      </trkpt>
      <trkpt lat="40.59629" lon="-3.75782">
        <ele>708.0</ele>
        <time>2018-05-26T06:51:24.159Z</time>
      </trkpt>
      <trkpt lat="40.59629" lon="-3.75782">
        <ele>708.0</ele>
        <time>2018-05-26T06:51:25.139Z</time>
      </trkpt>
      <trkpt lat="40.596295" lon="-3.757895">
        <ele>708.0</ele>
        <time>2018-05-26T06:51:26.173Z</time>
      </trkpt>
      <trkpt lat="40.596295" lon="-3.757895">
        <ele>708.0</ele>
        <time>2018-05-26T06:51:27.152Z</time>
      </trkpt>
      <trkpt lat="40.59630333" lon="-3.75796833">
        <ele>708.0</ele>
        <time>2018-05-26T06:51:28.166Z</time>
      </trkpt>
      <trkpt lat="40.59630333" lon="-3.75796833">
        <ele>708.0</ele>
        <time>2018-05-26T06:51:29.151Z</time>
      </trkpt>
      <trkpt lat="40.596315" lon="-3.758045">
        <ele>708.0</ele>
        <time>2018-05-26T06:51:30.171Z</time>
      </trkpt>
      <trkpt lat="40.596315" lon="-3.758045">
        <ele>708.0</ele>
        <time>2018-05-26T06:51:31.137Z</time>
      </trkpt>
      <trkpt lat="40.59633667" lon="-3.758135">
        <ele>708.0</ele>
        <time>2018-05-26T06:51:32.147Z</time>
      </trkpt>
      <trkpt lat="40.59633667" lon="-3.758135">
        <ele>708.0</ele>
        <time>2018-05-26T06:51:33.166Z</time>
      </trkpt>
      <trkpt lat="40.59636667" lon="-3.75821833">
        <ele>708.0</ele>
        <time>2018-05-26T06:51:34.138Z</time>
      </trkpt>
      <trkpt lat="40.59638167" lon="-3.75825333">
        <ele>709.0</ele>
        <time>2018-05-26T06:51:35.179Z</time>
      </trkpt>
      <trkpt lat="40.59638167" lon="-3.75825333">
        <ele>709.0</ele>
        <time>2018-05-26T06:51:36.145Z</time>
      </trkpt>
      <trkpt lat="40.596405" lon="-3.75831333">
        <ele>710.0</ele>
        <time>2018-05-26T06:51:37.165Z</time>
      </trkpt>
      <trkpt lat="40.596405" lon="-3.75831333">
        <ele>710.0</ele>
        <time>2018-05-26T06:51:38.142Z</time>
      </trkpt>
      <trkpt lat="40.59642167" lon="-3.75837333">
        <ele>710.0</ele>
        <time>2018-05-26T06:51:39.152Z</time>
      </trkpt>
      <trkpt lat="40.59642833" lon="-3.75840833">
        <ele>710.0</ele>
        <time>2018-05-26T06:51:40.158Z</time>
      </trkpt>
      <trkpt lat="40.59642833" lon="-3.75840833">
        <ele>710.0</ele>
        <time>2018-05-26T06:51:41.168Z</time>
      </trkpt>
      <trkpt lat="40.59644833" lon="-3.758485">
        <ele>711.0</ele>
        <time>2018-05-26T06:51:42.138Z</time>
      </trkpt>
      <trkpt lat="40.59646" lon="-3.75852667">
        <ele>711.0</ele>
        <time>2018-05-26T06:51:43.136Z</time>
      </trkpt>
      <trkpt lat="40.59646" lon="-3.75852667">
        <ele>711.0</ele>
        <time>2018-05-26T06:51:44.161Z</time>
      </trkpt>
      <trkpt lat="40.59648667" lon="-3.75861667">
        <ele>711.0</ele>
        <time>2018-05-26T06:51:45.176Z</time>
      </trkpt>
      <trkpt lat="40.596505" lon="-3.75866333">
        <ele>710.0</ele>
        <time>2018-05-26T06:51:46.159Z</time>
      </trkpt>
      <trkpt lat="40.596505" lon="-3.75866333">
        <ele>710.0</ele>
        <time>2018-05-26T06:51:47.169Z</time>
      </trkpt>
      <trkpt lat="40.59654333" lon="-3.75876667">
        <ele>710.0</ele>
        <time>2018-05-26T06:51:48.137Z</time>
      </trkpt>
      <trkpt lat="40.59655833" lon="-3.75881833">
        <ele>710.0</ele>
        <time>2018-05-26T06:51:49.151Z</time>
      </trkpt>
      <trkpt lat="40.59655833" lon="-3.75881833">
        <ele>710.0</ele>
        <time>2018-05-26T06:51:50.165Z</time>
      </trkpt>
      <trkpt lat="40.59658833" lon="-3.75892">
        <ele>710.0</ele>
        <time>2018-05-26T06:51:51.155Z</time>
      </trkpt>
      <trkpt lat="40.596605" lon="-3.75896167">
        <ele>711.0</ele>
        <time>2018-05-26T06:51:52.152Z</time>
      </trkpt>
      <trkpt lat="40.596605" lon="-3.75896167">
        <ele>711.0</ele>
        <time>2018-05-26T06:51:53.167Z</time>
      </trkpt>
      <trkpt lat="40.59664167" lon="-3.75902">
        <ele>711.0</ele>
        <time>2018-05-26T06:51:54.144Z</time>
      </trkpt>
      <trkpt lat="40.59664167" lon="-3.75902">
        <ele>711.0</ele>
        <time>2018-05-26T06:51:55.166Z</time>
      </trkpt>
      <trkpt lat="40.59667833" lon="-3.75907167">
        <ele>712.0</ele>
        <time>2018-05-26T06:51:56.178Z</time>
      </trkpt>
      <trkpt lat="40.59667833" lon="-3.75907167">
        <ele>712.0</ele>
        <time>2018-05-26T06:51:57.149Z</time>
      </trkpt>
      <trkpt lat="40.59671167" lon="-3.75911667">
        <ele>713.0</ele>
        <time>2018-05-26T06:51:58.165Z</time>
      </trkpt>
      <trkpt lat="40.59671167" lon="-3.75911667">
        <ele>713.0</ele>
        <time>2018-05-26T06:51:59.140Z</time>
      </trkpt>
      <trkpt lat="40.59674833" lon="-3.75916333">
        <ele>713.0</ele>
        <time>2018-05-26T06:52:00.163Z</time>
      </trkpt>
      <trkpt lat="40.59676833" lon="-3.75919167">
        <ele>713.0</ele>
        <time>2018-05-26T06:52:01.145Z</time>
      </trkpt>
      <trkpt lat="40.59676833" lon="-3.75919167">
        <ele>713.0</ele>
        <time>2018-05-26T06:52:02.163Z</time>
      </trkpt>
      <trkpt lat="40.59680833" lon="-3.75925333">
        <ele>714.0</ele>
        <time>2018-05-26T06:52:03.142Z</time>
      </trkpt>
      <trkpt lat="40.59682667" lon="-3.75928667">
        <ele>714.0</ele>
        <time>2018-05-26T06:52:04.170Z</time>
      </trkpt>
      <trkpt lat="40.59682667" lon="-3.75928667">
        <ele>714.0</ele>
        <time>2018-05-26T06:52:05.139Z</time>
      </trkpt>
      <trkpt lat="40.59685833" lon="-3.75935333">
        <ele>714.0</ele>
        <time>2018-05-26T06:52:06.148Z</time>
      </trkpt>
      <trkpt lat="40.596875" lon="-3.75939">
        <ele>714.0</ele>
        <time>2018-05-26T06:52:07.169Z</time>
      </trkpt>
      <trkpt lat="40.596875" lon="-3.75939">
        <ele>714.0</ele>
        <time>2018-05-26T06:52:08.154Z</time>
      </trkpt>
      <trkpt lat="40.59690167" lon="-3.75945667">
        <ele>714.0</ele>
        <time>2018-05-26T06:52:09.167Z</time>
      </trkpt>
      <trkpt lat="40.596915" lon="-3.75948833">
        <ele>715.0</ele>
        <time>2018-05-26T06:52:10.146Z</time>
      </trkpt>
      <trkpt lat="40.596915" lon="-3.75948833">
        <ele>715.0</ele>
        <time>2018-05-26T06:52:11.158Z</time>
      </trkpt>
      <trkpt lat="40.59694333" lon="-3.759555">
        <ele>715.0</ele>
        <time>2018-05-26T06:52:12.167Z</time>
      </trkpt>
      <trkpt lat="40.59695667" lon="-3.75959">
        <ele>715.0</ele>
        <time>2018-05-26T06:52:13.143Z</time>
      </trkpt>
      <trkpt lat="40.59695667" lon="-3.75959">
        <ele>715.0</ele>
        <time>2018-05-26T06:52:14.154Z</time>
      </trkpt>
      <trkpt lat="40.59698833" lon="-3.75965833">
        <ele>716.0</ele>
        <time>2018-05-26T06:52:15.166Z</time>
      </trkpt>
      <trkpt lat="40.59700167" lon="-3.75969333">
        <ele>716.0</ele>
        <time>2018-05-26T06:52:16.153Z</time>
      </trkpt>
      <trkpt lat="40.59700167" lon="-3.75969333">
        <ele>716.0</ele>
        <time>2018-05-26T06:52:17.143Z</time>
      </trkpt>
      <trkpt lat="40.597025" lon="-3.759765">
        <ele>716.0</ele>
        <time>2018-05-26T06:52:18.152Z</time>
      </trkpt>
      <trkpt lat="40.597025" lon="-3.759765">
        <ele>716.0</ele>
        <time>2018-05-26T06:52:19.165Z</time>
      </trkpt>
      <trkpt lat="40.597045" lon="-3.75983833">
        <ele>716.0</ele>
        <time>2018-05-26T06:52:20.148Z</time>
      </trkpt>
      <trkpt lat="40.597045" lon="-3.75983833">
        <ele>716.0</ele>
        <time>2018-05-26T06:52:21.158Z</time>
      </trkpt>
      <trkpt lat="40.59707" lon="-3.75992167">
        <ele>716.0</ele>
        <time>2018-05-26T06:52:22.163Z</time>
      </trkpt>
      <trkpt lat="40.59707" lon="-3.75992167">
        <ele>716.0</ele>
        <time>2018-05-26T06:52:23.144Z</time>
      </trkpt>
      <trkpt lat="40.59710167" lon="-3.76001333">
        <ele>716.0</ele>
        <time>2018-05-26T06:52:24.155Z</time>
      </trkpt>
      <trkpt lat="40.59710167" lon="-3.76001333">
        <ele>716.0</ele>
        <time>2018-05-26T06:52:25.171Z</time>
      </trkpt>
      <trkpt lat="40.59713333" lon="-3.76011333">
        <ele>716.0</ele>
        <time>2018-05-26T06:52:26.153Z</time>
      </trkpt>
      <trkpt lat="40.59713333" lon="-3.76011333">
        <ele>716.0</ele>
        <time>2018-05-26T06:52:27.138Z</time>
      </trkpt>
      <trkpt lat="40.59716667" lon="-3.76021333">
        <ele>716.0</ele>
        <time>2018-05-26T06:52:28.146Z</time>
      </trkpt>
      <trkpt lat="40.59716667" lon="-3.76021333">
        <ele>716.0</ele>
        <time>2018-05-26T06:52:29.159Z</time>
      </trkpt>
      <trkpt lat="40.59720333" lon="-3.76031333">
        <ele>716.0</ele>
        <time>2018-05-26T06:52:30.166Z</time>
      </trkpt>
      <trkpt lat="40.59720333" lon="-3.76031333">
        <ele>716.0</ele>
        <time>2018-05-26T06:52:31.155Z</time>
      </trkpt>
      <trkpt lat="40.59724167" lon="-3.76041167">
        <ele>716.0</ele>
        <time>2018-05-26T06:52:32.153Z</time>
      </trkpt>
      <trkpt lat="40.59724167" lon="-3.76041167">
        <ele>716.0</ele>
        <time>2018-05-26T06:52:33.169Z</time>
      </trkpt>
      <trkpt lat="40.597285" lon="-3.76050833">
        <ele>717.0</ele>
        <time>2018-05-26T06:52:34.151Z</time>
      </trkpt>
      <trkpt lat="40.597285" lon="-3.76050833">
        <ele>717.0</ele>
        <time>2018-05-26T06:52:35.167Z</time>
      </trkpt>
      <trkpt lat="40.59732667" lon="-3.76060167">
        <ele>717.0</ele>
        <time>2018-05-26T06:52:36.149Z</time>
      </trkpt>
      <trkpt lat="40.59732667" lon="-3.76060167">
        <ele>717.0</ele>
        <time>2018-05-26T06:52:37.168Z</time>
      </trkpt>
      <trkpt lat="40.59736833" lon="-3.760685">
        <ele>718.0</ele>
        <time>2018-05-26T06:52:38.141Z</time>
      </trkpt>
      <trkpt lat="40.59736833" lon="-3.760685">
        <ele>718.0</ele>
        <time>2018-05-26T06:52:39.145Z</time>
      </trkpt>
      <trkpt lat="40.59740833" lon="-3.76076833">
        <ele>719.0</ele>
        <time>2018-05-26T06:52:40.162Z</time>
      </trkpt>
      <trkpt lat="40.59740833" lon="-3.76076833">
        <ele>719.0</ele>
        <time>2018-05-26T06:52:41.143Z</time>
      </trkpt>
      <trkpt lat="40.59744333" lon="-3.76085167">
        <ele>719.0</ele>
        <time>2018-05-26T06:52:42.155Z</time>
      </trkpt>
      <trkpt lat="40.59746167" lon="-3.76089667">
        <ele>719.0</ele>
        <time>2018-05-26T06:52:43.163Z</time>
      </trkpt>
      <trkpt lat="40.59746167" lon="-3.76089667">
        <ele>719.0</ele>
        <time>2018-05-26T06:52:44.139Z</time>
      </trkpt>
      <trkpt lat="40.59749667" lon="-3.76098333">
        <ele>720.0</ele>
        <time>2018-05-26T06:52:45.153Z</time>
      </trkpt>
      <trkpt lat="40.59751" lon="-3.76102833">
        <ele>720.0</ele>
        <time>2018-05-26T06:52:46.175Z</time>
      </trkpt>
      <trkpt lat="40.59751" lon="-3.76102833">
        <ele>720.0</ele>
        <time>2018-05-26T06:52:47.147Z</time>
      </trkpt>
      <trkpt lat="40.597535" lon="-3.76112167">
        <ele>720.0</ele>
        <time>2018-05-26T06:52:48.155Z</time>
      </trkpt>
      <trkpt lat="40.597545" lon="-3.76116833">
        <ele>721.0</ele>
        <time>2018-05-26T06:52:49.139Z</time>
      </trkpt>
      <trkpt lat="40.597545" lon="-3.76116833">
        <ele>721.0</ele>
        <time>2018-05-26T06:52:50.162Z</time>
      </trkpt>
      <trkpt lat="40.59756" lon="-3.76126667">
        <ele>721.0</ele>
        <time>2018-05-26T06:52:51.174Z</time>
      </trkpt>
      <trkpt lat="40.59756833" lon="-3.76131667">
        <ele>721.0</ele>
        <time>2018-05-26T06:52:52.169Z</time>
      </trkpt>
      <trkpt lat="40.59756833" lon="-3.76131667">
        <ele>721.0</ele>
        <time>2018-05-26T06:52:53.140Z</time>
      </trkpt>
      <trkpt lat="40.59759333" lon="-3.761405">
        <ele>721.0</ele>
        <time>2018-05-26T06:52:54.177Z</time>
      </trkpt>
      <trkpt lat="40.59759333" lon="-3.761405">
        <ele>721.0</ele>
        <time>2018-05-26T06:52:55.145Z</time>
      </trkpt>
      <trkpt lat="40.59761833" lon="-3.761495">
        <ele>721.0</ele>
        <time>2018-05-26T06:52:56.156Z</time>
      </trkpt>
      <trkpt lat="40.59761833" lon="-3.761495">
        <ele>721.0</ele>
        <time>2018-05-26T06:52:57.168Z</time>
      </trkpt>
      <trkpt lat="40.59764333" lon="-3.761585">
        <ele>722.0</ele>
        <time>2018-05-26T06:52:58.175Z</time>
      </trkpt>
      <trkpt lat="40.59764333" lon="-3.761585">
        <ele>722.0</ele>
        <time>2018-05-26T06:52:59.158Z</time>
      </trkpt>
      <trkpt lat="40.59766333" lon="-3.76168">
        <ele>722.0</ele>
        <time>2018-05-26T06:53:00.142Z</time>
      </trkpt>
      <trkpt lat="40.59767667" lon="-3.76172833">
        <ele>722.0</ele>
        <time>2018-05-26T06:53:01.138Z</time>
      </trkpt>
      <trkpt lat="40.59767667" lon="-3.76172833">
        <ele>722.0</ele>
        <time>2018-05-26T06:53:02.156Z</time>
      </trkpt>
      <trkpt lat="40.597705" lon="-3.76182167">
        <ele>722.0</ele>
        <time>2018-05-26T06:53:03.169Z</time>
      </trkpt>
      <trkpt lat="40.59771833" lon="-3.76186833">
        <ele>722.0</ele>
        <time>2018-05-26T06:53:04.145Z</time>
      </trkpt>
      <trkpt lat="40.59771833" lon="-3.76186833">
        <ele>722.0</ele>
        <time>2018-05-26T06:53:05.169Z</time>
      </trkpt>
      <trkpt lat="40.597745" lon="-3.76196">
        <ele>722.0</ele>
        <time>2018-05-26T06:53:06.145Z</time>
      </trkpt>
      <trkpt lat="40.597745" lon="-3.76196">
        <ele>722.0</ele>
        <time>2018-05-26T06:53:07.166Z</time>
      </trkpt>
      <trkpt lat="40.59777667" lon="-3.76205167">
        <ele>722.0</ele>
        <time>2018-05-26T06:53:08.145Z</time>
      </trkpt>
      <trkpt lat="40.59777667" lon="-3.76205167">
        <ele>722.0</ele>
        <time>2018-05-26T06:53:09.163Z</time>
      </trkpt>
      <trkpt lat="40.59781167" lon="-3.76214667">
        <ele>723.0</ele>
        <time>2018-05-26T06:53:10.175Z</time>
      </trkpt>
      <trkpt lat="40.59781167" lon="-3.76214667">
        <ele>723.0</ele>
        <time>2018-05-26T06:53:11.147Z</time>
      </trkpt>
      <trkpt lat="40.597845" lon="-3.76223833">
        <ele>723.0</ele>
        <time>2018-05-26T06:53:12.159Z</time>
      </trkpt>
      <trkpt lat="40.597845" lon="-3.76223833">
        <ele>723.0</ele>
        <time>2018-05-26T06:53:13.149Z</time>
      </trkpt>
      <trkpt lat="40.59787333" lon="-3.76232833">
        <ele>723.0</ele>
        <time>2018-05-26T06:53:14.159Z</time>
      </trkpt>
      <trkpt lat="40.59787333" lon="-3.76232833">
        <ele>723.0</ele>
        <time>2018-05-26T06:53:15.144Z</time>
      </trkpt>
      <trkpt lat="40.59789667" lon="-3.76242667">
        <ele>723.0</ele>
        <time>2018-05-26T06:53:16.153Z</time>
      </trkpt>
      <trkpt lat="40.59790667" lon="-3.76247667">
        <ele>724.0</ele>
        <time>2018-05-26T06:53:17.142Z</time>
      </trkpt>
      <trkpt lat="40.59790667" lon="-3.76247667">
        <ele>724.0</ele>
        <time>2018-05-26T06:53:18.162Z</time>
      </trkpt>
      <trkpt lat="40.59793" lon="-3.762575">
        <ele>724.0</ele>
        <time>2018-05-26T06:53:19.174Z</time>
      </trkpt>
      <trkpt lat="40.59793" lon="-3.762575">
        <ele>724.0</ele>
        <time>2018-05-26T06:53:20.147Z</time>
      </trkpt>
      <trkpt lat="40.59795167" lon="-3.762675">
        <ele>725.0</ele>
        <time>2018-05-26T06:53:21.162Z</time>
      </trkpt>
      <trkpt lat="40.59796" lon="-3.76272667">
        <ele>725.0</ele>
        <time>2018-05-26T06:53:22.144Z</time>
      </trkpt>
      <trkpt lat="40.59796" lon="-3.76272667">
        <ele>725.0</ele>
        <time>2018-05-26T06:53:23.163Z</time>
      </trkpt>
      <trkpt lat="40.59797667" lon="-3.76283">
        <ele>725.0</ele>
        <time>2018-05-26T06:53:24.172Z</time>
      </trkpt>
      <trkpt lat="40.59797667" lon="-3.76283">
        <ele>725.0</ele>
        <time>2018-05-26T06:53:25.152Z</time>
      </trkpt>
      <trkpt lat="40.59800667" lon="-3.76294167">
        <ele>725.0</ele>
        <time>2018-05-26T06:53:26.169Z</time>
      </trkpt>
      <trkpt lat="40.59802333" lon="-3.76299833">
        <ele>726.0</ele>
        <time>2018-05-26T06:53:27.154Z</time>
      </trkpt>
      <trkpt lat="40.59804" lon="-3.76305333">
        <ele>726.0</ele>
        <time>2018-05-26T06:53:28.137Z</time>
      </trkpt>
      <trkpt lat="40.59804" lon="-3.76305333">
        <ele>726.0</ele>
        <time>2018-05-26T06:53:29.145Z</time>
      </trkpt>
      <trkpt lat="40.59807" lon="-3.76316333">
        <ele>726.0</ele>
        <time>2018-05-26T06:53:30.155Z</time>
      </trkpt>
      <trkpt lat="40.59807" lon="-3.76316333">
        <ele>726.0</ele>
        <time>2018-05-26T06:53:31.158Z</time>
      </trkpt>
      <trkpt lat="40.59809833" lon="-3.763275">
        <ele>727.0</ele>
        <time>2018-05-26T06:53:32.167Z</time>
      </trkpt>
      <trkpt lat="40.59811167" lon="-3.76333">
        <ele>728.0</ele>
        <time>2018-05-26T06:53:33.147Z</time>
      </trkpt>
      <trkpt lat="40.59811167" lon="-3.76333">
        <ele>728.0</ele>
        <time>2018-05-26T06:53:34.167Z</time>
      </trkpt>
      <trkpt lat="40.598135" lon="-3.76344">
        <ele>728.0</ele>
        <time>2018-05-26T06:53:35.147Z</time>
      </trkpt>
      <trkpt lat="40.59814667" lon="-3.763495">
        <ele>728.0</ele>
        <time>2018-05-26T06:53:36.141Z</time>
      </trkpt>
      <trkpt lat="40.59815667" lon="-3.76354833">
        <ele>728.0</ele>
        <time>2018-05-26T06:53:37.138Z</time>
      </trkpt>
      <trkpt lat="40.59815667" lon="-3.76354833">
        <ele>728.0</ele>
        <time>2018-05-26T06:53:38.153Z</time>
      </trkpt>
      <trkpt lat="40.59818833" lon="-3.76366">
        <ele>728.0</ele>
        <time>2018-05-26T06:53:39.167Z</time>
      </trkpt>
      <trkpt lat="40.59818833" lon="-3.76366">
        <ele>728.0</ele>
        <time>2018-05-26T06:53:40.136Z</time>
      </trkpt>
      <trkpt lat="40.59822167" lon="-3.76376667">
        <ele>729.0</ele>
        <time>2018-05-26T06:53:41.148Z</time>
      </trkpt>
      <trkpt lat="40.59822167" lon="-3.76376667">
        <ele>729.0</ele>
        <time>2018-05-26T06:53:42.150Z</time>
      </trkpt>
      <trkpt lat="40.59825667" lon="-3.76387">
        <ele>729.0</ele>
        <time>2018-05-26T06:53:43.160Z</time>
      </trkpt>
      <trkpt lat="40.59825667" lon="-3.76387">
        <ele>729.0</ele>
        <time>2018-05-26T06:53:44.169Z</time>
      </trkpt>
      <trkpt lat="40.59829" lon="-3.76397167">
        <ele>729.0</ele>
        <time>2018-05-26T06:53:45.138Z</time>
      </trkpt>
      <trkpt lat="40.59830333" lon="-3.76402167">
        <ele>730.0</ele>
        <time>2018-05-26T06:53:46.155Z</time>
      </trkpt>
      <trkpt lat="40.59831667" lon="-3.764075">
        <ele>730.0</ele>
        <time>2018-05-26T06:53:47.171Z</time>
      </trkpt>
      <trkpt lat="40.59831667" lon="-3.764075">
        <ele>730.0</ele>
        <time>2018-05-26T06:53:48.145Z</time>
      </trkpt>
      <trkpt lat="40.59833667" lon="-3.764185">
        <ele>730.0</ele>
        <time>2018-05-26T06:53:49.164Z</time>
      </trkpt>
      <trkpt lat="40.59833833" lon="-3.76424333">
        <ele>730.0</ele>
        <time>2018-05-26T06:53:50.150Z</time>
      </trkpt>
      <trkpt lat="40.59833833" lon="-3.76424333">
        <ele>730.0</ele>
        <time>2018-05-26T06:53:51.169Z</time>
      </trkpt>
      <trkpt lat="40.59833833" lon="-3.76434667">
        <ele>731.0</ele>
        <time>2018-05-26T06:53:52.144Z</time>
      </trkpt>
      <trkpt lat="40.59833833" lon="-3.76434667">
        <ele>731.0</ele>
        <time>2018-05-26T06:53:53.156Z</time>
      </trkpt>
      <trkpt lat="40.598345" lon="-3.76445">
        <ele>731.0</ele>
        <time>2018-05-26T06:53:54.165Z</time>
      </trkpt>
      <trkpt lat="40.598345" lon="-3.76445">
        <ele>731.0</ele>
        <time>2018-05-26T06:53:55.141Z</time>
      </trkpt>
      <trkpt lat="40.59835833" lon="-3.764555">
        <ele>732.0</ele>
        <time>2018-05-26T06:53:56.155Z</time>
      </trkpt>
      <trkpt lat="40.59835833" lon="-3.764555">
        <ele>732.0</ele>
        <time>2018-05-26T06:53:57.166Z</time>
      </trkpt>
      <trkpt lat="40.59838167" lon="-3.76466333">
        <ele>732.0</ele>
        <time>2018-05-26T06:53:58.136Z</time>
      </trkpt>
      <trkpt lat="40.59838167" lon="-3.76466333">
        <ele>732.0</ele>
        <time>2018-05-26T06:53:59.149Z</time>
      </trkpt>
      <trkpt lat="40.598395" lon="-3.76477167">
        <ele>732.0</ele>
        <time>2018-05-26T06:54:00.172Z</time>
      </trkpt>
      <trkpt lat="40.598395" lon="-3.76477167">
        <ele>732.0</ele>
        <time>2018-05-26T06:54:01.148Z</time>
      </trkpt>
      <trkpt lat="40.59840667" lon="-3.76487167">
        <ele>732.0</ele>
        <time>2018-05-26T06:54:02.161Z</time>
      </trkpt>
      <trkpt lat="40.59841333" lon="-3.76492">
        <ele>732.0</ele>
        <time>2018-05-26T06:54:03.138Z</time>
      </trkpt>
      <trkpt lat="40.59842167" lon="-3.764975">
        <ele>732.0</ele>
        <time>2018-05-26T06:54:04.174Z</time>
      </trkpt>
      <trkpt lat="40.59842167" lon="-3.764975">
        <ele>732.0</ele>
        <time>2018-05-26T06:54:05.158Z</time>
      </trkpt>
      <trkpt lat="40.598435" lon="-3.765075">
        <ele>733.0</ele>
        <time>2018-05-26T06:54:06.160Z</time>
      </trkpt>
      <trkpt lat="40.59844" lon="-3.76512667">
        <ele>733.0</ele>
        <time>2018-05-26T06:54:07.162Z</time>
      </trkpt>
      <trkpt lat="40.59844" lon="-3.76512667">
        <ele>733.0</ele>
        <time>2018-05-26T06:54:08.137Z</time>
      </trkpt>
      <trkpt lat="40.59845667" lon="-3.76523">
        <ele>733.0</ele>
        <time>2018-05-26T06:54:09.146Z</time>
      </trkpt>
      <trkpt lat="40.59845667" lon="-3.76523">
        <ele>733.0</ele>
        <time>2018-05-26T06:54:10.169Z</time>
      </trkpt>
      <trkpt lat="40.59848333" lon="-3.76533333">
        <ele>733.0</ele>
        <time>2018-05-26T06:54:11.140Z</time>
      </trkpt>
      <trkpt lat="40.59848333" lon="-3.76533333">
        <ele>733.0</ele>
        <time>2018-05-26T06:54:12.161Z</time>
      </trkpt>
      <trkpt lat="40.59851833" lon="-3.76543667">
        <ele>733.0</ele>
        <time>2018-05-26T06:54:13.173Z</time>
      </trkpt>
      <trkpt lat="40.59851833" lon="-3.76543667">
        <ele>733.0</ele>
        <time>2018-05-26T06:54:14.153Z</time>
      </trkpt>
      <trkpt lat="40.59855167" lon="-3.76554">
        <ele>734.0</ele>
        <time>2018-05-26T06:54:15.165Z</time>
      </trkpt>
      <trkpt lat="40.59856667" lon="-3.76559167">
        <ele>734.0</ele>
        <time>2018-05-26T06:54:16.173Z</time>
      </trkpt>
      <trkpt lat="40.59856667" lon="-3.76559167">
        <ele>734.0</ele>
        <time>2018-05-26T06:54:17.172Z</time>
      </trkpt>
      <trkpt lat="40.59860667" lon="-3.76569333">
        <ele>735.0</ele>
        <time>2018-05-26T06:54:18.145Z</time>
      </trkpt>
      <trkpt lat="40.59860667" lon="-3.76569333">
        <ele>735.0</ele>
        <time>2018-05-26T06:54:19.156Z</time>
      </trkpt>
      <trkpt lat="40.598645" lon="-3.76579833">
        <ele>735.0</ele>
        <time>2018-05-26T06:54:20.157Z</time>
      </trkpt>
      <trkpt lat="40.598645" lon="-3.76579833">
        <ele>735.0</ele>
        <time>2018-05-26T06:54:21.169Z</time>
      </trkpt>
      <trkpt lat="40.598685" lon="-3.76590333">
        <ele>736.0</ele>
        <time>2018-05-26T06:54:22.179Z</time>
      </trkpt>
      <trkpt lat="40.598685" lon="-3.76590333">
        <ele>736.0</ele>
        <time>2018-05-26T06:54:23.147Z</time>
      </trkpt>
      <trkpt lat="40.59873" lon="-3.76600667">
        <ele>736.0</ele>
        <time>2018-05-26T06:54:24.159Z</time>
      </trkpt>
      <trkpt lat="40.59873" lon="-3.76600667">
        <ele>736.0</ele>
        <time>2018-05-26T06:54:25.143Z</time>
      </trkpt>
      <trkpt lat="40.598775" lon="-3.766105">
        <ele>736.0</ele>
        <time>2018-05-26T06:54:26.158Z</time>
      </trkpt>
      <trkpt lat="40.59879833" lon="-3.76615333">
        <ele>736.0</ele>
        <time>2018-05-26T06:54:27.162Z</time>
      </trkpt>
      <trkpt lat="40.59879833" lon="-3.76615333">
        <ele>736.0</ele>
        <time>2018-05-26T06:54:28.138Z</time>
      </trkpt>
      <trkpt lat="40.598845" lon="-3.76624833">
        <ele>736.0</ele>
        <time>2018-05-26T06:54:29.154Z</time>
      </trkpt>
      <trkpt lat="40.598845" lon="-3.76624833">
        <ele>736.0</ele>
        <time>2018-05-26T06:54:30.170Z</time>
      </trkpt>
      <trkpt lat="40.59889167" lon="-3.76635167">
        <ele>736.0</ele>
        <time>2018-05-26T06:54:31.141Z</time>
      </trkpt>
      <trkpt lat="40.59889167" lon="-3.76635167">
        <ele>736.0</ele>
        <time>2018-05-26T06:54:32.154Z</time>
      </trkpt>
      <trkpt lat="40.59894" lon="-3.76645333">
        <ele>736.0</ele>
        <time>2018-05-26T06:54:33.165Z</time>
      </trkpt>
      <trkpt lat="40.59896333" lon="-3.766505">
        <ele>736.0</ele>
        <time>2018-05-26T06:54:34.138Z</time>
      </trkpt>
      <trkpt lat="40.59896333" lon="-3.766505">
        <ele>736.0</ele>
        <time>2018-05-26T06:54:35.149Z</time>
      </trkpt>
      <trkpt lat="40.599015" lon="-3.76661167">
        <ele>737.0</ele>
        <time>2018-05-26T06:54:36.162Z</time>
      </trkpt>
      <trkpt lat="40.599015" lon="-3.76661167">
        <ele>737.0</ele>
        <time>2018-05-26T06:54:37.171Z</time>
      </trkpt>
      <trkpt lat="40.59906667" lon="-3.76670833">
        <ele>737.0</ele>
        <time>2018-05-26T06:54:38.142Z</time>
      </trkpt>
      <trkpt lat="40.59906667" lon="-3.76670833">
        <ele>737.0</ele>
        <time>2018-05-26T06:54:39.167Z</time>
      </trkpt>
      <trkpt lat="40.59912667" lon="-3.76680167">
        <ele>738.0</ele>
        <time>2018-05-26T06:54:40.177Z</time>
      </trkpt>
      <trkpt lat="40.59912667" lon="-3.76680167">
        <ele>738.0</ele>
        <time>2018-05-26T06:54:41.150Z</time>
      </trkpt>
      <trkpt lat="40.59918667" lon="-3.76690167">
        <ele>738.0</ele>
        <time>2018-05-26T06:54:42.161Z</time>
      </trkpt>
      <trkpt lat="40.59921667" lon="-3.76695333">
        <ele>738.0</ele>
        <time>2018-05-26T06:54:43.138Z</time>
      </trkpt>
      <trkpt lat="40.59921667" lon="-3.76695333">
        <ele>738.0</ele>
        <time>2018-05-26T06:54:44.157Z</time>
      </trkpt>
      <trkpt lat="40.59927167" lon="-3.76705833">
        <ele>738.0</ele>
        <time>2018-05-26T06:54:45.153Z</time>
      </trkpt>
      <trkpt lat="40.59929833" lon="-3.76711">
        <ele>738.0</ele>
        <time>2018-05-26T06:54:46.166Z</time>
      </trkpt>
      <trkpt lat="40.59932833" lon="-3.76716">
        <ele>738.0</ele>
        <time>2018-05-26T06:54:47.144Z</time>
      </trkpt>
      <trkpt lat="40.59932833" lon="-3.76716">
        <ele>738.0</ele>
        <time>2018-05-26T06:54:48.158Z</time>
      </trkpt>
      <trkpt lat="40.59938667" lon="-3.76726333">
        <ele>738.0</ele>
        <time>2018-05-26T06:54:49.170Z</time>
      </trkpt>
      <trkpt lat="40.59938667" lon="-3.76726333">
        <ele>738.0</ele>
        <time>2018-05-26T06:54:50.150Z</time>
      </trkpt>
      <trkpt lat="40.599435" lon="-3.76737">
        <ele>738.0</ele>
        <time>2018-05-26T06:54:51.162Z</time>
      </trkpt>
      <trkpt lat="40.599435" lon="-3.76737">
        <ele>738.0</ele>
        <time>2018-05-26T06:54:52.145Z</time>
      </trkpt>
      <trkpt lat="40.59947833" lon="-3.76747667">
        <ele>738.0</ele>
        <time>2018-05-26T06:54:53.174Z</time>
      </trkpt>
      <trkpt lat="40.59947833" lon="-3.76747667">
        <ele>738.0</ele>
        <time>2018-05-26T06:54:54.141Z</time>
      </trkpt>
      <trkpt lat="40.59952167" lon="-3.76757667">
        <ele>739.0</ele>
        <time>2018-05-26T06:54:55.154Z</time>
      </trkpt>
      <trkpt lat="40.59952167" lon="-3.76757667">
        <ele>739.0</ele>
        <time>2018-05-26T06:54:56.145Z</time>
      </trkpt>
      <trkpt lat="40.59956333" lon="-3.76768">
        <ele>739.0</ele>
        <time>2018-05-26T06:54:57.161Z</time>
      </trkpt>
      <trkpt lat="40.59956333" lon="-3.76768">
        <ele>739.0</ele>
        <time>2018-05-26T06:54:58.145Z</time>
      </trkpt>
      <trkpt lat="40.59960333" lon="-3.767785">
        <ele>739.0</ele>
        <time>2018-05-26T06:54:59.158Z</time>
      </trkpt>
      <trkpt lat="40.59960333" lon="-3.767785">
        <ele>739.0</ele>
        <time>2018-05-26T06:55:00.148Z</time>
      </trkpt>
      <trkpt lat="40.59964167" lon="-3.76789333">
        <ele>739.0</ele>
        <time>2018-05-26T06:55:01.163Z</time>
      </trkpt>
      <trkpt lat="40.59966" lon="-3.76794833">
        <ele>740.0</ele>
        <time>2018-05-26T06:55:02.174Z</time>
      </trkpt>
      <trkpt lat="40.59966" lon="-3.76794833">
        <ele>740.0</ele>
        <time>2018-05-26T06:55:03.145Z</time>
      </trkpt>
      <trkpt lat="40.59969" lon="-3.76806">
        <ele>740.0</ele>
        <time>2018-05-26T06:55:04.155Z</time>
      </trkpt>
      <trkpt lat="40.59969" lon="-3.76806">
        <ele>740.0</ele>
        <time>2018-05-26T06:55:05.138Z</time>
      </trkpt>
      <trkpt lat="40.59971167" lon="-3.768175">
        <ele>740.0</ele>
        <time>2018-05-26T06:55:06.149Z</time>
      </trkpt>
      <trkpt lat="40.59971167" lon="-3.768175">
        <ele>740.0</ele>
        <time>2018-05-26T06:55:07.169Z</time>
      </trkpt>
      <trkpt lat="40.599735" lon="-3.768295">
        <ele>740.0</ele>
        <time>2018-05-26T06:55:08.168Z</time>
      </trkpt>
      <trkpt lat="40.599735" lon="-3.768295">
        <ele>740.0</ele>
        <time>2018-05-26T06:55:09.136Z</time>
      </trkpt>
      <trkpt lat="40.599755" lon="-3.76841833">
        <ele>740.0</ele>
        <time>2018-05-26T06:55:10.150Z</time>
      </trkpt>
      <trkpt lat="40.599755" lon="-3.76841833">
        <ele>740.0</ele>
        <time>2018-05-26T06:55:11.151Z</time>
      </trkpt>
      <trkpt lat="40.59977333" lon="-3.76853833">
        <ele>741.0</ele>
        <time>2018-05-26T06:55:12.165Z</time>
      </trkpt>
      <trkpt lat="40.59977333" lon="-3.76853833">
        <ele>741.0</ele>
        <time>2018-05-26T06:55:13.138Z</time>
      </trkpt>
      <trkpt lat="40.59978833" lon="-3.768655">
        <ele>741.0</ele>
        <time>2018-05-26T06:55:14.179Z</time>
      </trkpt>
      <trkpt lat="40.59978833" lon="-3.768655">
        <ele>741.0</ele>
        <time>2018-05-26T06:55:15.138Z</time>
      </trkpt>
      <trkpt lat="40.599795" lon="-3.76877333">
        <ele>741.0</ele>
        <time>2018-05-26T06:55:16.147Z</time>
      </trkpt>
      <trkpt lat="40.599795" lon="-3.76877333">
        <ele>741.0</ele>
        <time>2018-05-26T06:55:17.138Z</time>
      </trkpt>
      <trkpt lat="40.59980167" lon="-3.76888333">
        <ele>742.0</ele>
        <time>2018-05-26T06:55:18.151Z</time>
      </trkpt>
      <trkpt lat="40.59980167" lon="-3.76888333">
        <ele>742.0</ele>
        <time>2018-05-26T06:55:19.138Z</time>
      </trkpt>
      <trkpt lat="40.59981333" lon="-3.76899">
        <ele>742.0</ele>
        <time>2018-05-26T06:55:20.165Z</time>
      </trkpt>
      <trkpt lat="40.59981333" lon="-3.76899">
        <ele>742.0</ele>
        <time>2018-05-26T06:55:21.159Z</time>
      </trkpt>
      <trkpt lat="40.59982833" lon="-3.76910167">
        <ele>743.0</ele>
        <time>2018-05-26T06:55:22.172Z</time>
      </trkpt>
      <trkpt lat="40.59982833" lon="-3.76910167">
        <ele>743.0</ele>
        <time>2018-05-26T06:55:23.145Z</time>
      </trkpt>
      <trkpt lat="40.599845" lon="-3.76921333">
        <ele>743.0</ele>
        <time>2018-05-26T06:55:24.157Z</time>
      </trkpt>
      <trkpt lat="40.599845" lon="-3.76921333">
        <ele>743.0</ele>
        <time>2018-05-26T06:55:25.140Z</time>
      </trkpt>
      <trkpt lat="40.59986167" lon="-3.769325">
        <ele>743.0</ele>
        <time>2018-05-26T06:55:26.168Z</time>
      </trkpt>
      <trkpt lat="40.59986167" lon="-3.769325">
        <ele>743.0</ele>
        <time>2018-05-26T06:55:27.172Z</time>
      </trkpt>
      <trkpt lat="40.59987667" lon="-3.76943667">
        <ele>744.0</ele>
        <time>2018-05-26T06:55:28.144Z</time>
      </trkpt>
      <trkpt lat="40.59987667" lon="-3.76943667">
        <ele>744.0</ele>
        <time>2018-05-26T06:55:29.167Z</time>
      </trkpt>
      <trkpt lat="40.59989667" lon="-3.76955">
        <ele>744.0</ele>
        <time>2018-05-26T06:55:30.147Z</time>
      </trkpt>
      <trkpt lat="40.59989667" lon="-3.76955">
        <ele>744.0</ele>
        <time>2018-05-26T06:55:31.160Z</time>
      </trkpt>
      <trkpt lat="40.59992" lon="-3.769665">
        <ele>744.0</ele>
        <time>2018-05-26T06:55:32.174Z</time>
      </trkpt>
      <trkpt lat="40.59992" lon="-3.769665">
        <ele>744.0</ele>
        <time>2018-05-26T06:55:33.144Z</time>
      </trkpt>
      <trkpt lat="40.59994167" lon="-3.76978">
        <ele>745.0</ele>
        <time>2018-05-26T06:55:34.154Z</time>
      </trkpt>
      <trkpt lat="40.59994167" lon="-3.76978">
        <ele>745.0</ele>
        <time>2018-05-26T06:55:35.172Z</time>
      </trkpt>
      <trkpt lat="40.59996" lon="-3.76989">
        <ele>745.0</ele>
        <time>2018-05-26T06:55:36.147Z</time>
      </trkpt>
      <trkpt lat="40.59996833" lon="-3.76994333">
        <ele>745.0</ele>
        <time>2018-05-26T06:55:37.165Z</time>
      </trkpt>
      <trkpt lat="40.59996833" lon="-3.76994333">
        <ele>745.0</ele>
        <time>2018-05-26T06:55:38.140Z</time>
      </trkpt>
      <trkpt lat="40.59998667" lon="-3.77005167">
        <ele>745.0</ele>
        <time>2018-05-26T06:55:39.158Z</time>
      </trkpt>
      <trkpt lat="40.59998667" lon="-3.77005167">
        <ele>745.0</ele>
        <time>2018-05-26T06:55:40.172Z</time>
      </trkpt>
      <trkpt lat="40.600005" lon="-3.770165">
        <ele>746.0</ele>
        <time>2018-05-26T06:55:41.145Z</time>
      </trkpt>
      <trkpt lat="40.60001167" lon="-3.77022">
        <ele>746.0</ele>
        <time>2018-05-26T06:55:42.176Z</time>
      </trkpt>
      <trkpt lat="40.60001167" lon="-3.77022">
        <ele>746.0</ele>
        <time>2018-05-26T06:55:43.164Z</time>
      </trkpt>
      <trkpt lat="40.600025" lon="-3.77033167">
        <ele>747.0</ele>
        <time>2018-05-26T06:55:44.175Z</time>
      </trkpt>
      <trkpt lat="40.600025" lon="-3.77033167">
        <ele>747.0</ele>
        <time>2018-05-26T06:55:45.152Z</time>
      </trkpt>
      <trkpt lat="40.60003667" lon="-3.77044167">
        <ele>747.0</ele>
        <time>2018-05-26T06:55:46.162Z</time>
      </trkpt>
      <trkpt lat="40.60003667" lon="-3.77044167">
        <ele>747.0</ele>
        <time>2018-05-26T06:55:47.140Z</time>
      </trkpt>
      <trkpt lat="40.600045" lon="-3.77055333">
        <ele>747.0</ele>
        <time>2018-05-26T06:55:48.154Z</time>
      </trkpt>
      <trkpt lat="40.60004833" lon="-3.77061167">
        <ele>747.0</ele>
        <time>2018-05-26T06:55:49.175Z</time>
      </trkpt>
      <trkpt lat="40.60004833" lon="-3.77061167">
        <ele>747.0</ele>
        <time>2018-05-26T06:55:50.159Z</time>
      </trkpt>
      <trkpt lat="40.60004167" lon="-3.770725">
        <ele>748.0</ele>
        <time>2018-05-26T06:55:51.172Z</time>
      </trkpt>
      <trkpt lat="40.600035" lon="-3.77078167">
        <ele>748.0</ele>
        <time>2018-05-26T06:55:52.169Z</time>
      </trkpt>
      <trkpt lat="40.600035" lon="-3.77078167">
        <ele>748.0</ele>
        <time>2018-05-26T06:55:53.145Z</time>
      </trkpt>
      <trkpt lat="40.60002833" lon="-3.77089667">
        <ele>749.0</ele>
        <time>2018-05-26T06:55:54.158Z</time>
      </trkpt>
      <trkpt lat="40.60003" lon="-3.770955">
        <ele>749.0</ele>
        <time>2018-05-26T06:55:55.148Z</time>
      </trkpt>
      <trkpt lat="40.60003" lon="-3.770955">
        <ele>749.0</ele>
        <time>2018-05-26T06:55:56.169Z</time>
      </trkpt>
      <trkpt lat="40.60004667" lon="-3.77107333">
        <ele>747.0</ele>
        <time>2018-05-26T06:55:57.144Z</time>
      </trkpt>
      <trkpt lat="40.600055" lon="-3.77113">
        <ele>748.0</ele>
        <time>2018-05-26T06:55:58.171Z</time>
      </trkpt>
      <trkpt lat="40.600055" lon="-3.77113">
        <ele>748.0</ele>
        <time>2018-05-26T06:55:59.146Z</time>
      </trkpt>
      <trkpt lat="40.600065" lon="-3.771245">
        <ele>747.0</ele>
        <time>2018-05-26T06:56:00.170Z</time>
      </trkpt>
      <trkpt lat="40.600065" lon="-3.771245">
        <ele>747.0</ele>
        <time>2018-05-26T06:56:01.140Z</time>
      </trkpt>
      <trkpt lat="40.600075" lon="-3.77136667">
        <ele>746.0</ele>
        <time>2018-05-26T06:56:02.162Z</time>
      </trkpt>
      <trkpt lat="40.600075" lon="-3.77136667">
        <ele>746.0</ele>
        <time>2018-05-26T06:56:03.175Z</time>
      </trkpt>
      <trkpt lat="40.60009333" lon="-3.77148333">
        <ele>746.0</ele>
        <time>2018-05-26T06:56:04.151Z</time>
      </trkpt>
      <trkpt lat="40.60009333" lon="-3.77148333">
        <ele>746.0</ele>
        <time>2018-05-26T06:56:05.173Z</time>
      </trkpt>
      <trkpt lat="40.60011" lon="-3.7716">
        <ele>747.0</ele>
        <time>2018-05-26T06:56:06.150Z</time>
      </trkpt>
      <trkpt lat="40.60011" lon="-3.7716">
        <ele>747.0</ele>
        <time>2018-05-26T06:56:07.166Z</time>
      </trkpt>
      <trkpt lat="40.600125" lon="-3.77171667">
        <ele>747.0</ele>
        <time>2018-05-26T06:56:08.153Z</time>
      </trkpt>
      <trkpt lat="40.600125" lon="-3.77171667">
        <ele>747.0</ele>
        <time>2018-05-26T06:56:09.149Z</time>
      </trkpt>
      <trkpt lat="40.60014667" lon="-3.77183333">
        <ele>748.0</ele>
        <time>2018-05-26T06:56:10.163Z</time>
      </trkpt>
      <trkpt lat="40.60014667" lon="-3.77183333">
        <ele>748.0</ele>
        <time>2018-05-26T06:56:11.140Z</time>
      </trkpt>
      <trkpt lat="40.60017333" lon="-3.77194667">
        <ele>748.0</ele>
        <time>2018-05-26T06:56:12.174Z</time>
      </trkpt>
      <trkpt lat="40.60017333" lon="-3.77194667">
        <ele>748.0</ele>
        <time>2018-05-26T06:56:13.140Z</time>
      </trkpt>
      <trkpt lat="40.60020167" lon="-3.772055">
        <ele>749.0</ele>
        <time>2018-05-26T06:56:14.157Z</time>
      </trkpt>
      <trkpt lat="40.60020167" lon="-3.772055">
        <ele>749.0</ele>
        <time>2018-05-26T06:56:15.139Z</time>
      </trkpt>
      <trkpt lat="40.60022667" lon="-3.77215333">
        <ele>749.0</ele>
        <time>2018-05-26T06:56:16.152Z</time>
      </trkpt>
      <trkpt lat="40.60022667" lon="-3.77215333">
        <ele>749.0</ele>
        <time>2018-05-26T06:56:17.168Z</time>
      </trkpt>
      <trkpt lat="40.600235" lon="-3.77224833">
        <ele>749.0</ele>
        <time>2018-05-26T06:56:18.142Z</time>
      </trkpt>
      <trkpt lat="40.600235" lon="-3.77224833">
        <ele>749.0</ele>
        <time>2018-05-26T06:56:19.165Z</time>
      </trkpt>
      <trkpt lat="40.60024333" lon="-3.77234333">
        <ele>750.0</ele>
        <time>2018-05-26T06:56:20.137Z</time>
      </trkpt>
      <trkpt lat="40.60024333" lon="-3.77234333">
        <ele>750.0</ele>
        <time>2018-05-26T06:56:21.144Z</time>
      </trkpt>
      <trkpt lat="40.60025333" lon="-3.772435">
        <ele>750.0</ele>
        <time>2018-05-26T06:56:22.160Z</time>
      </trkpt>
      <trkpt lat="40.60025333" lon="-3.772435">
        <ele>750.0</ele>
        <time>2018-05-26T06:56:23.141Z</time>
      </trkpt>
      <trkpt lat="40.60027333" lon="-3.77252833">
        <ele>750.0</ele>
        <time>2018-05-26T06:56:24.153Z</time>
      </trkpt>
      <trkpt lat="40.60027333" lon="-3.77252833">
        <ele>750.0</ele>
        <time>2018-05-26T06:56:25.146Z</time>
      </trkpt>
      <trkpt lat="40.60029667" lon="-3.77262667">
        <ele>751.0</ele>
        <time>2018-05-26T06:56:26.167Z</time>
      </trkpt>
      <trkpt lat="40.60029667" lon="-3.77262667">
        <ele>751.0</ele>
        <time>2018-05-26T06:56:27.141Z</time>
      </trkpt>
      <trkpt lat="40.60032167" lon="-3.772725">
        <ele>752.0</ele>
        <time>2018-05-26T06:56:28.147Z</time>
      </trkpt>
      <trkpt lat="40.60032167" lon="-3.772725">
        <ele>752.0</ele>
        <time>2018-05-26T06:56:29.143Z</time>
      </trkpt>
      <trkpt lat="40.60034833" lon="-3.77281167">
        <ele>752.0</ele>
        <time>2018-05-26T06:56:30.153Z</time>
      </trkpt>
      <trkpt lat="40.60035667" lon="-3.77285667">
        <ele>752.0</ele>
        <time>2018-05-26T06:56:31.160Z</time>
      </trkpt>
      <trkpt lat="40.60035667" lon="-3.77285667">
        <ele>752.0</ele>
        <time>2018-05-26T06:56:32.170Z</time>
      </trkpt>
      <trkpt lat="40.60037" lon="-3.77295167">
        <ele>753.0</ele>
        <time>2018-05-26T06:56:33.143Z</time>
      </trkpt>
      <trkpt lat="40.600375" lon="-3.77299667">
        <ele>753.0</ele>
        <time>2018-05-26T06:56:34.156Z</time>
      </trkpt>
      <trkpt lat="40.600375" lon="-3.77299667">
        <ele>753.0</ele>
        <time>2018-05-26T06:56:35.141Z</time>
      </trkpt>
      <trkpt lat="40.60040167" lon="-3.77309">
        <ele>754.0</ele>
        <time>2018-05-26T06:56:36.175Z</time>
      </trkpt>
      <trkpt lat="40.60041333" lon="-3.77313333">
        <ele>755.0</ele>
        <time>2018-05-26T06:56:37.137Z</time>
      </trkpt>
      <trkpt lat="40.60042" lon="-3.77317667">
        <ele>755.0</ele>
        <time>2018-05-26T06:56:38.168Z</time>
      </trkpt>
      <trkpt lat="40.60042" lon="-3.77317667">
        <ele>755.0</ele>
        <time>2018-05-26T06:56:39.148Z</time>
      </trkpt>
      <trkpt lat="40.60043667" lon="-3.77325667">
        <ele>756.0</ele>
        <time>2018-05-26T06:56:40.158Z</time>
      </trkpt>
      <trkpt lat="40.60043667" lon="-3.77325667">
        <ele>756.0</ele>
        <time>2018-05-26T06:56:41.140Z</time>
      </trkpt>
      <trkpt lat="40.60045333" lon="-3.77334667">
        <ele>757.0</ele>
        <time>2018-05-26T06:56:42.150Z</time>
      </trkpt>
      <trkpt lat="40.60045333" lon="-3.77334667">
        <ele>757.0</ele>
        <time>2018-05-26T06:56:43.165Z</time>
      </trkpt>
      <trkpt lat="40.60046833" lon="-3.77344">
        <ele>758.0</ele>
        <time>2018-05-26T06:56:44.136Z</time>
      </trkpt>
      <trkpt lat="40.60046833" lon="-3.77344">
        <ele>758.0</ele>
        <time>2018-05-26T06:56:45.159Z</time>
      </trkpt>
      <trkpt lat="40.60047833" lon="-3.77352833">
        <ele>759.0</ele>
        <time>2018-05-26T06:56:46.166Z</time>
      </trkpt>
      <trkpt lat="40.60047833" lon="-3.77352833">
        <ele>759.0</ele>
        <time>2018-05-26T06:56:47.137Z</time>
      </trkpt>
      <trkpt lat="40.60048667" lon="-3.77362167">
        <ele>760.0</ele>
        <time>2018-05-26T06:56:48.168Z</time>
      </trkpt>
      <trkpt lat="40.60048667" lon="-3.77362167">
        <ele>760.0</ele>
        <time>2018-05-26T06:56:49.150Z</time>
      </trkpt>
      <trkpt lat="40.60049" lon="-3.773705">
        <ele>760.0</ele>
        <time>2018-05-26T06:56:50.167Z</time>
      </trkpt>
      <trkpt lat="40.60049" lon="-3.773705">
        <ele>760.0</ele>
        <time>2018-05-26T06:56:51.141Z</time>
      </trkpt>
      <trkpt lat="40.600505" lon="-3.77378833">
        <ele>761.0</ele>
        <time>2018-05-26T06:56:52.157Z</time>
      </trkpt>
      <trkpt lat="40.600505" lon="-3.77378833">
        <ele>761.0</ele>
        <time>2018-05-26T06:56:53.164Z</time>
      </trkpt>
      <trkpt lat="40.60051833" lon="-3.77387">
        <ele>761.0</ele>
        <time>2018-05-26T06:56:54.176Z</time>
      </trkpt>
      <trkpt lat="40.60051833" lon="-3.77387">
        <ele>761.0</ele>
        <time>2018-05-26T06:56:55.168Z</time>
      </trkpt>
      <trkpt lat="40.60053333" lon="-3.77396">
        <ele>762.0</ele>
        <time>2018-05-26T06:56:56.172Z</time>
      </trkpt>
      <trkpt lat="40.60053333" lon="-3.77396">
        <ele>762.0</ele>
        <time>2018-05-26T06:56:57.142Z</time>
      </trkpt>
      <trkpt lat="40.600545" lon="-3.77404833">
        <ele>762.0</ele>
        <time>2018-05-26T06:56:58.149Z</time>
      </trkpt>
      <trkpt lat="40.600545" lon="-3.77404833">
        <ele>762.0</ele>
        <time>2018-05-26T06:56:59.163Z</time>
      </trkpt>
      <trkpt lat="40.60055833" lon="-3.77413833">
        <ele>762.0</ele>
        <time>2018-05-26T06:57:00.145Z</time>
      </trkpt>
      <trkpt lat="40.60055833" lon="-3.77413833">
        <ele>762.0</ele>
        <time>2018-05-26T06:57:01.159Z</time>
      </trkpt>
      <trkpt lat="40.60057333" lon="-3.77423667">
        <ele>762.0</ele>
        <time>2018-05-26T06:57:02.173Z</time>
      </trkpt>
      <trkpt lat="40.60057333" lon="-3.77423667">
        <ele>762.0</ele>
        <time>2018-05-26T06:57:03.163Z</time>
      </trkpt>
      <trkpt lat="40.60059333" lon="-3.77434333">
        <ele>762.0</ele>
        <time>2018-05-26T06:57:04.164Z</time>
      </trkpt>
      <trkpt lat="40.60059333" lon="-3.77434333">
        <ele>762.0</ele>
        <time>2018-05-26T06:57:05.139Z</time>
      </trkpt>
      <trkpt lat="40.60062167" lon="-3.77445833">
        <ele>762.0</ele>
        <time>2018-05-26T06:57:06.148Z</time>
      </trkpt>
      <trkpt lat="40.60062167" lon="-3.77445833">
        <ele>762.0</ele>
        <time>2018-05-26T06:57:07.157Z</time>
      </trkpt>
      <trkpt lat="40.600645" lon="-3.77456333">
        <ele>762.0</ele>
        <time>2018-05-26T06:57:08.165Z</time>
      </trkpt>
      <trkpt lat="40.600655" lon="-3.774615">
        <ele>762.0</ele>
        <time>2018-05-26T06:57:09.147Z</time>
      </trkpt>
      <trkpt lat="40.600655" lon="-3.774615">
        <ele>762.0</ele>
        <time>2018-05-26T06:57:10.136Z</time>
      </trkpt>
      <trkpt lat="40.60068" lon="-3.77471167">
        <ele>763.0</ele>
        <time>2018-05-26T06:57:11.146Z</time>
      </trkpt>
      <trkpt lat="40.60068" lon="-3.77471167">
        <ele>763.0</ele>
        <time>2018-05-26T06:57:12.163Z</time>
      </trkpt>
      <trkpt lat="40.600705" lon="-3.774805">
        <ele>762.0</ele>
        <time>2018-05-26T06:57:13.174Z</time>
      </trkpt>
      <trkpt lat="40.600705" lon="-3.774805">
        <ele>762.0</ele>
        <time>2018-05-26T06:57:14.150Z</time>
      </trkpt>
      <trkpt lat="40.60073833" lon="-3.774895">
        <ele>762.0</ele>
        <time>2018-05-26T06:57:15.161Z</time>
      </trkpt>
      <trkpt lat="40.60075667" lon="-3.77494">
        <ele>762.0</ele>
        <time>2018-05-26T06:57:16.138Z</time>
      </trkpt>
      <trkpt lat="40.60075667" lon="-3.77494">
        <ele>762.0</ele>
        <time>2018-05-26T06:57:17.151Z</time>
      </trkpt>
      <trkpt lat="40.60079333" lon="-3.77503333">
        <ele>762.0</ele>
        <time>2018-05-26T06:57:18.164Z</time>
      </trkpt>
      <trkpt lat="40.60081333" lon="-3.77507833">
        <ele>763.0</ele>
        <time>2018-05-26T06:57:19.151Z</time>
      </trkpt>
      <trkpt lat="40.60081333" lon="-3.77507833">
        <ele>763.0</ele>
        <time>2018-05-26T06:57:20.167Z</time>
      </trkpt>
      <trkpt lat="40.600855" lon="-3.77516833">
        <ele>763.0</ele>
        <time>2018-05-26T06:57:21.148Z</time>
      </trkpt>
      <trkpt lat="40.60087667" lon="-3.775215">
        <ele>763.0</ele>
        <time>2018-05-26T06:57:22.161Z</time>
      </trkpt>
      <trkpt lat="40.60087667" lon="-3.775215">
        <ele>763.0</ele>
        <time>2018-05-26T06:57:23.138Z</time>
      </trkpt>
      <trkpt lat="40.60091667" lon="-3.775305">
        <ele>764.0</ele>
        <time>2018-05-26T06:57:24.150Z</time>
      </trkpt>
      <trkpt lat="40.60091667" lon="-3.775305">
        <ele>764.0</ele>
        <time>2018-05-26T06:57:25.143Z</time>
      </trkpt>
      <trkpt lat="40.60095333" lon="-3.7754">
        <ele>764.0</ele>
        <time>2018-05-26T06:57:26.157Z</time>
      </trkpt>
      <trkpt lat="40.60095333" lon="-3.7754">
        <ele>764.0</ele>
        <time>2018-05-26T06:57:27.142Z</time>
      </trkpt>
      <trkpt lat="40.60099167" lon="-3.77549833">
        <ele>764.0</ele>
        <time>2018-05-26T06:57:28.153Z</time>
      </trkpt>
      <trkpt lat="40.60099167" lon="-3.77549833">
        <ele>764.0</ele>
        <time>2018-05-26T06:57:29.168Z</time>
      </trkpt>
      <trkpt lat="40.601025" lon="-3.77560833">
        <ele>764.0</ele>
        <time>2018-05-26T06:57:30.142Z</time>
      </trkpt>
      <trkpt lat="40.60104" lon="-3.77566833">
        <ele>764.0</ele>
        <time>2018-05-26T06:57:31.165Z</time>
      </trkpt>
      <trkpt lat="40.60105333" lon="-3.77572667">
        <ele>764.0</ele>
        <time>2018-05-26T06:57:32.145Z</time>
      </trkpt>
      <trkpt lat="40.60105333" lon="-3.77572667">
        <ele>764.0</ele>
        <time>2018-05-26T06:57:33.159Z</time>
      </trkpt>
      <trkpt lat="40.601075" lon="-3.77585333">
        <ele>764.0</ele>
        <time>2018-05-26T06:57:34.175Z</time>
      </trkpt>
      <trkpt lat="40.60108167" lon="-3.77592333">
        <ele>764.0</ele>
        <time>2018-05-26T06:57:35.166Z</time>
      </trkpt>
      <trkpt lat="40.60108167" lon="-3.77592333">
        <ele>764.0</ele>
        <time>2018-05-26T06:57:36.175Z</time>
      </trkpt>
      <trkpt lat="40.601105" lon="-3.77606833">
        <ele>764.0</ele>
        <time>2018-05-26T06:57:37.158Z</time>
      </trkpt>
      <trkpt lat="40.601105" lon="-3.77606833">
        <ele>764.0</ele>
        <time>2018-05-26T06:57:38.140Z</time>
      </trkpt>
      <trkpt lat="40.601155" lon="-3.77621667">
        <ele>764.0</ele>
        <time>2018-05-26T06:57:39.162Z</time>
      </trkpt>
      <trkpt lat="40.601185" lon="-3.77629167">
        <ele>764.0</ele>
        <time>2018-05-26T06:57:40.141Z</time>
      </trkpt>
      <trkpt lat="40.601185" lon="-3.77629167">
        <ele>764.0</ele>
        <time>2018-05-26T06:57:41.166Z</time>
      </trkpt>
      <trkpt lat="40.60124167" lon="-3.77644167">
        <ele>764.0</ele>
        <time>2018-05-26T06:57:42.139Z</time>
      </trkpt>
      <trkpt lat="40.60124167" lon="-3.77644167">
        <ele>764.0</ele>
        <time>2018-05-26T06:57:43.171Z</time>
      </trkpt>
      <trkpt lat="40.60128333" lon="-3.77659833">
        <ele>764.0</ele>
        <time>2018-05-26T06:57:44.146Z</time>
      </trkpt>
      <trkpt lat="40.60128333" lon="-3.77659833">
        <ele>764.0</ele>
        <time>2018-05-26T06:57:45.162Z</time>
      </trkpt>
      <trkpt lat="40.60132" lon="-3.77675">
        <ele>764.0</ele>
        <time>2018-05-26T06:57:46.138Z</time>
      </trkpt>
      <trkpt lat="40.60132" lon="-3.77675">
        <ele>764.0</ele>
        <time>2018-05-26T06:57:47.157Z</time>
      </trkpt>
      <trkpt lat="40.60136167" lon="-3.77689167">
        <ele>764.0</ele>
        <time>2018-05-26T06:57:48.170Z</time>
      </trkpt>
      <trkpt lat="40.601385" lon="-3.77695833">
        <ele>764.0</ele>
        <time>2018-05-26T06:57:49.156Z</time>
      </trkpt>
      <trkpt lat="40.601385" lon="-3.77695833">
        <ele>764.0</ele>
        <time>2018-05-26T06:57:50.171Z</time>
      </trkpt>
      <trkpt lat="40.60143333" lon="-3.77709167">
        <ele>764.0</ele>
        <time>2018-05-26T06:57:51.140Z</time>
      </trkpt>
      <trkpt lat="40.60145833" lon="-3.77715333">
        <ele>764.0</ele>
        <time>2018-05-26T06:57:52.158Z</time>
      </trkpt>
      <trkpt lat="40.60145833" lon="-3.77715333">
        <ele>764.0</ele>
        <time>2018-05-26T06:57:53.138Z</time>
      </trkpt>
      <trkpt lat="40.60151167" lon="-3.77728167">
        <ele>763.0</ele>
        <time>2018-05-26T06:57:54.148Z</time>
      </trkpt>
      <trkpt lat="40.60153667" lon="-3.77735">
        <ele>763.0</ele>
        <time>2018-05-26T06:57:55.154Z</time>
      </trkpt>
      <trkpt lat="40.60153667" lon="-3.77735">
        <ele>763.0</ele>
        <time>2018-05-26T06:57:56.167Z</time>
      </trkpt>
      <trkpt lat="40.601585" lon="-3.77749833">
        <ele>762.0</ele>
        <time>2018-05-26T06:57:57.175Z</time>
      </trkpt>
      <trkpt lat="40.601585" lon="-3.77749833">
        <ele>762.0</ele>
        <time>2018-05-26T06:57:58.149Z</time>
      </trkpt>
      <trkpt lat="40.601625" lon="-3.77766333">
        <ele>761.0</ele>
        <time>2018-05-26T06:57:59.160Z</time>
      </trkpt>
      <trkpt lat="40.601625" lon="-3.77766333">
        <ele>761.0</ele>
        <time>2018-05-26T06:58:00.144Z</time>
      </trkpt>
      <trkpt lat="40.601675" lon="-3.77784667">
        <ele>760.0</ele>
        <time>2018-05-26T06:58:01.156Z</time>
      </trkpt>
      <trkpt lat="40.601675" lon="-3.77784667">
        <ele>760.0</ele>
        <time>2018-05-26T06:58:02.171Z</time>
      </trkpt>
      <trkpt lat="40.60173833" lon="-3.778025">
        <ele>760.0</ele>
        <time>2018-05-26T06:58:03.141Z</time>
      </trkpt>
      <trkpt lat="40.60177333" lon="-3.77811333">
        <ele>759.0</ele>
        <time>2018-05-26T06:58:04.170Z</time>
      </trkpt>
      <trkpt lat="40.60177333" lon="-3.77811333">
        <ele>759.0</ele>
        <time>2018-05-26T06:58:05.146Z</time>
      </trkpt>
      <trkpt lat="40.60185" lon="-3.77828333">
        <ele>759.0</ele>
        <time>2018-05-26T06:58:06.169Z</time>
      </trkpt>
      <trkpt lat="40.60188667" lon="-3.77836">
        <ele>759.0</ele>
        <time>2018-05-26T06:58:07.150Z</time>
      </trkpt>
      <trkpt lat="40.60188667" lon="-3.77836">
        <ele>759.0</ele>
        <time>2018-05-26T06:58:08.136Z</time>
      </trkpt>
      <trkpt lat="40.60193333" lon="-3.778515">
        <ele>759.0</ele>
        <time>2018-05-26T06:58:09.149Z</time>
      </trkpt>
      <trkpt lat="40.601945" lon="-3.77858667">
        <ele>759.0</ele>
        <time>2018-05-26T06:58:10.166Z</time>
      </trkpt>
      <trkpt lat="40.601945" lon="-3.77858667">
        <ele>759.0</ele>
        <time>2018-05-26T06:58:11.140Z</time>
      </trkpt>
      <trkpt lat="40.601945" lon="-3.77871833">
        <ele>757.0</ele>
        <time>2018-05-26T06:58:12.165Z</time>
      </trkpt>
      <trkpt lat="40.60192333" lon="-3.77878833">
        <ele>757.0</ele>
        <time>2018-05-26T06:58:13.142Z</time>
      </trkpt>
      <trkpt lat="40.60188167" lon="-3.77886167">
        <ele>756.0</ele>
        <time>2018-05-26T06:58:14.156Z</time>
      </trkpt>
      <trkpt lat="40.60188167" lon="-3.77886167">
        <ele>756.0</ele>
        <time>2018-05-26T06:58:15.170Z</time>
      </trkpt>
      <trkpt lat="40.60178" lon="-3.77901833">
        <ele>754.0</ele>
        <time>2018-05-26T06:58:16.146Z</time>
      </trkpt>
      <trkpt lat="40.60178" lon="-3.77901833">
        <ele>754.0</ele>
        <time>2018-05-26T06:58:17.164Z</time>
      </trkpt>
      <trkpt lat="40.60164833" lon="-3.77917667">
        <ele>753.0</ele>
        <time>2018-05-26T06:58:18.171Z</time>
      </trkpt>
      <trkpt lat="40.60164833" lon="-3.77917667">
        <ele>753.0</ele>
        <time>2018-05-26T06:58:19.140Z</time>
      </trkpt>
      <trkpt lat="40.60151167" lon="-3.77936">
        <ele>752.0</ele>
        <time>2018-05-26T06:58:20.150Z</time>
      </trkpt>
      <trkpt lat="40.60151167" lon="-3.77936">
        <ele>752.0</ele>
        <time>2018-05-26T06:58:21.163Z</time>
      </trkpt>
      <trkpt lat="40.601385" lon="-3.77955333">
        <ele>751.0</ele>
        <time>2018-05-26T06:58:22.175Z</time>
      </trkpt>
      <trkpt lat="40.601385" lon="-3.77955333">
        <ele>751.0</ele>
        <time>2018-05-26T06:58:23.147Z</time>
      </trkpt>
      <trkpt lat="40.60129" lon="-3.779765">
        <ele>751.0</ele>
        <time>2018-05-26T06:58:24.160Z</time>
      </trkpt>
      <trkpt lat="40.60129" lon="-3.779765">
        <ele>751.0</ele>
        <time>2018-05-26T06:58:25.144Z</time>
      </trkpt>
      <trkpt lat="40.60121833" lon="-3.77998167">
        <ele>750.0</ele>
        <time>2018-05-26T06:58:26.153Z</time>
      </trkpt>
      <trkpt lat="40.60121833" lon="-3.77998167">
        <ele>750.0</ele>
        <time>2018-05-26T06:58:27.143Z</time>
      </trkpt>
      <trkpt lat="40.60117667" lon="-3.78019833">
        <ele>751.0</ele>
        <time>2018-05-26T06:58:28.156Z</time>
      </trkpt>
      <trkpt lat="40.60117667" lon="-3.78019833">
        <ele>751.0</ele>
        <time>2018-05-26T06:58:29.170Z</time>
      </trkpt>
      <trkpt lat="40.60115333" lon="-3.78041">
        <ele>750.0</ele>
        <time>2018-05-26T06:58:30.166Z</time>
      </trkpt>
      <trkpt lat="40.60114167" lon="-3.78051833">
        <ele>750.0</ele>
        <time>2018-05-26T06:58:31.154Z</time>
      </trkpt>
      <trkpt lat="40.60114167" lon="-3.78051833">
        <ele>750.0</ele>
        <time>2018-05-26T06:58:32.143Z</time>
      </trkpt>
      <trkpt lat="40.60111167" lon="-3.78073333">
        <ele>748.0</ele>
        <time>2018-05-26T06:58:33.157Z</time>
      </trkpt>
      <trkpt lat="40.60109167" lon="-3.78084167">
        <ele>748.0</ele>
        <time>2018-05-26T06:58:34.145Z</time>
      </trkpt>
      <trkpt lat="40.60108" lon="-3.78094">
        <ele>747.0</ele>
        <time>2018-05-26T06:58:35.179Z</time>
      </trkpt>
      <trkpt lat="40.60108" lon="-3.78094">
        <ele>747.0</ele>
        <time>2018-05-26T06:58:36.150Z</time>
      </trkpt>
      <trkpt lat="40.60106333" lon="-3.78112833">
        <ele>746.0</ele>
        <time>2018-05-26T06:58:37.165Z</time>
      </trkpt>
      <trkpt lat="40.601045" lon="-3.78122333">
        <ele>745.0</ele>
        <time>2018-05-26T06:58:38.155Z</time>
      </trkpt>
      <trkpt lat="40.601045" lon="-3.78122333">
        <ele>745.0</ele>
        <time>2018-05-26T06:58:39.168Z</time>
      </trkpt>
      <trkpt lat="40.601005" lon="-3.78141">
        <ele>743.0</ele>
        <time>2018-05-26T06:58:40.145Z</time>
      </trkpt>
      <trkpt lat="40.601005" lon="-3.78141">
        <ele>743.0</ele>
        <time>2018-05-26T06:58:41.161Z</time>
      </trkpt>
      <trkpt lat="40.60098167" lon="-3.78160333">
        <ele>741.0</ele>
        <time>2018-05-26T06:58:42.175Z</time>
      </trkpt>
      <trkpt lat="40.60099" lon="-3.78169167">
        <ele>741.0</ele>
        <time>2018-05-26T06:58:43.157Z</time>
      </trkpt>
      <trkpt lat="40.60099" lon="-3.78169167">
        <ele>741.0</ele>
        <time>2018-05-26T06:58:44.175Z</time>
      </trkpt>
      <trkpt lat="40.60104" lon="-3.78185">
        <ele>740.0</ele>
        <time>2018-05-26T06:58:45.144Z</time>
      </trkpt>
      <trkpt lat="40.60104" lon="-3.78185">
        <ele>740.0</ele>
        <time>2018-05-26T06:58:46.152Z</time>
      </trkpt>
      <trkpt lat="40.60113833" lon="-3.78197667">
        <ele>739.0</ele>
        <time>2018-05-26T06:58:47.171Z</time>
      </trkpt>
      <trkpt lat="40.60113833" lon="-3.78197667">
        <ele>739.0</ele>
        <time>2018-05-26T06:58:48.144Z</time>
      </trkpt>
      <trkpt lat="40.60128" lon="-3.782095">
        <ele>738.0</ele>
        <time>2018-05-26T06:58:49.157Z</time>
      </trkpt>
      <trkpt lat="40.60128" lon="-3.782095">
        <ele>738.0</ele>
        <time>2018-05-26T06:58:50.167Z</time>
      </trkpt>
      <trkpt lat="40.60141333" lon="-3.782235">
        <ele>737.0</ele>
        <time>2018-05-26T06:58:51.143Z</time>
      </trkpt>
      <trkpt lat="40.60141333" lon="-3.782235">
        <ele>737.0</ele>
        <time>2018-05-26T06:58:52.165Z</time>
      </trkpt>
      <trkpt lat="40.60152833" lon="-3.78240333">
        <ele>736.0</ele>
        <time>2018-05-26T06:58:53.172Z</time>
      </trkpt>
      <trkpt lat="40.60152833" lon="-3.78240333">
        <ele>736.0</ele>
        <time>2018-05-26T06:58:54.155Z</time>
      </trkpt>
      <trkpt lat="40.60162333" lon="-3.782575">
        <ele>736.0</ele>
        <time>2018-05-26T06:58:55.164Z</time>
      </trkpt>
      <trkpt lat="40.60162333" lon="-3.782575">
        <ele>736.0</ele>
        <time>2018-05-26T06:58:56.140Z</time>
      </trkpt>
      <trkpt lat="40.6017" lon="-3.78274667">
        <ele>736.0</ele>
        <time>2018-05-26T06:58:57.150Z</time>
      </trkpt>
      <trkpt lat="40.6017" lon="-3.78274667">
        <ele>736.0</ele>
        <time>2018-05-26T06:58:58.165Z</time>
      </trkpt>
      <trkpt lat="40.60177833" lon="-3.78289833">
        <ele>736.0</ele>
        <time>2018-05-26T06:58:59.148Z</time>
      </trkpt>
      <trkpt lat="40.60177833" lon="-3.78289833">
        <ele>736.0</ele>
        <time>2018-05-26T06:59:00.160Z</time>
      </trkpt>
      <trkpt lat="40.60184333" lon="-3.78303">
        <ele>740.0</ele>
        <time>2018-05-26T06:59:01.137Z</time>
      </trkpt>
      <trkpt lat="40.60184333" lon="-3.78303">
        <ele>740.0</ele>
        <time>2018-05-26T06:59:02.152Z</time>
      </trkpt>
      <trkpt lat="40.601895" lon="-3.78316167">
        <ele>741.0</ele>
        <time>2018-05-26T06:59:03.171Z</time>
      </trkpt>
      <trkpt lat="40.601895" lon="-3.78316167">
        <ele>741.0</ele>
        <time>2018-05-26T06:59:04.151Z</time>
      </trkpt>
      <trkpt lat="40.601935" lon="-3.78329833">
        <ele>742.0</ele>
        <time>2018-05-26T06:59:05.164Z</time>
      </trkpt>
      <trkpt lat="40.601935" lon="-3.78329833">
        <ele>742.0</ele>
        <time>2018-05-26T06:59:06.143Z</time>
      </trkpt>
      <trkpt lat="40.60193" lon="-3.78344833">
        <ele>742.0</ele>
        <time>2018-05-26T06:59:07.157Z</time>
      </trkpt>
      <trkpt lat="40.60193" lon="-3.78344833">
        <ele>742.0</ele>
        <time>2018-05-26T06:59:08.170Z</time>
      </trkpt>
      <trkpt lat="40.60187" lon="-3.7836">
        <ele>741.0</ele>
        <time>2018-05-26T06:59:09.139Z</time>
      </trkpt>
      <trkpt lat="40.60182667" lon="-3.78366333">
        <ele>741.0</ele>
        <time>2018-05-26T06:59:10.169Z</time>
      </trkpt>
      <trkpt lat="40.60182667" lon="-3.78366333">
        <ele>741.0</ele>
        <time>2018-05-26T06:59:11.148Z</time>
      </trkpt>
      <trkpt lat="40.60173833" lon="-3.78377833">
        <ele>741.0</ele>
        <time>2018-05-26T06:59:12.170Z</time>
      </trkpt>
      <trkpt lat="40.60169333" lon="-3.78383833">
        <ele>740.0</ele>
        <time>2018-05-26T06:59:13.150Z</time>
      </trkpt>
      <trkpt lat="40.60169333" lon="-3.78383833">
        <ele>740.0</ele>
        <time>2018-05-26T06:59:14.165Z</time>
      </trkpt>
      <trkpt lat="40.601595" lon="-3.78397">
        <ele>737.0</ele>
        <time>2018-05-26T06:59:15.136Z</time>
      </trkpt>
      <trkpt lat="40.60153667" lon="-3.78405667">
        <ele>736.0</ele>
        <time>2018-05-26T06:59:16.143Z</time>
      </trkpt>
      <trkpt lat="40.60153667" lon="-3.78405667">
        <ele>736.0</ele>
        <time>2018-05-26T06:59:17.159Z</time>
      </trkpt>
      <trkpt lat="40.60139333" lon="-3.78423833">
        <ele>732.0</ele>
        <time>2018-05-26T06:59:18.169Z</time>
      </trkpt>
      <trkpt lat="40.60131333" lon="-3.784325">
        <ele>730.0</ele>
        <time>2018-05-26T06:59:19.153Z</time>
      </trkpt>
      <trkpt lat="40.60131333" lon="-3.784325">
        <ele>730.0</ele>
        <time>2018-05-26T06:59:20.139Z</time>
      </trkpt>
      <trkpt lat="40.60114333" lon="-3.78448833">
        <ele>727.0</ele>
        <time>2018-05-26T06:59:21.161Z</time>
      </trkpt>
      <trkpt lat="40.60105167" lon="-3.78455833">
        <ele>726.0</ele>
        <time>2018-05-26T06:59:22.143Z</time>
      </trkpt>
      <trkpt lat="40.60105167" lon="-3.78455833">
        <ele>726.0</ele>
        <time>2018-05-26T06:59:23.139Z</time>
      </trkpt>
      <trkpt lat="40.60088333" lon="-3.78469667">
        <ele>725.0</ele>
        <time>2018-05-26T06:59:24.163Z</time>
      </trkpt>
      <trkpt lat="40.60081333" lon="-3.784785">
        <ele>725.0</ele>
        <time>2018-05-26T06:59:25.151Z</time>
      </trkpt>
      <trkpt lat="40.60081333" lon="-3.784785">
        <ele>725.0</ele>
        <time>2018-05-26T06:59:26.170Z</time>
      </trkpt>
      <trkpt lat="40.600695" lon="-3.78500667">
        <ele>722.0</ele>
        <time>2018-05-26T06:59:27.159Z</time>
      </trkpt>
      <trkpt lat="40.600695" lon="-3.78500667">
        <ele>722.0</ele>
        <time>2018-05-26T06:59:28.165Z</time>
      </trkpt>
      <trkpt lat="40.60057667" lon="-3.785275">
        <ele>720.0</ele>
        <time>2018-05-26T06:59:29.146Z</time>
      </trkpt>
      <trkpt lat="40.60057667" lon="-3.785275">
        <ele>720.0</ele>
        <time>2018-05-26T06:59:30.175Z</time>
      </trkpt>
      <trkpt lat="40.60049" lon="-3.78558">
        <ele>718.0</ele>
        <time>2018-05-26T06:59:31.145Z</time>
      </trkpt>
      <trkpt lat="40.60049" lon="-3.78558">
        <ele>718.0</ele>
        <time>2018-05-26T06:59:32.168Z</time>
      </trkpt>
      <trkpt lat="40.60041833" lon="-3.78589667">
        <ele>716.0</ele>
        <time>2018-05-26T06:59:33.165Z</time>
      </trkpt>
      <trkpt lat="40.600395" lon="-3.78605833">
        <ele>715.0</ele>
        <time>2018-05-26T06:59:34.161Z</time>
      </trkpt>
      <trkpt lat="40.600395" lon="-3.78605833">
        <ele>715.0</ele>
        <time>2018-05-26T06:59:35.139Z</time>
      </trkpt>
      <trkpt lat="40.60035667" lon="-3.786365">
        <ele>713.0</ele>
        <time>2018-05-26T06:59:36.147Z</time>
      </trkpt>
      <trkpt lat="40.60032" lon="-3.78650167">
        <ele>712.0</ele>
        <time>2018-05-26T06:59:37.173Z</time>
      </trkpt>
      <trkpt lat="40.60032" lon="-3.78650167">
        <ele>712.0</ele>
        <time>2018-05-26T06:59:38.148Z</time>
      </trkpt>
      <trkpt lat="40.60022167" lon="-3.78676167">
        <ele>711.0</ele>
        <time>2018-05-26T06:59:39.162Z</time>
      </trkpt>
      <trkpt lat="40.60017" lon="-3.78689167">
        <ele>710.0</ele>
        <time>2018-05-26T06:59:40.156Z</time>
      </trkpt>
      <trkpt lat="40.60017" lon="-3.78689167">
        <ele>710.0</ele>
        <time>2018-05-26T06:59:41.172Z</time>
      </trkpt>
      <trkpt lat="40.60004667" lon="-3.787135">
        <ele>709.0</ele>
        <time>2018-05-26T06:59:42.140Z</time>
      </trkpt>
      <trkpt lat="40.59999" lon="-3.78724833">
        <ele>708.0</ele>
        <time>2018-05-26T06:59:43.158Z</time>
      </trkpt>
      <trkpt lat="40.59999" lon="-3.78724833">
        <ele>708.0</ele>
        <time>2018-05-26T06:59:44.140Z</time>
      </trkpt>
      <trkpt lat="40.59991" lon="-3.787475">
        <ele>707.0</ele>
        <time>2018-05-26T06:59:45.150Z</time>
      </trkpt>
      <trkpt lat="40.59991" lon="-3.787475">
        <ele>707.0</ele>
        <time>2018-05-26T06:59:46.164Z</time>
      </trkpt>
      <trkpt lat="40.59984167" lon="-3.78768">
        <ele>705.0</ele>
        <time>2018-05-26T06:59:47.171Z</time>
      </trkpt>
      <trkpt lat="40.59984167" lon="-3.78768">
        <ele>705.0</ele>
        <time>2018-05-26T06:59:48.156Z</time>
      </trkpt>
      <trkpt lat="40.59974833" lon="-3.78789667">
        <ele>703.0</ele>
        <time>2018-05-26T06:59:49.164Z</time>
      </trkpt>
      <trkpt lat="40.59968167" lon="-3.78800167">
        <ele>702.0</ele>
        <time>2018-05-26T06:59:50.162Z</time>
      </trkpt>
      <trkpt lat="40.59961167" lon="-3.788105">
        <ele>702.0</ele>
        <time>2018-05-26T06:59:51.150Z</time>
      </trkpt>
      <trkpt lat="40.59961167" lon="-3.788105">
        <ele>702.0</ele>
        <time>2018-05-26T06:59:52.167Z</time>
      </trkpt>
      <trkpt lat="40.59947667" lon="-3.78831833">
        <ele>700.0</ele>
        <time>2018-05-26T06:59:53.137Z</time>
      </trkpt>
      <trkpt lat="40.59947667" lon="-3.78831833">
        <ele>700.0</ele>
        <time>2018-05-26T06:59:54.139Z</time>
      </trkpt>
      <trkpt lat="40.59937833" lon="-3.788555">
        <ele>699.0</ele>
        <time>2018-05-26T06:59:55.149Z</time>
      </trkpt>
      <trkpt lat="40.59937833" lon="-3.788555">
        <ele>699.0</ele>
        <time>2018-05-26T06:59:56.173Z</time>
      </trkpt>
      <trkpt lat="40.59931833" lon="-3.78881667">
        <ele>698.0</ele>
        <time>2018-05-26T06:59:57.146Z</time>
      </trkpt>
      <trkpt lat="40.59929167" lon="-3.78895167">
        <ele>697.0</ele>
        <time>2018-05-26T06:59:58.172Z</time>
      </trkpt>
      <trkpt lat="40.59929167" lon="-3.78895167">
        <ele>697.0</ele>
        <time>2018-05-26T06:59:59.155Z</time>
      </trkpt>
      <trkpt lat="40.59923167" lon="-3.78922">
        <ele>696.0</ele>
        <time>2018-05-26T07:00:00.146Z</time>
      </trkpt>
      <trkpt lat="40.59921167" lon="-3.789355">
        <ele>696.0</ele>
        <time>2018-05-26T07:00:01.151Z</time>
      </trkpt>
      <trkpt lat="40.59921167" lon="-3.789355">
        <ele>696.0</ele>
        <time>2018-05-26T07:00:02.171Z</time>
      </trkpt>
      <trkpt lat="40.59918333" lon="-3.78962167">
        <ele>695.0</ele>
        <time>2018-05-26T07:00:03.143Z</time>
      </trkpt>
      <trkpt lat="40.59918333" lon="-3.78962167">
        <ele>695.0</ele>
        <time>2018-05-26T07:00:04.157Z</time>
      </trkpt>
      <trkpt lat="40.599145" lon="-3.78988">
        <ele>694.0</ele>
        <time>2018-05-26T07:00:05.143Z</time>
      </trkpt>
      <trkpt lat="40.599145" lon="-3.78988">
        <ele>694.0</ele>
        <time>2018-05-26T07:00:06.157Z</time>
      </trkpt>
      <trkpt lat="40.59912167" lon="-3.790145">
        <ele>694.0</ele>
        <time>2018-05-26T07:00:07.168Z</time>
      </trkpt>
      <trkpt lat="40.59912167" lon="-3.790145">
        <ele>694.0</ele>
        <time>2018-05-26T07:00:08.160Z</time>
      </trkpt>
      <trkpt lat="40.59912833" lon="-3.79041833">
        <ele>693.0</ele>
        <time>2018-05-26T07:00:09.169Z</time>
      </trkpt>
      <trkpt lat="40.59913333" lon="-3.79055833">
        <ele>693.0</ele>
        <time>2018-05-26T07:00:10.163Z</time>
      </trkpt>
      <trkpt lat="40.59913333" lon="-3.79055833">
        <ele>693.0</ele>
        <time>2018-05-26T07:00:11.144Z</time>
      </trkpt>
      <trkpt lat="40.59915833" lon="-3.79084833">
        <ele>692.0</ele>
        <time>2018-05-26T07:00:12.163Z</time>
      </trkpt>
      <trkpt lat="40.59917667" lon="-3.79099">
        <ele>691.0</ele>
        <time>2018-05-26T07:00:13.163Z</time>
      </trkpt>
      <trkpt lat="40.59917667" lon="-3.79099">
        <ele>691.0</ele>
        <time>2018-05-26T07:00:14.143Z</time>
      </trkpt>
      <trkpt lat="40.59922333" lon="-3.79128167">
        <ele>689.0</ele>
        <time>2018-05-26T07:00:15.151Z</time>
      </trkpt>
      <trkpt lat="40.59926333" lon="-3.79142333">
        <ele>689.0</ele>
        <time>2018-05-26T07:00:16.172Z</time>
      </trkpt>
      <trkpt lat="40.59926333" lon="-3.79142333">
        <ele>689.0</ele>
        <time>2018-05-26T07:00:17.149Z</time>
      </trkpt>
      <trkpt lat="40.59935" lon="-3.79170667">
        <ele>687.0</ele>
        <time>2018-05-26T07:00:18.167Z</time>
      </trkpt>
      <trkpt lat="40.59938833" lon="-3.79185">
        <ele>686.0</ele>
        <time>2018-05-26T07:00:19.147Z</time>
      </trkpt>
      <trkpt lat="40.59938833" lon="-3.79185">
        <ele>686.0</ele>
        <time>2018-05-26T07:00:20.162Z</time>
      </trkpt>
      <trkpt lat="40.59944333" lon="-3.792145">
        <ele>685.0</ele>
        <time>2018-05-26T07:00:21.167Z</time>
      </trkpt>
      <trkpt lat="40.59944333" lon="-3.792145">
        <ele>685.0</ele>
        <time>2018-05-26T07:00:22.146Z</time>
      </trkpt>
      <trkpt lat="40.59949" lon="-3.79243333">
        <ele>684.0</ele>
        <time>2018-05-26T07:00:23.165Z</time>
      </trkpt>
      <trkpt lat="40.59949" lon="-3.79243333">
        <ele>684.0</ele>
        <time>2018-05-26T07:00:24.139Z</time>
      </trkpt>
      <trkpt lat="40.59953333" lon="-3.792725">
        <ele>683.0</ele>
        <time>2018-05-26T07:00:25.154Z</time>
      </trkpt>
      <trkpt lat="40.599555" lon="-3.79286833">
        <ele>683.0</ele>
        <time>2018-05-26T07:00:26.155Z</time>
      </trkpt>
      <trkpt lat="40.59958" lon="-3.79301167">
        <ele>683.0</ele>
        <time>2018-05-26T07:00:27.143Z</time>
      </trkpt>
      <trkpt lat="40.599605" lon="-3.79314833">
        <ele>682.0</ele>
        <time>2018-05-26T07:00:28.160Z</time>
      </trkpt>
      <trkpt lat="40.599605" lon="-3.79314833">
        <ele>682.0</ele>
        <time>2018-05-26T07:00:29.140Z</time>
      </trkpt>
      <trkpt lat="40.59966" lon="-3.79341333">
        <ele>682.0</ele>
        <time>2018-05-26T07:00:30.150Z</time>
      </trkpt>
      <trkpt lat="40.59966" lon="-3.79341333">
        <ele>682.0</ele>
        <time>2018-05-26T07:00:31.168Z</time>
      </trkpt>
      <trkpt lat="40.59971667" lon="-3.79366">
        <ele>682.0</ele>
        <time>2018-05-26T07:00:32.136Z</time>
      </trkpt>
      <trkpt lat="40.59971667" lon="-3.79366">
        <ele>682.0</ele>
        <time>2018-05-26T07:00:33.158Z</time>
      </trkpt>
      <trkpt lat="40.59976667" lon="-3.793895">
        <ele>681.0</ele>
        <time>2018-05-26T07:00:34.169Z</time>
      </trkpt>
      <trkpt lat="40.59976667" lon="-3.793895">
        <ele>681.0</ele>
        <time>2018-05-26T07:00:35.153Z</time>
      </trkpt>
      <trkpt lat="40.59981833" lon="-3.79410833">
        <ele>682.0</ele>
        <time>2018-05-26T07:00:36.177Z</time>
      </trkpt>
      <trkpt lat="40.59981833" lon="-3.79410833">
        <ele>682.0</ele>
        <time>2018-05-26T07:00:37.141Z</time>
      </trkpt>
      <trkpt lat="40.59986333" lon="-3.79432">
        <ele>681.0</ele>
        <time>2018-05-26T07:00:38.150Z</time>
      </trkpt>
      <trkpt lat="40.59986333" lon="-3.79432">
        <ele>681.0</ele>
        <time>2018-05-26T07:00:39.175Z</time>
      </trkpt>
      <trkpt lat="40.599905" lon="-3.79456333">
        <ele>678.0</ele>
        <time>2018-05-26T07:00:40.150Z</time>
      </trkpt>
      <trkpt lat="40.59992333" lon="-3.7947">
        <ele>677.0</ele>
        <time>2018-05-26T07:00:41.171Z</time>
      </trkpt>
      <trkpt lat="40.59992333" lon="-3.7947">
        <ele>677.0</ele>
        <time>2018-05-26T07:00:42.156Z</time>
      </trkpt>
      <trkpt lat="40.59994833" lon="-3.79499833">
        <ele>674.0</ele>
        <time>2018-05-26T07:00:43.166Z</time>
      </trkpt>
      <trkpt lat="40.59994833" lon="-3.79499833">
        <ele>674.0</ele>
        <time>2018-05-26T07:00:44.149Z</time>
      </trkpt>
      <trkpt lat="40.599975" lon="-3.79532">
        <ele>672.0</ele>
        <time>2018-05-26T07:00:45.167Z</time>
      </trkpt>
      <trkpt lat="40.59998" lon="-3.79548667">
        <ele>670.0</ele>
        <time>2018-05-26T07:00:46.180Z</time>
      </trkpt>
      <trkpt lat="40.59998" lon="-3.79548667">
        <ele>670.0</ele>
        <time>2018-05-26T07:00:47.152Z</time>
      </trkpt>
      <trkpt lat="40.59998" lon="-3.79583167">
        <ele>668.0</ele>
        <time>2018-05-26T07:00:48.164Z</time>
      </trkpt>
      <trkpt lat="40.59998" lon="-3.79583167">
        <ele>668.0</ele>
        <time>2018-05-26T07:00:49.151Z</time>
      </trkpt>
      <trkpt lat="40.599985" lon="-3.79617833">
        <ele>666.0</ele>
        <time>2018-05-26T07:00:50.164Z</time>
      </trkpt>
      <trkpt lat="40.599985" lon="-3.79617833">
        <ele>666.0</ele>
        <time>2018-05-26T07:00:51.140Z</time>
      </trkpt>
      <trkpt lat="40.599945" lon="-3.79651333">
        <ele>664.0</ele>
        <time>2018-05-26T07:00:52.154Z</time>
      </trkpt>
      <trkpt lat="40.599945" lon="-3.79651333">
        <ele>664.0</ele>
        <time>2018-05-26T07:00:53.141Z</time>
      </trkpt>
      <trkpt lat="40.59988833" lon="-3.79682667">
        <ele>663.0</ele>
        <time>2018-05-26T07:00:54.156Z</time>
      </trkpt>
      <trkpt lat="40.59988833" lon="-3.79682667">
        <ele>663.0</ele>
        <time>2018-05-26T07:00:55.169Z</time>
      </trkpt>
      <trkpt lat="40.59981" lon="-3.79710167">
        <ele>663.0</ele>
        <time>2018-05-26T07:00:56.144Z</time>
      </trkpt>
      <trkpt lat="40.59981" lon="-3.79710167">
        <ele>663.0</ele>
        <time>2018-05-26T07:00:57.167Z</time>
      </trkpt>
      <trkpt lat="40.59970833" lon="-3.79735167">
        <ele>662.0</ele>
        <time>2018-05-26T07:00:58.142Z</time>
      </trkpt>
      <trkpt lat="40.59970833" lon="-3.79735167">
        <ele>662.0</ele>
        <time>2018-05-26T07:00:59.156Z</time>
      </trkpt>
      <trkpt lat="40.59958333" lon="-3.79757333">
        <ele>661.0</ele>
        <time>2018-05-26T07:01:00.142Z</time>
      </trkpt>
      <trkpt lat="40.59958333" lon="-3.79757333">
        <ele>661.0</ele>
        <time>2018-05-26T07:01:01.162Z</time>
      </trkpt>
      <trkpt lat="40.59943333" lon="-3.79774833">
        <ele>660.0</ele>
        <time>2018-05-26T07:01:02.172Z</time>
      </trkpt>
      <trkpt lat="40.59943333" lon="-3.79774833">
        <ele>660.0</ele>
        <time>2018-05-26T07:01:03.155Z</time>
      </trkpt>
      <trkpt lat="40.59929833" lon="-3.79793667">
        <ele>659.0</ele>
        <time>2018-05-26T07:01:04.167Z</time>
      </trkpt>
      <trkpt lat="40.59929833" lon="-3.79793667">
        <ele>659.0</ele>
        <time>2018-05-26T07:01:05.141Z</time>
      </trkpt>
      <trkpt lat="40.59918667" lon="-3.79810833">
        <ele>658.0</ele>
        <time>2018-05-26T07:01:06.153Z</time>
      </trkpt>
      <trkpt lat="40.59913333" lon="-3.79817333">
        <ele>658.0</ele>
        <time>2018-05-26T07:01:07.136Z</time>
      </trkpt>
      <trkpt lat="40.59913333" lon="-3.79817333">
        <ele>658.0</ele>
        <time>2018-05-26T07:01:08.152Z</time>
      </trkpt>
      <trkpt lat="40.599005" lon="-3.79829167">
        <ele>657.0</ele>
        <time>2018-05-26T07:01:09.163Z</time>
      </trkpt>
      <trkpt lat="40.598935" lon="-3.79835">
        <ele>656.0</ele>
        <time>2018-05-26T07:01:10.160Z</time>
      </trkpt>
      <trkpt lat="40.598935" lon="-3.79835">
        <ele>656.0</ele>
        <time>2018-05-26T07:01:11.169Z</time>
      </trkpt>
      <trkpt lat="40.598815" lon="-3.79848833">
        <ele>655.0</ele>
        <time>2018-05-26T07:01:12.144Z</time>
      </trkpt>
      <trkpt lat="40.59877167" lon="-3.79855">
        <ele>655.0</ele>
        <time>2018-05-26T07:01:13.164Z</time>
      </trkpt>
      <trkpt lat="40.59877167" lon="-3.79855">
        <ele>655.0</ele>
        <time>2018-05-26T07:01:14.147Z</time>
      </trkpt>
      <trkpt lat="40.598705" lon="-3.79867">
        <ele>653.0</ele>
        <time>2018-05-26T07:01:15.165Z</time>
      </trkpt>
      <trkpt lat="40.598705" lon="-3.79867">
        <ele>653.0</ele>
        <time>2018-05-26T07:01:16.142Z</time>
      </trkpt>
      <trkpt lat="40.59865333" lon="-3.79877">
        <ele>651.0</ele>
        <time>2018-05-26T07:01:17.155Z</time>
      </trkpt>
      <trkpt lat="40.59865333" lon="-3.79877">
        <ele>651.0</ele>
        <time>2018-05-26T07:01:18.141Z</time>
      </trkpt>
      <trkpt lat="40.59859" lon="-3.79888667">
        <ele>649.0</ele>
        <time>2018-05-26T07:01:19.154Z</time>
      </trkpt>
      <trkpt lat="40.598565" lon="-3.79897">
        <ele>648.0</ele>
        <time>2018-05-26T07:01:20.170Z</time>
      </trkpt>
      <trkpt lat="40.598565" lon="-3.79897">
        <ele>648.0</ele>
        <time>2018-05-26T07:01:21.170Z</time>
      </trkpt>
      <trkpt lat="40.598555" lon="-3.799115">
        <ele>646.0</ele>
        <time>2018-05-26T07:01:22.143Z</time>
      </trkpt>
      <trkpt lat="40.598555" lon="-3.799115">
        <ele>646.0</ele>
        <time>2018-05-26T07:01:23.166Z</time>
      </trkpt>
      <trkpt lat="40.59857333" lon="-3.79922833">
        <ele>645.0</ele>
        <time>2018-05-26T07:01:24.175Z</time>
      </trkpt>
      <trkpt lat="40.59857333" lon="-3.79922833">
        <ele>645.0</ele>
        <time>2018-05-26T07:01:25.144Z</time>
      </trkpt>
      <trkpt lat="40.59859333" lon="-3.79931667">
        <ele>644.0</ele>
        <time>2018-05-26T07:01:26.151Z</time>
      </trkpt>
      <trkpt lat="40.59859333" lon="-3.79931667">
        <ele>644.0</ele>
        <time>2018-05-26T07:01:27.167Z</time>
      </trkpt>
      <trkpt lat="40.59860667" lon="-3.79942">
        <ele>644.0</ele>
        <time>2018-05-26T07:01:28.141Z</time>
      </trkpt>
      <trkpt lat="40.59860667" lon="-3.79942">
        <ele>644.0</ele>
        <time>2018-05-26T07:01:29.158Z</time>
      </trkpt>
      <trkpt lat="40.59862" lon="-3.79954667">
        <ele>643.0</ele>
        <time>2018-05-26T07:01:30.170Z</time>
      </trkpt>
      <trkpt lat="40.59862" lon="-3.79954667">
        <ele>643.0</ele>
        <time>2018-05-26T07:01:31.153Z</time>
      </trkpt>
      <trkpt lat="40.59862833" lon="-3.79968833">
        <ele>643.0</ele>
        <time>2018-05-26T07:01:32.155Z</time>
      </trkpt>
      <trkpt lat="40.59862833" lon="-3.79968833">
        <ele>643.0</ele>
        <time>2018-05-26T07:01:33.170Z</time>
      </trkpt>
      <trkpt lat="40.59864" lon="-3.79984">
        <ele>642.0</ele>
        <time>2018-05-26T07:01:34.145Z</time>
      </trkpt>
      <trkpt lat="40.59864" lon="-3.79984">
        <ele>642.0</ele>
        <time>2018-05-26T07:01:35.167Z</time>
      </trkpt>
      <trkpt lat="40.59867167" lon="-3.80000167">
        <ele>641.0</ele>
        <time>2018-05-26T07:01:36.140Z</time>
      </trkpt>
      <trkpt lat="40.59869667" lon="-3.80007833">
        <ele>640.0</ele>
        <time>2018-05-26T07:01:37.166Z</time>
      </trkpt>
      <trkpt lat="40.59869667" lon="-3.80007833">
        <ele>640.0</ele>
        <time>2018-05-26T07:01:38.149Z</time>
      </trkpt>
      <trkpt lat="40.598765" lon="-3.80022">
        <ele>640.0</ele>
        <time>2018-05-26T07:01:39.136Z</time>
      </trkpt>
      <trkpt lat="40.598795" lon="-3.80029">
        <ele>640.0</ele>
        <time>2018-05-26T07:01:40.163Z</time>
      </trkpt>
      <trkpt lat="40.59881333" lon="-3.800365">
        <ele>639.0</ele>
        <time>2018-05-26T07:01:41.160Z</time>
      </trkpt>
      <trkpt lat="40.59881333" lon="-3.800365">
        <ele>639.0</ele>
        <time>2018-05-26T07:01:42.141Z</time>
      </trkpt>
      <trkpt lat="40.598845" lon="-3.80052667">
        <ele>639.0</ele>
        <time>2018-05-26T07:01:43.152Z</time>
      </trkpt>
      <trkpt lat="40.598845" lon="-3.80052667">
        <ele>639.0</ele>
        <time>2018-05-26T07:01:44.169Z</time>
      </trkpt>
      <trkpt lat="40.59888167" lon="-3.80069">
        <ele>638.0</ele>
        <time>2018-05-26T07:01:45.141Z</time>
      </trkpt>
      <trkpt lat="40.5989" lon="-3.80077333">
        <ele>638.0</ele>
        <time>2018-05-26T07:01:46.148Z</time>
      </trkpt>
      <trkpt lat="40.5989" lon="-3.80077333">
        <ele>638.0</ele>
        <time>2018-05-26T07:01:47.143Z</time>
      </trkpt>
      <trkpt lat="40.59891667" lon="-3.80095833">
        <ele>637.0</ele>
        <time>2018-05-26T07:01:48.153Z</time>
      </trkpt>
      <trkpt lat="40.59891667" lon="-3.80095833">
        <ele>637.0</ele>
        <time>2018-05-26T07:01:49.164Z</time>
      </trkpt>
      <trkpt lat="40.59891833" lon="-3.80115">
        <ele>636.0</ele>
        <time>2018-05-26T07:01:50.143Z</time>
      </trkpt>
      <trkpt lat="40.59891833" lon="-3.80115">
        <ele>636.0</ele>
        <time>2018-05-26T07:01:51.155Z</time>
      </trkpt>
      <trkpt lat="40.59890333" lon="-3.80133667">
        <ele>635.0</ele>
        <time>2018-05-26T07:01:52.172Z</time>
      </trkpt>
      <trkpt lat="40.59890333" lon="-3.80133667">
        <ele>635.0</ele>
        <time>2018-05-26T07:01:53.141Z</time>
      </trkpt>
      <trkpt lat="40.59889667" lon="-3.801535">
        <ele>634.0</ele>
        <time>2018-05-26T07:01:54.155Z</time>
      </trkpt>
      <trkpt lat="40.59889667" lon="-3.801535">
        <ele>634.0</ele>
        <time>2018-05-26T07:01:55.166Z</time>
      </trkpt>
      <trkpt lat="40.5989" lon="-3.80172667">
        <ele>633.0</ele>
        <time>2018-05-26T07:01:56.136Z</time>
      </trkpt>
      <trkpt lat="40.5989" lon="-3.80172667">
        <ele>633.0</ele>
        <time>2018-05-26T07:01:57.163Z</time>
      </trkpt>
      <trkpt lat="40.598905" lon="-3.80192">
        <ele>632.0</ele>
        <time>2018-05-26T07:01:58.144Z</time>
      </trkpt>
      <trkpt lat="40.598905" lon="-3.80192">
        <ele>632.0</ele>
        <time>2018-05-26T07:01:59.146Z</time>
      </trkpt>
      <trkpt lat="40.59890667" lon="-3.80211333">
        <ele>632.0</ele>
        <time>2018-05-26T07:02:00.143Z</time>
      </trkpt>
      <trkpt lat="40.59890667" lon="-3.80220667">
        <ele>632.0</ele>
        <time>2018-05-26T07:02:01.168Z</time>
      </trkpt>
      <trkpt lat="40.59890667" lon="-3.80220667">
        <ele>632.0</ele>
        <time>2018-05-26T07:02:02.142Z</time>
      </trkpt>
      <trkpt lat="40.59889167" lon="-3.80238">
        <ele>633.0</ele>
        <time>2018-05-26T07:02:03.161Z</time>
      </trkpt>
      <trkpt lat="40.59888333" lon="-3.80246333">
        <ele>633.0</ele>
        <time>2018-05-26T07:02:04.150Z</time>
      </trkpt>
      <trkpt lat="40.59888333" lon="-3.80246333">
        <ele>633.0</ele>
        <time>2018-05-26T07:02:05.162Z</time>
      </trkpt>
      <trkpt lat="40.598875" lon="-3.80261833">
        <ele>632.0</ele>
        <time>2018-05-26T07:02:06.136Z</time>
      </trkpt>
      <trkpt lat="40.598875" lon="-3.80261833">
        <ele>632.0</ele>
        <time>2018-05-26T07:02:07.146Z</time>
      </trkpt>
      <trkpt lat="40.59888333" lon="-3.802755">
        <ele>632.0</ele>
        <time>2018-05-26T07:02:08.159Z</time>
      </trkpt>
      <trkpt lat="40.59888333" lon="-3.802755">
        <ele>632.0</ele>
        <time>2018-05-26T07:02:09.149Z</time>
      </trkpt>
      <trkpt lat="40.59889333" lon="-3.802845">
        <ele>632.0</ele>
        <time>2018-05-26T07:02:10.156Z</time>
      </trkpt>
      <trkpt lat="40.59889333" lon="-3.802845">
        <ele>632.0</ele>
        <time>2018-05-26T07:02:11.138Z</time>
      </trkpt>
      <trkpt lat="40.59890167" lon="-3.80294167">
        <ele>632.0</ele>
        <time>2018-05-26T07:02:12.165Z</time>
      </trkpt>
      <trkpt lat="40.59890167" lon="-3.80294167">
        <ele>632.0</ele>
        <time>2018-05-26T07:02:13.159Z</time>
      </trkpt>
      <trkpt lat="40.59890333" lon="-3.803045">
        <ele>632.0</ele>
        <time>2018-05-26T07:02:14.170Z</time>
      </trkpt>
      <trkpt lat="40.59890333" lon="-3.803045">
        <ele>632.0</ele>
        <time>2018-05-26T07:02:15.157Z</time>
      </trkpt>
      <trkpt lat="40.598915" lon="-3.803145">
        <ele>632.0</ele>
        <time>2018-05-26T07:02:16.167Z</time>
      </trkpt>
      <trkpt lat="40.598915" lon="-3.803145">
        <ele>632.0</ele>
        <time>2018-05-26T07:02:17.163Z</time>
      </trkpt>
      <trkpt lat="40.59894" lon="-3.80322333">
        <ele>632.0</ele>
        <time>2018-05-26T07:02:18.136Z</time>
      </trkpt>
      <trkpt lat="40.59894" lon="-3.80322333">
        <ele>632.0</ele>
        <time>2018-05-26T07:02:19.165Z</time>
      </trkpt>
      <trkpt lat="40.59895" lon="-3.80330667">
        <ele>632.0</ele>
        <time>2018-05-26T07:02:20.175Z</time>
      </trkpt>
      <trkpt lat="40.59895" lon="-3.80330667">
        <ele>632.0</ele>
        <time>2018-05-26T07:02:21.162Z</time>
      </trkpt>
      <trkpt lat="40.59897667" lon="-3.803385">
        <ele>631.0</ele>
        <time>2018-05-26T07:02:22.180Z</time>
      </trkpt>
      <trkpt lat="40.59897667" lon="-3.803385">
        <ele>631.0</ele>
        <time>2018-05-26T07:02:23.157Z</time>
      </trkpt>
      <trkpt lat="40.59901167" lon="-3.80341">
        <ele>631.0</ele>
        <time>2018-05-26T07:02:24.165Z</time>
      </trkpt>
      <trkpt lat="40.59902667" lon="-3.803415">
        <ele>632.0</ele>
        <time>2018-05-26T07:02:25.143Z</time>
      </trkpt>
      <trkpt lat="40.59902667" lon="-3.803415">
        <ele>632.0</ele>
        <time>2018-05-26T07:02:26.161Z</time>
      </trkpt>
      <trkpt lat="40.59905" lon="-3.80341833">
        <ele>632.0</ele>
        <time>2018-05-26T07:02:27.169Z</time>
      </trkpt>
      <trkpt lat="40.59906" lon="-3.80342167">
        <ele>632.0</ele>
        <time>2018-05-26T07:02:28.165Z</time>
      </trkpt>
      <trkpt lat="40.59906" lon="-3.80342167">
        <ele>632.0</ele>
        <time>2018-05-26T07:02:29.142Z</time>
      </trkpt>
      <trkpt lat="40.59906667" lon="-3.80342333">
        <ele>632.0</ele>
        <time>2018-05-26T07:02:30.151Z</time>
      </trkpt>
      <trkpt lat="40.59906333" lon="-3.80342333">
        <ele>632.0</ele>
        <time>2018-05-26T07:02:31.153Z</time>
      </trkpt>
      <trkpt lat="40.59906333" lon="-3.80342333">
        <ele>632.0</ele>
        <time>2018-05-26T07:02:32.136Z</time>
      </trkpt>
      <trkpt lat="40.599145" lon="-3.80339333">
        <ele>633.0</ele>
        <time>2018-05-26T07:02:33.175Z</time>
      </trkpt>
      <trkpt lat="40.599145" lon="-3.80339333">
        <ele>633.0</ele>
        <time>2018-05-26T07:02:34.137Z</time>
      </trkpt>
      <trkpt lat="40.59919667" lon="-3.80336167">
        <ele>634.0</ele>
        <time>2018-05-26T07:02:35.168Z</time>
      </trkpt>
      <trkpt lat="40.59919667" lon="-3.80336167">
        <ele>634.0</ele>
        <time>2018-05-26T07:02:36.164Z</time>
      </trkpt>
      <trkpt lat="40.59925667" lon="-3.80333167">
        <ele>634.0</ele>
        <time>2018-05-26T07:02:37.156Z</time>
      </trkpt>
      <trkpt lat="40.59925667" lon="-3.80333167">
        <ele>634.0</ele>
        <time>2018-05-26T07:02:38.161Z</time>
      </trkpt>
      <trkpt lat="40.599325" lon="-3.80329833">
        <ele>634.0</ele>
        <time>2018-05-26T07:02:39.146Z</time>
      </trkpt>
      <trkpt lat="40.599325" lon="-3.80329833">
        <ele>634.0</ele>
        <time>2018-05-26T07:02:40.155Z</time>
      </trkpt>
      <trkpt lat="40.59938833" lon="-3.80327333">
        <ele>634.0</ele>
        <time>2018-05-26T07:02:41.136Z</time>
      </trkpt>
      <trkpt lat="40.59942333" lon="-3.80325667">
        <ele>634.0</ele>
        <time>2018-05-26T07:02:42.172Z</time>
      </trkpt>
      <trkpt lat="40.59942333" lon="-3.80325667">
        <ele>634.0</ele>
        <time>2018-05-26T07:02:43.138Z</time>
      </trkpt>
      <trkpt lat="40.59949333" lon="-3.803215">
        <ele>634.0</ele>
        <time>2018-05-26T07:02:44.164Z</time>
      </trkpt>
      <trkpt lat="40.59949333" lon="-3.803215">
        <ele>634.0</ele>
        <time>2018-05-26T07:02:45.170Z</time>
      </trkpt>
      <trkpt lat="40.599565" lon="-3.80317833">
        <ele>634.0</ele>
        <time>2018-05-26T07:02:46.156Z</time>
      </trkpt>
      <trkpt lat="40.599565" lon="-3.80317833">
        <ele>634.0</ele>
        <time>2018-05-26T07:02:47.162Z</time>
      </trkpt>
      <trkpt lat="40.599645" lon="-3.803135">
        <ele>634.0</ele>
        <time>2018-05-26T07:02:48.147Z</time>
      </trkpt>
      <trkpt lat="40.599645" lon="-3.803135">
        <ele>634.0</ele>
        <time>2018-05-26T07:02:49.158Z</time>
      </trkpt>
      <trkpt lat="40.59972833" lon="-3.8031">
        <ele>634.0</ele>
        <time>2018-05-26T07:02:50.136Z</time>
      </trkpt>
      <trkpt lat="40.59977167" lon="-3.80307167">
        <ele>634.0</ele>
        <time>2018-05-26T07:02:51.172Z</time>
      </trkpt>
      <trkpt lat="40.59977167" lon="-3.80307167">
        <ele>634.0</ele>
        <time>2018-05-26T07:02:52.139Z</time>
      </trkpt>
      <trkpt lat="40.599845" lon="-3.80299333">
        <ele>634.0</ele>
        <time>2018-05-26T07:02:53.153Z</time>
      </trkpt>
      <trkpt lat="40.59987333" lon="-3.80294167">
        <ele>634.0</ele>
        <time>2018-05-26T07:02:54.173Z</time>
      </trkpt>
      <trkpt lat="40.59987333" lon="-3.80294167">
        <ele>634.0</ele>
        <time>2018-05-26T07:02:55.139Z</time>
      </trkpt>
      <trkpt lat="40.59991333" lon="-3.80281667">
        <ele>634.0</ele>
        <time>2018-05-26T07:02:56.168Z</time>
      </trkpt>
      <trkpt lat="40.59991333" lon="-3.80281667">
        <ele>634.0</ele>
        <time>2018-05-26T07:02:57.174Z</time>
      </trkpt>
      <trkpt lat="40.59993667" lon="-3.802695">
        <ele>633.0</ele>
        <time>2018-05-26T07:02:58.145Z</time>
      </trkpt>
      <trkpt lat="40.59993667" lon="-3.802695">
        <ele>633.0</ele>
        <time>2018-05-26T07:02:59.158Z</time>
      </trkpt>
      <trkpt lat="40.59998" lon="-3.80260167">
        <ele>633.0</ele>
        <time>2018-05-26T07:03:00.159Z</time>
      </trkpt>
      <trkpt lat="40.60000667" lon="-3.80257667">
        <ele>633.0</ele>
        <time>2018-05-26T07:03:01.168Z</time>
      </trkpt>
      <trkpt lat="40.60000667" lon="-3.80257667">
        <ele>633.0</ele>
        <time>2018-05-26T07:03:02.175Z</time>
      </trkpt>
      <trkpt lat="40.60006833" lon="-3.80255167">
        <ele>632.0</ele>
        <time>2018-05-26T07:03:03.156Z</time>
      </trkpt>
      <trkpt lat="40.60010667" lon="-3.80255167">
        <ele>633.0</ele>
        <time>2018-05-26T07:03:04.142Z</time>
      </trkpt>
      <trkpt lat="40.60010667" lon="-3.80255167">
        <ele>633.0</ele>
        <time>2018-05-26T07:03:05.148Z</time>
      </trkpt>
      <trkpt lat="40.60017167" lon="-3.80257833">
        <ele>633.0</ele>
        <time>2018-05-26T07:03:06.173Z</time>
      </trkpt>
      <trkpt lat="40.6002" lon="-3.80258833">
        <ele>633.0</ele>
        <time>2018-05-26T07:03:07.162Z</time>
      </trkpt>
      <trkpt lat="40.6002" lon="-3.80258833">
        <ele>633.0</ele>
        <time>2018-05-26T07:03:08.168Z</time>
      </trkpt>
      <trkpt lat="40.60025667" lon="-3.80257667">
        <ele>634.0</ele>
        <time>2018-05-26T07:03:09.157Z</time>
      </trkpt>
      <trkpt lat="40.60028833" lon="-3.80256667">
        <ele>634.0</ele>
        <time>2018-05-26T07:03:10.174Z</time>
      </trkpt>
      <trkpt lat="40.60028833" lon="-3.80256667">
        <ele>634.0</ele>
        <time>2018-05-26T07:03:11.141Z</time>
      </trkpt>
      <trkpt lat="40.600345" lon="-3.80254833">
        <ele>634.0</ele>
        <time>2018-05-26T07:03:12.160Z</time>
      </trkpt>
      <trkpt lat="40.600375" lon="-3.80253833">
        <ele>635.0</ele>
        <time>2018-05-26T07:03:13.143Z</time>
      </trkpt>
      <trkpt lat="40.600375" lon="-3.80253833">
        <ele>635.0</ele>
        <time>2018-05-26T07:03:14.148Z</time>
      </trkpt>
      <trkpt lat="40.600435" lon="-3.802525">
        <ele>635.0</ele>
        <time>2018-05-26T07:03:15.140Z</time>
      </trkpt>
      <trkpt lat="40.600465" lon="-3.80251833">
        <ele>635.0</ele>
        <time>2018-05-26T07:03:16.166Z</time>
      </trkpt>
      <trkpt lat="40.60049333" lon="-3.80250667">
        <ele>635.0</ele>
        <time>2018-05-26T07:03:17.148Z</time>
      </trkpt>
      <trkpt lat="40.60049333" lon="-3.80250667">
        <ele>635.0</ele>
        <time>2018-05-26T07:03:18.154Z</time>
      </trkpt>
      <trkpt lat="40.60054" lon="-3.80246333">
        <ele>636.0</ele>
        <time>2018-05-26T07:03:19.172Z</time>
      </trkpt>
      <trkpt lat="40.60054" lon="-3.80246333">
        <ele>636.0</ele>
        <time>2018-05-26T07:03:20.139Z</time>
      </trkpt>
      <trkpt lat="40.600585" lon="-3.80241833">
        <ele>637.0</ele>
        <time>2018-05-26T07:03:21.162Z</time>
      </trkpt>
      <trkpt lat="40.60060167" lon="-3.80239833">
        <ele>638.0</ele>
        <time>2018-05-26T07:03:22.155Z</time>
      </trkpt>
      <trkpt lat="40.60060167" lon="-3.80239833">
        <ele>638.0</ele>
        <time>2018-05-26T07:03:23.160Z</time>
      </trkpt>
      <trkpt lat="40.60061667" lon="-3.802345">
        <ele>638.0</ele>
        <time>2018-05-26T07:03:24.150Z</time>
      </trkpt>
      <trkpt lat="40.60061667" lon="-3.802345">
        <ele>638.0</ele>
        <time>2018-05-26T07:03:25.156Z</time>
      </trkpt>
      <trkpt lat="40.60062167" lon="-3.80227333">
        <ele>639.0</ele>
        <time>2018-05-26T07:03:26.141Z</time>
      </trkpt>
      <trkpt lat="40.60062167" lon="-3.80227333">
        <ele>639.0</ele>
        <time>2018-05-26T07:03:27.146Z</time>
      </trkpt>
      <trkpt lat="40.60062833" lon="-3.802205">
        <ele>640.0</ele>
        <time>2018-05-26T07:03:28.168Z</time>
      </trkpt>
      <trkpt lat="40.60062833" lon="-3.802205">
        <ele>640.0</ele>
        <time>2018-05-26T07:03:29.173Z</time>
      </trkpt>
      <trkpt lat="40.60064" lon="-3.802135">
        <ele>641.0</ele>
        <time>2018-05-26T07:03:30.157Z</time>
      </trkpt>
      <trkpt lat="40.60064" lon="-3.802135">
        <ele>641.0</ele>
        <time>2018-05-26T07:03:31.163Z</time>
      </trkpt>
      <trkpt lat="40.60065" lon="-3.80206167">
        <ele>641.0</ele>
        <time>2018-05-26T07:03:32.138Z</time>
      </trkpt>
      <trkpt lat="40.60065" lon="-3.80206167">
        <ele>641.0</ele>
        <time>2018-05-26T07:03:33.144Z</time>
      </trkpt>
      <trkpt lat="40.60066333" lon="-3.80199">
        <ele>642.0</ele>
        <time>2018-05-26T07:03:34.150Z</time>
      </trkpt>
      <trkpt lat="40.60067167" lon="-3.80195667">
        <ele>642.0</ele>
        <time>2018-05-26T07:03:35.141Z</time>
      </trkpt>
      <trkpt lat="40.60067167" lon="-3.80195667">
        <ele>642.0</ele>
        <time>2018-05-26T07:03:36.148Z</time>
      </trkpt>
      <trkpt lat="40.60069167" lon="-3.80189333">
        <ele>643.0</ele>
        <time>2018-05-26T07:03:37.175Z</time>
      </trkpt>
      <trkpt lat="40.60069167" lon="-3.80189333">
        <ele>643.0</ele>
        <time>2018-05-26T07:03:38.140Z</time>
      </trkpt>
      <trkpt lat="40.60071333" lon="-3.80184">
        <ele>643.0</ele>
        <time>2018-05-26T07:03:39.164Z</time>
      </trkpt>
      <trkpt lat="40.60071333" lon="-3.80184">
        <ele>643.0</ele>
        <time>2018-05-26T07:03:40.170Z</time>
      </trkpt>
      <trkpt lat="40.60073833" lon="-3.80178833">
        <ele>644.0</ele>
        <time>2018-05-26T07:03:41.167Z</time>
      </trkpt>
      <trkpt lat="40.60075" lon="-3.801765">
        <ele>644.0</ele>
        <time>2018-05-26T07:03:42.152Z</time>
      </trkpt>
      <trkpt lat="40.60075" lon="-3.801765">
        <ele>644.0</ele>
        <time>2018-05-26T07:03:43.158Z</time>
      </trkpt>
      <trkpt lat="40.60078" lon="-3.80172">
        <ele>645.0</ele>
        <time>2018-05-26T07:03:44.144Z</time>
      </trkpt>
      <trkpt lat="40.60078" lon="-3.80172">
        <ele>645.0</ele>
        <time>2018-05-26T07:03:45.153Z</time>
      </trkpt>
      <trkpt lat="40.60081333" lon="-3.80167833">
        <ele>645.0</ele>
        <time>2018-05-26T07:03:46.150Z</time>
      </trkpt>
      <trkpt lat="40.60081333" lon="-3.80167833">
        <ele>645.0</ele>
        <time>2018-05-26T07:03:47.159Z</time>
      </trkpt>
      <trkpt lat="40.60084833" lon="-3.801635">
        <ele>645.0</ele>
        <time>2018-05-26T07:03:48.149Z</time>
      </trkpt>
      <trkpt lat="40.60086833" lon="-3.80161333">
        <ele>645.0</ele>
        <time>2018-05-26T07:03:49.174Z</time>
      </trkpt>
      <trkpt lat="40.60086833" lon="-3.80161333">
        <ele>645.0</ele>
        <time>2018-05-26T07:03:50.140Z</time>
      </trkpt>
      <trkpt lat="40.60091" lon="-3.80157333">
        <ele>646.0</ele>
        <time>2018-05-26T07:03:51.166Z</time>
      </trkpt>
      <trkpt lat="40.60092833" lon="-3.80155167">
        <ele>646.0</ele>
        <time>2018-05-26T07:03:52.150Z</time>
      </trkpt>
      <trkpt lat="40.60092833" lon="-3.80155167">
        <ele>646.0</ele>
        <time>2018-05-26T07:03:53.158Z</time>
      </trkpt>
      <trkpt lat="40.60097333" lon="-3.80151667">
        <ele>646.0</ele>
        <time>2018-05-26T07:03:54.147Z</time>
      </trkpt>
      <trkpt lat="40.60097333" lon="-3.80151667">
        <ele>646.0</ele>
        <time>2018-05-26T07:03:55.156Z</time>
      </trkpt>
      <trkpt lat="40.60101833" lon="-3.80148333">
        <ele>646.0</ele>
        <time>2018-05-26T07:03:56.142Z</time>
      </trkpt>
      <trkpt lat="40.60104167" lon="-3.80146333">
        <ele>647.0</ele>
        <time>2018-05-26T07:03:57.161Z</time>
      </trkpt>
      <trkpt lat="40.60104167" lon="-3.80146333">
        <ele>647.0</ele>
        <time>2018-05-26T07:03:58.168Z</time>
      </trkpt>
      <trkpt lat="40.60108" lon="-3.801425">
        <ele>647.0</ele>
        <time>2018-05-26T07:03:59.149Z</time>
      </trkpt>
      <trkpt lat="40.60108" lon="-3.801425">
        <ele>647.0</ele>
        <time>2018-05-26T07:04:00.174Z</time>
      </trkpt>
      <trkpt lat="40.60111833" lon="-3.80139">
        <ele>647.0</ele>
        <time>2018-05-26T07:04:01.159Z</time>
      </trkpt>
      <trkpt lat="40.60111833" lon="-3.80139">
        <ele>647.0</ele>
        <time>2018-05-26T07:04:02.166Z</time>
      </trkpt>
      <trkpt lat="40.60116167" lon="-3.80135833">
        <ele>648.0</ele>
        <time>2018-05-26T07:04:03.145Z</time>
      </trkpt>
      <trkpt lat="40.60116167" lon="-3.80135833">
        <ele>648.0</ele>
        <time>2018-05-26T07:04:04.152Z</time>
      </trkpt>
      <trkpt lat="40.60120667" lon="-3.80132">
        <ele>648.0</ele>
        <time>2018-05-26T07:04:05.170Z</time>
      </trkpt>
      <trkpt lat="40.60123" lon="-3.80130167">
        <ele>649.0</ele>
        <time>2018-05-26T07:04:06.155Z</time>
      </trkpt>
      <trkpt lat="40.60123" lon="-3.80130167">
        <ele>649.0</ele>
        <time>2018-05-26T07:04:07.161Z</time>
      </trkpt>
      <trkpt lat="40.60127667" lon="-3.80127833">
        <ele>649.0</ele>
        <time>2018-05-26T07:04:08.146Z</time>
      </trkpt>
      <trkpt lat="40.60127667" lon="-3.80127833">
        <ele>649.0</ele>
        <time>2018-05-26T07:04:09.155Z</time>
      </trkpt>
      <trkpt lat="40.60132667" lon="-3.80126667">
        <ele>650.0</ele>
        <time>2018-05-26T07:04:10.144Z</time>
      </trkpt>
      <trkpt lat="40.60132667" lon="-3.80126667">
        <ele>650.0</ele>
        <time>2018-05-26T07:04:11.166Z</time>
      </trkpt>
      <trkpt lat="40.60136833" lon="-3.80128167">
        <ele>651.0</ele>
        <time>2018-05-26T07:04:12.163Z</time>
      </trkpt>
      <trkpt lat="40.60136833" lon="-3.80128167">
        <ele>651.0</ele>
        <time>2018-05-26T07:04:13.170Z</time>
      </trkpt>
      <trkpt lat="40.60140333" lon="-3.80129667">
        <ele>651.0</ele>
        <time>2018-05-26T07:04:14.157Z</time>
      </trkpt>
      <trkpt lat="40.601425" lon="-3.801305">
        <ele>651.0</ele>
        <time>2018-05-26T07:04:15.145Z</time>
      </trkpt>
      <trkpt lat="40.601425" lon="-3.801305">
        <ele>651.0</ele>
        <time>2018-05-26T07:04:16.159Z</time>
      </trkpt>
      <trkpt lat="40.60147333" lon="-3.80132167">
        <ele>652.0</ele>
        <time>2018-05-26T07:04:17.138Z</time>
      </trkpt>
      <trkpt lat="40.60149833" lon="-3.80133">
        <ele>652.0</ele>
        <time>2018-05-26T07:04:18.155Z</time>
      </trkpt>
      <trkpt lat="40.60149833" lon="-3.80133">
        <ele>652.0</ele>
        <time>2018-05-26T07:04:19.162Z</time>
      </trkpt>
      <trkpt lat="40.60155" lon="-3.80133667">
        <ele>652.0</ele>
        <time>2018-05-26T07:04:20.150Z</time>
      </trkpt>
      <trkpt lat="40.60155" lon="-3.80133667">
        <ele>652.0</ele>
        <time>2018-05-26T07:04:21.161Z</time>
      </trkpt>
      <trkpt lat="40.601605" lon="-3.80135">
        <ele>653.0</ele>
        <time>2018-05-26T07:04:22.146Z</time>
      </trkpt>
      <trkpt lat="40.601605" lon="-3.80135">
        <ele>653.0</ele>
        <time>2018-05-26T07:04:23.156Z</time>
      </trkpt>
      <trkpt lat="40.60165333" lon="-3.801365">
        <ele>653.0</ele>
        <time>2018-05-26T07:04:24.148Z</time>
      </trkpt>
      <trkpt lat="40.60165333" lon="-3.801365">
        <ele>653.0</ele>
        <time>2018-05-26T07:04:25.157Z</time>
      </trkpt>
      <trkpt lat="40.60170333" lon="-3.80137833">
        <ele>654.0</ele>
        <time>2018-05-26T07:04:26.143Z</time>
      </trkpt>
      <trkpt lat="40.60170333" lon="-3.80137833">
        <ele>654.0</ele>
        <time>2018-05-26T07:04:27.149Z</time>
      </trkpt>
      <trkpt lat="40.60175167" lon="-3.80139167">
        <ele>654.0</ele>
        <time>2018-05-26T07:04:28.166Z</time>
      </trkpt>
      <trkpt lat="40.60177333" lon="-3.80139833">
        <ele>654.0</ele>
        <time>2018-05-26T07:04:29.150Z</time>
      </trkpt>
      <trkpt lat="40.60177333" lon="-3.80139833">
        <ele>654.0</ele>
        <time>2018-05-26T07:04:30.160Z</time>
      </trkpt>
      <trkpt lat="40.60182167" lon="-3.80140667">
        <ele>655.0</ele>
        <time>2018-05-26T07:04:31.141Z</time>
      </trkpt>
      <trkpt lat="40.60182167" lon="-3.80140667">
        <ele>655.0</ele>
        <time>2018-05-26T07:04:32.147Z</time>
      </trkpt>
      <trkpt lat="40.60187167" lon="-3.80141167">
        <ele>657.0</ele>
        <time>2018-05-26T07:04:33.170Z</time>
      </trkpt>
      <trkpt lat="40.60187167" lon="-3.80141167">
        <ele>657.0</ele>
        <time>2018-05-26T07:04:34.176Z</time>
      </trkpt>
      <trkpt lat="40.60192167" lon="-3.80141667">
        <ele>657.0</ele>
        <time>2018-05-26T07:04:35.160Z</time>
      </trkpt>
      <trkpt lat="40.60194833" lon="-3.80141333">
        <ele>658.0</ele>
        <time>2018-05-26T07:04:36.155Z</time>
      </trkpt>
      <trkpt lat="40.60194833" lon="-3.80141333">
        <ele>658.0</ele>
        <time>2018-05-26T07:04:37.160Z</time>
      </trkpt>
      <trkpt lat="40.602" lon="-3.80140833">
        <ele>659.0</ele>
        <time>2018-05-26T07:04:38.140Z</time>
      </trkpt>
      <trkpt lat="40.60202667" lon="-3.80140667">
        <ele>660.0</ele>
        <time>2018-05-26T07:04:39.169Z</time>
      </trkpt>
      <trkpt lat="40.60202667" lon="-3.80140667">
        <ele>660.0</ele>
        <time>2018-05-26T07:04:40.175Z</time>
      </trkpt>
      <trkpt lat="40.60208167" lon="-3.801405">
        <ele>660.0</ele>
        <time>2018-05-26T07:04:41.162Z</time>
      </trkpt>
      <trkpt lat="40.60210667" lon="-3.80140667">
        <ele>660.0</ele>
        <time>2018-05-26T07:04:42.151Z</time>
      </trkpt>
      <trkpt lat="40.60210667" lon="-3.80140667">
        <ele>660.0</ele>
        <time>2018-05-26T07:04:43.160Z</time>
      </trkpt>
      <trkpt lat="40.60216833" lon="-3.80140833">
        <ele>659.0</ele>
        <time>2018-05-26T07:04:44.168Z</time>
      </trkpt>
      <trkpt lat="40.60216833" lon="-3.80140833">
        <ele>659.0</ele>
        <time>2018-05-26T07:04:45.175Z</time>
      </trkpt>
      <trkpt lat="40.60223167" lon="-3.801405">
        <ele>659.0</ele>
        <time>2018-05-26T07:04:46.156Z</time>
      </trkpt>
      <trkpt lat="40.602265" lon="-3.80140333">
        <ele>659.0</ele>
        <time>2018-05-26T07:04:47.146Z</time>
      </trkpt>
      <trkpt lat="40.602265" lon="-3.80140333">
        <ele>659.0</ele>
        <time>2018-05-26T07:04:48.157Z</time>
      </trkpt>
      <trkpt lat="40.602335" lon="-3.80139">
        <ele>659.0</ele>
        <time>2018-05-26T07:04:49.147Z</time>
      </trkpt>
      <trkpt lat="40.60236667" lon="-3.80138167">
        <ele>659.0</ele>
        <time>2018-05-26T07:04:50.140Z</time>
      </trkpt>
      <trkpt lat="40.60236667" lon="-3.80138167">
        <ele>659.0</ele>
        <time>2018-05-26T07:04:51.146Z</time>
      </trkpt>
      <trkpt lat="40.60243" lon="-3.80136333">
        <ele>659.0</ele>
        <time>2018-05-26T07:04:52.163Z</time>
      </trkpt>
      <trkpt lat="40.60243" lon="-3.80136333">
        <ele>659.0</ele>
        <time>2018-05-26T07:04:53.169Z</time>
      </trkpt>
      <trkpt lat="40.60249667" lon="-3.80134833">
        <ele>659.0</ele>
        <time>2018-05-26T07:04:54.151Z</time>
      </trkpt>
      <trkpt lat="40.60249667" lon="-3.80134833">
        <ele>659.0</ele>
        <time>2018-05-26T07:04:55.158Z</time>
      </trkpt>
      <trkpt lat="40.60256667" lon="-3.80132833">
        <ele>659.0</ele>
        <time>2018-05-26T07:04:56.140Z</time>
      </trkpt>
      <trkpt lat="40.6026" lon="-3.80131333">
        <ele>659.0</ele>
        <time>2018-05-26T07:04:57.159Z</time>
      </trkpt>
      <trkpt lat="40.6026" lon="-3.80131333">
        <ele>659.0</ele>
        <time>2018-05-26T07:04:58.165Z</time>
      </trkpt>
      <trkpt lat="40.602665" lon="-3.80127167">
        <ele>659.0</ele>
        <time>2018-05-26T07:04:59.152Z</time>
      </trkpt>
      <trkpt lat="40.602665" lon="-3.80127167">
        <ele>659.0</ele>
        <time>2018-05-26T07:05:00.143Z</time>
      </trkpt>
      <trkpt lat="40.60272667" lon="-3.80123">
        <ele>659.0</ele>
        <time>2018-05-26T07:05:01.170Z</time>
      </trkpt>
      <trkpt lat="40.60272667" lon="-3.80123">
        <ele>659.0</ele>
        <time>2018-05-26T07:05:02.136Z</time>
      </trkpt>
      <trkpt lat="40.60279" lon="-3.80119333">
        <ele>659.0</ele>
        <time>2018-05-26T07:05:03.162Z</time>
      </trkpt>
      <trkpt lat="40.60279" lon="-3.80119333">
        <ele>659.0</ele>
        <time>2018-05-26T07:05:04.169Z</time>
      </trkpt>
      <trkpt lat="40.60285167" lon="-3.80115833">
        <ele>659.0</ele>
        <time>2018-05-26T07:05:05.159Z</time>
      </trkpt>
      <trkpt lat="40.60288333" lon="-3.80114167">
        <ele>659.0</ele>
        <time>2018-05-26T07:05:06.153Z</time>
      </trkpt>
      <trkpt lat="40.60288333" lon="-3.80114167">
        <ele>659.0</ele>
        <time>2018-05-26T07:05:07.160Z</time>
      </trkpt>
      <trkpt lat="40.602955" lon="-3.80110833">
        <ele>659.0</ele>
        <time>2018-05-26T07:05:08.143Z</time>
      </trkpt>
      <trkpt lat="40.602955" lon="-3.80110833">
        <ele>659.0</ele>
        <time>2018-05-26T07:05:09.150Z</time>
      </trkpt>
      <trkpt lat="40.603035" lon="-3.80107667">
        <ele>660.0</ele>
        <time>2018-05-26T07:05:10.146Z</time>
      </trkpt>
      <trkpt lat="40.60307667" lon="-3.80106">
        <ele>660.0</ele>
        <time>2018-05-26T07:05:11.168Z</time>
      </trkpt>
      <trkpt lat="40.60311667" lon="-3.80104333">
        <ele>660.0</ele>
        <time>2018-05-26T07:05:12.148Z</time>
      </trkpt>
      <trkpt lat="40.60311667" lon="-3.80104333">
        <ele>660.0</ele>
        <time>2018-05-26T07:05:13.154Z</time>
      </trkpt>
      <trkpt lat="40.60319333" lon="-3.80102">
        <ele>660.0</ele>
        <time>2018-05-26T07:05:14.136Z</time>
      </trkpt>
      <trkpt lat="40.60319333" lon="-3.80102">
        <ele>660.0</ele>
        <time>2018-05-26T07:05:15.143Z</time>
      </trkpt>
      <trkpt lat="40.60327" lon="-3.80099333">
        <ele>661.0</ele>
        <time>2018-05-26T07:05:16.170Z</time>
      </trkpt>
      <trkpt lat="40.60330833" lon="-3.80097167">
        <ele>661.0</ele>
        <time>2018-05-26T07:05:17.136Z</time>
      </trkpt>
      <trkpt lat="40.60330833" lon="-3.80097167">
        <ele>661.0</ele>
        <time>2018-05-26T07:05:18.143Z</time>
      </trkpt>
      <trkpt lat="40.60338333" lon="-3.80093333">
        <ele>661.0</ele>
        <time>2018-05-26T07:05:19.173Z</time>
      </trkpt>
      <trkpt lat="40.60338333" lon="-3.80093333">
        <ele>661.0</ele>
        <time>2018-05-26T07:05:20.139Z</time>
      </trkpt>
      <trkpt lat="40.60345833" lon="-3.80089667">
        <ele>661.0</ele>
        <time>2018-05-26T07:05:21.162Z</time>
      </trkpt>
      <trkpt lat="40.60345833" lon="-3.80089667">
        <ele>661.0</ele>
        <time>2018-05-26T07:05:22.168Z</time>
      </trkpt>
      <trkpt lat="40.603525" lon="-3.800865">
        <ele>662.0</ele>
        <time>2018-05-26T07:05:23.144Z</time>
      </trkpt>
      <trkpt lat="40.60355833" lon="-3.80085">
        <ele>662.0</ele>
        <time>2018-05-26T07:05:24.162Z</time>
      </trkpt>
      <trkpt lat="40.60355833" lon="-3.80085">
        <ele>662.0</ele>
        <time>2018-05-26T07:05:25.168Z</time>
      </trkpt>
      <trkpt lat="40.60362167" lon="-3.80082">
        <ele>662.0</ele>
        <time>2018-05-26T07:05:26.142Z</time>
      </trkpt>
      <trkpt lat="40.60362167" lon="-3.80082">
        <ele>662.0</ele>
        <time>2018-05-26T07:05:27.149Z</time>
      </trkpt>
      <trkpt lat="40.60368833" lon="-3.80079">
        <ele>663.0</ele>
        <time>2018-05-26T07:05:28.171Z</time>
      </trkpt>
      <trkpt lat="40.60368833" lon="-3.80079">
        <ele>663.0</ele>
        <time>2018-05-26T07:05:29.138Z</time>
      </trkpt>
      <trkpt lat="40.603745" lon="-3.80076833">
        <ele>663.0</ele>
        <time>2018-05-26T07:05:30.159Z</time>
      </trkpt>
      <trkpt lat="40.603745" lon="-3.80076833">
        <ele>663.0</ele>
        <time>2018-05-26T07:05:31.171Z</time>
      </trkpt>
      <trkpt lat="40.60380667" lon="-3.80073333">
        <ele>663.0</ele>
        <time>2018-05-26T07:05:32.173Z</time>
      </trkpt>
      <trkpt lat="40.60380667" lon="-3.80073333">
        <ele>663.0</ele>
        <time>2018-05-26T07:05:33.139Z</time>
      </trkpt>
      <trkpt lat="40.60386667" lon="-3.800705">
        <ele>664.0</ele>
        <time>2018-05-26T07:05:34.158Z</time>
      </trkpt>
      <trkpt lat="40.60386667" lon="-3.800705">
        <ele>664.0</ele>
        <time>2018-05-26T07:05:35.164Z</time>
      </trkpt>
      <trkpt lat="40.60392333" lon="-3.80067333">
        <ele>664.0</ele>
        <time>2018-05-26T07:05:36.154Z</time>
      </trkpt>
      <trkpt lat="40.60392333" lon="-3.80067333">
        <ele>664.0</ele>
        <time>2018-05-26T07:05:37.159Z</time>
      </trkpt>
      <trkpt lat="40.60398667" lon="-3.80064167">
        <ele>664.0</ele>
        <time>2018-05-26T07:05:38.139Z</time>
      </trkpt>
      <trkpt lat="40.60398667" lon="-3.80064167">
        <ele>664.0</ele>
        <time>2018-05-26T07:05:39.146Z</time>
      </trkpt>
      <trkpt lat="40.60405" lon="-3.80061167">
        <ele>664.0</ele>
        <time>2018-05-26T07:05:40.159Z</time>
      </trkpt>
      <trkpt lat="40.60405" lon="-3.80061167">
        <ele>664.0</ele>
        <time>2018-05-26T07:05:41.165Z</time>
      </trkpt>
      <trkpt lat="40.60411" lon="-3.80058333">
        <ele>664.0</ele>
        <time>2018-05-26T07:05:42.145Z</time>
      </trkpt>
      <trkpt lat="40.60411" lon="-3.80058333">
        <ele>664.0</ele>
        <time>2018-05-26T07:05:43.157Z</time>
      </trkpt>
      <trkpt lat="40.60417167" lon="-3.80054833">
        <ele>664.0</ele>
        <time>2018-05-26T07:05:44.149Z</time>
      </trkpt>
      <trkpt lat="40.60417167" lon="-3.80054833">
        <ele>664.0</ele>
        <time>2018-05-26T07:05:45.156Z</time>
      </trkpt>
      <trkpt lat="40.604235" lon="-3.80051333">
        <ele>664.0</ele>
        <time>2018-05-26T07:05:46.167Z</time>
      </trkpt>
      <trkpt lat="40.604235" lon="-3.80051333">
        <ele>664.0</ele>
        <time>2018-05-26T07:05:47.173Z</time>
      </trkpt>
      <trkpt lat="40.604295" lon="-3.80047667">
        <ele>664.0</ele>
        <time>2018-05-26T07:05:48.153Z</time>
      </trkpt>
      <trkpt lat="40.604295" lon="-3.80047667">
        <ele>664.0</ele>
        <time>2018-05-26T07:05:49.159Z</time>
      </trkpt>
      <trkpt lat="40.60435833" lon="-3.80044667">
        <ele>664.0</ele>
        <time>2018-05-26T07:05:50.142Z</time>
      </trkpt>
      <trkpt lat="40.60438833" lon="-3.800435">
        <ele>664.0</ele>
        <time>2018-05-26T07:05:51.141Z</time>
      </trkpt>
      <trkpt lat="40.60438833" lon="-3.800435">
        <ele>664.0</ele>
        <time>2018-05-26T07:05:52.146Z</time>
      </trkpt>
      <trkpt lat="40.604445" lon="-3.800405">
        <ele>664.0</ele>
        <time>2018-05-26T07:05:53.168Z</time>
      </trkpt>
      <trkpt lat="40.60447667" lon="-3.80039167">
        <ele>664.0</ele>
        <time>2018-05-26T07:05:54.144Z</time>
      </trkpt>
      <trkpt lat="40.60447667" lon="-3.80039167">
        <ele>664.0</ele>
        <time>2018-05-26T07:05:55.151Z</time>
      </trkpt>
      <trkpt lat="40.60453833" lon="-3.80036667">
        <ele>665.0</ele>
        <time>2018-05-26T07:05:56.175Z</time>
      </trkpt>
      <trkpt lat="40.60453833" lon="-3.80036667">
        <ele>665.0</ele>
        <time>2018-05-26T07:05:57.141Z</time>
      </trkpt>
      <trkpt lat="40.60460833" lon="-3.80033">
        <ele>665.0</ele>
        <time>2018-05-26T07:05:58.166Z</time>
      </trkpt>
      <trkpt lat="40.60463833" lon="-3.800315">
        <ele>665.0</ele>
        <time>2018-05-26T07:05:59.149Z</time>
      </trkpt>
      <trkpt lat="40.60463833" lon="-3.800315">
        <ele>665.0</ele>
        <time>2018-05-26T07:06:00.165Z</time>
      </trkpt>
      <trkpt lat="40.60469" lon="-3.80028667">
        <ele>665.0</ele>
        <time>2018-05-26T07:06:01.163Z</time>
      </trkpt>
      <trkpt lat="40.60469" lon="-3.80028667">
        <ele>665.0</ele>
        <time>2018-05-26T07:06:02.168Z</time>
      </trkpt>
      <trkpt lat="40.60474167" lon="-3.800255">
        <ele>666.0</ele>
        <time>2018-05-26T07:06:03.164Z</time>
      </trkpt>
      <trkpt lat="40.60474167" lon="-3.800255">
        <ele>666.0</ele>
        <time>2018-05-26T07:06:04.170Z</time>
      </trkpt>
      <trkpt lat="40.60479167" lon="-3.80022833">
        <ele>666.0</ele>
        <time>2018-05-26T07:06:05.156Z</time>
      </trkpt>
      <trkpt lat="40.60479167" lon="-3.80022833">
        <ele>666.0</ele>
        <time>2018-05-26T07:06:06.163Z</time>
      </trkpt>
      <trkpt lat="40.604845" lon="-3.80022333">
        <ele>667.0</ele>
        <time>2018-05-26T07:06:07.148Z</time>
      </trkpt>
      <trkpt lat="40.604845" lon="-3.80022333">
        <ele>667.0</ele>
        <time>2018-05-26T07:06:08.156Z</time>
      </trkpt>
      <trkpt lat="40.60490667" lon="-3.80021667">
        <ele>667.0</ele>
        <time>2018-05-26T07:06:09.152Z</time>
      </trkpt>
      <trkpt lat="40.60490667" lon="-3.80021667">
        <ele>667.0</ele>
        <time>2018-05-26T07:06:10.158Z</time>
      </trkpt>
      <trkpt lat="40.60497333" lon="-3.80021167">
        <ele>668.0</ele>
        <time>2018-05-26T07:06:11.167Z</time>
      </trkpt>
      <trkpt lat="40.60500333" lon="-3.80020833">
        <ele>668.0</ele>
        <time>2018-05-26T07:06:12.150Z</time>
      </trkpt>
      <trkpt lat="40.60500333" lon="-3.80020833">
        <ele>668.0</ele>
        <time>2018-05-26T07:06:13.157Z</time>
      </trkpt>
      <trkpt lat="40.60506333" lon="-3.80020167">
        <ele>668.0</ele>
        <time>2018-05-26T07:06:14.143Z</time>
      </trkpt>
      <trkpt lat="40.60506333" lon="-3.80020167">
        <ele>668.0</ele>
        <time>2018-05-26T07:06:15.156Z</time>
      </trkpt>
      <trkpt lat="40.60512333" lon="-3.80019833">
        <ele>669.0</ele>
        <time>2018-05-26T07:06:16.143Z</time>
      </trkpt>
      <trkpt lat="40.60512333" lon="-3.80019833">
        <ele>669.0</ele>
        <time>2018-05-26T07:06:17.149Z</time>
      </trkpt>
      <trkpt lat="40.60517833" lon="-3.800195">
        <ele>669.0</ele>
        <time>2018-05-26T07:06:18.170Z</time>
      </trkpt>
      <trkpt lat="40.60517833" lon="-3.800195">
        <ele>669.0</ele>
        <time>2018-05-26T07:06:19.137Z</time>
      </trkpt>
      <trkpt lat="40.60524" lon="-3.80018833">
        <ele>668.0</ele>
        <time>2018-05-26T07:06:20.148Z</time>
      </trkpt>
      <trkpt lat="40.60526833" lon="-3.80018667">
        <ele>670.0</ele>
        <time>2018-05-26T07:06:21.173Z</time>
      </trkpt>
      <trkpt lat="40.60526833" lon="-3.80018667">
        <ele>670.0</ele>
        <time>2018-05-26T07:06:22.142Z</time>
      </trkpt>
      <trkpt lat="40.60532833" lon="-3.80017833">
        <ele>670.0</ele>
        <time>2018-05-26T07:06:23.165Z</time>
      </trkpt>
      <trkpt lat="40.605355" lon="-3.80017667">
        <ele>671.0</ele>
        <time>2018-05-26T07:06:24.144Z</time>
      </trkpt>
      <trkpt lat="40.60538167" lon="-3.80017333">
        <ele>671.0</ele>
        <time>2018-05-26T07:06:25.162Z</time>
      </trkpt>
      <trkpt lat="40.60538167" lon="-3.80017333">
        <ele>671.0</ele>
        <time>2018-05-26T07:06:26.168Z</time>
      </trkpt>
      <trkpt lat="40.60543167" lon="-3.800165">
        <ele>672.0</ele>
        <time>2018-05-26T07:06:27.157Z</time>
      </trkpt>
      <trkpt lat="40.60543167" lon="-3.800165">
        <ele>672.0</ele>
        <time>2018-05-26T07:06:28.163Z</time>
      </trkpt>
      <trkpt lat="40.60548667" lon="-3.80015667">
        <ele>672.0</ele>
        <time>2018-05-26T07:06:29.149Z</time>
      </trkpt>
      <trkpt lat="40.605515" lon="-3.80015167">
        <ele>672.0</ele>
        <time>2018-05-26T07:06:30.140Z</time>
      </trkpt>
      <trkpt lat="40.605515" lon="-3.80015167">
        <ele>672.0</ele>
        <time>2018-05-26T07:06:31.146Z</time>
      </trkpt>
      <trkpt lat="40.60556333" lon="-3.80013">
        <ele>673.0</ele>
        <time>2018-05-26T07:06:32.172Z</time>
      </trkpt>
      <trkpt lat="40.60556333" lon="-3.80013">
        <ele>673.0</ele>
        <time>2018-05-26T07:06:33.138Z</time>
      </trkpt>
      <trkpt lat="40.60560667" lon="-3.80010167">
        <ele>673.0</ele>
        <time>2018-05-26T07:06:34.164Z</time>
      </trkpt>
      <trkpt lat="40.60560667" lon="-3.80010167">
        <ele>673.0</ele>
        <time>2018-05-26T07:06:35.170Z</time>
      </trkpt>
      <trkpt lat="40.60565" lon="-3.80005833">
        <ele>674.0</ele>
        <time>2018-05-26T07:06:36.150Z</time>
      </trkpt>
      <trkpt lat="40.60565" lon="-3.80005833">
        <ele>674.0</ele>
        <time>2018-05-26T07:06:37.158Z</time>
      </trkpt>
      <trkpt lat="40.605685" lon="-3.80001667">
        <ele>674.0</ele>
        <time>2018-05-26T07:06:38.141Z</time>
      </trkpt>
      <trkpt lat="40.605705" lon="-3.799995">
        <ele>674.0</ele>
        <time>2018-05-26T07:06:39.164Z</time>
      </trkpt>
      <trkpt lat="40.605705" lon="-3.799995">
        <ele>674.0</ele>
        <time>2018-05-26T07:06:40.170Z</time>
      </trkpt>
      <trkpt lat="40.60575167" lon="-3.79995">
        <ele>674.0</ele>
        <time>2018-05-26T07:06:41.161Z</time>
      </trkpt>
      <trkpt lat="40.60575167" lon="-3.79995">
        <ele>674.0</ele>
        <time>2018-05-26T07:06:42.167Z</time>
      </trkpt>
      <trkpt lat="40.60579667" lon="-3.799895">
        <ele>674.0</ele>
        <time>2018-05-26T07:06:43.150Z</time>
      </trkpt>
      <trkpt lat="40.60579667" lon="-3.799895">
        <ele>674.0</ele>
        <time>2018-05-26T07:06:44.157Z</time>
      </trkpt>
      <trkpt lat="40.60584167" lon="-3.799835">
        <ele>674.0</ele>
        <time>2018-05-26T07:06:45.138Z</time>
      </trkpt>
      <trkpt lat="40.60584167" lon="-3.799835">
        <ele>674.0</ele>
        <time>2018-05-26T07:06:46.144Z</time>
      </trkpt>
      <trkpt lat="40.605885" lon="-3.799775">
        <ele>675.0</ele>
        <time>2018-05-26T07:06:47.165Z</time>
      </trkpt>
      <trkpt lat="40.60590667" lon="-3.79974333">
        <ele>675.0</ele>
        <time>2018-05-26T07:06:48.142Z</time>
      </trkpt>
      <trkpt lat="40.60590667" lon="-3.79974333">
        <ele>675.0</ele>
        <time>2018-05-26T07:06:49.147Z</time>
      </trkpt>
      <trkpt lat="40.605955" lon="-3.79968833">
        <ele>675.0</ele>
        <time>2018-05-26T07:06:50.169Z</time>
      </trkpt>
      <trkpt lat="40.605955" lon="-3.79968833">
        <ele>675.0</ele>
        <time>2018-05-26T07:06:51.175Z</time>
      </trkpt>
      <trkpt lat="40.606" lon="-3.79963167">
        <ele>676.0</ele>
        <time>2018-05-26T07:06:52.161Z</time>
      </trkpt>
      <trkpt lat="40.60602167" lon="-3.79961">
        <ele>676.0</ele>
        <time>2018-05-26T07:06:53.140Z</time>
      </trkpt>
      <trkpt lat="40.60604" lon="-3.79959333">
        <ele>676.0</ele>
        <time>2018-05-26T07:06:54.162Z</time>
      </trkpt>
      <trkpt lat="40.60604" lon="-3.79959333">
        <ele>676.0</ele>
        <time>2018-05-26T07:06:55.169Z</time>
      </trkpt>
      <trkpt lat="40.60609167" lon="-3.79955167">
        <ele>677.0</ele>
        <time>2018-05-26T07:06:56.147Z</time>
      </trkpt>
      <trkpt lat="40.606115" lon="-3.79952667">
        <ele>677.0</ele>
        <time>2018-05-26T07:06:57.172Z</time>
      </trkpt>
      <trkpt lat="40.606115" lon="-3.79952667">
        <ele>677.0</ele>
        <time>2018-05-26T07:06:58.137Z</time>
      </trkpt>
      <trkpt lat="40.606165" lon="-3.79946833">
        <ele>677.0</ele>
        <time>2018-05-26T07:06:59.159Z</time>
      </trkpt>
      <trkpt lat="40.606165" lon="-3.79946833">
        <ele>677.0</ele>
        <time>2018-05-26T07:07:00.156Z</time>
      </trkpt>
      <trkpt lat="40.60621167" lon="-3.799405">
        <ele>677.0</ele>
        <time>2018-05-26T07:07:01.146Z</time>
      </trkpt>
      <trkpt lat="40.60621167" lon="-3.799405">
        <ele>677.0</ele>
        <time>2018-05-26T07:07:02.157Z</time>
      </trkpt>
      <trkpt lat="40.606265" lon="-3.799355">
        <ele>678.0</ele>
        <time>2018-05-26T07:07:03.140Z</time>
      </trkpt>
      <trkpt lat="40.606265" lon="-3.799355">
        <ele>678.0</ele>
        <time>2018-05-26T07:07:04.146Z</time>
      </trkpt>
      <trkpt lat="40.60631667" lon="-3.79930167">
        <ele>678.0</ele>
        <time>2018-05-26T07:07:05.170Z</time>
      </trkpt>
      <trkpt lat="40.60634333" lon="-3.79927167">
        <ele>678.0</ele>
        <time>2018-05-26T07:07:06.162Z</time>
      </trkpt>
      <trkpt lat="40.60634333" lon="-3.79927167">
        <ele>678.0</ele>
        <time>2018-05-26T07:07:07.167Z</time>
      </trkpt>
      <trkpt lat="40.60639833" lon="-3.79921833">
        <ele>678.0</ele>
        <time>2018-05-26T07:07:08.156Z</time>
      </trkpt>
      <trkpt lat="40.60642333" lon="-3.799195">
        <ele>678.0</ele>
        <time>2018-05-26T07:07:09.144Z</time>
      </trkpt>
      <trkpt lat="40.60644833" lon="-3.79917333">
        <ele>678.0</ele>
        <time>2018-05-26T07:07:10.162Z</time>
      </trkpt>
      <trkpt lat="40.60644833" lon="-3.79917333">
        <ele>678.0</ele>
        <time>2018-05-26T07:07:11.168Z</time>
      </trkpt>
      <trkpt lat="40.60649667" lon="-3.79913333">
        <ele>678.0</ele>
        <time>2018-05-26T07:07:12.151Z</time>
      </trkpt>
      <trkpt lat="40.60649667" lon="-3.79913333">
        <ele>678.0</ele>
        <time>2018-05-26T07:07:13.159Z</time>
      </trkpt>
      <trkpt lat="40.60654167" lon="-3.799095">
        <ele>678.0</ele>
        <time>2018-05-26T07:07:14.146Z</time>
      </trkpt>
      <trkpt lat="40.60654167" lon="-3.799095">
        <ele>678.0</ele>
        <time>2018-05-26T07:07:15.156Z</time>
      </trkpt>
      <trkpt lat="40.6066" lon="-3.79905833">
        <ele>678.0</ele>
        <time>2018-05-26T07:07:16.175Z</time>
      </trkpt>
      <trkpt lat="40.6066" lon="-3.79905833">
        <ele>678.0</ele>
        <time>2018-05-26T07:07:17.141Z</time>
      </trkpt>
      <trkpt lat="40.60665333" lon="-3.79902667">
        <ele>678.0</ele>
        <time>2018-05-26T07:07:18.170Z</time>
      </trkpt>
      <trkpt lat="40.60665333" lon="-3.79902667">
        <ele>678.0</ele>
        <time>2018-05-26T07:07:19.137Z</time>
      </trkpt>
      <trkpt lat="40.60670333" lon="-3.79899667">
        <ele>679.0</ele>
        <time>2018-05-26T07:07:20.168Z</time>
      </trkpt>
      <trkpt lat="40.60672833" lon="-3.79898">
        <ele>679.0</ele>
        <time>2018-05-26T07:07:21.148Z</time>
      </trkpt>
      <trkpt lat="40.60672833" lon="-3.79898">
        <ele>679.0</ele>
        <time>2018-05-26T07:07:22.158Z</time>
      </trkpt>
      <trkpt lat="40.60678333" lon="-3.79894833">
        <ele>679.0</ele>
        <time>2018-05-26T07:07:23.174Z</time>
      </trkpt>
      <trkpt lat="40.60678333" lon="-3.79894833">
        <ele>679.0</ele>
        <time>2018-05-26T07:07:24.140Z</time>
      </trkpt>
      <trkpt lat="40.606825" lon="-3.79891">
        <ele>679.0</ele>
        <time>2018-05-26T07:07:25.159Z</time>
      </trkpt>
      <trkpt lat="40.60684667" lon="-3.79888833">
        <ele>679.0</ele>
        <time>2018-05-26T07:07:26.144Z</time>
      </trkpt>
      <trkpt lat="40.60686833" lon="-3.79886333">
        <ele>679.0</ele>
        <time>2018-05-26T07:07:27.165Z</time>
      </trkpt>
      <trkpt lat="40.60686833" lon="-3.79886333">
        <ele>679.0</ele>
        <time>2018-05-26T07:07:28.170Z</time>
      </trkpt>
      <trkpt lat="40.60691167" lon="-3.79881333">
        <ele>680.0</ele>
        <time>2018-05-26T07:07:29.156Z</time>
      </trkpt>
      <trkpt lat="40.60693667" lon="-3.79878667">
        <ele>680.0</ele>
        <time>2018-05-26T07:07:30.154Z</time>
      </trkpt>
      <trkpt lat="40.60693667" lon="-3.79878667">
        <ele>680.0</ele>
        <time>2018-05-26T07:07:31.161Z</time>
      </trkpt>
      <trkpt lat="40.60698833" lon="-3.79873333">
        <ele>680.0</ele>
        <time>2018-05-26T07:07:32.142Z</time>
      </trkpt>
      <trkpt lat="40.60698833" lon="-3.79873333">
        <ele>680.0</ele>
        <time>2018-05-26T07:07:33.148Z</time>
      </trkpt>
      <trkpt lat="40.60703333" lon="-3.79868667">
        <ele>680.0</ele>
        <time>2018-05-26T07:07:34.141Z</time>
      </trkpt>
      <trkpt lat="40.60703333" lon="-3.79868667">
        <ele>680.0</ele>
        <time>2018-05-26T07:07:35.147Z</time>
      </trkpt>
      <trkpt lat="40.60707167" lon="-3.79863">
        <ele>681.0</ele>
        <time>2018-05-26T07:07:36.144Z</time>
      </trkpt>
      <trkpt lat="40.60707167" lon="-3.79863">
        <ele>681.0</ele>
        <time>2018-05-26T07:07:37.152Z</time>
      </trkpt>
      <trkpt lat="40.60711333" lon="-3.79857833">
        <ele>681.0</ele>
        <time>2018-05-26T07:07:38.138Z</time>
      </trkpt>
      <trkpt lat="40.60713333" lon="-3.79855667">
        <ele>681.0</ele>
        <time>2018-05-26T07:07:39.157Z</time>
      </trkpt>
      <trkpt lat="40.607155" lon="-3.79853667">
        <ele>681.0</ele>
        <time>2018-05-26T07:07:40.143Z</time>
      </trkpt>
      <trkpt lat="40.607155" lon="-3.79853667">
        <ele>681.0</ele>
        <time>2018-05-26T07:07:41.150Z</time>
      </trkpt>
      <trkpt lat="40.60719833" lon="-3.79849667">
        <ele>682.0</ele>
        <time>2018-05-26T07:07:42.144Z</time>
      </trkpt>
      <trkpt lat="40.60719833" lon="-3.79849667">
        <ele>682.0</ele>
        <time>2018-05-26T07:07:43.155Z</time>
      </trkpt>
      <trkpt lat="40.607245" lon="-3.79845333">
        <ele>682.0</ele>
        <time>2018-05-26T07:07:44.137Z</time>
      </trkpt>
      <trkpt lat="40.607245" lon="-3.79845333">
        <ele>682.0</ele>
        <time>2018-05-26T07:07:45.144Z</time>
      </trkpt>
      <trkpt lat="40.60729" lon="-3.79841167">
        <ele>683.0</ele>
        <time>2018-05-26T07:07:46.164Z</time>
      </trkpt>
      <trkpt lat="40.60729" lon="-3.79841167">
        <ele>683.0</ele>
        <time>2018-05-26T07:07:47.171Z</time>
      </trkpt>
      <trkpt lat="40.60733833" lon="-3.79837">
        <ele>683.0</ele>
        <time>2018-05-26T07:07:48.156Z</time>
      </trkpt>
      <trkpt lat="40.607365" lon="-3.79835167">
        <ele>683.0</ele>
        <time>2018-05-26T07:07:49.150Z</time>
      </trkpt>
      <trkpt lat="40.607365" lon="-3.79835167">
        <ele>683.0</ele>
        <time>2018-05-26T07:07:50.157Z</time>
      </trkpt>
      <trkpt lat="40.60741667" lon="-3.79831333">
        <ele>684.0</ele>
        <time>2018-05-26T07:07:51.153Z</time>
      </trkpt>
      <trkpt lat="40.60744167" lon="-3.79829333">
        <ele>684.0</ele>
        <time>2018-05-26T07:07:52.150Z</time>
      </trkpt>
      <trkpt lat="40.60744167" lon="-3.79829333">
        <ele>684.0</ele>
        <time>2018-05-26T07:07:53.158Z</time>
      </trkpt>
      <trkpt lat="40.60749167" lon="-3.79824667">
        <ele>684.0</ele>
        <time>2018-05-26T07:07:54.173Z</time>
      </trkpt>
      <trkpt lat="40.60749167" lon="-3.79824667">
        <ele>684.0</ele>
        <time>2018-05-26T07:07:55.139Z</time>
      </trkpt>
      <trkpt lat="40.60754667" lon="-3.79820667">
        <ele>685.0</ele>
        <time>2018-05-26T07:07:56.164Z</time>
      </trkpt>
      <trkpt lat="40.60758" lon="-3.79819833">
        <ele>685.0</ele>
        <time>2018-05-26T07:07:57.150Z</time>
      </trkpt>
      <trkpt lat="40.60758" lon="-3.79819833">
        <ele>685.0</ele>
        <time>2018-05-26T07:07:58.158Z</time>
      </trkpt>
      <trkpt lat="40.607645" lon="-3.79818667">
        <ele>686.0</ele>
        <time>2018-05-26T07:07:59.150Z</time>
      </trkpt>
      <trkpt lat="40.607645" lon="-3.79818667">
        <ele>686.0</ele>
        <time>2018-05-26T07:08:00.136Z</time>
      </trkpt>
      <trkpt lat="40.60769667" lon="-3.79816833">
        <ele>686.0</ele>
        <time>2018-05-26T07:08:01.162Z</time>
      </trkpt>
      <trkpt lat="40.60769667" lon="-3.79816833">
        <ele>686.0</ele>
        <time>2018-05-26T07:08:02.169Z</time>
      </trkpt>
      <trkpt lat="40.60774667" lon="-3.79815">
        <ele>686.0</ele>
        <time>2018-05-26T07:08:03.160Z</time>
      </trkpt>
      <trkpt lat="40.60774667" lon="-3.79815">
        <ele>686.0</ele>
        <time>2018-05-26T07:08:04.167Z</time>
      </trkpt>
      <trkpt lat="40.60779667" lon="-3.79811333">
        <ele>687.0</ele>
        <time>2018-05-26T07:08:05.145Z</time>
      </trkpt>
      <trkpt lat="40.60782" lon="-3.79809667">
        <ele>687.0</ele>
        <time>2018-05-26T07:08:06.164Z</time>
      </trkpt>
      <trkpt lat="40.60782" lon="-3.79809667">
        <ele>687.0</ele>
        <time>2018-05-26T07:08:07.170Z</time>
      </trkpt>
      <trkpt lat="40.60786833" lon="-3.79805667">
        <ele>687.0</ele>
        <time>2018-05-26T07:08:08.156Z</time>
      </trkpt>
      <trkpt lat="40.60786833" lon="-3.79805667">
        <ele>687.0</ele>
        <time>2018-05-26T07:08:09.163Z</time>
      </trkpt>
      <trkpt lat="40.60791167" lon="-3.79802">
        <ele>688.0</ele>
        <time>2018-05-26T07:08:10.156Z</time>
      </trkpt>
      <trkpt lat="40.60791167" lon="-3.79802">
        <ele>688.0</ele>
        <time>2018-05-26T07:08:11.162Z</time>
      </trkpt>
      <trkpt lat="40.60795167" lon="-3.79798333">
        <ele>688.0</ele>
        <time>2018-05-26T07:08:12.150Z</time>
      </trkpt>
      <trkpt lat="40.60795167" lon="-3.79798333">
        <ele>688.0</ele>
        <time>2018-05-26T07:08:13.170Z</time>
      </trkpt>
      <trkpt lat="40.60799333" lon="-3.79794167">
        <ele>688.0</ele>
        <time>2018-05-26T07:08:14.150Z</time>
      </trkpt>
      <trkpt lat="40.60799333" lon="-3.79794167">
        <ele>688.0</ele>
        <time>2018-05-26T07:08:15.159Z</time>
      </trkpt>
      <trkpt lat="40.60803833" lon="-3.79790833">
        <ele>689.0</ele>
        <time>2018-05-26T07:08:16.141Z</time>
      </trkpt>
      <trkpt lat="40.60803833" lon="-3.79790833">
        <ele>689.0</ele>
        <time>2018-05-26T07:08:17.147Z</time>
      </trkpt>
      <trkpt lat="40.60808667" lon="-3.79787">
        <ele>689.0</ele>
        <time>2018-05-26T07:08:18.170Z</time>
      </trkpt>
      <trkpt lat="40.60808667" lon="-3.79787">
        <ele>689.0</ele>
        <time>2018-05-26T07:08:19.175Z</time>
      </trkpt>
      <trkpt lat="40.60813333" lon="-3.79784333">
        <ele>690.0</ele>
        <time>2018-05-26T07:08:20.159Z</time>
      </trkpt>
      <trkpt lat="40.60813333" lon="-3.79784333">
        <ele>690.0</ele>
        <time>2018-05-26T07:08:21.172Z</time>
      </trkpt>
      <trkpt lat="40.60819333" lon="-3.79782">
        <ele>690.0</ele>
        <time>2018-05-26T07:08:22.148Z</time>
      </trkpt>
      <trkpt lat="40.60819333" lon="-3.79782">
        <ele>690.0</ele>
        <time>2018-05-26T07:08:23.156Z</time>
      </trkpt>
      <trkpt lat="40.60825" lon="-3.79779">
        <ele>690.0</ele>
        <time>2018-05-26T07:08:24.138Z</time>
      </trkpt>
      <trkpt lat="40.60825" lon="-3.79779">
        <ele>690.0</ele>
        <time>2018-05-26T07:08:25.144Z</time>
      </trkpt>
      <trkpt lat="40.608305" lon="-3.797765">
        <ele>691.0</ele>
        <time>2018-05-26T07:08:26.169Z</time>
      </trkpt>
      <trkpt lat="40.608305" lon="-3.797765">
        <ele>691.0</ele>
        <time>2018-05-26T07:08:27.175Z</time>
      </trkpt>
      <trkpt lat="40.60835" lon="-3.797725">
        <ele>691.0</ele>
        <time>2018-05-26T07:08:28.159Z</time>
      </trkpt>
      <trkpt lat="40.60835" lon="-3.797725">
        <ele>691.0</ele>
        <time>2018-05-26T07:08:29.165Z</time>
      </trkpt>
      <trkpt lat="40.60840167" lon="-3.79770167">
        <ele>692.0</ele>
        <time>2018-05-26T07:08:30.161Z</time>
      </trkpt>
      <trkpt lat="40.60840167" lon="-3.79770167">
        <ele>692.0</ele>
        <time>2018-05-26T07:08:31.166Z</time>
      </trkpt>
      <trkpt lat="40.60845333" lon="-3.79768667">
        <ele>692.0</ele>
        <time>2018-05-26T07:08:32.157Z</time>
      </trkpt>
      <trkpt lat="40.60845333" lon="-3.79768667">
        <ele>692.0</ele>
        <time>2018-05-26T07:08:33.163Z</time>
      </trkpt>
      <trkpt lat="40.60851167" lon="-3.79767333">
        <ele>692.0</ele>
        <time>2018-05-26T07:08:34.159Z</time>
      </trkpt>
      <trkpt lat="40.60851167" lon="-3.79767333">
        <ele>692.0</ele>
        <time>2018-05-26T07:08:35.164Z</time>
      </trkpt>
      <trkpt lat="40.608575" lon="-3.79766167">
        <ele>692.0</ele>
        <time>2018-05-26T07:08:36.147Z</time>
      </trkpt>
      <trkpt lat="40.608575" lon="-3.79766167">
        <ele>692.0</ele>
        <time>2018-05-26T07:08:37.159Z</time>
      </trkpt>
      <trkpt lat="40.60864" lon="-3.79765167">
        <ele>693.0</ele>
        <time>2018-05-26T07:08:38.150Z</time>
      </trkpt>
      <trkpt lat="40.60864" lon="-3.79765167">
        <ele>693.0</ele>
        <time>2018-05-26T07:08:39.159Z</time>
      </trkpt>
      <trkpt lat="40.60871167" lon="-3.79766167">
        <ele>694.0</ele>
        <time>2018-05-26T07:08:40.160Z</time>
      </trkpt>
      <trkpt lat="40.60874667" lon="-3.79767">
        <ele>694.0</ele>
        <time>2018-05-26T07:08:41.150Z</time>
      </trkpt>
      <trkpt lat="40.60878167" lon="-3.79767833">
        <ele>694.0</ele>
        <time>2018-05-26T07:08:42.173Z</time>
      </trkpt>
      <trkpt lat="40.60878167" lon="-3.79767833">
        <ele>694.0</ele>
        <time>2018-05-26T07:08:43.139Z</time>
      </trkpt>
      <trkpt lat="40.60886" lon="-3.79768167">
        <ele>694.0</ele>
        <time>2018-05-26T07:08:44.162Z</time>
      </trkpt>
      <trkpt lat="40.60886" lon="-3.79768167">
        <ele>694.0</ele>
        <time>2018-05-26T07:08:45.169Z</time>
      </trkpt>
      <trkpt lat="40.608945" lon="-3.79768">
        <ele>694.0</ele>
        <time>2018-05-26T07:08:46.146Z</time>
      </trkpt>
      <trkpt lat="40.608945" lon="-3.79768">
        <ele>694.0</ele>
        <time>2018-05-26T07:08:47.173Z</time>
      </trkpt>
      <trkpt lat="40.60903" lon="-3.79766333">
        <ele>695.0</ele>
        <time>2018-05-26T07:08:48.140Z</time>
      </trkpt>
      <trkpt lat="40.60903" lon="-3.79766333">
        <ele>695.0</ele>
        <time>2018-05-26T07:08:49.148Z</time>
      </trkpt>
      <trkpt lat="40.60911833" lon="-3.79763833">
        <ele>695.0</ele>
        <time>2018-05-26T07:08:50.140Z</time>
      </trkpt>
      <trkpt lat="40.60915667" lon="-3.79761833">
        <ele>694.0</ele>
        <time>2018-05-26T07:08:51.139Z</time>
      </trkpt>
      <trkpt lat="40.60915667" lon="-3.79761833">
        <ele>694.0</ele>
        <time>2018-05-26T07:08:52.145Z</time>
      </trkpt>
      <trkpt lat="40.60923667" lon="-3.797595">
        <ele>694.0</ele>
        <time>2018-05-26T07:08:53.176Z</time>
      </trkpt>
      <trkpt lat="40.60928167" lon="-3.797595">
        <ele>694.0</ele>
        <time>2018-05-26T07:08:54.161Z</time>
      </trkpt>
      <trkpt lat="40.60928167" lon="-3.797595">
        <ele>694.0</ele>
        <time>2018-05-26T07:08:55.167Z</time>
      </trkpt>
      <trkpt lat="40.60937167" lon="-3.79761333">
        <ele>694.0</ele>
        <time>2018-05-26T07:08:56.166Z</time>
      </trkpt>
      <trkpt lat="40.60941167" lon="-3.79761833">
        <ele>694.0</ele>
        <time>2018-05-26T07:08:57.154Z</time>
      </trkpt>
      <trkpt lat="40.60941167" lon="-3.79761833">
        <ele>694.0</ele>
        <time>2018-05-26T07:08:58.159Z</time>
      </trkpt>
      <trkpt lat="40.60949833" lon="-3.79760167">
        <ele>694.0</ele>
        <time>2018-05-26T07:08:59.149Z</time>
      </trkpt>
      <trkpt lat="40.60949833" lon="-3.79760167">
        <ele>694.0</ele>
        <time>2018-05-26T07:09:00.179Z</time>
      </trkpt>
      <trkpt lat="40.60958167" lon="-3.79759667">
        <ele>694.0</ele>
        <time>2018-05-26T07:09:01.145Z</time>
      </trkpt>
      <trkpt lat="40.609625" lon="-3.79759833">
        <ele>693.0</ele>
        <time>2018-05-26T07:09:02.136Z</time>
      </trkpt>
      <trkpt lat="40.609625" lon="-3.79759833">
        <ele>693.0</ele>
        <time>2018-05-26T07:09:03.141Z</time>
      </trkpt>
      <trkpt lat="40.609715" lon="-3.7976">
        <ele>693.0</ele>
        <time>2018-05-26T07:09:04.160Z</time>
      </trkpt>
      <trkpt lat="40.609715" lon="-3.7976">
        <ele>693.0</ele>
        <time>2018-05-26T07:09:05.168Z</time>
      </trkpt>
      <trkpt lat="40.60980833" lon="-3.79760833">
        <ele>692.0</ele>
        <time>2018-05-26T07:09:06.146Z</time>
      </trkpt>
      <trkpt lat="40.60980833" lon="-3.79760833">
        <ele>692.0</ele>
        <time>2018-05-26T07:09:07.153Z</time>
      </trkpt>
      <trkpt lat="40.60991167" lon="-3.797615">
        <ele>692.0</ele>
        <time>2018-05-26T07:09:08.139Z</time>
      </trkpt>
      <trkpt lat="40.60991167" lon="-3.797615">
        <ele>692.0</ele>
        <time>2018-05-26T07:09:09.145Z</time>
      </trkpt>
      <trkpt lat="40.61002167" lon="-3.79757833">
        <ele>691.0</ele>
        <time>2018-05-26T07:09:10.151Z</time>
      </trkpt>
      <trkpt lat="40.61002167" lon="-3.79757833">
        <ele>691.0</ele>
        <time>2018-05-26T07:09:11.158Z</time>
      </trkpt>
      <trkpt lat="40.61007333" lon="-3.79745667">
        <ele>690.0</ele>
        <time>2018-05-26T07:09:12.136Z</time>
      </trkpt>
      <trkpt lat="40.61007333" lon="-3.79745667">
        <ele>690.0</ele>
        <time>2018-05-26T07:09:13.144Z</time>
      </trkpt>
      <trkpt lat="40.610075" lon="-3.79731667">
        <ele>689.0</ele>
        <time>2018-05-26T07:09:14.162Z</time>
      </trkpt>
      <trkpt lat="40.610075" lon="-3.79731667">
        <ele>689.0</ele>
        <time>2018-05-26T07:09:15.168Z</time>
      </trkpt>
      <trkpt lat="40.61002333" lon="-3.79717333">
        <ele>688.0</ele>
        <time>2018-05-26T07:09:16.154Z</time>
      </trkpt>
      <trkpt lat="40.61002333" lon="-3.79717333">
        <ele>688.0</ele>
        <time>2018-05-26T07:09:17.159Z</time>
      </trkpt>
      <trkpt lat="40.60995167" lon="-3.79702833">
        <ele>687.0</ele>
        <time>2018-05-26T07:09:18.140Z</time>
      </trkpt>
      <trkpt lat="40.60995167" lon="-3.79702833">
        <ele>687.0</ele>
        <time>2018-05-26T07:09:19.147Z</time>
      </trkpt>
      <trkpt lat="40.60986167" lon="-3.796895">
        <ele>687.0</ele>
        <time>2018-05-26T07:09:20.171Z</time>
      </trkpt>
      <trkpt lat="40.60986167" lon="-3.796895">
        <ele>687.0</ele>
        <time>2018-05-26T07:09:21.136Z</time>
      </trkpt>
      <trkpt lat="40.60976333" lon="-3.79677833">
        <ele>687.0</ele>
        <time>2018-05-26T07:09:22.152Z</time>
      </trkpt>
      <trkpt lat="40.60976333" lon="-3.79677833">
        <ele>687.0</ele>
        <time>2018-05-26T07:09:23.172Z</time>
      </trkpt>
      <trkpt lat="40.60967667" lon="-3.79665667">
        <ele>687.0</ele>
        <time>2018-05-26T07:09:24.147Z</time>
      </trkpt>
      <trkpt lat="40.60964833" lon="-3.79659667">
        <ele>686.0</ele>
        <time>2018-05-26T07:09:25.176Z</time>
      </trkpt>
      <trkpt lat="40.60964833" lon="-3.79659667">
        <ele>686.0</ele>
        <time>2018-05-26T07:09:26.142Z</time>
      </trkpt>
      <trkpt lat="40.60961833" lon="-3.79648333">
        <ele>687.0</ele>
        <time>2018-05-26T07:09:27.165Z</time>
      </trkpt>
      <trkpt lat="40.60961833" lon="-3.79648333">
        <ele>687.0</ele>
        <time>2018-05-26T07:09:28.172Z</time>
      </trkpt>
      <trkpt lat="40.609615" lon="-3.796395">
        <ele>687.0</ele>
        <time>2018-05-26T07:09:29.154Z</time>
      </trkpt>
      <trkpt lat="40.60961667" lon="-3.79635667">
        <ele>687.0</ele>
        <time>2018-05-26T07:09:30.173Z</time>
      </trkpt>
      <trkpt lat="40.60961667" lon="-3.79635667">
        <ele>687.0</ele>
        <time>2018-05-26T07:09:31.139Z</time>
      </trkpt>
      <trkpt lat="40.60961667" lon="-3.79628333">
        <ele>688.0</ele>
        <time>2018-05-26T07:09:32.169Z</time>
      </trkpt>
      <trkpt lat="40.60961667" lon="-3.79628333">
        <ele>688.0</ele>
        <time>2018-05-26T07:09:33.175Z</time>
      </trkpt>
      <trkpt lat="40.60963" lon="-3.79621333">
        <ele>688.0</ele>
        <time>2018-05-26T07:09:34.160Z</time>
      </trkpt>
      <trkpt lat="40.60963" lon="-3.79621333">
        <ele>688.0</ele>
        <time>2018-05-26T07:09:35.166Z</time>
      </trkpt>
      <trkpt lat="40.60964167" lon="-3.79614333">
        <ele>689.0</ele>
        <time>2018-05-26T07:09:36.146Z</time>
      </trkpt>
      <trkpt lat="40.60964167" lon="-3.79614333">
        <ele>689.0</ele>
        <time>2018-05-26T07:09:37.156Z</time>
      </trkpt>
      <trkpt lat="40.60966333" lon="-3.79607833">
        <ele>690.0</ele>
        <time>2018-05-26T07:09:38.138Z</time>
      </trkpt>
      <trkpt lat="40.60968833" lon="-3.79604667">
        <ele>690.0</ele>
        <time>2018-05-26T07:09:39.154Z</time>
      </trkpt>
      <trkpt lat="40.60968833" lon="-3.79604667">
        <ele>690.0</ele>
        <time>2018-05-26T07:09:40.160Z</time>
      </trkpt>
      <trkpt lat="40.60973833" lon="-3.796">
        <ele>691.0</ele>
        <time>2018-05-26T07:09:41.138Z</time>
      </trkpt>
      <trkpt lat="40.609765" lon="-3.79598667">
        <ele>691.0</ele>
        <time>2018-05-26T07:09:42.157Z</time>
      </trkpt>
      <trkpt lat="40.609765" lon="-3.79598667">
        <ele>691.0</ele>
        <time>2018-05-26T07:09:43.163Z</time>
      </trkpt>
      <trkpt lat="40.60982" lon="-3.795975">
        <ele>692.0</ele>
        <time>2018-05-26T07:09:44.152Z</time>
      </trkpt>
      <trkpt lat="40.60982" lon="-3.795975">
        <ele>692.0</ele>
        <time>2018-05-26T07:09:45.158Z</time>
      </trkpt>
      <trkpt lat="40.60988333" lon="-3.79598333">
        <ele>693.0</ele>
        <time>2018-05-26T07:09:46.145Z</time>
      </trkpt>
      <trkpt lat="40.60988333" lon="-3.79598333">
        <ele>693.0</ele>
        <time>2018-05-26T07:09:47.158Z</time>
      </trkpt>
      <trkpt lat="40.60994333" lon="-3.79598833">
        <ele>693.0</ele>
        <time>2018-05-26T07:09:48.139Z</time>
      </trkpt>
      <trkpt lat="40.60994333" lon="-3.79598833">
        <ele>693.0</ele>
        <time>2018-05-26T07:09:49.144Z</time>
      </trkpt>
      <trkpt lat="40.60999667" lon="-3.796005">
        <ele>694.0</ele>
        <time>2018-05-26T07:09:50.136Z</time>
      </trkpt>
      <trkpt lat="40.60999667" lon="-3.796005">
        <ele>694.0</ele>
        <time>2018-05-26T07:09:51.143Z</time>
      </trkpt>
      <trkpt lat="40.610045" lon="-3.796015">
        <ele>694.0</ele>
        <time>2018-05-26T07:09:52.160Z</time>
      </trkpt>
      <trkpt lat="40.610045" lon="-3.796015">
        <ele>694.0</ele>
        <time>2018-05-26T07:09:53.166Z</time>
      </trkpt>
      <trkpt lat="40.6101" lon="-3.79602333">
        <ele>695.0</ele>
        <time>2018-05-26T07:09:54.155Z</time>
      </trkpt>
      <trkpt lat="40.6101" lon="-3.79602333">
        <ele>695.0</ele>
        <time>2018-05-26T07:09:55.162Z</time>
      </trkpt>
      <trkpt lat="40.61015" lon="-3.796035">
        <ele>695.0</ele>
        <time>2018-05-26T07:09:56.137Z</time>
      </trkpt>
      <trkpt lat="40.61015" lon="-3.796035">
        <ele>695.0</ele>
        <time>2018-05-26T07:09:57.143Z</time>
      </trkpt>
      <trkpt lat="40.61019833" lon="-3.79604833">
        <ele>695.0</ele>
        <time>2018-05-26T07:09:58.136Z</time>
      </trkpt>
      <trkpt lat="40.61019833" lon="-3.79604833">
        <ele>695.0</ele>
        <time>2018-05-26T07:09:59.141Z</time>
      </trkpt>
      <trkpt lat="40.610245" lon="-3.79606">
        <ele>695.0</ele>
        <time>2018-05-26T07:10:00.175Z</time>
      </trkpt>
      <trkpt lat="40.610245" lon="-3.79606">
        <ele>695.0</ele>
        <time>2018-05-26T07:10:01.143Z</time>
      </trkpt>
      <trkpt lat="40.61029167" lon="-3.796075">
        <ele>696.0</ele>
        <time>2018-05-26T07:10:02.158Z</time>
      </trkpt>
      <trkpt lat="40.61029167" lon="-3.796075">
        <ele>696.0</ele>
        <time>2018-05-26T07:10:03.164Z</time>
      </trkpt>
      <trkpt lat="40.61034" lon="-3.79608833">
        <ele>698.0</ele>
        <time>2018-05-26T07:10:04.149Z</time>
      </trkpt>
      <trkpt lat="40.61036333" lon="-3.79609167">
        <ele>698.0</ele>
        <time>2018-05-26T07:10:05.173Z</time>
      </trkpt>
      <trkpt lat="40.61038667" lon="-3.796095">
        <ele>698.0</ele>
        <time>2018-05-26T07:10:06.151Z</time>
      </trkpt>
      <trkpt lat="40.61038667" lon="-3.796095">
        <ele>698.0</ele>
        <time>2018-05-26T07:10:07.159Z</time>
      </trkpt>
      <trkpt lat="40.610435" lon="-3.7961">
        <ele>699.0</ele>
        <time>2018-05-26T07:10:08.141Z</time>
      </trkpt>
      <trkpt lat="40.610435" lon="-3.7961">
        <ele>699.0</ele>
        <time>2018-05-26T07:10:09.147Z</time>
      </trkpt>
      <trkpt lat="40.61049" lon="-3.79610333">
        <ele>700.0</ele>
        <time>2018-05-26T07:10:10.173Z</time>
      </trkpt>
      <trkpt lat="40.61049" lon="-3.79610333">
        <ele>700.0</ele>
        <time>2018-05-26T07:10:11.139Z</time>
      </trkpt>
      <trkpt lat="40.61053833" lon="-3.796115">
        <ele>700.0</ele>
        <time>2018-05-26T07:10:12.162Z</time>
      </trkpt>
      <trkpt lat="40.61053833" lon="-3.796115">
        <ele>700.0</ele>
        <time>2018-05-26T07:10:13.167Z</time>
      </trkpt>
      <trkpt lat="40.610585" lon="-3.79612333">
        <ele>701.0</ele>
        <time>2018-05-26T07:10:14.147Z</time>
      </trkpt>
      <trkpt lat="40.610585" lon="-3.79612333">
        <ele>701.0</ele>
        <time>2018-05-26T07:10:15.156Z</time>
      </trkpt>
      <trkpt lat="40.61063167" lon="-3.79614">
        <ele>702.0</ele>
        <time>2018-05-26T07:10:16.137Z</time>
      </trkpt>
      <trkpt lat="40.61063167" lon="-3.79614">
        <ele>702.0</ele>
        <time>2018-05-26T07:10:17.143Z</time>
      </trkpt>
      <trkpt lat="40.61068" lon="-3.79615">
        <ele>702.0</ele>
        <time>2018-05-26T07:10:18.168Z</time>
      </trkpt>
      <trkpt lat="40.61068" lon="-3.79615">
        <ele>702.0</ele>
        <time>2018-05-26T07:10:19.174Z</time>
      </trkpt>
      <trkpt lat="40.61072667" lon="-3.796155">
        <ele>702.0</ele>
        <time>2018-05-26T07:10:20.156Z</time>
      </trkpt>
      <trkpt lat="40.61072667" lon="-3.796155">
        <ele>702.0</ele>
        <time>2018-05-26T07:10:21.163Z</time>
      </trkpt>
      <trkpt lat="40.61077667" lon="-3.79615833">
        <ele>703.0</ele>
        <time>2018-05-26T07:10:22.146Z</time>
      </trkpt>
      <trkpt lat="40.61077667" lon="-3.79615833">
        <ele>703.0</ele>
        <time>2018-05-26T07:10:23.156Z</time>
      </trkpt>
      <trkpt lat="40.61082167" lon="-3.79614667">
        <ele>703.0</ele>
        <time>2018-05-26T07:10:24.143Z</time>
      </trkpt>
      <trkpt lat="40.61082167" lon="-3.79614667">
        <ele>703.0</ele>
        <time>2018-05-26T07:10:25.149Z</time>
      </trkpt>
      <trkpt lat="40.61086833" lon="-3.79613833">
        <ele>704.0</ele>
        <time>2018-05-26T07:10:26.147Z</time>
      </trkpt>
      <trkpt lat="40.61086833" lon="-3.79613833">
        <ele>704.0</ele>
        <time>2018-05-26T07:10:27.158Z</time>
      </trkpt>
      <trkpt lat="40.61090333" lon="-3.79609833">
        <ele>705.0</ele>
        <time>2018-05-26T07:10:28.149Z</time>
      </trkpt>
      <trkpt lat="40.61090333" lon="-3.79609833">
        <ele>705.0</ele>
        <time>2018-05-26T07:10:29.158Z</time>
      </trkpt>
      <trkpt lat="40.61092833" lon="-3.79602333">
        <ele>706.0</ele>
        <time>2018-05-26T07:10:30.142Z</time>
      </trkpt>
      <trkpt lat="40.61092833" lon="-3.79602333">
        <ele>706.0</ele>
        <time>2018-05-26T07:10:31.157Z</time>
      </trkpt>
      <trkpt lat="40.61093667" lon="-3.79594167">
        <ele>707.0</ele>
        <time>2018-05-26T07:10:32.138Z</time>
      </trkpt>
      <trkpt lat="40.61093667" lon="-3.79594167">
        <ele>707.0</ele>
        <time>2018-05-26T07:10:33.145Z</time>
      </trkpt>
      <trkpt lat="40.61092333" lon="-3.79585667">
        <ele>708.0</ele>
        <time>2018-05-26T07:10:34.162Z</time>
      </trkpt>
      <trkpt lat="40.61091167" lon="-3.79581333">
        <ele>708.0</ele>
        <time>2018-05-26T07:10:35.156Z</time>
      </trkpt>
      <trkpt lat="40.61090667" lon="-3.79576833">
        <ele>708.0</ele>
        <time>2018-05-26T07:10:36.136Z</time>
      </trkpt>
      <trkpt lat="40.61090667" lon="-3.79576833">
        <ele>708.0</ele>
        <time>2018-05-26T07:10:37.141Z</time>
      </trkpt>
      <trkpt lat="40.6109" lon="-3.79568167">
        <ele>709.0</ele>
        <time>2018-05-26T07:10:38.165Z</time>
      </trkpt>
      <trkpt lat="40.61089833" lon="-3.79564">
        <ele>709.0</ele>
        <time>2018-05-26T07:10:39.150Z</time>
      </trkpt>
      <trkpt lat="40.61089833" lon="-3.79564">
        <ele>709.0</ele>
        <time>2018-05-26T07:10:40.159Z</time>
      </trkpt>
      <trkpt lat="40.610905" lon="-3.79555667">
        <ele>709.0</ele>
        <time>2018-05-26T07:10:41.144Z</time>
      </trkpt>
      <trkpt lat="40.61091167" lon="-3.79551667">
        <ele>709.0</ele>
        <time>2018-05-26T07:10:42.163Z</time>
      </trkpt>
      <trkpt lat="40.61091167" lon="-3.79551667">
        <ele>709.0</ele>
        <time>2018-05-26T07:10:43.169Z</time>
      </trkpt>
      <trkpt lat="40.610925" lon="-3.79543333">
        <ele>710.0</ele>
        <time>2018-05-26T07:10:44.155Z</time>
      </trkpt>
      <trkpt lat="40.61093167" lon="-3.795395">
        <ele>710.0</ele>
        <time>2018-05-26T07:10:45.175Z</time>
      </trkpt>
      <trkpt lat="40.61093167" lon="-3.795395">
        <ele>710.0</ele>
        <time>2018-05-26T07:10:46.141Z</time>
      </trkpt>
      <trkpt lat="40.61095167" lon="-3.79532167">
        <ele>710.0</ele>
        <time>2018-05-26T07:10:47.161Z</time>
      </trkpt>
      <trkpt lat="40.610965" lon="-3.795285">
        <ele>710.0</ele>
        <time>2018-05-26T07:10:48.151Z</time>
      </trkpt>
      <trkpt lat="40.610965" lon="-3.795285">
        <ele>710.0</ele>
        <time>2018-05-26T07:10:49.158Z</time>
      </trkpt>
      <trkpt lat="40.610995" lon="-3.79522167">
        <ele>710.0</ele>
        <time>2018-05-26T07:10:50.150Z</time>
      </trkpt>
      <trkpt lat="40.61101167" lon="-3.795195">
        <ele>710.0</ele>
        <time>2018-05-26T07:10:51.164Z</time>
      </trkpt>
      <trkpt lat="40.61101167" lon="-3.795195">
        <ele>710.0</ele>
        <time>2018-05-26T07:10:52.169Z</time>
      </trkpt>
      <trkpt lat="40.61104833" lon="-3.79514">
        <ele>710.0</ele>
        <time>2018-05-26T07:10:53.156Z</time>
      </trkpt>
      <trkpt lat="40.61104833" lon="-3.79514">
        <ele>710.0</ele>
        <time>2018-05-26T07:10:54.163Z</time>
      </trkpt>
      <trkpt lat="40.61108667" lon="-3.795095">
        <ele>710.0</ele>
        <time>2018-05-26T07:10:55.143Z</time>
      </trkpt>
      <trkpt lat="40.61108667" lon="-3.795095">
        <ele>710.0</ele>
        <time>2018-05-26T07:10:56.148Z</time>
      </trkpt>
      <trkpt lat="40.61112833" lon="-3.79505333">
        <ele>711.0</ele>
        <time>2018-05-26T07:10:57.142Z</time>
      </trkpt>
      <trkpt lat="40.61112833" lon="-3.79505333">
        <ele>711.0</ele>
        <time>2018-05-26T07:10:58.154Z</time>
      </trkpt>
      <trkpt lat="40.61117833" lon="-3.79501333">
        <ele>711.0</ele>
        <time>2018-05-26T07:10:59.175Z</time>
      </trkpt>
      <trkpt lat="40.61117833" lon="-3.79501333">
        <ele>711.0</ele>
        <time>2018-05-26T07:11:00.156Z</time>
      </trkpt>
      <trkpt lat="40.611235" lon="-3.79497833">
        <ele>711.0</ele>
        <time>2018-05-26T07:11:01.145Z</time>
      </trkpt>
      <trkpt lat="40.611235" lon="-3.79497833">
        <ele>711.0</ele>
        <time>2018-05-26T07:11:02.157Z</time>
      </trkpt>
      <trkpt lat="40.61128833" lon="-3.79497">
        <ele>711.0</ele>
        <time>2018-05-26T07:11:03.151Z</time>
      </trkpt>
      <trkpt lat="40.61132" lon="-3.79497">
        <ele>712.0</ele>
        <time>2018-05-26T07:11:04.165Z</time>
      </trkpt>
      <trkpt lat="40.61132" lon="-3.79497">
        <ele>712.0</ele>
        <time>2018-05-26T07:11:05.171Z</time>
      </trkpt>
      <trkpt lat="40.61137833" lon="-3.79497833">
        <ele>712.0</ele>
        <time>2018-05-26T07:11:06.150Z</time>
      </trkpt>
      <trkpt lat="40.61137833" lon="-3.79497833">
        <ele>712.0</ele>
        <time>2018-05-26T07:11:07.157Z</time>
      </trkpt>
      <trkpt lat="40.61143" lon="-3.794995">
        <ele>713.0</ele>
        <time>2018-05-26T07:11:08.173Z</time>
      </trkpt>
      <trkpt lat="40.611455" lon="-3.79500833">
        <ele>713.0</ele>
        <time>2018-05-26T07:11:09.136Z</time>
      </trkpt>
      <trkpt lat="40.61148" lon="-3.79502667">
        <ele>714.0</ele>
        <time>2018-05-26T07:11:10.157Z</time>
      </trkpt>
      <trkpt lat="40.61148" lon="-3.79502667">
        <ele>714.0</ele>
        <time>2018-05-26T07:11:11.164Z</time>
      </trkpt>
      <trkpt lat="40.61153" lon="-3.79506833">
        <ele>714.0</ele>
        <time>2018-05-26T07:11:12.148Z</time>
      </trkpt>
      <trkpt lat="40.61153" lon="-3.79506833">
        <ele>714.0</ele>
        <time>2018-05-26T07:11:13.156Z</time>
      </trkpt>
      <trkpt lat="40.61158167" lon="-3.79510667">
        <ele>714.0</ele>
        <time>2018-05-26T07:11:14.175Z</time>
      </trkpt>
      <trkpt lat="40.61158167" lon="-3.79510667">
        <ele>714.0</ele>
        <time>2018-05-26T07:11:15.141Z</time>
      </trkpt>
      <trkpt lat="40.61163" lon="-3.79514833">
        <ele>714.0</ele>
        <time>2018-05-26T07:11:16.144Z</time>
      </trkpt>
      <trkpt lat="40.61163" lon="-3.79514833">
        <ele>714.0</ele>
        <time>2018-05-26T07:11:17.155Z</time>
      </trkpt>
      <trkpt lat="40.61168" lon="-3.79519">
        <ele>715.0</ele>
        <time>2018-05-26T07:11:18.136Z</time>
      </trkpt>
      <trkpt lat="40.61168" lon="-3.79519">
        <ele>715.0</ele>
        <time>2018-05-26T07:11:19.142Z</time>
      </trkpt>
      <trkpt lat="40.61173333" lon="-3.79522833">
        <ele>715.0</ele>
        <time>2018-05-26T07:11:20.171Z</time>
      </trkpt>
      <trkpt lat="40.61176" lon="-3.79524667">
        <ele>715.0</ele>
        <time>2018-05-26T07:11:21.146Z</time>
      </trkpt>
      <trkpt lat="40.61176" lon="-3.79524667">
        <ele>715.0</ele>
        <time>2018-05-26T07:11:22.157Z</time>
      </trkpt>
      <trkpt lat="40.61181167" lon="-3.795285">
        <ele>715.0</ele>
        <time>2018-05-26T07:11:23.139Z</time>
      </trkpt>
      <trkpt lat="40.61183667" lon="-3.79530667">
        <ele>716.0</ele>
        <time>2018-05-26T07:11:24.168Z</time>
      </trkpt>
      <trkpt lat="40.61183667" lon="-3.79530667">
        <ele>716.0</ele>
        <time>2018-05-26T07:11:25.174Z</time>
      </trkpt>
      <trkpt lat="40.61188833" lon="-3.79534833">
        <ele>716.0</ele>
        <time>2018-05-26T07:11:26.172Z</time>
      </trkpt>
      <trkpt lat="40.61188833" lon="-3.79534833">
        <ele>716.0</ele>
        <time>2018-05-26T07:11:27.137Z</time>
      </trkpt>
      <trkpt lat="40.61193333" lon="-3.795395">
        <ele>716.0</ele>
        <time>2018-05-26T07:11:28.154Z</time>
      </trkpt>
      <trkpt lat="40.611955" lon="-3.79542">
        <ele>716.0</ele>
        <time>2018-05-26T07:11:29.138Z</time>
      </trkpt>
      <trkpt lat="40.61197833" lon="-3.795445">
        <ele>716.0</ele>
        <time>2018-05-26T07:11:30.161Z</time>
      </trkpt>
      <trkpt lat="40.61197833" lon="-3.795445">
        <ele>716.0</ele>
        <time>2018-05-26T07:11:31.167Z</time>
      </trkpt>
      <trkpt lat="40.61202833" lon="-3.79548333">
        <ele>717.0</ele>
        <time>2018-05-26T07:11:32.145Z</time>
      </trkpt>
      <trkpt lat="40.612055" lon="-3.79550167">
        <ele>717.0</ele>
        <time>2018-05-26T07:11:33.145Z</time>
      </trkpt>
      <trkpt lat="40.612055" lon="-3.79550167">
        <ele>717.0</ele>
        <time>2018-05-26T07:11:34.150Z</time>
      </trkpt>
      <trkpt lat="40.61210333" lon="-3.795535">
        <ele>718.0</ele>
        <time>2018-05-26T07:11:35.141Z</time>
      </trkpt>
      <trkpt lat="40.61213" lon="-3.79555333">
        <ele>718.0</ele>
        <time>2018-05-26T07:11:36.174Z</time>
      </trkpt>
      <trkpt lat="40.61213" lon="-3.79555333">
        <ele>718.0</ele>
        <time>2018-05-26T07:11:37.141Z</time>
      </trkpt>
      <trkpt lat="40.612185" lon="-3.79558667">
        <ele>719.0</ele>
        <time>2018-05-26T07:11:38.168Z</time>
      </trkpt>
      <trkpt lat="40.61221333" lon="-3.7956">
        <ele>719.0</ele>
        <time>2018-05-26T07:11:39.162Z</time>
      </trkpt>
      <trkpt lat="40.61221333" lon="-3.7956">
        <ele>719.0</ele>
        <time>2018-05-26T07:11:40.169Z</time>
      </trkpt>
      <trkpt lat="40.61227167" lon="-3.79562667">
        <ele>719.0</ele>
        <time>2018-05-26T07:11:41.145Z</time>
      </trkpt>
      <trkpt lat="40.6123" lon="-3.79564167">
        <ele>720.0</ele>
        <time>2018-05-26T07:11:42.172Z</time>
      </trkpt>
      <trkpt lat="40.6123" lon="-3.79564167">
        <ele>720.0</ele>
        <time>2018-05-26T07:11:43.138Z</time>
      </trkpt>
      <trkpt lat="40.612355" lon="-3.79567667">
        <ele>720.0</ele>
        <time>2018-05-26T07:11:44.167Z</time>
      </trkpt>
      <trkpt lat="40.61238167" lon="-3.79569167">
        <ele>720.0</ele>
        <time>2018-05-26T07:11:45.168Z</time>
      </trkpt>
      <trkpt lat="40.61238167" lon="-3.79569167">
        <ele>720.0</ele>
        <time>2018-05-26T07:11:46.174Z</time>
      </trkpt>
      <trkpt lat="40.612435" lon="-3.79571833">
        <ele>721.0</ele>
        <time>2018-05-26T07:11:47.166Z</time>
      </trkpt>
      <trkpt lat="40.61246167" lon="-3.79573">
        <ele>721.0</ele>
        <time>2018-05-26T07:11:48.159Z</time>
      </trkpt>
      <trkpt lat="40.61246167" lon="-3.79573">
        <ele>721.0</ele>
        <time>2018-05-26T07:11:49.165Z</time>
      </trkpt>
      <trkpt lat="40.61251167" lon="-3.79576">
        <ele>721.0</ele>
        <time>2018-05-26T07:11:50.160Z</time>
      </trkpt>
      <trkpt lat="40.61253667" lon="-3.795775">
        <ele>722.0</ele>
        <time>2018-05-26T07:11:51.143Z</time>
      </trkpt>
      <trkpt lat="40.61256167" lon="-3.79579">
        <ele>722.0</ele>
        <time>2018-05-26T07:11:52.161Z</time>
      </trkpt>
      <trkpt lat="40.61256167" lon="-3.79579">
        <ele>722.0</ele>
        <time>2018-05-26T07:11:53.168Z</time>
      </trkpt>
      <trkpt lat="40.61261" lon="-3.79581667">
        <ele>722.0</ele>
        <time>2018-05-26T07:11:54.143Z</time>
      </trkpt>
      <trkpt lat="40.61261" lon="-3.79581667">
        <ele>722.0</ele>
        <time>2018-05-26T07:11:55.148Z</time>
      </trkpt>
      <trkpt lat="40.612655" lon="-3.79585167">
        <ele>723.0</ele>
        <time>2018-05-26T07:11:56.144Z</time>
      </trkpt>
      <trkpt lat="40.61267667" lon="-3.79587">
        <ele>723.0</ele>
        <time>2018-05-26T07:11:57.166Z</time>
      </trkpt>
      <trkpt lat="40.61267667" lon="-3.79587">
        <ele>723.0</ele>
        <time>2018-05-26T07:11:58.172Z</time>
      </trkpt>
      <trkpt lat="40.61271667" lon="-3.79591">
        <ele>724.0</ele>
        <time>2018-05-26T07:11:59.157Z</time>
      </trkpt>
      <trkpt lat="40.61273833" lon="-3.79593167">
        <ele>724.0</ele>
        <time>2018-05-26T07:12:00.151Z</time>
      </trkpt>
      <trkpt lat="40.61273833" lon="-3.79593167">
        <ele>724.0</ele>
        <time>2018-05-26T07:12:01.159Z</time>
      </trkpt>
      <trkpt lat="40.61278333" lon="-3.79597833">
        <ele>724.0</ele>
        <time>2018-05-26T07:12:02.150Z</time>
      </trkpt>
      <trkpt lat="40.61280667" lon="-3.79600333">
        <ele>724.0</ele>
        <time>2018-05-26T07:12:03.137Z</time>
      </trkpt>
      <trkpt lat="40.61280667" lon="-3.79600333">
        <ele>724.0</ele>
        <time>2018-05-26T07:12:04.143Z</time>
      </trkpt>
      <trkpt lat="40.61286" lon="-3.79605">
        <ele>724.0</ele>
        <time>2018-05-26T07:12:05.155Z</time>
      </trkpt>
      <trkpt lat="40.61288833" lon="-3.79607">
        <ele>724.0</ele>
        <time>2018-05-26T07:12:06.172Z</time>
      </trkpt>
      <trkpt lat="40.61292" lon="-3.79608667">
        <ele>724.0</ele>
        <time>2018-05-26T07:12:07.151Z</time>
      </trkpt>
      <trkpt lat="40.61292" lon="-3.79608667">
        <ele>724.0</ele>
        <time>2018-05-26T07:12:08.159Z</time>
      </trkpt>
      <trkpt lat="40.61297833" lon="-3.79612667">
        <ele>724.0</ele>
        <time>2018-05-26T07:12:09.137Z</time>
      </trkpt>
      <trkpt lat="40.61297833" lon="-3.79612667">
        <ele>724.0</ele>
        <time>2018-05-26T07:12:10.142Z</time>
      </trkpt>
      <trkpt lat="40.613025" lon="-3.79617333">
        <ele>725.0</ele>
        <time>2018-05-26T07:12:11.163Z</time>
      </trkpt>
      <trkpt lat="40.61304333" lon="-3.79619333">
        <ele>725.0</ele>
        <time>2018-05-26T07:12:12.145Z</time>
      </trkpt>
      <trkpt lat="40.61304333" lon="-3.79619333">
        <ele>725.0</ele>
        <time>2018-05-26T07:12:13.151Z</time>
      </trkpt>
      <trkpt lat="40.613075" lon="-3.79623333">
        <ele>725.0</ele>
        <time>2018-05-26T07:12:14.174Z</time>
      </trkpt>
      <trkpt lat="40.613075" lon="-3.79623333">
        <ele>725.0</ele>
        <time>2018-05-26T07:12:15.140Z</time>
      </trkpt>
      <trkpt lat="40.61310167" lon="-3.79627167">
        <ele>726.0</ele>
        <time>2018-05-26T07:12:16.169Z</time>
      </trkpt>
      <trkpt lat="40.61311333" lon="-3.79629333">
        <ele>726.0</ele>
        <time>2018-05-26T07:12:17.152Z</time>
      </trkpt>
      <trkpt lat="40.61313167" lon="-3.79631833">
        <ele>726.0</ele>
        <time>2018-05-26T07:12:18.175Z</time>
      </trkpt>
      <trkpt lat="40.61313167" lon="-3.79631833">
        <ele>726.0</ele>
        <time>2018-05-26T07:12:19.141Z</time>
      </trkpt>
      <trkpt lat="40.61316167" lon="-3.79638167">
        <ele>726.0</ele>
        <time>2018-05-26T07:12:20.162Z</time>
      </trkpt>
      <trkpt lat="40.61317667" lon="-3.79641667">
        <ele>727.0</ele>
        <time>2018-05-26T07:12:21.160Z</time>
      </trkpt>
      <trkpt lat="40.61317667" lon="-3.79641667">
        <ele>727.0</ele>
        <time>2018-05-26T07:12:22.167Z</time>
      </trkpt>
      <trkpt lat="40.61320667" lon="-3.79647167">
        <ele>727.0</ele>
        <time>2018-05-26T07:12:23.151Z</time>
      </trkpt>
      <trkpt lat="40.61322667" lon="-3.79650167">
        <ele>727.0</ele>
        <time>2018-05-26T07:12:24.146Z</time>
      </trkpt>
      <trkpt lat="40.61322667" lon="-3.79650167">
        <ele>727.0</ele>
        <time>2018-05-26T07:12:25.159Z</time>
      </trkpt>
      <trkpt lat="40.613265" lon="-3.79655">
        <ele>727.0</ele>
        <time>2018-05-26T07:12:26.140Z</time>
      </trkpt>
      <trkpt lat="40.613265" lon="-3.79655">
        <ele>727.0</ele>
        <time>2018-05-26T07:12:27.147Z</time>
      </trkpt>
      <trkpt lat="40.61330667" lon="-3.79660167">
        <ele>728.0</ele>
        <time>2018-05-26T07:12:28.139Z</time>
      </trkpt>
      <trkpt lat="40.61333" lon="-3.79662167">
        <ele>728.0</ele>
        <time>2018-05-26T07:12:29.157Z</time>
      </trkpt>
      <trkpt lat="40.61335167" lon="-3.796635">
        <ele>728.0</ele>
        <time>2018-05-26T07:12:30.138Z</time>
      </trkpt>
      <trkpt lat="40.61337" lon="-3.796645">
        <ele>728.0</ele>
        <time>2018-05-26T07:12:31.159Z</time>
      </trkpt>
      <trkpt lat="40.61337" lon="-3.796645">
        <ele>728.0</ele>
        <time>2018-05-26T07:12:32.164Z</time>
      </trkpt>
      <trkpt lat="40.61340333" lon="-3.79666167">
        <ele>728.0</ele>
        <time>2018-05-26T07:12:33.143Z</time>
      </trkpt>
      <trkpt lat="40.61342167" lon="-3.79667">
        <ele>728.0</ele>
        <time>2018-05-26T07:12:34.173Z</time>
      </trkpt>
      <trkpt lat="40.61342167" lon="-3.79667">
        <ele>728.0</ele>
        <time>2018-05-26T07:12:35.139Z</time>
      </trkpt>
      <trkpt lat="40.61346" lon="-3.79668">
        <ele>728.0</ele>
        <time>2018-05-26T07:12:36.159Z</time>
      </trkpt>
      <trkpt lat="40.61346" lon="-3.79668">
        <ele>728.0</ele>
        <time>2018-05-26T07:12:37.165Z</time>
      </trkpt>
      <trkpt lat="40.61349333" lon="-3.796685">
        <ele>729.0</ele>
        <time>2018-05-26T07:12:38.149Z</time>
      </trkpt>
      <trkpt lat="40.61350667" lon="-3.79668167">
        <ele>729.0</ele>
        <time>2018-05-26T07:12:39.173Z</time>
      </trkpt>
      <trkpt lat="40.61352" lon="-3.796675">
        <ele>729.0</ele>
        <time>2018-05-26T07:12:40.152Z</time>
      </trkpt>
      <trkpt lat="40.61352" lon="-3.796675">
        <ele>729.0</ele>
        <time>2018-05-26T07:12:41.159Z</time>
      </trkpt>
      <trkpt lat="40.613545" lon="-3.79665833">
        <ele>730.0</ele>
        <time>2018-05-26T07:12:42.165Z</time>
      </trkpt>
      <trkpt lat="40.613545" lon="-3.79665833">
        <ele>730.0</ele>
        <time>2018-05-26T07:12:43.172Z</time>
      </trkpt>
      <trkpt lat="40.61357" lon="-3.796625">
        <ele>730.0</ele>
        <time>2018-05-26T07:12:44.158Z</time>
      </trkpt>
      <trkpt lat="40.61357" lon="-3.796625">
        <ele>730.0</ele>
        <time>2018-05-26T07:12:45.165Z</time>
      </trkpt>
      <trkpt lat="40.61359" lon="-3.79657833">
        <ele>731.0</ele>
        <time>2018-05-26T07:12:46.142Z</time>
      </trkpt>
      <trkpt lat="40.61359" lon="-3.79657833">
        <ele>731.0</ele>
        <time>2018-05-26T07:12:47.148Z</time>
      </trkpt>
      <trkpt lat="40.61361333" lon="-3.79652833">
        <ele>731.0</ele>
        <time>2018-05-26T07:12:48.171Z</time>
      </trkpt>
      <trkpt lat="40.61361333" lon="-3.79652833">
        <ele>731.0</ele>
        <time>2018-05-26T07:12:49.137Z</time>
      </trkpt>
      <trkpt lat="40.61364167" lon="-3.796495">
        <ele>731.0</ele>
        <time>2018-05-26T07:12:50.163Z</time>
      </trkpt>
      <trkpt lat="40.61364167" lon="-3.796495">
        <ele>731.0</ele>
        <time>2018-05-26T07:12:51.169Z</time>
      </trkpt>
      <trkpt lat="40.61369167" lon="-3.796455">
        <ele>731.0</ele>
        <time>2018-05-26T07:12:52.144Z</time>
      </trkpt>
      <trkpt lat="40.61369167" lon="-3.796455">
        <ele>731.0</ele>
        <time>2018-05-26T07:12:53.151Z</time>
      </trkpt>
      <trkpt lat="40.61374833" lon="-3.79641">
        <ele>731.0</ele>
        <time>2018-05-26T07:12:54.172Z</time>
      </trkpt>
      <trkpt lat="40.61374833" lon="-3.79641">
        <ele>731.0</ele>
        <time>2018-05-26T07:12:55.139Z</time>
      </trkpt>
      <trkpt lat="40.61379833" lon="-3.79632167">
        <ele>731.0</ele>
        <time>2018-05-26T07:12:56.163Z</time>
      </trkpt>
      <trkpt lat="40.61379833" lon="-3.79632167">
        <ele>731.0</ele>
        <time>2018-05-26T07:12:57.141Z</time>
      </trkpt>
      <trkpt lat="40.61382667" lon="-3.79621167">
        <ele>732.0</ele>
        <time>2018-05-26T07:12:58.158Z</time>
      </trkpt>
      <trkpt lat="40.61382667" lon="-3.79621167">
        <ele>732.0</ele>
        <time>2018-05-26T07:12:59.164Z</time>
      </trkpt>
      <trkpt lat="40.61385" lon="-3.79610667">
        <ele>732.0</ele>
        <time>2018-05-26T07:13:00.150Z</time>
      </trkpt>
      <trkpt lat="40.61386167" lon="-3.79605167">
        <ele>732.0</ele>
        <time>2018-05-26T07:13:01.137Z</time>
      </trkpt>
      <trkpt lat="40.61387333" lon="-3.79599667">
        <ele>732.0</ele>
        <time>2018-05-26T07:13:02.168Z</time>
      </trkpt>
      <trkpt lat="40.61387333" lon="-3.79599667">
        <ele>732.0</ele>
        <time>2018-05-26T07:13:03.175Z</time>
      </trkpt>
      <trkpt lat="40.61389" lon="-3.795885">
        <ele>732.0</ele>
        <time>2018-05-26T07:13:04.151Z</time>
      </trkpt>
      <trkpt lat="40.61390167" lon="-3.795825">
        <ele>732.0</ele>
        <time>2018-05-26T07:13:05.149Z</time>
      </trkpt>
      <trkpt lat="40.61391333" lon="-3.79576">
        <ele>732.0</ele>
        <time>2018-05-26T07:13:06.138Z</time>
      </trkpt>
      <trkpt lat="40.61391333" lon="-3.79576">
        <ele>732.0</ele>
        <time>2018-05-26T07:13:07.143Z</time>
      </trkpt>
      <trkpt lat="40.61393667" lon="-3.795615">
        <ele>731.0</ele>
        <time>2018-05-26T07:13:08.160Z</time>
      </trkpt>
      <trkpt lat="40.61393667" lon="-3.795615">
        <ele>731.0</ele>
        <time>2018-05-26T07:13:09.166Z</time>
      </trkpt>
      <trkpt lat="40.61395667" lon="-3.79543833">
        <ele>730.0</ele>
        <time>2018-05-26T07:13:10.147Z</time>
      </trkpt>
      <trkpt lat="40.61396833" lon="-3.79534167">
        <ele>729.0</ele>
        <time>2018-05-26T07:13:11.173Z</time>
      </trkpt>
      <trkpt lat="40.61396833" lon="-3.79534167">
        <ele>729.0</ele>
        <time>2018-05-26T07:13:12.140Z</time>
      </trkpt>
      <trkpt lat="40.614005" lon="-3.79512667">
        <ele>728.0</ele>
        <time>2018-05-26T07:13:13.163Z</time>
      </trkpt>
      <trkpt lat="40.614025" lon="-3.79501">
        <ele>726.0</ele>
        <time>2018-05-26T07:13:14.142Z</time>
      </trkpt>
      <trkpt lat="40.614025" lon="-3.79501">
        <ele>726.0</ele>
        <time>2018-05-26T07:13:15.149Z</time>
      </trkpt>
      <trkpt lat="40.61409833" lon="-3.794785">
        <ele>725.0</ele>
        <time>2018-05-26T07:13:16.137Z</time>
      </trkpt>
      <trkpt lat="40.61415833" lon="-3.7947">
        <ele>724.0</ele>
        <time>2018-05-26T07:13:17.162Z</time>
      </trkpt>
      <trkpt lat="40.61415833" lon="-3.7947">
        <ele>724.0</ele>
        <time>2018-05-26T07:13:18.168Z</time>
      </trkpt>
      <trkpt lat="40.6143" lon="-3.79459667">
        <ele>724.0</ele>
        <time>2018-05-26T07:13:19.148Z</time>
      </trkpt>
      <trkpt lat="40.6143" lon="-3.79459667">
        <ele>724.0</ele>
        <time>2018-05-26T07:13:20.157Z</time>
      </trkpt>
      <trkpt lat="40.61443333" lon="-3.79451833">
        <ele>724.0</ele>
        <time>2018-05-26T07:13:21.175Z</time>
      </trkpt>
      <trkpt lat="40.61443333" lon="-3.79451833">
        <ele>724.0</ele>
        <time>2018-05-26T07:13:22.142Z</time>
      </trkpt>
      <trkpt lat="40.61454833" lon="-3.79444">
        <ele>726.0</ele>
        <time>2018-05-26T07:13:23.167Z</time>
      </trkpt>
      <trkpt lat="40.6146" lon="-3.7944">
        <ele>726.0</ele>
        <time>2018-05-26T07:13:24.154Z</time>
      </trkpt>
      <trkpt lat="40.6146" lon="-3.7944">
        <ele>726.0</ele>
        <time>2018-05-26T07:13:25.161Z</time>
      </trkpt>
      <trkpt lat="40.61469333" lon="-3.79432167">
        <ele>727.0</ele>
        <time>2018-05-26T07:13:26.138Z</time>
      </trkpt>
      <trkpt lat="40.61473667" lon="-3.79428167">
        <ele>727.0</ele>
        <time>2018-05-26T07:13:27.163Z</time>
      </trkpt>
      <trkpt lat="40.61473667" lon="-3.79428167">
        <ele>727.0</ele>
        <time>2018-05-26T07:13:28.170Z</time>
      </trkpt>
      <trkpt lat="40.61481667" lon="-3.794205">
        <ele>728.0</ele>
        <time>2018-05-26T07:13:29.155Z</time>
      </trkpt>
      <trkpt lat="40.61485667" lon="-3.79416667">
        <ele>728.0</ele>
        <time>2018-05-26T07:13:30.172Z</time>
      </trkpt>
      <trkpt lat="40.61485667" lon="-3.79416667">
        <ele>728.0</ele>
        <time>2018-05-26T07:13:31.138Z</time>
      </trkpt>
      <trkpt lat="40.61493667" lon="-3.794085">
        <ele>729.0</ele>
        <time>2018-05-26T07:13:32.161Z</time>
      </trkpt>
      <trkpt lat="40.61493667" lon="-3.794085">
        <ele>729.0</ele>
        <time>2018-05-26T07:13:33.168Z</time>
      </trkpt>
      <trkpt lat="40.61501167" lon="-3.794">
        <ele>730.0</ele>
        <time>2018-05-26T07:13:34.142Z</time>
      </trkpt>
      <trkpt lat="40.61501167" lon="-3.794">
        <ele>730.0</ele>
        <time>2018-05-26T07:13:35.149Z</time>
      </trkpt>
      <trkpt lat="40.61507667" lon="-3.79392333">
        <ele>730.0</ele>
        <time>2018-05-26T07:13:36.142Z</time>
      </trkpt>
      <trkpt lat="40.61507667" lon="-3.79392333">
        <ele>730.0</ele>
        <time>2018-05-26T07:13:37.147Z</time>
      </trkpt>
      <trkpt lat="40.61513333" lon="-3.79384667">
        <ele>731.0</ele>
        <time>2018-05-26T07:13:38.170Z</time>
      </trkpt>
      <trkpt lat="40.61516333" lon="-3.79380833">
        <ele>731.0</ele>
        <time>2018-05-26T07:13:39.143Z</time>
      </trkpt>
      <trkpt lat="40.61518667" lon="-3.79376667">
        <ele>731.0</ele>
        <time>2018-05-26T07:13:40.161Z</time>
      </trkpt>
      <trkpt lat="40.61518667" lon="-3.79376667">
        <ele>731.0</ele>
        <time>2018-05-26T07:13:41.168Z</time>
      </trkpt>
      <trkpt lat="40.61522333" lon="-3.79368">
        <ele>732.0</ele>
        <time>2018-05-26T07:13:42.146Z</time>
      </trkpt>
      <trkpt lat="40.61522333" lon="-3.79368">
        <ele>732.0</ele>
        <time>2018-05-26T07:13:43.155Z</time>
      </trkpt>
      <trkpt lat="40.61526667" lon="-3.79359">
        <ele>732.0</ele>
        <time>2018-05-26T07:13:44.173Z</time>
      </trkpt>
      <trkpt lat="40.61529" lon="-3.793545">
        <ele>732.0</ele>
        <time>2018-05-26T07:13:45.165Z</time>
      </trkpt>
      <trkpt lat="40.61529" lon="-3.793545">
        <ele>732.0</ele>
        <time>2018-05-26T07:13:46.172Z</time>
      </trkpt>
      <trkpt lat="40.61533833" lon="-3.793455">
        <ele>732.0</ele>
        <time>2018-05-26T07:13:47.160Z</time>
      </trkpt>
      <trkpt lat="40.61536167" lon="-3.79340833">
        <ele>732.0</ele>
        <time>2018-05-26T07:13:48.144Z</time>
      </trkpt>
      <trkpt lat="40.61536167" lon="-3.79340833">
        <ele>732.0</ele>
        <time>2018-05-26T07:13:49.150Z</time>
      </trkpt>
      <trkpt lat="40.61540833" lon="-3.79331667">
        <ele>732.0</ele>
        <time>2018-05-26T07:13:50.173Z</time>
      </trkpt>
      <trkpt lat="40.61540833" lon="-3.79331667">
        <ele>732.0</ele>
        <time>2018-05-26T07:13:51.139Z</time>
      </trkpt>
      <trkpt lat="40.61546" lon="-3.793235">
        <ele>733.0</ele>
        <time>2018-05-26T07:13:52.161Z</time>
      </trkpt>
      <trkpt lat="40.61546" lon="-3.793235">
        <ele>733.0</ele>
        <time>2018-05-26T07:13:53.167Z</time>
      </trkpt>
      <trkpt lat="40.61551333" lon="-3.79316167">
        <ele>733.0</ele>
        <time>2018-05-26T07:13:54.156Z</time>
      </trkpt>
      <trkpt lat="40.61551333" lon="-3.79316167">
        <ele>733.0</ele>
        <time>2018-05-26T07:13:55.163Z</time>
      </trkpt>
      <trkpt lat="40.61556167" lon="-3.79309333">
        <ele>734.0</ele>
        <time>2018-05-26T07:13:56.149Z</time>
      </trkpt>
      <trkpt lat="40.61558667" lon="-3.79306">
        <ele>734.0</ele>
        <time>2018-05-26T07:13:57.143Z</time>
      </trkpt>
      <trkpt lat="40.61558667" lon="-3.79306">
        <ele>734.0</ele>
        <time>2018-05-26T07:13:58.148Z</time>
      </trkpt>
      <trkpt lat="40.61562833" lon="-3.79300167">
        <ele>735.0</ele>
        <time>2018-05-26T07:13:59.162Z</time>
      </trkpt>
      <trkpt lat="40.61562833" lon="-3.79300167">
        <ele>735.0</ele>
        <time>2018-05-26T07:14:00.175Z</time>
      </trkpt>
      <trkpt lat="40.61566833" lon="-3.79294333">
        <ele>736.0</ele>
        <time>2018-05-26T07:14:01.152Z</time>
      </trkpt>
      <trkpt lat="40.61569" lon="-3.79291333">
        <ele>736.0</ele>
        <time>2018-05-26T07:14:02.140Z</time>
      </trkpt>
      <trkpt lat="40.61569" lon="-3.79291333">
        <ele>736.0</ele>
        <time>2018-05-26T07:14:03.146Z</time>
      </trkpt>
      <trkpt lat="40.61573167" lon="-3.79285167">
        <ele>737.0</ele>
        <time>2018-05-26T07:14:04.147Z</time>
      </trkpt>
      <trkpt lat="40.61575333" lon="-3.79282333">
        <ele>737.0</ele>
        <time>2018-05-26T07:14:05.136Z</time>
      </trkpt>
      <trkpt lat="40.61575333" lon="-3.79282333">
        <ele>737.0</ele>
        <time>2018-05-26T07:14:06.141Z</time>
      </trkpt>
      <trkpt lat="40.615795" lon="-3.79276">
        <ele>738.0</ele>
        <time>2018-05-26T07:14:07.171Z</time>
      </trkpt>
      <trkpt lat="40.615795" lon="-3.79276">
        <ele>738.0</ele>
        <time>2018-05-26T07:14:08.138Z</time>
      </trkpt>
      <trkpt lat="40.61583667" lon="-3.79269167">
        <ele>738.0</ele>
        <time>2018-05-26T07:14:09.163Z</time>
      </trkpt>
      <trkpt lat="40.61583667" lon="-3.79269167">
        <ele>738.0</ele>
        <time>2018-05-26T07:14:10.170Z</time>
      </trkpt>
      <trkpt lat="40.61588333" lon="-3.79262333">
        <ele>739.0</ele>
        <time>2018-05-26T07:14:11.151Z</time>
      </trkpt>
      <trkpt lat="40.61590333" lon="-3.79258667">
        <ele>739.0</ele>
        <time>2018-05-26T07:14:12.139Z</time>
      </trkpt>
      <trkpt lat="40.61590333" lon="-3.79258667">
        <ele>739.0</ele>
        <time>2018-05-26T07:14:13.146Z</time>
      </trkpt>
      <trkpt lat="40.615945" lon="-3.79251167">
        <ele>739.0</ele>
        <time>2018-05-26T07:14:14.173Z</time>
      </trkpt>
      <trkpt lat="40.615945" lon="-3.79251167">
        <ele>739.0</ele>
        <time>2018-05-26T07:14:15.139Z</time>
      </trkpt>
      <trkpt lat="40.61598333" lon="-3.792435">
        <ele>740.0</ele>
        <time>2018-05-26T07:14:16.165Z</time>
      </trkpt>
      <trkpt lat="40.61598333" lon="-3.792435">
        <ele>740.0</ele>
        <time>2018-05-26T07:14:17.172Z</time>
      </trkpt>
      <trkpt lat="40.61601833" lon="-3.79236">
        <ele>740.0</ele>
        <time>2018-05-26T07:14:18.160Z</time>
      </trkpt>
      <trkpt lat="40.61601833" lon="-3.79236">
        <ele>740.0</ele>
        <time>2018-05-26T07:14:19.170Z</time>
      </trkpt>
      <trkpt lat="40.61605333" lon="-3.79229167">
        <ele>741.0</ele>
        <time>2018-05-26T07:14:20.165Z</time>
      </trkpt>
      <trkpt lat="40.61607" lon="-3.79226167">
        <ele>741.0</ele>
        <time>2018-05-26T07:14:21.150Z</time>
      </trkpt>
      <trkpt lat="40.61607" lon="-3.79226167">
        <ele>741.0</ele>
        <time>2018-05-26T07:14:22.158Z</time>
      </trkpt>
      <trkpt lat="40.61610667" lon="-3.792205">
        <ele>741.0</ele>
        <time>2018-05-26T07:14:23.145Z</time>
      </trkpt>
      <trkpt lat="40.616125" lon="-3.79217667">
        <ele>742.0</ele>
        <time>2018-05-26T07:14:24.137Z</time>
      </trkpt>
      <trkpt lat="40.616125" lon="-3.79217667">
        <ele>742.0</ele>
        <time>2018-05-26T07:14:25.143Z</time>
      </trkpt>
      <trkpt lat="40.61616" lon="-3.79212167">
        <ele>742.0</ele>
        <time>2018-05-26T07:14:26.138Z</time>
      </trkpt>
      <trkpt lat="40.61618" lon="-3.79209667">
        <ele>743.0</ele>
        <time>2018-05-26T07:14:27.139Z</time>
      </trkpt>
      <trkpt lat="40.61618" lon="-3.79209667">
        <ele>743.0</ele>
        <time>2018-05-26T07:14:28.148Z</time>
      </trkpt>
      <trkpt lat="40.61622167" lon="-3.79204833">
        <ele>743.0</ele>
        <time>2018-05-26T07:14:29.151Z</time>
      </trkpt>
      <trkpt lat="40.61625" lon="-3.79203167">
        <ele>743.0</ele>
        <time>2018-05-26T07:14:30.149Z</time>
      </trkpt>
      <trkpt lat="40.61625" lon="-3.79203167">
        <ele>743.0</ele>
        <time>2018-05-26T07:14:31.160Z</time>
      </trkpt>
      <trkpt lat="40.61631" lon="-3.79201167">
        <ele>744.0</ele>
        <time>2018-05-26T07:14:32.148Z</time>
      </trkpt>
      <trkpt lat="40.61631" lon="-3.79201167">
        <ele>744.0</ele>
        <time>2018-05-26T07:14:33.159Z</time>
      </trkpt>
      <trkpt lat="40.61637667" lon="-3.79199667">
        <ele>745.0</ele>
        <time>2018-05-26T07:14:34.151Z</time>
      </trkpt>
      <trkpt lat="40.61641" lon="-3.79199333">
        <ele>745.0</ele>
        <time>2018-05-26T07:14:35.139Z</time>
      </trkpt>
      <trkpt lat="40.61641" lon="-3.79199333">
        <ele>745.0</ele>
        <time>2018-05-26T07:14:36.150Z</time>
      </trkpt>
      <trkpt lat="40.61648667" lon="-3.79198333">
        <ele>745.0</ele>
        <time>2018-05-26T07:14:37.172Z</time>
      </trkpt>
      <trkpt lat="40.61648667" lon="-3.79198333">
        <ele>745.0</ele>
        <time>2018-05-26T07:14:38.144Z</time>
      </trkpt>
      <trkpt lat="40.61658" lon="-3.79195833">
        <ele>744.0</ele>
        <time>2018-05-26T07:14:39.136Z</time>
      </trkpt>
      <trkpt lat="40.61658" lon="-3.79195833">
        <ele>744.0</ele>
        <time>2018-05-26T07:14:40.151Z</time>
      </trkpt>
      <trkpt lat="40.616695" lon="-3.79189833">
        <ele>744.0</ele>
        <time>2018-05-26T07:14:41.140Z</time>
      </trkpt>
      <trkpt lat="40.61675667" lon="-3.79185333">
        <ele>743.0</ele>
        <time>2018-05-26T07:14:42.165Z</time>
      </trkpt>
      <trkpt lat="40.61675667" lon="-3.79185333">
        <ele>743.0</ele>
        <time>2018-05-26T07:14:43.173Z</time>
      </trkpt>
      <trkpt lat="40.61689" lon="-3.791755">
        <ele>742.0</ele>
        <time>2018-05-26T07:14:44.155Z</time>
      </trkpt>
      <trkpt lat="40.61689" lon="-3.791755">
        <ele>742.0</ele>
        <time>2018-05-26T07:14:45.167Z</time>
      </trkpt>
      <trkpt lat="40.61703167" lon="-3.79164333">
        <ele>740.0</ele>
        <time>2018-05-26T07:14:46.174Z</time>
      </trkpt>
      <trkpt lat="40.61710667" lon="-3.79158333">
        <ele>739.0</ele>
        <time>2018-05-26T07:14:47.156Z</time>
      </trkpt>
      <trkpt lat="40.61718667" lon="-3.79152167">
        <ele>739.0</ele>
        <time>2018-05-26T07:14:48.151Z</time>
      </trkpt>
      <trkpt lat="40.61718667" lon="-3.79152167">
        <ele>739.0</ele>
        <time>2018-05-26T07:14:49.160Z</time>
      </trkpt>
      <trkpt lat="40.61735667" lon="-3.79140167">
        <ele>737.0</ele>
        <time>2018-05-26T07:14:50.139Z</time>
      </trkpt>
      <trkpt lat="40.61735667" lon="-3.79140167">
        <ele>737.0</ele>
        <time>2018-05-26T07:14:51.147Z</time>
      </trkpt>
      <trkpt lat="40.61752833" lon="-3.79130333">
        <ele>736.0</ele>
        <time>2018-05-26T07:14:52.140Z</time>
      </trkpt>
      <trkpt lat="40.61752833" lon="-3.79130333">
        <ele>736.0</ele>
        <time>2018-05-26T07:14:53.149Z</time>
      </trkpt>
      <trkpt lat="40.61770167" lon="-3.791185">
        <ele>735.0</ele>
        <time>2018-05-26T07:14:54.141Z</time>
      </trkpt>
      <trkpt lat="40.61770167" lon="-3.791185">
        <ele>735.0</ele>
        <time>2018-05-26T07:14:55.154Z</time>
      </trkpt>
      <trkpt lat="40.61786333" lon="-3.791065">
        <ele>734.0</ele>
        <time>2018-05-26T07:14:56.145Z</time>
      </trkpt>
      <trkpt lat="40.61794333" lon="-3.79101">
        <ele>734.0</ele>
        <time>2018-05-26T07:14:57.169Z</time>
      </trkpt>
      <trkpt lat="40.61794333" lon="-3.79101">
        <ele>734.0</ele>
        <time>2018-05-26T07:14:58.140Z</time>
      </trkpt>
      <trkpt lat="40.61808333" lon="-3.79088167">
        <ele>733.0</ele>
        <time>2018-05-26T07:14:59.166Z</time>
      </trkpt>
      <trkpt lat="40.61814333" lon="-3.79080667">
        <ele>733.0</ele>
        <time>2018-05-26T07:15:00.171Z</time>
      </trkpt>
      <trkpt lat="40.61814333" lon="-3.79080667">
        <ele>733.0</ele>
        <time>2018-05-26T07:15:01.141Z</time>
      </trkpt>
      <trkpt lat="40.61824333" lon="-3.79064333">
        <ele>734.0</ele>
        <time>2018-05-26T07:15:02.167Z</time>
      </trkpt>
      <trkpt lat="40.61828833" lon="-3.79055667">
        <ele>734.0</ele>
        <time>2018-05-26T07:15:03.154Z</time>
      </trkpt>
      <trkpt lat="40.61828833" lon="-3.79055667">
        <ele>734.0</ele>
        <time>2018-05-26T07:15:04.161Z</time>
      </trkpt>
      <trkpt lat="40.61838" lon="-3.79039333">
        <ele>734.0</ele>
        <time>2018-05-26T07:15:05.138Z</time>
      </trkpt>
      <trkpt lat="40.61842333" lon="-3.79031333">
        <ele>734.0</ele>
        <time>2018-05-26T07:15:06.171Z</time>
      </trkpt>
      <trkpt lat="40.61842333" lon="-3.79031333">
        <ele>734.0</ele>
        <time>2018-05-26T07:15:07.139Z</time>
      </trkpt>
      <trkpt lat="40.61850833" lon="-3.79015833">
        <ele>734.0</ele>
        <time>2018-05-26T07:15:08.165Z</time>
      </trkpt>
      <trkpt lat="40.61855" lon="-3.79008333">
        <ele>734.0</ele>
        <time>2018-05-26T07:15:09.161Z</time>
      </trkpt>
      <trkpt lat="40.61855" lon="-3.79008333">
        <ele>734.0</ele>
        <time>2018-05-26T07:15:10.168Z</time>
      </trkpt>
      <trkpt lat="40.61863167" lon="-3.78994">
        <ele>735.0</ele>
        <time>2018-05-26T07:15:11.153Z</time>
      </trkpt>
      <trkpt lat="40.61863167" lon="-3.78994">
        <ele>735.0</ele>
        <time>2018-05-26T07:15:12.160Z</time>
      </trkpt>
      <trkpt lat="40.61871667" lon="-3.78981333">
        <ele>735.0</ele>
        <time>2018-05-26T07:15:13.173Z</time>
      </trkpt>
      <trkpt lat="40.61871667" lon="-3.78981333">
        <ele>735.0</ele>
        <time>2018-05-26T07:15:14.139Z</time>
      </trkpt>
      <trkpt lat="40.61882333" lon="-3.78973333">
        <ele>735.0</ele>
        <time>2018-05-26T07:15:15.163Z</time>
      </trkpt>
      <trkpt lat="40.61882333" lon="-3.78973333">
        <ele>735.0</ele>
        <time>2018-05-26T07:15:16.170Z</time>
      </trkpt>
      <trkpt lat="40.61893833" lon="-3.78967333">
        <ele>736.0</ele>
        <time>2018-05-26T07:15:17.155Z</time>
      </trkpt>
      <trkpt lat="40.61893833" lon="-3.78967333">
        <ele>736.0</ele>
        <time>2018-05-26T07:15:18.163Z</time>
      </trkpt>
      <trkpt lat="40.61904167" lon="-3.789605">
        <ele>736.0</ele>
        <time>2018-05-26T07:15:19.151Z</time>
      </trkpt>
      <trkpt lat="40.61904167" lon="-3.789605">
        <ele>736.0</ele>
        <time>2018-05-26T07:15:20.159Z</time>
      </trkpt>
      <trkpt lat="40.619115" lon="-3.78951">
        <ele>737.0</ele>
        <time>2018-05-26T07:15:21.151Z</time>
      </trkpt>
      <trkpt lat="40.61914667" lon="-3.78946333">
        <ele>737.0</ele>
        <time>2018-05-26T07:15:22.160Z</time>
      </trkpt>
      <trkpt lat="40.61914667" lon="-3.78946333">
        <ele>737.0</ele>
        <time>2018-05-26T07:15:23.166Z</time>
      </trkpt>
      <trkpt lat="40.619215" lon="-3.78936667">
        <ele>737.0</ele>
        <time>2018-05-26T07:15:24.150Z</time>
      </trkpt>
      <trkpt lat="40.619215" lon="-3.78936667">
        <ele>737.0</ele>
        <time>2018-05-26T07:15:25.138Z</time>
      </trkpt>
      <trkpt lat="40.61927833" lon="-3.789265">
        <ele>738.0</ele>
        <time>2018-05-26T07:15:26.166Z</time>
      </trkpt>
      <trkpt lat="40.61927833" lon="-3.789265">
        <ele>738.0</ele>
        <time>2018-05-26T07:15:27.173Z</time>
      </trkpt>
      <trkpt lat="40.61933833" lon="-3.78917167">
        <ele>738.0</ele>
        <time>2018-05-26T07:15:28.152Z</time>
      </trkpt>
      <trkpt lat="40.61933833" lon="-3.78917167">
        <ele>738.0</ele>
        <time>2018-05-26T07:15:29.159Z</time>
      </trkpt>
      <trkpt lat="40.61939667" lon="-3.789085">
        <ele>738.0</ele>
        <time>2018-05-26T07:15:30.142Z</time>
      </trkpt>
      <trkpt lat="40.61939667" lon="-3.789085">
        <ele>738.0</ele>
        <time>2018-05-26T07:15:31.150Z</time>
      </trkpt>
      <trkpt lat="40.61945333" lon="-3.78900167">
        <ele>739.0</ele>
        <time>2018-05-26T07:15:32.137Z</time>
      </trkpt>
      <trkpt lat="40.61945333" lon="-3.78900167">
        <ele>739.0</ele>
        <time>2018-05-26T07:15:33.149Z</time>
      </trkpt>
      <trkpt lat="40.61951333" lon="-3.78892833">
        <ele>740.0</ele>
        <time>2018-05-26T07:15:34.140Z</time>
      </trkpt>
      <trkpt lat="40.61954167" lon="-3.788895">
        <ele>740.0</ele>
        <time>2018-05-26T07:15:35.165Z</time>
      </trkpt>
      <trkpt lat="40.61956833" lon="-3.78886333">
        <ele>740.0</ele>
        <time>2018-05-26T07:15:36.153Z</time>
      </trkpt>
      <trkpt lat="40.61956833" lon="-3.78886333">
        <ele>740.0</ele>
        <time>2018-05-26T07:15:37.161Z</time>
      </trkpt>
      <trkpt lat="40.61962" lon="-3.78880167">
        <ele>741.0</ele>
        <time>2018-05-26T07:15:38.153Z</time>
      </trkpt>
      <trkpt lat="40.61962" lon="-3.78880167">
        <ele>741.0</ele>
        <time>2018-05-26T07:15:39.161Z</time>
      </trkpt>
      <trkpt lat="40.61966167" lon="-3.78873833">
        <ele>741.0</ele>
        <time>2018-05-26T07:15:40.140Z</time>
      </trkpt>
      <trkpt lat="40.61968333" lon="-3.78871">
        <ele>742.0</ele>
        <time>2018-05-26T07:15:41.160Z</time>
      </trkpt>
      <trkpt lat="40.61968333" lon="-3.78871">
        <ele>742.0</ele>
        <time>2018-05-26T07:15:42.169Z</time>
      </trkpt>
      <trkpt lat="40.61972167" lon="-3.78865833">
        <ele>742.0</ele>
        <time>2018-05-26T07:15:43.149Z</time>
      </trkpt>
      <trkpt lat="40.61973667" lon="-3.78863333">
        <ele>743.0</ele>
        <time>2018-05-26T07:15:44.145Z</time>
      </trkpt>
      <trkpt lat="40.61973667" lon="-3.78863333">
        <ele>743.0</ele>
        <time>2018-05-26T07:15:45.153Z</time>
      </trkpt>
      <trkpt lat="40.61977167" lon="-3.78857667">
        <ele>743.0</ele>
        <time>2018-05-26T07:15:46.136Z</time>
      </trkpt>
      <trkpt lat="40.61977167" lon="-3.78857667">
        <ele>743.0</ele>
        <time>2018-05-26T07:15:47.153Z</time>
      </trkpt>
      <trkpt lat="40.619805" lon="-3.78851667">
        <ele>744.0</ele>
        <time>2018-05-26T07:15:48.137Z</time>
      </trkpt>
      <trkpt lat="40.619805" lon="-3.78851667">
        <ele>744.0</ele>
        <time>2018-05-26T07:15:49.145Z</time>
      </trkpt>
      <trkpt lat="40.61984167" lon="-3.78846">
        <ele>744.0</ele>
        <time>2018-05-26T07:15:50.138Z</time>
      </trkpt>
      <trkpt lat="40.61984167" lon="-3.78846">
        <ele>744.0</ele>
        <time>2018-05-26T07:15:51.145Z</time>
      </trkpt>
      <trkpt lat="40.61988167" lon="-3.78840667">
        <ele>745.0</ele>
        <time>2018-05-26T07:15:52.163Z</time>
      </trkpt>
      <trkpt lat="40.61988167" lon="-3.78840667">
        <ele>745.0</ele>
        <time>2018-05-26T07:15:53.170Z</time>
      </trkpt>
      <trkpt lat="40.619915" lon="-3.78835167">
        <ele>745.0</ele>
        <time>2018-05-26T07:15:54.150Z</time>
      </trkpt>
      <trkpt lat="40.619915" lon="-3.78835167">
        <ele>745.0</ele>
        <time>2018-05-26T07:15:55.159Z</time>
      </trkpt>
      <trkpt lat="40.61993833" lon="-3.7883">
        <ele>746.0</ele>
        <time>2018-05-26T07:15:56.143Z</time>
      </trkpt>
      <trkpt lat="40.61993833" lon="-3.7883">
        <ele>746.0</ele>
        <time>2018-05-26T07:15:57.149Z</time>
      </trkpt>
      <trkpt lat="40.619955" lon="-3.78824">
        <ele>746.0</ele>
        <time>2018-05-26T07:15:58.170Z</time>
      </trkpt>
      <trkpt lat="40.619955" lon="-3.78824">
        <ele>746.0</ele>
        <time>2018-05-26T07:15:59.137Z</time>
      </trkpt>
      <trkpt lat="40.61996" lon="-3.78817833">
        <ele>747.0</ele>
        <time>2018-05-26T07:16:00.137Z</time>
      </trkpt>
      <trkpt lat="40.61996333" lon="-3.78814333">
        <ele>747.0</ele>
        <time>2018-05-26T07:16:01.167Z</time>
      </trkpt>
      <trkpt lat="40.61997167" lon="-3.78810833">
        <ele>748.0</ele>
        <time>2018-05-26T07:16:02.151Z</time>
      </trkpt>
      <trkpt lat="40.61997167" lon="-3.78810833">
        <ele>748.0</ele>
        <time>2018-05-26T07:16:03.160Z</time>
      </trkpt>
      <trkpt lat="40.61999833" lon="-3.78805">
        <ele>748.0</ele>
        <time>2018-05-26T07:16:04.151Z</time>
      </trkpt>
      <trkpt lat="40.62001333" lon="-3.78803167">
        <ele>748.0</ele>
        <time>2018-05-26T07:16:05.170Z</time>
      </trkpt>
      <trkpt lat="40.62003667" lon="-3.78801833">
        <ele>748.0</ele>
        <time>2018-05-26T07:16:06.154Z</time>
      </trkpt>
      <trkpt lat="40.62003667" lon="-3.78801833">
        <ele>748.0</ele>
        <time>2018-05-26T07:16:07.139Z</time>
      </trkpt>
      <trkpt lat="40.62008667" lon="-3.78800833">
        <ele>749.0</ele>
        <time>2018-05-26T07:16:08.161Z</time>
      </trkpt>
      <trkpt lat="40.62008667" lon="-3.78800833">
        <ele>749.0</ele>
        <time>2018-05-26T07:16:09.168Z</time>
      </trkpt>
      <trkpt lat="40.620135" lon="-3.78802833">
        <ele>750.0</ele>
        <time>2018-05-26T07:16:10.154Z</time>
      </trkpt>
      <trkpt lat="40.620155" lon="-3.788045">
        <ele>750.0</ele>
        <time>2018-05-26T07:16:11.142Z</time>
      </trkpt>
      <trkpt lat="40.620155" lon="-3.788045">
        <ele>750.0</ele>
        <time>2018-05-26T07:16:12.148Z</time>
      </trkpt>
      <trkpt lat="40.62019167" lon="-3.78808167">
        <ele>751.0</ele>
        <time>2018-05-26T07:16:13.168Z</time>
      </trkpt>
      <trkpt lat="40.62019167" lon="-3.78808167">
        <ele>751.0</ele>
        <time>2018-05-26T07:16:14.175Z</time>
      </trkpt>
      <trkpt lat="40.62023333" lon="-3.78811667">
        <ele>751.0</ele>
        <time>2018-05-26T07:16:15.153Z</time>
      </trkpt>
      <trkpt lat="40.62025667" lon="-3.78813167">
        <ele>751.0</ele>
        <time>2018-05-26T07:16:16.174Z</time>
      </trkpt>
      <trkpt lat="40.62025667" lon="-3.78813167">
        <ele>751.0</ele>
        <time>2018-05-26T07:16:17.141Z</time>
      </trkpt>
      <trkpt lat="40.62031167" lon="-3.78815">
        <ele>752.0</ele>
        <time>2018-05-26T07:16:18.160Z</time>
      </trkpt>
      <trkpt lat="40.62031167" lon="-3.78815">
        <ele>752.0</ele>
        <time>2018-05-26T07:16:19.166Z</time>
      </trkpt>
      <trkpt lat="40.62037" lon="-3.78815167">
        <ele>752.0</ele>
        <time>2018-05-26T07:16:20.156Z</time>
      </trkpt>
      <trkpt lat="40.62037" lon="-3.78815167">
        <ele>752.0</ele>
        <time>2018-05-26T07:16:21.162Z</time>
      </trkpt>
      <trkpt lat="40.62043333" lon="-3.78814167">
        <ele>752.0</ele>
        <time>2018-05-26T07:16:22.168Z</time>
      </trkpt>
      <trkpt lat="40.62043333" lon="-3.78814167">
        <ele>752.0</ele>
        <time>2018-05-26T07:16:23.174Z</time>
      </trkpt>
      <trkpt lat="40.62049833" lon="-3.788125">
        <ele>752.0</ele>
        <time>2018-05-26T07:16:24.161Z</time>
      </trkpt>
      <trkpt lat="40.62049833" lon="-3.788125">
        <ele>752.0</ele>
        <time>2018-05-26T07:16:25.168Z</time>
      </trkpt>
      <trkpt lat="40.62057" lon="-3.78811">
        <ele>752.0</ele>
        <time>2018-05-26T07:16:26.157Z</time>
      </trkpt>
      <trkpt lat="40.62057" lon="-3.78811">
        <ele>752.0</ele>
        <time>2018-05-26T07:16:27.155Z</time>
      </trkpt>
      <trkpt lat="40.62064167" lon="-3.788085">
        <ele>753.0</ele>
        <time>2018-05-26T07:16:28.163Z</time>
      </trkpt>
      <trkpt lat="40.62064167" lon="-3.788085">
        <ele>753.0</ele>
        <time>2018-05-26T07:16:29.169Z</time>
      </trkpt>
      <trkpt lat="40.62070833" lon="-3.78806167">
        <ele>753.0</ele>
        <time>2018-05-26T07:16:30.148Z</time>
      </trkpt>
      <trkpt lat="40.62070833" lon="-3.78806167">
        <ele>753.0</ele>
        <time>2018-05-26T07:16:31.159Z</time>
      </trkpt>
      <trkpt lat="40.62077167" lon="-3.78804">
        <ele>753.0</ele>
        <time>2018-05-26T07:16:32.145Z</time>
      </trkpt>
      <trkpt lat="40.6208" lon="-3.78802667">
        <ele>754.0</ele>
        <time>2018-05-26T07:16:33.170Z</time>
      </trkpt>
      <trkpt lat="40.6208" lon="-3.78802667">
        <ele>754.0</ele>
        <time>2018-05-26T07:16:34.137Z</time>
      </trkpt>
      <trkpt lat="40.62085833" lon="-3.788005">
        <ele>754.0</ele>
        <time>2018-05-26T07:16:35.156Z</time>
      </trkpt>
      <trkpt lat="40.62089" lon="-3.78799333">
        <ele>754.0</ele>
        <time>2018-05-26T07:16:36.174Z</time>
      </trkpt>
      <trkpt lat="40.62089" lon="-3.78799333">
        <ele>754.0</ele>
        <time>2018-05-26T07:16:37.141Z</time>
      </trkpt>
      <trkpt lat="40.620955" lon="-3.78796667">
        <ele>755.0</ele>
        <time>2018-05-26T07:16:38.161Z</time>
      </trkpt>
      <trkpt lat="40.620955" lon="-3.78796667">
        <ele>755.0</ele>
        <time>2018-05-26T07:16:39.168Z</time>
      </trkpt>
      <trkpt lat="40.62102" lon="-3.78794167">
        <ele>756.0</ele>
        <time>2018-05-26T07:16:40.152Z</time>
      </trkpt>
      <trkpt lat="40.62105167" lon="-3.78792833">
        <ele>756.0</ele>
        <time>2018-05-26T07:16:41.145Z</time>
      </trkpt>
      <trkpt lat="40.62105167" lon="-3.78792833">
        <ele>756.0</ele>
        <time>2018-05-26T07:16:42.153Z</time>
      </trkpt>
      <trkpt lat="40.62111667" lon="-3.78790667">
        <ele>756.0</ele>
        <time>2018-05-26T07:16:43.140Z</time>
      </trkpt>
      <trkpt lat="40.62111667" lon="-3.78790667">
        <ele>756.0</ele>
        <time>2018-05-26T07:16:44.147Z</time>
      </trkpt>
      <trkpt lat="40.62117833" lon="-3.78788667">
        <ele>757.0</ele>
        <time>2018-05-26T07:16:45.170Z</time>
      </trkpt>
      <trkpt lat="40.62117833" lon="-3.78788667">
        <ele>757.0</ele>
        <time>2018-05-26T07:16:46.137Z</time>
      </trkpt>
      <trkpt lat="40.62124167" lon="-3.78786167">
        <ele>757.0</ele>
        <time>2018-05-26T07:16:47.154Z</time>
      </trkpt>
      <trkpt lat="40.62127333" lon="-3.78784667">
        <ele>757.0</ele>
        <time>2018-05-26T07:16:48.139Z</time>
      </trkpt>
      <trkpt lat="40.62127333" lon="-3.78784667">
        <ele>757.0</ele>
        <time>2018-05-26T07:16:49.150Z</time>
      </trkpt>
      <trkpt lat="40.62134167" lon="-3.78781667">
        <ele>757.0</ele>
        <time>2018-05-26T07:16:50.160Z</time>
      </trkpt>
      <trkpt lat="40.62134167" lon="-3.78781667">
        <ele>757.0</ele>
        <time>2018-05-26T07:16:51.168Z</time>
      </trkpt>
      <trkpt lat="40.62141333" lon="-3.78777667">
        <ele>758.0</ele>
        <time>2018-05-26T07:16:52.148Z</time>
      </trkpt>
      <trkpt lat="40.62141333" lon="-3.78777667">
        <ele>758.0</ele>
        <time>2018-05-26T07:16:53.158Z</time>
      </trkpt>
      <trkpt lat="40.62147333" lon="-3.787725">
        <ele>758.0</ele>
        <time>2018-05-26T07:16:54.151Z</time>
      </trkpt>
      <trkpt lat="40.62147333" lon="-3.787725">
        <ele>758.0</ele>
        <time>2018-05-26T07:16:55.158Z</time>
      </trkpt>
      <trkpt lat="40.62152833" lon="-3.78768">
        <ele>758.0</ele>
        <time>2018-05-26T07:16:56.158Z</time>
      </trkpt>
      <trkpt lat="40.62152833" lon="-3.78768">
        <ele>758.0</ele>
        <time>2018-05-26T07:16:57.142Z</time>
      </trkpt>
      <trkpt lat="40.62158667" lon="-3.78763">
        <ele>759.0</ele>
        <time>2018-05-26T07:16:58.141Z</time>
      </trkpt>
      <trkpt lat="40.62158667" lon="-3.78763">
        <ele>759.0</ele>
        <time>2018-05-26T07:16:59.147Z</time>
      </trkpt>
      <trkpt lat="40.62164333" lon="-3.78758667">
        <ele>759.0</ele>
        <time>2018-05-26T07:17:00.143Z</time>
      </trkpt>
      <trkpt lat="40.62167333" lon="-3.78756333">
        <ele>759.0</ele>
        <time>2018-05-26T07:17:01.173Z</time>
      </trkpt>
      <trkpt lat="40.62167333" lon="-3.78756333">
        <ele>759.0</ele>
        <time>2018-05-26T07:17:02.140Z</time>
      </trkpt>
      <trkpt lat="40.62173333" lon="-3.78751167">
        <ele>759.0</ele>
        <time>2018-05-26T07:17:03.166Z</time>
      </trkpt>
      <trkpt lat="40.62173333" lon="-3.78751167">
        <ele>759.0</ele>
        <time>2018-05-26T07:17:04.173Z</time>
      </trkpt>
      <trkpt lat="40.62179667" lon="-3.787455">
        <ele>759.0</ele>
        <time>2018-05-26T07:17:05.168Z</time>
      </trkpt>
      <trkpt lat="40.62183" lon="-3.787425">
        <ele>759.0</ele>
        <time>2018-05-26T07:17:06.158Z</time>
      </trkpt>
      <trkpt lat="40.62183" lon="-3.787425">
        <ele>759.0</ele>
        <time>2018-05-26T07:17:07.165Z</time>
      </trkpt>
      <trkpt lat="40.62189833" lon="-3.78736333">
        <ele>760.0</ele>
        <time>2018-05-26T07:17:08.154Z</time>
      </trkpt>
      <trkpt lat="40.62189833" lon="-3.78736333">
        <ele>760.0</ele>
        <time>2018-05-26T07:17:09.160Z</time>
      </trkpt>
      <trkpt lat="40.62196667" lon="-3.78730167">
        <ele>760.0</ele>
        <time>2018-05-26T07:17:10.144Z</time>
      </trkpt>
      <trkpt lat="40.62199833" lon="-3.78726833">
        <ele>760.0</ele>
        <time>2018-05-26T07:17:11.141Z</time>
      </trkpt>
      <trkpt lat="40.62199833" lon="-3.78726833">
        <ele>760.0</ele>
        <time>2018-05-26T07:17:12.148Z</time>
      </trkpt>
      <trkpt lat="40.62206167" lon="-3.7872">
        <ele>760.0</ele>
        <time>2018-05-26T07:17:13.136Z</time>
      </trkpt>
      <trkpt lat="40.62209167" lon="-3.78716667">
        <ele>760.0</ele>
        <time>2018-05-26T07:17:14.158Z</time>
      </trkpt>
      <trkpt lat="40.62209167" lon="-3.78716667">
        <ele>760.0</ele>
        <time>2018-05-26T07:17:15.164Z</time>
      </trkpt>
      <trkpt lat="40.62215667" lon="-3.78710833">
        <ele>761.0</ele>
        <time>2018-05-26T07:17:16.142Z</time>
      </trkpt>
      <trkpt lat="40.62215667" lon="-3.78710833">
        <ele>761.0</ele>
        <time>2018-05-26T07:17:17.148Z</time>
      </trkpt>
      <trkpt lat="40.62222333" lon="-3.78706833">
        <ele>761.0</ele>
        <time>2018-05-26T07:17:18.172Z</time>
      </trkpt>
      <trkpt lat="40.62222333" lon="-3.78706833">
        <ele>761.0</ele>
        <time>2018-05-26T07:17:19.139Z</time>
      </trkpt>
      <trkpt lat="40.6223" lon="-3.78704667">
        <ele>761.0</ele>
        <time>2018-05-26T07:17:20.162Z</time>
      </trkpt>
      <trkpt lat="40.6223" lon="-3.78704667">
        <ele>761.0</ele>
        <time>2018-05-26T07:17:21.169Z</time>
      </trkpt>
      <trkpt lat="40.62238167" lon="-3.78705667">
        <ele>762.0</ele>
        <time>2018-05-26T07:17:22.150Z</time>
      </trkpt>
      <trkpt lat="40.62242" lon="-3.78707833">
        <ele>762.0</ele>
        <time>2018-05-26T07:17:23.175Z</time>
      </trkpt>
      <trkpt lat="40.622455" lon="-3.78711167">
        <ele>762.0</ele>
        <time>2018-05-26T07:17:24.151Z</time>
      </trkpt>
      <trkpt lat="40.622455" lon="-3.78711167">
        <ele>762.0</ele>
        <time>2018-05-26T07:17:25.159Z</time>
      </trkpt>
      <trkpt lat="40.62251333" lon="-3.787195">
        <ele>762.0</ele>
        <time>2018-05-26T07:17:26.140Z</time>
      </trkpt>
      <trkpt lat="40.62251333" lon="-3.787195">
        <ele>762.0</ele>
        <time>2018-05-26T07:17:27.147Z</time>
      </trkpt>
      <trkpt lat="40.62257333" lon="-3.78727">
        <ele>763.0</ele>
        <time>2018-05-26T07:17:28.137Z</time>
      </trkpt>
      <trkpt lat="40.62260667" lon="-3.78729333">
        <ele>763.0</ele>
        <time>2018-05-26T07:17:29.172Z</time>
      </trkpt>
      <trkpt lat="40.62264167" lon="-3.78731">
        <ele>763.0</ele>
        <time>2018-05-26T07:17:30.159Z</time>
      </trkpt>
      <trkpt lat="40.62264167" lon="-3.78731">
        <ele>763.0</ele>
        <time>2018-05-26T07:17:31.166Z</time>
      </trkpt>
      <trkpt lat="40.62270333" lon="-3.78732667">
        <ele>763.0</ele>
        <time>2018-05-26T07:17:32.156Z</time>
      </trkpt>
      <trkpt lat="40.62270333" lon="-3.78732667">
        <ele>763.0</ele>
        <time>2018-05-26T07:17:33.172Z</time>
      </trkpt>
      <trkpt lat="40.62276667" lon="-3.78733833">
        <ele>764.0</ele>
        <time>2018-05-26T07:17:34.151Z</time>
      </trkpt>
      <trkpt lat="40.62276667" lon="-3.78733833">
        <ele>764.0</ele>
        <time>2018-05-26T07:17:35.159Z</time>
      </trkpt>
      <trkpt lat="40.62283" lon="-3.78734333">
        <ele>764.0</ele>
        <time>2018-05-26T07:17:36.147Z</time>
      </trkpt>
      <trkpt lat="40.62283" lon="-3.78734333">
        <ele>764.0</ele>
        <time>2018-05-26T07:17:37.158Z</time>
      </trkpt>
      <trkpt lat="40.62289333" lon="-3.78734833">
        <ele>765.0</ele>
        <time>2018-05-26T07:17:38.140Z</time>
      </trkpt>
      <trkpt lat="40.62289333" lon="-3.78734833">
        <ele>765.0</ele>
        <time>2018-05-26T07:17:39.146Z</time>
      </trkpt>
      <trkpt lat="40.62295167" lon="-3.78735333">
        <ele>765.0</ele>
        <time>2018-05-26T07:17:40.173Z</time>
      </trkpt>
      <trkpt lat="40.62295167" lon="-3.78735333">
        <ele>765.0</ele>
        <time>2018-05-26T07:17:41.138Z</time>
      </trkpt>
      <trkpt lat="40.62300667" lon="-3.78736167">
        <ele>765.0</ele>
        <time>2018-05-26T07:17:42.159Z</time>
      </trkpt>
      <trkpt lat="40.62300667" lon="-3.78736167">
        <ele>765.0</ele>
        <time>2018-05-26T07:17:43.166Z</time>
      </trkpt>
      <trkpt lat="40.62306167" lon="-3.787365">
        <ele>765.0</ele>
        <time>2018-05-26T07:17:44.149Z</time>
      </trkpt>
      <trkpt lat="40.62306167" lon="-3.787365">
        <ele>765.0</ele>
        <time>2018-05-26T07:17:45.156Z</time>
      </trkpt>
      <trkpt lat="40.62311167" lon="-3.78736333">
        <ele>766.0</ele>
        <time>2018-05-26T07:17:46.153Z</time>
      </trkpt>
      <trkpt lat="40.62311167" lon="-3.78736333">
        <ele>766.0</ele>
        <time>2018-05-26T07:17:47.159Z</time>
      </trkpt>
      <trkpt lat="40.62316" lon="-3.78736">
        <ele>766.0</ele>
        <time>2018-05-26T07:17:48.150Z</time>
      </trkpt>
      <trkpt lat="40.62316" lon="-3.78736">
        <ele>766.0</ele>
        <time>2018-05-26T07:17:49.159Z</time>
      </trkpt>
      <trkpt lat="40.62320667" lon="-3.78735667">
        <ele>766.0</ele>
        <time>2018-05-26T07:17:50.161Z</time>
      </trkpt>
      <trkpt lat="40.62320667" lon="-3.78735667">
        <ele>766.0</ele>
        <time>2018-05-26T07:17:51.168Z</time>
      </trkpt>
      <trkpt lat="40.62325" lon="-3.787355">
        <ele>766.0</ele>
        <time>2018-05-26T07:17:52.146Z</time>
      </trkpt>
      <trkpt lat="40.62325" lon="-3.787355">
        <ele>766.0</ele>
        <time>2018-05-26T07:17:53.156Z</time>
      </trkpt>
      <trkpt lat="40.62329667" lon="-3.78734833">
        <ele>766.0</ele>
        <time>2018-05-26T07:17:54.140Z</time>
      </trkpt>
      <trkpt lat="40.62329667" lon="-3.78734833">
        <ele>766.0</ele>
        <time>2018-05-26T07:17:55.147Z</time>
      </trkpt>
      <trkpt lat="40.62334333" lon="-3.78734167">
        <ele>767.0</ele>
        <time>2018-05-26T07:17:56.174Z</time>
      </trkpt>
      <trkpt lat="40.62334333" lon="-3.78734167">
        <ele>767.0</ele>
        <time>2018-05-26T07:17:57.140Z</time>
      </trkpt>
      <trkpt lat="40.62338667" lon="-3.787335">
        <ele>768.0</ele>
        <time>2018-05-26T07:17:58.168Z</time>
      </trkpt>
      <trkpt lat="40.62340833" lon="-3.78733333">
        <ele>768.0</ele>
        <time>2018-05-26T07:17:59.151Z</time>
      </trkpt>
      <trkpt lat="40.62340833" lon="-3.78733333">
        <ele>768.0</ele>
        <time>2018-05-26T07:18:00.174Z</time>
      </trkpt>
      <trkpt lat="40.623455" lon="-3.78733">
        <ele>769.0</ele>
        <time>2018-05-26T07:18:01.149Z</time>
      </trkpt>
      <trkpt lat="40.62347667" lon="-3.78732667">
        <ele>769.0</ele>
        <time>2018-05-26T07:18:02.141Z</time>
      </trkpt>
      <trkpt lat="40.62347667" lon="-3.78732667">
        <ele>769.0</ele>
        <time>2018-05-26T07:18:03.148Z</time>
      </trkpt>
      <trkpt lat="40.62352" lon="-3.78732">
        <ele>770.0</ele>
        <time>2018-05-26T07:18:04.140Z</time>
      </trkpt>
      <trkpt lat="40.62352" lon="-3.78732">
        <ele>770.0</ele>
        <time>2018-05-26T07:18:05.149Z</time>
      </trkpt>
      <trkpt lat="40.62356667" lon="-3.78730667">
        <ele>771.0</ele>
        <time>2018-05-26T07:18:06.141Z</time>
      </trkpt>
      <trkpt lat="40.62356667" lon="-3.78730667">
        <ele>771.0</ele>
        <time>2018-05-26T07:18:07.150Z</time>
      </trkpt>
      <trkpt lat="40.623615" lon="-3.787295">
        <ele>771.0</ele>
        <time>2018-05-26T07:18:08.136Z</time>
      </trkpt>
      <trkpt lat="40.623615" lon="-3.787295">
        <ele>771.0</ele>
        <time>2018-05-26T07:18:09.143Z</time>
      </trkpt>
      <trkpt lat="40.62366167" lon="-3.78729333">
        <ele>772.0</ele>
        <time>2018-05-26T07:18:10.175Z</time>
      </trkpt>
      <trkpt lat="40.62366167" lon="-3.78729333">
        <ele>772.0</ele>
        <time>2018-05-26T07:18:11.141Z</time>
      </trkpt>
      <trkpt lat="40.62370667" lon="-3.78728667">
        <ele>772.0</ele>
        <time>2018-05-26T07:18:12.175Z</time>
      </trkpt>
      <trkpt lat="40.62370667" lon="-3.78728667">
        <ele>772.0</ele>
        <time>2018-05-26T07:18:13.141Z</time>
      </trkpt>
      <trkpt lat="40.62375333" lon="-3.78728333">
        <ele>773.0</ele>
        <time>2018-05-26T07:18:14.167Z</time>
      </trkpt>
      <trkpt lat="40.62375333" lon="-3.78728333">
        <ele>773.0</ele>
        <time>2018-05-26T07:18:15.173Z</time>
      </trkpt>
      <trkpt lat="40.62379667" lon="-3.78728167">
        <ele>773.0</ele>
        <time>2018-05-26T07:18:16.155Z</time>
      </trkpt>
      <trkpt lat="40.62381667" lon="-3.78728">
        <ele>774.0</ele>
        <time>2018-05-26T07:18:17.171Z</time>
      </trkpt>
      <trkpt lat="40.62383833" lon="-3.78728">
        <ele>774.0</ele>
        <time>2018-05-26T07:18:18.159Z</time>
      </trkpt>
      <trkpt lat="40.62383833" lon="-3.78728">
        <ele>774.0</ele>
        <time>2018-05-26T07:18:19.166Z</time>
      </trkpt>
      <trkpt lat="40.62388333" lon="-3.78728">
        <ele>774.0</ele>
        <time>2018-05-26T07:18:20.155Z</time>
      </trkpt>
      <trkpt lat="40.62388333" lon="-3.78728">
        <ele>774.0</ele>
        <time>2018-05-26T07:18:21.172Z</time>
      </trkpt>
      <trkpt lat="40.62392667" lon="-3.78727667">
        <ele>775.0</ele>
        <time>2018-05-26T07:18:22.162Z</time>
      </trkpt>
      <trkpt lat="40.62394667" lon="-3.78727833">
        <ele>775.0</ele>
        <time>2018-05-26T07:18:23.149Z</time>
      </trkpt>
      <trkpt lat="40.62396667" lon="-3.78727833">
        <ele>776.0</ele>
        <time>2018-05-26T07:18:24.174Z</time>
      </trkpt>
      <trkpt lat="40.62396667" lon="-3.78727833">
        <ele>776.0</ele>
        <time>2018-05-26T07:18:25.140Z</time>
      </trkpt>
      <trkpt lat="40.62400333" lon="-3.78728">
        <ele>776.0</ele>
        <time>2018-05-26T07:18:26.139Z</time>
      </trkpt>
      <trkpt lat="40.62400333" lon="-3.78728">
        <ele>776.0</ele>
        <time>2018-05-26T07:18:27.146Z</time>
      </trkpt>
      <trkpt lat="40.62404" lon="-3.78729">
        <ele>777.0</ele>
        <time>2018-05-26T07:18:28.146Z</time>
      </trkpt>
      <trkpt lat="40.62404" lon="-3.78729">
        <ele>777.0</ele>
        <time>2018-05-26T07:18:29.159Z</time>
      </trkpt>
      <trkpt lat="40.62408" lon="-3.78730167">
        <ele>777.0</ele>
        <time>2018-05-26T07:18:30.160Z</time>
      </trkpt>
      <trkpt lat="40.62408" lon="-3.78730167">
        <ele>777.0</ele>
        <time>2018-05-26T07:18:31.166Z</time>
      </trkpt>
      <trkpt lat="40.62412167" lon="-3.78730167">
        <ele>777.0</ele>
        <time>2018-05-26T07:18:32.141Z</time>
      </trkpt>
      <trkpt lat="40.62412167" lon="-3.78730167">
        <ele>777.0</ele>
        <time>2018-05-26T07:18:33.148Z</time>
      </trkpt>
      <trkpt lat="40.62416333" lon="-3.78730167">
        <ele>778.0</ele>
        <time>2018-05-26T07:18:34.165Z</time>
      </trkpt>
      <trkpt lat="40.62416333" lon="-3.78730167">
        <ele>778.0</ele>
        <time>2018-05-26T07:18:35.172Z</time>
      </trkpt>
      <trkpt lat="40.624205" lon="-3.78730167">
        <ele>778.0</ele>
        <time>2018-05-26T07:18:36.164Z</time>
      </trkpt>
      <trkpt lat="40.624205" lon="-3.78730167">
        <ele>778.0</ele>
        <time>2018-05-26T07:18:37.171Z</time>
      </trkpt>
      <trkpt lat="40.62424667" lon="-3.78729833">
        <ele>779.0</ele>
        <time>2018-05-26T07:18:38.144Z</time>
      </trkpt>
      <trkpt lat="40.62426667" lon="-3.78729333">
        <ele>779.0</ele>
        <time>2018-05-26T07:18:39.167Z</time>
      </trkpt>
      <trkpt lat="40.62426667" lon="-3.78729333">
        <ele>779.0</ele>
        <time>2018-05-26T07:18:40.173Z</time>
      </trkpt>
      <trkpt lat="40.62430667" lon="-3.787285">
        <ele>779.0</ele>
        <time>2018-05-26T07:18:41.151Z</time>
      </trkpt>
      <trkpt lat="40.62432667" lon="-3.78727333">
        <ele>779.0</ele>
        <time>2018-05-26T07:18:42.136Z</time>
      </trkpt>
      <trkpt lat="40.62432667" lon="-3.78727333">
        <ele>779.0</ele>
        <time>2018-05-26T07:18:43.142Z</time>
      </trkpt>
      <trkpt lat="40.624365" lon="-3.78725833">
        <ele>779.0</ele>
        <time>2018-05-26T07:18:44.167Z</time>
      </trkpt>
      <trkpt lat="40.624365" lon="-3.78725833">
        <ele>779.0</ele>
        <time>2018-05-26T07:18:45.173Z</time>
      </trkpt>
      <trkpt lat="40.62441167" lon="-3.78724333">
        <ele>780.0</ele>
        <time>2018-05-26T07:18:46.154Z</time>
      </trkpt>
      <trkpt lat="40.62441167" lon="-3.78724333">
        <ele>780.0</ele>
        <time>2018-05-26T07:18:47.161Z</time>
      </trkpt>
      <trkpt lat="40.62445333" lon="-3.78722833">
        <ele>780.0</ele>
        <time>2018-05-26T07:18:48.146Z</time>
      </trkpt>
      <trkpt lat="40.62447333" lon="-3.78721833">
        <ele>780.0</ele>
        <time>2018-05-26T07:18:49.172Z</time>
      </trkpt>
      <trkpt lat="40.62447333" lon="-3.78721833">
        <ele>780.0</ele>
        <time>2018-05-26T07:18:50.138Z</time>
      </trkpt>
      <trkpt lat="40.62451333" lon="-3.78719667">
        <ele>780.0</ele>
        <time>2018-05-26T07:18:51.153Z</time>
      </trkpt>
      <trkpt lat="40.62451333" lon="-3.78719667">
        <ele>780.0</ele>
        <time>2018-05-26T07:18:52.159Z</time>
      </trkpt>
      <trkpt lat="40.624555" lon="-3.78717667">
        <ele>781.0</ele>
        <time>2018-05-26T07:18:53.137Z</time>
      </trkpt>
      <trkpt lat="40.624555" lon="-3.78717667">
        <ele>781.0</ele>
        <time>2018-05-26T07:18:54.143Z</time>
      </trkpt>
      <trkpt lat="40.62459667" lon="-3.78716167">
        <ele>781.0</ele>
        <time>2018-05-26T07:18:55.162Z</time>
      </trkpt>
      <trkpt lat="40.62461833" lon="-3.787155">
        <ele>781.0</ele>
        <time>2018-05-26T07:18:56.142Z</time>
      </trkpt>
      <trkpt lat="40.62461833" lon="-3.787155">
        <ele>781.0</ele>
        <time>2018-05-26T07:18:57.147Z</time>
      </trkpt>
      <trkpt lat="40.62466167" lon="-3.787145">
        <ele>782.0</ele>
        <time>2018-05-26T07:18:58.136Z</time>
      </trkpt>
      <trkpt lat="40.62468167" lon="-3.78713833">
        <ele>783.0</ele>
        <time>2018-05-26T07:18:59.155Z</time>
      </trkpt>
      <trkpt lat="40.62468167" lon="-3.78713833">
        <ele>783.0</ele>
        <time>2018-05-26T07:19:00.136Z</time>
      </trkpt>
      <trkpt lat="40.62472167" lon="-3.787115">
        <ele>784.0</ele>
        <time>2018-05-26T07:19:01.170Z</time>
      </trkpt>
      <trkpt lat="40.62474" lon="-3.78710667">
        <ele>784.0</ele>
        <time>2018-05-26T07:19:02.156Z</time>
      </trkpt>
      <trkpt lat="40.62474" lon="-3.78710667">
        <ele>784.0</ele>
        <time>2018-05-26T07:19:03.162Z</time>
      </trkpt>
      <trkpt lat="40.62478167" lon="-3.787095">
        <ele>784.0</ele>
        <time>2018-05-26T07:19:04.169Z</time>
      </trkpt>
      <trkpt lat="40.62480167" lon="-3.78709">
        <ele>785.0</ele>
        <time>2018-05-26T07:19:05.156Z</time>
      </trkpt>
      <trkpt lat="40.624825" lon="-3.78708333">
        <ele>785.0</ele>
        <time>2018-05-26T07:19:06.143Z</time>
      </trkpt>
      <trkpt lat="40.624825" lon="-3.78708333">
        <ele>785.0</ele>
        <time>2018-05-26T07:19:07.150Z</time>
      </trkpt>
      <trkpt lat="40.62486667" lon="-3.78707">
        <ele>786.0</ele>
        <time>2018-05-26T07:19:08.171Z</time>
      </trkpt>
      <trkpt lat="40.62486667" lon="-3.78707">
        <ele>786.0</ele>
        <time>2018-05-26T07:19:09.137Z</time>
      </trkpt>
      <trkpt lat="40.624905" lon="-3.78705667">
        <ele>787.0</ele>
        <time>2018-05-26T07:19:10.168Z</time>
      </trkpt>
      <trkpt lat="40.624905" lon="-3.78705667">
        <ele>787.0</ele>
        <time>2018-05-26T07:19:11.175Z</time>
      </trkpt>
      <trkpt lat="40.62494833" lon="-3.78704">
        <ele>787.0</ele>
        <time>2018-05-26T07:19:12.157Z</time>
      </trkpt>
      <trkpt lat="40.62497167" lon="-3.78703">
        <ele>787.0</ele>
        <time>2018-05-26T07:19:13.141Z</time>
      </trkpt>
      <trkpt lat="40.62497167" lon="-3.78703">
        <ele>787.0</ele>
        <time>2018-05-26T07:19:14.147Z</time>
      </trkpt>
      <trkpt lat="40.625015" lon="-3.78701">
        <ele>788.0</ele>
        <time>2018-05-26T07:19:15.159Z</time>
      </trkpt>
      <trkpt lat="40.625015" lon="-3.78701">
        <ele>788.0</ele>
        <time>2018-05-26T07:19:16.166Z</time>
      </trkpt>
      <trkpt lat="40.62506167" lon="-3.78699167">
        <ele>789.0</ele>
        <time>2018-05-26T07:19:17.144Z</time>
      </trkpt>
      <trkpt lat="40.62508667" lon="-3.78698">
        <ele>789.0</ele>
        <time>2018-05-26T07:19:18.165Z</time>
      </trkpt>
      <trkpt lat="40.62508667" lon="-3.78698">
        <ele>789.0</ele>
        <time>2018-05-26T07:19:19.172Z</time>
      </trkpt>
      <trkpt lat="40.62513667" lon="-3.78695667">
        <ele>790.0</ele>
        <time>2018-05-26T07:19:20.175Z</time>
      </trkpt>
      <trkpt lat="40.62516167" lon="-3.786945">
        <ele>790.0</ele>
        <time>2018-05-26T07:19:21.175Z</time>
      </trkpt>
      <trkpt lat="40.62516167" lon="-3.786945">
        <ele>790.0</ele>
        <time>2018-05-26T07:19:22.141Z</time>
      </trkpt>
      <trkpt lat="40.62521667" lon="-3.78691833">
        <ele>790.0</ele>
        <time>2018-05-26T07:19:23.163Z</time>
      </trkpt>
      <trkpt lat="40.625245" lon="-3.78690333">
        <ele>790.0</ele>
        <time>2018-05-26T07:19:24.152Z</time>
      </trkpt>
      <trkpt lat="40.625245" lon="-3.78690333">
        <ele>790.0</ele>
        <time>2018-05-26T07:19:25.159Z</time>
      </trkpt>
      <trkpt lat="40.6253" lon="-3.78687333">
        <ele>790.0</ele>
        <time>2018-05-26T07:19:26.163Z</time>
      </trkpt>
      <trkpt lat="40.6253" lon="-3.78687333">
        <ele>790.0</ele>
        <time>2018-05-26T07:19:27.170Z</time>
      </trkpt>
      <trkpt lat="40.62535833" lon="-3.786835">
        <ele>790.0</ele>
        <time>2018-05-26T07:19:28.151Z</time>
      </trkpt>
      <trkpt lat="40.62535833" lon="-3.786835">
        <ele>790.0</ele>
        <time>2018-05-26T07:19:29.158Z</time>
      </trkpt>
      <trkpt lat="40.62542" lon="-3.78679667">
        <ele>790.0</ele>
        <time>2018-05-26T07:19:30.146Z</time>
      </trkpt>
      <trkpt lat="40.62542" lon="-3.78679667">
        <ele>790.0</ele>
        <time>2018-05-26T07:19:31.172Z</time>
      </trkpt>
      <trkpt lat="40.62548333" lon="-3.78676167">
        <ele>790.0</ele>
        <time>2018-05-26T07:19:32.156Z</time>
      </trkpt>
      <trkpt lat="40.62548333" lon="-3.78676167">
        <ele>790.0</ele>
        <time>2018-05-26T07:19:33.162Z</time>
      </trkpt>
      <trkpt lat="40.62555" lon="-3.78672167">
        <ele>791.0</ele>
        <time>2018-05-26T07:19:34.140Z</time>
      </trkpt>
      <trkpt lat="40.625585" lon="-3.786705">
        <ele>791.0</ele>
        <time>2018-05-26T07:19:35.158Z</time>
      </trkpt>
      <trkpt lat="40.62561833" lon="-3.78668667">
        <ele>791.0</ele>
        <time>2018-05-26T07:19:36.140Z</time>
      </trkpt>
      <trkpt lat="40.62561833" lon="-3.78668667">
        <ele>791.0</ele>
        <time>2018-05-26T07:19:37.146Z</time>
      </trkpt>
      <trkpt lat="40.62568833" lon="-3.78665167">
        <ele>791.0</ele>
        <time>2018-05-26T07:19:38.149Z</time>
      </trkpt>
      <trkpt lat="40.62568833" lon="-3.78665167">
        <ele>791.0</ele>
        <time>2018-05-26T07:19:39.155Z</time>
      </trkpt>
      <trkpt lat="40.62575667" lon="-3.78662">
        <ele>791.0</ele>
        <time>2018-05-26T07:19:40.136Z</time>
      </trkpt>
      <trkpt lat="40.62575667" lon="-3.78662">
        <ele>791.0</ele>
        <time>2018-05-26T07:19:41.141Z</time>
      </trkpt>
      <trkpt lat="40.62582667" lon="-3.78658833">
        <ele>791.0</ele>
        <time>2018-05-26T07:19:42.157Z</time>
      </trkpt>
      <trkpt lat="40.62582667" lon="-3.78658833">
        <ele>791.0</ele>
        <time>2018-05-26T07:19:43.164Z</time>
      </trkpt>
      <trkpt lat="40.62590667" lon="-3.786545">
        <ele>791.0</ele>
        <time>2018-05-26T07:19:44.155Z</time>
      </trkpt>
      <trkpt lat="40.62594833" lon="-3.78652167">
        <ele>791.0</ele>
        <time>2018-05-26T07:19:45.146Z</time>
      </trkpt>
      <trkpt lat="40.62594833" lon="-3.78652167">
        <ele>791.0</ele>
        <time>2018-05-26T07:19:46.153Z</time>
      </trkpt>
      <trkpt lat="40.62602833" lon="-3.78647667">
        <ele>792.0</ele>
        <time>2018-05-26T07:19:47.137Z</time>
      </trkpt>
      <trkpt lat="40.62606833" lon="-3.78645667">
        <ele>792.0</ele>
        <time>2018-05-26T07:19:48.168Z</time>
      </trkpt>
      <trkpt lat="40.62606833" lon="-3.78645667">
        <ele>792.0</ele>
        <time>2018-05-26T07:19:49.175Z</time>
      </trkpt>
      <trkpt lat="40.62614667" lon="-3.78641667">
        <ele>793.0</ele>
        <time>2018-05-26T07:19:50.166Z</time>
      </trkpt>
      <trkpt lat="40.62618833" lon="-3.78639833">
        <ele>793.0</ele>
        <time>2018-05-26T07:19:51.149Z</time>
      </trkpt>
      <trkpt lat="40.62622833" lon="-3.78638333">
        <ele>794.0</ele>
        <time>2018-05-26T07:19:52.149Z</time>
      </trkpt>
      <trkpt lat="40.62622833" lon="-3.78638333">
        <ele>794.0</ele>
        <time>2018-05-26T07:19:53.158Z</time>
      </trkpt>
      <trkpt lat="40.62630667" lon="-3.78633333">
        <ele>795.0</ele>
        <time>2018-05-26T07:19:54.137Z</time>
      </trkpt>
      <trkpt lat="40.626345" lon="-3.78631">
        <ele>795.0</ele>
        <time>2018-05-26T07:19:55.157Z</time>
      </trkpt>
      <trkpt lat="40.626345" lon="-3.78631">
        <ele>795.0</ele>
        <time>2018-05-26T07:19:56.164Z</time>
      </trkpt>
      <trkpt lat="40.62642333" lon="-3.78626833">
        <ele>795.0</ele>
        <time>2018-05-26T07:19:57.156Z</time>
      </trkpt>
      <trkpt lat="40.62646167" lon="-3.78624833">
        <ele>795.0</ele>
        <time>2018-05-26T07:19:58.144Z</time>
      </trkpt>
      <trkpt lat="40.62646167" lon="-3.78624833">
        <ele>795.0</ele>
        <time>2018-05-26T07:19:59.149Z</time>
      </trkpt>
      <trkpt lat="40.626535" lon="-3.78620833">
        <ele>795.0</ele>
        <time>2018-05-26T07:20:00.157Z</time>
      </trkpt>
      <trkpt lat="40.626535" lon="-3.78620833">
        <ele>795.0</ele>
        <time>2018-05-26T07:20:01.166Z</time>
      </trkpt>
      <trkpt lat="40.62661" lon="-3.78616667">
        <ele>795.0</ele>
        <time>2018-05-26T07:20:02.161Z</time>
      </trkpt>
      <trkpt lat="40.62664833" lon="-3.786145">
        <ele>795.0</ele>
        <time>2018-05-26T07:20:03.149Z</time>
      </trkpt>
      <trkpt lat="40.62664833" lon="-3.786145">
        <ele>795.0</ele>
        <time>2018-05-26T07:20:04.160Z</time>
      </trkpt>
      <trkpt lat="40.62672333" lon="-3.786105">
        <ele>795.0</ele>
        <time>2018-05-26T07:20:05.142Z</time>
      </trkpt>
      <trkpt lat="40.62676167" lon="-3.78609">
        <ele>795.0</ele>
        <time>2018-05-26T07:20:06.163Z</time>
      </trkpt>
      <trkpt lat="40.62676167" lon="-3.78609">
        <ele>795.0</ele>
        <time>2018-05-26T07:20:07.170Z</time>
      </trkpt>
      <trkpt lat="40.62683667" lon="-3.78605667">
        <ele>795.0</ele>
        <time>2018-05-26T07:20:08.159Z</time>
      </trkpt>
      <trkpt lat="40.62683667" lon="-3.78605667">
        <ele>795.0</ele>
        <time>2018-05-26T07:20:09.144Z</time>
      </trkpt>
      <trkpt lat="40.62691167" lon="-3.786025">
        <ele>796.0</ele>
        <time>2018-05-26T07:20:10.167Z</time>
      </trkpt>
      <trkpt lat="40.62691167" lon="-3.786025">
        <ele>796.0</ele>
        <time>2018-05-26T07:20:11.174Z</time>
      </trkpt>
      <trkpt lat="40.62699167" lon="-3.78598833">
        <ele>796.0</ele>
        <time>2018-05-26T07:20:12.167Z</time>
      </trkpt>
      <trkpt lat="40.62699167" lon="-3.78598833">
        <ele>796.0</ele>
        <time>2018-05-26T07:20:13.173Z</time>
      </trkpt>
      <trkpt lat="40.62706667" lon="-3.78595167">
        <ele>796.0</ele>
        <time>2018-05-26T07:20:14.151Z</time>
      </trkpt>
      <trkpt lat="40.62706667" lon="-3.78595167">
        <ele>796.0</ele>
        <time>2018-05-26T07:20:15.157Z</time>
      </trkpt>
      <trkpt lat="40.62713833" lon="-3.78591667">
        <ele>796.0</ele>
        <time>2018-05-26T07:20:16.150Z</time>
      </trkpt>
      <trkpt lat="40.62713833" lon="-3.78591667">
        <ele>796.0</ele>
        <time>2018-05-26T07:20:17.158Z</time>
      </trkpt>
      <trkpt lat="40.62720833" lon="-3.785885">
        <ele>796.0</ele>
        <time>2018-05-26T07:20:18.154Z</time>
      </trkpt>
      <trkpt lat="40.62720833" lon="-3.785885">
        <ele>796.0</ele>
        <time>2018-05-26T07:20:19.162Z</time>
      </trkpt>
      <trkpt lat="40.62728" lon="-3.78585167">
        <ele>797.0</ele>
        <time>2018-05-26T07:20:20.156Z</time>
      </trkpt>
      <trkpt lat="40.62731667" lon="-3.78583333">
        <ele>797.0</ele>
        <time>2018-05-26T07:20:21.173Z</time>
      </trkpt>
      <trkpt lat="40.62735333" lon="-3.785815">
        <ele>797.0</ele>
        <time>2018-05-26T07:20:22.155Z</time>
      </trkpt>
      <trkpt lat="40.62735333" lon="-3.785815">
        <ele>797.0</ele>
        <time>2018-05-26T07:20:23.163Z</time>
      </trkpt>
      <trkpt lat="40.62742667" lon="-3.78578">
        <ele>798.0</ele>
        <time>2018-05-26T07:20:24.152Z</time>
      </trkpt>
      <trkpt lat="40.62742667" lon="-3.78578">
        <ele>798.0</ele>
        <time>2018-05-26T07:20:25.160Z</time>
      </trkpt>
      <trkpt lat="40.62749833" lon="-3.78574333">
        <ele>798.0</ele>
        <time>2018-05-26T07:20:26.148Z</time>
      </trkpt>
      <trkpt lat="40.62749833" lon="-3.78574333">
        <ele>798.0</ele>
        <time>2018-05-26T07:20:27.155Z</time>
      </trkpt>
      <trkpt lat="40.62756333" lon="-3.78570333">
        <ele>799.0</ele>
        <time>2018-05-26T07:20:28.139Z</time>
      </trkpt>
      <trkpt lat="40.62756333" lon="-3.78570333">
        <ele>799.0</ele>
        <time>2018-05-26T07:20:29.146Z</time>
      </trkpt>
      <trkpt lat="40.627625" lon="-3.78565667">
        <ele>799.0</ele>
        <time>2018-05-26T07:20:30.154Z</time>
      </trkpt>
      <trkpt lat="40.627625" lon="-3.78565667">
        <ele>799.0</ele>
        <time>2018-05-26T07:20:31.161Z</time>
      </trkpt>
      <trkpt lat="40.62768833" lon="-3.78560667">
        <ele>799.0</ele>
        <time>2018-05-26T07:20:32.150Z</time>
      </trkpt>
      <trkpt lat="40.62771667" lon="-3.78558167">
        <ele>799.0</ele>
        <time>2018-05-26T07:20:33.136Z</time>
      </trkpt>
      <trkpt lat="40.62771667" lon="-3.78558167">
        <ele>799.0</ele>
        <time>2018-05-26T07:20:34.143Z</time>
      </trkpt>
      <trkpt lat="40.62777667" lon="-3.78553">
        <ele>800.0</ele>
        <time>2018-05-26T07:20:35.172Z</time>
      </trkpt>
      <trkpt lat="40.62780333" lon="-3.78550333">
        <ele>800.0</ele>
        <time>2018-05-26T07:20:36.154Z</time>
      </trkpt>
      <trkpt lat="40.62780333" lon="-3.78550333">
        <ele>800.0</ele>
        <time>2018-05-26T07:20:37.160Z</time>
      </trkpt>
      <trkpt lat="40.627855" lon="-3.785455">
        <ele>801.0</ele>
        <time>2018-05-26T07:20:38.143Z</time>
      </trkpt>
      <trkpt lat="40.627855" lon="-3.785455">
        <ele>801.0</ele>
        <time>2018-05-26T07:20:39.151Z</time>
      </trkpt>
      <trkpt lat="40.62790833" lon="-3.78540667">
        <ele>801.0</ele>
        <time>2018-05-26T07:20:40.156Z</time>
      </trkpt>
      <trkpt lat="40.62790833" lon="-3.78540667">
        <ele>801.0</ele>
        <time>2018-05-26T07:20:41.143Z</time>
      </trkpt>
      <trkpt lat="40.62796" lon="-3.78535333">
        <ele>801.0</ele>
        <time>2018-05-26T07:20:42.171Z</time>
      </trkpt>
      <trkpt lat="40.62796" lon="-3.78535333">
        <ele>801.0</ele>
        <time>2018-05-26T07:20:43.136Z</time>
      </trkpt>
      <trkpt lat="40.62801333" lon="-3.78529833">
        <ele>801.0</ele>
        <time>2018-05-26T07:20:44.173Z</time>
      </trkpt>
      <trkpt lat="40.62801333" lon="-3.78529833">
        <ele>801.0</ele>
        <time>2018-05-26T07:20:45.139Z</time>
      </trkpt>
      <trkpt lat="40.62806667" lon="-3.78523833">
        <ele>801.0</ele>
        <time>2018-05-26T07:20:46.162Z</time>
      </trkpt>
      <trkpt lat="40.62806667" lon="-3.78523833">
        <ele>801.0</ele>
        <time>2018-05-26T07:20:47.139Z</time>
      </trkpt>
      <trkpt lat="40.62812667" lon="-3.785175">
        <ele>801.0</ele>
        <time>2018-05-26T07:20:48.158Z</time>
      </trkpt>
      <trkpt lat="40.62812667" lon="-3.785175">
        <ele>801.0</ele>
        <time>2018-05-26T07:20:49.166Z</time>
      </trkpt>
      <trkpt lat="40.62820333" lon="-3.78510167">
        <ele>800.0</ele>
        <time>2018-05-26T07:20:50.163Z</time>
      </trkpt>
      <trkpt lat="40.62820333" lon="-3.78510167">
        <ele>800.0</ele>
        <time>2018-05-26T07:20:51.169Z</time>
      </trkpt>
      <trkpt lat="40.62829667" lon="-3.78501333">
        <ele>799.0</ele>
        <time>2018-05-26T07:20:52.157Z</time>
      </trkpt>
      <trkpt lat="40.62829667" lon="-3.78501333">
        <ele>799.0</ele>
        <time>2018-05-26T07:20:53.163Z</time>
      </trkpt>
      <trkpt lat="40.62840833" lon="-3.78492833">
        <ele>798.0</ele>
        <time>2018-05-26T07:20:54.148Z</time>
      </trkpt>
      <trkpt lat="40.62840833" lon="-3.78492833">
        <ele>798.0</ele>
        <time>2018-05-26T07:20:55.155Z</time>
      </trkpt>
      <trkpt lat="40.62854667" lon="-3.78484167">
        <ele>796.0</ele>
        <time>2018-05-26T07:20:56.136Z</time>
      </trkpt>
      <trkpt lat="40.62854667" lon="-3.78484167">
        <ele>796.0</ele>
        <time>2018-05-26T07:20:57.141Z</time>
      </trkpt>
      <trkpt lat="40.62869167" lon="-3.78474667">
        <ele>796.0</ele>
        <time>2018-05-26T07:20:58.153Z</time>
      </trkpt>
      <trkpt lat="40.62869167" lon="-3.78474667">
        <ele>796.0</ele>
        <time>2018-05-26T07:20:59.159Z</time>
      </trkpt>
      <trkpt lat="40.62883833" lon="-3.78465667">
        <ele>796.0</ele>
        <time>2018-05-26T07:21:00.157Z</time>
      </trkpt>
      <trkpt lat="40.62891" lon="-3.784615">
        <ele>796.0</ele>
        <time>2018-05-26T07:21:01.139Z</time>
      </trkpt>
      <trkpt lat="40.62891" lon="-3.784615">
        <ele>796.0</ele>
        <time>2018-05-26T07:21:02.145Z</time>
      </trkpt>
      <trkpt lat="40.62904667" lon="-3.78452667">
        <ele>796.0</ele>
        <time>2018-05-26T07:21:03.171Z</time>
      </trkpt>
      <trkpt lat="40.62904667" lon="-3.78452667">
        <ele>796.0</ele>
        <time>2018-05-26T07:21:04.137Z</time>
      </trkpt>
      <trkpt lat="40.62917167" lon="-3.784445">
        <ele>796.0</ele>
        <time>2018-05-26T07:21:05.159Z</time>
      </trkpt>
      <trkpt lat="40.62923333" lon="-3.78440833">
        <ele>796.0</ele>
        <time>2018-05-26T07:21:06.141Z</time>
      </trkpt>
      <trkpt lat="40.62923333" lon="-3.78440833">
        <ele>796.0</ele>
        <time>2018-05-26T07:21:07.147Z</time>
      </trkpt>
      <trkpt lat="40.62935667" lon="-3.78432667">
        <ele>796.0</ele>
        <time>2018-05-26T07:21:08.174Z</time>
      </trkpt>
      <trkpt lat="40.62935667" lon="-3.78432667">
        <ele>796.0</ele>
        <time>2018-05-26T07:21:09.140Z</time>
      </trkpt>
      <trkpt lat="40.62948333" lon="-3.78424667">
        <ele>795.0</ele>
        <time>2018-05-26T07:21:10.156Z</time>
      </trkpt>
      <trkpt lat="40.62948333" lon="-3.78424667">
        <ele>795.0</ele>
        <time>2018-05-26T07:21:11.162Z</time>
      </trkpt>
      <trkpt lat="40.62961333" lon="-3.78416167">
        <ele>795.0</ele>
        <time>2018-05-26T07:21:12.144Z</time>
      </trkpt>
      <trkpt lat="40.62967833" lon="-3.784115">
        <ele>795.0</ele>
        <time>2018-05-26T07:21:13.172Z</time>
      </trkpt>
      <trkpt lat="40.62967833" lon="-3.784115">
        <ele>795.0</ele>
        <time>2018-05-26T07:21:14.138Z</time>
      </trkpt>
      <trkpt lat="40.62980667" lon="-3.78402">
        <ele>794.0</ele>
        <time>2018-05-26T07:21:15.166Z</time>
      </trkpt>
      <trkpt lat="40.62987167" lon="-3.78397167">
        <ele>794.0</ele>
        <time>2018-05-26T07:21:16.147Z</time>
      </trkpt>
      <trkpt lat="40.62987167" lon="-3.78397167">
        <ele>794.0</ele>
        <time>2018-05-26T07:21:17.156Z</time>
      </trkpt>
      <trkpt lat="40.62999667" lon="-3.78387333">
        <ele>793.0</ele>
        <time>2018-05-26T07:21:18.174Z</time>
      </trkpt>
      <trkpt lat="40.62999667" lon="-3.78387333">
        <ele>793.0</ele>
        <time>2018-05-26T07:21:19.141Z</time>
      </trkpt>
      <trkpt lat="40.63012167" lon="-3.78377333">
        <ele>793.0</ele>
        <time>2018-05-26T07:21:20.166Z</time>
      </trkpt>
      <trkpt lat="40.63012167" lon="-3.78377333">
        <ele>793.0</ele>
        <time>2018-05-26T07:21:21.173Z</time>
      </trkpt>
      <trkpt lat="40.630255" lon="-3.78366333">
        <ele>792.0</ele>
        <time>2018-05-26T07:21:22.157Z</time>
      </trkpt>
      <trkpt lat="40.630255" lon="-3.78366333">
        <ele>792.0</ele>
        <time>2018-05-26T07:21:23.163Z</time>
      </trkpt>
      <trkpt lat="40.63038167" lon="-3.78355167">
        <ele>793.0</ele>
        <time>2018-05-26T07:21:24.156Z</time>
      </trkpt>
      <trkpt lat="40.63038167" lon="-3.78355167">
        <ele>793.0</ele>
        <time>2018-05-26T07:21:25.162Z</time>
      </trkpt>
      <trkpt lat="40.63050167" lon="-3.78345167">
        <ele>793.0</ele>
        <time>2018-05-26T07:21:26.174Z</time>
      </trkpt>
      <trkpt lat="40.63050167" lon="-3.78345167">
        <ele>793.0</ele>
        <time>2018-05-26T07:21:27.140Z</time>
      </trkpt>
      <trkpt lat="40.63060833" lon="-3.78335833">
        <ele>794.0</ele>
        <time>2018-05-26T07:21:28.160Z</time>
      </trkpt>
      <trkpt lat="40.63065667" lon="-3.783315">
        <ele>794.0</ele>
        <time>2018-05-26T07:21:29.136Z</time>
      </trkpt>
      <trkpt lat="40.63070167" lon="-3.78327167">
        <ele>794.0</ele>
        <time>2018-05-26T07:21:30.162Z</time>
      </trkpt>
      <trkpt lat="40.63070167" lon="-3.78327167">
        <ele>794.0</ele>
        <time>2018-05-26T07:21:31.169Z</time>
      </trkpt>
      <trkpt lat="40.630785" lon="-3.78320333">
        <ele>795.0</ele>
        <time>2018-05-26T07:21:32.160Z</time>
      </trkpt>
      <trkpt lat="40.630785" lon="-3.78320333">
        <ele>795.0</ele>
        <time>2018-05-26T07:21:33.167Z</time>
      </trkpt>
      <trkpt lat="40.63086833" lon="-3.78312833">
        <ele>796.0</ele>
        <time>2018-05-26T07:21:34.160Z</time>
      </trkpt>
      <trkpt lat="40.63086833" lon="-3.78312833">
        <ele>796.0</ele>
        <time>2018-05-26T07:21:35.167Z</time>
      </trkpt>
      <trkpt lat="40.63095" lon="-3.78305833">
        <ele>796.0</ele>
        <time>2018-05-26T07:21:36.154Z</time>
      </trkpt>
      <trkpt lat="40.63095" lon="-3.78305833">
        <ele>796.0</ele>
        <time>2018-05-26T07:21:37.160Z</time>
      </trkpt>
      <trkpt lat="40.631025" lon="-3.78299333">
        <ele>796.0</ele>
        <time>2018-05-26T07:21:38.146Z</time>
      </trkpt>
      <trkpt lat="40.631025" lon="-3.78299333">
        <ele>796.0</ele>
        <time>2018-05-26T07:21:39.153Z</time>
      </trkpt>
      <trkpt lat="40.63109667" lon="-3.78293167">
        <ele>797.0</ele>
        <time>2018-05-26T07:21:40.139Z</time>
      </trkpt>
      <trkpt lat="40.63109667" lon="-3.78293167">
        <ele>797.0</ele>
        <time>2018-05-26T07:21:41.145Z</time>
      </trkpt>
      <trkpt lat="40.63117167" lon="-3.78286667">
        <ele>797.0</ele>
        <time>2018-05-26T07:21:42.168Z</time>
      </trkpt>
      <trkpt lat="40.63117167" lon="-3.78286667">
        <ele>797.0</ele>
        <time>2018-05-26T07:21:43.175Z</time>
      </trkpt>
      <trkpt lat="40.63124833" lon="-3.78279833">
        <ele>797.0</ele>
        <time>2018-05-26T07:21:44.163Z</time>
      </trkpt>
      <trkpt lat="40.63124833" lon="-3.78279833">
        <ele>797.0</ele>
        <time>2018-05-26T07:21:45.170Z</time>
      </trkpt>
      <trkpt lat="40.63132667" lon="-3.782725">
        <ele>797.0</ele>
        <time>2018-05-26T07:21:46.148Z</time>
      </trkpt>
      <trkpt lat="40.63132667" lon="-3.782725">
        <ele>797.0</ele>
        <time>2018-05-26T07:21:47.157Z</time>
      </trkpt>
      <trkpt lat="40.631405" lon="-3.78265">
        <ele>798.0</ele>
        <time>2018-05-26T07:21:48.152Z</time>
      </trkpt>
      <trkpt lat="40.631405" lon="-3.78265">
        <ele>798.0</ele>
        <time>2018-05-26T07:21:49.160Z</time>
      </trkpt>
      <trkpt lat="40.63148" lon="-3.782575">
        <ele>798.0</ele>
        <time>2018-05-26T07:21:50.151Z</time>
      </trkpt>
      <trkpt lat="40.63148" lon="-3.782575">
        <ele>798.0</ele>
        <time>2018-05-26T07:21:51.159Z</time>
      </trkpt>
      <trkpt lat="40.631555" lon="-3.78249167">
        <ele>798.0</ele>
        <time>2018-05-26T07:21:52.168Z</time>
      </trkpt>
      <trkpt lat="40.631555" lon="-3.78249167">
        <ele>798.0</ele>
        <time>2018-05-26T07:21:53.136Z</time>
      </trkpt>
      <trkpt lat="40.63163" lon="-3.78240167">
        <ele>798.0</ele>
        <time>2018-05-26T07:21:54.162Z</time>
      </trkpt>
      <trkpt lat="40.63163" lon="-3.78240167">
        <ele>798.0</ele>
        <time>2018-05-26T07:21:55.169Z</time>
      </trkpt>
      <trkpt lat="40.63171167" lon="-3.78230333">
        <ele>798.0</ele>
        <time>2018-05-26T07:21:56.145Z</time>
      </trkpt>
      <trkpt lat="40.63171167" lon="-3.78230333">
        <ele>798.0</ele>
        <time>2018-05-26T07:21:57.160Z</time>
      </trkpt>
      <trkpt lat="40.631805" lon="-3.7822">
        <ele>798.0</ele>
        <time>2018-05-26T07:21:58.152Z</time>
      </trkpt>
      <trkpt lat="40.631805" lon="-3.7822">
        <ele>798.0</ele>
        <time>2018-05-26T07:21:59.160Z</time>
      </trkpt>
      <trkpt lat="40.63190667" lon="-3.78209333">
        <ele>798.0</ele>
        <time>2018-05-26T07:22:00.154Z</time>
      </trkpt>
      <trkpt lat="40.63196" lon="-3.78203833">
        <ele>798.0</ele>
        <time>2018-05-26T07:22:01.143Z</time>
      </trkpt>
      <trkpt lat="40.63200833" lon="-3.78198167">
        <ele>798.0</ele>
        <time>2018-05-26T07:22:02.166Z</time>
      </trkpt>
      <trkpt lat="40.63200833" lon="-3.78198167">
        <ele>798.0</ele>
        <time>2018-05-26T07:22:03.173Z</time>
      </trkpt>
      <trkpt lat="40.63210167" lon="-3.78187167">
        <ele>798.0</ele>
        <time>2018-05-26T07:22:04.149Z</time>
      </trkpt>
      <trkpt lat="40.63214667" lon="-3.78181667">
        <ele>798.0</ele>
        <time>2018-05-26T07:22:05.143Z</time>
      </trkpt>
      <trkpt lat="40.63219333" lon="-3.78176167">
        <ele>798.0</ele>
        <time>2018-05-26T07:22:06.162Z</time>
      </trkpt>
      <trkpt lat="40.63219333" lon="-3.78176167">
        <ele>798.0</ele>
        <time>2018-05-26T07:22:07.168Z</time>
      </trkpt>
      <trkpt lat="40.63228167" lon="-3.78166">
        <ele>798.0</ele>
        <time>2018-05-26T07:22:08.148Z</time>
      </trkpt>
      <trkpt lat="40.632325" lon="-3.78161167">
        <ele>798.0</ele>
        <time>2018-05-26T07:22:09.151Z</time>
      </trkpt>
      <trkpt lat="40.632325" lon="-3.78161167">
        <ele>798.0</ele>
        <time>2018-05-26T07:22:10.157Z</time>
      </trkpt>
      <trkpt lat="40.632415" lon="-3.78150833">
        <ele>798.0</ele>
        <time>2018-05-26T07:22:11.138Z</time>
      </trkpt>
      <trkpt lat="40.63245833" lon="-3.78145167">
        <ele>798.0</ele>
        <time>2018-05-26T07:22:12.158Z</time>
      </trkpt>
      <trkpt lat="40.63245833" lon="-3.78145167">
        <ele>798.0</ele>
        <time>2018-05-26T07:22:13.164Z</time>
      </trkpt>
      <trkpt lat="40.63255" lon="-3.78134">
        <ele>797.0</ele>
        <time>2018-05-26T07:22:14.145Z</time>
      </trkpt>
      <trkpt lat="40.63255" lon="-3.78134">
        <ele>797.0</ele>
        <time>2018-05-26T07:22:15.154Z</time>
      </trkpt>
      <trkpt lat="40.63264333" lon="-3.78123167">
        <ele>797.0</ele>
        <time>2018-05-26T07:22:16.174Z</time>
      </trkpt>
      <trkpt lat="40.63269167" lon="-3.78118">
        <ele>797.0</ele>
        <time>2018-05-26T07:22:17.155Z</time>
      </trkpt>
      <trkpt lat="40.63269167" lon="-3.78118">
        <ele>797.0</ele>
        <time>2018-05-26T07:22:18.160Z</time>
      </trkpt>
      <trkpt lat="40.63279" lon="-3.78106667">
        <ele>797.0</ele>
        <time>2018-05-26T07:22:19.176Z</time>
      </trkpt>
      <trkpt lat="40.63279" lon="-3.78106667">
        <ele>797.0</ele>
        <time>2018-05-26T07:22:20.160Z</time>
      </trkpt>
      <trkpt lat="40.63289" lon="-3.78094167">
        <ele>796.0</ele>
        <time>2018-05-26T07:22:21.141Z</time>
      </trkpt>
      <trkpt lat="40.63289" lon="-3.78094167">
        <ele>796.0</ele>
        <time>2018-05-26T07:22:22.148Z</time>
      </trkpt>
      <trkpt lat="40.63299167" lon="-3.78082">
        <ele>796.0</ele>
        <time>2018-05-26T07:22:23.169Z</time>
      </trkpt>
      <trkpt lat="40.633045" lon="-3.78076333">
        <ele>795.0</ele>
        <time>2018-05-26T07:22:24.146Z</time>
      </trkpt>
      <trkpt lat="40.633045" lon="-3.78076333">
        <ele>795.0</ele>
        <time>2018-05-26T07:22:25.153Z</time>
      </trkpt>
      <trkpt lat="40.633155" lon="-3.78066167">
        <ele>795.0</ele>
        <time>2018-05-26T07:22:26.141Z</time>
      </trkpt>
      <trkpt lat="40.63321167" lon="-3.78061833">
        <ele>796.0</ele>
        <time>2018-05-26T07:22:27.148Z</time>
      </trkpt>
      <trkpt lat="40.63321167" lon="-3.78061833">
        <ele>796.0</ele>
        <time>2018-05-26T07:22:28.160Z</time>
      </trkpt>
      <trkpt lat="40.63333333" lon="-3.780545">
        <ele>795.0</ele>
        <time>2018-05-26T07:22:29.137Z</time>
      </trkpt>
      <trkpt lat="40.63333333" lon="-3.780545">
        <ele>795.0</ele>
        <time>2018-05-26T07:22:30.144Z</time>
      </trkpt>
      <trkpt lat="40.63346667" lon="-3.78048">
        <ele>795.0</ele>
        <time>2018-05-26T07:22:31.175Z</time>
      </trkpt>
      <trkpt lat="40.63346667" lon="-3.78048">
        <ele>795.0</ele>
        <time>2018-05-26T07:22:32.141Z</time>
      </trkpt>
      <trkpt lat="40.63360667" lon="-3.78042333">
        <ele>795.0</ele>
        <time>2018-05-26T07:22:33.137Z</time>
      </trkpt>
      <trkpt lat="40.63360667" lon="-3.78042333">
        <ele>795.0</ele>
        <time>2018-05-26T07:22:34.144Z</time>
      </trkpt>
      <trkpt lat="40.63374" lon="-3.780365">
        <ele>794.0</ele>
        <time>2018-05-26T07:22:35.160Z</time>
      </trkpt>
      <trkpt lat="40.63374" lon="-3.780365">
        <ele>794.0</ele>
        <time>2018-05-26T07:22:36.167Z</time>
      </trkpt>
      <trkpt lat="40.63387167" lon="-3.78028667">
        <ele>794.0</ele>
        <time>2018-05-26T07:22:37.149Z</time>
      </trkpt>
      <trkpt lat="40.63387167" lon="-3.78028667">
        <ele>794.0</ele>
        <time>2018-05-26T07:22:38.158Z</time>
      </trkpt>
      <trkpt lat="40.63401167" lon="-3.78021167">
        <ele>794.0</ele>
        <time>2018-05-26T07:22:39.147Z</time>
      </trkpt>
      <trkpt lat="40.63401167" lon="-3.78021167">
        <ele>794.0</ele>
        <time>2018-05-26T07:22:40.154Z</time>
      </trkpt>
      <trkpt lat="40.63417167" lon="-3.78017667">
        <ele>794.0</ele>
        <time>2018-05-26T07:22:41.136Z</time>
      </trkpt>
      <trkpt lat="40.63425833" lon="-3.78016333">
        <ele>794.0</ele>
        <time>2018-05-26T07:22:42.157Z</time>
      </trkpt>
      <trkpt lat="40.63425833" lon="-3.78016333">
        <ele>794.0</ele>
        <time>2018-05-26T07:22:43.164Z</time>
      </trkpt>
      <trkpt lat="40.63444667" lon="-3.78015167">
        <ele>793.0</ele>
        <time>2018-05-26T07:22:44.144Z</time>
      </trkpt>
      <trkpt lat="40.634545" lon="-3.78014667">
        <ele>793.0</ele>
        <time>2018-05-26T07:22:45.166Z</time>
      </trkpt>
      <trkpt lat="40.634545" lon="-3.78014667">
        <ele>793.0</ele>
        <time>2018-05-26T07:22:46.173Z</time>
      </trkpt>
      <trkpt lat="40.63474667" lon="-3.780135">
        <ele>791.0</ele>
        <time>2018-05-26T07:22:47.153Z</time>
      </trkpt>
      <trkpt lat="40.63474667" lon="-3.780135">
        <ele>791.0</ele>
        <time>2018-05-26T07:22:48.162Z</time>
      </trkpt>
      <trkpt lat="40.63495" lon="-3.78008667">
        <ele>790.0</ele>
        <time>2018-05-26T07:22:49.159Z</time>
      </trkpt>
      <trkpt lat="40.63495" lon="-3.78008667">
        <ele>790.0</ele>
        <time>2018-05-26T07:22:50.165Z</time>
      </trkpt>
      <trkpt lat="40.635145" lon="-3.77999333">
        <ele>789.0</ele>
        <time>2018-05-26T07:22:51.160Z</time>
      </trkpt>
      <trkpt lat="40.635145" lon="-3.77999333">
        <ele>789.0</ele>
        <time>2018-05-26T07:22:52.137Z</time>
      </trkpt>
      <trkpt lat="40.63532667" lon="-3.77986667">
        <ele>788.0</ele>
        <time>2018-05-26T07:22:53.156Z</time>
      </trkpt>
      <trkpt lat="40.635415" lon="-3.77981">
        <ele>788.0</ele>
        <time>2018-05-26T07:22:54.139Z</time>
      </trkpt>
      <trkpt lat="40.635415" lon="-3.77981">
        <ele>788.0</ele>
        <time>2018-05-26T07:22:55.144Z</time>
      </trkpt>
      <trkpt lat="40.63559167" lon="-3.77972667">
        <ele>788.0</ele>
        <time>2018-05-26T07:22:56.168Z</time>
      </trkpt>
      <trkpt lat="40.635675" lon="-3.77970333">
        <ele>788.0</ele>
        <time>2018-05-26T07:22:57.150Z</time>
      </trkpt>
      <trkpt lat="40.635675" lon="-3.77970333">
        <ele>788.0</ele>
        <time>2018-05-26T07:22:58.156Z</time>
      </trkpt>
      <trkpt lat="40.63583833" lon="-3.77966">
        <ele>789.0</ele>
        <time>2018-05-26T07:22:59.151Z</time>
      </trkpt>
      <trkpt lat="40.63591667" lon="-3.77964333">
        <ele>789.0</ele>
        <time>2018-05-26T07:23:00.169Z</time>
      </trkpt>
      <trkpt lat="40.63591667" lon="-3.77964333">
        <ele>789.0</ele>
        <time>2018-05-26T07:23:01.137Z</time>
      </trkpt>
      <trkpt lat="40.636075" lon="-3.77961167">
        <ele>789.0</ele>
        <time>2018-05-26T07:23:02.158Z</time>
      </trkpt>
      <trkpt lat="40.63615167" lon="-3.77959333">
        <ele>789.0</ele>
        <time>2018-05-26T07:23:03.149Z</time>
      </trkpt>
      <trkpt lat="40.63615167" lon="-3.77959333">
        <ele>789.0</ele>
        <time>2018-05-26T07:23:04.160Z</time>
      </trkpt>
      <trkpt lat="40.63630667" lon="-3.77955333">
        <ele>789.0</ele>
        <time>2018-05-26T07:23:05.154Z</time>
      </trkpt>
      <trkpt lat="40.63638" lon="-3.77953333">
        <ele>789.0</ele>
        <time>2018-05-26T07:23:06.136Z</time>
      </trkpt>
      <trkpt lat="40.63638" lon="-3.77953333">
        <ele>789.0</ele>
        <time>2018-05-26T07:23:07.142Z</time>
      </trkpt>
      <trkpt lat="40.63651667" lon="-3.77949167">
        <ele>790.0</ele>
        <time>2018-05-26T07:23:08.164Z</time>
      </trkpt>
      <trkpt lat="40.63658167" lon="-3.77947333">
        <ele>790.0</ele>
        <time>2018-05-26T07:23:09.145Z</time>
      </trkpt>
      <trkpt lat="40.63658167" lon="-3.77947333">
        <ele>790.0</ele>
        <time>2018-05-26T07:23:10.151Z</time>
      </trkpt>
      <trkpt lat="40.63670833" lon="-3.77943167">
        <ele>790.0</ele>
        <time>2018-05-26T07:23:11.174Z</time>
      </trkpt>
      <trkpt lat="40.63676833" lon="-3.77940667">
        <ele>790.0</ele>
        <time>2018-05-26T07:23:12.153Z</time>
      </trkpt>
      <trkpt lat="40.63676833" lon="-3.77940667">
        <ele>790.0</ele>
        <time>2018-05-26T07:23:13.159Z</time>
      </trkpt>
      <trkpt lat="40.63688333" lon="-3.77937">
        <ele>791.0</ele>
        <time>2018-05-26T07:23:14.136Z</time>
      </trkpt>
      <trkpt lat="40.63688333" lon="-3.77937">
        <ele>791.0</ele>
        <time>2018-05-26T07:23:15.143Z</time>
      </trkpt>
      <trkpt lat="40.63699167" lon="-3.77934667">
        <ele>791.0</ele>
        <time>2018-05-26T07:23:16.163Z</time>
      </trkpt>
      <trkpt lat="40.63699167" lon="-3.77934667">
        <ele>791.0</ele>
        <time>2018-05-26T07:23:17.170Z</time>
      </trkpt>
      <trkpt lat="40.63710167" lon="-3.77933333">
        <ele>791.0</ele>
        <time>2018-05-26T07:23:18.150Z</time>
      </trkpt>
      <trkpt lat="40.63710167" lon="-3.77933333">
        <ele>791.0</ele>
        <time>2018-05-26T07:23:19.156Z</time>
      </trkpt>
      <trkpt lat="40.63722167" lon="-3.77933167">
        <ele>790.0</ele>
        <time>2018-05-26T07:23:20.142Z</time>
      </trkpt>
      <trkpt lat="40.63722167" lon="-3.77933167">
        <ele>790.0</ele>
        <time>2018-05-26T07:23:21.148Z</time>
      </trkpt>
      <trkpt lat="40.63735833" lon="-3.77933333">
        <ele>790.0</ele>
        <time>2018-05-26T07:23:22.172Z</time>
      </trkpt>
      <trkpt lat="40.63742667" lon="-3.77933">
        <ele>790.0</ele>
        <time>2018-05-26T07:23:23.173Z</time>
      </trkpt>
      <trkpt lat="40.63742667" lon="-3.77933">
        <ele>790.0</ele>
        <time>2018-05-26T07:23:24.140Z</time>
      </trkpt>
      <trkpt lat="40.637555" lon="-3.77931333">
        <ele>789.0</ele>
        <time>2018-05-26T07:23:25.140Z</time>
      </trkpt>
      <trkpt lat="40.63761667" lon="-3.77930667">
        <ele>789.0</ele>
        <time>2018-05-26T07:23:26.161Z</time>
      </trkpt>
      <trkpt lat="40.63761667" lon="-3.77930667">
        <ele>789.0</ele>
        <time>2018-05-26T07:23:27.168Z</time>
      </trkpt>
      <trkpt lat="40.637745" lon="-3.77929833">
        <ele>790.0</ele>
        <time>2018-05-26T07:23:28.148Z</time>
      </trkpt>
      <trkpt lat="40.6378" lon="-3.7793">
        <ele>790.0</ele>
        <time>2018-05-26T07:23:29.168Z</time>
      </trkpt>
      <trkpt lat="40.63785667" lon="-3.7793">
        <ele>791.0</ele>
        <time>2018-05-26T07:23:30.157Z</time>
      </trkpt>
      <trkpt lat="40.63785667" lon="-3.7793">
        <ele>791.0</ele>
        <time>2018-05-26T07:23:31.164Z</time>
      </trkpt>
      <trkpt lat="40.63796667" lon="-3.77929833">
        <ele>791.0</ele>
        <time>2018-05-26T07:23:32.148Z</time>
      </trkpt>
      <trkpt lat="40.63802" lon="-3.7793">
        <ele>791.0</ele>
        <time>2018-05-26T07:23:33.165Z</time>
      </trkpt>
      <trkpt lat="40.63802" lon="-3.7793">
        <ele>791.0</ele>
        <time>2018-05-26T07:23:34.137Z</time>
      </trkpt>
      <trkpt lat="40.63812667" lon="-3.77931">
        <ele>791.0</ele>
        <time>2018-05-26T07:23:35.165Z</time>
      </trkpt>
      <trkpt lat="40.63812667" lon="-3.77931">
        <ele>791.0</ele>
        <time>2018-05-26T07:23:36.171Z</time>
      </trkpt>
      <trkpt lat="40.63823167" lon="-3.77930333">
        <ele>791.0</ele>
        <time>2018-05-26T07:23:37.169Z</time>
      </trkpt>
      <trkpt lat="40.63828" lon="-3.7793">
        <ele>791.0</ele>
        <time>2018-05-26T07:23:38.145Z</time>
      </trkpt>
      <trkpt lat="40.63832833" lon="-3.77929667">
        <ele>792.0</ele>
        <time>2018-05-26T07:23:39.163Z</time>
      </trkpt>
      <trkpt lat="40.63832833" lon="-3.77929667">
        <ele>792.0</ele>
        <time>2018-05-26T07:23:40.169Z</time>
      </trkpt>
      <trkpt lat="40.63843" lon="-3.77928667">
        <ele>792.0</ele>
        <time>2018-05-26T07:23:41.174Z</time>
      </trkpt>
      <trkpt lat="40.63848" lon="-3.77928">
        <ele>792.0</ele>
        <time>2018-05-26T07:23:42.156Z</time>
      </trkpt>
      <trkpt lat="40.63848" lon="-3.77928">
        <ele>792.0</ele>
        <time>2018-05-26T07:23:43.161Z</time>
      </trkpt>
      <trkpt lat="40.63857667" lon="-3.77929667">
        <ele>791.0</ele>
        <time>2018-05-26T07:23:44.164Z</time>
      </trkpt>
      <trkpt lat="40.63857667" lon="-3.77929667">
        <ele>791.0</ele>
        <time>2018-05-26T07:23:45.171Z</time>
      </trkpt>
      <trkpt lat="40.63868" lon="-3.77932">
        <ele>792.0</ele>
        <time>2018-05-26T07:23:46.150Z</time>
      </trkpt>
      <trkpt lat="40.63868" lon="-3.77932">
        <ele>792.0</ele>
        <time>2018-05-26T07:23:47.160Z</time>
      </trkpt>
      <trkpt lat="40.63877333" lon="-3.77933333">
        <ele>792.0</ele>
        <time>2018-05-26T07:23:48.146Z</time>
      </trkpt>
      <trkpt lat="40.63877333" lon="-3.77933333">
        <ele>792.0</ele>
        <time>2018-05-26T07:23:49.153Z</time>
      </trkpt>
      <trkpt lat="40.63887333" lon="-3.77933333">
        <ele>792.0</ele>
        <time>2018-05-26T07:23:50.148Z</time>
      </trkpt>
      <trkpt lat="40.63887333" lon="-3.77933333">
        <ele>792.0</ele>
        <time>2018-05-26T07:23:51.154Z</time>
      </trkpt>
      <trkpt lat="40.63896333" lon="-3.77935833">
        <ele>792.0</ele>
        <time>2018-05-26T07:23:52.148Z</time>
      </trkpt>
      <trkpt lat="40.639005" lon="-3.77938">
        <ele>793.0</ele>
        <time>2018-05-26T07:23:53.173Z</time>
      </trkpt>
      <trkpt lat="40.63904333" lon="-3.77941">
        <ele>793.0</ele>
        <time>2018-05-26T07:23:54.162Z</time>
      </trkpt>
      <trkpt lat="40.63904333" lon="-3.77941">
        <ele>793.0</ele>
        <time>2018-05-26T07:23:55.168Z</time>
      </trkpt>
      <trkpt lat="40.63911" lon="-3.77948167">
        <ele>793.0</ele>
        <time>2018-05-26T07:23:56.144Z</time>
      </trkpt>
      <trkpt lat="40.63914167" lon="-3.77952167">
        <ele>793.0</ele>
        <time>2018-05-26T07:23:57.137Z</time>
      </trkpt>
      <trkpt lat="40.63914167" lon="-3.77952167">
        <ele>793.0</ele>
        <time>2018-05-26T07:23:58.144Z</time>
      </trkpt>
      <trkpt lat="40.63920667" lon="-3.77959333">
        <ele>793.0</ele>
        <time>2018-05-26T07:23:59.168Z</time>
      </trkpt>
      <trkpt lat="40.63920667" lon="-3.77959333">
        <ele>793.0</ele>
        <time>2018-05-26T07:24:00.145Z</time>
      </trkpt>
      <trkpt lat="40.63928" lon="-3.77965833">
        <ele>794.0</ele>
        <time>2018-05-26T07:24:01.160Z</time>
      </trkpt>
      <trkpt lat="40.63928" lon="-3.77965833">
        <ele>794.0</ele>
        <time>2018-05-26T07:24:02.167Z</time>
      </trkpt>
      <trkpt lat="40.63935667" lon="-3.77971">
        <ele>794.0</ele>
        <time>2018-05-26T07:24:03.160Z</time>
      </trkpt>
      <trkpt lat="40.63935667" lon="-3.77971">
        <ele>794.0</ele>
        <time>2018-05-26T07:24:04.167Z</time>
      </trkpt>
      <trkpt lat="40.63943" lon="-3.77975833">
        <ele>795.0</ele>
        <time>2018-05-26T07:24:05.163Z</time>
      </trkpt>
      <trkpt lat="40.639465" lon="-3.77977667">
        <ele>795.0</ele>
        <time>2018-05-26T07:24:06.151Z</time>
      </trkpt>
      <trkpt lat="40.639465" lon="-3.77977667">
        <ele>795.0</ele>
        <time>2018-05-26T07:24:07.161Z</time>
      </trkpt>
      <trkpt lat="40.63953" lon="-3.77981">
        <ele>796.0</ele>
        <time>2018-05-26T07:24:08.150Z</time>
      </trkpt>
      <trkpt lat="40.63953" lon="-3.77981">
        <ele>796.0</ele>
        <time>2018-05-26T07:24:09.159Z</time>
      </trkpt>
      <trkpt lat="40.63959333" lon="-3.77984">
        <ele>796.0</ele>
        <time>2018-05-26T07:24:10.156Z</time>
      </trkpt>
      <trkpt lat="40.63962667" lon="-3.77985333">
        <ele>796.0</ele>
        <time>2018-05-26T07:24:11.143Z</time>
      </trkpt>
      <trkpt lat="40.63962667" lon="-3.77985333">
        <ele>796.0</ele>
        <time>2018-05-26T07:24:12.148Z</time>
      </trkpt>
      <trkpt lat="40.639685" lon="-3.77988333">
        <ele>797.0</ele>
        <time>2018-05-26T07:24:13.137Z</time>
      </trkpt>
      <trkpt lat="40.639685" lon="-3.77988333">
        <ele>797.0</ele>
        <time>2018-05-26T07:24:14.142Z</time>
      </trkpt>
      <trkpt lat="40.63974" lon="-3.77989833">
        <ele>798.0</ele>
        <time>2018-05-26T07:24:15.159Z</time>
      </trkpt>
      <trkpt lat="40.63974" lon="-3.77989833">
        <ele>798.0</ele>
        <time>2018-05-26T07:24:16.164Z</time>
      </trkpt>
      <trkpt lat="40.639805" lon="-3.7799">
        <ele>799.0</ele>
        <time>2018-05-26T07:24:17.164Z</time>
      </trkpt>
      <trkpt lat="40.63983833" lon="-3.77989833">
        <ele>800.0</ele>
        <time>2018-05-26T07:24:18.146Z</time>
      </trkpt>
      <trkpt lat="40.63983833" lon="-3.77989833">
        <ele>800.0</ele>
        <time>2018-05-26T07:24:19.152Z</time>
      </trkpt>
      <trkpt lat="40.63992167" lon="-3.77990833">
        <ele>800.0</ele>
        <time>2018-05-26T07:24:20.137Z</time>
      </trkpt>
      <trkpt lat="40.63992167" lon="-3.77990833">
        <ele>800.0</ele>
        <time>2018-05-26T07:24:21.142Z</time>
      </trkpt>
      <trkpt lat="40.640005" lon="-3.77993">
        <ele>800.0</ele>
        <time>2018-05-26T07:24:22.169Z</time>
      </trkpt>
      <trkpt lat="40.640005" lon="-3.77993">
        <ele>800.0</ele>
        <time>2018-05-26T07:24:23.175Z</time>
      </trkpt>
      <trkpt lat="40.64009167" lon="-3.77995">
        <ele>800.0</ele>
        <time>2018-05-26T07:24:24.140Z</time>
      </trkpt>
      <trkpt lat="40.64009167" lon="-3.77995">
        <ele>800.0</ele>
        <time>2018-05-26T07:24:25.159Z</time>
      </trkpt>
      <trkpt lat="40.64017" lon="-3.77994667">
        <ele>800.0</ele>
        <time>2018-05-26T07:24:26.139Z</time>
      </trkpt>
      <trkpt lat="40.64021167" lon="-3.77994667">
        <ele>801.0</ele>
        <time>2018-05-26T07:24:27.162Z</time>
      </trkpt>
      <trkpt lat="40.64021167" lon="-3.77994667">
        <ele>801.0</ele>
        <time>2018-05-26T07:24:28.168Z</time>
      </trkpt>
      <trkpt lat="40.64030167" lon="-3.77995667">
        <ele>801.0</ele>
        <time>2018-05-26T07:24:29.154Z</time>
      </trkpt>
      <trkpt lat="40.64030167" lon="-3.77995667">
        <ele>801.0</ele>
        <time>2018-05-26T07:24:30.160Z</time>
      </trkpt>
      <trkpt lat="40.64039333" lon="-3.77997">
        <ele>801.0</ele>
        <time>2018-05-26T07:24:31.143Z</time>
      </trkpt>
      <trkpt lat="40.64039333" lon="-3.77997">
        <ele>801.0</ele>
        <time>2018-05-26T07:24:32.149Z</time>
      </trkpt>
      <trkpt lat="40.64048667" lon="-3.779965">
        <ele>802.0</ele>
        <time>2018-05-26T07:24:33.140Z</time>
      </trkpt>
      <trkpt lat="40.64048667" lon="-3.779965">
        <ele>802.0</ele>
        <time>2018-05-26T07:24:34.147Z</time>
      </trkpt>
      <trkpt lat="40.64058167" lon="-3.77995333">
        <ele>802.0</ele>
        <time>2018-05-26T07:24:35.139Z</time>
      </trkpt>
      <trkpt lat="40.64062333" lon="-3.77995">
        <ele>802.0</ele>
        <time>2018-05-26T07:24:36.167Z</time>
      </trkpt>
      <trkpt lat="40.64062333" lon="-3.77995">
        <ele>802.0</ele>
        <time>2018-05-26T07:24:37.173Z</time>
      </trkpt>
      <trkpt lat="40.64070333" lon="-3.77992333">
        <ele>803.0</ele>
        <time>2018-05-26T07:24:38.153Z</time>
      </trkpt>
      <trkpt lat="40.640745" lon="-3.7799">
        <ele>803.0</ele>
        <time>2018-05-26T07:24:39.144Z</time>
      </trkpt>
      <trkpt lat="40.640745" lon="-3.7799">
        <ele>803.0</ele>
        <time>2018-05-26T07:24:40.151Z</time>
      </trkpt>
      <trkpt lat="40.64083" lon="-3.779855">
        <ele>804.0</ele>
        <time>2018-05-26T07:24:41.168Z</time>
      </trkpt>
      <trkpt lat="40.64087667" lon="-3.77983333">
        <ele>804.0</ele>
        <time>2018-05-26T07:24:42.146Z</time>
      </trkpt>
      <trkpt lat="40.64087667" lon="-3.77983333">
        <ele>804.0</ele>
        <time>2018-05-26T07:24:43.153Z</time>
      </trkpt>
      <trkpt lat="40.64096833" lon="-3.779795">
        <ele>804.0</ele>
        <time>2018-05-26T07:24:44.174Z</time>
      </trkpt>
      <trkpt lat="40.64101167" lon="-3.779775">
        <ele>805.0</ele>
        <time>2018-05-26T07:24:45.161Z</time>
      </trkpt>
      <trkpt lat="40.64101167" lon="-3.779775">
        <ele>805.0</ele>
        <time>2018-05-26T07:24:46.168Z</time>
      </trkpt>
      <trkpt lat="40.64110333" lon="-3.77973833">
        <ele>805.0</ele>
        <time>2018-05-26T07:24:47.163Z</time>
      </trkpt>
      <trkpt lat="40.64110333" lon="-3.77973833">
        <ele>805.0</ele>
        <time>2018-05-26T07:24:48.169Z</time>
      </trkpt>
      <trkpt lat="40.64120333" lon="-3.779705">
        <ele>805.0</ele>
        <time>2018-05-26T07:24:49.172Z</time>
      </trkpt>
      <trkpt lat="40.64120333" lon="-3.779705">
        <ele>805.0</ele>
        <time>2018-05-26T07:24:50.138Z</time>
      </trkpt>
      <trkpt lat="40.64130833" lon="-3.77968667">
        <ele>806.0</ele>
        <time>2018-05-26T07:24:51.170Z</time>
      </trkpt>
      <trkpt lat="40.64136333" lon="-3.77967833">
        <ele>806.0</ele>
        <time>2018-05-26T07:24:52.150Z</time>
      </trkpt>
      <trkpt lat="40.64136333" lon="-3.77967833">
        <ele>806.0</ele>
        <time>2018-05-26T07:24:53.160Z</time>
      </trkpt>
      <trkpt lat="40.64147667" lon="-3.77966167">
        <ele>806.0</ele>
        <time>2018-05-26T07:24:54.147Z</time>
      </trkpt>
      <trkpt lat="40.64147667" lon="-3.77966167">
        <ele>806.0</ele>
        <time>2018-05-26T07:24:55.160Z</time>
      </trkpt>
      <trkpt lat="40.64159" lon="-3.77965833">
        <ele>807.0</ele>
        <time>2018-05-26T07:24:56.154Z</time>
      </trkpt>
      <trkpt lat="40.64159" lon="-3.77965833">
        <ele>807.0</ele>
        <time>2018-05-26T07:24:57.161Z</time>
      </trkpt>
      <trkpt lat="40.6417" lon="-3.77967">
        <ele>807.0</ele>
        <time>2018-05-26T07:24:58.141Z</time>
      </trkpt>
      <trkpt lat="40.64174833" lon="-3.77968167">
        <ele>806.0</ele>
        <time>2018-05-26T07:24:59.160Z</time>
      </trkpt>
      <trkpt lat="40.64174833" lon="-3.77968167">
        <ele>806.0</ele>
        <time>2018-05-26T07:25:00.139Z</time>
      </trkpt>
      <trkpt lat="40.64184333" lon="-3.779715">
        <ele>806.0</ele>
        <time>2018-05-26T07:25:01.168Z</time>
      </trkpt>
      <trkpt lat="40.64188" lon="-3.77974333">
        <ele>806.0</ele>
        <time>2018-05-26T07:25:02.145Z</time>
      </trkpt>
      <trkpt lat="40.64188" lon="-3.77974333">
        <ele>806.0</ele>
        <time>2018-05-26T07:25:03.150Z</time>
      </trkpt>
      <trkpt lat="40.64194167" lon="-3.77981833">
        <ele>806.0</ele>
        <time>2018-05-26T07:25:04.140Z</time>
      </trkpt>
      <trkpt lat="40.641965" lon="-3.77986333">
        <ele>806.0</ele>
        <time>2018-05-26T07:25:05.160Z</time>
      </trkpt>
      <trkpt lat="40.641965" lon="-3.77986333">
        <ele>806.0</ele>
        <time>2018-05-26T07:25:06.167Z</time>
      </trkpt>
      <trkpt lat="40.642015" lon="-3.77995333">
        <ele>805.0</ele>
        <time>2018-05-26T07:25:07.157Z</time>
      </trkpt>
      <trkpt lat="40.642015" lon="-3.77995333">
        <ele>805.0</ele>
        <time>2018-05-26T07:25:08.164Z</time>
      </trkpt>
      <trkpt lat="40.64205333" lon="-3.780055">
        <ele>805.0</ele>
        <time>2018-05-26T07:25:09.153Z</time>
      </trkpt>
      <trkpt lat="40.64206833" lon="-3.78011167">
        <ele>805.0</ele>
        <time>2018-05-26T07:25:10.136Z</time>
      </trkpt>
      <trkpt lat="40.64206833" lon="-3.78011167">
        <ele>805.0</ele>
        <time>2018-05-26T07:25:11.142Z</time>
      </trkpt>
      <trkpt lat="40.64210833" lon="-3.78022167">
        <ele>805.0</ele>
        <time>2018-05-26T07:25:12.164Z</time>
      </trkpt>
      <trkpt lat="40.64210833" lon="-3.78022167">
        <ele>805.0</ele>
        <time>2018-05-26T07:25:13.170Z</time>
      </trkpt>
      <trkpt lat="40.64215833" lon="-3.78033">
        <ele>805.0</ele>
        <time>2018-05-26T07:25:14.152Z</time>
      </trkpt>
      <trkpt lat="40.64215833" lon="-3.78033">
        <ele>805.0</ele>
        <time>2018-05-26T07:25:15.158Z</time>
      </trkpt>
      <trkpt lat="40.64222167" lon="-3.78042667">
        <ele>805.0</ele>
        <time>2018-05-26T07:25:16.150Z</time>
      </trkpt>
      <trkpt lat="40.64226167" lon="-3.78046833">
        <ele>805.0</ele>
        <time>2018-05-26T07:25:17.136Z</time>
      </trkpt>
      <trkpt lat="40.64230667" lon="-3.78050167">
        <ele>805.0</ele>
        <time>2018-05-26T07:25:18.159Z</time>
      </trkpt>
      <trkpt lat="40.64230667" lon="-3.78050167">
        <ele>805.0</ele>
        <time>2018-05-26T07:25:19.167Z</time>
      </trkpt>
      <trkpt lat="40.64240167" lon="-3.78055">
        <ele>805.0</ele>
        <time>2018-05-26T07:25:20.158Z</time>
      </trkpt>
      <trkpt lat="40.64245" lon="-3.78057">
        <ele>805.0</ele>
        <time>2018-05-26T07:25:21.139Z</time>
      </trkpt>
      <trkpt lat="40.64245" lon="-3.78057">
        <ele>805.0</ele>
        <time>2018-05-26T07:25:22.146Z</time>
      </trkpt>
      <trkpt lat="40.64254333" lon="-3.78059667">
        <ele>805.0</ele>
        <time>2018-05-26T07:25:23.144Z</time>
      </trkpt>
      <trkpt lat="40.64259" lon="-3.780605">
        <ele>805.0</ele>
        <time>2018-05-26T07:25:24.169Z</time>
      </trkpt>
      <trkpt lat="40.64259" lon="-3.780605">
        <ele>805.0</ele>
        <time>2018-05-26T07:25:25.176Z</time>
      </trkpt>
      <trkpt lat="40.64268333" lon="-3.780615">
        <ele>805.0</ele>
        <time>2018-05-26T07:25:26.164Z</time>
      </trkpt>
      <trkpt lat="40.64268333" lon="-3.780615">
        <ele>805.0</ele>
        <time>2018-05-26T07:25:27.171Z</time>
      </trkpt>
      <trkpt lat="40.642775" lon="-3.78061667">
        <ele>806.0</ele>
        <time>2018-05-26T07:25:28.155Z</time>
      </trkpt>
      <trkpt lat="40.642775" lon="-3.78061667">
        <ele>806.0</ele>
        <time>2018-05-26T07:25:29.162Z</time>
      </trkpt>
      <trkpt lat="40.64287333" lon="-3.78061667">
        <ele>806.0</ele>
        <time>2018-05-26T07:25:30.137Z</time>
      </trkpt>
      <trkpt lat="40.64287333" lon="-3.78061667">
        <ele>806.0</ele>
        <time>2018-05-26T07:25:31.143Z</time>
      </trkpt>
      <trkpt lat="40.64297167" lon="-3.780615">
        <ele>806.0</ele>
        <time>2018-05-26T07:25:32.166Z</time>
      </trkpt>
      <trkpt lat="40.64297167" lon="-3.780615">
        <ele>806.0</ele>
        <time>2018-05-26T07:25:33.172Z</time>
      </trkpt>
      <trkpt lat="40.64306667" lon="-3.780615">
        <ele>806.0</ele>
        <time>2018-05-26T07:25:34.152Z</time>
      </trkpt>
      <trkpt lat="40.64306667" lon="-3.780615">
        <ele>806.0</ele>
        <time>2018-05-26T07:25:35.160Z</time>
      </trkpt>
      <trkpt lat="40.64316333" lon="-3.78062333">
        <ele>806.0</ele>
        <time>2018-05-26T07:25:36.160Z</time>
      </trkpt>
      <trkpt lat="40.64316333" lon="-3.78062333">
        <ele>806.0</ele>
        <time>2018-05-26T07:25:37.168Z</time>
      </trkpt>
      <trkpt lat="40.64326167" lon="-3.78064">
        <ele>806.0</ele>
        <time>2018-05-26T07:25:38.158Z</time>
      </trkpt>
      <trkpt lat="40.64331" lon="-3.780655">
        <ele>806.0</ele>
        <time>2018-05-26T07:25:39.141Z</time>
      </trkpt>
      <trkpt lat="40.64331" lon="-3.780655">
        <ele>806.0</ele>
        <time>2018-05-26T07:25:40.147Z</time>
      </trkpt>
      <trkpt lat="40.64340667" lon="-3.780695">
        <ele>806.0</ele>
        <time>2018-05-26T07:25:41.171Z</time>
      </trkpt>
      <trkpt lat="40.64340667" lon="-3.780695">
        <ele>806.0</ele>
        <time>2018-05-26T07:25:42.138Z</time>
      </trkpt>
      <trkpt lat="40.643505" lon="-3.78072333">
        <ele>806.0</ele>
        <time>2018-05-26T07:25:43.161Z</time>
      </trkpt>
      <trkpt lat="40.643505" lon="-3.78072333">
        <ele>806.0</ele>
        <time>2018-05-26T07:25:44.167Z</time>
      </trkpt>
      <trkpt lat="40.64360167" lon="-3.78074667">
        <ele>806.0</ele>
        <time>2018-05-26T07:25:45.173Z</time>
      </trkpt>
      <trkpt lat="40.64360167" lon="-3.78074667">
        <ele>806.0</ele>
        <time>2018-05-26T07:25:46.139Z</time>
      </trkpt>
      <trkpt lat="40.643705" lon="-3.78074833">
        <ele>806.0</ele>
        <time>2018-05-26T07:25:47.167Z</time>
      </trkpt>
      <trkpt lat="40.64375333" lon="-3.78075167">
        <ele>805.0</ele>
        <time>2018-05-26T07:25:48.152Z</time>
      </trkpt>
      <trkpt lat="40.64375333" lon="-3.78075167">
        <ele>805.0</ele>
        <time>2018-05-26T07:25:49.158Z</time>
      </trkpt>
      <trkpt lat="40.64385333" lon="-3.7808">
        <ele>805.0</ele>
        <time>2018-05-26T07:25:50.176Z</time>
      </trkpt>
      <trkpt lat="40.64385333" lon="-3.7808">
        <ele>805.0</ele>
        <time>2018-05-26T07:25:51.142Z</time>
      </trkpt>
      <trkpt lat="40.643955" lon="-3.78086333">
        <ele>806.0</ele>
        <time>2018-05-26T07:25:52.169Z</time>
      </trkpt>
      <trkpt lat="40.643955" lon="-3.78086333">
        <ele>806.0</ele>
        <time>2018-05-26T07:25:53.175Z</time>
      </trkpt>
      <trkpt lat="40.644045" lon="-3.78094333">
        <ele>806.0</ele>
        <time>2018-05-26T07:25:54.159Z</time>
      </trkpt>
      <trkpt lat="40.644045" lon="-3.78094333">
        <ele>806.0</ele>
        <time>2018-05-26T07:25:55.165Z</time>
      </trkpt>
      <trkpt lat="40.644125" lon="-3.78103167">
        <ele>806.0</ele>
        <time>2018-05-26T07:25:56.147Z</time>
      </trkpt>
      <trkpt lat="40.64416333" lon="-3.781075">
        <ele>806.0</ele>
        <time>2018-05-26T07:25:57.140Z</time>
      </trkpt>
      <trkpt lat="40.6442" lon="-3.78112">
        <ele>806.0</ele>
        <time>2018-05-26T07:25:58.167Z</time>
      </trkpt>
      <trkpt lat="40.6442" lon="-3.78112">
        <ele>806.0</ele>
        <time>2018-05-26T07:25:59.174Z</time>
      </trkpt>
      <trkpt lat="40.64426833" lon="-3.78120667">
        <ele>806.0</ele>
        <time>2018-05-26T07:26:00.166Z</time>
      </trkpt>
      <trkpt lat="40.64426833" lon="-3.78120667">
        <ele>806.0</ele>
        <time>2018-05-26T07:26:01.175Z</time>
      </trkpt>
      <trkpt lat="40.64433833" lon="-3.78128667">
        <ele>806.0</ele>
        <time>2018-05-26T07:26:02.156Z</time>
      </trkpt>
      <trkpt lat="40.64433833" lon="-3.78128667">
        <ele>806.0</ele>
        <time>2018-05-26T07:26:03.162Z</time>
      </trkpt>
      <trkpt lat="40.644415" lon="-3.78136667">
        <ele>806.0</ele>
        <time>2018-05-26T07:26:04.140Z</time>
      </trkpt>
      <trkpt lat="40.644415" lon="-3.78136667">
        <ele>806.0</ele>
        <time>2018-05-26T07:26:05.148Z</time>
      </trkpt>
      <trkpt lat="40.64449333" lon="-3.78144667">
        <ele>806.0</ele>
        <time>2018-05-26T07:26:06.136Z</time>
      </trkpt>
      <trkpt lat="40.64449333" lon="-3.78144667">
        <ele>806.0</ele>
        <time>2018-05-26T07:26:07.158Z</time>
      </trkpt>
      <trkpt lat="40.64457" lon="-3.78151833">
        <ele>806.0</ele>
        <time>2018-05-26T07:26:08.138Z</time>
      </trkpt>
      <trkpt lat="40.64457" lon="-3.78151833">
        <ele>806.0</ele>
        <time>2018-05-26T07:26:09.144Z</time>
      </trkpt>
      <trkpt lat="40.64463833" lon="-3.78159667">
        <ele>806.0</ele>
        <time>2018-05-26T07:26:10.165Z</time>
      </trkpt>
      <trkpt lat="40.64463833" lon="-3.78159667">
        <ele>806.0</ele>
        <time>2018-05-26T07:26:11.172Z</time>
      </trkpt>
      <trkpt lat="40.64471667" lon="-3.78167333">
        <ele>806.0</ele>
        <time>2018-05-26T07:26:12.162Z</time>
      </trkpt>
      <trkpt lat="40.64471667" lon="-3.78167333">
        <ele>806.0</ele>
        <time>2018-05-26T07:26:13.167Z</time>
      </trkpt>
      <trkpt lat="40.64480667" lon="-3.78172">
        <ele>806.0</ele>
        <time>2018-05-26T07:26:14.159Z</time>
      </trkpt>
      <trkpt lat="40.64480667" lon="-3.78172">
        <ele>806.0</ele>
        <time>2018-05-26T07:26:15.164Z</time>
      </trkpt>
      <trkpt lat="40.64490167" lon="-3.78174833">
        <ele>806.0</ele>
        <time>2018-05-26T07:26:16.148Z</time>
      </trkpt>
      <trkpt lat="40.64495167" lon="-3.78176333">
        <ele>806.0</ele>
        <time>2018-05-26T07:26:17.170Z</time>
      </trkpt>
      <trkpt lat="40.64495167" lon="-3.78176333">
        <ele>806.0</ele>
        <time>2018-05-26T07:26:18.136Z</time>
      </trkpt>
      <trkpt lat="40.645055" lon="-3.78180167">
        <ele>806.0</ele>
        <time>2018-05-26T07:26:19.163Z</time>
      </trkpt>
      <trkpt lat="40.645055" lon="-3.78180167">
        <ele>806.0</ele>
        <time>2018-05-26T07:26:20.170Z</time>
      </trkpt>
      <trkpt lat="40.64514333" lon="-3.78183667">
        <ele>806.0</ele>
        <time>2018-05-26T07:26:21.156Z</time>
      </trkpt>
      <trkpt lat="40.64514333" lon="-3.78183667">
        <ele>806.0</ele>
        <time>2018-05-26T07:26:22.163Z</time>
      </trkpt>
      <trkpt lat="40.64519833" lon="-3.78184333">
        <ele>806.0</ele>
        <time>2018-05-26T07:26:23.149Z</time>
      </trkpt>
      <trkpt lat="40.64522" lon="-3.78187167">
        <ele>806.0</ele>
        <time>2018-05-26T07:26:24.141Z</time>
      </trkpt>
      <trkpt lat="40.64522" lon="-3.78187167">
        <ele>806.0</ele>
        <time>2018-05-26T07:26:25.148Z</time>
      </trkpt>
      <trkpt lat="40.64525333" lon="-3.78197333">
        <ele>806.0</ele>
        <time>2018-05-26T07:26:26.138Z</time>
      </trkpt>
      <trkpt lat="40.64525333" lon="-3.78197333">
        <ele>806.0</ele>
        <time>2018-05-26T07:26:27.143Z</time>
      </trkpt>
      <trkpt lat="40.64526" lon="-3.78206667">
        <ele>806.0</ele>
        <time>2018-05-26T07:26:28.142Z</time>
      </trkpt>
      <trkpt lat="40.64526" lon="-3.78206667">
        <ele>806.0</ele>
        <time>2018-05-26T07:26:29.147Z</time>
      </trkpt>
      <trkpt lat="40.64524333" lon="-3.78214833">
        <ele>806.0</ele>
        <time>2018-05-26T07:26:30.175Z</time>
      </trkpt>
      <trkpt lat="40.64524333" lon="-3.78214833">
        <ele>806.0</ele>
        <time>2018-05-26T07:26:31.141Z</time>
      </trkpt>
      <trkpt lat="40.64519833" lon="-3.78221667">
        <ele>807.0</ele>
        <time>2018-05-26T07:26:32.164Z</time>
      </trkpt>
      <trkpt lat="40.64518833" lon="-3.78225333">
        <ele>808.0</ele>
        <time>2018-05-26T07:26:33.147Z</time>
      </trkpt>
      <trkpt lat="40.64518833" lon="-3.78225333">
        <ele>808.0</ele>
        <time>2018-05-26T07:26:34.160Z</time>
      </trkpt>
      <trkpt lat="40.64517833" lon="-3.78232833">
        <ele>809.0</ele>
        <time>2018-05-26T07:26:35.143Z</time>
      </trkpt>
      <trkpt lat="40.64517333" lon="-3.78236667">
        <ele>809.0</ele>
        <time>2018-05-26T07:26:36.168Z</time>
      </trkpt>
      <trkpt lat="40.64517333" lon="-3.78236667">
        <ele>809.0</ele>
        <time>2018-05-26T07:26:37.175Z</time>
      </trkpt>
      <trkpt lat="40.64515833" lon="-3.782445">
        <ele>809.0</ele>
        <time>2018-05-26T07:26:38.152Z</time>
      </trkpt>
      <trkpt lat="40.64515333" lon="-3.78248167">
        <ele>809.0</ele>
        <time>2018-05-26T07:26:39.136Z</time>
      </trkpt>
      <trkpt lat="40.64515333" lon="-3.78248167">
        <ele>809.0</ele>
        <time>2018-05-26T07:26:40.142Z</time>
      </trkpt>
      <trkpt lat="40.645155" lon="-3.78255">
        <ele>809.0</ele>
        <time>2018-05-26T07:26:41.165Z</time>
      </trkpt>
      <trkpt lat="40.645155" lon="-3.78255">
        <ele>809.0</ele>
        <time>2018-05-26T07:26:42.171Z</time>
      </trkpt>
      <trkpt lat="40.64515333" lon="-3.78261">
        <ele>810.0</ele>
        <time>2018-05-26T07:26:43.147Z</time>
      </trkpt>
      <trkpt lat="40.64515333" lon="-3.78261">
        <ele>810.0</ele>
        <time>2018-05-26T07:26:44.154Z</time>
      </trkpt>
      <trkpt lat="40.64515" lon="-3.78266333">
        <ele>811.0</ele>
        <time>2018-05-26T07:26:45.146Z</time>
      </trkpt>
      <trkpt lat="40.64515" lon="-3.78266333">
        <ele>811.0</ele>
        <time>2018-05-26T07:26:46.154Z</time>
      </trkpt>
      <trkpt lat="40.64514667" lon="-3.78272">
        <ele>812.0</ele>
        <time>2018-05-26T07:26:47.137Z</time>
      </trkpt>
      <trkpt lat="40.64514667" lon="-3.78272">
        <ele>812.0</ele>
        <time>2018-05-26T07:26:48.143Z</time>
      </trkpt>
      <trkpt lat="40.64513667" lon="-3.78275833">
        <ele>812.0</ele>
        <time>2018-05-26T07:26:49.164Z</time>
      </trkpt>
      <trkpt lat="40.64513667" lon="-3.78275833">
        <ele>812.0</ele>
        <time>2018-05-26T07:26:50.170Z</time>
      </trkpt>
      <trkpt lat="40.64512333" lon="-3.782795">
        <ele>813.0</ele>
        <time>2018-05-26T07:26:51.145Z</time>
      </trkpt>
      <trkpt lat="40.64511833" lon="-3.78281667">
        <ele>813.0</ele>
        <time>2018-05-26T07:26:52.163Z</time>
      </trkpt>
      <trkpt lat="40.64511833" lon="-3.78281667">
        <ele>813.0</ele>
        <time>2018-05-26T07:26:53.169Z</time>
      </trkpt>
      <trkpt lat="40.64510667" lon="-3.782855">
        <ele>813.0</ele>
        <time>2018-05-26T07:26:54.143Z</time>
      </trkpt>
      <trkpt lat="40.64510667" lon="-3.782855">
        <ele>813.0</ele>
        <time>2018-05-26T07:26:55.150Z</time>
      </trkpt>
      <trkpt lat="40.64509" lon="-3.78289667">
        <ele>813.0</ele>
        <time>2018-05-26T07:26:56.154Z</time>
      </trkpt>
      <trkpt lat="40.645085" lon="-3.78291667">
        <ele>814.0</ele>
        <time>2018-05-26T07:26:57.160Z</time>
      </trkpt>
      <trkpt lat="40.64508" lon="-3.78293667">
        <ele>814.0</ele>
        <time>2018-05-26T07:26:58.156Z</time>
      </trkpt>
      <trkpt lat="40.64508" lon="-3.78293667">
        <ele>814.0</ele>
        <time>2018-05-26T07:26:59.172Z</time>
      </trkpt>
      <trkpt lat="40.64506833" lon="-3.78297833">
        <ele>814.0</ele>
        <time>2018-05-26T07:27:00.136Z</time>
      </trkpt>
      <trkpt lat="40.64506" lon="-3.783">
        <ele>815.0</ele>
        <time>2018-05-26T07:27:01.144Z</time>
      </trkpt>
      <trkpt lat="40.64506" lon="-3.783">
        <ele>815.0</ele>
        <time>2018-05-26T07:27:02.150Z</time>
      </trkpt>
      <trkpt lat="40.64505" lon="-3.783045">
        <ele>815.0</ele>
        <time>2018-05-26T07:27:03.171Z</time>
      </trkpt>
      <trkpt lat="40.64504667" lon="-3.78306833">
        <ele>816.0</ele>
        <time>2018-05-26T07:27:04.157Z</time>
      </trkpt>
      <trkpt lat="40.64504333" lon="-3.78309333">
        <ele>816.0</ele>
        <time>2018-05-26T07:27:05.143Z</time>
      </trkpt>
      <trkpt lat="40.64504333" lon="-3.78309333">
        <ele>816.0</ele>
        <time>2018-05-26T07:27:06.148Z</time>
      </trkpt>
      <trkpt lat="40.64503333" lon="-3.78314333">
        <ele>816.0</ele>
        <time>2018-05-26T07:27:07.140Z</time>
      </trkpt>
      <trkpt lat="40.64503333" lon="-3.78314333">
        <ele>816.0</ele>
        <time>2018-05-26T07:27:08.146Z</time>
      </trkpt>
      <trkpt lat="40.645025" lon="-3.78319833">
        <ele>817.0</ele>
        <time>2018-05-26T07:27:09.138Z</time>
      </trkpt>
      <trkpt lat="40.645025" lon="-3.78319833">
        <ele>817.0</ele>
        <time>2018-05-26T07:27:10.145Z</time>
      </trkpt>
      <trkpt lat="40.64502333" lon="-3.78326">
        <ele>817.0</ele>
        <time>2018-05-26T07:27:11.171Z</time>
      </trkpt>
      <trkpt lat="40.64502333" lon="-3.78326">
        <ele>817.0</ele>
        <time>2018-05-26T07:27:12.138Z</time>
      </trkpt>
      <trkpt lat="40.64502" lon="-3.78332833">
        <ele>817.0</ele>
        <time>2018-05-26T07:27:13.166Z</time>
      </trkpt>
      <trkpt lat="40.64502" lon="-3.78332833">
        <ele>817.0</ele>
        <time>2018-05-26T07:27:14.173Z</time>
      </trkpt>
      <trkpt lat="40.64501667" lon="-3.78340167">
        <ele>817.0</ele>
        <time>2018-05-26T07:27:15.167Z</time>
      </trkpt>
      <trkpt lat="40.64501667" lon="-3.78340167">
        <ele>817.0</ele>
        <time>2018-05-26T07:27:16.173Z</time>
      </trkpt>
      <trkpt lat="40.64501167" lon="-3.783475">
        <ele>818.0</ele>
        <time>2018-05-26T07:27:17.156Z</time>
      </trkpt>
      <trkpt lat="40.64500833" lon="-3.78351333">
        <ele>818.0</ele>
        <time>2018-05-26T07:27:18.175Z</time>
      </trkpt>
      <trkpt lat="40.64500833" lon="-3.78351333">
        <ele>818.0</ele>
        <time>2018-05-26T07:27:19.141Z</time>
      </trkpt>
      <trkpt lat="40.64499833" lon="-3.78359">
        <ele>819.0</ele>
        <time>2018-05-26T07:27:20.166Z</time>
      </trkpt>
      <trkpt lat="40.64499333" lon="-3.78362833">
        <ele>819.0</ele>
        <time>2018-05-26T07:27:21.145Z</time>
      </trkpt>
      <trkpt lat="40.64499333" lon="-3.78362833">
        <ele>819.0</ele>
        <time>2018-05-26T07:27:22.152Z</time>
      </trkpt>
      <trkpt lat="40.64498167" lon="-3.78370167">
        <ele>819.0</ele>
        <time>2018-05-26T07:27:23.143Z</time>
      </trkpt>
      <trkpt lat="40.644975" lon="-3.78374167">
        <ele>820.0</ele>
        <time>2018-05-26T07:27:24.147Z</time>
      </trkpt>
      <trkpt lat="40.644975" lon="-3.78374167">
        <ele>820.0</ele>
        <time>2018-05-26T07:27:25.156Z</time>
      </trkpt>
      <trkpt lat="40.64496167" lon="-3.78382167">
        <ele>820.0</ele>
        <time>2018-05-26T07:27:26.137Z</time>
      </trkpt>
      <trkpt lat="40.644955" lon="-3.78386167">
        <ele>821.0</ele>
        <time>2018-05-26T07:27:27.164Z</time>
      </trkpt>
      <trkpt lat="40.644955" lon="-3.78386167">
        <ele>821.0</ele>
        <time>2018-05-26T07:27:28.171Z</time>
      </trkpt>
      <trkpt lat="40.64494333" lon="-3.783945">
        <ele>821.0</ele>
        <time>2018-05-26T07:27:29.149Z</time>
      </trkpt>
      <trkpt lat="40.64494333" lon="-3.783945">
        <ele>821.0</ele>
        <time>2018-05-26T07:27:30.159Z</time>
      </trkpt>
      <trkpt lat="40.644935" lon="-3.78403167">
        <ele>821.0</ele>
        <time>2018-05-26T07:27:31.149Z</time>
      </trkpt>
      <trkpt lat="40.644935" lon="-3.78403167">
        <ele>821.0</ele>
        <time>2018-05-26T07:27:32.159Z</time>
      </trkpt>
      <trkpt lat="40.644925" lon="-3.78412">
        <ele>821.0</ele>
        <time>2018-05-26T07:27:33.137Z</time>
      </trkpt>
      <trkpt lat="40.644925" lon="-3.78412">
        <ele>821.0</ele>
        <time>2018-05-26T07:27:34.142Z</time>
      </trkpt>
      <trkpt lat="40.64491667" lon="-3.78421167">
        <ele>822.0</ele>
        <time>2018-05-26T07:27:35.158Z</time>
      </trkpt>
      <trkpt lat="40.64491333" lon="-3.78425667">
        <ele>822.0</ele>
        <time>2018-05-26T07:27:36.141Z</time>
      </trkpt>
      <trkpt lat="40.64491333" lon="-3.78425667">
        <ele>822.0</ele>
        <time>2018-05-26T07:27:37.147Z</time>
      </trkpt>
      <trkpt lat="40.64490333" lon="-3.78434667">
        <ele>822.0</ele>
        <time>2018-05-26T07:27:38.168Z</time>
      </trkpt>
      <trkpt lat="40.64490333" lon="-3.78434667">
        <ele>822.0</ele>
        <time>2018-05-26T07:27:39.174Z</time>
      </trkpt>
      <trkpt lat="40.64489167" lon="-3.78444333">
        <ele>823.0</ele>
        <time>2018-05-26T07:27:40.155Z</time>
      </trkpt>
      <trkpt lat="40.64488167" lon="-3.784495">
        <ele>823.0</ele>
        <time>2018-05-26T07:27:41.147Z</time>
      </trkpt>
      <trkpt lat="40.64487" lon="-3.78454167">
        <ele>823.0</ele>
        <time>2018-05-26T07:27:42.161Z</time>
      </trkpt>
      <trkpt lat="40.64487" lon="-3.78454167">
        <ele>823.0</ele>
        <time>2018-05-26T07:27:43.167Z</time>
      </trkpt>
      <trkpt lat="40.64483" lon="-3.78462333">
        <ele>822.0</ele>
        <time>2018-05-26T07:27:44.151Z</time>
      </trkpt>
      <trkpt lat="40.64482" lon="-3.784665">
        <ele>822.0</ele>
        <time>2018-05-26T07:27:45.143Z</time>
      </trkpt>
      <trkpt lat="40.64482" lon="-3.784665">
        <ele>822.0</ele>
        <time>2018-05-26T07:27:46.149Z</time>
      </trkpt>
      <trkpt lat="40.64481333" lon="-3.78476833">
        <ele>823.0</ele>
        <time>2018-05-26T07:27:47.142Z</time>
      </trkpt>
      <trkpt lat="40.64481" lon="-3.78482167">
        <ele>823.0</ele>
        <time>2018-05-26T07:27:48.140Z</time>
      </trkpt>
      <trkpt lat="40.64480667" lon="-3.78487333">
        <ele>823.0</ele>
        <time>2018-05-26T07:27:49.160Z</time>
      </trkpt>
      <trkpt lat="40.64480667" lon="-3.78487333">
        <ele>823.0</ele>
        <time>2018-05-26T07:27:50.166Z</time>
      </trkpt>
      <trkpt lat="40.64480333" lon="-3.78497167">
        <ele>823.0</ele>
        <time>2018-05-26T07:27:51.166Z</time>
      </trkpt>
      <trkpt lat="40.6448" lon="-3.78502333">
        <ele>823.0</ele>
        <time>2018-05-26T07:27:52.142Z</time>
      </trkpt>
      <trkpt lat="40.6448" lon="-3.78502333">
        <ele>823.0</ele>
        <time>2018-05-26T07:27:53.147Z</time>
      </trkpt>
      <trkpt lat="40.64479" lon="-3.78512833">
        <ele>824.0</ele>
        <time>2018-05-26T07:27:54.151Z</time>
      </trkpt>
      <trkpt lat="40.64478667" lon="-3.78518167">
        <ele>824.0</ele>
        <time>2018-05-26T07:27:55.139Z</time>
      </trkpt>
      <trkpt lat="40.64478667" lon="-3.78518167">
        <ele>824.0</ele>
        <time>2018-05-26T07:27:56.145Z</time>
      </trkpt>
      <trkpt lat="40.64477" lon="-3.78528833">
        <ele>824.0</ele>
        <time>2018-05-26T07:27:57.171Z</time>
      </trkpt>
      <trkpt lat="40.64476" lon="-3.78534">
        <ele>824.0</ele>
        <time>2018-05-26T07:27:58.153Z</time>
      </trkpt>
      <trkpt lat="40.64476" lon="-3.78534">
        <ele>824.0</ele>
        <time>2018-05-26T07:27:59.161Z</time>
      </trkpt>
      <trkpt lat="40.64474833" lon="-3.785445">
        <ele>824.0</ele>
        <time>2018-05-26T07:28:00.158Z</time>
      </trkpt>
      <trkpt lat="40.644745" lon="-3.78549667">
        <ele>824.0</ele>
        <time>2018-05-26T07:28:01.143Z</time>
      </trkpt>
      <trkpt lat="40.644745" lon="-3.78549667">
        <ele>824.0</ele>
        <time>2018-05-26T07:28:02.150Z</time>
      </trkpt>
      <trkpt lat="40.64473667" lon="-3.78560667">
        <ele>824.0</ele>
        <time>2018-05-26T07:28:03.161Z</time>
      </trkpt>
      <trkpt lat="40.64473167" lon="-3.785665">
        <ele>824.0</ele>
        <time>2018-05-26T07:28:04.148Z</time>
      </trkpt>
      <trkpt lat="40.64473167" lon="-3.785665">
        <ele>824.0</ele>
        <time>2018-05-26T07:28:05.155Z</time>
      </trkpt>
      <trkpt lat="40.64473" lon="-3.785785">
        <ele>824.0</ele>
        <time>2018-05-26T07:28:06.174Z</time>
      </trkpt>
      <trkpt lat="40.64473" lon="-3.785785">
        <ele>824.0</ele>
        <time>2018-05-26T07:28:07.140Z</time>
      </trkpt>
      <trkpt lat="40.64472333" lon="-3.78590833">
        <ele>824.0</ele>
        <time>2018-05-26T07:28:08.162Z</time>
      </trkpt>
      <trkpt lat="40.64472333" lon="-3.78590833">
        <ele>824.0</ele>
        <time>2018-05-26T07:28:09.169Z</time>
      </trkpt>
      <trkpt lat="40.644715" lon="-3.78603">
        <ele>824.0</ele>
        <time>2018-05-26T07:28:10.160Z</time>
      </trkpt>
      <trkpt lat="40.644715" lon="-3.78603">
        <ele>824.0</ele>
        <time>2018-05-26T07:28:11.167Z</time>
      </trkpt>
      <trkpt lat="40.64470167" lon="-3.78615">
        <ele>824.0</ele>
        <time>2018-05-26T07:28:12.145Z</time>
      </trkpt>
      <trkpt lat="40.64470167" lon="-3.78615">
        <ele>824.0</ele>
        <time>2018-05-26T07:28:13.150Z</time>
      </trkpt>
      <trkpt lat="40.64469" lon="-3.78627333">
        <ele>824.0</ele>
        <time>2018-05-26T07:28:14.145Z</time>
      </trkpt>
      <trkpt lat="40.64469" lon="-3.78627333">
        <ele>824.0</ele>
        <time>2018-05-26T07:28:15.152Z</time>
      </trkpt>
      <trkpt lat="40.64468667" lon="-3.78639667">
        <ele>825.0</ele>
        <time>2018-05-26T07:28:16.175Z</time>
      </trkpt>
      <trkpt lat="40.64468667" lon="-3.78639667">
        <ele>825.0</ele>
        <time>2018-05-26T07:28:17.141Z</time>
      </trkpt>
      <trkpt lat="40.64468333" lon="-3.786525">
        <ele>825.0</ele>
        <time>2018-05-26T07:28:18.158Z</time>
      </trkpt>
      <trkpt lat="40.64468333" lon="-3.786525">
        <ele>825.0</ele>
        <time>2018-05-26T07:28:19.164Z</time>
      </trkpt>
      <trkpt lat="40.64467667" lon="-3.78665167">
        <ele>825.0</ele>
        <time>2018-05-26T07:28:20.151Z</time>
      </trkpt>
      <trkpt lat="40.64467667" lon="-3.78665167">
        <ele>825.0</ele>
        <time>2018-05-26T07:28:21.139Z</time>
      </trkpt>
      <trkpt lat="40.64467667" lon="-3.78678333">
        <ele>825.0</ele>
        <time>2018-05-26T07:28:22.167Z</time>
      </trkpt>
      <trkpt lat="40.64467667" lon="-3.78678333">
        <ele>825.0</ele>
        <time>2018-05-26T07:28:23.173Z</time>
      </trkpt>
      <trkpt lat="40.64467833" lon="-3.78692">
        <ele>825.0</ele>
        <time>2018-05-26T07:28:24.152Z</time>
      </trkpt>
      <trkpt lat="40.64467833" lon="-3.78692">
        <ele>825.0</ele>
        <time>2018-05-26T07:28:25.161Z</time>
      </trkpt>
      <trkpt lat="40.64467667" lon="-3.78705833">
        <ele>826.0</ele>
        <time>2018-05-26T07:28:26.149Z</time>
      </trkpt>
      <trkpt lat="40.64468" lon="-3.78712833">
        <ele>826.0</ele>
        <time>2018-05-26T07:28:27.166Z</time>
      </trkpt>
      <trkpt lat="40.64468" lon="-3.78712833">
        <ele>826.0</ele>
        <time>2018-05-26T07:28:28.172Z</time>
      </trkpt>
      <trkpt lat="40.64469" lon="-3.78726667">
        <ele>826.0</ele>
        <time>2018-05-26T07:28:29.154Z</time>
      </trkpt>
      <trkpt lat="40.64469" lon="-3.78726667">
        <ele>826.0</ele>
        <time>2018-05-26T07:28:30.160Z</time>
      </trkpt>
      <trkpt lat="40.64470167" lon="-3.78741167">
        <ele>826.0</ele>
        <time>2018-05-26T07:28:31.145Z</time>
      </trkpt>
      <trkpt lat="40.64470167" lon="-3.78741167">
        <ele>826.0</ele>
        <time>2018-05-26T07:28:32.152Z</time>
      </trkpt>
      <trkpt lat="40.64471333" lon="-3.78756333">
        <ele>826.0</ele>
        <time>2018-05-26T07:28:33.174Z</time>
      </trkpt>
      <trkpt lat="40.64472167" lon="-3.78763833">
        <ele>826.0</ele>
        <time>2018-05-26T07:28:34.158Z</time>
      </trkpt>
      <trkpt lat="40.64472167" lon="-3.78763833">
        <ele>826.0</ele>
        <time>2018-05-26T07:28:35.164Z</time>
      </trkpt>
      <trkpt lat="40.64474333" lon="-3.78778167">
        <ele>827.0</ele>
        <time>2018-05-26T07:28:36.144Z</time>
      </trkpt>
      <trkpt lat="40.64474333" lon="-3.78778167">
        <ele>827.0</ele>
        <time>2018-05-26T07:28:37.158Z</time>
      </trkpt>
      <trkpt lat="40.64476167" lon="-3.78792667">
        <ele>827.0</ele>
        <time>2018-05-26T07:28:38.137Z</time>
      </trkpt>
      <trkpt lat="40.64477167" lon="-3.788">
        <ele>827.0</ele>
        <time>2018-05-26T07:28:39.173Z</time>
      </trkpt>
      <trkpt lat="40.64477167" lon="-3.788">
        <ele>827.0</ele>
        <time>2018-05-26T07:28:40.139Z</time>
      </trkpt>
      <trkpt lat="40.64479" lon="-3.78814833">
        <ele>828.0</ele>
        <time>2018-05-26T07:28:41.155Z</time>
      </trkpt>
      <trkpt lat="40.64479" lon="-3.78814833">
        <ele>828.0</ele>
        <time>2018-05-26T07:28:42.161Z</time>
      </trkpt>
      <trkpt lat="40.64480833" lon="-3.78829">
        <ele>828.0</ele>
        <time>2018-05-26T07:28:43.166Z</time>
      </trkpt>
      <trkpt lat="40.64480833" lon="-3.78829">
        <ele>828.0</ele>
        <time>2018-05-26T07:28:44.173Z</time>
      </trkpt>
      <trkpt lat="40.644835" lon="-3.78843333">
        <ele>828.0</ele>
        <time>2018-05-26T07:28:45.155Z</time>
      </trkpt>
      <trkpt lat="40.64484667" lon="-3.788505">
        <ele>828.0</ele>
        <time>2018-05-26T07:28:46.138Z</time>
      </trkpt>
      <trkpt lat="40.64484667" lon="-3.788505">
        <ele>828.0</ele>
        <time>2018-05-26T07:28:47.144Z</time>
      </trkpt>
      <trkpt lat="40.64487" lon="-3.78864333">
        <ele>828.0</ele>
        <time>2018-05-26T07:28:48.161Z</time>
      </trkpt>
      <trkpt lat="40.64487" lon="-3.78864333">
        <ele>828.0</ele>
        <time>2018-05-26T07:28:49.167Z</time>
      </trkpt>
      <trkpt lat="40.644895" lon="-3.78878167">
        <ele>828.0</ele>
        <time>2018-05-26T07:28:50.152Z</time>
      </trkpt>
      <trkpt lat="40.644895" lon="-3.78878167">
        <ele>828.0</ele>
        <time>2018-05-26T07:28:51.160Z</time>
      </trkpt>
      <trkpt lat="40.64491833" lon="-3.78892167">
        <ele>828.0</ele>
        <time>2018-05-26T07:28:52.150Z</time>
      </trkpt>
      <trkpt lat="40.64491833" lon="-3.78892167">
        <ele>828.0</ele>
        <time>2018-05-26T07:28:53.158Z</time>
      </trkpt>
      <trkpt lat="40.64494833" lon="-3.78905167">
        <ele>828.0</ele>
        <time>2018-05-26T07:28:54.175Z</time>
      </trkpt>
      <trkpt lat="40.64494833" lon="-3.78905167">
        <ele>828.0</ele>
        <time>2018-05-26T07:28:55.142Z</time>
      </trkpt>
      <trkpt lat="40.644985" lon="-3.789175">
        <ele>829.0</ele>
        <time>2018-05-26T07:28:56.157Z</time>
      </trkpt>
      <trkpt lat="40.645005" lon="-3.78923667">
        <ele>829.0</ele>
        <time>2018-05-26T07:28:57.153Z</time>
      </trkpt>
      <trkpt lat="40.645005" lon="-3.78923667">
        <ele>829.0</ele>
        <time>2018-05-26T07:28:58.160Z</time>
      </trkpt>
      <trkpt lat="40.645035" lon="-3.78935667">
        <ele>829.0</ele>
        <time>2018-05-26T07:28:59.138Z</time>
      </trkpt>
      <trkpt lat="40.645035" lon="-3.78935667">
        <ele>829.0</ele>
        <time>2018-05-26T07:29:00.158Z</time>
      </trkpt>
      <trkpt lat="40.64506667" lon="-3.78947667">
        <ele>829.0</ele>
        <time>2018-05-26T07:29:01.147Z</time>
      </trkpt>
      <trkpt lat="40.64506667" lon="-3.78947667">
        <ele>829.0</ele>
        <time>2018-05-26T07:29:02.153Z</time>
      </trkpt>
      <trkpt lat="40.64511" lon="-3.78959667">
        <ele>829.0</ele>
        <time>2018-05-26T07:29:03.174Z</time>
      </trkpt>
      <trkpt lat="40.64511" lon="-3.78959667">
        <ele>829.0</ele>
        <time>2018-05-26T07:29:04.141Z</time>
      </trkpt>
      <trkpt lat="40.64514833" lon="-3.78970333">
        <ele>829.0</ele>
        <time>2018-05-26T07:29:05.142Z</time>
      </trkpt>
      <trkpt lat="40.64516833" lon="-3.78976">
        <ele>829.0</ele>
        <time>2018-05-26T07:29:06.167Z</time>
      </trkpt>
      <trkpt lat="40.64516833" lon="-3.78976">
        <ele>829.0</ele>
        <time>2018-05-26T07:29:07.172Z</time>
      </trkpt>
      <trkpt lat="40.645205" lon="-3.78986833">
        <ele>829.0</ele>
        <time>2018-05-26T07:29:08.159Z</time>
      </trkpt>
      <trkpt lat="40.645205" lon="-3.78986833">
        <ele>829.0</ele>
        <time>2018-05-26T07:29:09.165Z</time>
      </trkpt>
      <trkpt lat="40.64524" lon="-3.78996833">
        <ele>829.0</ele>
        <time>2018-05-26T07:29:10.143Z</time>
      </trkpt>
      <trkpt lat="40.64524" lon="-3.78996833">
        <ele>829.0</ele>
        <time>2018-05-26T07:29:11.148Z</time>
      </trkpt>
      <trkpt lat="40.645285" lon="-3.79007333">
        <ele>828.0</ele>
        <time>2018-05-26T07:29:12.173Z</time>
      </trkpt>
      <trkpt lat="40.645285" lon="-3.79007333">
        <ele>828.0</ele>
        <time>2018-05-26T07:29:13.139Z</time>
      </trkpt>
      <trkpt lat="40.64532833" lon="-3.79017833">
        <ele>829.0</ele>
        <time>2018-05-26T07:29:14.161Z</time>
      </trkpt>
      <trkpt lat="40.64532833" lon="-3.79017833">
        <ele>829.0</ele>
        <time>2018-05-26T07:29:15.167Z</time>
      </trkpt>
      <trkpt lat="40.645375" lon="-3.79028333">
        <ele>829.0</ele>
        <time>2018-05-26T07:29:16.155Z</time>
      </trkpt>
      <trkpt lat="40.645375" lon="-3.79028333">
        <ele>829.0</ele>
        <time>2018-05-26T07:29:17.160Z</time>
      </trkpt>
      <trkpt lat="40.64542" lon="-3.790385">
        <ele>829.0</ele>
        <time>2018-05-26T07:29:18.144Z</time>
      </trkpt>
      <trkpt lat="40.64542" lon="-3.790385">
        <ele>829.0</ele>
        <time>2018-05-26T07:29:19.151Z</time>
      </trkpt>
      <trkpt lat="40.64546667" lon="-3.79048167">
        <ele>830.0</ele>
        <time>2018-05-26T07:29:20.147Z</time>
      </trkpt>
      <trkpt lat="40.64549" lon="-3.79053333">
        <ele>830.0</ele>
        <time>2018-05-26T07:29:21.145Z</time>
      </trkpt>
      <trkpt lat="40.64549" lon="-3.79053333">
        <ele>830.0</ele>
        <time>2018-05-26T07:29:22.151Z</time>
      </trkpt>
      <trkpt lat="40.64553833" lon="-3.790635">
        <ele>830.0</ele>
        <time>2018-05-26T07:29:23.147Z</time>
      </trkpt>
      <trkpt lat="40.64556333" lon="-3.790685">
        <ele>830.0</ele>
        <time>2018-05-26T07:29:24.140Z</time>
      </trkpt>
      <trkpt lat="40.64556333" lon="-3.790685">
        <ele>830.0</ele>
        <time>2018-05-26T07:29:25.145Z</time>
      </trkpt>
      <trkpt lat="40.64561833" lon="-3.79078833">
        <ele>830.0</ele>
        <time>2018-05-26T07:29:26.163Z</time>
      </trkpt>
      <trkpt lat="40.64564667" lon="-3.79084">
        <ele>830.0</ele>
        <time>2018-05-26T07:29:27.152Z</time>
      </trkpt>
      <trkpt lat="40.64564667" lon="-3.79084">
        <ele>830.0</ele>
        <time>2018-05-26T07:29:28.160Z</time>
      </trkpt>
      <trkpt lat="40.64570667" lon="-3.79093833">
        <ele>830.0</ele>
        <time>2018-05-26T07:29:29.150Z</time>
      </trkpt>
      <trkpt lat="40.64570667" lon="-3.79093833">
        <ele>830.0</ele>
        <time>2018-05-26T07:29:30.159Z</time>
      </trkpt>
      <trkpt lat="40.645765" lon="-3.79103667">
        <ele>830.0</ele>
        <time>2018-05-26T07:29:31.141Z</time>
      </trkpt>
      <trkpt lat="40.645765" lon="-3.79103667">
        <ele>830.0</ele>
        <time>2018-05-26T07:29:32.147Z</time>
      </trkpt>
      <trkpt lat="40.64582167" lon="-3.79113333">
        <ele>830.0</ele>
        <time>2018-05-26T07:29:33.163Z</time>
      </trkpt>
      <trkpt lat="40.64582167" lon="-3.79113333">
        <ele>830.0</ele>
        <time>2018-05-26T07:29:34.172Z</time>
      </trkpt>
      <trkpt lat="40.64587667" lon="-3.79122833">
        <ele>830.0</ele>
        <time>2018-05-26T07:29:35.153Z</time>
      </trkpt>
      <trkpt lat="40.64590833" lon="-3.79127667">
        <ele>830.0</ele>
        <time>2018-05-26T07:29:36.138Z</time>
      </trkpt>
      <trkpt lat="40.64590833" lon="-3.79127667">
        <ele>830.0</ele>
        <time>2018-05-26T07:29:37.144Z</time>
      </trkpt>
      <trkpt lat="40.64596667" lon="-3.79137333">
        <ele>830.0</ele>
        <time>2018-05-26T07:29:38.176Z</time>
      </trkpt>
      <trkpt lat="40.64599333" lon="-3.79142">
        <ele>830.0</ele>
        <time>2018-05-26T07:29:39.154Z</time>
      </trkpt>
      <trkpt lat="40.64599333" lon="-3.79142">
        <ele>830.0</ele>
        <time>2018-05-26T07:29:40.159Z</time>
      </trkpt>
      <trkpt lat="40.646055" lon="-3.79151333">
        <ele>831.0</ele>
        <time>2018-05-26T07:29:41.152Z</time>
      </trkpt>
      <trkpt lat="40.646055" lon="-3.79151333">
        <ele>831.0</ele>
        <time>2018-05-26T07:29:42.161Z</time>
      </trkpt>
      <trkpt lat="40.646115" lon="-3.79160667">
        <ele>831.0</ele>
        <time>2018-05-26T07:29:43.147Z</time>
      </trkpt>
      <trkpt lat="40.646115" lon="-3.79160667">
        <ele>831.0</ele>
        <time>2018-05-26T07:29:44.152Z</time>
      </trkpt>
      <trkpt lat="40.646175" lon="-3.79169833">
        <ele>831.0</ele>
        <time>2018-05-26T07:29:45.171Z</time>
      </trkpt>
      <trkpt lat="40.646175" lon="-3.79169833">
        <ele>831.0</ele>
        <time>2018-05-26T07:29:46.136Z</time>
      </trkpt>
      <trkpt lat="40.64624167" lon="-3.79178333">
        <ele>831.0</ele>
        <time>2018-05-26T07:29:47.156Z</time>
      </trkpt>
      <trkpt lat="40.64624167" lon="-3.79178333">
        <ele>831.0</ele>
        <time>2018-05-26T07:29:48.163Z</time>
      </trkpt>
      <trkpt lat="40.64631" lon="-3.79187167">
        <ele>832.0</ele>
        <time>2018-05-26T07:29:49.147Z</time>
      </trkpt>
      <trkpt lat="40.64631" lon="-3.79187167">
        <ele>832.0</ele>
        <time>2018-05-26T07:29:50.161Z</time>
      </trkpt>
      <trkpt lat="40.64637667" lon="-3.79195667">
        <ele>832.0</ele>
        <time>2018-05-26T07:29:51.136Z</time>
      </trkpt>
      <trkpt lat="40.64641" lon="-3.79199667">
        <ele>832.0</ele>
        <time>2018-05-26T07:29:52.158Z</time>
      </trkpt>
      <trkpt lat="40.64641" lon="-3.79199667">
        <ele>832.0</ele>
        <time>2018-05-26T07:29:53.164Z</time>
      </trkpt>
      <trkpt lat="40.64647833" lon="-3.79207167">
        <ele>832.0</ele>
        <time>2018-05-26T07:29:54.147Z</time>
      </trkpt>
      <trkpt lat="40.64647833" lon="-3.79207167">
        <ele>832.0</ele>
        <time>2018-05-26T07:29:55.155Z</time>
      </trkpt>
      <trkpt lat="40.64654667" lon="-3.79215333">
        <ele>832.0</ele>
        <time>2018-05-26T07:29:56.144Z</time>
      </trkpt>
      <trkpt lat="40.64654667" lon="-3.79215333">
        <ele>832.0</ele>
        <time>2018-05-26T07:29:57.150Z</time>
      </trkpt>
      <trkpt lat="40.64661833" lon="-3.79223167">
        <ele>832.0</ele>
        <time>2018-05-26T07:29:58.175Z</time>
      </trkpt>
      <trkpt lat="40.64661833" lon="-3.79223167">
        <ele>832.0</ele>
        <time>2018-05-26T07:29:59.142Z</time>
      </trkpt>
      <trkpt lat="40.64668833" lon="-3.79230667">
        <ele>832.0</ele>
        <time>2018-05-26T07:30:00.141Z</time>
      </trkpt>
      <trkpt lat="40.64672167" lon="-3.79234167">
        <ele>832.0</ele>
        <time>2018-05-26T07:30:01.155Z</time>
      </trkpt>
      <trkpt lat="40.64672167" lon="-3.79234167">
        <ele>832.0</ele>
        <time>2018-05-26T07:30:02.162Z</time>
      </trkpt>
      <trkpt lat="40.646795" lon="-3.79241167">
        <ele>833.0</ele>
        <time>2018-05-26T07:30:03.147Z</time>
      </trkpt>
      <trkpt lat="40.646795" lon="-3.79241167">
        <ele>833.0</ele>
        <time>2018-05-26T07:30:04.162Z</time>
      </trkpt>
      <trkpt lat="40.64686833" lon="-3.79248">
        <ele>833.0</ele>
        <time>2018-05-26T07:30:05.158Z</time>
      </trkpt>
      <trkpt lat="40.64690333" lon="-3.79251667">
        <ele>833.0</ele>
        <time>2018-05-26T07:30:06.174Z</time>
      </trkpt>
      <trkpt lat="40.64690333" lon="-3.79251667">
        <ele>833.0</ele>
        <time>2018-05-26T07:30:07.140Z</time>
      </trkpt>
      <trkpt lat="40.64697333" lon="-3.79258833">
        <ele>833.0</ele>
        <time>2018-05-26T07:30:08.165Z</time>
      </trkpt>
      <trkpt lat="40.64701167" lon="-3.79262167">
        <ele>833.0</ele>
        <time>2018-05-26T07:30:09.143Z</time>
      </trkpt>
      <trkpt lat="40.64701167" lon="-3.79262167">
        <ele>833.0</ele>
        <time>2018-05-26T07:30:10.150Z</time>
      </trkpt>
      <trkpt lat="40.64709" lon="-3.79269">
        <ele>833.0</ele>
        <time>2018-05-26T07:30:11.153Z</time>
      </trkpt>
      <trkpt lat="40.64713" lon="-3.79272833">
        <ele>833.0</ele>
        <time>2018-05-26T07:30:12.173Z</time>
      </trkpt>
      <trkpt lat="40.64713" lon="-3.79272833">
        <ele>833.0</ele>
        <time>2018-05-26T07:30:13.139Z</time>
      </trkpt>
      <trkpt lat="40.64721" lon="-3.79279333">
        <ele>833.0</ele>
        <time>2018-05-26T07:30:14.160Z</time>
      </trkpt>
      <trkpt lat="40.64721" lon="-3.79279333">
        <ele>833.0</ele>
        <time>2018-05-26T07:30:15.167Z</time>
      </trkpt>
      <trkpt lat="40.64729" lon="-3.79285833">
        <ele>833.0</ele>
        <time>2018-05-26T07:30:16.151Z</time>
      </trkpt>
      <trkpt lat="40.64729" lon="-3.79285833">
        <ele>833.0</ele>
        <time>2018-05-26T07:30:17.158Z</time>
      </trkpt>
      <trkpt lat="40.647375" lon="-3.79292167">
        <ele>833.0</ele>
        <time>2018-05-26T07:30:18.145Z</time>
      </trkpt>
      <trkpt lat="40.647375" lon="-3.79292167">
        <ele>833.0</ele>
        <time>2018-05-26T07:30:19.150Z</time>
      </trkpt>
      <trkpt lat="40.64745833" lon="-3.79298333">
        <ele>833.0</ele>
        <time>2018-05-26T07:30:20.151Z</time>
      </trkpt>
      <trkpt lat="40.6475" lon="-3.793015">
        <ele>833.0</ele>
        <time>2018-05-26T07:30:21.141Z</time>
      </trkpt>
      <trkpt lat="40.6475" lon="-3.793015">
        <ele>833.0</ele>
        <time>2018-05-26T07:30:22.147Z</time>
      </trkpt>
      <trkpt lat="40.64758333" lon="-3.79307667">
        <ele>833.0</ele>
        <time>2018-05-26T07:30:23.175Z</time>
      </trkpt>
      <trkpt lat="40.64762667" lon="-3.79310333">
        <ele>833.0</ele>
        <time>2018-05-26T07:30:24.163Z</time>
      </trkpt>
      <trkpt lat="40.64762667" lon="-3.79310333">
        <ele>833.0</ele>
        <time>2018-05-26T07:30:25.169Z</time>
      </trkpt>
      <trkpt lat="40.64771667" lon="-3.79316">
        <ele>833.0</ele>
        <time>2018-05-26T07:30:26.153Z</time>
      </trkpt>
      <trkpt lat="40.64771667" lon="-3.79316">
        <ele>833.0</ele>
        <time>2018-05-26T07:30:27.161Z</time>
      </trkpt>
      <trkpt lat="40.647805" lon="-3.79321833">
        <ele>834.0</ele>
        <time>2018-05-26T07:30:28.150Z</time>
      </trkpt>
      <trkpt lat="40.64785" lon="-3.793245">
        <ele>834.0</ele>
        <time>2018-05-26T07:30:29.172Z</time>
      </trkpt>
      <trkpt lat="40.64785" lon="-3.793245">
        <ele>834.0</ele>
        <time>2018-05-26T07:30:30.138Z</time>
      </trkpt>
      <trkpt lat="40.64793833" lon="-3.79329667">
        <ele>834.0</ele>
        <time>2018-05-26T07:30:31.162Z</time>
      </trkpt>
      <trkpt lat="40.64793833" lon="-3.79329667">
        <ele>834.0</ele>
        <time>2018-05-26T07:30:32.169Z</time>
      </trkpt>
      <trkpt lat="40.64802833" lon="-3.79335">
        <ele>834.0</ele>
        <time>2018-05-26T07:30:33.162Z</time>
      </trkpt>
      <trkpt lat="40.64802833" lon="-3.79335">
        <ele>834.0</ele>
        <time>2018-05-26T07:30:34.168Z</time>
      </trkpt>
      <trkpt lat="40.648125" lon="-3.79339333">
        <ele>834.0</ele>
        <time>2018-05-26T07:30:35.147Z</time>
      </trkpt>
      <trkpt lat="40.64817333" lon="-3.79342167">
        <ele>834.0</ele>
        <time>2018-05-26T07:30:36.136Z</time>
      </trkpt>
      <trkpt lat="40.64817333" lon="-3.79342167">
        <ele>834.0</ele>
        <time>2018-05-26T07:30:37.142Z</time>
      </trkpt>
      <trkpt lat="40.64827" lon="-3.79347">
        <ele>834.0</ele>
        <time>2018-05-26T07:30:38.167Z</time>
      </trkpt>
      <trkpt lat="40.64832" lon="-3.79349833">
        <ele>834.0</ele>
        <time>2018-05-26T07:30:39.145Z</time>
      </trkpt>
      <trkpt lat="40.64832" lon="-3.79349833">
        <ele>834.0</ele>
        <time>2018-05-26T07:30:40.151Z</time>
      </trkpt>
      <trkpt lat="40.64841833" lon="-3.79354667">
        <ele>835.0</ele>
        <time>2018-05-26T07:30:41.141Z</time>
      </trkpt>
      <trkpt lat="40.64846667" lon="-3.79356667">
        <ele>835.0</ele>
        <time>2018-05-26T07:30:42.157Z</time>
      </trkpt>
      <trkpt lat="40.64846667" lon="-3.79356667">
        <ele>835.0</ele>
        <time>2018-05-26T07:30:43.164Z</time>
      </trkpt>
      <trkpt lat="40.64856667" lon="-3.79361167">
        <ele>835.0</ele>
        <time>2018-05-26T07:30:44.152Z</time>
      </trkpt>
      <trkpt lat="40.64856667" lon="-3.79361167">
        <ele>835.0</ele>
        <time>2018-05-26T07:30:45.160Z</time>
      </trkpt>
      <trkpt lat="40.64866833" lon="-3.79365667">
        <ele>835.0</ele>
        <time>2018-05-26T07:30:46.148Z</time>
      </trkpt>
      <trkpt lat="40.64871833" lon="-3.793675">
        <ele>835.0</ele>
        <time>2018-05-26T07:30:47.174Z</time>
      </trkpt>
      <trkpt lat="40.64871833" lon="-3.793675">
        <ele>835.0</ele>
        <time>2018-05-26T07:30:48.139Z</time>
      </trkpt>
      <trkpt lat="40.64881833" lon="-3.79371833">
        <ele>835.0</ele>
        <time>2018-05-26T07:30:49.159Z</time>
      </trkpt>
      <trkpt lat="40.64881833" lon="-3.79371833">
        <ele>835.0</ele>
        <time>2018-05-26T07:30:50.166Z</time>
      </trkpt>
      <trkpt lat="40.64892167" lon="-3.79376">
        <ele>835.0</ele>
        <time>2018-05-26T07:30:51.145Z</time>
      </trkpt>
      <trkpt lat="40.64897167" lon="-3.79378333">
        <ele>836.0</ele>
        <time>2018-05-26T07:30:52.160Z</time>
      </trkpt>
      <trkpt lat="40.64897167" lon="-3.79378333">
        <ele>836.0</ele>
        <time>2018-05-26T07:30:53.165Z</time>
      </trkpt>
      <trkpt lat="40.64907667" lon="-3.79382833">
        <ele>836.0</ele>
        <time>2018-05-26T07:30:54.144Z</time>
      </trkpt>
      <trkpt lat="40.64907667" lon="-3.79382833">
        <ele>836.0</ele>
        <time>2018-05-26T07:30:55.149Z</time>
      </trkpt>
      <trkpt lat="40.64918" lon="-3.79386833">
        <ele>836.0</ele>
        <time>2018-05-26T07:30:56.146Z</time>
      </trkpt>
      <trkpt lat="40.64918" lon="-3.79386833">
        <ele>836.0</ele>
        <time>2018-05-26T07:30:57.167Z</time>
      </trkpt>
      <trkpt lat="40.64928667" lon="-3.79390667">
        <ele>836.0</ele>
        <time>2018-05-26T07:30:58.154Z</time>
      </trkpt>
      <trkpt lat="40.64928667" lon="-3.79390667">
        <ele>836.0</ele>
        <time>2018-05-26T07:30:59.161Z</time>
      </trkpt>
      <trkpt lat="40.64939167" lon="-3.79395167">
        <ele>836.0</ele>
        <time>2018-05-26T07:31:00.157Z</time>
      </trkpt>
      <trkpt lat="40.649445" lon="-3.793975">
        <ele>836.0</ele>
        <time>2018-05-26T07:31:01.169Z</time>
      </trkpt>
      <trkpt lat="40.649445" lon="-3.793975">
        <ele>836.0</ele>
        <time>2018-05-26T07:31:02.136Z</time>
      </trkpt>
      <trkpt lat="40.64955333" lon="-3.794015">
        <ele>836.0</ele>
        <time>2018-05-26T07:31:03.151Z</time>
      </trkpt>
      <trkpt lat="40.64955333" lon="-3.794015">
        <ele>836.0</ele>
        <time>2018-05-26T07:31:04.158Z</time>
      </trkpt>
      <trkpt lat="40.64966333" lon="-3.79404667">
        <ele>836.0</ele>
        <time>2018-05-26T07:31:05.142Z</time>
      </trkpt>
      <trkpt lat="40.64971833" lon="-3.79405833">
        <ele>836.0</ele>
        <time>2018-05-26T07:31:06.167Z</time>
      </trkpt>
      <trkpt lat="40.64971833" lon="-3.79405833">
        <ele>836.0</ele>
        <time>2018-05-26T07:31:07.174Z</time>
      </trkpt>
      <trkpt lat="40.64983" lon="-3.7941">
        <ele>835.0</ele>
        <time>2018-05-26T07:31:08.155Z</time>
      </trkpt>
      <trkpt lat="40.64983" lon="-3.7941">
        <ele>835.0</ele>
        <time>2018-05-26T07:31:09.161Z</time>
      </trkpt>
      <trkpt lat="40.64993667" lon="-3.79414167">
        <ele>836.0</ele>
        <time>2018-05-26T07:31:10.145Z</time>
      </trkpt>
      <trkpt lat="40.64999" lon="-3.79416">
        <ele>836.0</ele>
        <time>2018-05-26T07:31:11.163Z</time>
      </trkpt>
      <trkpt lat="40.64999" lon="-3.79416">
        <ele>836.0</ele>
        <time>2018-05-26T07:31:12.169Z</time>
      </trkpt>
      <trkpt lat="40.65009167" lon="-3.7942">
        <ele>836.0</ele>
        <time>2018-05-26T07:31:13.161Z</time>
      </trkpt>
      <trkpt lat="40.65009167" lon="-3.7942">
        <ele>836.0</ele>
        <time>2018-05-26T07:31:14.168Z</time>
      </trkpt>
      <trkpt lat="40.65019333" lon="-3.79424167">
        <ele>836.0</ele>
        <time>2018-05-26T07:31:15.169Z</time>
      </trkpt>
      <trkpt lat="40.65019333" lon="-3.79424167">
        <ele>836.0</ele>
        <time>2018-05-26T07:31:16.175Z</time>
      </trkpt>
      <trkpt lat="40.65029333" lon="-3.79428333">
        <ele>836.0</ele>
        <time>2018-05-26T07:31:17.160Z</time>
      </trkpt>
      <trkpt lat="40.65034333" lon="-3.794305">
        <ele>836.0</ele>
        <time>2018-05-26T07:31:18.138Z</time>
      </trkpt>
      <trkpt lat="40.65034333" lon="-3.794305">
        <ele>836.0</ele>
        <time>2018-05-26T07:31:19.144Z</time>
      </trkpt>
      <trkpt lat="40.65044833" lon="-3.79434333">
        <ele>836.0</ele>
        <time>2018-05-26T07:31:20.169Z</time>
      </trkpt>
      <trkpt lat="40.65044833" lon="-3.79434333">
        <ele>836.0</ele>
        <time>2018-05-26T07:31:21.150Z</time>
      </trkpt>
      <trkpt lat="40.650555" lon="-3.79438167">
        <ele>836.0</ele>
        <time>2018-05-26T07:31:22.144Z</time>
      </trkpt>
      <trkpt lat="40.650555" lon="-3.79438167">
        <ele>836.0</ele>
        <time>2018-05-26T07:31:23.151Z</time>
      </trkpt>
      <trkpt lat="40.650665" lon="-3.79442333">
        <ele>836.0</ele>
        <time>2018-05-26T07:31:24.146Z</time>
      </trkpt>
      <trkpt lat="40.650665" lon="-3.79442333">
        <ele>836.0</ele>
        <time>2018-05-26T07:31:25.152Z</time>
      </trkpt>
      <trkpt lat="40.65078167" lon="-3.79446833">
        <ele>836.0</ele>
        <time>2018-05-26T07:31:26.150Z</time>
      </trkpt>
      <trkpt lat="40.65078167" lon="-3.79446833">
        <ele>836.0</ele>
        <time>2018-05-26T07:31:27.175Z</time>
      </trkpt>
      <trkpt lat="40.65090167" lon="-3.79451667">
        <ele>836.0</ele>
        <time>2018-05-26T07:31:28.159Z</time>
      </trkpt>
      <trkpt lat="40.65090167" lon="-3.79451667">
        <ele>836.0</ele>
        <time>2018-05-26T07:31:29.164Z</time>
      </trkpt>
      <trkpt lat="40.65102667" lon="-3.79456667">
        <ele>836.0</ele>
        <time>2018-05-26T07:31:30.150Z</time>
      </trkpt>
      <trkpt lat="40.65102667" lon="-3.79456667">
        <ele>836.0</ele>
        <time>2018-05-26T07:31:31.156Z</time>
      </trkpt>
      <trkpt lat="40.65116" lon="-3.79461667">
        <ele>836.0</ele>
        <time>2018-05-26T07:31:32.139Z</time>
      </trkpt>
      <trkpt lat="40.65123" lon="-3.79464333">
        <ele>836.0</ele>
        <time>2018-05-26T07:31:33.162Z</time>
      </trkpt>
      <trkpt lat="40.65123" lon="-3.79464333">
        <ele>836.0</ele>
        <time>2018-05-26T07:31:34.169Z</time>
      </trkpt>
      <trkpt lat="40.65137167" lon="-3.79469667">
        <ele>836.0</ele>
        <time>2018-05-26T07:31:35.153Z</time>
      </trkpt>
      <trkpt lat="40.65144167" lon="-3.79472167">
        <ele>836.0</ele>
        <time>2018-05-26T07:31:36.140Z</time>
      </trkpt>
      <trkpt lat="40.65151" lon="-3.79474833">
        <ele>836.0</ele>
        <time>2018-05-26T07:31:37.160Z</time>
      </trkpt>
      <trkpt lat="40.65151" lon="-3.79474833">
        <ele>836.0</ele>
        <time>2018-05-26T07:31:38.166Z</time>
      </trkpt>
      <trkpt lat="40.651645" lon="-3.79480167">
        <ele>837.0</ele>
        <time>2018-05-26T07:31:39.145Z</time>
      </trkpt>
      <trkpt lat="40.65171167" lon="-3.79482833">
        <ele>837.0</ele>
        <time>2018-05-26T07:31:40.141Z</time>
      </trkpt>
      <trkpt lat="40.65177667" lon="-3.794855">
        <ele>837.0</ele>
        <time>2018-05-26T07:31:41.162Z</time>
      </trkpt>
      <trkpt lat="40.65177667" lon="-3.794855">
        <ele>837.0</ele>
        <time>2018-05-26T07:31:42.168Z</time>
      </trkpt>
      <trkpt lat="40.65190833" lon="-3.79490833">
        <ele>838.0</ele>
        <time>2018-05-26T07:31:43.172Z</time>
      </trkpt>
      <trkpt lat="40.65190833" lon="-3.79490833">
        <ele>838.0</ele>
        <time>2018-05-26T07:31:44.139Z</time>
      </trkpt>
      <trkpt lat="40.65204167" lon="-3.79495667">
        <ele>838.0</ele>
        <time>2018-05-26T07:31:45.168Z</time>
      </trkpt>
      <trkpt lat="40.65210667" lon="-3.79498167">
        <ele>838.0</ele>
        <time>2018-05-26T07:31:46.160Z</time>
      </trkpt>
      <trkpt lat="40.65210667" lon="-3.79498167">
        <ele>838.0</ele>
        <time>2018-05-26T07:31:47.167Z</time>
      </trkpt>
      <trkpt lat="40.65223667" lon="-3.79502833">
        <ele>838.0</ele>
        <time>2018-05-26T07:31:48.153Z</time>
      </trkpt>
      <trkpt lat="40.65229833" lon="-3.79505333">
        <ele>838.0</ele>
        <time>2018-05-26T07:31:49.175Z</time>
      </trkpt>
      <trkpt lat="40.65229833" lon="-3.79505333">
        <ele>838.0</ele>
        <time>2018-05-26T07:31:50.141Z</time>
      </trkpt>
      <trkpt lat="40.65242667" lon="-3.79510167">
        <ele>838.0</ele>
        <time>2018-05-26T07:31:51.162Z</time>
      </trkpt>
      <trkpt lat="40.65242667" lon="-3.79510167">
        <ele>838.0</ele>
        <time>2018-05-26T07:31:52.168Z</time>
      </trkpt>
      <trkpt lat="40.652555" lon="-3.79515333">
        <ele>838.0</ele>
        <time>2018-05-26T07:31:53.156Z</time>
      </trkpt>
      <trkpt lat="40.65262167" lon="-3.79517667">
        <ele>838.0</ele>
        <time>2018-05-26T07:31:54.148Z</time>
      </trkpt>
      <trkpt lat="40.65262167" lon="-3.79517667">
        <ele>838.0</ele>
        <time>2018-05-26T07:31:55.161Z</time>
      </trkpt>
      <trkpt lat="40.652755" lon="-3.79522833">
        <ele>839.0</ele>
        <time>2018-05-26T07:31:56.147Z</time>
      </trkpt>
      <trkpt lat="40.652755" lon="-3.79522833">
        <ele>839.0</ele>
        <time>2018-05-26T07:31:57.153Z</time>
      </trkpt>
      <trkpt lat="40.65289167" lon="-3.79528667">
        <ele>839.0</ele>
        <time>2018-05-26T07:31:58.173Z</time>
      </trkpt>
      <trkpt lat="40.65296" lon="-3.79531333">
        <ele>838.0</ele>
        <time>2018-05-26T07:31:59.155Z</time>
      </trkpt>
      <trkpt lat="40.65296" lon="-3.79531333">
        <ele>838.0</ele>
        <time>2018-05-26T07:32:00.171Z</time>
      </trkpt>
      <trkpt lat="40.65309667" lon="-3.79537167">
        <ele>839.0</ele>
        <time>2018-05-26T07:32:01.159Z</time>
      </trkpt>
      <trkpt lat="40.65309667" lon="-3.79537167">
        <ele>839.0</ele>
        <time>2018-05-26T07:32:02.166Z</time>
      </trkpt>
      <trkpt lat="40.65322667" lon="-3.79542833">
        <ele>839.0</ele>
        <time>2018-05-26T07:32:03.147Z</time>
      </trkpt>
      <trkpt lat="40.65322667" lon="-3.79542833">
        <ele>839.0</ele>
        <time>2018-05-26T07:32:04.153Z</time>
      </trkpt>
      <trkpt lat="40.65335667" lon="-3.795485">
        <ele>839.0</ele>
        <time>2018-05-26T07:32:05.147Z</time>
      </trkpt>
      <trkpt lat="40.65342" lon="-3.795515">
        <ele>839.0</ele>
        <time>2018-05-26T07:32:06.171Z</time>
      </trkpt>
      <trkpt lat="40.65342" lon="-3.795515">
        <ele>839.0</ele>
        <time>2018-05-26T07:32:07.138Z</time>
      </trkpt>
      <trkpt lat="40.653545" lon="-3.79557333">
        <ele>839.0</ele>
        <time>2018-05-26T07:32:08.160Z</time>
      </trkpt>
      <trkpt lat="40.653545" lon="-3.79557333">
        <ele>839.0</ele>
        <time>2018-05-26T07:32:09.167Z</time>
      </trkpt>
      <trkpt lat="40.65366833" lon="-3.795635">
        <ele>839.0</ele>
        <time>2018-05-26T07:32:10.149Z</time>
      </trkpt>
      <trkpt lat="40.65373" lon="-3.79566833">
        <ele>839.0</ele>
        <time>2018-05-26T07:32:11.138Z</time>
      </trkpt>
      <trkpt lat="40.65373" lon="-3.79566833">
        <ele>839.0</ele>
        <time>2018-05-26T07:32:12.145Z</time>
      </trkpt>
      <trkpt lat="40.65386" lon="-3.79573333">
        <ele>839.0</ele>
        <time>2018-05-26T07:32:13.169Z</time>
      </trkpt>
      <trkpt lat="40.65386" lon="-3.79573333">
        <ele>839.0</ele>
        <time>2018-05-26T07:32:14.175Z</time>
      </trkpt>
      <trkpt lat="40.65399" lon="-3.795805">
        <ele>839.0</ele>
        <time>2018-05-26T07:32:15.155Z</time>
      </trkpt>
      <trkpt lat="40.65405333" lon="-3.79584167">
        <ele>839.0</ele>
        <time>2018-05-26T07:32:16.175Z</time>
      </trkpt>
      <trkpt lat="40.65411833" lon="-3.79588">
        <ele>839.0</ele>
        <time>2018-05-26T07:32:17.166Z</time>
      </trkpt>
      <trkpt lat="40.65411833" lon="-3.79588">
        <ele>839.0</ele>
        <time>2018-05-26T07:32:18.173Z</time>
      </trkpt>
      <trkpt lat="40.65424833" lon="-3.79595333">
        <ele>839.0</ele>
        <time>2018-05-26T07:32:19.151Z</time>
      </trkpt>
      <trkpt lat="40.65424833" lon="-3.79595333">
        <ele>839.0</ele>
        <time>2018-05-26T07:32:20.157Z</time>
      </trkpt>
      <trkpt lat="40.65436833" lon="-3.79603333">
        <ele>839.0</ele>
        <time>2018-05-26T07:32:21.148Z</time>
      </trkpt>
      <trkpt lat="40.65442667" lon="-3.79607667">
        <ele>839.0</ele>
        <time>2018-05-26T07:32:22.170Z</time>
      </trkpt>
      <trkpt lat="40.65442667" lon="-3.79607667">
        <ele>839.0</ele>
        <time>2018-05-26T07:32:23.136Z</time>
      </trkpt>
      <trkpt lat="40.65454667" lon="-3.79616167">
        <ele>839.0</ele>
        <time>2018-05-26T07:32:24.157Z</time>
      </trkpt>
      <trkpt lat="40.65454667" lon="-3.79616167">
        <ele>839.0</ele>
        <time>2018-05-26T07:32:25.164Z</time>
      </trkpt>
      <trkpt lat="40.65466667" lon="-3.79624">
        <ele>839.0</ele>
        <time>2018-05-26T07:32:26.142Z</time>
      </trkpt>
      <trkpt lat="40.65472333" lon="-3.79628">
        <ele>839.0</ele>
        <time>2018-05-26T07:32:27.161Z</time>
      </trkpt>
      <trkpt lat="40.65472333" lon="-3.79628">
        <ele>839.0</ele>
        <time>2018-05-26T07:32:28.166Z</time>
      </trkpt>
      <trkpt lat="40.65483833" lon="-3.79636167">
        <ele>839.0</ele>
        <time>2018-05-26T07:32:29.149Z</time>
      </trkpt>
      <trkpt lat="40.65489333" lon="-3.79640333">
        <ele>839.0</ele>
        <time>2018-05-26T07:32:30.168Z</time>
      </trkpt>
      <trkpt lat="40.65489333" lon="-3.79640333">
        <ele>839.0</ele>
        <time>2018-05-26T07:32:31.174Z</time>
      </trkpt>
      <trkpt lat="40.655005" lon="-3.796485">
        <ele>840.0</ele>
        <time>2018-05-26T07:32:32.154Z</time>
      </trkpt>
      <trkpt lat="40.655005" lon="-3.796485">
        <ele>840.0</ele>
        <time>2018-05-26T07:32:33.161Z</time>
      </trkpt>
      <trkpt lat="40.65511" lon="-3.79657167">
        <ele>840.0</ele>
        <time>2018-05-26T07:32:34.169Z</time>
      </trkpt>
      <trkpt lat="40.65511" lon="-3.79657167">
        <ele>840.0</ele>
        <time>2018-05-26T07:32:35.175Z</time>
      </trkpt>
      <trkpt lat="40.655215" lon="-3.79665">
        <ele>840.0</ele>
        <time>2018-05-26T07:32:36.157Z</time>
      </trkpt>
      <trkpt lat="40.655215" lon="-3.79665">
        <ele>840.0</ele>
        <time>2018-05-26T07:32:37.164Z</time>
      </trkpt>
      <trkpt lat="40.65532" lon="-3.79672667">
        <ele>840.0</ele>
        <time>2018-05-26T07:32:38.151Z</time>
      </trkpt>
      <trkpt lat="40.65532" lon="-3.79672667">
        <ele>840.0</ele>
        <time>2018-05-26T07:32:39.163Z</time>
      </trkpt>
      <trkpt lat="40.655425" lon="-3.796805">
        <ele>840.0</ele>
        <time>2018-05-26T07:32:40.146Z</time>
      </trkpt>
      <trkpt lat="40.655425" lon="-3.796805">
        <ele>840.0</ele>
        <time>2018-05-26T07:32:41.152Z</time>
      </trkpt>
      <trkpt lat="40.65552833" lon="-3.79688167">
        <ele>840.0</ele>
        <time>2018-05-26T07:32:42.161Z</time>
      </trkpt>
      <trkpt lat="40.65552833" lon="-3.79688167">
        <ele>840.0</ele>
        <time>2018-05-26T07:32:43.167Z</time>
      </trkpt>
      <trkpt lat="40.65563333" lon="-3.79696167">
        <ele>840.0</ele>
        <time>2018-05-26T07:32:44.151Z</time>
      </trkpt>
      <trkpt lat="40.65563333" lon="-3.79696167">
        <ele>840.0</ele>
        <time>2018-05-26T07:32:45.158Z</time>
      </trkpt>
      <trkpt lat="40.65573833" lon="-3.797045">
        <ele>840.0</ele>
        <time>2018-05-26T07:32:46.144Z</time>
      </trkpt>
      <trkpt lat="40.65573833" lon="-3.797045">
        <ele>840.0</ele>
        <time>2018-05-26T07:32:47.150Z</time>
      </trkpt>
      <trkpt lat="40.655845" lon="-3.79712667">
        <ele>840.0</ele>
        <time>2018-05-26T07:32:48.142Z</time>
      </trkpt>
      <trkpt lat="40.655845" lon="-3.79712667">
        <ele>840.0</ele>
        <time>2018-05-26T07:32:49.147Z</time>
      </trkpt>
      <trkpt lat="40.65595333" lon="-3.79720833">
        <ele>840.0</ele>
        <time>2018-05-26T07:32:50.175Z</time>
      </trkpt>
      <trkpt lat="40.65600667" lon="-3.79724667">
        <ele>840.0</ele>
        <time>2018-05-26T07:32:51.139Z</time>
      </trkpt>
      <trkpt lat="40.65600667" lon="-3.79724667">
        <ele>840.0</ele>
        <time>2018-05-26T07:32:52.144Z</time>
      </trkpt>
      <trkpt lat="40.65611" lon="-3.79732167">
        <ele>840.0</ele>
        <time>2018-05-26T07:32:53.174Z</time>
      </trkpt>
      <trkpt lat="40.65616" lon="-3.79736167">
        <ele>840.0</ele>
        <time>2018-05-26T07:32:54.156Z</time>
      </trkpt>
      <trkpt lat="40.65616" lon="-3.79736167">
        <ele>840.0</ele>
        <time>2018-05-26T07:32:55.162Z</time>
      </trkpt>
      <trkpt lat="40.656255" lon="-3.79744167">
        <ele>840.0</ele>
        <time>2018-05-26T07:32:56.144Z</time>
      </trkpt>
      <trkpt lat="40.656255" lon="-3.79744167">
        <ele>840.0</ele>
        <time>2018-05-26T07:32:57.150Z</time>
      </trkpt>
      <trkpt lat="40.65635167" lon="-3.79751667">
        <ele>840.0</ele>
        <time>2018-05-26T07:32:58.137Z</time>
      </trkpt>
      <trkpt lat="40.6564" lon="-3.797555">
        <ele>840.0</ele>
        <time>2018-05-26T07:32:59.165Z</time>
      </trkpt>
      <trkpt lat="40.6564" lon="-3.797555">
        <ele>840.0</ele>
        <time>2018-05-26T07:33:00.165Z</time>
      </trkpt>
      <trkpt lat="40.656495" lon="-3.79762667">
        <ele>840.0</ele>
        <time>2018-05-26T07:33:01.166Z</time>
      </trkpt>
      <trkpt lat="40.656495" lon="-3.79762667">
        <ele>840.0</ele>
        <time>2018-05-26T07:33:02.172Z</time>
      </trkpt>
      <trkpt lat="40.65659167" lon="-3.79770167">
        <ele>840.0</ele>
        <time>2018-05-26T07:33:03.157Z</time>
      </trkpt>
      <trkpt lat="40.65664" lon="-3.79773833">
        <ele>840.0</ele>
        <time>2018-05-26T07:33:04.158Z</time>
      </trkpt>
      <trkpt lat="40.65664" lon="-3.79773833">
        <ele>840.0</ele>
        <time>2018-05-26T07:33:05.165Z</time>
      </trkpt>
      <trkpt lat="40.65673833" lon="-3.79781333">
        <ele>840.0</ele>
        <time>2018-05-26T07:33:06.150Z</time>
      </trkpt>
      <trkpt lat="40.65673833" lon="-3.79781333">
        <ele>840.0</ele>
        <time>2018-05-26T07:33:07.160Z</time>
      </trkpt>
      <trkpt lat="40.65683167" lon="-3.79788333">
        <ele>840.0</ele>
        <time>2018-05-26T07:33:08.146Z</time>
      </trkpt>
      <trkpt lat="40.65683167" lon="-3.79788333">
        <ele>840.0</ele>
        <time>2018-05-26T07:33:09.151Z</time>
      </trkpt>
      <trkpt lat="40.65691667" lon="-3.79794667">
        <ele>841.0</ele>
        <time>2018-05-26T07:33:10.169Z</time>
      </trkpt>
      <trkpt lat="40.65691667" lon="-3.79794667">
        <ele>841.0</ele>
        <time>2018-05-26T07:33:11.136Z</time>
      </trkpt>
      <trkpt lat="40.657005" lon="-3.79801">
        <ele>841.0</ele>
        <time>2018-05-26T07:33:12.162Z</time>
      </trkpt>
      <trkpt lat="40.657005" lon="-3.79801">
        <ele>841.0</ele>
        <time>2018-05-26T07:33:13.168Z</time>
      </trkpt>
      <trkpt lat="40.65709667" lon="-3.79808333">
        <ele>841.0</ele>
        <time>2018-05-26T07:33:14.163Z</time>
      </trkpt>
      <trkpt lat="40.65709667" lon="-3.79808333">
        <ele>841.0</ele>
        <time>2018-05-26T07:33:15.170Z</time>
      </trkpt>
      <trkpt lat="40.657195" lon="-3.798155">
        <ele>841.0</ele>
        <time>2018-05-26T07:33:16.175Z</time>
      </trkpt>
      <trkpt lat="40.657195" lon="-3.798155">
        <ele>841.0</ele>
        <time>2018-05-26T07:33:17.140Z</time>
      </trkpt>
      <trkpt lat="40.65729333" lon="-3.79822833">
        <ele>841.0</ele>
        <time>2018-05-26T07:33:18.160Z</time>
      </trkpt>
      <trkpt lat="40.65729333" lon="-3.79822833">
        <ele>841.0</ele>
        <time>2018-05-26T07:33:19.166Z</time>
      </trkpt>
      <trkpt lat="40.65738833" lon="-3.79829833">
        <ele>841.0</ele>
        <time>2018-05-26T07:33:20.146Z</time>
      </trkpt>
      <trkpt lat="40.65738833" lon="-3.79829833">
        <ele>841.0</ele>
        <time>2018-05-26T07:33:21.170Z</time>
      </trkpt>
      <trkpt lat="40.65748167" lon="-3.79837">
        <ele>841.0</ele>
        <time>2018-05-26T07:33:22.168Z</time>
      </trkpt>
      <trkpt lat="40.65748167" lon="-3.79837">
        <ele>841.0</ele>
        <time>2018-05-26T07:33:23.174Z</time>
      </trkpt>
      <trkpt lat="40.65757833" lon="-3.79844333">
        <ele>841.0</ele>
        <time>2018-05-26T07:33:24.163Z</time>
      </trkpt>
      <trkpt lat="40.65757833" lon="-3.79844333">
        <ele>841.0</ele>
        <time>2018-05-26T07:33:25.169Z</time>
      </trkpt>
      <trkpt lat="40.657675" lon="-3.79851833">
        <ele>841.0</ele>
        <time>2018-05-26T07:33:26.154Z</time>
      </trkpt>
      <trkpt lat="40.657675" lon="-3.79851833">
        <ele>841.0</ele>
        <time>2018-05-26T07:33:27.162Z</time>
      </trkpt>
      <trkpt lat="40.65777167" lon="-3.79859167">
        <ele>841.0</ele>
        <time>2018-05-26T07:33:28.138Z</time>
      </trkpt>
      <trkpt lat="40.65777167" lon="-3.79859167">
        <ele>841.0</ele>
        <time>2018-05-26T07:33:29.144Z</time>
      </trkpt>
      <trkpt lat="40.657865" lon="-3.79866167">
        <ele>841.0</ele>
        <time>2018-05-26T07:33:30.136Z</time>
      </trkpt>
      <trkpt lat="40.657865" lon="-3.79866167">
        <ele>841.0</ele>
        <time>2018-05-26T07:33:31.142Z</time>
      </trkpt>
      <trkpt lat="40.65796333" lon="-3.79874167">
        <ele>842.0</ele>
        <time>2018-05-26T07:33:32.159Z</time>
      </trkpt>
      <trkpt lat="40.65801333" lon="-3.79878">
        <ele>842.0</ele>
        <time>2018-05-26T07:33:33.148Z</time>
      </trkpt>
      <trkpt lat="40.65806333" lon="-3.79881667">
        <ele>842.0</ele>
        <time>2018-05-26T07:33:34.143Z</time>
      </trkpt>
      <trkpt lat="40.65806333" lon="-3.79881667">
        <ele>842.0</ele>
        <time>2018-05-26T07:33:35.149Z</time>
      </trkpt>
      <trkpt lat="40.65816167" lon="-3.79889">
        <ele>842.0</ele>
        <time>2018-05-26T07:33:36.171Z</time>
      </trkpt>
      <trkpt lat="40.65816167" lon="-3.79889">
        <ele>842.0</ele>
        <time>2018-05-26T07:33:37.137Z</time>
      </trkpt>
      <trkpt lat="40.65826" lon="-3.79895667">
        <ele>842.0</ele>
        <time>2018-05-26T07:33:38.159Z</time>
      </trkpt>
      <trkpt lat="40.65826" lon="-3.79895667">
        <ele>842.0</ele>
        <time>2018-05-26T07:33:39.166Z</time>
      </trkpt>
      <trkpt lat="40.65836167" lon="-3.79902667">
        <ele>842.0</ele>
        <time>2018-05-26T07:33:40.147Z</time>
      </trkpt>
      <trkpt lat="40.65836167" lon="-3.79902667">
        <ele>842.0</ele>
        <time>2018-05-26T07:33:41.160Z</time>
      </trkpt>
      <trkpt lat="40.65846" lon="-3.799105">
        <ele>842.0</ele>
        <time>2018-05-26T07:33:42.151Z</time>
      </trkpt>
      <trkpt lat="40.65846" lon="-3.799105">
        <ele>842.0</ele>
        <time>2018-05-26T07:33:43.159Z</time>
      </trkpt>
      <trkpt lat="40.65855833" lon="-3.79918667">
        <ele>843.0</ele>
        <time>2018-05-26T07:33:44.152Z</time>
      </trkpt>
      <trkpt lat="40.65855833" lon="-3.79918667">
        <ele>843.0</ele>
        <time>2018-05-26T07:33:45.159Z</time>
      </trkpt>
      <trkpt lat="40.65865667" lon="-3.799265">
        <ele>843.0</ele>
        <time>2018-05-26T07:33:46.141Z</time>
      </trkpt>
      <trkpt lat="40.658705" lon="-3.79930333">
        <ele>843.0</ele>
        <time>2018-05-26T07:33:47.162Z</time>
      </trkpt>
      <trkpt lat="40.658755" lon="-3.79934">
        <ele>843.0</ele>
        <time>2018-05-26T07:33:48.147Z</time>
      </trkpt>
      <trkpt lat="40.658755" lon="-3.79934">
        <ele>843.0</ele>
        <time>2018-05-26T07:33:49.154Z</time>
      </trkpt>
      <trkpt lat="40.65885333" lon="-3.79941333">
        <ele>843.0</ele>
        <time>2018-05-26T07:33:50.141Z</time>
      </trkpt>
      <trkpt lat="40.65885333" lon="-3.79941333">
        <ele>843.0</ele>
        <time>2018-05-26T07:33:51.147Z</time>
      </trkpt>
      <trkpt lat="40.65895" lon="-3.79948333">
        <ele>843.0</ele>
        <time>2018-05-26T07:33:52.142Z</time>
      </trkpt>
      <trkpt lat="40.65895" lon="-3.79948333">
        <ele>843.0</ele>
        <time>2018-05-26T07:33:53.149Z</time>
      </trkpt>
      <trkpt lat="40.65904667" lon="-3.79955833">
        <ele>844.0</ele>
        <time>2018-05-26T07:33:54.174Z</time>
      </trkpt>
      <trkpt lat="40.659095" lon="-3.79959667">
        <ele>844.0</ele>
        <time>2018-05-26T07:33:55.157Z</time>
      </trkpt>
      <trkpt lat="40.659095" lon="-3.79959667">
        <ele>844.0</ele>
        <time>2018-05-26T07:33:56.162Z</time>
      </trkpt>
      <trkpt lat="40.65919833" lon="-3.79967333">
        <ele>844.0</ele>
        <time>2018-05-26T07:33:57.144Z</time>
      </trkpt>
      <trkpt lat="40.65919833" lon="-3.79967333">
        <ele>844.0</ele>
        <time>2018-05-26T07:33:58.150Z</time>
      </trkpt>
      <trkpt lat="40.65930333" lon="-3.79974667">
        <ele>844.0</ele>
        <time>2018-05-26T07:33:59.140Z</time>
      </trkpt>
      <trkpt lat="40.65930333" lon="-3.79974667">
        <ele>844.0</ele>
        <time>2018-05-26T07:34:00.165Z</time>
      </trkpt>
      <trkpt lat="40.65941" lon="-3.799825">
        <ele>844.0</ele>
        <time>2018-05-26T07:34:01.161Z</time>
      </trkpt>
      <trkpt lat="40.65941" lon="-3.799825">
        <ele>844.0</ele>
        <time>2018-05-26T07:34:02.168Z</time>
      </trkpt>
      <trkpt lat="40.659515" lon="-3.799905">
        <ele>844.0</ele>
        <time>2018-05-26T07:34:03.152Z</time>
      </trkpt>
      <trkpt lat="40.65956833" lon="-3.799945">
        <ele>844.0</ele>
        <time>2018-05-26T07:34:04.145Z</time>
      </trkpt>
      <trkpt lat="40.65956833" lon="-3.799945">
        <ele>844.0</ele>
        <time>2018-05-26T07:34:05.151Z</time>
      </trkpt>
      <trkpt lat="40.659675" lon="-3.80002833">
        <ele>844.0</ele>
        <time>2018-05-26T07:34:06.155Z</time>
      </trkpt>
      <trkpt lat="40.659675" lon="-3.80002833">
        <ele>844.0</ele>
        <time>2018-05-26T07:34:07.162Z</time>
      </trkpt>
      <trkpt lat="40.659785" lon="-3.80011">
        <ele>845.0</ele>
        <time>2018-05-26T07:34:08.137Z</time>
      </trkpt>
      <trkpt lat="40.659785" lon="-3.80011">
        <ele>845.0</ele>
        <time>2018-05-26T07:34:09.143Z</time>
      </trkpt>
      <trkpt lat="40.659895" lon="-3.80018833">
        <ele>845.0</ele>
        <time>2018-05-26T07:34:10.147Z</time>
      </trkpt>
      <trkpt lat="40.659895" lon="-3.80018833">
        <ele>845.0</ele>
        <time>2018-05-26T07:34:11.160Z</time>
      </trkpt>
      <trkpt lat="40.65999833" lon="-3.800265">
        <ele>845.0</ele>
        <time>2018-05-26T07:34:12.141Z</time>
      </trkpt>
      <trkpt lat="40.66004833" lon="-3.80030167">
        <ele>845.0</ele>
        <time>2018-05-26T07:34:13.160Z</time>
      </trkpt>
      <trkpt lat="40.66004833" lon="-3.80030167">
        <ele>845.0</ele>
        <time>2018-05-26T07:34:14.167Z</time>
      </trkpt>
      <trkpt lat="40.66014667" lon="-3.80037667">
        <ele>845.0</ele>
        <time>2018-05-26T07:34:15.149Z</time>
      </trkpt>
      <trkpt lat="40.66014667" lon="-3.80037667">
        <ele>845.0</ele>
        <time>2018-05-26T07:34:16.155Z</time>
      </trkpt>
      <trkpt lat="40.66025" lon="-3.80044833">
        <ele>845.0</ele>
        <time>2018-05-26T07:34:17.175Z</time>
      </trkpt>
      <trkpt lat="40.6603" lon="-3.800485">
        <ele>845.0</ele>
        <time>2018-05-26T07:34:18.154Z</time>
      </trkpt>
      <trkpt lat="40.6603" lon="-3.800485">
        <ele>845.0</ele>
        <time>2018-05-26T07:34:19.160Z</time>
      </trkpt>
      <trkpt lat="40.6604" lon="-3.80056167">
        <ele>845.0</ele>
        <time>2018-05-26T07:34:20.162Z</time>
      </trkpt>
      <trkpt lat="40.6604" lon="-3.80056167">
        <ele>845.0</ele>
        <time>2018-05-26T07:34:21.168Z</time>
      </trkpt>
      <trkpt lat="40.660505" lon="-3.80064167">
        <ele>845.0</ele>
        <time>2018-05-26T07:34:22.156Z</time>
      </trkpt>
      <trkpt lat="40.66055833" lon="-3.800685">
        <ele>845.0</ele>
        <time>2018-05-26T07:34:23.138Z</time>
      </trkpt>
      <trkpt lat="40.66061167" lon="-3.80072833">
        <ele>845.0</ele>
        <time>2018-05-26T07:34:24.172Z</time>
      </trkpt>
      <trkpt lat="40.66061167" lon="-3.80072833">
        <ele>845.0</ele>
        <time>2018-05-26T07:34:25.140Z</time>
      </trkpt>
      <trkpt lat="40.66072" lon="-3.800815">
        <ele>845.0</ele>
        <time>2018-05-26T07:34:26.162Z</time>
      </trkpt>
      <trkpt lat="40.660775" lon="-3.800855">
        <ele>845.0</ele>
        <time>2018-05-26T07:34:27.155Z</time>
      </trkpt>
      <trkpt lat="40.66082833" lon="-3.80089667">
        <ele>845.0</ele>
        <time>2018-05-26T07:34:28.174Z</time>
      </trkpt>
      <trkpt lat="40.66082833" lon="-3.80089667">
        <ele>845.0</ele>
        <time>2018-05-26T07:34:29.141Z</time>
      </trkpt>
      <trkpt lat="40.66093667" lon="-3.800985">
        <ele>845.0</ele>
        <time>2018-05-26T07:34:30.159Z</time>
      </trkpt>
      <trkpt lat="40.66093667" lon="-3.800985">
        <ele>845.0</ele>
        <time>2018-05-26T07:34:31.165Z</time>
      </trkpt>
      <trkpt lat="40.66104167" lon="-3.80107667">
        <ele>845.0</ele>
        <time>2018-05-26T07:34:32.146Z</time>
      </trkpt>
      <trkpt lat="40.66104167" lon="-3.80107667">
        <ele>845.0</ele>
        <time>2018-05-26T07:34:33.152Z</time>
      </trkpt>
      <trkpt lat="40.66114667" lon="-3.80116667">
        <ele>845.0</ele>
        <time>2018-05-26T07:34:34.147Z</time>
      </trkpt>
      <trkpt lat="40.66114667" lon="-3.80116667">
        <ele>845.0</ele>
        <time>2018-05-26T07:34:35.161Z</time>
      </trkpt>
      <trkpt lat="40.66124833" lon="-3.80125667">
        <ele>845.0</ele>
        <time>2018-05-26T07:34:36.141Z</time>
      </trkpt>
      <trkpt lat="40.66124833" lon="-3.80125667">
        <ele>845.0</ele>
        <time>2018-05-26T07:34:37.147Z</time>
      </trkpt>
      <trkpt lat="40.66135333" lon="-3.80134833">
        <ele>845.0</ele>
        <time>2018-05-26T07:34:38.174Z</time>
      </trkpt>
      <trkpt lat="40.661405" lon="-3.801395">
        <ele>845.0</ele>
        <time>2018-05-26T07:34:39.153Z</time>
      </trkpt>
      <trkpt lat="40.661405" lon="-3.801395">
        <ele>845.0</ele>
        <time>2018-05-26T07:34:40.160Z</time>
      </trkpt>
      <trkpt lat="40.66150667" lon="-3.80149333">
        <ele>846.0</ele>
        <time>2018-05-26T07:34:41.142Z</time>
      </trkpt>
      <trkpt lat="40.66150667" lon="-3.80149333">
        <ele>846.0</ele>
        <time>2018-05-26T07:34:42.149Z</time>
      </trkpt>
      <trkpt lat="40.66160667" lon="-3.80159167">
        <ele>846.0</ele>
        <time>2018-05-26T07:34:43.141Z</time>
      </trkpt>
      <trkpt lat="40.66160667" lon="-3.80159167">
        <ele>846.0</ele>
        <time>2018-05-26T07:34:44.147Z</time>
      </trkpt>
      <trkpt lat="40.66170333" lon="-3.80168333">
        <ele>846.0</ele>
        <time>2018-05-26T07:34:45.175Z</time>
      </trkpt>
      <trkpt lat="40.66175167" lon="-3.80173333">
        <ele>846.0</ele>
        <time>2018-05-26T07:34:46.149Z</time>
      </trkpt>
      <trkpt lat="40.6618" lon="-3.80178333">
        <ele>846.0</ele>
        <time>2018-05-26T07:34:47.164Z</time>
      </trkpt>
      <trkpt lat="40.6618" lon="-3.80178333">
        <ele>846.0</ele>
        <time>2018-05-26T07:34:48.169Z</time>
      </trkpt>
      <trkpt lat="40.66189667" lon="-3.80188167">
        <ele>846.0</ele>
        <time>2018-05-26T07:34:49.156Z</time>
      </trkpt>
      <trkpt lat="40.66189667" lon="-3.80188167">
        <ele>846.0</ele>
        <time>2018-05-26T07:34:50.163Z</time>
      </trkpt>
      <trkpt lat="40.66199333" lon="-3.80197667">
        <ele>846.0</ele>
        <time>2018-05-26T07:34:51.144Z</time>
      </trkpt>
      <trkpt lat="40.66199333" lon="-3.80197667">
        <ele>846.0</ele>
        <time>2018-05-26T07:34:52.149Z</time>
      </trkpt>
      <trkpt lat="40.662085" lon="-3.80207">
        <ele>846.0</ele>
        <time>2018-05-26T07:34:53.141Z</time>
      </trkpt>
      <trkpt lat="40.66213167" lon="-3.802115">
        <ele>846.0</ele>
        <time>2018-05-26T07:34:54.175Z</time>
      </trkpt>
      <trkpt lat="40.66213167" lon="-3.802115">
        <ele>846.0</ele>
        <time>2018-05-26T07:34:55.141Z</time>
      </trkpt>
      <trkpt lat="40.66222667" lon="-3.80221">
        <ele>846.0</ele>
        <time>2018-05-26T07:34:56.146Z</time>
      </trkpt>
      <trkpt lat="40.66227333" lon="-3.80225833">
        <ele>846.0</ele>
        <time>2018-05-26T07:34:57.163Z</time>
      </trkpt>
      <trkpt lat="40.66227333" lon="-3.80225833">
        <ele>846.0</ele>
        <time>2018-05-26T07:34:58.170Z</time>
      </trkpt>
      <trkpt lat="40.662365" lon="-3.80235833">
        <ele>846.0</ele>
        <time>2018-05-26T07:34:59.152Z</time>
      </trkpt>
      <trkpt lat="40.662365" lon="-3.80235833">
        <ele>846.0</ele>
        <time>2018-05-26T07:35:00.174Z</time>
      </trkpt>
      <trkpt lat="40.662455" lon="-3.802455">
        <ele>846.0</ele>
        <time>2018-05-26T07:35:01.171Z</time>
      </trkpt>
      <trkpt lat="40.662455" lon="-3.802455">
        <ele>846.0</ele>
        <time>2018-05-26T07:35:02.137Z</time>
      </trkpt>
      <trkpt lat="40.66254333" lon="-3.80254167">
        <ele>846.0</ele>
        <time>2018-05-26T07:35:03.164Z</time>
      </trkpt>
      <trkpt lat="40.66254333" lon="-3.80254167">
        <ele>846.0</ele>
        <time>2018-05-26T07:35:04.170Z</time>
      </trkpt>
      <trkpt lat="40.66260667" lon="-3.80261">
        <ele>845.0</ele>
        <time>2018-05-26T07:35:05.163Z</time>
      </trkpt>
      <trkpt lat="40.66263833" lon="-3.80264333">
        <ele>845.0</ele>
        <time>2018-05-26T07:35:06.143Z</time>
      </trkpt>
      <trkpt lat="40.66263833" lon="-3.80264333">
        <ele>845.0</ele>
        <time>2018-05-26T07:35:07.149Z</time>
      </trkpt>
      <trkpt lat="40.66271667" lon="-3.80270833">
        <ele>845.0</ele>
        <time>2018-05-26T07:35:08.170Z</time>
      </trkpt>
      <trkpt lat="40.66271667" lon="-3.80270833">
        <ele>845.0</ele>
        <time>2018-05-26T07:35:09.136Z</time>
      </trkpt>
      <trkpt lat="40.66279167" lon="-3.80279833">
        <ele>845.0</ele>
        <time>2018-05-26T07:35:10.160Z</time>
      </trkpt>
      <trkpt lat="40.66279167" lon="-3.80279833">
        <ele>845.0</ele>
        <time>2018-05-26T07:35:11.167Z</time>
      </trkpt>
      <trkpt lat="40.66287667" lon="-3.802885">
        <ele>845.0</ele>
        <time>2018-05-26T07:35:12.151Z</time>
      </trkpt>
      <trkpt lat="40.66287667" lon="-3.802885">
        <ele>845.0</ele>
        <time>2018-05-26T07:35:13.160Z</time>
      </trkpt>
      <trkpt lat="40.66296333" lon="-3.802975">
        <ele>845.0</ele>
        <time>2018-05-26T07:35:14.142Z</time>
      </trkpt>
      <trkpt lat="40.66296333" lon="-3.802975">
        <ele>845.0</ele>
        <time>2018-05-26T07:35:15.148Z</time>
      </trkpt>
      <trkpt lat="40.66305333" lon="-3.803055">
        <ele>845.0</ele>
        <time>2018-05-26T07:35:16.137Z</time>
      </trkpt>
      <trkpt lat="40.66305333" lon="-3.803055">
        <ele>845.0</ele>
        <time>2018-05-26T07:35:17.143Z</time>
      </trkpt>
      <trkpt lat="40.663145" lon="-3.80314167">
        <ele>845.0</ele>
        <time>2018-05-26T07:35:18.165Z</time>
      </trkpt>
      <trkpt lat="40.663145" lon="-3.80314167">
        <ele>845.0</ele>
        <time>2018-05-26T07:35:19.172Z</time>
      </trkpt>
      <trkpt lat="40.66323" lon="-3.803235">
        <ele>845.0</ele>
        <time>2018-05-26T07:35:20.151Z</time>
      </trkpt>
      <trkpt lat="40.66323" lon="-3.803235">
        <ele>845.0</ele>
        <time>2018-05-26T07:35:21.166Z</time>
      </trkpt>
      <trkpt lat="40.66331667" lon="-3.80333667">
        <ele>845.0</ele>
        <time>2018-05-26T07:35:22.149Z</time>
      </trkpt>
      <trkpt lat="40.66331667" lon="-3.80333667">
        <ele>845.0</ele>
        <time>2018-05-26T07:35:23.163Z</time>
      </trkpt>
      <trkpt lat="40.66340333" lon="-3.80343333">
        <ele>845.0</ele>
        <time>2018-05-26T07:35:24.149Z</time>
      </trkpt>
      <trkpt lat="40.66340333" lon="-3.80343333">
        <ele>845.0</ele>
        <time>2018-05-26T07:35:25.156Z</time>
      </trkpt>
      <trkpt lat="40.66349333" lon="-3.80352333">
        <ele>846.0</ele>
        <time>2018-05-26T07:35:26.138Z</time>
      </trkpt>
      <trkpt lat="40.66349333" lon="-3.80352333">
        <ele>846.0</ele>
        <time>2018-05-26T07:35:27.144Z</time>
      </trkpt>
      <trkpt lat="40.66358" lon="-3.80362">
        <ele>846.0</ele>
        <time>2018-05-26T07:35:28.165Z</time>
      </trkpt>
      <trkpt lat="40.66358" lon="-3.80362">
        <ele>846.0</ele>
        <time>2018-05-26T07:35:29.171Z</time>
      </trkpt>
      <trkpt lat="40.663665" lon="-3.80371333">
        <ele>846.0</ele>
        <time>2018-05-26T07:35:30.163Z</time>
      </trkpt>
      <trkpt lat="40.663665" lon="-3.80371333">
        <ele>846.0</ele>
        <time>2018-05-26T07:35:31.168Z</time>
      </trkpt>
      <trkpt lat="40.66375333" lon="-3.80380167">
        <ele>847.0</ele>
        <time>2018-05-26T07:35:32.156Z</time>
      </trkpt>
      <trkpt lat="40.66379667" lon="-3.80384833">
        <ele>847.0</ele>
        <time>2018-05-26T07:35:33.137Z</time>
      </trkpt>
      <trkpt lat="40.66379667" lon="-3.80384833">
        <ele>847.0</ele>
        <time>2018-05-26T07:35:34.147Z</time>
      </trkpt>
      <trkpt lat="40.66388167" lon="-3.80393833">
        <ele>847.0</ele>
        <time>2018-05-26T07:35:35.175Z</time>
      </trkpt>
      <trkpt lat="40.663925" lon="-3.80397667">
        <ele>847.0</ele>
        <time>2018-05-26T07:35:36.166Z</time>
      </trkpt>
      <trkpt lat="40.663925" lon="-3.80397667">
        <ele>847.0</ele>
        <time>2018-05-26T07:35:37.172Z</time>
      </trkpt>
      <trkpt lat="40.66400833" lon="-3.80407167">
        <ele>847.0</ele>
        <time>2018-05-26T07:35:38.146Z</time>
      </trkpt>
      <trkpt lat="40.66400833" lon="-3.80407167">
        <ele>847.0</ele>
        <time>2018-05-26T07:35:39.152Z</time>
      </trkpt>
      <trkpt lat="40.664095" lon="-3.80415833">
        <ele>847.0</ele>
        <time>2018-05-26T07:35:40.166Z</time>
      </trkpt>
      <trkpt lat="40.664095" lon="-3.80415833">
        <ele>847.0</ele>
        <time>2018-05-26T07:35:41.172Z</time>
      </trkpt>
      <trkpt lat="40.66418167" lon="-3.80424667">
        <ele>848.0</ele>
        <time>2018-05-26T07:35:42.154Z</time>
      </trkpt>
      <trkpt lat="40.66418167" lon="-3.80424667">
        <ele>848.0</ele>
        <time>2018-05-26T07:35:43.161Z</time>
      </trkpt>
      <trkpt lat="40.66426833" lon="-3.80434667">
        <ele>848.0</ele>
        <time>2018-05-26T07:35:44.151Z</time>
      </trkpt>
      <trkpt lat="40.66426833" lon="-3.80434667">
        <ele>848.0</ele>
        <time>2018-05-26T07:35:45.160Z</time>
      </trkpt>
      <trkpt lat="40.66435833" lon="-3.804445">
        <ele>848.0</ele>
        <time>2018-05-26T07:35:46.141Z</time>
      </trkpt>
      <trkpt lat="40.66435833" lon="-3.804445">
        <ele>848.0</ele>
        <time>2018-05-26T07:35:47.152Z</time>
      </trkpt>
      <trkpt lat="40.66444833" lon="-3.80453333">
        <ele>849.0</ele>
        <time>2018-05-26T07:35:48.143Z</time>
      </trkpt>
      <trkpt lat="40.66444833" lon="-3.80453333">
        <ele>849.0</ele>
        <time>2018-05-26T07:35:49.150Z</time>
      </trkpt>
      <trkpt lat="40.66453833" lon="-3.80462">
        <ele>849.0</ele>
        <time>2018-05-26T07:35:50.159Z</time>
      </trkpt>
      <trkpt lat="40.66453833" lon="-3.80462">
        <ele>849.0</ele>
        <time>2018-05-26T07:35:51.165Z</time>
      </trkpt>
      <trkpt lat="40.66463167" lon="-3.80470167">
        <ele>849.0</ele>
        <time>2018-05-26T07:35:52.163Z</time>
      </trkpt>
      <trkpt lat="40.66468" lon="-3.80474667">
        <ele>849.0</ele>
        <time>2018-05-26T07:35:53.146Z</time>
      </trkpt>
      <trkpt lat="40.664725" lon="-3.80479333">
        <ele>849.0</ele>
        <time>2018-05-26T07:35:54.171Z</time>
      </trkpt>
      <trkpt lat="40.664725" lon="-3.80479333">
        <ele>849.0</ele>
        <time>2018-05-26T07:35:55.137Z</time>
      </trkpt>
      <trkpt lat="40.66481167" lon="-3.80488833">
        <ele>849.0</ele>
        <time>2018-05-26T07:35:56.164Z</time>
      </trkpt>
      <trkpt lat="40.664855" lon="-3.804935">
        <ele>850.0</ele>
        <time>2018-05-26T07:35:57.155Z</time>
      </trkpt>
      <trkpt lat="40.664855" lon="-3.804935">
        <ele>850.0</ele>
        <time>2018-05-26T07:35:58.162Z</time>
      </trkpt>
      <trkpt lat="40.66494333" lon="-3.80502833">
        <ele>850.0</ele>
        <time>2018-05-26T07:35:59.157Z</time>
      </trkpt>
      <trkpt lat="40.66494333" lon="-3.80502833">
        <ele>850.0</ele>
        <time>2018-05-26T07:36:00.164Z</time>
      </trkpt>
      <trkpt lat="40.66503833" lon="-3.80511833">
        <ele>850.0</ele>
        <time>2018-05-26T07:36:01.165Z</time>
      </trkpt>
      <trkpt lat="40.66503833" lon="-3.80511833">
        <ele>850.0</ele>
        <time>2018-05-26T07:36:02.172Z</time>
      </trkpt>
      <trkpt lat="40.66513" lon="-3.80521167">
        <ele>851.0</ele>
        <time>2018-05-26T07:36:03.148Z</time>
      </trkpt>
      <trkpt lat="40.66517833" lon="-3.80525667">
        <ele>851.0</ele>
        <time>2018-05-26T07:36:04.142Z</time>
      </trkpt>
      <trkpt lat="40.66517833" lon="-3.80525667">
        <ele>851.0</ele>
        <time>2018-05-26T07:36:05.148Z</time>
      </trkpt>
      <trkpt lat="40.66527333" lon="-3.80535167">
        <ele>852.0</ele>
        <time>2018-05-26T07:36:06.137Z</time>
      </trkpt>
      <trkpt lat="40.66527333" lon="-3.80535167">
        <ele>852.0</ele>
        <time>2018-05-26T07:36:07.143Z</time>
      </trkpt>
      <trkpt lat="40.66537" lon="-3.80543833">
        <ele>852.0</ele>
        <time>2018-05-26T07:36:08.170Z</time>
      </trkpt>
      <trkpt lat="40.66537" lon="-3.80543833">
        <ele>852.0</ele>
        <time>2018-05-26T07:36:09.136Z</time>
      </trkpt>
      <trkpt lat="40.66546667" lon="-3.80552833">
        <ele>853.0</ele>
        <time>2018-05-26T07:36:10.161Z</time>
      </trkpt>
      <trkpt lat="40.66546667" lon="-3.80552833">
        <ele>853.0</ele>
        <time>2018-05-26T07:36:11.168Z</time>
      </trkpt>
      <trkpt lat="40.66556167" lon="-3.80562">
        <ele>853.0</ele>
        <time>2018-05-26T07:36:12.160Z</time>
      </trkpt>
      <trkpt lat="40.66556167" lon="-3.80562">
        <ele>853.0</ele>
        <time>2018-05-26T07:36:13.166Z</time>
      </trkpt>
      <trkpt lat="40.665655" lon="-3.805715">
        <ele>853.0</ele>
        <time>2018-05-26T07:36:14.168Z</time>
      </trkpt>
      <trkpt lat="40.665655" lon="-3.805715">
        <ele>853.0</ele>
        <time>2018-05-26T07:36:15.174Z</time>
      </trkpt>
      <trkpt lat="40.665745" lon="-3.805815">
        <ele>854.0</ele>
        <time>2018-05-26T07:36:16.154Z</time>
      </trkpt>
      <trkpt lat="40.665745" lon="-3.805815">
        <ele>854.0</ele>
        <time>2018-05-26T07:36:17.160Z</time>
      </trkpt>
      <trkpt lat="40.66584" lon="-3.80591167">
        <ele>854.0</ele>
        <time>2018-05-26T07:36:18.144Z</time>
      </trkpt>
      <trkpt lat="40.66584" lon="-3.80591167">
        <ele>854.0</ele>
        <time>2018-05-26T07:36:19.149Z</time>
      </trkpt>
      <trkpt lat="40.665935" lon="-3.80600667">
        <ele>854.0</ele>
        <time>2018-05-26T07:36:20.155Z</time>
      </trkpt>
      <trkpt lat="40.665935" lon="-3.80600667">
        <ele>854.0</ele>
        <time>2018-05-26T07:36:21.161Z</time>
      </trkpt>
      <trkpt lat="40.66602833" lon="-3.80610667">
        <ele>854.0</ele>
        <time>2018-05-26T07:36:22.149Z</time>
      </trkpt>
      <trkpt lat="40.66602833" lon="-3.80610667">
        <ele>854.0</ele>
        <time>2018-05-26T07:36:23.160Z</time>
      </trkpt>
      <trkpt lat="40.66612667" lon="-3.80620667">
        <ele>855.0</ele>
        <time>2018-05-26T07:36:24.146Z</time>
      </trkpt>
      <trkpt lat="40.66612667" lon="-3.80620667">
        <ele>855.0</ele>
        <time>2018-05-26T07:36:25.152Z</time>
      </trkpt>
      <trkpt lat="40.66622333" lon="-3.806305">
        <ele>855.0</ele>
        <time>2018-05-26T07:36:26.175Z</time>
      </trkpt>
      <trkpt lat="40.66622333" lon="-3.806305">
        <ele>855.0</ele>
        <time>2018-05-26T07:36:27.142Z</time>
      </trkpt>
      <trkpt lat="40.666315" lon="-3.80640333">
        <ele>855.0</ele>
        <time>2018-05-26T07:36:28.167Z</time>
      </trkpt>
      <trkpt lat="40.66636167" lon="-3.80645333">
        <ele>855.0</ele>
        <time>2018-05-26T07:36:29.149Z</time>
      </trkpt>
      <trkpt lat="40.66636167" lon="-3.80645333">
        <ele>855.0</ele>
        <time>2018-05-26T07:36:30.154Z</time>
      </trkpt>
      <trkpt lat="40.66645167" lon="-3.80656">
        <ele>855.0</ele>
        <time>2018-05-26T07:36:31.139Z</time>
      </trkpt>
      <trkpt lat="40.66645167" lon="-3.80656">
        <ele>855.0</ele>
        <time>2018-05-26T07:36:32.146Z</time>
      </trkpt>
      <trkpt lat="40.66654" lon="-3.80666">
        <ele>855.0</ele>
        <time>2018-05-26T07:36:33.171Z</time>
      </trkpt>
      <trkpt lat="40.66654" lon="-3.80666">
        <ele>855.0</ele>
        <time>2018-05-26T07:36:34.138Z</time>
      </trkpt>
      <trkpt lat="40.666625" lon="-3.80674333">
        <ele>855.0</ele>
        <time>2018-05-26T07:36:35.170Z</time>
      </trkpt>
      <trkpt lat="40.666625" lon="-3.80674333">
        <ele>855.0</ele>
        <time>2018-05-26T07:36:36.136Z</time>
      </trkpt>
      <trkpt lat="40.66671" lon="-3.80681667">
        <ele>855.0</ele>
        <time>2018-05-26T07:36:37.156Z</time>
      </trkpt>
      <trkpt lat="40.66671" lon="-3.80681667">
        <ele>855.0</ele>
        <time>2018-05-26T07:36:38.161Z</time>
      </trkpt>
      <trkpt lat="40.66679667" lon="-3.80689">
        <ele>855.0</ele>
        <time>2018-05-26T07:36:39.144Z</time>
      </trkpt>
      <trkpt lat="40.66684333" lon="-3.80693167">
        <ele>855.0</ele>
        <time>2018-05-26T07:36:40.174Z</time>
      </trkpt>
      <trkpt lat="40.66684333" lon="-3.80693167">
        <ele>855.0</ele>
        <time>2018-05-26T07:36:41.140Z</time>
      </trkpt>
      <trkpt lat="40.66694" lon="-3.80701167">
        <ele>855.0</ele>
        <time>2018-05-26T07:36:42.167Z</time>
      </trkpt>
      <trkpt lat="40.66694" lon="-3.80701167">
        <ele>855.0</ele>
        <time>2018-05-26T07:36:43.174Z</time>
      </trkpt>
      <trkpt lat="40.66704" lon="-3.80709333">
        <ele>856.0</ele>
        <time>2018-05-26T07:36:44.158Z</time>
      </trkpt>
      <trkpt lat="40.66704" lon="-3.80709333">
        <ele>856.0</ele>
        <time>2018-05-26T07:36:45.165Z</time>
      </trkpt>
      <trkpt lat="40.66714167" lon="-3.80716667">
        <ele>856.0</ele>
        <time>2018-05-26T07:36:46.145Z</time>
      </trkpt>
      <trkpt lat="40.66719333" lon="-3.807205">
        <ele>856.0</ele>
        <time>2018-05-26T07:36:47.170Z</time>
      </trkpt>
      <trkpt lat="40.66724667" lon="-3.80724167">
        <ele>856.0</ele>
        <time>2018-05-26T07:36:48.148Z</time>
      </trkpt>
      <trkpt lat="40.66724667" lon="-3.80724167">
        <ele>856.0</ele>
        <time>2018-05-26T07:36:49.154Z</time>
      </trkpt>
      <trkpt lat="40.667355" lon="-3.80731167">
        <ele>856.0</ele>
        <time>2018-05-26T07:36:50.175Z</time>
      </trkpt>
      <trkpt lat="40.667355" lon="-3.80731167">
        <ele>856.0</ele>
        <time>2018-05-26T07:36:51.142Z</time>
      </trkpt>
      <trkpt lat="40.66746833" lon="-3.80738333">
        <ele>856.0</ele>
        <time>2018-05-26T07:36:52.168Z</time>
      </trkpt>
      <trkpt lat="40.66746833" lon="-3.80738333">
        <ele>856.0</ele>
        <time>2018-05-26T07:36:53.175Z</time>
      </trkpt>
      <trkpt lat="40.66757833" lon="-3.80745">
        <ele>856.0</ele>
        <time>2018-05-26T07:36:54.156Z</time>
      </trkpt>
      <trkpt lat="40.66763333" lon="-3.80748167">
        <ele>856.0</ele>
        <time>2018-05-26T07:36:55.174Z</time>
      </trkpt>
      <trkpt lat="40.66763333" lon="-3.80748167">
        <ele>856.0</ele>
        <time>2018-05-26T07:36:56.140Z</time>
      </trkpt>
      <trkpt lat="40.66774167" lon="-3.80754167">
        <ele>856.0</ele>
        <time>2018-05-26T07:36:57.173Z</time>
      </trkpt>
      <trkpt lat="40.66774167" lon="-3.80754167">
        <ele>856.0</ele>
        <time>2018-05-26T07:36:58.139Z</time>
      </trkpt>
      <trkpt lat="40.66784667" lon="-3.807595">
        <ele>856.0</ele>
        <time>2018-05-26T07:36:59.167Z</time>
      </trkpt>
      <trkpt lat="40.66784667" lon="-3.807595">
        <ele>856.0</ele>
        <time>2018-05-26T07:37:00.165Z</time>
      </trkpt>
      <trkpt lat="40.66795333" lon="-3.807645">
        <ele>856.0</ele>
        <time>2018-05-26T07:37:01.174Z</time>
      </trkpt>
      <trkpt lat="40.66795333" lon="-3.807645">
        <ele>856.0</ele>
        <time>2018-05-26T07:37:02.141Z</time>
      </trkpt>
      <trkpt lat="40.668065" lon="-3.80769">
        <ele>856.0</ele>
        <time>2018-05-26T07:37:03.157Z</time>
      </trkpt>
      <trkpt lat="40.668065" lon="-3.80769">
        <ele>856.0</ele>
        <time>2018-05-26T07:37:04.164Z</time>
      </trkpt>
      <trkpt lat="40.66818333" lon="-3.80773333">
        <ele>856.0</ele>
        <time>2018-05-26T07:37:05.138Z</time>
      </trkpt>
      <trkpt lat="40.66824333" lon="-3.807755">
        <ele>856.0</ele>
        <time>2018-05-26T07:37:06.156Z</time>
      </trkpt>
      <trkpt lat="40.66824333" lon="-3.807755">
        <ele>856.0</ele>
        <time>2018-05-26T07:37:07.162Z</time>
      </trkpt>
      <trkpt lat="40.66836167" lon="-3.80779667">
        <ele>856.0</ele>
        <time>2018-05-26T07:37:08.144Z</time>
      </trkpt>
      <trkpt lat="40.66836167" lon="-3.80779667">
        <ele>856.0</ele>
        <time>2018-05-26T07:37:09.151Z</time>
      </trkpt>
      <trkpt lat="40.66848" lon="-3.807835">
        <ele>857.0</ele>
        <time>2018-05-26T07:37:10.139Z</time>
      </trkpt>
      <trkpt lat="40.66853833" lon="-3.80785167">
        <ele>857.0</ele>
        <time>2018-05-26T07:37:11.163Z</time>
      </trkpt>
      <trkpt lat="40.668595" lon="-3.80786833">
        <ele>857.0</ele>
        <time>2018-05-26T07:37:12.146Z</time>
      </trkpt>
      <trkpt lat="40.668595" lon="-3.80786833">
        <ele>857.0</ele>
        <time>2018-05-26T07:37:13.152Z</time>
      </trkpt>
      <trkpt lat="40.66871167" lon="-3.80789667">
        <ele>857.0</ele>
        <time>2018-05-26T07:37:14.174Z</time>
      </trkpt>
      <trkpt lat="40.66877" lon="-3.80791">
        <ele>857.0</ele>
        <time>2018-05-26T07:37:15.153Z</time>
      </trkpt>
      <trkpt lat="40.66877" lon="-3.80791">
        <ele>857.0</ele>
        <time>2018-05-26T07:37:16.161Z</time>
      </trkpt>
      <trkpt lat="40.66889" lon="-3.80793667">
        <ele>858.0</ele>
        <time>2018-05-26T07:37:17.136Z</time>
      </trkpt>
      <trkpt lat="40.66894833" lon="-3.80794667">
        <ele>858.0</ele>
        <time>2018-05-26T07:37:18.163Z</time>
      </trkpt>
      <trkpt lat="40.66894833" lon="-3.80794667">
        <ele>858.0</ele>
        <time>2018-05-26T07:37:19.169Z</time>
      </trkpt>
      <trkpt lat="40.66906833" lon="-3.80795833">
        <ele>859.0</ele>
        <time>2018-05-26T07:37:20.137Z</time>
      </trkpt>
      <trkpt lat="40.669125" lon="-3.80796167">
        <ele>859.0</ele>
        <time>2018-05-26T07:37:21.153Z</time>
      </trkpt>
      <trkpt lat="40.669125" lon="-3.80796167">
        <ele>859.0</ele>
        <time>2018-05-26T07:37:22.161Z</time>
      </trkpt>
      <trkpt lat="40.66923833" lon="-3.80796333">
        <ele>859.0</ele>
        <time>2018-05-26T07:37:23.141Z</time>
      </trkpt>
      <trkpt lat="40.66929333" lon="-3.80796833">
        <ele>860.0</ele>
        <time>2018-05-26T07:37:24.151Z</time>
      </trkpt>
      <trkpt lat="40.66929333" lon="-3.80796833">
        <ele>860.0</ele>
        <time>2018-05-26T07:37:25.159Z</time>
      </trkpt>
      <trkpt lat="40.66940167" lon="-3.807975">
        <ele>860.0</ele>
        <time>2018-05-26T07:37:26.147Z</time>
      </trkpt>
      <trkpt lat="40.66945667" lon="-3.807975">
        <ele>860.0</ele>
        <time>2018-05-26T07:37:27.168Z</time>
      </trkpt>
      <trkpt lat="40.66945667" lon="-3.807975">
        <ele>860.0</ele>
        <time>2018-05-26T07:37:28.175Z</time>
      </trkpt>
      <trkpt lat="40.66956667" lon="-3.80797333">
        <ele>861.0</ele>
        <time>2018-05-26T07:37:29.160Z</time>
      </trkpt>
      <trkpt lat="40.66956667" lon="-3.80797333">
        <ele>861.0</ele>
        <time>2018-05-26T07:37:30.166Z</time>
      </trkpt>
      <trkpt lat="40.66967667" lon="-3.80796833">
        <ele>861.0</ele>
        <time>2018-05-26T07:37:31.151Z</time>
      </trkpt>
      <trkpt lat="40.66967667" lon="-3.80796833">
        <ele>861.0</ele>
        <time>2018-05-26T07:37:32.158Z</time>
      </trkpt>
      <trkpt lat="40.66978333" lon="-3.807965">
        <ele>861.0</ele>
        <time>2018-05-26T07:37:33.147Z</time>
      </trkpt>
      <trkpt lat="40.66983667" lon="-3.80796">
        <ele>861.0</ele>
        <time>2018-05-26T07:37:34.164Z</time>
      </trkpt>
      <trkpt lat="40.66983667" lon="-3.80796">
        <ele>861.0</ele>
        <time>2018-05-26T07:37:35.171Z</time>
      </trkpt>
      <trkpt lat="40.66994333" lon="-3.80795167">
        <ele>861.0</ele>
        <time>2018-05-26T07:37:36.151Z</time>
      </trkpt>
      <trkpt lat="40.66994333" lon="-3.80795167">
        <ele>861.0</ele>
        <time>2018-05-26T07:37:37.158Z</time>
      </trkpt>
      <trkpt lat="40.67005333" lon="-3.80794167">
        <ele>861.0</ele>
        <time>2018-05-26T07:37:38.174Z</time>
      </trkpt>
      <trkpt lat="40.67005333" lon="-3.80794167">
        <ele>861.0</ele>
        <time>2018-05-26T07:37:39.140Z</time>
      </trkpt>
      <trkpt lat="40.67016" lon="-3.80792333">
        <ele>861.0</ele>
        <time>2018-05-26T07:37:40.164Z</time>
      </trkpt>
      <trkpt lat="40.67016" lon="-3.80792333">
        <ele>861.0</ele>
        <time>2018-05-26T07:37:41.171Z</time>
      </trkpt>
      <trkpt lat="40.67025833" lon="-3.80790167">
        <ele>861.0</ele>
        <time>2018-05-26T07:37:42.161Z</time>
      </trkpt>
      <trkpt lat="40.67025833" lon="-3.80790167">
        <ele>861.0</ele>
        <time>2018-05-26T07:37:43.167Z</time>
      </trkpt>
      <trkpt lat="40.67035667" lon="-3.80788167">
        <ele>861.0</ele>
        <time>2018-05-26T07:37:44.149Z</time>
      </trkpt>
      <trkpt lat="40.67035667" lon="-3.80788167">
        <ele>861.0</ele>
        <time>2018-05-26T07:37:45.161Z</time>
      </trkpt>
      <trkpt lat="40.67045" lon="-3.80786667">
        <ele>862.0</ele>
        <time>2018-05-26T07:37:46.143Z</time>
      </trkpt>
      <trkpt lat="40.67045" lon="-3.80786667">
        <ele>862.0</ele>
        <time>2018-05-26T07:37:47.151Z</time>
      </trkpt>
      <trkpt lat="40.67054833" lon="-3.80784667">
        <ele>862.0</ele>
        <time>2018-05-26T07:37:48.151Z</time>
      </trkpt>
      <trkpt lat="40.67054833" lon="-3.80784667">
        <ele>862.0</ele>
        <time>2018-05-26T07:37:49.158Z</time>
      </trkpt>
      <trkpt lat="40.670635" lon="-3.80782">
        <ele>862.0</ele>
        <time>2018-05-26T07:37:50.148Z</time>
      </trkpt>
      <trkpt lat="40.670635" lon="-3.80782">
        <ele>862.0</ele>
        <time>2018-05-26T07:37:51.155Z</time>
      </trkpt>
      <trkpt lat="40.67074" lon="-3.80778667">
        <ele>862.0</ele>
        <time>2018-05-26T07:37:52.141Z</time>
      </trkpt>
      <trkpt lat="40.67074" lon="-3.80778667">
        <ele>862.0</ele>
        <time>2018-05-26T07:37:53.147Z</time>
      </trkpt>
      <trkpt lat="40.67084167" lon="-3.80775333">
        <ele>863.0</ele>
        <time>2018-05-26T07:37:54.173Z</time>
      </trkpt>
      <trkpt lat="40.67084167" lon="-3.80775333">
        <ele>863.0</ele>
        <time>2018-05-26T07:37:55.139Z</time>
      </trkpt>
      <trkpt lat="40.67094167" lon="-3.80771167">
        <ele>863.0</ele>
        <time>2018-05-26T07:37:56.150Z</time>
      </trkpt>
      <trkpt lat="40.67099333" lon="-3.80769333">
        <ele>863.0</ele>
        <time>2018-05-26T07:37:57.170Z</time>
      </trkpt>
      <trkpt lat="40.67099333" lon="-3.80769333">
        <ele>863.0</ele>
        <time>2018-05-26T07:37:58.136Z</time>
      </trkpt>
      <trkpt lat="40.67109833" lon="-3.80764667">
        <ele>863.0</ele>
        <time>2018-05-26T07:37:59.163Z</time>
      </trkpt>
      <trkpt lat="40.67114833" lon="-3.807625">
        <ele>863.0</ele>
        <time>2018-05-26T07:38:00.171Z</time>
      </trkpt>
      <trkpt lat="40.67114833" lon="-3.807625">
        <ele>863.0</ele>
        <time>2018-05-26T07:38:01.145Z</time>
      </trkpt>
      <trkpt lat="40.67125167" lon="-3.80757667">
        <ele>863.0</ele>
        <time>2018-05-26T07:38:02.169Z</time>
      </trkpt>
      <trkpt lat="40.67125167" lon="-3.80757667">
        <ele>863.0</ele>
        <time>2018-05-26T07:38:03.175Z</time>
      </trkpt>
      <trkpt lat="40.671345" lon="-3.807535">
        <ele>863.0</ele>
        <time>2018-05-26T07:38:04.155Z</time>
      </trkpt>
      <trkpt lat="40.67139333" lon="-3.807515">
        <ele>864.0</ele>
        <time>2018-05-26T07:38:05.136Z</time>
      </trkpt>
      <trkpt lat="40.67144333" lon="-3.80748333">
        <ele>864.0</ele>
        <time>2018-05-26T07:38:06.163Z</time>
      </trkpt>
      <trkpt lat="40.67144333" lon="-3.80748333">
        <ele>864.0</ele>
        <time>2018-05-26T07:38:07.170Z</time>
      </trkpt>
      <trkpt lat="40.67155" lon="-3.80741167">
        <ele>864.0</ele>
        <time>2018-05-26T07:38:08.153Z</time>
      </trkpt>
      <trkpt lat="40.67160333" lon="-3.807375">
        <ele>863.0</ele>
        <time>2018-05-26T07:38:09.142Z</time>
      </trkpt>
      <trkpt lat="40.67165333" lon="-3.80733833">
        <ele>863.0</ele>
        <time>2018-05-26T07:38:10.169Z</time>
      </trkpt>
      <trkpt lat="40.67165333" lon="-3.80733833">
        <ele>863.0</ele>
        <time>2018-05-26T07:38:11.175Z</time>
      </trkpt>
      <trkpt lat="40.671755" lon="-3.80726833">
        <ele>863.0</ele>
        <time>2018-05-26T07:38:12.169Z</time>
      </trkpt>
      <trkpt lat="40.671755" lon="-3.80726833">
        <ele>863.0</ele>
        <time>2018-05-26T07:38:13.176Z</time>
      </trkpt>
      <trkpt lat="40.671855" lon="-3.80719333">
        <ele>863.0</ele>
        <time>2018-05-26T07:38:14.160Z</time>
      </trkpt>
      <trkpt lat="40.671855" lon="-3.80719333">
        <ele>863.0</ele>
        <time>2018-05-26T07:38:15.167Z</time>
      </trkpt>
      <trkpt lat="40.67195167" lon="-3.80712">
        <ele>864.0</ele>
        <time>2018-05-26T07:38:16.150Z</time>
      </trkpt>
      <trkpt lat="40.67199833" lon="-3.807085">
        <ele>864.0</ele>
        <time>2018-05-26T07:38:17.151Z</time>
      </trkpt>
      <trkpt lat="40.67199833" lon="-3.807085">
        <ele>864.0</ele>
        <time>2018-05-26T07:38:18.158Z</time>
      </trkpt>
      <trkpt lat="40.67208667" lon="-3.80702">
        <ele>864.0</ele>
        <time>2018-05-26T07:38:19.147Z</time>
      </trkpt>
      <trkpt lat="40.67213167" lon="-3.806985">
        <ele>864.0</ele>
        <time>2018-05-26T07:38:20.168Z</time>
      </trkpt>
      <trkpt lat="40.67213167" lon="-3.806985">
        <ele>864.0</ele>
        <time>2018-05-26T07:38:21.175Z</time>
      </trkpt>
      <trkpt lat="40.67222833" lon="-3.806915">
        <ele>864.0</ele>
        <time>2018-05-26T07:38:22.155Z</time>
      </trkpt>
      <trkpt lat="40.67222833" lon="-3.806915">
        <ele>864.0</ele>
        <time>2018-05-26T07:38:23.160Z</time>
      </trkpt>
      <trkpt lat="40.67232333" lon="-3.806845">
        <ele>864.0</ele>
        <time>2018-05-26T07:38:24.152Z</time>
      </trkpt>
      <trkpt lat="40.67232333" lon="-3.806845">
        <ele>864.0</ele>
        <time>2018-05-26T07:38:25.160Z</time>
      </trkpt>
      <trkpt lat="40.67241167" lon="-3.80677333">
        <ele>864.0</ele>
        <time>2018-05-26T07:38:26.139Z</time>
      </trkpt>
      <trkpt lat="40.672455" lon="-3.80674167">
        <ele>864.0</ele>
        <time>2018-05-26T07:38:27.166Z</time>
      </trkpt>
      <trkpt lat="40.672455" lon="-3.80674167">
        <ele>864.0</ele>
        <time>2018-05-26T07:38:28.173Z</time>
      </trkpt>
      <trkpt lat="40.67253833" lon="-3.80668167">
        <ele>864.0</ele>
        <time>2018-05-26T07:38:29.152Z</time>
      </trkpt>
      <trkpt lat="40.67257833" lon="-3.80665167">
        <ele>864.0</ele>
        <time>2018-05-26T07:38:30.138Z</time>
      </trkpt>
      <trkpt lat="40.67257833" lon="-3.80665167">
        <ele>864.0</ele>
        <time>2018-05-26T07:38:31.145Z</time>
      </trkpt>
      <trkpt lat="40.67264667" lon="-3.806585">
        <ele>864.0</ele>
        <time>2018-05-26T07:38:32.170Z</time>
      </trkpt>
      <trkpt lat="40.67264667" lon="-3.806585">
        <ele>864.0</ele>
        <time>2018-05-26T07:38:33.137Z</time>
      </trkpt>
      <trkpt lat="40.67267833" lon="-3.806515">
        <ele>864.0</ele>
        <time>2018-05-26T07:38:34.155Z</time>
      </trkpt>
      <trkpt lat="40.67267833" lon="-3.806515">
        <ele>864.0</ele>
        <time>2018-05-26T07:38:35.162Z</time>
      </trkpt>
      <trkpt lat="40.67269833" lon="-3.80644167">
        <ele>864.0</ele>
        <time>2018-05-26T07:38:36.150Z</time>
      </trkpt>
      <trkpt lat="40.67269833" lon="-3.80644167">
        <ele>864.0</ele>
        <time>2018-05-26T07:38:37.160Z</time>
      </trkpt>
      <trkpt lat="40.67270167" lon="-3.80638167">
        <ele>864.0</ele>
        <time>2018-05-26T07:38:38.142Z</time>
      </trkpt>
      <trkpt lat="40.67270167" lon="-3.80638167">
        <ele>864.0</ele>
        <time>2018-05-26T07:38:39.148Z</time>
      </trkpt>
      <trkpt lat="40.67271" lon="-3.80631833">
        <ele>865.0</ele>
        <time>2018-05-26T07:38:40.175Z</time>
      </trkpt>
      <trkpt lat="40.67271" lon="-3.80631833">
        <ele>865.0</ele>
        <time>2018-05-26T07:38:41.142Z</time>
      </trkpt>
      <trkpt lat="40.672725" lon="-3.80623833">
        <ele>865.0</ele>
        <time>2018-05-26T07:38:42.170Z</time>
      </trkpt>
      <trkpt lat="40.672725" lon="-3.80623833">
        <ele>865.0</ele>
        <time>2018-05-26T07:38:43.175Z</time>
      </trkpt>
      <trkpt lat="40.67275" lon="-3.80615167">
        <ele>866.0</ele>
        <time>2018-05-26T07:38:44.156Z</time>
      </trkpt>
      <trkpt lat="40.67275" lon="-3.80615167">
        <ele>866.0</ele>
        <time>2018-05-26T07:38:45.162Z</time>
      </trkpt>
      <trkpt lat="40.67276333" lon="-3.80609833">
        <ele>866.0</ele>
        <time>2018-05-26T07:38:46.142Z</time>
      </trkpt>
      <trkpt lat="40.67276333" lon="-3.80609833">
        <ele>866.0</ele>
        <time>2018-05-26T07:38:47.147Z</time>
      </trkpt>
      <trkpt lat="40.67276667" lon="-3.80607333">
        <ele>866.0</ele>
        <time>2018-05-26T07:38:48.161Z</time>
      </trkpt>
      <trkpt lat="40.67276667" lon="-3.80607333">
        <ele>866.0</ele>
        <time>2018-05-26T07:38:49.140Z</time>
      </trkpt>
      <trkpt lat="40.67276667" lon="-3.806045">
        <ele>867.0</ele>
        <time>2018-05-26T07:38:50.157Z</time>
      </trkpt>
      <trkpt lat="40.672765" lon="-3.806035">
        <ele>867.0</ele>
        <time>2018-05-26T07:38:51.143Z</time>
      </trkpt>
      <trkpt lat="40.67276667" lon="-3.80602667">
        <ele>867.0</ele>
        <time>2018-05-26T07:38:52.164Z</time>
      </trkpt>
      <trkpt lat="40.67276667" lon="-3.80602667">
        <ele>867.0</ele>
        <time>2018-05-26T07:38:53.170Z</time>
      </trkpt>
      <trkpt lat="40.67276667" lon="-3.806015">
        <ele>867.0</ele>
        <time>2018-05-26T07:38:54.154Z</time>
      </trkpt>
      <trkpt lat="40.67276667" lon="-3.806015">
        <ele>867.0</ele>
        <time>2018-05-26T07:38:55.161Z</time>
      </trkpt>
      <trkpt lat="40.67276667" lon="-3.806015">
        <ele>867.0</ele>
        <time>2018-05-26T07:38:56.165Z</time>
      </trkpt>
      <trkpt lat="40.67276" lon="-3.80591333">
        <ele>866.0</ele>
        <time>2018-05-26T07:38:57.155Z</time>
      </trkpt>
      <trkpt lat="40.67276" lon="-3.80591333">
        <ele>866.0</ele>
        <time>2018-05-26T07:38:58.143Z</time>
      </trkpt>
      <trkpt lat="40.67276333" lon="-3.80588333">
        <ele>866.0</ele>
        <time>2018-05-26T07:38:59.158Z</time>
      </trkpt>
      <trkpt lat="40.67276333" lon="-3.80588333">
        <ele>866.0</ele>
        <time>2018-05-26T07:39:00.146Z</time>
      </trkpt>
      <trkpt lat="40.672775" lon="-3.80584833">
        <ele>866.0</ele>
        <time>2018-05-26T07:39:01.160Z</time>
      </trkpt>
      <trkpt lat="40.672775" lon="-3.80584833">
        <ele>866.0</ele>
        <time>2018-05-26T07:39:02.141Z</time>
      </trkpt>
      <trkpt lat="40.67278333" lon="-3.80582333">
        <ele>866.0</ele>
        <time>2018-05-26T07:39:03.156Z</time>
      </trkpt>
      <trkpt lat="40.67278333" lon="-3.80582333">
        <ele>866.0</ele>
        <time>2018-05-26T07:39:04.175Z</time>
      </trkpt>
      <trkpt lat="40.67278833" lon="-3.80582667">
        <ele>866.0</ele>
        <time>2018-05-26T07:39:05.145Z</time>
      </trkpt>
      <trkpt lat="40.67278833" lon="-3.80582667">
        <ele>866.0</ele>
        <time>2018-05-26T07:39:06.167Z</time>
      </trkpt>
      <trkpt lat="40.6728" lon="-3.805865">
        <ele>866.0</ele>
        <time>2018-05-26T07:39:07.143Z</time>
      </trkpt>
      <trkpt lat="40.6728" lon="-3.805865">
        <ele>866.0</ele>
        <time>2018-05-26T07:39:08.169Z</time>
      </trkpt>
      <trkpt lat="40.67282" lon="-3.805915">
        <ele>866.0</ele>
        <time>2018-05-26T07:39:09.142Z</time>
      </trkpt>
      <trkpt lat="40.67282" lon="-3.805915">
        <ele>866.0</ele>
        <time>2018-05-26T07:39:10.171Z</time>
      </trkpt>
      <trkpt lat="40.67283667" lon="-3.80598">
        <ele>865.0</ele>
        <time>2018-05-26T07:39:11.159Z</time>
      </trkpt>
      <trkpt lat="40.67283667" lon="-3.80598">
        <ele>865.0</ele>
        <time>2018-05-26T07:39:12.156Z</time>
      </trkpt>
      <trkpt lat="40.67286833" lon="-3.80604333">
        <ele>863.0</ele>
        <time>2018-05-26T07:39:13.167Z</time>
      </trkpt>
      <trkpt lat="40.67286833" lon="-3.80604333">
        <ele>863.0</ele>
        <time>2018-05-26T07:39:14.156Z</time>
      </trkpt>
      <trkpt lat="40.67291833" lon="-3.806085">
        <ele>862.0</ele>
        <time>2018-05-26T07:39:15.165Z</time>
      </trkpt>
      <trkpt lat="40.67291833" lon="-3.806085">
        <ele>862.0</ele>
        <time>2018-05-26T07:39:16.144Z</time>
      </trkpt>
      <trkpt lat="40.67297833" lon="-3.80612">
        <ele>861.0</ele>
        <time>2018-05-26T07:39:17.163Z</time>
      </trkpt>
      <trkpt lat="40.67297833" lon="-3.80612">
        <ele>861.0</ele>
        <time>2018-05-26T07:39:18.145Z</time>
      </trkpt>
      <trkpt lat="40.67302667" lon="-3.806175">
        <ele>860.0</ele>
        <time>2018-05-26T07:39:19.157Z</time>
      </trkpt>
      <trkpt lat="40.67302667" lon="-3.806175">
        <ele>860.0</ele>
        <time>2018-05-26T07:39:20.174Z</time>
      </trkpt>
      <trkpt lat="40.67306667" lon="-3.80617833">
        <ele>860.0</ele>
        <time>2018-05-26T07:39:21.144Z</time>
      </trkpt>
      <trkpt lat="40.67309" lon="-3.80616333">
        <ele>860.0</ele>
        <time>2018-05-26T07:39:22.167Z</time>
      </trkpt>
      <trkpt lat="40.67309" lon="-3.80616333">
        <ele>860.0</ele>
        <time>2018-05-26T07:39:23.149Z</time>
      </trkpt>
      <trkpt lat="40.67312833" lon="-3.80611833">
        <ele>859.0</ele>
        <time>2018-05-26T07:39:24.157Z</time>
      </trkpt>
      <trkpt lat="40.67314333" lon="-3.806085">
        <ele>859.0</ele>
        <time>2018-05-26T07:39:25.155Z</time>
      </trkpt>
      <trkpt lat="40.67314333" lon="-3.806085">
        <ele>859.0</ele>
        <time>2018-05-26T07:39:26.138Z</time>
      </trkpt>
      <trkpt lat="40.67317833" lon="-3.80604">
        <ele>858.0</ele>
        <time>2018-05-26T07:39:27.148Z</time>
      </trkpt>
      <trkpt lat="40.67317833" lon="-3.80604">
        <ele>858.0</ele>
        <time>2018-05-26T07:39:28.170Z</time>
      </trkpt>
      <trkpt lat="40.67321833" lon="-3.80601667">
        <ele>857.0</ele>
        <time>2018-05-26T07:39:29.137Z</time>
      </trkpt>
      <trkpt lat="40.67322667" lon="-3.80601167">
        <ele>857.0</ele>
        <time>2018-05-26T07:39:30.159Z</time>
      </trkpt>
      <trkpt lat="40.67323333" lon="-3.80600667">
        <ele>856.0</ele>
        <time>2018-05-26T07:39:31.153Z</time>
      </trkpt>
      <trkpt lat="40.67323333" lon="-3.80600667">
        <ele>856.0</ele>
        <time>2018-05-26T07:39:32.166Z</time>
      </trkpt>
      <trkpt lat="40.67325167" lon="-3.806">
        <ele>856.0</ele>
        <time>2018-05-26T07:39:33.138Z</time>
      </trkpt>
      <trkpt lat="40.67325167" lon="-3.806">
        <ele>856.0</ele>
        <time>2018-05-26T07:39:34.155Z</time>
      </trkpt>
      <trkpt lat="40.673275" lon="-3.80599833">
        <ele>855.0</ele>
        <time>2018-05-26T07:39:35.148Z</time>
      </trkpt>
      <trkpt lat="40.673275" lon="-3.80599833">
        <ele>855.0</ele>
        <time>2018-05-26T07:39:36.152Z</time>
      </trkpt>
      <trkpt lat="40.6733" lon="-3.80601833">
        <ele>854.0</ele>
        <time>2018-05-26T07:39:37.170Z</time>
      </trkpt>
      <trkpt lat="40.6733" lon="-3.80601833">
        <ele>854.0</ele>
        <time>2018-05-26T07:39:38.155Z</time>
      </trkpt>
      <trkpt lat="40.67332833" lon="-3.80606167">
        <ele>854.0</ele>
        <time>2018-05-26T07:39:39.164Z</time>
      </trkpt>
      <trkpt lat="40.67332833" lon="-3.80606167">
        <ele>854.0</ele>
        <time>2018-05-26T07:39:40.143Z</time>
      </trkpt>
      <trkpt lat="40.67337167" lon="-3.80612667">
        <ele>854.0</ele>
        <time>2018-05-26T07:39:41.183Z</time>
      </trkpt>
      <trkpt lat="40.67337167" lon="-3.80612667">
        <ele>854.0</ele>
        <time>2018-05-26T07:39:42.136Z</time>
      </trkpt>
      <trkpt lat="40.67340167" lon="-3.80619833">
        <ele>853.0</ele>
        <time>2018-05-26T07:39:43.144Z</time>
      </trkpt>
      <trkpt lat="40.67340167" lon="-3.80619833">
        <ele>853.0</ele>
        <time>2018-05-26T07:39:44.172Z</time>
      </trkpt>
      <trkpt lat="40.67345667" lon="-3.80623833">
        <ele>853.0</ele>
        <time>2018-05-26T07:39:45.142Z</time>
      </trkpt>
      <trkpt lat="40.67348833" lon="-3.80624667">
        <ele>853.0</ele>
        <time>2018-05-26T07:39:46.139Z</time>
      </trkpt>
      <trkpt lat="40.67348833" lon="-3.80624667">
        <ele>853.0</ele>
        <time>2018-05-26T07:39:47.162Z</time>
      </trkpt>
      <trkpt lat="40.67355167" lon="-3.80626333">
        <ele>853.0</ele>
        <time>2018-05-26T07:39:48.137Z</time>
      </trkpt>
      <trkpt lat="40.67358667" lon="-3.80626167">
        <ele>853.0</ele>
        <time>2018-05-26T07:39:49.160Z</time>
      </trkpt>
      <trkpt lat="40.67358667" lon="-3.80626167">
        <ele>853.0</ele>
        <time>2018-05-26T07:39:50.174Z</time>
      </trkpt>
      <trkpt lat="40.67366333" lon="-3.80627833">
        <ele>853.0</ele>
        <time>2018-05-26T07:39:51.148Z</time>
      </trkpt>
      <trkpt lat="40.67366333" lon="-3.80627833">
        <ele>853.0</ele>
        <time>2018-05-26T07:39:52.175Z</time>
      </trkpt>
      <trkpt lat="40.67373167" lon="-3.80635">
        <ele>854.0</ele>
        <time>2018-05-26T07:39:53.147Z</time>
      </trkpt>
      <trkpt lat="40.67373167" lon="-3.80635">
        <ele>854.0</ele>
        <time>2018-05-26T07:39:54.142Z</time>
      </trkpt>
      <trkpt lat="40.673805" lon="-3.80637333">
        <ele>854.0</ele>
        <time>2018-05-26T07:39:55.150Z</time>
      </trkpt>
      <trkpt lat="40.673805" lon="-3.80637333">
        <ele>854.0</ele>
        <time>2018-05-26T07:39:56.147Z</time>
      </trkpt>
      <trkpt lat="40.67389" lon="-3.80639667">
        <ele>855.0</ele>
        <time>2018-05-26T07:39:57.159Z</time>
      </trkpt>
      <trkpt lat="40.67389" lon="-3.80639667">
        <ele>855.0</ele>
        <time>2018-05-26T07:39:58.173Z</time>
      </trkpt>
      <trkpt lat="40.67397167" lon="-3.80645667">
        <ele>854.0</ele>
        <time>2018-05-26T07:39:59.143Z</time>
      </trkpt>
      <trkpt lat="40.67397167" lon="-3.80645667">
        <ele>854.0</ele>
        <time>2018-05-26T07:40:00.149Z</time>
      </trkpt>
      <trkpt lat="40.67405" lon="-3.80652167">
        <ele>855.0</ele>
        <time>2018-05-26T07:40:01.172Z</time>
      </trkpt>
      <trkpt lat="40.67405" lon="-3.80652167">
        <ele>855.0</ele>
        <time>2018-05-26T07:40:02.150Z</time>
      </trkpt>
      <trkpt lat="40.67412333" lon="-3.80657167">
        <ele>855.0</ele>
        <time>2018-05-26T07:40:03.159Z</time>
      </trkpt>
      <trkpt lat="40.67412333" lon="-3.80657167">
        <ele>855.0</ele>
        <time>2018-05-26T07:40:04.145Z</time>
      </trkpt>
      <trkpt lat="40.67416" lon="-3.80661333">
        <ele>854.0</ele>
        <time>2018-05-26T07:40:05.170Z</time>
      </trkpt>
      <trkpt lat="40.674175" lon="-3.80664">
        <ele>854.0</ele>
        <time>2018-05-26T07:40:06.136Z</time>
      </trkpt>
      <trkpt lat="40.674175" lon="-3.80664">
        <ele>854.0</ele>
        <time>2018-05-26T07:40:07.152Z</time>
      </trkpt>
      <trkpt lat="40.67421" lon="-3.80671333">
        <ele>853.0</ele>
        <time>2018-05-26T07:40:08.160Z</time>
      </trkpt>
      <trkpt lat="40.67421" lon="-3.80671333">
        <ele>853.0</ele>
        <time>2018-05-26T07:40:09.141Z</time>
      </trkpt>
      <trkpt lat="40.67426667" lon="-3.80676167">
        <ele>852.0</ele>
        <time>2018-05-26T07:40:10.155Z</time>
      </trkpt>
      <trkpt lat="40.67426667" lon="-3.80676167">
        <ele>852.0</ele>
        <time>2018-05-26T07:40:11.161Z</time>
      </trkpt>
      <trkpt lat="40.67431167" lon="-3.80680167">
        <ele>851.0</ele>
        <time>2018-05-26T07:40:12.168Z</time>
      </trkpt>
      <trkpt lat="40.67432833" lon="-3.806825">
        <ele>851.0</ele>
        <time>2018-05-26T07:40:13.161Z</time>
      </trkpt>
      <trkpt lat="40.67432833" lon="-3.806825">
        <ele>851.0</ele>
        <time>2018-05-26T07:40:14.136Z</time>
      </trkpt>
      <trkpt lat="40.674365" lon="-3.80686">
        <ele>849.0</ele>
        <time>2018-05-26T07:40:15.151Z</time>
      </trkpt>
      <trkpt lat="40.674365" lon="-3.80686">
        <ele>849.0</ele>
        <time>2018-05-26T07:40:16.136Z</time>
      </trkpt>
      <trkpt lat="40.67439667" lon="-3.80688667">
        <ele>849.0</ele>
        <time>2018-05-26T07:40:17.146Z</time>
      </trkpt>
      <trkpt lat="40.67439667" lon="-3.80688667">
        <ele>849.0</ele>
        <time>2018-05-26T07:40:18.164Z</time>
      </trkpt>
      <trkpt lat="40.67441667" lon="-3.806915">
        <ele>848.0</ele>
        <time>2018-05-26T07:40:19.138Z</time>
      </trkpt>
      <trkpt lat="40.67441667" lon="-3.806915">
        <ele>848.0</ele>
        <time>2018-05-26T07:40:20.154Z</time>
      </trkpt>
      <trkpt lat="40.674465" lon="-3.806945">
        <ele>847.0</ele>
        <time>2018-05-26T07:40:21.168Z</time>
      </trkpt>
      <trkpt lat="40.6745" lon="-3.80696333">
        <ele>847.0</ele>
        <time>2018-05-26T07:40:22.157Z</time>
      </trkpt>
      <trkpt lat="40.6745" lon="-3.80696333">
        <ele>847.0</ele>
        <time>2018-05-26T07:40:23.170Z</time>
      </trkpt>
      <trkpt lat="40.674575" lon="-3.807">
        <ele>847.0</ele>
        <time>2018-05-26T07:40:24.136Z</time>
      </trkpt>
      <trkpt lat="40.67461" lon="-3.807025">
        <ele>847.0</ele>
        <time>2018-05-26T07:40:25.159Z</time>
      </trkpt>
      <trkpt lat="40.67461" lon="-3.807025">
        <ele>847.0</ele>
        <time>2018-05-26T07:40:26.140Z</time>
      </trkpt>
      <trkpt lat="40.67466" lon="-3.80708333">
        <ele>846.0</ele>
        <time>2018-05-26T07:40:27.160Z</time>
      </trkpt>
      <trkpt lat="40.67466" lon="-3.80708333">
        <ele>846.0</ele>
        <time>2018-05-26T07:40:28.136Z</time>
      </trkpt>
      <trkpt lat="40.67471167" lon="-3.80713833">
        <ele>846.0</ele>
        <time>2018-05-26T07:40:29.164Z</time>
      </trkpt>
      <trkpt lat="40.67471167" lon="-3.80713833">
        <ele>846.0</ele>
        <time>2018-05-26T07:40:30.140Z</time>
      </trkpt>
      <trkpt lat="40.67479167" lon="-3.80719">
        <ele>845.0</ele>
        <time>2018-05-26T07:40:31.163Z</time>
      </trkpt>
      <trkpt lat="40.67479167" lon="-3.80719">
        <ele>845.0</ele>
        <time>2018-05-26T07:40:32.175Z</time>
      </trkpt>
      <trkpt lat="40.67487667" lon="-3.80724833">
        <ele>845.0</ele>
        <time>2018-05-26T07:40:33.147Z</time>
      </trkpt>
      <trkpt lat="40.67487667" lon="-3.80724833">
        <ele>845.0</ele>
        <time>2018-05-26T07:40:34.163Z</time>
      </trkpt>
      <trkpt lat="40.67495667" lon="-3.80730167">
        <ele>844.0</ele>
        <time>2018-05-26T07:40:35.145Z</time>
      </trkpt>
      <trkpt lat="40.67495667" lon="-3.80730167">
        <ele>844.0</ele>
        <time>2018-05-26T07:40:36.161Z</time>
      </trkpt>
      <trkpt lat="40.67502" lon="-3.80735">
        <ele>844.0</ele>
        <time>2018-05-26T07:40:37.171Z</time>
      </trkpt>
      <trkpt lat="40.67502" lon="-3.80735">
        <ele>844.0</ele>
        <time>2018-05-26T07:40:38.149Z</time>
      </trkpt>
      <trkpt lat="40.67506667" lon="-3.80739">
        <ele>844.0</ele>
        <time>2018-05-26T07:40:39.160Z</time>
      </trkpt>
      <trkpt lat="40.67506667" lon="-3.80739">
        <ele>844.0</ele>
        <time>2018-05-26T07:40:40.173Z</time>
      </trkpt>
      <trkpt lat="40.67510333" lon="-3.807435">
        <ele>844.0</ele>
        <time>2018-05-26T07:40:41.176Z</time>
      </trkpt>
      <trkpt lat="40.67510333" lon="-3.807435">
        <ele>844.0</ele>
        <time>2018-05-26T07:40:42.158Z</time>
      </trkpt>
      <trkpt lat="40.67514833" lon="-3.80748833">
        <ele>844.0</ele>
        <time>2018-05-26T07:40:43.170Z</time>
      </trkpt>
      <trkpt lat="40.67514833" lon="-3.80748833">
        <ele>844.0</ele>
        <time>2018-05-26T07:40:44.156Z</time>
      </trkpt>
      <trkpt lat="40.675215" lon="-3.80754333">
        <ele>843.0</ele>
        <time>2018-05-26T07:40:45.167Z</time>
      </trkpt>
      <trkpt lat="40.675215" lon="-3.80754333">
        <ele>843.0</ele>
        <time>2018-05-26T07:40:46.156Z</time>
      </trkpt>
      <trkpt lat="40.675285" lon="-3.80759667">
        <ele>843.0</ele>
        <time>2018-05-26T07:40:47.151Z</time>
      </trkpt>
      <trkpt lat="40.675285" lon="-3.80759667">
        <ele>843.0</ele>
        <time>2018-05-26T07:40:48.164Z</time>
      </trkpt>
      <trkpt lat="40.675365" lon="-3.80763167">
        <ele>842.0</ele>
        <time>2018-05-26T07:40:49.139Z</time>
      </trkpt>
      <trkpt lat="40.675365" lon="-3.80763167">
        <ele>842.0</ele>
        <time>2018-05-26T07:40:50.143Z</time>
      </trkpt>
      <trkpt lat="40.67546" lon="-3.80765833">
        <ele>841.0</ele>
        <time>2018-05-26T07:40:51.145Z</time>
      </trkpt>
      <trkpt lat="40.67546" lon="-3.80765833">
        <ele>841.0</ele>
        <time>2018-05-26T07:40:52.163Z</time>
      </trkpt>
      <trkpt lat="40.67554833" lon="-3.80769">
        <ele>840.0</ele>
        <time>2018-05-26T07:40:53.176Z</time>
      </trkpt>
      <trkpt lat="40.67554833" lon="-3.80769">
        <ele>840.0</ele>
        <time>2018-05-26T07:40:54.167Z</time>
      </trkpt>
      <trkpt lat="40.67564167" lon="-3.80772167">
        <ele>838.0</ele>
        <time>2018-05-26T07:40:55.137Z</time>
      </trkpt>
      <trkpt lat="40.67564167" lon="-3.80772167">
        <ele>838.0</ele>
        <time>2018-05-26T07:40:56.149Z</time>
      </trkpt>
      <trkpt lat="40.67571667" lon="-3.80777167">
        <ele>836.0</ele>
        <time>2018-05-26T07:40:57.160Z</time>
      </trkpt>
      <trkpt lat="40.67571667" lon="-3.80777167">
        <ele>836.0</ele>
        <time>2018-05-26T07:40:58.154Z</time>
      </trkpt>
      <trkpt lat="40.67576333" lon="-3.80784">
        <ele>835.0</ele>
        <time>2018-05-26T07:40:59.159Z</time>
      </trkpt>
      <trkpt lat="40.67576333" lon="-3.80784">
        <ele>835.0</ele>
        <time>2018-05-26T07:41:00.142Z</time>
      </trkpt>
      <trkpt lat="40.67578667" lon="-3.80788167">
        <ele>833.0</ele>
        <time>2018-05-26T07:41:01.148Z</time>
      </trkpt>
      <trkpt lat="40.67579333" lon="-3.80791167">
        <ele>833.0</ele>
        <time>2018-05-26T07:41:02.158Z</time>
      </trkpt>
      <trkpt lat="40.67579333" lon="-3.80791167">
        <ele>833.0</ele>
        <time>2018-05-26T07:41:03.175Z</time>
      </trkpt>
      <trkpt lat="40.67580667" lon="-3.80796167">
        <ele>832.0</ele>
        <time>2018-05-26T07:41:04.158Z</time>
      </trkpt>
      <trkpt lat="40.67582333" lon="-3.80798667">
        <ele>831.0</ele>
        <time>2018-05-26T07:41:05.155Z</time>
      </trkpt>
      <trkpt lat="40.67582333" lon="-3.80798667">
        <ele>831.0</ele>
        <time>2018-05-26T07:41:06.175Z</time>
      </trkpt>
      <trkpt lat="40.67586833" lon="-3.80800667">
        <ele>830.0</ele>
        <time>2018-05-26T07:41:07.145Z</time>
      </trkpt>
      <trkpt lat="40.67586833" lon="-3.80800667">
        <ele>830.0</ele>
        <time>2018-05-26T07:41:08.169Z</time>
      </trkpt>
      <trkpt lat="40.67592167" lon="-3.80801667">
        <ele>830.0</ele>
        <time>2018-05-26T07:41:09.139Z</time>
      </trkpt>
      <trkpt lat="40.67594167" lon="-3.80802667">
        <ele>830.0</ele>
        <time>2018-05-26T07:41:10.177Z</time>
      </trkpt>
      <trkpt lat="40.67594167" lon="-3.80802667">
        <ele>830.0</ele>
        <time>2018-05-26T07:41:11.162Z</time>
      </trkpt>
      <trkpt lat="40.67597667" lon="-3.80804833">
        <ele>831.0</ele>
        <time>2018-05-26T07:41:12.139Z</time>
      </trkpt>
      <trkpt lat="40.67598833" lon="-3.80806333">
        <ele>832.0</ele>
        <time>2018-05-26T07:41:13.162Z</time>
      </trkpt>
      <trkpt lat="40.67598833" lon="-3.80806333">
        <ele>832.0</ele>
        <time>2018-05-26T07:41:14.175Z</time>
      </trkpt>
      <trkpt lat="40.67599" lon="-3.80811333">
        <ele>832.0</ele>
        <time>2018-05-26T07:41:15.151Z</time>
      </trkpt>
      <trkpt lat="40.67599" lon="-3.80811333">
        <ele>832.0</ele>
        <time>2018-05-26T07:41:16.145Z</time>
      </trkpt>
      <trkpt lat="40.67596667" lon="-3.80819167">
        <ele>833.0</ele>
        <time>2018-05-26T07:41:17.157Z</time>
      </trkpt>
      <trkpt lat="40.67596667" lon="-3.80819167">
        <ele>833.0</ele>
        <time>2018-05-26T07:41:18.139Z</time>
      </trkpt>
      <trkpt lat="40.67598667" lon="-3.80825833">
        <ele>834.0</ele>
        <time>2018-05-26T07:41:19.156Z</time>
      </trkpt>
      <trkpt lat="40.67598667" lon="-3.80825833">
        <ele>834.0</ele>
        <time>2018-05-26T07:41:20.136Z</time>
      </trkpt>
      <trkpt lat="40.67602167" lon="-3.80831833">
        <ele>835.0</ele>
        <time>2018-05-26T07:41:21.149Z</time>
      </trkpt>
      <trkpt lat="40.676045" lon="-3.80833833">
        <ele>836.0</ele>
        <time>2018-05-26T07:41:22.170Z</time>
      </trkpt>
      <trkpt lat="40.67607" lon="-3.808355">
        <ele>837.0</ele>
        <time>2018-05-26T07:41:23.168Z</time>
      </trkpt>
      <trkpt lat="40.67607" lon="-3.808355">
        <ele>837.0</ele>
        <time>2018-05-26T07:41:24.145Z</time>
      </trkpt>
      <trkpt lat="40.67612333" lon="-3.80838167">
        <ele>838.0</ele>
        <time>2018-05-26T07:41:25.156Z</time>
      </trkpt>
      <trkpt lat="40.67612333" lon="-3.80838167">
        <ele>838.0</ele>
        <time>2018-05-26T07:41:26.173Z</time>
      </trkpt>
      <trkpt lat="40.67616667" lon="-3.80842667">
        <ele>839.0</ele>
        <time>2018-05-26T07:41:27.157Z</time>
      </trkpt>
      <trkpt lat="40.67618333" lon="-3.80845">
        <ele>839.0</ele>
        <time>2018-05-26T07:41:28.174Z</time>
      </trkpt>
      <trkpt lat="40.67618333" lon="-3.80845">
        <ele>839.0</ele>
        <time>2018-05-26T07:41:29.157Z</time>
      </trkpt>
      <trkpt lat="40.67619833" lon="-3.80849167">
        <ele>839.0</ele>
        <time>2018-05-26T07:41:30.170Z</time>
      </trkpt>
      <trkpt lat="40.67621" lon="-3.808515">
        <ele>840.0</ele>
        <time>2018-05-26T07:41:31.152Z</time>
      </trkpt>
      <trkpt lat="40.67621" lon="-3.808515">
        <ele>840.0</ele>
        <time>2018-05-26T07:41:32.175Z</time>
      </trkpt>
      <trkpt lat="40.67623667" lon="-3.80855167">
        <ele>840.0</ele>
        <time>2018-05-26T07:41:33.148Z</time>
      </trkpt>
      <trkpt lat="40.67623667" lon="-3.80855167">
        <ele>840.0</ele>
        <time>2018-05-26T07:41:34.166Z</time>
      </trkpt>
      <trkpt lat="40.67628167" lon="-3.808575">
        <ele>840.0</ele>
        <time>2018-05-26T07:41:35.150Z</time>
      </trkpt>
      <trkpt lat="40.67629667" lon="-3.80858333">
        <ele>841.0</ele>
        <time>2018-05-26T07:41:36.168Z</time>
      </trkpt>
      <trkpt lat="40.67629667" lon="-3.80858333">
        <ele>841.0</ele>
        <time>2018-05-26T07:41:37.144Z</time>
      </trkpt>
      <trkpt lat="40.67634" lon="-3.80863167">
        <ele>842.0</ele>
        <time>2018-05-26T07:41:38.153Z</time>
      </trkpt>
      <trkpt lat="40.67634" lon="-3.80863167">
        <ele>842.0</ele>
        <time>2018-05-26T07:41:39.144Z</time>
      </trkpt>
      <trkpt lat="40.676385" lon="-3.80870333">
        <ele>842.0</ele>
        <time>2018-05-26T07:41:40.155Z</time>
      </trkpt>
      <trkpt lat="40.676385" lon="-3.80870333">
        <ele>842.0</ele>
        <time>2018-05-26T07:41:41.173Z</time>
      </trkpt>
      <trkpt lat="40.67644167" lon="-3.808775">
        <ele>842.0</ele>
        <time>2018-05-26T07:41:42.143Z</time>
      </trkpt>
      <trkpt lat="40.67646833" lon="-3.80881167">
        <ele>842.0</ele>
        <time>2018-05-26T07:41:43.165Z</time>
      </trkpt>
      <trkpt lat="40.67646833" lon="-3.80881167">
        <ele>842.0</ele>
        <time>2018-05-26T07:41:44.155Z</time>
      </trkpt>
      <trkpt lat="40.67652667" lon="-3.80886333">
        <ele>842.0</ele>
        <time>2018-05-26T07:41:45.165Z</time>
      </trkpt>
      <trkpt lat="40.676555" lon="-3.80888167">
        <ele>842.0</ele>
        <time>2018-05-26T07:41:46.153Z</time>
      </trkpt>
      <trkpt lat="40.676555" lon="-3.80888167">
        <ele>842.0</ele>
        <time>2018-05-26T07:41:47.167Z</time>
      </trkpt>
      <trkpt lat="40.67661333" lon="-3.80894333">
        <ele>841.0</ele>
        <time>2018-05-26T07:41:48.145Z</time>
      </trkpt>
      <trkpt lat="40.67661333" lon="-3.80894333">
        <ele>841.0</ele>
        <time>2018-05-26T07:41:49.169Z</time>
      </trkpt>
      <trkpt lat="40.67666333" lon="-3.80900667">
        <ele>841.0</ele>
        <time>2018-05-26T07:41:50.137Z</time>
      </trkpt>
      <trkpt lat="40.67666333" lon="-3.80900667">
        <ele>841.0</ele>
        <time>2018-05-26T07:41:51.160Z</time>
      </trkpt>
      <trkpt lat="40.67673833" lon="-3.80905833">
        <ele>840.0</ele>
        <time>2018-05-26T07:41:52.169Z</time>
      </trkpt>
      <trkpt lat="40.67677333" lon="-3.809095">
        <ele>840.0</ele>
        <time>2018-05-26T07:41:53.157Z</time>
      </trkpt>
      <trkpt lat="40.67677333" lon="-3.809095">
        <ele>840.0</ele>
        <time>2018-05-26T07:41:54.137Z</time>
      </trkpt>
      <trkpt lat="40.67684167" lon="-3.80919167">
        <ele>841.0</ele>
        <time>2018-05-26T07:41:55.152Z</time>
      </trkpt>
      <trkpt lat="40.67684167" lon="-3.80919167">
        <ele>841.0</ele>
        <time>2018-05-26T07:41:56.136Z</time>
      </trkpt>
      <trkpt lat="40.67688667" lon="-3.80930667">
        <ele>841.0</ele>
        <time>2018-05-26T07:41:57.146Z</time>
      </trkpt>
      <trkpt lat="40.67690333" lon="-3.809365">
        <ele>841.0</ele>
        <time>2018-05-26T07:41:58.137Z</time>
      </trkpt>
      <trkpt lat="40.67690333" lon="-3.809365">
        <ele>841.0</ele>
        <time>2018-05-26T07:41:59.174Z</time>
      </trkpt>
      <trkpt lat="40.67694" lon="-3.80945667">
        <ele>840.0</ele>
        <time>2018-05-26T07:42:00.165Z</time>
      </trkpt>
      <trkpt lat="40.67695167" lon="-3.80949">
        <ele>840.0</ele>
        <time>2018-05-26T07:42:01.146Z</time>
      </trkpt>
      <trkpt lat="40.67695167" lon="-3.80949">
        <ele>840.0</ele>
        <time>2018-05-26T07:42:02.163Z</time>
      </trkpt>
      <trkpt lat="40.67697" lon="-3.809535">
        <ele>840.0</ele>
        <time>2018-05-26T07:42:03.147Z</time>
      </trkpt>
      <trkpt lat="40.67697" lon="-3.809535">
        <ele>840.0</ele>
        <time>2018-05-26T07:42:04.174Z</time>
      </trkpt>
      <trkpt lat="40.67699667" lon="-3.809585">
        <ele>840.0</ele>
        <time>2018-05-26T07:42:05.153Z</time>
      </trkpt>
      <trkpt lat="40.67699667" lon="-3.809585">
        <ele>840.0</ele>
        <time>2018-05-26T07:42:06.138Z</time>
      </trkpt>
      <trkpt lat="40.67704333" lon="-3.809655">
        <ele>841.0</ele>
        <time>2018-05-26T07:42:07.152Z</time>
      </trkpt>
      <trkpt lat="40.67704333" lon="-3.809655">
        <ele>841.0</ele>
        <time>2018-05-26T07:42:08.150Z</time>
      </trkpt>
      <trkpt lat="40.67706667" lon="-3.80974833">
        <ele>841.0</ele>
        <time>2018-05-26T07:42:09.163Z</time>
      </trkpt>
      <trkpt lat="40.67708167" lon="-3.809795">
        <ele>841.0</ele>
        <time>2018-05-26T07:42:10.156Z</time>
      </trkpt>
      <trkpt lat="40.67710667" lon="-3.80983833">
        <ele>841.0</ele>
        <time>2018-05-26T07:42:11.147Z</time>
      </trkpt>
      <trkpt lat="40.67710667" lon="-3.80983833">
        <ele>841.0</ele>
        <time>2018-05-26T07:42:12.166Z</time>
      </trkpt>
      <trkpt lat="40.67715667" lon="-3.809915">
        <ele>841.0</ele>
        <time>2018-05-26T07:42:13.146Z</time>
      </trkpt>
      <trkpt lat="40.67715667" lon="-3.809915">
        <ele>841.0</ele>
        <time>2018-05-26T07:42:14.165Z</time>
      </trkpt>
      <trkpt lat="40.67720667" lon="-3.81000833">
        <ele>841.0</ele>
        <time>2018-05-26T07:42:15.141Z</time>
      </trkpt>
      <trkpt lat="40.67720667" lon="-3.81000833">
        <ele>841.0</ele>
        <time>2018-05-26T07:42:16.164Z</time>
      </trkpt>
      <trkpt lat="40.67724667" lon="-3.81009667">
        <ele>841.0</ele>
        <time>2018-05-26T07:42:17.142Z</time>
      </trkpt>
      <trkpt lat="40.67726167" lon="-3.81014167">
        <ele>841.0</ele>
        <time>2018-05-26T07:42:18.144Z</time>
      </trkpt>
      <trkpt lat="40.67726167" lon="-3.81014167">
        <ele>841.0</ele>
        <time>2018-05-26T07:42:19.161Z</time>
      </trkpt>
      <trkpt lat="40.67729667" lon="-3.81023">
        <ele>841.0</ele>
        <time>2018-05-26T07:42:20.170Z</time>
      </trkpt>
      <trkpt lat="40.67729667" lon="-3.81023">
        <ele>841.0</ele>
        <time>2018-05-26T07:42:21.149Z</time>
      </trkpt>
      <trkpt lat="40.67733833" lon="-3.810315">
        <ele>841.0</ele>
        <time>2018-05-26T07:42:22.167Z</time>
      </trkpt>
      <trkpt lat="40.67735" lon="-3.81035667">
        <ele>841.0</ele>
        <time>2018-05-26T07:42:23.155Z</time>
      </trkpt>
      <trkpt lat="40.67735" lon="-3.81035667">
        <ele>841.0</ele>
        <time>2018-05-26T07:42:24.153Z</time>
      </trkpt>
      <trkpt lat="40.677365" lon="-3.81044">
        <ele>842.0</ele>
        <time>2018-05-26T07:42:25.160Z</time>
      </trkpt>
      <trkpt lat="40.677365" lon="-3.81044">
        <ele>842.0</ele>
        <time>2018-05-26T07:42:26.160Z</time>
      </trkpt>
      <trkpt lat="40.67734833" lon="-3.81051">
        <ele>842.0</ele>
        <time>2018-05-26T07:42:27.173Z</time>
      </trkpt>
      <trkpt lat="40.67734833" lon="-3.81051">
        <ele>842.0</ele>
        <time>2018-05-26T07:42:28.146Z</time>
      </trkpt>
      <trkpt lat="40.67730333" lon="-3.81057167">
        <ele>843.0</ele>
        <time>2018-05-26T07:42:29.136Z</time>
      </trkpt>
      <trkpt lat="40.677295" lon="-3.810605">
        <ele>843.0</ele>
        <time>2018-05-26T07:42:30.164Z</time>
      </trkpt>
      <trkpt lat="40.677295" lon="-3.810635">
        <ele>843.0</ele>
        <time>2018-05-26T07:42:31.151Z</time>
      </trkpt>
      <trkpt lat="40.677295" lon="-3.810635">
        <ele>843.0</ele>
        <time>2018-05-26T07:42:32.166Z</time>
      </trkpt>
      <trkpt lat="40.67731167" lon="-3.81067667">
        <ele>844.0</ele>
        <time>2018-05-26T07:42:33.137Z</time>
      </trkpt>
      <trkpt lat="40.67731167" lon="-3.81067667">
        <ele>844.0</ele>
        <time>2018-05-26T07:42:34.165Z</time>
      </trkpt>
      <trkpt lat="40.67733833" lon="-3.810695">
        <ele>844.0</ele>
        <time>2018-05-26T07:42:35.149Z</time>
      </trkpt>
      <trkpt lat="40.67733833" lon="-3.810695">
        <ele>844.0</ele>
        <time>2018-05-26T07:42:36.162Z</time>
      </trkpt>
      <trkpt lat="40.67736333" lon="-3.810695">
        <ele>844.0</ele>
        <time>2018-05-26T07:42:37.174Z</time>
      </trkpt>
      <trkpt lat="40.67736333" lon="-3.810695">
        <ele>844.0</ele>
        <time>2018-05-26T07:42:38.160Z</time>
      </trkpt>
      <trkpt lat="40.677385" lon="-3.810695">
        <ele>845.0</ele>
        <time>2018-05-26T07:42:39.144Z</time>
      </trkpt>
      <trkpt lat="40.6774" lon="-3.81069333">
        <ele>844.0</ele>
        <time>2018-05-26T07:42:40.163Z</time>
      </trkpt>
      <trkpt lat="40.6774" lon="-3.81069333">
        <ele>844.0</ele>
        <time>2018-05-26T07:42:41.152Z</time>
      </trkpt>
      <trkpt lat="40.67743833" lon="-3.81069167">
        <ele>845.0</ele>
        <time>2018-05-26T07:42:42.174Z</time>
      </trkpt>
      <trkpt lat="40.67745667" lon="-3.81069333">
        <ele>845.0</ele>
        <time>2018-05-26T07:42:43.154Z</time>
      </trkpt>
      <trkpt lat="40.67745667" lon="-3.81069333">
        <ele>845.0</ele>
        <time>2018-05-26T07:42:44.138Z</time>
      </trkpt>
      <trkpt lat="40.67749167" lon="-3.81071167">
        <ele>846.0</ele>
        <time>2018-05-26T07:42:45.156Z</time>
      </trkpt>
      <trkpt lat="40.67749167" lon="-3.81071167">
        <ele>846.0</ele>
        <time>2018-05-26T07:42:46.151Z</time>
      </trkpt>
      <trkpt lat="40.67751333" lon="-3.81077167">
        <ele>846.0</ele>
        <time>2018-05-26T07:42:47.152Z</time>
      </trkpt>
      <trkpt lat="40.67751333" lon="-3.81077167">
        <ele>846.0</ele>
        <time>2018-05-26T07:42:48.144Z</time>
      </trkpt>
      <trkpt lat="40.67751333" lon="-3.81085">
        <ele>846.0</ele>
        <time>2018-05-26T07:42:49.155Z</time>
      </trkpt>
      <trkpt lat="40.67751333" lon="-3.81085">
        <ele>846.0</ele>
        <time>2018-05-26T07:42:50.157Z</time>
      </trkpt>
      <trkpt lat="40.677515" lon="-3.810945">
        <ele>847.0</ele>
        <time>2018-05-26T07:42:51.170Z</time>
      </trkpt>
      <trkpt lat="40.67751833" lon="-3.81099167">
        <ele>848.0</ele>
        <time>2018-05-26T07:42:52.151Z</time>
      </trkpt>
      <trkpt lat="40.67751833" lon="-3.81099167">
        <ele>848.0</ele>
        <time>2018-05-26T07:42:53.137Z</time>
      </trkpt>
      <trkpt lat="40.67753667" lon="-3.81108167">
        <ele>849.0</ele>
        <time>2018-05-26T07:42:54.145Z</time>
      </trkpt>
      <trkpt lat="40.67755333" lon="-3.811135">
        <ele>848.0</ele>
        <time>2018-05-26T07:42:55.163Z</time>
      </trkpt>
      <trkpt lat="40.67755333" lon="-3.811135">
        <ele>848.0</ele>
        <time>2018-05-26T07:42:56.139Z</time>
      </trkpt>
      <trkpt lat="40.67759833" lon="-3.81123">
        <ele>848.0</ele>
        <time>2018-05-26T07:42:57.155Z</time>
      </trkpt>
      <trkpt lat="40.67759833" lon="-3.81123">
        <ele>848.0</ele>
        <time>2018-05-26T07:42:58.174Z</time>
      </trkpt>
      <trkpt lat="40.67766" lon="-3.81133333">
        <ele>847.0</ele>
        <time>2018-05-26T07:42:59.169Z</time>
      </trkpt>
      <trkpt lat="40.67766" lon="-3.81133333">
        <ele>847.0</ele>
        <time>2018-05-26T07:43:00.143Z</time>
      </trkpt>
      <trkpt lat="40.67768833" lon="-3.811455">
        <ele>847.0</ele>
        <time>2018-05-26T07:43:01.181Z</time>
      </trkpt>
      <trkpt lat="40.67768833" lon="-3.811455">
        <ele>847.0</ele>
        <time>2018-05-26T07:43:02.167Z</time>
      </trkpt>
      <trkpt lat="40.677695" lon="-3.81160167">
        <ele>846.0</ele>
        <time>2018-05-26T07:43:03.138Z</time>
      </trkpt>
      <trkpt lat="40.677695" lon="-3.81160167">
        <ele>846.0</ele>
        <time>2018-05-26T07:43:04.141Z</time>
      </trkpt>
      <trkpt lat="40.67773167" lon="-3.81175">
        <ele>845.0</ele>
        <time>2018-05-26T07:43:05.161Z</time>
      </trkpt>
      <trkpt lat="40.67776333" lon="-3.81179667">
        <ele>845.0</ele>
        <time>2018-05-26T07:43:06.136Z</time>
      </trkpt>
      <trkpt lat="40.67776333" lon="-3.81179667">
        <ele>845.0</ele>
        <time>2018-05-26T07:43:07.163Z</time>
      </trkpt>
      <trkpt lat="40.677815" lon="-3.81185">
        <ele>844.0</ele>
        <time>2018-05-26T07:43:08.145Z</time>
      </trkpt>
      <trkpt lat="40.677815" lon="-3.81185">
        <ele>844.0</ele>
        <time>2018-05-26T07:43:09.166Z</time>
      </trkpt>
      <trkpt lat="40.67782667" lon="-3.81189833">
        <ele>843.0</ele>
        <time>2018-05-26T07:43:10.136Z</time>
      </trkpt>
      <trkpt lat="40.67782667" lon="-3.81189833">
        <ele>843.0</ele>
        <time>2018-05-26T07:43:11.160Z</time>
      </trkpt>
      <trkpt lat="40.67784167" lon="-3.811945">
        <ele>842.0</ele>
        <time>2018-05-26T07:43:12.174Z</time>
      </trkpt>
      <trkpt lat="40.67785333" lon="-3.81195833">
        <ele>842.0</ele>
        <time>2018-05-26T07:43:13.160Z</time>
      </trkpt>
      <trkpt lat="40.67785333" lon="-3.81195833">
        <ele>842.0</ele>
        <time>2018-05-26T07:43:14.136Z</time>
      </trkpt>
      <trkpt lat="40.67786333" lon="-3.81197833">
        <ele>842.0</ele>
        <time>2018-05-26T07:43:15.149Z</time>
      </trkpt>
      <trkpt lat="40.67786333" lon="-3.81197833">
        <ele>842.0</ele>
        <time>2018-05-26T07:43:16.136Z</time>
      </trkpt>
      <trkpt lat="40.677865" lon="-3.811985">
        <ele>842.0</ele>
        <time>2018-05-26T07:43:17.142Z</time>
      </trkpt>
      <trkpt lat="40.677865" lon="-3.811985">
        <ele>842.0</ele>
        <time>2018-05-26T07:43:18.141Z</time>
      </trkpt>
      <trkpt lat="40.67788167" lon="-3.81208">
        <ele>841.0</ele>
        <time>2018-05-26T07:43:19.143Z</time>
      </trkpt>
      <trkpt lat="40.67788167" lon="-3.81208">
        <ele>841.0</ele>
        <time>2018-05-26T07:43:20.142Z</time>
      </trkpt>
      <trkpt lat="40.67789" lon="-3.81211833">
        <ele>841.0</ele>
        <time>2018-05-26T07:43:21.146Z</time>
      </trkpt>
      <trkpt lat="40.67789" lon="-3.81211833">
        <ele>841.0</ele>
        <time>2018-05-26T07:43:22.140Z</time>
      </trkpt>
      <trkpt lat="40.67788833" lon="-3.81212">
        <ele>841.0</ele>
        <time>2018-05-26T07:43:23.164Z</time>
      </trkpt>
      <trkpt lat="40.67788833" lon="-3.81212">
        <ele>841.0</ele>
        <time>2018-05-26T07:43:24.136Z</time>
      </trkpt>
      <trkpt lat="40.67790833" lon="-3.81220333">
        <ele>841.0</ele>
        <time>2018-05-26T07:43:25.148Z</time>
      </trkpt>
      <trkpt lat="40.67790833" lon="-3.81220333">
        <ele>841.0</ele>
        <time>2018-05-26T07:43:26.154Z</time>
      </trkpt>
      <trkpt lat="40.677935" lon="-3.81221167">
        <ele>841.0</ele>
        <time>2018-05-26T07:43:27.161Z</time>
      </trkpt>
      <trkpt lat="40.677935" lon="-3.81221167">
        <ele>841.0</ele>
        <time>2018-05-26T07:43:28.167Z</time>
      </trkpt>
      <trkpt lat="40.67796167" lon="-3.81222167">
        <ele>841.0</ele>
        <time>2018-05-26T07:43:29.175Z</time>
      </trkpt>
      <trkpt lat="40.67796167" lon="-3.81222167">
        <ele>841.0</ele>
        <time>2018-05-26T07:43:30.142Z</time>
      </trkpt>
      <trkpt lat="40.67796667" lon="-3.812225">
        <ele>841.0</ele>
        <time>2018-05-26T07:43:31.165Z</time>
      </trkpt>
      <trkpt lat="40.67797167" lon="-3.81223167">
        <ele>841.0</ele>
        <time>2018-05-26T07:43:32.171Z</time>
      </trkpt>
      <trkpt lat="40.67797167" lon="-3.81223167">
        <ele>841.0</ele>
        <time>2018-05-26T07:43:33.172Z</time>
      </trkpt>
      <trkpt lat="40.67807333" lon="-3.81218833">
        <ele>841.0</ele>
        <time>2018-05-26T07:43:34.170Z</time>
      </trkpt>
      <trkpt lat="40.67808333" lon="-3.81219833">
        <ele>842.0</ele>
        <time>2018-05-26T07:43:35.136Z</time>
      </trkpt>
      <trkpt lat="40.67808333" lon="-3.81219833">
        <ele>842.0</ele>
        <time>2018-05-26T07:43:36.172Z</time>
      </trkpt>
      <trkpt lat="40.67809833" lon="-3.81224833">
        <ele>842.0</ele>
        <time>2018-05-26T07:43:37.141Z</time>
      </trkpt>
      <trkpt lat="40.67809833" lon="-3.81224833">
        <ele>842.0</ele>
        <time>2018-05-26T07:43:38.148Z</time>
      </trkpt>
      <trkpt lat="40.67811833" lon="-3.81231667">
        <ele>842.0</ele>
        <time>2018-05-26T07:43:39.163Z</time>
      </trkpt>
      <trkpt lat="40.678135" lon="-3.81234833">
        <ele>842.0</ele>
        <time>2018-05-26T07:43:40.146Z</time>
      </trkpt>
      <trkpt lat="40.678135" lon="-3.81234833">
        <ele>842.0</ele>
        <time>2018-05-26T07:43:41.152Z</time>
      </trkpt>
      <trkpt lat="40.678155" lon="-3.81240167">
        <ele>843.0</ele>
        <time>2018-05-26T07:43:42.136Z</time>
      </trkpt>
      <trkpt lat="40.678155" lon="-3.81243">
        <ele>843.0</ele>
        <time>2018-05-26T07:43:43.167Z</time>
      </trkpt>
      <trkpt lat="40.678155" lon="-3.81243">
        <ele>843.0</ele>
        <time>2018-05-26T07:43:44.139Z</time>
      </trkpt>
      <trkpt lat="40.678165" lon="-3.81248167">
        <ele>843.0</ele>
        <time>2018-05-26T07:43:45.160Z</time>
      </trkpt>
      <trkpt lat="40.678165" lon="-3.81248167">
        <ele>843.0</ele>
        <time>2018-05-26T07:43:46.167Z</time>
      </trkpt>
      <trkpt lat="40.67817833" lon="-3.812495">
        <ele>844.0</ele>
        <time>2018-05-26T07:43:47.154Z</time>
      </trkpt>
      <trkpt lat="40.67817833" lon="-3.812495">
        <ele>844.0</ele>
        <time>2018-05-26T07:43:48.164Z</time>
      </trkpt>
      <trkpt lat="40.67818167" lon="-3.81249833">
        <ele>844.0</ele>
        <time>2018-05-26T07:43:49.167Z</time>
      </trkpt>
      <trkpt lat="40.67818167" lon="-3.81249833">
        <ele>844.0</ele>
        <time>2018-05-26T07:43:50.139Z</time>
      </trkpt>
      <trkpt lat="40.67818167" lon="-3.81249833">
        <ele>844.0</ele>
        <time>2018-05-26T07:43:51.158Z</time>
      </trkpt>
      <trkpt lat="40.678235" lon="-3.81257833">
        <ele>846.0</ele>
        <time>2018-05-26T07:43:52.141Z</time>
      </trkpt>
      <trkpt lat="40.67824167" lon="-3.81258667">
        <ele>846.0</ele>
        <time>2018-05-26T07:43:53.138Z</time>
      </trkpt>
      <trkpt lat="40.67824667" lon="-3.81259167">
        <ele>846.0</ele>
        <time>2018-05-26T07:43:54.171Z</time>
      </trkpt>
      <trkpt lat="40.67824667" lon="-3.81259167">
        <ele>846.0</ele>
        <time>2018-05-26T07:43:55.142Z</time>
      </trkpt>
      <trkpt lat="40.67825" lon="-3.81260167">
        <ele>846.0</ele>
        <time>2018-05-26T07:43:56.171Z</time>
      </trkpt>
      <trkpt lat="40.67825" lon="-3.812605">
        <ele>846.0</ele>
        <time>2018-05-26T07:43:57.168Z</time>
      </trkpt>
      <trkpt lat="40.67825" lon="-3.812605">
        <ele>846.0</ele>
        <time>2018-05-26T07:43:58.163Z</time>
      </trkpt>
      <trkpt lat="40.67831167" lon="-3.812715">
        <ele>847.0</ele>
        <time>2018-05-26T07:43:59.159Z</time>
      </trkpt>
      <trkpt lat="40.67831167" lon="-3.812715">
        <ele>847.0</ele>
        <time>2018-05-26T07:44:00.138Z</time>
      </trkpt>
      <trkpt lat="40.678325" lon="-3.81275667">
        <ele>848.0</ele>
        <time>2018-05-26T07:44:01.152Z</time>
      </trkpt>
      <trkpt lat="40.678325" lon="-3.81275667">
        <ele>848.0</ele>
        <time>2018-05-26T07:44:02.155Z</time>
      </trkpt>
      <trkpt lat="40.67833667" lon="-3.81279833">
        <ele>848.0</ele>
        <time>2018-05-26T07:44:03.171Z</time>
      </trkpt>
      <trkpt lat="40.678345" lon="-3.81281833">
        <ele>848.0</ele>
        <time>2018-05-26T07:44:04.168Z</time>
      </trkpt>
      <trkpt lat="40.678345" lon="-3.81281833">
        <ele>848.0</ele>
        <time>2018-05-26T07:44:05.140Z</time>
      </trkpt>
      <trkpt lat="40.67836167" lon="-3.812845">
        <ele>849.0</ele>
        <time>2018-05-26T07:44:06.156Z</time>
      </trkpt>
      <trkpt lat="40.678375" lon="-3.81285667">
        <ele>849.0</ele>
        <time>2018-05-26T07:44:07.142Z</time>
      </trkpt>
      <trkpt lat="40.678375" lon="-3.81285667">
        <ele>849.0</ele>
        <time>2018-05-26T07:44:08.145Z</time>
      </trkpt>
      <trkpt lat="40.67838667" lon="-3.81288833">
        <ele>849.0</ele>
        <time>2018-05-26T07:44:09.158Z</time>
      </trkpt>
      <trkpt lat="40.67838833" lon="-3.81290667">
        <ele>850.0</ele>
        <time>2018-05-26T07:44:10.142Z</time>
      </trkpt>
      <trkpt lat="40.67838833" lon="-3.81290667">
        <ele>850.0</ele>
        <time>2018-05-26T07:44:11.144Z</time>
      </trkpt>
      <trkpt lat="40.67839833" lon="-3.81294">
        <ele>850.0</ele>
        <time>2018-05-26T07:44:12.165Z</time>
      </trkpt>
      <trkpt lat="40.67840667" lon="-3.81294167">
        <ele>850.0</ele>
        <time>2018-05-26T07:44:13.177Z</time>
      </trkpt>
      <trkpt lat="40.67840667" lon="-3.81294167">
        <ele>850.0</ele>
        <time>2018-05-26T07:44:14.155Z</time>
      </trkpt>
      <trkpt lat="40.67841333" lon="-3.81294667">
        <ele>850.0</ele>
        <time>2018-05-26T07:44:15.170Z</time>
      </trkpt>
      <trkpt lat="40.67848667" lon="-3.812995">
        <ele>851.0</ele>
        <time>2018-05-26T07:44:16.171Z</time>
      </trkpt>
      <trkpt lat="40.67848667" lon="-3.812995">
        <ele>851.0</ele>
        <time>2018-05-26T07:44:17.161Z</time>
      </trkpt>
      <trkpt lat="40.67851833" lon="-3.813">
        <ele>852.0</ele>
        <time>2018-05-26T07:44:18.167Z</time>
      </trkpt>
      <trkpt lat="40.67851833" lon="-3.813">
        <ele>852.0</ele>
        <time>2018-05-26T07:44:19.166Z</time>
      </trkpt>
      <trkpt lat="40.67855833" lon="-3.813015">
        <ele>852.0</ele>
        <time>2018-05-26T07:44:20.179Z</time>
      </trkpt>
      <trkpt lat="40.67855833" lon="-3.813015">
        <ele>852.0</ele>
        <time>2018-05-26T07:44:21.146Z</time>
      </trkpt>
      <trkpt lat="40.67858333" lon="-3.81305667">
        <ele>853.0</ele>
        <time>2018-05-26T07:44:22.165Z</time>
      </trkpt>
      <trkpt lat="40.67858333" lon="-3.81305667">
        <ele>853.0</ele>
        <time>2018-05-26T07:44:23.155Z</time>
      </trkpt>
      <trkpt lat="40.67859833" lon="-3.81309667">
        <ele>853.0</ele>
        <time>2018-05-26T07:44:24.169Z</time>
      </trkpt>
      <trkpt lat="40.67861333" lon="-3.81311167">
        <ele>854.0</ele>
        <time>2018-05-26T07:44:25.159Z</time>
      </trkpt>
      <trkpt lat="40.67861333" lon="-3.81311167">
        <ele>854.0</ele>
        <time>2018-05-26T07:44:26.161Z</time>
      </trkpt>
      <trkpt lat="40.67865333" lon="-3.81312333">
        <ele>854.0</ele>
        <time>2018-05-26T07:44:27.154Z</time>
      </trkpt>
      <trkpt lat="40.67867167" lon="-3.813135">
        <ele>854.0</ele>
        <time>2018-05-26T07:44:28.160Z</time>
      </trkpt>
      <trkpt lat="40.67867167" lon="-3.813135">
        <ele>854.0</ele>
        <time>2018-05-26T07:44:29.155Z</time>
      </trkpt>
      <trkpt lat="40.67869833" lon="-3.813175">
        <ele>855.0</ele>
        <time>2018-05-26T07:44:30.169Z</time>
      </trkpt>
      <trkpt lat="40.67869833" lon="-3.813175">
        <ele>855.0</ele>
        <time>2018-05-26T07:44:31.146Z</time>
      </trkpt>
      <trkpt lat="40.67873167" lon="-3.813205">
        <ele>856.0</ele>
        <time>2018-05-26T07:44:32.137Z</time>
      </trkpt>
      <trkpt lat="40.67873167" lon="-3.813205">
        <ele>856.0</ele>
        <time>2018-05-26T07:44:33.150Z</time>
      </trkpt>
      <trkpt lat="40.67876167" lon="-3.81323333">
        <ele>857.0</ele>
        <time>2018-05-26T07:44:34.162Z</time>
      </trkpt>
      <trkpt lat="40.67876167" lon="-3.81323333">
        <ele>857.0</ele>
        <time>2018-05-26T07:44:35.147Z</time>
      </trkpt>
      <trkpt lat="40.67879333" lon="-3.81326167">
        <ele>858.0</ele>
        <time>2018-05-26T07:44:36.159Z</time>
      </trkpt>
      <trkpt lat="40.67880333" lon="-3.81328333">
        <ele>858.0</ele>
        <time>2018-05-26T07:44:37.154Z</time>
      </trkpt>
      <trkpt lat="40.67880333" lon="-3.81328333">
        <ele>858.0</ele>
        <time>2018-05-26T07:44:38.136Z</time>
      </trkpt>
      <trkpt lat="40.67880833" lon="-3.81333667">
        <ele>859.0</ele>
        <time>2018-05-26T07:44:39.148Z</time>
      </trkpt>
      <trkpt lat="40.67881667" lon="-3.81335667">
        <ele>859.0</ele>
        <time>2018-05-26T07:44:40.173Z</time>
      </trkpt>
      <trkpt lat="40.67881667" lon="-3.81335667">
        <ele>859.0</ele>
        <time>2018-05-26T07:44:41.156Z</time>
      </trkpt>
      <trkpt lat="40.678845" lon="-3.81338333">
        <ele>860.0</ele>
        <time>2018-05-26T07:44:42.170Z</time>
      </trkpt>
      <trkpt lat="40.67886" lon="-3.81339">
        <ele>861.0</ele>
        <time>2018-05-26T07:44:43.175Z</time>
      </trkpt>
      <trkpt lat="40.67886" lon="-3.81339">
        <ele>861.0</ele>
        <time>2018-05-26T07:44:44.159Z</time>
      </trkpt>
      <trkpt lat="40.67889833" lon="-3.81340333">
        <ele>862.0</ele>
        <time>2018-05-26T07:44:45.172Z</time>
      </trkpt>
      <trkpt lat="40.67890333" lon="-3.81341833">
        <ele>861.0</ele>
        <time>2018-05-26T07:44:46.162Z</time>
      </trkpt>
      <trkpt lat="40.67890333" lon="-3.81341833">
        <ele>861.0</ele>
        <time>2018-05-26T07:44:47.151Z</time>
      </trkpt>
      <trkpt lat="40.678895" lon="-3.81345">
        <ele>862.0</ele>
        <time>2018-05-26T07:44:48.175Z</time>
      </trkpt>
      <trkpt lat="40.67889667" lon="-3.81346">
        <ele>862.0</ele>
        <time>2018-05-26T07:44:49.171Z</time>
      </trkpt>
      <trkpt lat="40.6789" lon="-3.81347">
        <ele>862.0</ele>
        <time>2018-05-26T07:44:50.158Z</time>
      </trkpt>
      <trkpt lat="40.6789" lon="-3.81347">
        <ele>862.0</ele>
        <time>2018-05-26T07:44:51.172Z</time>
      </trkpt>
      <trkpt lat="40.67891333" lon="-3.81351667">
        <ele>862.0</ele>
        <time>2018-05-26T07:44:52.149Z</time>
      </trkpt>
      <trkpt lat="40.67891333" lon="-3.81351667">
        <ele>862.0</ele>
        <time>2018-05-26T07:44:53.161Z</time>
      </trkpt>
      <trkpt lat="40.67893333" lon="-3.81356667">
        <ele>862.0</ele>
        <time>2018-05-26T07:44:54.176Z</time>
      </trkpt>
      <trkpt lat="40.67894833" lon="-3.81359167">
        <ele>862.0</ele>
        <time>2018-05-26T07:44:55.172Z</time>
      </trkpt>
      <trkpt lat="40.67894833" lon="-3.81359167">
        <ele>862.0</ele>
        <time>2018-05-26T07:44:56.152Z</time>
      </trkpt>
      <trkpt lat="40.67896667" lon="-3.81365167">
        <ele>862.0</ele>
        <time>2018-05-26T07:44:57.168Z</time>
      </trkpt>
      <trkpt lat="40.67897167" lon="-3.813685">
        <ele>862.0</ele>
        <time>2018-05-26T07:44:58.171Z</time>
      </trkpt>
      <trkpt lat="40.67897167" lon="-3.813685">
        <ele>862.0</ele>
        <time>2018-05-26T07:44:59.162Z</time>
      </trkpt>
      <trkpt lat="40.67898167" lon="-3.81375667">
        <ele>863.0</ele>
        <time>2018-05-26T07:45:00.139Z</time>
      </trkpt>
      <trkpt lat="40.67898167" lon="-3.81375667">
        <ele>863.0</ele>
        <time>2018-05-26T07:45:01.165Z</time>
      </trkpt>
      <trkpt lat="40.67899" lon="-3.81383333">
        <ele>863.0</ele>
        <time>2018-05-26T07:45:02.136Z</time>
      </trkpt>
      <trkpt lat="40.678995" lon="-3.81387333">
        <ele>864.0</ele>
        <time>2018-05-26T07:45:03.165Z</time>
      </trkpt>
      <trkpt lat="40.67900667" lon="-3.81391333">
        <ele>864.0</ele>
        <time>2018-05-26T07:45:04.148Z</time>
      </trkpt>
      <trkpt lat="40.67900667" lon="-3.81391333">
        <ele>864.0</ele>
        <time>2018-05-26T07:45:05.160Z</time>
      </trkpt>
      <trkpt lat="40.67903333" lon="-3.814005">
        <ele>864.0</ele>
        <time>2018-05-26T07:45:06.138Z</time>
      </trkpt>
      <trkpt lat="40.67904667" lon="-3.81405333">
        <ele>864.0</ele>
        <time>2018-05-26T07:45:07.156Z</time>
      </trkpt>
      <trkpt lat="40.67904667" lon="-3.81405333">
        <ele>864.0</ele>
        <time>2018-05-26T07:45:08.145Z</time>
      </trkpt>
      <trkpt lat="40.67907167" lon="-3.81414667">
        <ele>865.0</ele>
        <time>2018-05-26T07:45:09.160Z</time>
      </trkpt>
      <trkpt lat="40.67908333" lon="-3.81418833">
        <ele>865.0</ele>
        <time>2018-05-26T07:45:10.149Z</time>
      </trkpt>
      <trkpt lat="40.67908333" lon="-3.81418833">
        <ele>865.0</ele>
        <time>2018-05-26T07:45:11.169Z</time>
      </trkpt>
      <trkpt lat="40.67912" lon="-3.81427167">
        <ele>865.0</ele>
        <time>2018-05-26T07:45:12.146Z</time>
      </trkpt>
      <trkpt lat="40.67912" lon="-3.81427167">
        <ele>865.0</ele>
        <time>2018-05-26T07:45:13.166Z</time>
      </trkpt>
      <trkpt lat="40.679145" lon="-3.81435667">
        <ele>865.0</ele>
        <time>2018-05-26T07:45:14.161Z</time>
      </trkpt>
      <trkpt lat="40.679145" lon="-3.81435667">
        <ele>865.0</ele>
        <time>2018-05-26T07:45:15.149Z</time>
      </trkpt>
      <trkpt lat="40.67915833" lon="-3.814445">
        <ele>866.0</ele>
        <time>2018-05-26T07:45:16.160Z</time>
      </trkpt>
      <trkpt lat="40.67915833" lon="-3.814445">
        <ele>866.0</ele>
        <time>2018-05-26T07:45:17.152Z</time>
      </trkpt>
      <trkpt lat="40.679185" lon="-3.81451667">
        <ele>867.0</ele>
        <time>2018-05-26T07:45:18.159Z</time>
      </trkpt>
      <trkpt lat="40.67920833" lon="-3.81454333">
        <ele>867.0</ele>
        <time>2018-05-26T07:45:19.143Z</time>
      </trkpt>
      <trkpt lat="40.67920833" lon="-3.81454333">
        <ele>867.0</ele>
        <time>2018-05-26T07:45:20.165Z</time>
      </trkpt>
      <trkpt lat="40.679265" lon="-3.81459">
        <ele>868.0</ele>
        <time>2018-05-26T07:45:21.152Z</time>
      </trkpt>
      <trkpt lat="40.67929" lon="-3.81462">
        <ele>868.0</ele>
        <time>2018-05-26T07:45:22.163Z</time>
      </trkpt>
      <trkpt lat="40.67929" lon="-3.81462">
        <ele>868.0</ele>
        <time>2018-05-26T07:45:23.149Z</time>
      </trkpt>
      <trkpt lat="40.67934" lon="-3.814685">
        <ele>868.0</ele>
        <time>2018-05-26T07:45:24.159Z</time>
      </trkpt>
      <trkpt lat="40.67934" lon="-3.814685">
        <ele>868.0</ele>
        <time>2018-05-26T07:45:25.139Z</time>
      </trkpt>
      <trkpt lat="40.67939" lon="-3.81474833">
        <ele>868.0</ele>
        <time>2018-05-26T07:45:26.149Z</time>
      </trkpt>
      <trkpt lat="40.67941667" lon="-3.81478">
        <ele>868.0</ele>
        <time>2018-05-26T07:45:27.168Z</time>
      </trkpt>
      <trkpt lat="40.67944333" lon="-3.81481333">
        <ele>868.0</ele>
        <time>2018-05-26T07:45:28.167Z</time>
      </trkpt>
      <trkpt lat="40.67944333" lon="-3.81481333">
        <ele>868.0</ele>
        <time>2018-05-26T07:45:29.166Z</time>
      </trkpt>
      <trkpt lat="40.67949833" lon="-3.814885">
        <ele>869.0</ele>
        <time>2018-05-26T07:45:30.136Z</time>
      </trkpt>
      <trkpt lat="40.67949833" lon="-3.814885">
        <ele>869.0</ele>
        <time>2018-05-26T07:45:31.152Z</time>
      </trkpt>
      <trkpt lat="40.67955" lon="-3.81496167">
        <ele>869.0</ele>
        <time>2018-05-26T07:45:32.164Z</time>
      </trkpt>
      <trkpt lat="40.67955" lon="-3.81496167">
        <ele>869.0</ele>
        <time>2018-05-26T07:45:33.157Z</time>
      </trkpt>
      <trkpt lat="40.67960167" lon="-3.81504">
        <ele>869.0</ele>
        <time>2018-05-26T07:45:34.169Z</time>
      </trkpt>
      <trkpt lat="40.67960167" lon="-3.81504">
        <ele>869.0</ele>
        <time>2018-05-26T07:45:35.158Z</time>
      </trkpt>
      <trkpt lat="40.67963167" lon="-3.81512333">
        <ele>869.0</ele>
        <time>2018-05-26T07:45:36.170Z</time>
      </trkpt>
      <trkpt lat="40.679645" lon="-3.815165">
        <ele>869.0</ele>
        <time>2018-05-26T07:45:37.161Z</time>
      </trkpt>
      <trkpt lat="40.679645" lon="-3.815165">
        <ele>869.0</ele>
        <time>2018-05-26T07:45:38.144Z</time>
      </trkpt>
      <trkpt lat="40.67967167" lon="-3.81525667">
        <ele>870.0</ele>
        <time>2018-05-26T07:45:39.156Z</time>
      </trkpt>
      <trkpt lat="40.67967167" lon="-3.81525667">
        <ele>870.0</ele>
        <time>2018-05-26T07:45:40.142Z</time>
      </trkpt>
      <trkpt lat="40.67969" lon="-3.815365">
        <ele>870.0</ele>
        <time>2018-05-26T07:45:41.159Z</time>
      </trkpt>
      <trkpt lat="40.67969" lon="-3.815365">
        <ele>870.0</ele>
        <time>2018-05-26T07:45:42.144Z</time>
      </trkpt>
      <trkpt lat="40.67971" lon="-3.81547667">
        <ele>870.0</ele>
        <time>2018-05-26T07:45:43.166Z</time>
      </trkpt>
      <trkpt lat="40.67971" lon="-3.81547667">
        <ele>870.0</ele>
        <time>2018-05-26T07:45:44.143Z</time>
      </trkpt>
      <trkpt lat="40.67973167" lon="-3.81558333">
        <ele>869.0</ele>
        <time>2018-05-26T07:45:45.156Z</time>
      </trkpt>
      <trkpt lat="40.67974833" lon="-3.81563333">
        <ele>869.0</ele>
        <time>2018-05-26T07:45:46.140Z</time>
      </trkpt>
      <trkpt lat="40.67974833" lon="-3.81563333">
        <ele>869.0</ele>
        <time>2018-05-26T07:45:47.154Z</time>
      </trkpt>
      <trkpt lat="40.67978333" lon="-3.81573667">
        <ele>869.0</ele>
        <time>2018-05-26T07:45:48.168Z</time>
      </trkpt>
      <trkpt lat="40.679805" lon="-3.81578833">
        <ele>869.0</ele>
        <time>2018-05-26T07:45:49.164Z</time>
      </trkpt>
      <trkpt lat="40.679805" lon="-3.81578833">
        <ele>869.0</ele>
        <time>2018-05-26T07:45:50.144Z</time>
      </trkpt>
      <trkpt lat="40.67983333" lon="-3.81589667">
        <ele>869.0</ele>
        <time>2018-05-26T07:45:51.158Z</time>
      </trkpt>
      <trkpt lat="40.67984667" lon="-3.81595167">
        <ele>869.0</ele>
        <time>2018-05-26T07:45:52.173Z</time>
      </trkpt>
      <trkpt lat="40.67984667" lon="-3.81595167">
        <ele>869.0</ele>
        <time>2018-05-26T07:45:53.146Z</time>
      </trkpt>
      <trkpt lat="40.679895" lon="-3.81605833">
        <ele>869.0</ele>
        <time>2018-05-26T07:45:54.155Z</time>
      </trkpt>
      <trkpt lat="40.67991667" lon="-3.81611833">
        <ele>869.0</ele>
        <time>2018-05-26T07:45:55.138Z</time>
      </trkpt>
      <trkpt lat="40.67991667" lon="-3.81611833">
        <ele>869.0</ele>
        <time>2018-05-26T07:45:56.150Z</time>
      </trkpt>
      <trkpt lat="40.67995667" lon="-3.81624">
        <ele>869.0</ele>
        <time>2018-05-26T07:45:57.163Z</time>
      </trkpt>
      <trkpt lat="40.67998" lon="-3.8163">
        <ele>869.0</ele>
        <time>2018-05-26T07:45:58.149Z</time>
      </trkpt>
      <trkpt lat="40.67998" lon="-3.8163">
        <ele>869.0</ele>
        <time>2018-05-26T07:45:59.145Z</time>
      </trkpt>
      <trkpt lat="40.68002167" lon="-3.81641333">
        <ele>869.0</ele>
        <time>2018-05-26T07:46:00.149Z</time>
      </trkpt>
      <trkpt lat="40.68002167" lon="-3.81641333">
        <ele>869.0</ele>
        <time>2018-05-26T07:46:01.175Z</time>
      </trkpt>
      <trkpt lat="40.680065" lon="-3.816525">
        <ele>869.0</ele>
        <time>2018-05-26T07:46:02.171Z</time>
      </trkpt>
      <trkpt lat="40.680065" lon="-3.816525">
        <ele>869.0</ele>
        <time>2018-05-26T07:46:03.173Z</time>
      </trkpt>
      <trkpt lat="40.68010667" lon="-3.81663833">
        <ele>869.0</ele>
        <time>2018-05-26T07:46:04.148Z</time>
      </trkpt>
      <trkpt lat="40.68010667" lon="-3.81663833">
        <ele>869.0</ele>
        <time>2018-05-26T07:46:05.141Z</time>
      </trkpt>
      <trkpt lat="40.68014333" lon="-3.81676167">
        <ele>869.0</ele>
        <time>2018-05-26T07:46:06.152Z</time>
      </trkpt>
      <trkpt lat="40.68014333" lon="-3.81676167">
        <ele>869.0</ele>
        <time>2018-05-26T07:46:07.163Z</time>
      </trkpt>
      <trkpt lat="40.68018833" lon="-3.81688833">
        <ele>869.0</ele>
        <time>2018-05-26T07:46:08.163Z</time>
      </trkpt>
      <trkpt lat="40.68018833" lon="-3.81688833">
        <ele>869.0</ele>
        <time>2018-05-26T07:46:09.145Z</time>
      </trkpt>
      <trkpt lat="40.68023167" lon="-3.81701833">
        <ele>869.0</ele>
        <time>2018-05-26T07:46:10.159Z</time>
      </trkpt>
      <trkpt lat="40.68023167" lon="-3.81701833">
        <ele>869.0</ele>
        <time>2018-05-26T07:46:11.148Z</time>
      </trkpt>
      <trkpt lat="40.68026667" lon="-3.817165">
        <ele>869.0</ele>
        <time>2018-05-26T07:46:12.157Z</time>
      </trkpt>
      <trkpt lat="40.68026667" lon="-3.817165">
        <ele>869.0</ele>
        <time>2018-05-26T07:46:13.174Z</time>
      </trkpt>
      <trkpt lat="40.68029" lon="-3.81732167">
        <ele>869.0</ele>
        <time>2018-05-26T07:46:14.159Z</time>
      </trkpt>
      <trkpt lat="40.68029" lon="-3.81732167">
        <ele>869.0</ele>
        <time>2018-05-26T07:46:15.152Z</time>
      </trkpt>
      <trkpt lat="40.68033167" lon="-3.81745">
        <ele>869.0</ele>
        <time>2018-05-26T07:46:16.164Z</time>
      </trkpt>
      <trkpt lat="40.68033167" lon="-3.81745">
        <ele>869.0</ele>
        <time>2018-05-26T07:46:17.156Z</time>
      </trkpt>
      <trkpt lat="40.68039333" lon="-3.81759">
        <ele>869.0</ele>
        <time>2018-05-26T07:46:18.167Z</time>
      </trkpt>
      <trkpt lat="40.68043" lon="-3.81766333">
        <ele>868.0</ele>
        <time>2018-05-26T07:46:19.151Z</time>
      </trkpt>
      <trkpt lat="40.68043" lon="-3.81766333">
        <ele>868.0</ele>
        <time>2018-05-26T07:46:20.165Z</time>
      </trkpt>
      <trkpt lat="40.68051667" lon="-3.817815">
        <ele>867.0</ele>
        <time>2018-05-26T07:46:21.138Z</time>
      </trkpt>
      <trkpt lat="40.680565" lon="-3.81788833">
        <ele>867.0</ele>
        <time>2018-05-26T07:46:22.168Z</time>
      </trkpt>
      <trkpt lat="40.680565" lon="-3.81788833">
        <ele>867.0</ele>
        <time>2018-05-26T07:46:23.142Z</time>
      </trkpt>
      <trkpt lat="40.680665" lon="-3.818025">
        <ele>866.0</ele>
        <time>2018-05-26T07:46:24.153Z</time>
      </trkpt>
      <trkpt lat="40.680665" lon="-3.818025">
        <ele>866.0</ele>
        <time>2018-05-26T07:46:25.173Z</time>
      </trkpt>
      <trkpt lat="40.68077" lon="-3.81813333">
        <ele>866.0</ele>
        <time>2018-05-26T07:46:26.147Z</time>
      </trkpt>
      <trkpt lat="40.68077" lon="-3.81813333">
        <ele>866.0</ele>
        <time>2018-05-26T07:46:27.143Z</time>
      </trkpt>
      <trkpt lat="40.68088833" lon="-3.81818833">
        <ele>866.0</ele>
        <time>2018-05-26T07:46:28.157Z</time>
      </trkpt>
      <trkpt lat="40.68088833" lon="-3.81818833">
        <ele>866.0</ele>
        <time>2018-05-26T07:46:29.150Z</time>
      </trkpt>
      <trkpt lat="40.68100667" lon="-3.81822">
        <ele>866.0</ele>
        <time>2018-05-26T07:46:30.157Z</time>
      </trkpt>
      <trkpt lat="40.68100667" lon="-3.81822">
        <ele>866.0</ele>
        <time>2018-05-26T07:46:31.159Z</time>
      </trkpt>
      <trkpt lat="40.68112667" lon="-3.81825667">
        <ele>866.0</ele>
        <time>2018-05-26T07:46:32.172Z</time>
      </trkpt>
      <trkpt lat="40.68112667" lon="-3.81825667">
        <ele>866.0</ele>
        <time>2018-05-26T07:46:33.167Z</time>
      </trkpt>
      <trkpt lat="40.68125" lon="-3.81828167">
        <ele>866.0</ele>
        <time>2018-05-26T07:46:34.136Z</time>
      </trkpt>
      <trkpt lat="40.68125" lon="-3.81828167">
        <ele>866.0</ele>
        <time>2018-05-26T07:46:35.154Z</time>
      </trkpt>
      <trkpt lat="40.68137833" lon="-3.81831">
        <ele>866.0</ele>
        <time>2018-05-26T07:46:36.168Z</time>
      </trkpt>
      <trkpt lat="40.68143833" lon="-3.81832833">
        <ele>866.0</ele>
        <time>2018-05-26T07:46:37.180Z</time>
      </trkpt>
      <trkpt lat="40.68143833" lon="-3.81832833">
        <ele>866.0</ele>
        <time>2018-05-26T07:46:38.174Z</time>
      </trkpt>
      <trkpt lat="40.68157" lon="-3.81836">
        <ele>866.0</ele>
        <time>2018-05-26T07:46:39.142Z</time>
      </trkpt>
      <trkpt lat="40.681635" lon="-3.81837833">
        <ele>866.0</ele>
        <time>2018-05-26T07:46:40.174Z</time>
      </trkpt>
      <trkpt lat="40.681635" lon="-3.81837833">
        <ele>866.0</ele>
        <time>2018-05-26T07:46:41.165Z</time>
      </trkpt>
      <trkpt lat="40.681755" lon="-3.818425">
        <ele>867.0</ele>
        <time>2018-05-26T07:46:42.173Z</time>
      </trkpt>
      <trkpt lat="40.681755" lon="-3.818425">
        <ele>867.0</ele>
        <time>2018-05-26T07:46:43.146Z</time>
      </trkpt>
      <trkpt lat="40.68187167" lon="-3.81845">
        <ele>867.0</ele>
        <time>2018-05-26T07:46:44.159Z</time>
      </trkpt>
      <trkpt lat="40.68187167" lon="-3.81845">
        <ele>867.0</ele>
        <time>2018-05-26T07:46:45.142Z</time>
      </trkpt>
      <trkpt lat="40.68198667" lon="-3.81845">
        <ele>867.0</ele>
        <time>2018-05-26T07:46:46.154Z</time>
      </trkpt>
      <trkpt lat="40.68198667" lon="-3.81845">
        <ele>867.0</ele>
        <time>2018-05-26T07:46:47.147Z</time>
      </trkpt>
      <trkpt lat="40.682095" lon="-3.81843833">
        <ele>868.0</ele>
        <time>2018-05-26T07:46:48.162Z</time>
      </trkpt>
      <trkpt lat="40.682095" lon="-3.81843833">
        <ele>868.0</ele>
        <time>2018-05-26T07:46:49.142Z</time>
      </trkpt>
      <trkpt lat="40.68219667" lon="-3.818425">
        <ele>868.0</ele>
        <time>2018-05-26T07:46:50.156Z</time>
      </trkpt>
      <trkpt lat="40.68219667" lon="-3.818425">
        <ele>868.0</ele>
        <time>2018-05-26T07:46:51.152Z</time>
      </trkpt>
      <trkpt lat="40.6823" lon="-3.81842833">
        <ele>870.0</ele>
        <time>2018-05-26T07:46:52.136Z</time>
      </trkpt>
      <trkpt lat="40.6823" lon="-3.81842833">
        <ele>870.0</ele>
        <time>2018-05-26T07:46:53.160Z</time>
      </trkpt>
      <trkpt lat="40.68240333" lon="-3.81845167">
        <ele>870.0</ele>
        <time>2018-05-26T07:46:54.170Z</time>
      </trkpt>
      <trkpt lat="40.68240333" lon="-3.81845167">
        <ele>870.0</ele>
        <time>2018-05-26T07:46:55.148Z</time>
      </trkpt>
      <trkpt lat="40.68250667" lon="-3.81849">
        <ele>871.0</ele>
        <time>2018-05-26T07:46:56.163Z</time>
      </trkpt>
      <trkpt lat="40.68250667" lon="-3.81849">
        <ele>871.0</ele>
        <time>2018-05-26T07:46:57.142Z</time>
      </trkpt>
      <trkpt lat="40.68261667" lon="-3.818525">
        <ele>871.0</ele>
        <time>2018-05-26T07:46:58.150Z</time>
      </trkpt>
      <trkpt lat="40.68267333" lon="-3.81854">
        <ele>871.0</ele>
        <time>2018-05-26T07:46:59.169Z</time>
      </trkpt>
      <trkpt lat="40.68267333" lon="-3.81854">
        <ele>871.0</ele>
        <time>2018-05-26T07:47:00.140Z</time>
      </trkpt>
      <trkpt lat="40.68279" lon="-3.81857167">
        <ele>871.0</ele>
        <time>2018-05-26T07:47:01.170Z</time>
      </trkpt>
      <trkpt lat="40.68279" lon="-3.81857167">
        <ele>871.0</ele>
        <time>2018-05-26T07:47:02.150Z</time>
      </trkpt>
      <trkpt lat="40.682915" lon="-3.81859667">
        <ele>871.0</ele>
        <time>2018-05-26T07:47:03.165Z</time>
      </trkpt>
      <trkpt lat="40.68297667" lon="-3.81861">
        <ele>871.0</ele>
        <time>2018-05-26T07:47:04.152Z</time>
      </trkpt>
      <trkpt lat="40.68297667" lon="-3.81861">
        <ele>871.0</ele>
        <time>2018-05-26T07:47:05.172Z</time>
      </trkpt>
      <trkpt lat="40.683095" lon="-3.81865333">
        <ele>870.0</ele>
        <time>2018-05-26T07:47:06.145Z</time>
      </trkpt>
      <trkpt lat="40.683095" lon="-3.81865333">
        <ele>870.0</ele>
        <time>2018-05-26T07:47:07.154Z</time>
      </trkpt>
      <trkpt lat="40.6832" lon="-3.81869333">
        <ele>870.0</ele>
        <time>2018-05-26T07:47:08.148Z</time>
      </trkpt>
      <trkpt lat="40.6832" lon="-3.81869333">
        <ele>870.0</ele>
        <time>2018-05-26T07:47:09.139Z</time>
      </trkpt>
      <trkpt lat="40.68328333" lon="-3.81873333">
        <ele>870.0</ele>
        <time>2018-05-26T07:47:10.152Z</time>
      </trkpt>
      <trkpt lat="40.68328333" lon="-3.81873333">
        <ele>870.0</ele>
        <time>2018-05-26T07:47:11.140Z</time>
      </trkpt>
      <trkpt lat="40.68336667" lon="-3.81879167">
        <ele>870.0</ele>
        <time>2018-05-26T07:47:12.155Z</time>
      </trkpt>
      <trkpt lat="40.68336667" lon="-3.81879167">
        <ele>870.0</ele>
        <time>2018-05-26T07:47:13.168Z</time>
      </trkpt>
      <trkpt lat="40.68345667" lon="-3.81886667">
        <ele>870.0</ele>
        <time>2018-05-26T07:47:14.139Z</time>
      </trkpt>
      <trkpt lat="40.68345667" lon="-3.81886667">
        <ele>870.0</ele>
        <time>2018-05-26T07:47:15.154Z</time>
      </trkpt>
      <trkpt lat="40.68355" lon="-3.81895667">
        <ele>869.0</ele>
        <time>2018-05-26T07:47:16.181Z</time>
      </trkpt>
      <trkpt lat="40.68355" lon="-3.81895667">
        <ele>869.0</ele>
        <time>2018-05-26T07:47:17.173Z</time>
      </trkpt>
      <trkpt lat="40.683645" lon="-3.81905">
        <ele>869.0</ele>
        <time>2018-05-26T07:47:18.149Z</time>
      </trkpt>
      <trkpt lat="40.683645" lon="-3.81905">
        <ele>869.0</ele>
        <time>2018-05-26T07:47:19.165Z</time>
      </trkpt>
      <trkpt lat="40.68374167" lon="-3.819145">
        <ele>868.0</ele>
        <time>2018-05-26T07:47:20.175Z</time>
      </trkpt>
      <trkpt lat="40.68374167" lon="-3.819145">
        <ele>868.0</ele>
        <time>2018-05-26T07:47:21.150Z</time>
      </trkpt>
      <trkpt lat="40.68383167" lon="-3.81924167">
        <ele>868.0</ele>
        <time>2018-05-26T07:47:22.161Z</time>
      </trkpt>
      <trkpt lat="40.68383167" lon="-3.81924167">
        <ele>868.0</ele>
        <time>2018-05-26T07:47:23.174Z</time>
      </trkpt>
      <trkpt lat="40.683875" lon="-3.81937833">
        <ele>868.0</ele>
        <time>2018-05-26T07:47:24.145Z</time>
      </trkpt>
      <trkpt lat="40.68389833" lon="-3.81945333">
        <ele>868.0</ele>
        <time>2018-05-26T07:47:25.140Z</time>
      </trkpt>
      <trkpt lat="40.68389833" lon="-3.81945333">
        <ele>868.0</ele>
        <time>2018-05-26T07:47:26.171Z</time>
      </trkpt>
      <trkpt lat="40.68395167" lon="-3.819585">
        <ele>867.0</ele>
        <time>2018-05-26T07:47:27.150Z</time>
      </trkpt>
      <trkpt lat="40.68395167" lon="-3.819585">
        <ele>867.0</ele>
        <time>2018-05-26T07:47:28.150Z</time>
      </trkpt>
      <trkpt lat="40.684005" lon="-3.81970833">
        <ele>867.0</ele>
        <time>2018-05-26T07:47:29.163Z</time>
      </trkpt>
      <trkpt lat="40.684005" lon="-3.81970833">
        <ele>867.0</ele>
        <time>2018-05-26T07:47:30.163Z</time>
      </trkpt>
      <trkpt lat="40.68403167" lon="-3.819825">
        <ele>866.0</ele>
        <time>2018-05-26T07:47:31.175Z</time>
      </trkpt>
      <trkpt lat="40.68403333" lon="-3.81988167">
        <ele>865.0</ele>
        <time>2018-05-26T07:47:32.171Z</time>
      </trkpt>
      <trkpt lat="40.68403333" lon="-3.81988167">
        <ele>865.0</ele>
        <time>2018-05-26T07:47:33.154Z</time>
      </trkpt>
      <trkpt lat="40.68404167" lon="-3.82000167">
        <ele>865.0</ele>
        <time>2018-05-26T07:47:34.163Z</time>
      </trkpt>
      <trkpt lat="40.68404167" lon="-3.82000167">
        <ele>865.0</ele>
        <time>2018-05-26T07:47:35.138Z</time>
      </trkpt>
      <trkpt lat="40.68408667" lon="-3.82012">
        <ele>864.0</ele>
        <time>2018-05-26T07:47:36.158Z</time>
      </trkpt>
      <trkpt lat="40.68411333" lon="-3.82017833">
        <ele>864.0</ele>
        <time>2018-05-26T07:47:37.151Z</time>
      </trkpt>
      <trkpt lat="40.68411333" lon="-3.82017833">
        <ele>864.0</ele>
        <time>2018-05-26T07:47:38.164Z</time>
      </trkpt>
      <trkpt lat="40.68418333" lon="-3.8203">
        <ele>863.0</ele>
        <time>2018-05-26T07:47:39.173Z</time>
      </trkpt>
      <trkpt lat="40.68418333" lon="-3.8203">
        <ele>863.0</ele>
        <time>2018-05-26T07:47:40.170Z</time>
      </trkpt>
      <trkpt lat="40.684265" lon="-3.820425">
        <ele>863.0</ele>
        <time>2018-05-26T07:47:41.141Z</time>
      </trkpt>
      <trkpt lat="40.68430333" lon="-3.82048833">
        <ele>863.0</ele>
        <time>2018-05-26T07:47:42.168Z</time>
      </trkpt>
      <trkpt lat="40.68430333" lon="-3.82048833">
        <ele>863.0</ele>
        <time>2018-05-26T07:47:43.141Z</time>
      </trkpt>
      <trkpt lat="40.68439167" lon="-3.82061833">
        <ele>862.0</ele>
        <time>2018-05-26T07:47:44.158Z</time>
      </trkpt>
      <trkpt lat="40.68439167" lon="-3.82061833">
        <ele>862.0</ele>
        <time>2018-05-26T07:47:45.144Z</time>
      </trkpt>
      <trkpt lat="40.68448167" lon="-3.82076">
        <ele>861.0</ele>
        <time>2018-05-26T07:47:46.159Z</time>
      </trkpt>
      <trkpt lat="40.68448167" lon="-3.82076">
        <ele>861.0</ele>
        <time>2018-05-26T07:47:47.142Z</time>
      </trkpt>
      <trkpt lat="40.68457667" lon="-3.82089333">
        <ele>860.0</ele>
        <time>2018-05-26T07:47:48.157Z</time>
      </trkpt>
      <trkpt lat="40.68462" lon="-3.82096167">
        <ele>860.0</ele>
        <time>2018-05-26T07:47:49.142Z</time>
      </trkpt>
      <trkpt lat="40.68462" lon="-3.82096167">
        <ele>860.0</ele>
        <time>2018-05-26T07:47:50.164Z</time>
      </trkpt>
      <trkpt lat="40.68467833" lon="-3.82108833">
        <ele>859.0</ele>
        <time>2018-05-26T07:47:51.136Z</time>
      </trkpt>
      <trkpt lat="40.68471167" lon="-3.82115">
        <ele>859.0</ele>
        <time>2018-05-26T07:47:52.160Z</time>
      </trkpt>
      <trkpt lat="40.68471167" lon="-3.82115">
        <ele>859.0</ele>
        <time>2018-05-26T07:47:53.138Z</time>
      </trkpt>
      <trkpt lat="40.68480667" lon="-3.82125667">
        <ele>858.0</ele>
        <time>2018-05-26T07:47:54.151Z</time>
      </trkpt>
      <trkpt lat="40.68480667" lon="-3.82125667">
        <ele>858.0</ele>
        <time>2018-05-26T07:47:55.142Z</time>
      </trkpt>
      <trkpt lat="40.684915" lon="-3.82136833">
        <ele>857.0</ele>
        <time>2018-05-26T07:47:56.152Z</time>
      </trkpt>
      <trkpt lat="40.684915" lon="-3.82136833">
        <ele>857.0</ele>
        <time>2018-05-26T07:47:57.142Z</time>
      </trkpt>
      <trkpt lat="40.685005" lon="-3.821485">
        <ele>856.0</ele>
        <time>2018-05-26T07:47:58.155Z</time>
      </trkpt>
      <trkpt lat="40.685005" lon="-3.821485">
        <ele>856.0</ele>
        <time>2018-05-26T07:47:59.155Z</time>
      </trkpt>
      <trkpt lat="40.68504167" lon="-3.82159167">
        <ele>856.0</ele>
        <time>2018-05-26T07:48:00.159Z</time>
      </trkpt>
      <trkpt lat="40.68504167" lon="-3.82159167">
        <ele>856.0</ele>
        <time>2018-05-26T07:48:01.146Z</time>
      </trkpt>
      <trkpt lat="40.68499333" lon="-3.82166667">
        <ele>856.0</ele>
        <time>2018-05-26T07:48:02.165Z</time>
      </trkpt>
      <trkpt lat="40.68499333" lon="-3.82166667">
        <ele>856.0</ele>
        <time>2018-05-26T07:48:03.149Z</time>
      </trkpt>
      <trkpt lat="40.68492167" lon="-3.821755">
        <ele>856.0</ele>
        <time>2018-05-26T07:48:04.161Z</time>
      </trkpt>
      <trkpt lat="40.68492167" lon="-3.821755">
        <ele>856.0</ele>
        <time>2018-05-26T07:48:05.137Z</time>
      </trkpt>
      <trkpt lat="40.68488167" lon="-3.82188667">
        <ele>857.0</ele>
        <time>2018-05-26T07:48:06.145Z</time>
      </trkpt>
      <trkpt lat="40.68488167" lon="-3.82188667">
        <ele>857.0</ele>
        <time>2018-05-26T07:48:07.165Z</time>
      </trkpt>
      <trkpt lat="40.684875" lon="-3.82204667">
        <ele>857.0</ele>
        <time>2018-05-26T07:48:08.174Z</time>
      </trkpt>
      <trkpt lat="40.68487833" lon="-3.82213">
        <ele>857.0</ele>
        <time>2018-05-26T07:48:09.167Z</time>
      </trkpt>
      <trkpt lat="40.68487833" lon="-3.82213">
        <ele>857.0</ele>
        <time>2018-05-26T07:48:10.144Z</time>
      </trkpt>
      <trkpt lat="40.68489333" lon="-3.82229667">
        <ele>856.0</ele>
        <time>2018-05-26T07:48:11.161Z</time>
      </trkpt>
      <trkpt lat="40.68489333" lon="-3.82229667">
        <ele>856.0</ele>
        <time>2018-05-26T07:48:12.172Z</time>
      </trkpt>
      <trkpt lat="40.68495667" lon="-3.82244833">
        <ele>856.0</ele>
        <time>2018-05-26T07:48:13.146Z</time>
      </trkpt>
      <trkpt lat="40.68495667" lon="-3.82244833">
        <ele>856.0</ele>
        <time>2018-05-26T07:48:14.165Z</time>
      </trkpt>
      <trkpt lat="40.68506" lon="-3.82255833">
        <ele>855.0</ele>
        <time>2018-05-26T07:48:15.137Z</time>
      </trkpt>
      <trkpt lat="40.68506" lon="-3.82255833">
        <ele>855.0</ele>
        <time>2018-05-26T07:48:16.157Z</time>
      </trkpt>
      <trkpt lat="40.6852" lon="-3.82265667">
        <ele>853.0</ele>
        <time>2018-05-26T07:48:17.165Z</time>
      </trkpt>
      <trkpt lat="40.6852" lon="-3.82265667">
        <ele>853.0</ele>
        <time>2018-05-26T07:48:18.156Z</time>
      </trkpt>
      <trkpt lat="40.68534333" lon="-3.82281">
        <ele>851.0</ele>
        <time>2018-05-26T07:48:19.152Z</time>
      </trkpt>
      <trkpt lat="40.68534333" lon="-3.82281">
        <ele>851.0</ele>
        <time>2018-05-26T07:48:20.144Z</time>
      </trkpt>
      <trkpt lat="40.68543" lon="-3.82302667">
        <ele>850.0</ele>
        <time>2018-05-26T07:48:21.154Z</time>
      </trkpt>
      <trkpt lat="40.68548" lon="-3.82313">
        <ele>849.0</ele>
        <time>2018-05-26T07:48:22.146Z</time>
      </trkpt>
      <trkpt lat="40.68548" lon="-3.82313">
        <ele>849.0</ele>
        <time>2018-05-26T07:48:23.166Z</time>
      </trkpt>
      <trkpt lat="40.685605" lon="-3.82327167">
        <ele>847.0</ele>
        <time>2018-05-26T07:48:24.143Z</time>
      </trkpt>
      <trkpt lat="40.68568" lon="-3.82331">
        <ele>847.0</ele>
        <time>2018-05-26T07:48:25.169Z</time>
      </trkpt>
      <trkpt lat="40.68568" lon="-3.82331">
        <ele>847.0</ele>
        <time>2018-05-26T07:48:26.140Z</time>
      </trkpt>
      <trkpt lat="40.68582" lon="-3.82332667">
        <ele>847.0</ele>
        <time>2018-05-26T07:48:27.152Z</time>
      </trkpt>
      <trkpt lat="40.68582" lon="-3.82332667">
        <ele>847.0</ele>
        <time>2018-05-26T07:48:28.164Z</time>
      </trkpt>
      <trkpt lat="40.685935" lon="-3.82331">
        <ele>847.0</ele>
        <time>2018-05-26T07:48:29.174Z</time>
      </trkpt>
      <trkpt lat="40.685935" lon="-3.82331">
        <ele>847.0</ele>
        <time>2018-05-26T07:48:30.154Z</time>
      </trkpt>
      <trkpt lat="40.68603333" lon="-3.82331333">
        <ele>846.0</ele>
        <time>2018-05-26T07:48:31.163Z</time>
      </trkpt>
      <trkpt lat="40.68603333" lon="-3.82331333">
        <ele>846.0</ele>
        <time>2018-05-26T07:48:32.174Z</time>
      </trkpt>
      <trkpt lat="40.68608667" lon="-3.8234">
        <ele>846.0</ele>
        <time>2018-05-26T07:48:33.145Z</time>
      </trkpt>
      <trkpt lat="40.68609333" lon="-3.82344833">
        <ele>846.0</ele>
        <time>2018-05-26T07:48:34.138Z</time>
      </trkpt>
      <trkpt lat="40.68609333" lon="-3.82344833">
        <ele>846.0</ele>
        <time>2018-05-26T07:48:35.165Z</time>
      </trkpt>
      <trkpt lat="40.68612167" lon="-3.82353667">
        <ele>845.0</ele>
        <time>2018-05-26T07:48:36.154Z</time>
      </trkpt>
      <trkpt lat="40.68614333" lon="-3.82358167">
        <ele>845.0</ele>
        <time>2018-05-26T07:48:37.164Z</time>
      </trkpt>
      <trkpt lat="40.68616667" lon="-3.82362333">
        <ele>845.0</ele>
        <time>2018-05-26T07:48:38.179Z</time>
      </trkpt>
      <trkpt lat="40.68618667" lon="-3.82367">
        <ele>845.0</ele>
        <time>2018-05-26T07:48:39.145Z</time>
      </trkpt>
      <trkpt lat="40.68618667" lon="-3.82367">
        <ele>845.0</ele>
        <time>2018-05-26T07:48:40.166Z</time>
      </trkpt>
      <trkpt lat="40.68622" lon="-3.82376">
        <ele>844.0</ele>
        <time>2018-05-26T07:48:41.144Z</time>
      </trkpt>
      <trkpt lat="40.68622" lon="-3.82376">
        <ele>844.0</ele>
        <time>2018-05-26T07:48:42.159Z</time>
      </trkpt>
      <trkpt lat="40.68627167" lon="-3.82382333">
        <ele>844.0</ele>
        <time>2018-05-26T07:48:43.171Z</time>
      </trkpt>
      <trkpt lat="40.68627167" lon="-3.82382333">
        <ele>844.0</ele>
        <time>2018-05-26T07:48:44.153Z</time>
      </trkpt>
      <trkpt lat="40.68632" lon="-3.82389">
        <ele>844.0</ele>
        <time>2018-05-26T07:48:45.150Z</time>
      </trkpt>
      <trkpt lat="40.68634167" lon="-3.82392">
        <ele>844.0</ele>
        <time>2018-05-26T07:48:46.156Z</time>
      </trkpt>
      <trkpt lat="40.68634167" lon="-3.82392">
        <ele>844.0</ele>
        <time>2018-05-26T07:48:47.138Z</time>
      </trkpt>
      <trkpt lat="40.68636833" lon="-3.82398833">
        <ele>845.0</ele>
        <time>2018-05-26T07:48:48.153Z</time>
      </trkpt>
      <trkpt lat="40.68636833" lon="-3.82398833">
        <ele>845.0</ele>
        <time>2018-05-26T07:48:49.170Z</time>
      </trkpt>
      <trkpt lat="40.68637667" lon="-3.82406667">
        <ele>845.0</ele>
        <time>2018-05-26T07:48:50.166Z</time>
      </trkpt>
      <trkpt lat="40.68638333" lon="-3.8241">
        <ele>845.0</ele>
        <time>2018-05-26T07:48:51.137Z</time>
      </trkpt>
      <trkpt lat="40.68638333" lon="-3.8241">
        <ele>845.0</ele>
        <time>2018-05-26T07:48:52.153Z</time>
      </trkpt>
      <trkpt lat="40.68639667" lon="-3.82417667">
        <ele>845.0</ele>
        <time>2018-05-26T07:48:53.165Z</time>
      </trkpt>
      <trkpt lat="40.68639667" lon="-3.82417667">
        <ele>845.0</ele>
        <time>2018-05-26T07:48:54.148Z</time>
      </trkpt>
      <trkpt lat="40.68640667" lon="-3.82424333">
        <ele>846.0</ele>
        <time>2018-05-26T07:48:55.169Z</time>
      </trkpt>
      <trkpt lat="40.686405" lon="-3.82427333">
        <ele>846.0</ele>
        <time>2018-05-26T07:48:56.138Z</time>
      </trkpt>
      <trkpt lat="40.686405" lon="-3.82427333">
        <ele>846.0</ele>
        <time>2018-05-26T07:48:57.150Z</time>
      </trkpt>
      <trkpt lat="40.6864" lon="-3.82433333">
        <ele>846.0</ele>
        <time>2018-05-26T07:48:58.161Z</time>
      </trkpt>
      <trkpt lat="40.6864" lon="-3.82433333">
        <ele>846.0</ele>
        <time>2018-05-26T07:48:59.155Z</time>
      </trkpt>
      <trkpt lat="40.68640667" lon="-3.82439333">
        <ele>847.0</ele>
        <time>2018-05-26T07:49:00.152Z</time>
      </trkpt>
      <trkpt lat="40.68640833" lon="-3.82442167">
        <ele>847.0</ele>
        <time>2018-05-26T07:49:01.156Z</time>
      </trkpt>
      <trkpt lat="40.68640833" lon="-3.82442167">
        <ele>847.0</ele>
        <time>2018-05-26T07:49:02.148Z</time>
      </trkpt>
      <trkpt lat="40.68642" lon="-3.824475">
        <ele>847.0</ele>
        <time>2018-05-26T07:49:03.160Z</time>
      </trkpt>
      <trkpt lat="40.686425" lon="-3.824495">
        <ele>847.0</ele>
        <time>2018-05-26T07:49:04.149Z</time>
      </trkpt>
      <trkpt lat="40.686425" lon="-3.824495">
        <ele>847.0</ele>
        <time>2018-05-26T07:49:05.166Z</time>
      </trkpt>
      <trkpt lat="40.68644" lon="-3.82454667">
        <ele>848.0</ele>
        <time>2018-05-26T07:49:06.145Z</time>
      </trkpt>
      <trkpt lat="40.68645" lon="-3.82456833">
        <ele>848.0</ele>
        <time>2018-05-26T07:49:07.170Z</time>
      </trkpt>
      <trkpt lat="40.68645" lon="-3.82456833">
        <ele>848.0</ele>
        <time>2018-05-26T07:49:08.157Z</time>
      </trkpt>
      <trkpt lat="40.68647167" lon="-3.82461333">
        <ele>849.0</ele>
        <time>2018-05-26T07:49:09.172Z</time>
      </trkpt>
      <trkpt lat="40.68647167" lon="-3.82461333">
        <ele>849.0</ele>
        <time>2018-05-26T07:49:10.146Z</time>
      </trkpt>
      <trkpt lat="40.6865" lon="-3.82465333">
        <ele>850.0</ele>
        <time>2018-05-26T07:49:11.156Z</time>
      </trkpt>
      <trkpt lat="40.68652167" lon="-3.82466333">
        <ele>851.0</ele>
        <time>2018-05-26T07:49:12.173Z</time>
      </trkpt>
      <trkpt lat="40.68652167" lon="-3.82466333">
        <ele>851.0</ele>
        <time>2018-05-26T07:49:13.147Z</time>
      </trkpt>
      <trkpt lat="40.686575" lon="-3.82467167">
        <ele>852.0</ele>
        <time>2018-05-26T07:49:14.165Z</time>
      </trkpt>
      <trkpt lat="40.686575" lon="-3.82467167">
        <ele>852.0</ele>
        <time>2018-05-26T07:49:15.145Z</time>
      </trkpt>
      <trkpt lat="40.686635" lon="-3.82466667">
        <ele>853.0</ele>
        <time>2018-05-26T07:49:16.158Z</time>
      </trkpt>
      <trkpt lat="40.686635" lon="-3.82466667">
        <ele>853.0</ele>
        <time>2018-05-26T07:49:17.141Z</time>
      </trkpt>
      <trkpt lat="40.68670167" lon="-3.82465167">
        <ele>853.0</ele>
        <time>2018-05-26T07:49:18.176Z</time>
      </trkpt>
      <trkpt lat="40.68670167" lon="-3.82465167">
        <ele>853.0</ele>
        <time>2018-05-26T07:49:19.165Z</time>
      </trkpt>
      <trkpt lat="40.68677333" lon="-3.82463667">
        <ele>854.0</ele>
        <time>2018-05-26T07:49:20.176Z</time>
      </trkpt>
      <trkpt lat="40.68677333" lon="-3.82463667">
        <ele>854.0</ele>
        <time>2018-05-26T07:49:21.157Z</time>
      </trkpt>
      <trkpt lat="40.68684667" lon="-3.82462667">
        <ele>854.0</ele>
        <time>2018-05-26T07:49:22.169Z</time>
      </trkpt>
      <trkpt lat="40.68684667" lon="-3.82462667">
        <ele>854.0</ele>
        <time>2018-05-26T07:49:23.155Z</time>
      </trkpt>
      <trkpt lat="40.68691333" lon="-3.824595">
        <ele>854.0</ele>
        <time>2018-05-26T07:49:24.166Z</time>
      </trkpt>
      <trkpt lat="40.68694333" lon="-3.82457333">
        <ele>854.0</ele>
        <time>2018-05-26T07:49:25.156Z</time>
      </trkpt>
      <trkpt lat="40.68694333" lon="-3.82457333">
        <ele>854.0</ele>
        <time>2018-05-26T07:49:26.147Z</time>
      </trkpt>
      <trkpt lat="40.68699833" lon="-3.82453">
        <ele>855.0</ele>
        <time>2018-05-26T07:49:27.159Z</time>
      </trkpt>
      <trkpt lat="40.68699833" lon="-3.82453">
        <ele>855.0</ele>
        <time>2018-05-26T07:49:28.173Z</time>
      </trkpt>
      <trkpt lat="40.68705167" lon="-3.82450333">
        <ele>856.0</ele>
        <time>2018-05-26T07:49:29.148Z</time>
      </trkpt>
      <trkpt lat="40.68705167" lon="-3.82450333">
        <ele>856.0</ele>
        <time>2018-05-26T07:49:30.164Z</time>
      </trkpt>
      <trkpt lat="40.68711667" lon="-3.82451">
        <ele>857.0</ele>
        <time>2018-05-26T07:49:31.174Z</time>
      </trkpt>
      <trkpt lat="40.68715" lon="-3.82452333">
        <ele>857.0</ele>
        <time>2018-05-26T07:49:32.160Z</time>
      </trkpt>
      <trkpt lat="40.68715" lon="-3.82452333">
        <ele>857.0</ele>
        <time>2018-05-26T07:49:33.148Z</time>
      </trkpt>
      <trkpt lat="40.68722" lon="-3.82455833">
        <ele>858.0</ele>
        <time>2018-05-26T07:49:34.158Z</time>
      </trkpt>
      <trkpt lat="40.68722" lon="-3.82455833">
        <ele>858.0</ele>
        <time>2018-05-26T07:49:35.147Z</time>
      </trkpt>
      <trkpt lat="40.68728833" lon="-3.824595">
        <ele>858.0</ele>
        <time>2018-05-26T07:49:36.165Z</time>
      </trkpt>
      <trkpt lat="40.68732167" lon="-3.82461333">
        <ele>858.0</ele>
        <time>2018-05-26T07:49:37.174Z</time>
      </trkpt>
      <trkpt lat="40.68732167" lon="-3.82461333">
        <ele>858.0</ele>
        <time>2018-05-26T07:49:38.142Z</time>
      </trkpt>
      <trkpt lat="40.68738667" lon="-3.82465167">
        <ele>858.0</ele>
        <time>2018-05-26T07:49:39.157Z</time>
      </trkpt>
      <trkpt lat="40.68742" lon="-3.82467333">
        <ele>858.0</ele>
        <time>2018-05-26T07:49:40.152Z</time>
      </trkpt>
      <trkpt lat="40.68742" lon="-3.82467333">
        <ele>858.0</ele>
        <time>2018-05-26T07:49:41.146Z</time>
      </trkpt>
      <trkpt lat="40.68748" lon="-3.82472333">
        <ele>859.0</ele>
        <time>2018-05-26T07:49:42.167Z</time>
      </trkpt>
      <trkpt lat="40.68748" lon="-3.82472333">
        <ele>859.0</ele>
        <time>2018-05-26T07:49:43.147Z</time>
      </trkpt>
      <trkpt lat="40.68753333" lon="-3.82478">
        <ele>859.0</ele>
        <time>2018-05-26T07:49:44.160Z</time>
      </trkpt>
      <trkpt lat="40.68753333" lon="-3.82478">
        <ele>859.0</ele>
        <time>2018-05-26T07:49:45.173Z</time>
      </trkpt>
      <trkpt lat="40.68758167" lon="-3.82484333">
        <ele>860.0</ele>
        <time>2018-05-26T07:49:46.145Z</time>
      </trkpt>
      <trkpt lat="40.68758167" lon="-3.82484333">
        <ele>860.0</ele>
        <time>2018-05-26T07:49:47.142Z</time>
      </trkpt>
      <trkpt lat="40.68762833" lon="-3.82490833">
        <ele>860.0</ele>
        <time>2018-05-26T07:49:48.160Z</time>
      </trkpt>
      <trkpt lat="40.68765333" lon="-3.82494167">
        <ele>861.0</ele>
        <time>2018-05-26T07:49:49.145Z</time>
      </trkpt>
      <trkpt lat="40.68765333" lon="-3.82494167">
        <ele>861.0</ele>
        <time>2018-05-26T07:49:50.154Z</time>
      </trkpt>
      <trkpt lat="40.68770167" lon="-3.82501">
        <ele>861.0</ele>
        <time>2018-05-26T07:49:51.169Z</time>
      </trkpt>
      <trkpt lat="40.68772833" lon="-3.82504333">
        <ele>861.0</ele>
        <time>2018-05-26T07:49:52.152Z</time>
      </trkpt>
      <trkpt lat="40.68772833" lon="-3.82504333">
        <ele>861.0</ele>
        <time>2018-05-26T07:49:53.169Z</time>
      </trkpt>
      <trkpt lat="40.68777333" lon="-3.825115">
        <ele>862.0</ele>
        <time>2018-05-26T07:49:54.147Z</time>
      </trkpt>
      <trkpt lat="40.68777333" lon="-3.825115">
        <ele>862.0</ele>
        <time>2018-05-26T07:49:55.161Z</time>
      </trkpt>
      <trkpt lat="40.687825" lon="-3.82518833">
        <ele>862.0</ele>
        <time>2018-05-26T07:49:56.143Z</time>
      </trkpt>
      <trkpt lat="40.687825" lon="-3.82518833">
        <ele>862.0</ele>
        <time>2018-05-26T07:49:57.142Z</time>
      </trkpt>
      <trkpt lat="40.68787" lon="-3.82526667">
        <ele>863.0</ele>
        <time>2018-05-26T07:49:58.156Z</time>
      </trkpt>
      <trkpt lat="40.68787" lon="-3.82526667">
        <ele>863.0</ele>
        <time>2018-05-26T07:49:59.175Z</time>
      </trkpt>
      <trkpt lat="40.68790833" lon="-3.82535">
        <ele>863.0</ele>
        <time>2018-05-26T07:50:00.164Z</time>
      </trkpt>
      <trkpt lat="40.68790833" lon="-3.82535">
        <ele>863.0</ele>
        <time>2018-05-26T07:50:01.160Z</time>
      </trkpt>
      <trkpt lat="40.68794333" lon="-3.825435">
        <ele>863.0</ele>
        <time>2018-05-26T07:50:02.170Z</time>
      </trkpt>
      <trkpt lat="40.68794333" lon="-3.825435">
        <ele>863.0</ele>
        <time>2018-05-26T07:50:03.156Z</time>
      </trkpt>
      <trkpt lat="40.68798" lon="-3.825515">
        <ele>863.0</ele>
        <time>2018-05-26T07:50:04.165Z</time>
      </trkpt>
      <trkpt lat="40.68798" lon="-3.825515">
        <ele>863.0</ele>
        <time>2018-05-26T07:50:05.141Z</time>
      </trkpt>
      <trkpt lat="40.68801667" lon="-3.82559333">
        <ele>864.0</ele>
        <time>2018-05-26T07:50:06.162Z</time>
      </trkpt>
      <trkpt lat="40.68803333" lon="-3.82563167">
        <ele>864.0</ele>
        <time>2018-05-26T07:50:07.148Z</time>
      </trkpt>
      <trkpt lat="40.68803333" lon="-3.82563167">
        <ele>864.0</ele>
        <time>2018-05-26T07:50:08.168Z</time>
      </trkpt>
      <trkpt lat="40.68807167" lon="-3.82570833">
        <ele>864.0</ele>
        <time>2018-05-26T07:50:09.136Z</time>
      </trkpt>
      <trkpt lat="40.68807167" lon="-3.82570833">
        <ele>864.0</ele>
        <time>2018-05-26T07:50:10.159Z</time>
      </trkpt>
      <trkpt lat="40.688115" lon="-3.82578167">
        <ele>865.0</ele>
        <time>2018-05-26T07:50:11.173Z</time>
      </trkpt>
      <trkpt lat="40.68813833" lon="-3.82581667">
        <ele>865.0</ele>
        <time>2018-05-26T07:50:12.153Z</time>
      </trkpt>
      <trkpt lat="40.68813833" lon="-3.82581667">
        <ele>865.0</ele>
        <time>2018-05-26T07:50:13.170Z</time>
      </trkpt>
      <trkpt lat="40.688185" lon="-3.82588833">
        <ele>865.0</ele>
        <time>2018-05-26T07:50:14.144Z</time>
      </trkpt>
      <trkpt lat="40.68820833" lon="-3.82592167">
        <ele>865.0</ele>
        <time>2018-05-26T07:50:15.173Z</time>
      </trkpt>
      <trkpt lat="40.68820833" lon="-3.82592167">
        <ele>865.0</ele>
        <time>2018-05-26T07:50:16.158Z</time>
      </trkpt>
      <trkpt lat="40.68825667" lon="-3.82598833">
        <ele>865.0</ele>
        <time>2018-05-26T07:50:17.137Z</time>
      </trkpt>
      <trkpt lat="40.68825667" lon="-3.82598833">
        <ele>865.0</ele>
        <time>2018-05-26T07:50:18.170Z</time>
      </trkpt>
      <trkpt lat="40.68831167" lon="-3.826055">
        <ele>865.0</ele>
        <time>2018-05-26T07:50:19.137Z</time>
      </trkpt>
      <trkpt lat="40.68831167" lon="-3.826055">
        <ele>865.0</ele>
        <time>2018-05-26T07:50:20.156Z</time>
      </trkpt>
      <trkpt lat="40.68836667" lon="-3.82612667">
        <ele>865.0</ele>
        <time>2018-05-26T07:50:21.176Z</time>
      </trkpt>
      <trkpt lat="40.688395" lon="-3.82616333">
        <ele>865.0</ele>
        <time>2018-05-26T07:50:22.153Z</time>
      </trkpt>
      <trkpt lat="40.688395" lon="-3.82616333">
        <ele>865.0</ele>
        <time>2018-05-26T07:50:23.168Z</time>
      </trkpt>
      <trkpt lat="40.68845667" lon="-3.826235">
        <ele>865.0</ele>
        <time>2018-05-26T07:50:24.140Z</time>
      </trkpt>
      <trkpt lat="40.68845667" lon="-3.826235">
        <ele>865.0</ele>
        <time>2018-05-26T07:50:25.166Z</time>
      </trkpt>
      <trkpt lat="40.688515" lon="-3.826305">
        <ele>865.0</ele>
        <time>2018-05-26T07:50:26.137Z</time>
      </trkpt>
      <trkpt lat="40.688515" lon="-3.826305">
        <ele>865.0</ele>
        <time>2018-05-26T07:50:27.141Z</time>
      </trkpt>
      <trkpt lat="40.68858667" lon="-3.82636833">
        <ele>865.0</ele>
        <time>2018-05-26T07:50:28.153Z</time>
      </trkpt>
      <trkpt lat="40.68858667" lon="-3.82636833">
        <ele>865.0</ele>
        <time>2018-05-26T07:50:29.174Z</time>
      </trkpt>
      <trkpt lat="40.68864833" lon="-3.82644">
        <ele>865.0</ele>
        <time>2018-05-26T07:50:30.157Z</time>
      </trkpt>
      <trkpt lat="40.68864833" lon="-3.82644">
        <ele>865.0</ele>
        <time>2018-05-26T07:50:31.138Z</time>
      </trkpt>
      <trkpt lat="40.68871" lon="-3.82651">
        <ele>866.0</ele>
        <time>2018-05-26T07:50:32.151Z</time>
      </trkpt>
      <trkpt lat="40.68871" lon="-3.82651">
        <ele>866.0</ele>
        <time>2018-05-26T07:50:33.147Z</time>
      </trkpt>
      <trkpt lat="40.68877167" lon="-3.82657833">
        <ele>866.0</ele>
        <time>2018-05-26T07:50:34.159Z</time>
      </trkpt>
      <trkpt lat="40.68877167" lon="-3.82657833">
        <ele>866.0</ele>
        <time>2018-05-26T07:50:35.151Z</time>
      </trkpt>
      <trkpt lat="40.68883333" lon="-3.82664667">
        <ele>867.0</ele>
        <time>2018-05-26T07:50:36.164Z</time>
      </trkpt>
      <trkpt lat="40.68886333" lon="-3.82668167">
        <ele>867.0</ele>
        <time>2018-05-26T07:50:37.173Z</time>
      </trkpt>
      <trkpt lat="40.68886333" lon="-3.82668167">
        <ele>867.0</ele>
        <time>2018-05-26T07:50:38.161Z</time>
      </trkpt>
      <trkpt lat="40.68892167" lon="-3.82675">
        <ele>867.0</ele>
        <time>2018-05-26T07:50:39.138Z</time>
      </trkpt>
      <trkpt lat="40.68895167" lon="-3.82678333">
        <ele>868.0</ele>
        <time>2018-05-26T07:50:40.164Z</time>
      </trkpt>
      <trkpt lat="40.68895167" lon="-3.82678333">
        <ele>868.0</ele>
        <time>2018-05-26T07:50:41.143Z</time>
      </trkpt>
      <trkpt lat="40.68900667" lon="-3.82685167">
        <ele>868.0</ele>
        <time>2018-05-26T07:50:42.161Z</time>
      </trkpt>
      <trkpt lat="40.68900667" lon="-3.82685167">
        <ele>868.0</ele>
        <time>2018-05-26T07:50:43.141Z</time>
      </trkpt>
      <trkpt lat="40.68905833" lon="-3.82692167">
        <ele>868.0</ele>
        <time>2018-05-26T07:50:44.161Z</time>
      </trkpt>
      <trkpt lat="40.68905833" lon="-3.82692167">
        <ele>868.0</ele>
        <time>2018-05-26T07:50:45.144Z</time>
      </trkpt>
      <trkpt lat="40.68910833" lon="-3.82699167">
        <ele>869.0</ele>
        <time>2018-05-26T07:50:46.173Z</time>
      </trkpt>
      <trkpt lat="40.689135" lon="-3.82702667">
        <ele>869.0</ele>
        <time>2018-05-26T07:50:47.168Z</time>
      </trkpt>
      <trkpt lat="40.689135" lon="-3.82702667">
        <ele>869.0</ele>
        <time>2018-05-26T07:50:48.151Z</time>
      </trkpt>
      <trkpt lat="40.68918" lon="-3.82709667">
        <ele>869.0</ele>
        <time>2018-05-26T07:50:49.170Z</time>
      </trkpt>
      <trkpt lat="40.68918" lon="-3.82709667">
        <ele>869.0</ele>
        <time>2018-05-26T07:50:50.149Z</time>
      </trkpt>
      <trkpt lat="40.68922333" lon="-3.82716667">
        <ele>869.0</ele>
        <time>2018-05-26T07:50:51.162Z</time>
      </trkpt>
      <trkpt lat="40.68924333" lon="-3.82720167">
        <ele>870.0</ele>
        <time>2018-05-26T07:50:52.147Z</time>
      </trkpt>
      <trkpt lat="40.68924333" lon="-3.82720167">
        <ele>870.0</ele>
        <time>2018-05-26T07:50:53.171Z</time>
      </trkpt>
      <trkpt lat="40.689275" lon="-3.82727167">
        <ele>870.0</ele>
        <time>2018-05-26T07:50:54.147Z</time>
      </trkpt>
      <trkpt lat="40.68929167" lon="-3.827305">
        <ele>870.0</ele>
        <time>2018-05-26T07:50:55.177Z</time>
      </trkpt>
      <trkpt lat="40.68929167" lon="-3.827305">
        <ele>870.0</ele>
        <time>2018-05-26T07:50:56.170Z</time>
      </trkpt>
      <trkpt lat="40.68932667" lon="-3.82738833">
        <ele>870.0</ele>
        <time>2018-05-26T07:50:57.152Z</time>
      </trkpt>
      <trkpt lat="40.68934" lon="-3.827435">
        <ele>870.0</ele>
        <time>2018-05-26T07:50:58.174Z</time>
      </trkpt>
      <trkpt lat="40.68934" lon="-3.827435">
        <ele>870.0</ele>
        <time>2018-05-26T07:50:59.153Z</time>
      </trkpt>
      <trkpt lat="40.68936333" lon="-3.82753167">
        <ele>870.0</ele>
        <time>2018-05-26T07:51:00.156Z</time>
      </trkpt>
      <trkpt lat="40.68936333" lon="-3.82753167">
        <ele>870.0</ele>
        <time>2018-05-26T07:51:01.138Z</time>
      </trkpt>
      <trkpt lat="40.689385" lon="-3.82762833">
        <ele>870.0</ele>
        <time>2018-05-26T07:51:02.151Z</time>
      </trkpt>
      <trkpt lat="40.689395" lon="-3.82767833">
        <ele>870.0</ele>
        <time>2018-05-26T07:51:03.140Z</time>
      </trkpt>
      <trkpt lat="40.689395" lon="-3.82767833">
        <ele>870.0</ele>
        <time>2018-05-26T07:51:04.161Z</time>
      </trkpt>
      <trkpt lat="40.68942" lon="-3.82778">
        <ele>870.0</ele>
        <time>2018-05-26T07:51:05.170Z</time>
      </trkpt>
      <trkpt lat="40.68942" lon="-3.82778">
        <ele>870.0</ele>
        <time>2018-05-26T07:51:06.152Z</time>
      </trkpt>
      <trkpt lat="40.68944333" lon="-3.82788333">
        <ele>870.0</ele>
        <time>2018-05-26T07:51:07.161Z</time>
      </trkpt>
      <trkpt lat="40.68944333" lon="-3.82788333">
        <ele>870.0</ele>
        <time>2018-05-26T07:51:08.152Z</time>
      </trkpt>
      <trkpt lat="40.68947" lon="-3.82798667">
        <ele>870.0</ele>
        <time>2018-05-26T07:51:09.165Z</time>
      </trkpt>
      <trkpt lat="40.68948333" lon="-3.82803833">
        <ele>870.0</ele>
        <time>2018-05-26T07:51:10.145Z</time>
      </trkpt>
      <trkpt lat="40.68949833" lon="-3.82808667">
        <ele>870.0</ele>
        <time>2018-05-26T07:51:11.163Z</time>
      </trkpt>
      <trkpt lat="40.68949833" lon="-3.82808667">
        <ele>870.0</ele>
        <time>2018-05-26T07:51:12.149Z</time>
      </trkpt>
      <trkpt lat="40.68952333" lon="-3.82819">
        <ele>870.0</ele>
        <time>2018-05-26T07:51:13.163Z</time>
      </trkpt>
      <trkpt lat="40.689535" lon="-3.82824167">
        <ele>870.0</ele>
        <time>2018-05-26T07:51:14.142Z</time>
      </trkpt>
      <trkpt lat="40.689535" lon="-3.82824167">
        <ele>870.0</ele>
        <time>2018-05-26T07:51:15.143Z</time>
      </trkpt>
      <trkpt lat="40.68956333" lon="-3.828345">
        <ele>871.0</ele>
        <time>2018-05-26T07:51:16.152Z</time>
      </trkpt>
      <trkpt lat="40.68956333" lon="-3.828345">
        <ele>871.0</ele>
        <time>2018-05-26T07:51:17.172Z</time>
      </trkpt>
      <trkpt lat="40.68959167" lon="-3.82844667">
        <ele>871.0</ele>
        <time>2018-05-26T07:51:18.139Z</time>
      </trkpt>
      <trkpt lat="40.68960833" lon="-3.828495">
        <ele>871.0</ele>
        <time>2018-05-26T07:51:19.149Z</time>
      </trkpt>
      <trkpt lat="40.68960833" lon="-3.828495">
        <ele>871.0</ele>
        <time>2018-05-26T07:51:20.168Z</time>
      </trkpt>
      <trkpt lat="40.68964333" lon="-3.82859833">
        <ele>871.0</ele>
        <time>2018-05-26T07:51:21.156Z</time>
      </trkpt>
      <trkpt lat="40.689665" lon="-3.82865167">
        <ele>872.0</ele>
        <time>2018-05-26T07:51:22.153Z</time>
      </trkpt>
      <trkpt lat="40.689665" lon="-3.82865167">
        <ele>872.0</ele>
        <time>2018-05-26T07:51:23.154Z</time>
      </trkpt>
      <trkpt lat="40.68971" lon="-3.828755">
        <ele>872.0</ele>
        <time>2018-05-26T07:51:24.164Z</time>
      </trkpt>
      <trkpt lat="40.68971" lon="-3.828755">
        <ele>872.0</ele>
        <time>2018-05-26T07:51:25.141Z</time>
      </trkpt>
      <trkpt lat="40.68975833" lon="-3.82885667">
        <ele>872.0</ele>
        <time>2018-05-26T07:51:26.159Z</time>
      </trkpt>
      <trkpt lat="40.68978167" lon="-3.82890833">
        <ele>872.0</ele>
        <time>2018-05-26T07:51:27.168Z</time>
      </trkpt>
      <trkpt lat="40.68980333" lon="-3.82895833">
        <ele>872.0</ele>
        <time>2018-05-26T07:51:28.158Z</time>
      </trkpt>
      <trkpt lat="40.68980333" lon="-3.82895833">
        <ele>872.0</ele>
        <time>2018-05-26T07:51:29.146Z</time>
      </trkpt>
      <trkpt lat="40.689845" lon="-3.829065">
        <ele>872.0</ele>
        <time>2018-05-26T07:51:30.161Z</time>
      </trkpt>
      <trkpt lat="40.68986333" lon="-3.829115">
        <ele>873.0</ele>
        <time>2018-05-26T07:51:31.155Z</time>
      </trkpt>
      <trkpt lat="40.68986333" lon="-3.829115">
        <ele>873.0</ele>
        <time>2018-05-26T07:51:32.138Z</time>
      </trkpt>
      <trkpt lat="40.68989833" lon="-3.82920833">
        <ele>873.0</ele>
        <time>2018-05-26T07:51:33.147Z</time>
      </trkpt>
      <trkpt lat="40.68991667" lon="-3.82925667">
        <ele>873.0</ele>
        <time>2018-05-26T07:51:34.173Z</time>
      </trkpt>
      <trkpt lat="40.68991667" lon="-3.82925667">
        <ele>873.0</ele>
        <time>2018-05-26T07:51:35.150Z</time>
      </trkpt>
      <trkpt lat="40.68995333" lon="-3.82935167">
        <ele>873.0</ele>
        <time>2018-05-26T07:51:36.164Z</time>
      </trkpt>
      <trkpt lat="40.68995333" lon="-3.82935167">
        <ele>873.0</ele>
        <time>2018-05-26T07:51:37.141Z</time>
      </trkpt>
      <trkpt lat="40.68999667" lon="-3.82944833">
        <ele>872.0</ele>
        <time>2018-05-26T07:51:38.149Z</time>
      </trkpt>
      <trkpt lat="40.69002" lon="-3.82949667">
        <ele>872.0</ele>
        <time>2018-05-26T07:51:39.171Z</time>
      </trkpt>
      <trkpt lat="40.69002" lon="-3.82949667">
        <ele>872.0</ele>
        <time>2018-05-26T07:51:40.163Z</time>
      </trkpt>
      <trkpt lat="40.69006833" lon="-3.82958833">
        <ele>872.0</ele>
        <time>2018-05-26T07:51:41.136Z</time>
      </trkpt>
      <trkpt lat="40.69009333" lon="-3.829635">
        <ele>873.0</ele>
        <time>2018-05-26T07:51:42.175Z</time>
      </trkpt>
      <trkpt lat="40.69009333" lon="-3.829635">
        <ele>873.0</ele>
        <time>2018-05-26T07:51:43.166Z</time>
      </trkpt>
      <trkpt lat="40.69015" lon="-3.82972833">
        <ele>873.0</ele>
        <time>2018-05-26T07:51:44.137Z</time>
      </trkpt>
      <trkpt lat="40.69015" lon="-3.82972833">
        <ele>873.0</ele>
        <time>2018-05-26T07:51:45.168Z</time>
      </trkpt>
      <trkpt lat="40.69020833" lon="-3.82981833">
        <ele>874.0</ele>
        <time>2018-05-26T07:51:46.145Z</time>
      </trkpt>
      <trkpt lat="40.69023667" lon="-3.82986333">
        <ele>874.0</ele>
        <time>2018-05-26T07:51:47.144Z</time>
      </trkpt>
      <trkpt lat="40.69023667" lon="-3.82986333">
        <ele>874.0</ele>
        <time>2018-05-26T07:51:48.165Z</time>
      </trkpt>
      <trkpt lat="40.69029167" lon="-3.82995333">
        <ele>874.0</ele>
        <time>2018-05-26T07:51:49.136Z</time>
      </trkpt>
      <trkpt lat="40.69029167" lon="-3.82995333">
        <ele>874.0</ele>
        <time>2018-05-26T07:51:50.146Z</time>
      </trkpt>
      <trkpt lat="40.69034" lon="-3.830045">
        <ele>875.0</ele>
        <time>2018-05-26T07:51:51.161Z</time>
      </trkpt>
      <trkpt lat="40.69034" lon="-3.830045">
        <ele>875.0</ele>
        <time>2018-05-26T07:51:52.140Z</time>
      </trkpt>
      <trkpt lat="40.690385" lon="-3.83013667">
        <ele>875.0</ele>
        <time>2018-05-26T07:51:53.156Z</time>
      </trkpt>
      <trkpt lat="40.690385" lon="-3.83013667">
        <ele>875.0</ele>
        <time>2018-05-26T07:51:54.174Z</time>
      </trkpt>
      <trkpt lat="40.69042833" lon="-3.83022833">
        <ele>875.0</ele>
        <time>2018-05-26T07:51:55.151Z</time>
      </trkpt>
      <trkpt lat="40.69042833" lon="-3.83022833">
        <ele>875.0</ele>
        <time>2018-05-26T07:51:56.173Z</time>
      </trkpt>
      <trkpt lat="40.69047333" lon="-3.83032">
        <ele>876.0</ele>
        <time>2018-05-26T07:51:57.155Z</time>
      </trkpt>
      <trkpt lat="40.69049667" lon="-3.83036667">
        <ele>876.0</ele>
        <time>2018-05-26T07:51:58.142Z</time>
      </trkpt>
      <trkpt lat="40.69049667" lon="-3.83036667">
        <ele>876.0</ele>
        <time>2018-05-26T07:51:59.161Z</time>
      </trkpt>
      <trkpt lat="40.69054" lon="-3.83045">
        <ele>877.0</ele>
        <time>2018-05-26T07:52:00.158Z</time>
      </trkpt>
      <trkpt lat="40.69054" lon="-3.83045">
        <ele>877.0</ele>
        <time>2018-05-26T07:52:01.168Z</time>
      </trkpt>
      <trkpt lat="40.690585" lon="-3.830525">
        <ele>877.0</ele>
        <time>2018-05-26T07:52:02.140Z</time>
      </trkpt>
      <trkpt lat="40.690585" lon="-3.830525">
        <ele>877.0</ele>
        <time>2018-05-26T07:52:03.162Z</time>
      </trkpt>
      <trkpt lat="40.69062667" lon="-3.830585">
        <ele>877.0</ele>
        <time>2018-05-26T07:52:04.176Z</time>
      </trkpt>
      <trkpt lat="40.69062667" lon="-3.830585">
        <ele>877.0</ele>
        <time>2018-05-26T07:52:05.157Z</time>
      </trkpt>
      <trkpt lat="40.69066167" lon="-3.83064833">
        <ele>878.0</ele>
        <time>2018-05-26T07:52:06.169Z</time>
      </trkpt>
      <trkpt lat="40.69066167" lon="-3.83064833">
        <ele>878.0</ele>
        <time>2018-05-26T07:52:07.162Z</time>
      </trkpt>
      <trkpt lat="40.690695" lon="-3.83071167">
        <ele>879.0</ele>
        <time>2018-05-26T07:52:08.173Z</time>
      </trkpt>
      <trkpt lat="40.690695" lon="-3.83071167">
        <ele>879.0</ele>
        <time>2018-05-26T07:52:09.164Z</time>
      </trkpt>
      <trkpt lat="40.69073167" lon="-3.830775">
        <ele>879.0</ele>
        <time>2018-05-26T07:52:10.136Z</time>
      </trkpt>
      <trkpt lat="40.69073167" lon="-3.830775">
        <ele>879.0</ele>
        <time>2018-05-26T07:52:11.160Z</time>
      </trkpt>
      <trkpt lat="40.69076833" lon="-3.83084333">
        <ele>880.0</ele>
        <time>2018-05-26T07:52:12.171Z</time>
      </trkpt>
      <trkpt lat="40.69076833" lon="-3.83084333">
        <ele>880.0</ele>
        <time>2018-05-26T07:52:13.154Z</time>
      </trkpt>
      <trkpt lat="40.69080833" lon="-3.830915">
        <ele>880.0</ele>
        <time>2018-05-26T07:52:14.163Z</time>
      </trkpt>
      <trkpt lat="40.69083167" lon="-3.83095833">
        <ele>880.0</ele>
        <time>2018-05-26T07:52:15.151Z</time>
      </trkpt>
      <trkpt lat="40.69083167" lon="-3.83095833">
        <ele>880.0</ele>
        <time>2018-05-26T07:52:16.145Z</time>
      </trkpt>
      <trkpt lat="40.69086333" lon="-3.831055">
        <ele>881.0</ele>
        <time>2018-05-26T07:52:17.161Z</time>
      </trkpt>
      <trkpt lat="40.69086333" lon="-3.831055">
        <ele>881.0</ele>
        <time>2018-05-26T07:52:18.148Z</time>
      </trkpt>
      <trkpt lat="40.69089333" lon="-3.83116167">
        <ele>881.0</ele>
        <time>2018-05-26T07:52:19.164Z</time>
      </trkpt>
      <trkpt lat="40.69089333" lon="-3.83116167">
        <ele>881.0</ele>
        <time>2018-05-26T07:52:20.145Z</time>
      </trkpt>
      <trkpt lat="40.69092667" lon="-3.83126833">
        <ele>881.0</ele>
        <time>2018-05-26T07:52:21.156Z</time>
      </trkpt>
      <trkpt lat="40.69094333" lon="-3.831325">
        <ele>881.0</ele>
        <time>2018-05-26T07:52:22.169Z</time>
      </trkpt>
      <trkpt lat="40.69094333" lon="-3.831325">
        <ele>881.0</ele>
        <time>2018-05-26T07:52:23.147Z</time>
      </trkpt>
      <trkpt lat="40.69098" lon="-3.83144167">
        <ele>881.0</ele>
        <time>2018-05-26T07:52:24.162Z</time>
      </trkpt>
      <trkpt lat="40.691" lon="-3.83150167">
        <ele>881.0</ele>
        <time>2018-05-26T07:52:25.149Z</time>
      </trkpt>
      <trkpt lat="40.691" lon="-3.83150167">
        <ele>881.0</ele>
        <time>2018-05-26T07:52:26.171Z</time>
      </trkpt>
      <trkpt lat="40.69104" lon="-3.83162">
        <ele>881.0</ele>
        <time>2018-05-26T07:52:27.152Z</time>
      </trkpt>
      <trkpt lat="40.69105833" lon="-3.83168">
        <ele>881.0</ele>
        <time>2018-05-26T07:52:28.177Z</time>
      </trkpt>
      <trkpt lat="40.69105833" lon="-3.83168">
        <ele>881.0</ele>
        <time>2018-05-26T07:52:29.148Z</time>
      </trkpt>
      <trkpt lat="40.69109667" lon="-3.83179833">
        <ele>881.0</ele>
        <time>2018-05-26T07:52:30.163Z</time>
      </trkpt>
      <trkpt lat="40.69109667" lon="-3.83179833">
        <ele>881.0</ele>
        <time>2018-05-26T07:52:31.166Z</time>
      </trkpt>
      <trkpt lat="40.69113" lon="-3.83191667">
        <ele>881.0</ele>
        <time>2018-05-26T07:52:32.136Z</time>
      </trkpt>
      <trkpt lat="40.69113" lon="-3.83191667">
        <ele>881.0</ele>
        <time>2018-05-26T07:52:33.149Z</time>
      </trkpt>
      <trkpt lat="40.69116333" lon="-3.83203667">
        <ele>881.0</ele>
        <time>2018-05-26T07:52:34.168Z</time>
      </trkpt>
      <trkpt lat="40.69116333" lon="-3.83203667">
        <ele>881.0</ele>
        <time>2018-05-26T07:52:35.144Z</time>
      </trkpt>
      <trkpt lat="40.69118667" lon="-3.83215833">
        <ele>881.0</ele>
        <time>2018-05-26T07:52:36.136Z</time>
      </trkpt>
      <trkpt lat="40.69118667" lon="-3.83215833">
        <ele>881.0</ele>
        <time>2018-05-26T07:52:37.157Z</time>
      </trkpt>
      <trkpt lat="40.69121167" lon="-3.83227333">
        <ele>881.0</ele>
        <time>2018-05-26T07:52:38.175Z</time>
      </trkpt>
      <trkpt lat="40.69121167" lon="-3.83227333">
        <ele>881.0</ele>
        <time>2018-05-26T07:52:39.149Z</time>
      </trkpt>
      <trkpt lat="40.69124667" lon="-3.83239167">
        <ele>881.0</ele>
        <time>2018-05-26T07:52:40.163Z</time>
      </trkpt>
      <trkpt lat="40.69124667" lon="-3.83239167">
        <ele>881.0</ele>
        <time>2018-05-26T07:52:41.150Z</time>
      </trkpt>
      <trkpt lat="40.69128" lon="-3.83251333">
        <ele>881.0</ele>
        <time>2018-05-26T07:52:42.142Z</time>
      </trkpt>
      <trkpt lat="40.69129833" lon="-3.832575">
        <ele>881.0</ele>
        <time>2018-05-26T07:52:43.162Z</time>
      </trkpt>
      <trkpt lat="40.69131667" lon="-3.832635">
        <ele>881.0</ele>
        <time>2018-05-26T07:52:44.145Z</time>
      </trkpt>
      <trkpt lat="40.69131667" lon="-3.832635">
        <ele>881.0</ele>
        <time>2018-05-26T07:52:45.160Z</time>
      </trkpt>
      <trkpt lat="40.69135667" lon="-3.83275333">
        <ele>881.0</ele>
        <time>2018-05-26T07:52:46.173Z</time>
      </trkpt>
      <trkpt lat="40.69135667" lon="-3.83275333">
        <ele>881.0</ele>
        <time>2018-05-26T07:52:47.149Z</time>
      </trkpt>
      <trkpt lat="40.69140167" lon="-3.83286333">
        <ele>880.0</ele>
        <time>2018-05-26T07:52:48.161Z</time>
      </trkpt>
      <trkpt lat="40.69142333" lon="-3.83291667">
        <ele>880.0</ele>
        <time>2018-05-26T07:52:49.149Z</time>
      </trkpt>
      <trkpt lat="40.69142333" lon="-3.83291667">
        <ele>880.0</ele>
        <time>2018-05-26T07:52:50.165Z</time>
      </trkpt>
      <trkpt lat="40.69147333" lon="-3.83302167">
        <ele>880.0</ele>
        <time>2018-05-26T07:52:51.175Z</time>
      </trkpt>
      <trkpt lat="40.69147333" lon="-3.83302167">
        <ele>880.0</ele>
        <time>2018-05-26T07:52:52.174Z</time>
      </trkpt>
      <trkpt lat="40.69152333" lon="-3.83312167">
        <ele>880.0</ele>
        <time>2018-05-26T07:52:53.143Z</time>
      </trkpt>
      <trkpt lat="40.69152333" lon="-3.83312167">
        <ele>880.0</ele>
        <time>2018-05-26T07:52:54.167Z</time>
      </trkpt>
      <trkpt lat="40.69157167" lon="-3.833215">
        <ele>880.0</ele>
        <time>2018-05-26T07:52:55.175Z</time>
      </trkpt>
      <trkpt lat="40.69157167" lon="-3.833215">
        <ele>880.0</ele>
        <time>2018-05-26T07:52:56.173Z</time>
      </trkpt>
      <trkpt lat="40.69162333" lon="-3.83331">
        <ele>881.0</ele>
        <time>2018-05-26T07:52:57.149Z</time>
      </trkpt>
      <trkpt lat="40.69162333" lon="-3.83331">
        <ele>881.0</ele>
        <time>2018-05-26T07:52:58.146Z</time>
      </trkpt>
      <trkpt lat="40.691675" lon="-3.83340167">
        <ele>881.0</ele>
        <time>2018-05-26T07:52:59.157Z</time>
      </trkpt>
      <trkpt lat="40.691675" lon="-3.83340167">
        <ele>881.0</ele>
        <time>2018-05-26T07:53:00.158Z</time>
      </trkpt>
      <trkpt lat="40.69172833" lon="-3.83349667">
        <ele>881.0</ele>
        <time>2018-05-26T07:53:01.171Z</time>
      </trkpt>
      <trkpt lat="40.69172833" lon="-3.83349667">
        <ele>881.0</ele>
        <time>2018-05-26T07:53:02.164Z</time>
      </trkpt>
      <trkpt lat="40.69177667" lon="-3.833595">
        <ele>881.0</ele>
        <time>2018-05-26T07:53:03.173Z</time>
      </trkpt>
      <trkpt lat="40.6918" lon="-3.83364">
        <ele>881.0</ele>
        <time>2018-05-26T07:53:04.173Z</time>
      </trkpt>
      <trkpt lat="40.6918" lon="-3.83364">
        <ele>881.0</ele>
        <time>2018-05-26T07:53:05.153Z</time>
      </trkpt>
      <trkpt lat="40.69184833" lon="-3.83373">
        <ele>881.0</ele>
        <time>2018-05-26T07:53:06.162Z</time>
      </trkpt>
      <trkpt lat="40.69184833" lon="-3.83373">
        <ele>881.0</ele>
        <time>2018-05-26T07:53:07.138Z</time>
      </trkpt>
      <trkpt lat="40.69190333" lon="-3.83382">
        <ele>881.0</ele>
        <time>2018-05-26T07:53:08.146Z</time>
      </trkpt>
      <trkpt lat="40.69190333" lon="-3.83382">
        <ele>881.0</ele>
        <time>2018-05-26T07:53:09.143Z</time>
      </trkpt>
      <trkpt lat="40.69196" lon="-3.83390667">
        <ele>881.0</ele>
        <time>2018-05-26T07:53:10.153Z</time>
      </trkpt>
      <trkpt lat="40.69196" lon="-3.83390667">
        <ele>881.0</ele>
        <time>2018-05-26T07:53:11.146Z</time>
      </trkpt>
      <trkpt lat="40.69202" lon="-3.83398333">
        <ele>881.0</ele>
        <time>2018-05-26T07:53:12.154Z</time>
      </trkpt>
      <trkpt lat="40.69205167" lon="-3.83402167">
        <ele>881.0</ele>
        <time>2018-05-26T07:53:13.147Z</time>
      </trkpt>
      <trkpt lat="40.69205167" lon="-3.83402167">
        <ele>881.0</ele>
        <time>2018-05-26T07:53:14.174Z</time>
      </trkpt>
      <trkpt lat="40.69211167" lon="-3.83409667">
        <ele>882.0</ele>
        <time>2018-05-26T07:53:15.149Z</time>
      </trkpt>
      <trkpt lat="40.69214" lon="-3.83413167">
        <ele>882.0</ele>
        <time>2018-05-26T07:53:16.163Z</time>
      </trkpt>
      <trkpt lat="40.69214" lon="-3.83413167">
        <ele>882.0</ele>
        <time>2018-05-26T07:53:17.175Z</time>
      </trkpt>
      <trkpt lat="40.692195" lon="-3.83419833">
        <ele>883.0</ele>
        <time>2018-05-26T07:53:18.152Z</time>
      </trkpt>
      <trkpt lat="40.69222" lon="-3.83423">
        <ele>883.0</ele>
        <time>2018-05-26T07:53:19.152Z</time>
      </trkpt>
      <trkpt lat="40.69222" lon="-3.83423">
        <ele>883.0</ele>
        <time>2018-05-26T07:53:20.170Z</time>
      </trkpt>
      <trkpt lat="40.69226333" lon="-3.83429333">
        <ele>884.0</ele>
        <time>2018-05-26T07:53:21.150Z</time>
      </trkpt>
      <trkpt lat="40.69228333" lon="-3.83432167">
        <ele>884.0</ele>
        <time>2018-05-26T07:53:22.172Z</time>
      </trkpt>
      <trkpt lat="40.69228333" lon="-3.83432167">
        <ele>884.0</ele>
        <time>2018-05-26T07:53:23.156Z</time>
      </trkpt>
      <trkpt lat="40.69232" lon="-3.83437667">
        <ele>885.0</ele>
        <time>2018-05-26T07:53:24.171Z</time>
      </trkpt>
      <trkpt lat="40.69232" lon="-3.83437667">
        <ele>885.0</ele>
        <time>2018-05-26T07:53:25.158Z</time>
      </trkpt>
      <trkpt lat="40.69235667" lon="-3.83443">
        <ele>886.0</ele>
        <time>2018-05-26T07:53:26.173Z</time>
      </trkpt>
      <trkpt lat="40.692375" lon="-3.834455">
        <ele>887.0</ele>
        <time>2018-05-26T07:53:27.154Z</time>
      </trkpt>
      <trkpt lat="40.69239333" lon="-3.83448167">
        <ele>887.0</ele>
        <time>2018-05-26T07:53:28.140Z</time>
      </trkpt>
      <trkpt lat="40.69239333" lon="-3.83448167">
        <ele>887.0</ele>
        <time>2018-05-26T07:53:29.172Z</time>
      </trkpt>
      <trkpt lat="40.69242333" lon="-3.83453167">
        <ele>888.0</ele>
        <time>2018-05-26T07:53:30.146Z</time>
      </trkpt>
      <trkpt lat="40.69243667" lon="-3.83455667">
        <ele>888.0</ele>
        <time>2018-05-26T07:53:31.172Z</time>
      </trkpt>
      <trkpt lat="40.69243667" lon="-3.83455667">
        <ele>888.0</ele>
        <time>2018-05-26T07:53:32.155Z</time>
      </trkpt>
      <trkpt lat="40.69246833" lon="-3.83460833">
        <ele>889.0</ele>
        <time>2018-05-26T07:53:33.166Z</time>
      </trkpt>
      <trkpt lat="40.692485" lon="-3.834635">
        <ele>890.0</ele>
        <time>2018-05-26T07:53:34.156Z</time>
      </trkpt>
      <trkpt lat="40.692485" lon="-3.834635">
        <ele>890.0</ele>
        <time>2018-05-26T07:53:35.175Z</time>
      </trkpt>
      <trkpt lat="40.69251833" lon="-3.83468167">
        <ele>891.0</ele>
        <time>2018-05-26T07:53:36.146Z</time>
      </trkpt>
      <trkpt lat="40.69251833" lon="-3.83468167">
        <ele>891.0</ele>
        <time>2018-05-26T07:53:37.171Z</time>
      </trkpt>
      <trkpt lat="40.69254667" lon="-3.834725">
        <ele>891.0</ele>
        <time>2018-05-26T07:53:38.147Z</time>
      </trkpt>
      <trkpt lat="40.69254667" lon="-3.834725">
        <ele>891.0</ele>
        <time>2018-05-26T07:53:39.148Z</time>
      </trkpt>
      <trkpt lat="40.69257" lon="-3.83477167">
        <ele>892.0</ele>
        <time>2018-05-26T07:53:40.163Z</time>
      </trkpt>
      <trkpt lat="40.69257" lon="-3.83477167">
        <ele>892.0</ele>
        <time>2018-05-26T07:53:41.145Z</time>
      </trkpt>
      <trkpt lat="40.69259833" lon="-3.834815">
        <ele>893.0</ele>
        <time>2018-05-26T07:53:42.158Z</time>
      </trkpt>
      <trkpt lat="40.69259833" lon="-3.834815">
        <ele>893.0</ele>
        <time>2018-05-26T07:53:43.154Z</time>
      </trkpt>
      <trkpt lat="40.69262333" lon="-3.83486">
        <ele>893.0</ele>
        <time>2018-05-26T07:53:44.163Z</time>
      </trkpt>
      <trkpt lat="40.69263667" lon="-3.83488333">
        <ele>894.0</ele>
        <time>2018-05-26T07:53:45.147Z</time>
      </trkpt>
      <trkpt lat="40.69263667" lon="-3.83488333">
        <ele>894.0</ele>
        <time>2018-05-26T07:53:46.174Z</time>
      </trkpt>
      <trkpt lat="40.69266167" lon="-3.83493">
        <ele>895.0</ele>
        <time>2018-05-26T07:53:47.154Z</time>
      </trkpt>
      <trkpt lat="40.69266167" lon="-3.83493">
        <ele>895.0</ele>
        <time>2018-05-26T07:53:48.175Z</time>
      </trkpt>
      <trkpt lat="40.692685" lon="-3.83498">
        <ele>894.0</ele>
        <time>2018-05-26T07:53:49.147Z</time>
      </trkpt>
      <trkpt lat="40.692685" lon="-3.83498">
        <ele>894.0</ele>
        <time>2018-05-26T07:53:50.141Z</time>
      </trkpt>
      <trkpt lat="40.69271" lon="-3.83503333">
        <ele>895.0</ele>
        <time>2018-05-26T07:53:51.153Z</time>
      </trkpt>
      <trkpt lat="40.69271667" lon="-3.83506167">
        <ele>895.0</ele>
        <time>2018-05-26T07:53:52.136Z</time>
      </trkpt>
      <trkpt lat="40.69271667" lon="-3.83506167">
        <ele>895.0</ele>
        <time>2018-05-26T07:53:53.159Z</time>
      </trkpt>
      <trkpt lat="40.69274" lon="-3.83512333">
        <ele>895.0</ele>
        <time>2018-05-26T07:53:54.168Z</time>
      </trkpt>
      <trkpt lat="40.69275" lon="-3.83515167">
        <ele>895.0</ele>
        <time>2018-05-26T07:53:55.142Z</time>
      </trkpt>
      <trkpt lat="40.69275" lon="-3.83515167">
        <ele>895.0</ele>
        <time>2018-05-26T07:53:56.163Z</time>
      </trkpt>
      <trkpt lat="40.69277167" lon="-3.83521333">
        <ele>896.0</ele>
        <time>2018-05-26T07:53:57.173Z</time>
      </trkpt>
      <trkpt lat="40.692785" lon="-3.835245">
        <ele>896.0</ele>
        <time>2018-05-26T07:53:58.160Z</time>
      </trkpt>
      <trkpt lat="40.692785" lon="-3.835245">
        <ele>896.0</ele>
        <time>2018-05-26T07:53:59.154Z</time>
      </trkpt>
      <trkpt lat="40.69281167" lon="-3.83531">
        <ele>897.0</ele>
        <time>2018-05-26T07:54:00.155Z</time>
      </trkpt>
      <trkpt lat="40.69282333" lon="-3.83534333">
        <ele>898.0</ele>
        <time>2018-05-26T07:54:01.146Z</time>
      </trkpt>
      <trkpt lat="40.69282333" lon="-3.83534333">
        <ele>898.0</ele>
        <time>2018-05-26T07:54:02.162Z</time>
      </trkpt>
      <trkpt lat="40.692845" lon="-3.83540833">
        <ele>898.0</ele>
        <time>2018-05-26T07:54:03.176Z</time>
      </trkpt>
      <trkpt lat="40.69285667" lon="-3.83544167">
        <ele>899.0</ele>
        <time>2018-05-26T07:54:04.161Z</time>
      </trkpt>
      <trkpt lat="40.69285667" lon="-3.83544167">
        <ele>899.0</ele>
        <time>2018-05-26T07:54:05.155Z</time>
      </trkpt>
      <trkpt lat="40.69288333" lon="-3.835505">
        <ele>899.0</ele>
        <time>2018-05-26T07:54:06.158Z</time>
      </trkpt>
      <trkpt lat="40.69288333" lon="-3.835505">
        <ele>899.0</ele>
        <time>2018-05-26T07:54:07.152Z</time>
      </trkpt>
      <trkpt lat="40.692905" lon="-3.83557667">
        <ele>899.0</ele>
        <time>2018-05-26T07:54:08.160Z</time>
      </trkpt>
      <trkpt lat="40.69291833" lon="-3.83561167">
        <ele>899.0</ele>
        <time>2018-05-26T07:54:09.157Z</time>
      </trkpt>
      <trkpt lat="40.69293167" lon="-3.83564833">
        <ele>899.0</ele>
        <time>2018-05-26T07:54:10.176Z</time>
      </trkpt>
      <trkpt lat="40.69293167" lon="-3.83564833">
        <ele>899.0</ele>
        <time>2018-05-26T07:54:11.153Z</time>
      </trkpt>
      <trkpt lat="40.69295833" lon="-3.83572333">
        <ele>900.0</ele>
        <time>2018-05-26T07:54:12.167Z</time>
      </trkpt>
      <trkpt lat="40.69295833" lon="-3.83572333">
        <ele>900.0</ele>
        <time>2018-05-26T07:54:13.151Z</time>
      </trkpt>
      <trkpt lat="40.692985" lon="-3.8358">
        <ele>900.0</ele>
        <time>2018-05-26T07:54:14.163Z</time>
      </trkpt>
      <trkpt lat="40.692985" lon="-3.8358">
        <ele>900.0</ele>
        <time>2018-05-26T07:54:15.175Z</time>
      </trkpt>
      <trkpt lat="40.69301" lon="-3.835875">
        <ele>900.0</ele>
        <time>2018-05-26T07:54:16.150Z</time>
      </trkpt>
      <trkpt lat="40.69301" lon="-3.835875">
        <ele>900.0</ele>
        <time>2018-05-26T07:54:17.167Z</time>
      </trkpt>
      <trkpt lat="40.69303167" lon="-3.83594667">
        <ele>900.0</ele>
        <time>2018-05-26T07:54:18.137Z</time>
      </trkpt>
      <trkpt lat="40.69304333" lon="-3.835985">
        <ele>900.0</ele>
        <time>2018-05-26T07:54:19.156Z</time>
      </trkpt>
      <trkpt lat="40.69304333" lon="-3.835985">
        <ele>900.0</ele>
        <time>2018-05-26T07:54:20.150Z</time>
      </trkpt>
      <trkpt lat="40.69306667" lon="-3.83606167">
        <ele>901.0</ele>
        <time>2018-05-26T07:54:21.161Z</time>
      </trkpt>
      <trkpt lat="40.69306667" lon="-3.83606167">
        <ele>901.0</ele>
        <time>2018-05-26T07:54:22.136Z</time>
      </trkpt>
      <trkpt lat="40.69309" lon="-3.83613833">
        <ele>901.0</ele>
        <time>2018-05-26T07:54:23.165Z</time>
      </trkpt>
      <trkpt lat="40.69309" lon="-3.83613833">
        <ele>901.0</ele>
        <time>2018-05-26T07:54:24.154Z</time>
      </trkpt>
      <trkpt lat="40.69311333" lon="-3.836215">
        <ele>901.0</ele>
        <time>2018-05-26T07:54:25.176Z</time>
      </trkpt>
      <trkpt lat="40.693125" lon="-3.836255">
        <ele>901.0</ele>
        <time>2018-05-26T07:54:26.165Z</time>
      </trkpt>
      <trkpt lat="40.693125" lon="-3.836255">
        <ele>901.0</ele>
        <time>2018-05-26T07:54:27.145Z</time>
      </trkpt>
      <trkpt lat="40.69314833" lon="-3.83633333">
        <ele>901.0</ele>
        <time>2018-05-26T07:54:28.162Z</time>
      </trkpt>
      <trkpt lat="40.69314833" lon="-3.83633333">
        <ele>901.0</ele>
        <time>2018-05-26T07:54:29.141Z</time>
      </trkpt>
      <trkpt lat="40.69317167" lon="-3.83641">
        <ele>901.0</ele>
        <time>2018-05-26T07:54:30.155Z</time>
      </trkpt>
      <trkpt lat="40.69317167" lon="-3.83641">
        <ele>901.0</ele>
        <time>2018-05-26T07:54:31.173Z</time>
      </trkpt>
      <trkpt lat="40.693195" lon="-3.83649333">
        <ele>902.0</ele>
        <time>2018-05-26T07:54:32.147Z</time>
      </trkpt>
      <trkpt lat="40.693195" lon="-3.83649333">
        <ele>902.0</ele>
        <time>2018-05-26T07:54:33.167Z</time>
      </trkpt>
      <trkpt lat="40.693215" lon="-3.83657333">
        <ele>902.0</ele>
        <time>2018-05-26T07:54:34.142Z</time>
      </trkpt>
      <trkpt lat="40.693215" lon="-3.83657333">
        <ele>902.0</ele>
        <time>2018-05-26T07:54:35.157Z</time>
      </trkpt>
      <trkpt lat="40.69323667" lon="-3.83665">
        <ele>902.0</ele>
        <time>2018-05-26T07:54:36.169Z</time>
      </trkpt>
      <trkpt lat="40.69325" lon="-3.83668833">
        <ele>902.0</ele>
        <time>2018-05-26T07:54:37.149Z</time>
      </trkpt>
      <trkpt lat="40.69325" lon="-3.83668833">
        <ele>902.0</ele>
        <time>2018-05-26T07:54:38.158Z</time>
      </trkpt>
      <trkpt lat="40.693275" lon="-3.836765">
        <ele>903.0</ele>
        <time>2018-05-26T07:54:39.172Z</time>
      </trkpt>
      <trkpt lat="40.69328667" lon="-3.83680167">
        <ele>903.0</ele>
        <time>2018-05-26T07:54:40.164Z</time>
      </trkpt>
      <trkpt lat="40.69328667" lon="-3.83680167">
        <ele>903.0</ele>
        <time>2018-05-26T07:54:41.147Z</time>
      </trkpt>
      <trkpt lat="40.69330833" lon="-3.83688">
        <ele>903.0</ele>
        <time>2018-05-26T07:54:42.161Z</time>
      </trkpt>
      <trkpt lat="40.69330833" lon="-3.83688">
        <ele>903.0</ele>
        <time>2018-05-26T07:54:43.142Z</time>
      </trkpt>
      <trkpt lat="40.69333167" lon="-3.83696">
        <ele>904.0</ele>
        <time>2018-05-26T07:54:44.151Z</time>
      </trkpt>
      <trkpt lat="40.69333167" lon="-3.83696">
        <ele>904.0</ele>
        <time>2018-05-26T07:54:45.158Z</time>
      </trkpt>
      <trkpt lat="40.69335333" lon="-3.83703833">
        <ele>904.0</ele>
        <time>2018-05-26T07:54:46.136Z</time>
      </trkpt>
      <trkpt lat="40.69335333" lon="-3.83703833">
        <ele>904.0</ele>
        <time>2018-05-26T07:54:47.157Z</time>
      </trkpt>
      <trkpt lat="40.69337833" lon="-3.83711167">
        <ele>905.0</ele>
        <time>2018-05-26T07:54:48.147Z</time>
      </trkpt>
      <trkpt lat="40.69337833" lon="-3.83711167">
        <ele>905.0</ele>
        <time>2018-05-26T07:54:49.146Z</time>
      </trkpt>
      <trkpt lat="40.69340333" lon="-3.83718667">
        <ele>905.0</ele>
        <time>2018-05-26T07:54:50.165Z</time>
      </trkpt>
      <trkpt lat="40.69341667" lon="-3.837225">
        <ele>905.0</ele>
        <time>2018-05-26T07:54:51.161Z</time>
      </trkpt>
      <trkpt lat="40.69341667" lon="-3.837225">
        <ele>905.0</ele>
        <time>2018-05-26T07:54:52.146Z</time>
      </trkpt>
      <trkpt lat="40.69343833" lon="-3.83730833">
        <ele>905.0</ele>
        <time>2018-05-26T07:54:53.160Z</time>
      </trkpt>
      <trkpt lat="40.69345167" lon="-3.83734833">
        <ele>905.0</ele>
        <time>2018-05-26T07:54:54.137Z</time>
      </trkpt>
      <trkpt lat="40.69345167" lon="-3.83734833">
        <ele>905.0</ele>
        <time>2018-05-26T07:54:55.170Z</time>
      </trkpt>
      <trkpt lat="40.693475" lon="-3.83742833">
        <ele>905.0</ele>
        <time>2018-05-26T07:54:56.171Z</time>
      </trkpt>
      <trkpt lat="40.69348833" lon="-3.83746833">
        <ele>905.0</ele>
        <time>2018-05-26T07:54:57.158Z</time>
      </trkpt>
      <trkpt lat="40.69348833" lon="-3.83746833">
        <ele>905.0</ele>
        <time>2018-05-26T07:54:58.146Z</time>
      </trkpt>
      <trkpt lat="40.693515" lon="-3.83754667">
        <ele>906.0</ele>
        <time>2018-05-26T07:54:59.156Z</time>
      </trkpt>
      <trkpt lat="40.693515" lon="-3.83754667">
        <ele>906.0</ele>
        <time>2018-05-26T07:55:00.162Z</time>
      </trkpt>
      <trkpt lat="40.693545" lon="-3.83762667">
        <ele>906.0</ele>
        <time>2018-05-26T07:55:01.164Z</time>
      </trkpt>
      <trkpt lat="40.69355833" lon="-3.837665">
        <ele>906.0</ele>
        <time>2018-05-26T07:55:02.139Z</time>
      </trkpt>
      <trkpt lat="40.69355833" lon="-3.837665">
        <ele>906.0</ele>
        <time>2018-05-26T07:55:03.159Z</time>
      </trkpt>
      <trkpt lat="40.69359167" lon="-3.83774">
        <ele>906.0</ele>
        <time>2018-05-26T07:55:04.168Z</time>
      </trkpt>
      <trkpt lat="40.69359167" lon="-3.83774">
        <ele>906.0</ele>
        <time>2018-05-26T07:55:05.152Z</time>
      </trkpt>
      <trkpt lat="40.69362667" lon="-3.83781833">
        <ele>907.0</ele>
        <time>2018-05-26T07:55:06.147Z</time>
      </trkpt>
      <trkpt lat="40.69364333" lon="-3.83785667">
        <ele>907.0</ele>
        <time>2018-05-26T07:55:07.168Z</time>
      </trkpt>
      <trkpt lat="40.69364333" lon="-3.83785667">
        <ele>907.0</ele>
        <time>2018-05-26T07:55:08.142Z</time>
      </trkpt>
      <trkpt lat="40.69368333" lon="-3.83793333">
        <ele>907.0</ele>
        <time>2018-05-26T07:55:09.154Z</time>
      </trkpt>
      <trkpt lat="40.69370333" lon="-3.83797167">
        <ele>907.0</ele>
        <time>2018-05-26T07:55:10.176Z</time>
      </trkpt>
      <trkpt lat="40.69370333" lon="-3.83797167">
        <ele>907.0</ele>
        <time>2018-05-26T07:55:11.148Z</time>
      </trkpt>
      <trkpt lat="40.69374167" lon="-3.838055">
        <ele>907.0</ele>
        <time>2018-05-26T07:55:12.161Z</time>
      </trkpt>
      <trkpt lat="40.693755" lon="-3.83809833">
        <ele>908.0</ele>
        <time>2018-05-26T07:55:13.142Z</time>
      </trkpt>
      <trkpt lat="40.69377" lon="-3.83814167">
        <ele>908.0</ele>
        <time>2018-05-26T07:55:14.158Z</time>
      </trkpt>
      <trkpt lat="40.69377" lon="-3.83814167">
        <ele>908.0</ele>
        <time>2018-05-26T07:55:15.153Z</time>
      </trkpt>
      <trkpt lat="40.69380333" lon="-3.838225">
        <ele>908.0</ele>
        <time>2018-05-26T07:55:16.165Z</time>
      </trkpt>
      <trkpt lat="40.69380333" lon="-3.838225">
        <ele>908.0</ele>
        <time>2018-05-26T07:55:17.162Z</time>
      </trkpt>
      <trkpt lat="40.693835" lon="-3.83830667">
        <ele>908.0</ele>
        <time>2018-05-26T07:55:18.167Z</time>
      </trkpt>
      <trkpt lat="40.693835" lon="-3.83830667">
        <ele>908.0</ele>
        <time>2018-05-26T07:55:19.173Z</time>
      </trkpt>
      <trkpt lat="40.69386333" lon="-3.83839333">
        <ele>908.0</ele>
        <time>2018-05-26T07:55:20.148Z</time>
      </trkpt>
      <trkpt lat="40.69386333" lon="-3.83839333">
        <ele>908.0</ele>
        <time>2018-05-26T07:55:21.175Z</time>
      </trkpt>
      <trkpt lat="40.69389167" lon="-3.83847833">
        <ele>908.0</ele>
        <time>2018-05-26T07:55:22.147Z</time>
      </trkpt>
      <trkpt lat="40.69389167" lon="-3.83847833">
        <ele>908.0</ele>
        <time>2018-05-26T07:55:23.175Z</time>
      </trkpt>
      <trkpt lat="40.69392" lon="-3.838565">
        <ele>909.0</ele>
        <time>2018-05-26T07:55:24.168Z</time>
      </trkpt>
      <trkpt lat="40.69392" lon="-3.838565">
        <ele>909.0</ele>
        <time>2018-05-26T07:55:25.150Z</time>
      </trkpt>
      <trkpt lat="40.69394333" lon="-3.83865167">
        <ele>909.0</ele>
        <time>2018-05-26T07:55:26.163Z</time>
      </trkpt>
      <trkpt lat="40.69394333" lon="-3.83865167">
        <ele>909.0</ele>
        <time>2018-05-26T07:55:27.175Z</time>
      </trkpt>
      <trkpt lat="40.693965" lon="-3.83874167">
        <ele>909.0</ele>
        <time>2018-05-26T07:55:28.143Z</time>
      </trkpt>
      <trkpt lat="40.693965" lon="-3.83874167">
        <ele>909.0</ele>
        <time>2018-05-26T07:55:29.175Z</time>
      </trkpt>
      <trkpt lat="40.693985" lon="-3.83882833">
        <ele>910.0</ele>
        <time>2018-05-26T07:55:30.149Z</time>
      </trkpt>
      <trkpt lat="40.693985" lon="-3.83882833">
        <ele>910.0</ele>
        <time>2018-05-26T07:55:31.144Z</time>
      </trkpt>
      <trkpt lat="40.69400333" lon="-3.83891833">
        <ele>910.0</ele>
        <time>2018-05-26T07:55:32.166Z</time>
      </trkpt>
      <trkpt lat="40.69400833" lon="-3.83896333">
        <ele>911.0</ele>
        <time>2018-05-26T07:55:33.148Z</time>
      </trkpt>
      <trkpt lat="40.69401667" lon="-3.83900833">
        <ele>911.0</ele>
        <time>2018-05-26T07:55:34.169Z</time>
      </trkpt>
      <trkpt lat="40.69401667" lon="-3.83900833">
        <ele>911.0</ele>
        <time>2018-05-26T07:55:35.149Z</time>
      </trkpt>
      <trkpt lat="40.69402667" lon="-3.83909667">
        <ele>911.0</ele>
        <time>2018-05-26T07:55:36.168Z</time>
      </trkpt>
      <trkpt lat="40.69403167" lon="-3.83914">
        <ele>911.0</ele>
        <time>2018-05-26T07:55:37.137Z</time>
      </trkpt>
      <trkpt lat="40.69403167" lon="-3.83914">
        <ele>911.0</ele>
        <time>2018-05-26T07:55:38.155Z</time>
      </trkpt>
      <trkpt lat="40.69404333" lon="-3.83922667">
        <ele>912.0</ele>
        <time>2018-05-26T07:55:39.167Z</time>
      </trkpt>
      <trkpt lat="40.69404667" lon="-3.83926833">
        <ele>912.0</ele>
        <time>2018-05-26T07:55:40.152Z</time>
      </trkpt>
      <trkpt lat="40.69404667" lon="-3.83926833">
        <ele>912.0</ele>
        <time>2018-05-26T07:55:41.169Z</time>
      </trkpt>
      <trkpt lat="40.69404667" lon="-3.83935167">
        <ele>912.0</ele>
        <time>2018-05-26T07:55:42.142Z</time>
      </trkpt>
      <trkpt lat="40.69404667" lon="-3.83935167">
        <ele>912.0</ele>
        <time>2018-05-26T07:55:43.169Z</time>
      </trkpt>
      <trkpt lat="40.69405" lon="-3.83943833">
        <ele>912.0</ele>
        <time>2018-05-26T07:55:44.138Z</time>
      </trkpt>
      <trkpt lat="40.69405" lon="-3.83943833">
        <ele>912.0</ele>
        <time>2018-05-26T07:55:45.152Z</time>
      </trkpt>
      <trkpt lat="40.694055" lon="-3.83952833">
        <ele>913.0</ele>
        <time>2018-05-26T07:55:46.166Z</time>
      </trkpt>
      <trkpt lat="40.69405833" lon="-3.839575">
        <ele>913.0</ele>
        <time>2018-05-26T07:55:47.144Z</time>
      </trkpt>
      <trkpt lat="40.69405833" lon="-3.839575">
        <ele>913.0</ele>
        <time>2018-05-26T07:55:48.172Z</time>
      </trkpt>
      <trkpt lat="40.69406333" lon="-3.83967">
        <ele>913.0</ele>
        <time>2018-05-26T07:55:49.141Z</time>
      </trkpt>
      <trkpt lat="40.69406333" lon="-3.83967">
        <ele>913.0</ele>
        <time>2018-05-26T07:55:50.154Z</time>
      </trkpt>
      <trkpt lat="40.69407333" lon="-3.83976167">
        <ele>914.0</ele>
        <time>2018-05-26T07:55:51.168Z</time>
      </trkpt>
      <trkpt lat="40.69408" lon="-3.83980833">
        <ele>914.0</ele>
        <time>2018-05-26T07:55:52.149Z</time>
      </trkpt>
      <trkpt lat="40.69408" lon="-3.83980833">
        <ele>914.0</ele>
        <time>2018-05-26T07:55:53.173Z</time>
      </trkpt>
      <trkpt lat="40.69409333" lon="-3.83989667">
        <ele>914.0</ele>
        <time>2018-05-26T07:55:54.145Z</time>
      </trkpt>
      <trkpt lat="40.69409333" lon="-3.83989667">
        <ele>914.0</ele>
        <time>2018-05-26T07:55:55.155Z</time>
      </trkpt>
      <trkpt lat="40.69411167" lon="-3.83998">
        <ele>915.0</ele>
        <time>2018-05-26T07:55:56.159Z</time>
      </trkpt>
      <trkpt lat="40.69412" lon="-3.84002167">
        <ele>915.0</ele>
        <time>2018-05-26T07:55:57.170Z</time>
      </trkpt>
      <trkpt lat="40.69412" lon="-3.84002167">
        <ele>915.0</ele>
        <time>2018-05-26T07:55:58.142Z</time>
      </trkpt>
      <trkpt lat="40.69413833" lon="-3.84010667">
        <ele>915.0</ele>
        <time>2018-05-26T07:55:59.161Z</time>
      </trkpt>
      <trkpt lat="40.69414667" lon="-3.84014833">
        <ele>915.0</ele>
        <time>2018-05-26T07:56:00.149Z</time>
      </trkpt>
      <trkpt lat="40.69414667" lon="-3.84014833">
        <ele>915.0</ele>
        <time>2018-05-26T07:56:01.158Z</time>
      </trkpt>
      <trkpt lat="40.69416667" lon="-3.84022833">
        <ele>916.0</ele>
        <time>2018-05-26T07:56:02.170Z</time>
      </trkpt>
      <trkpt lat="40.69418" lon="-3.84026667">
        <ele>916.0</ele>
        <time>2018-05-26T07:56:03.152Z</time>
      </trkpt>
      <trkpt lat="40.69419" lon="-3.840305">
        <ele>916.0</ele>
        <time>2018-05-26T07:56:04.148Z</time>
      </trkpt>
      <trkpt lat="40.69419" lon="-3.840305">
        <ele>916.0</ele>
        <time>2018-05-26T07:56:05.138Z</time>
      </trkpt>
      <trkpt lat="40.69421167" lon="-3.84038667">
        <ele>916.0</ele>
        <time>2018-05-26T07:56:06.155Z</time>
      </trkpt>
      <trkpt lat="40.69421167" lon="-3.84038667">
        <ele>916.0</ele>
        <time>2018-05-26T07:56:07.144Z</time>
      </trkpt>
      <trkpt lat="40.694235" lon="-3.84047">
        <ele>916.0</ele>
        <time>2018-05-26T07:56:08.158Z</time>
      </trkpt>
      <trkpt lat="40.69424667" lon="-3.84051333">
        <ele>917.0</ele>
        <time>2018-05-26T07:56:09.138Z</time>
      </trkpt>
      <trkpt lat="40.69425833" lon="-3.840555">
        <ele>917.0</ele>
        <time>2018-05-26T07:56:10.161Z</time>
      </trkpt>
      <trkpt lat="40.69425833" lon="-3.840555">
        <ele>917.0</ele>
        <time>2018-05-26T07:56:11.141Z</time>
      </trkpt>
      <trkpt lat="40.69429333" lon="-3.84063833">
        <ele>917.0</ele>
        <time>2018-05-26T07:56:12.154Z</time>
      </trkpt>
      <trkpt lat="40.69429333" lon="-3.84063833">
        <ele>917.0</ele>
        <time>2018-05-26T07:56:13.149Z</time>
      </trkpt>
      <trkpt lat="40.69432667" lon="-3.84072167">
        <ele>917.0</ele>
        <time>2018-05-26T07:56:14.172Z</time>
      </trkpt>
      <trkpt lat="40.69432667" lon="-3.84072167">
        <ele>917.0</ele>
        <time>2018-05-26T07:56:15.158Z</time>
      </trkpt>
      <trkpt lat="40.69437" lon="-3.84080667">
        <ele>918.0</ele>
        <time>2018-05-26T07:56:16.170Z</time>
      </trkpt>
      <trkpt lat="40.69437" lon="-3.84080667">
        <ele>918.0</ele>
        <time>2018-05-26T07:56:17.153Z</time>
      </trkpt>
      <trkpt lat="40.69441333" lon="-3.84089333">
        <ele>918.0</ele>
        <time>2018-05-26T07:56:18.176Z</time>
      </trkpt>
      <trkpt lat="40.69441333" lon="-3.84089333">
        <ele>918.0</ele>
        <time>2018-05-26T07:56:19.169Z</time>
      </trkpt>
      <trkpt lat="40.69446167" lon="-3.84097833">
        <ele>918.0</ele>
        <time>2018-05-26T07:56:20.137Z</time>
      </trkpt>
      <trkpt lat="40.69446167" lon="-3.84097833">
        <ele>918.0</ele>
        <time>2018-05-26T07:56:21.160Z</time>
      </trkpt>
      <trkpt lat="40.69450667" lon="-3.84106167">
        <ele>918.0</ele>
        <time>2018-05-26T07:56:22.172Z</time>
      </trkpt>
      <trkpt lat="40.69450667" lon="-3.84106167">
        <ele>918.0</ele>
        <time>2018-05-26T07:56:23.144Z</time>
      </trkpt>
      <trkpt lat="40.69455" lon="-3.84114333">
        <ele>918.0</ele>
        <time>2018-05-26T07:56:24.155Z</time>
      </trkpt>
      <trkpt lat="40.69457" lon="-3.84118333">
        <ele>919.0</ele>
        <time>2018-05-26T07:56:25.170Z</time>
      </trkpt>
      <trkpt lat="40.69457" lon="-3.84118333">
        <ele>919.0</ele>
        <time>2018-05-26T07:56:26.153Z</time>
      </trkpt>
      <trkpt lat="40.69461333" lon="-3.841255">
        <ele>919.0</ele>
        <time>2018-05-26T07:56:27.169Z</time>
      </trkpt>
      <trkpt lat="40.69461333" lon="-3.841255">
        <ele>919.0</ele>
        <time>2018-05-26T07:56:28.149Z</time>
      </trkpt>
      <trkpt lat="40.69466167" lon="-3.84132833">
        <ele>919.0</ele>
        <time>2018-05-26T07:56:29.166Z</time>
      </trkpt>
      <trkpt lat="40.69466167" lon="-3.84132833">
        <ele>919.0</ele>
        <time>2018-05-26T07:56:30.144Z</time>
      </trkpt>
      <trkpt lat="40.69470667" lon="-3.84140833">
        <ele>920.0</ele>
        <time>2018-05-26T07:56:31.158Z</time>
      </trkpt>
      <trkpt lat="40.69472667" lon="-3.84144833">
        <ele>920.0</ele>
        <time>2018-05-26T07:56:32.157Z</time>
      </trkpt>
      <trkpt lat="40.69472667" lon="-3.84144833">
        <ele>920.0</ele>
        <time>2018-05-26T07:56:33.145Z</time>
      </trkpt>
      <trkpt lat="40.69477" lon="-3.84152833">
        <ele>920.0</ele>
        <time>2018-05-26T07:56:34.154Z</time>
      </trkpt>
      <trkpt lat="40.69477" lon="-3.84152833">
        <ele>920.0</ele>
        <time>2018-05-26T07:56:35.172Z</time>
      </trkpt>
      <trkpt lat="40.69481" lon="-3.84161333">
        <ele>920.0</ele>
        <time>2018-05-26T07:56:36.148Z</time>
      </trkpt>
      <trkpt lat="40.69481" lon="-3.84161333">
        <ele>920.0</ele>
        <time>2018-05-26T07:56:37.166Z</time>
      </trkpt>
      <trkpt lat="40.69485" lon="-3.84170167">
        <ele>921.0</ele>
        <time>2018-05-26T07:56:38.175Z</time>
      </trkpt>
      <trkpt lat="40.69486833" lon="-3.84174833">
        <ele>921.0</ele>
        <time>2018-05-26T07:56:39.172Z</time>
      </trkpt>
      <trkpt lat="40.69486833" lon="-3.84174833">
        <ele>921.0</ele>
        <time>2018-05-26T07:56:40.145Z</time>
      </trkpt>
      <trkpt lat="40.694905" lon="-3.84184">
        <ele>921.0</ele>
        <time>2018-05-26T07:56:41.161Z</time>
      </trkpt>
      <trkpt lat="40.69492333" lon="-3.84188833">
        <ele>921.0</ele>
        <time>2018-05-26T07:56:42.141Z</time>
      </trkpt>
      <trkpt lat="40.69494167" lon="-3.84193667">
        <ele>921.0</ele>
        <time>2018-05-26T07:56:43.139Z</time>
      </trkpt>
      <trkpt lat="40.69494167" lon="-3.84193667">
        <ele>921.0</ele>
        <time>2018-05-26T07:56:44.157Z</time>
      </trkpt>
      <trkpt lat="40.69498" lon="-3.842035">
        <ele>921.0</ele>
        <time>2018-05-26T07:56:45.171Z</time>
      </trkpt>
      <trkpt lat="40.69498" lon="-3.842035">
        <ele>921.0</ele>
        <time>2018-05-26T07:56:46.160Z</time>
      </trkpt>
      <trkpt lat="40.69501333" lon="-3.84213833">
        <ele>921.0</ele>
        <time>2018-05-26T07:56:47.172Z</time>
      </trkpt>
      <trkpt lat="40.69501333" lon="-3.84213833">
        <ele>921.0</ele>
        <time>2018-05-26T07:56:48.147Z</time>
      </trkpt>
      <trkpt lat="40.69504667" lon="-3.84224">
        <ele>921.0</ele>
        <time>2018-05-26T07:56:49.155Z</time>
      </trkpt>
      <trkpt lat="40.69504667" lon="-3.84224">
        <ele>921.0</ele>
        <time>2018-05-26T07:56:50.142Z</time>
      </trkpt>
      <trkpt lat="40.69507833" lon="-3.84234">
        <ele>921.0</ele>
        <time>2018-05-26T07:56:51.151Z</time>
      </trkpt>
      <trkpt lat="40.69509333" lon="-3.84238833">
        <ele>922.0</ele>
        <time>2018-05-26T07:56:52.175Z</time>
      </trkpt>
      <trkpt lat="40.69510833" lon="-3.84243667">
        <ele>922.0</ele>
        <time>2018-05-26T07:56:53.160Z</time>
      </trkpt>
      <trkpt lat="40.69510833" lon="-3.84243667">
        <ele>922.0</ele>
        <time>2018-05-26T07:56:54.151Z</time>
      </trkpt>
      <trkpt lat="40.69513667" lon="-3.84253167">
        <ele>922.0</ele>
        <time>2018-05-26T07:56:55.162Z</time>
      </trkpt>
      <trkpt lat="40.69513667" lon="-3.84253167">
        <ele>922.0</ele>
        <time>2018-05-26T07:56:56.143Z</time>
      </trkpt>
      <trkpt lat="40.69516167" lon="-3.84262333">
        <ele>922.0</ele>
        <time>2018-05-26T07:56:57.162Z</time>
      </trkpt>
      <trkpt lat="40.695175" lon="-3.84267">
        <ele>922.0</ele>
        <time>2018-05-26T07:56:58.144Z</time>
      </trkpt>
      <trkpt lat="40.695175" lon="-3.84267">
        <ele>922.0</ele>
        <time>2018-05-26T07:56:59.163Z</time>
      </trkpt>
      <trkpt lat="40.69520167" lon="-3.84276167">
        <ele>922.0</ele>
        <time>2018-05-26T07:57:00.146Z</time>
      </trkpt>
      <trkpt lat="40.69521333" lon="-3.84280833">
        <ele>922.0</ele>
        <time>2018-05-26T07:57:01.147Z</time>
      </trkpt>
      <trkpt lat="40.69521333" lon="-3.84280833">
        <ele>922.0</ele>
        <time>2018-05-26T07:57:02.167Z</time>
      </trkpt>
      <trkpt lat="40.69524167" lon="-3.84289833">
        <ele>923.0</ele>
        <time>2018-05-26T07:57:03.138Z</time>
      </trkpt>
      <trkpt lat="40.69525167" lon="-3.84294167">
        <ele>923.0</ele>
        <time>2018-05-26T07:57:04.159Z</time>
      </trkpt>
      <trkpt lat="40.69525167" lon="-3.84294167">
        <ele>923.0</ele>
        <time>2018-05-26T07:57:05.148Z</time>
      </trkpt>
      <trkpt lat="40.69527333" lon="-3.84302333">
        <ele>924.0</ele>
        <time>2018-05-26T07:57:06.157Z</time>
      </trkpt>
      <trkpt lat="40.69528333" lon="-3.843065">
        <ele>924.0</ele>
        <time>2018-05-26T07:57:07.145Z</time>
      </trkpt>
      <trkpt lat="40.69528333" lon="-3.843065">
        <ele>924.0</ele>
        <time>2018-05-26T07:57:08.159Z</time>
      </trkpt>
      <trkpt lat="40.695295" lon="-3.84315333">
        <ele>924.0</ele>
        <time>2018-05-26T07:57:09.171Z</time>
      </trkpt>
      <trkpt lat="40.6953" lon="-3.8432">
        <ele>925.0</ele>
        <time>2018-05-26T07:57:10.172Z</time>
      </trkpt>
      <trkpt lat="40.6953" lon="-3.8432">
        <ele>925.0</ele>
        <time>2018-05-26T07:57:11.146Z</time>
      </trkpt>
      <trkpt lat="40.69532167" lon="-3.84328833">
        <ele>925.0</ele>
        <time>2018-05-26T07:57:12.171Z</time>
      </trkpt>
      <trkpt lat="40.695335" lon="-3.84332833">
        <ele>926.0</ele>
        <time>2018-05-26T07:57:13.156Z</time>
      </trkpt>
      <trkpt lat="40.695335" lon="-3.84332833">
        <ele>926.0</ele>
        <time>2018-05-26T07:57:14.148Z</time>
      </trkpt>
      <trkpt lat="40.69536" lon="-3.84341">
        <ele>926.0</ele>
        <time>2018-05-26T07:57:15.165Z</time>
      </trkpt>
      <trkpt lat="40.69537" lon="-3.84345">
        <ele>927.0</ele>
        <time>2018-05-26T07:57:16.149Z</time>
      </trkpt>
      <trkpt lat="40.69537" lon="-3.84345">
        <ele>927.0</ele>
        <time>2018-05-26T07:57:17.166Z</time>
      </trkpt>
      <trkpt lat="40.69539333" lon="-3.84353167">
        <ele>927.0</ele>
        <time>2018-05-26T07:57:18.136Z</time>
      </trkpt>
      <trkpt lat="40.69540167" lon="-3.84356833">
        <ele>927.0</ele>
        <time>2018-05-26T07:57:19.175Z</time>
      </trkpt>
      <trkpt lat="40.69540167" lon="-3.84356833">
        <ele>927.0</ele>
        <time>2018-05-26T07:57:20.152Z</time>
      </trkpt>
      <trkpt lat="40.69541667" lon="-3.84363667">
        <ele>928.0</ele>
        <time>2018-05-26T07:57:21.163Z</time>
      </trkpt>
      <trkpt lat="40.69542333" lon="-3.84367667">
        <ele>928.0</ele>
        <time>2018-05-26T07:57:22.167Z</time>
      </trkpt>
      <trkpt lat="40.69542333" lon="-3.84367667">
        <ele>928.0</ele>
        <time>2018-05-26T07:57:23.172Z</time>
      </trkpt>
      <trkpt lat="40.69543333" lon="-3.84375333">
        <ele>929.0</ele>
        <time>2018-05-26T07:57:24.151Z</time>
      </trkpt>
      <trkpt lat="40.69543333" lon="-3.84375333">
        <ele>929.0</ele>
        <time>2018-05-26T07:57:25.144Z</time>
      </trkpt>
      <trkpt lat="40.695445" lon="-3.84383333">
        <ele>929.0</ele>
        <time>2018-05-26T07:57:26.159Z</time>
      </trkpt>
      <trkpt lat="40.695445" lon="-3.84383333">
        <ele>929.0</ele>
        <time>2018-05-26T07:57:27.142Z</time>
      </trkpt>
      <trkpt lat="40.69545333" lon="-3.84391333">
        <ele>929.0</ele>
        <time>2018-05-26T07:57:28.156Z</time>
      </trkpt>
      <trkpt lat="40.69545333" lon="-3.84391333">
        <ele>929.0</ele>
        <time>2018-05-26T07:57:29.175Z</time>
      </trkpt>
      <trkpt lat="40.69545833" lon="-3.843995">
        <ele>930.0</ele>
        <time>2018-05-26T07:57:30.152Z</time>
      </trkpt>
      <trkpt lat="40.69545833" lon="-3.843995">
        <ele>930.0</ele>
        <time>2018-05-26T07:57:31.138Z</time>
      </trkpt>
      <trkpt lat="40.69546667" lon="-3.84407833">
        <ele>930.0</ele>
        <time>2018-05-26T07:57:32.170Z</time>
      </trkpt>
      <trkpt lat="40.69546667" lon="-3.84407833">
        <ele>930.0</ele>
        <time>2018-05-26T07:57:33.142Z</time>
      </trkpt>
      <trkpt lat="40.69547833" lon="-3.84416333">
        <ele>931.0</ele>
        <time>2018-05-26T07:57:34.149Z</time>
      </trkpt>
      <trkpt lat="40.69547833" lon="-3.84416333">
        <ele>931.0</ele>
        <time>2018-05-26T07:57:35.145Z</time>
      </trkpt>
      <trkpt lat="40.69549333" lon="-3.84424833">
        <ele>931.0</ele>
        <time>2018-05-26T07:57:36.158Z</time>
      </trkpt>
      <trkpt lat="40.69550167" lon="-3.84429">
        <ele>931.0</ele>
        <time>2018-05-26T07:57:37.177Z</time>
      </trkpt>
      <trkpt lat="40.69550167" lon="-3.84429">
        <ele>931.0</ele>
        <time>2018-05-26T07:57:38.157Z</time>
      </trkpt>
      <trkpt lat="40.69551667" lon="-3.84437333">
        <ele>932.0</ele>
        <time>2018-05-26T07:57:39.166Z</time>
      </trkpt>
      <trkpt lat="40.695525" lon="-3.84441167">
        <ele>932.0</ele>
        <time>2018-05-26T07:57:40.157Z</time>
      </trkpt>
      <trkpt lat="40.695525" lon="-3.84441167">
        <ele>932.0</ele>
        <time>2018-05-26T07:57:41.172Z</time>
      </trkpt>
      <trkpt lat="40.69554167" lon="-3.84448833">
        <ele>932.0</ele>
        <time>2018-05-26T07:57:42.141Z</time>
      </trkpt>
      <trkpt lat="40.69554167" lon="-3.84448833">
        <ele>932.0</ele>
        <time>2018-05-26T07:57:43.161Z</time>
      </trkpt>
      <trkpt lat="40.69556333" lon="-3.84456667">
        <ele>933.0</ele>
        <time>2018-05-26T07:57:44.173Z</time>
      </trkpt>
      <trkpt lat="40.69556333" lon="-3.84456667">
        <ele>933.0</ele>
        <time>2018-05-26T07:57:45.150Z</time>
      </trkpt>
      <trkpt lat="40.695585" lon="-3.84464833">
        <ele>933.0</ele>
        <time>2018-05-26T07:57:46.169Z</time>
      </trkpt>
      <trkpt lat="40.695585" lon="-3.84464833">
        <ele>933.0</ele>
        <time>2018-05-26T07:57:47.148Z</time>
      </trkpt>
      <trkpt lat="40.69560667" lon="-3.84473167">
        <ele>933.0</ele>
        <time>2018-05-26T07:57:48.156Z</time>
      </trkpt>
      <trkpt lat="40.69560667" lon="-3.84473167">
        <ele>933.0</ele>
        <time>2018-05-26T07:57:49.140Z</time>
      </trkpt>
      <trkpt lat="40.69562667" lon="-3.84482">
        <ele>933.0</ele>
        <time>2018-05-26T07:57:50.175Z</time>
      </trkpt>
      <trkpt lat="40.69562667" lon="-3.84482">
        <ele>933.0</ele>
        <time>2018-05-26T07:57:51.159Z</time>
      </trkpt>
      <trkpt lat="40.69564833" lon="-3.844905">
        <ele>933.0</ele>
        <time>2018-05-26T07:57:52.170Z</time>
      </trkpt>
      <trkpt lat="40.69564833" lon="-3.844905">
        <ele>933.0</ele>
        <time>2018-05-26T07:57:53.174Z</time>
      </trkpt>
      <trkpt lat="40.69567" lon="-3.84499167">
        <ele>934.0</ele>
        <time>2018-05-26T07:57:54.146Z</time>
      </trkpt>
      <trkpt lat="40.69567" lon="-3.84499167">
        <ele>934.0</ele>
        <time>2018-05-26T07:57:55.140Z</time>
      </trkpt>
      <trkpt lat="40.695695" lon="-3.84507833">
        <ele>934.0</ele>
        <time>2018-05-26T07:57:56.158Z</time>
      </trkpt>
      <trkpt lat="40.695695" lon="-3.84507833">
        <ele>934.0</ele>
        <time>2018-05-26T07:57:57.136Z</time>
      </trkpt>
      <trkpt lat="40.69571833" lon="-3.84516333">
        <ele>934.0</ele>
        <time>2018-05-26T07:57:58.146Z</time>
      </trkpt>
      <trkpt lat="40.69571833" lon="-3.84516333">
        <ele>934.0</ele>
        <time>2018-05-26T07:57:59.166Z</time>
      </trkpt>
      <trkpt lat="40.69574167" lon="-3.84524833">
        <ele>934.0</ele>
        <time>2018-05-26T07:58:00.155Z</time>
      </trkpt>
      <trkpt lat="40.69575333" lon="-3.84529">
        <ele>934.0</ele>
        <time>2018-05-26T07:58:01.147Z</time>
      </trkpt>
      <trkpt lat="40.69575333" lon="-3.84529">
        <ele>934.0</ele>
        <time>2018-05-26T07:58:02.164Z</time>
      </trkpt>
      <trkpt lat="40.695775" lon="-3.84537667">
        <ele>935.0</ele>
        <time>2018-05-26T07:58:03.146Z</time>
      </trkpt>
      <trkpt lat="40.69578667" lon="-3.84542">
        <ele>935.0</ele>
        <time>2018-05-26T07:58:04.174Z</time>
      </trkpt>
      <trkpt lat="40.69579833" lon="-3.84546333">
        <ele>935.0</ele>
        <time>2018-05-26T07:58:05.143Z</time>
      </trkpt>
      <trkpt lat="40.69579833" lon="-3.84546333">
        <ele>935.0</ele>
        <time>2018-05-26T07:58:06.164Z</time>
      </trkpt>
      <trkpt lat="40.69582167" lon="-3.84554833">
        <ele>935.0</ele>
        <time>2018-05-26T07:58:07.137Z</time>
      </trkpt>
      <trkpt lat="40.69582167" lon="-3.84554833">
        <ele>935.0</ele>
        <time>2018-05-26T07:58:08.141Z</time>
      </trkpt>
      <trkpt lat="40.695845" lon="-3.84563167">
        <ele>936.0</ele>
        <time>2018-05-26T07:58:09.160Z</time>
      </trkpt>
      <trkpt lat="40.695855" lon="-3.845675">
        <ele>936.0</ele>
        <time>2018-05-26T07:58:10.171Z</time>
      </trkpt>
      <trkpt lat="40.695855" lon="-3.845675">
        <ele>936.0</ele>
        <time>2018-05-26T07:58:11.151Z</time>
      </trkpt>
      <trkpt lat="40.69587667" lon="-3.84576">
        <ele>936.0</ele>
        <time>2018-05-26T07:58:12.166Z</time>
      </trkpt>
      <trkpt lat="40.69587667" lon="-3.84576">
        <ele>936.0</ele>
        <time>2018-05-26T07:58:13.145Z</time>
      </trkpt>
      <trkpt lat="40.69590333" lon="-3.84584667">
        <ele>936.0</ele>
        <time>2018-05-26T07:58:14.157Z</time>
      </trkpt>
      <trkpt lat="40.69590333" lon="-3.84584667">
        <ele>936.0</ele>
        <time>2018-05-26T07:58:15.143Z</time>
      </trkpt>
      <trkpt lat="40.69592667" lon="-3.84593333">
        <ele>936.0</ele>
        <time>2018-05-26T07:58:16.160Z</time>
      </trkpt>
      <trkpt lat="40.69592667" lon="-3.84593333">
        <ele>936.0</ele>
        <time>2018-05-26T07:58:17.157Z</time>
      </trkpt>
      <trkpt lat="40.69594667" lon="-3.846025">
        <ele>937.0</ele>
        <time>2018-05-26T07:58:18.143Z</time>
      </trkpt>
      <trkpt lat="40.69594667" lon="-3.846025">
        <ele>937.0</ele>
        <time>2018-05-26T07:58:19.168Z</time>
      </trkpt>
      <trkpt lat="40.69596333" lon="-3.84612">
        <ele>937.0</ele>
        <time>2018-05-26T07:58:20.139Z</time>
      </trkpt>
      <trkpt lat="40.69596333" lon="-3.84612">
        <ele>937.0</ele>
        <time>2018-05-26T07:58:21.163Z</time>
      </trkpt>
      <trkpt lat="40.69598" lon="-3.846215">
        <ele>937.0</ele>
        <time>2018-05-26T07:58:22.142Z</time>
      </trkpt>
      <trkpt lat="40.69598" lon="-3.846215">
        <ele>937.0</ele>
        <time>2018-05-26T07:58:23.154Z</time>
      </trkpt>
      <trkpt lat="40.69598833" lon="-3.84631">
        <ele>937.0</ele>
        <time>2018-05-26T07:58:24.147Z</time>
      </trkpt>
      <trkpt lat="40.69598833" lon="-3.84631">
        <ele>937.0</ele>
        <time>2018-05-26T07:58:25.174Z</time>
      </trkpt>
      <trkpt lat="40.695995" lon="-3.846405">
        <ele>938.0</ele>
        <time>2018-05-26T07:58:26.148Z</time>
      </trkpt>
      <trkpt lat="40.69599833" lon="-3.84645167">
        <ele>938.0</ele>
        <time>2018-05-26T07:58:27.176Z</time>
      </trkpt>
      <trkpt lat="40.696" lon="-3.8465">
        <ele>938.0</ele>
        <time>2018-05-26T07:58:28.153Z</time>
      </trkpt>
      <trkpt lat="40.696" lon="-3.8465">
        <ele>938.0</ele>
        <time>2018-05-26T07:58:29.152Z</time>
      </trkpt>
      <trkpt lat="40.696005" lon="-3.84658833">
        <ele>938.0</ele>
        <time>2018-05-26T07:58:30.160Z</time>
      </trkpt>
      <trkpt lat="40.69601" lon="-3.84663333">
        <ele>939.0</ele>
        <time>2018-05-26T07:58:31.142Z</time>
      </trkpt>
      <trkpt lat="40.696015" lon="-3.84668">
        <ele>939.0</ele>
        <time>2018-05-26T07:58:32.137Z</time>
      </trkpt>
      <trkpt lat="40.696015" lon="-3.84668">
        <ele>939.0</ele>
        <time>2018-05-26T07:58:33.152Z</time>
      </trkpt>
      <trkpt lat="40.69601833" lon="-3.846775">
        <ele>939.0</ele>
        <time>2018-05-26T07:58:34.169Z</time>
      </trkpt>
      <trkpt lat="40.69601833" lon="-3.846775">
        <ele>939.0</ele>
        <time>2018-05-26T07:58:35.155Z</time>
      </trkpt>
      <trkpt lat="40.69602333" lon="-3.84687833">
        <ele>939.0</ele>
        <time>2018-05-26T07:58:36.172Z</time>
      </trkpt>
      <trkpt lat="40.69602333" lon="-3.84687833">
        <ele>939.0</ele>
        <time>2018-05-26T07:58:37.162Z</time>
      </trkpt>
      <trkpt lat="40.69602667" lon="-3.84698333">
        <ele>939.0</ele>
        <time>2018-05-26T07:58:38.136Z</time>
      </trkpt>
      <trkpt lat="40.69603" lon="-3.84703667">
        <ele>939.0</ele>
        <time>2018-05-26T07:58:39.172Z</time>
      </trkpt>
      <trkpt lat="40.69603" lon="-3.84703667">
        <ele>939.0</ele>
        <time>2018-05-26T07:58:40.146Z</time>
      </trkpt>
      <trkpt lat="40.696035" lon="-3.84714333">
        <ele>939.0</ele>
        <time>2018-05-26T07:58:41.141Z</time>
      </trkpt>
      <trkpt lat="40.696035" lon="-3.84714333">
        <ele>939.0</ele>
        <time>2018-05-26T07:58:42.149Z</time>
      </trkpt>
      <trkpt lat="40.69604" lon="-3.84725167">
        <ele>939.0</ele>
        <time>2018-05-26T07:58:43.157Z</time>
      </trkpt>
      <trkpt lat="40.69604" lon="-3.84725167">
        <ele>939.0</ele>
        <time>2018-05-26T07:58:44.172Z</time>
      </trkpt>
      <trkpt lat="40.69604333" lon="-3.847365">
        <ele>939.0</ele>
        <time>2018-05-26T07:58:45.147Z</time>
      </trkpt>
      <trkpt lat="40.69604667" lon="-3.84742167">
        <ele>939.0</ele>
        <time>2018-05-26T07:58:46.165Z</time>
      </trkpt>
      <trkpt lat="40.69604667" lon="-3.84742167">
        <ele>939.0</ele>
        <time>2018-05-26T07:58:47.144Z</time>
      </trkpt>
      <trkpt lat="40.69604667" lon="-3.84753167">
        <ele>939.0</ele>
        <time>2018-05-26T07:58:48.156Z</time>
      </trkpt>
      <trkpt lat="40.69604667" lon="-3.84753167">
        <ele>939.0</ele>
        <time>2018-05-26T07:58:49.169Z</time>
      </trkpt>
      <trkpt lat="40.69604833" lon="-3.84764">
        <ele>939.0</ele>
        <time>2018-05-26T07:58:50.142Z</time>
      </trkpt>
      <trkpt lat="40.69604833" lon="-3.84764">
        <ele>939.0</ele>
        <time>2018-05-26T07:58:51.162Z</time>
      </trkpt>
      <trkpt lat="40.69605333" lon="-3.84774833">
        <ele>939.0</ele>
        <time>2018-05-26T07:58:52.139Z</time>
      </trkpt>
      <trkpt lat="40.69605333" lon="-3.84774833">
        <ele>939.0</ele>
        <time>2018-05-26T07:58:53.163Z</time>
      </trkpt>
      <trkpt lat="40.69605333" lon="-3.84786167">
        <ele>939.0</ele>
        <time>2018-05-26T07:58:54.136Z</time>
      </trkpt>
      <trkpt lat="40.69605333" lon="-3.84786167">
        <ele>939.0</ele>
        <time>2018-05-26T07:58:55.159Z</time>
      </trkpt>
      <trkpt lat="40.69605167" lon="-3.84797667">
        <ele>940.0</ele>
        <time>2018-05-26T07:58:56.140Z</time>
      </trkpt>
      <trkpt lat="40.69605167" lon="-3.84803167">
        <ele>940.0</ele>
        <time>2018-05-26T07:58:57.137Z</time>
      </trkpt>
      <trkpt lat="40.69605167" lon="-3.84803167">
        <ele>940.0</ele>
        <time>2018-05-26T07:58:58.158Z</time>
      </trkpt>
      <trkpt lat="40.696055" lon="-3.84814333">
        <ele>940.0</ele>
        <time>2018-05-26T07:58:59.169Z</time>
      </trkpt>
      <trkpt lat="40.696055" lon="-3.84814333">
        <ele>940.0</ele>
        <time>2018-05-26T07:59:00.159Z</time>
      </trkpt>
      <trkpt lat="40.69605667" lon="-3.84825167">
        <ele>940.0</ele>
        <time>2018-05-26T07:59:01.146Z</time>
      </trkpt>
      <trkpt lat="40.69605667" lon="-3.84830667">
        <ele>940.0</ele>
        <time>2018-05-26T07:59:02.175Z</time>
      </trkpt>
      <trkpt lat="40.69605667" lon="-3.84830667">
        <ele>940.0</ele>
        <time>2018-05-26T07:59:03.148Z</time>
      </trkpt>
      <trkpt lat="40.69606" lon="-3.84841833">
        <ele>940.0</ele>
        <time>2018-05-26T07:59:04.162Z</time>
      </trkpt>
      <trkpt lat="40.69606" lon="-3.84841833">
        <ele>940.0</ele>
        <time>2018-05-26T07:59:05.152Z</time>
      </trkpt>
      <trkpt lat="40.69606167" lon="-3.84853">
        <ele>940.0</ele>
        <time>2018-05-26T07:59:06.161Z</time>
      </trkpt>
      <trkpt lat="40.69606333" lon="-3.84858667">
        <ele>940.0</ele>
        <time>2018-05-26T07:59:07.147Z</time>
      </trkpt>
      <trkpt lat="40.69606333" lon="-3.84858667">
        <ele>940.0</ele>
        <time>2018-05-26T07:59:08.164Z</time>
      </trkpt>
      <trkpt lat="40.696065" lon="-3.8487">
        <ele>940.0</ele>
        <time>2018-05-26T07:59:09.176Z</time>
      </trkpt>
      <trkpt lat="40.696065" lon="-3.84875667">
        <ele>940.0</ele>
        <time>2018-05-26T07:59:10.170Z</time>
      </trkpt>
      <trkpt lat="40.69606833" lon="-3.84881167">
        <ele>940.0</ele>
        <time>2018-05-26T07:59:11.162Z</time>
      </trkpt>
      <trkpt lat="40.69607" lon="-3.84886833">
        <ele>940.0</ele>
        <time>2018-05-26T07:59:12.149Z</time>
      </trkpt>
      <trkpt lat="40.69607" lon="-3.84886833">
        <ele>940.0</ele>
        <time>2018-05-26T07:59:13.166Z</time>
      </trkpt>
      <trkpt lat="40.69607167" lon="-3.84897833">
        <ele>940.0</ele>
        <time>2018-05-26T07:59:14.173Z</time>
      </trkpt>
      <trkpt lat="40.69607167" lon="-3.84897833">
        <ele>940.0</ele>
        <time>2018-05-26T07:59:15.146Z</time>
      </trkpt>
      <trkpt lat="40.696075" lon="-3.84908667">
        <ele>941.0</ele>
        <time>2018-05-26T07:59:16.160Z</time>
      </trkpt>
      <trkpt lat="40.696075" lon="-3.84908667">
        <ele>941.0</ele>
        <time>2018-05-26T07:59:17.144Z</time>
      </trkpt>
      <trkpt lat="40.69607833" lon="-3.84919833">
        <ele>941.0</ele>
        <time>2018-05-26T07:59:18.158Z</time>
      </trkpt>
      <trkpt lat="40.69608" lon="-3.84925333">
        <ele>941.0</ele>
        <time>2018-05-26T07:59:19.149Z</time>
      </trkpt>
      <trkpt lat="40.69608" lon="-3.84925333">
        <ele>941.0</ele>
        <time>2018-05-26T07:59:20.172Z</time>
      </trkpt>
      <trkpt lat="40.69607667" lon="-3.84936167">
        <ele>941.0</ele>
        <time>2018-05-26T07:59:21.143Z</time>
      </trkpt>
      <trkpt lat="40.69607667" lon="-3.84941667">
        <ele>941.0</ele>
        <time>2018-05-26T07:59:22.148Z</time>
      </trkpt>
      <trkpt lat="40.696075" lon="-3.84947">
        <ele>941.0</ele>
        <time>2018-05-26T07:59:23.142Z</time>
      </trkpt>
      <trkpt lat="40.696075" lon="-3.84947">
        <ele>941.0</ele>
        <time>2018-05-26T07:59:24.162Z</time>
      </trkpt>
      <trkpt lat="40.69607333" lon="-3.84958167">
        <ele>941.0</ele>
        <time>2018-05-26T07:59:25.174Z</time>
      </trkpt>
      <trkpt lat="40.69607333" lon="-3.84958167">
        <ele>941.0</ele>
        <time>2018-05-26T07:59:26.154Z</time>
      </trkpt>
      <trkpt lat="40.69607" lon="-3.84969667">
        <ele>942.0</ele>
        <time>2018-05-26T07:59:27.165Z</time>
      </trkpt>
      <trkpt lat="40.69606833" lon="-3.849755">
        <ele>942.0</ele>
        <time>2018-05-26T07:59:28.145Z</time>
      </trkpt>
      <trkpt lat="40.69606833" lon="-3.849755">
        <ele>942.0</ele>
        <time>2018-05-26T07:59:29.161Z</time>
      </trkpt>
      <trkpt lat="40.69606833" lon="-3.84987667">
        <ele>942.0</ele>
        <time>2018-05-26T07:59:30.172Z</time>
      </trkpt>
      <trkpt lat="40.69606833" lon="-3.84987667">
        <ele>942.0</ele>
        <time>2018-05-26T07:59:31.154Z</time>
      </trkpt>
      <trkpt lat="40.696075" lon="-3.85000333">
        <ele>942.0</ele>
        <time>2018-05-26T07:59:32.166Z</time>
      </trkpt>
      <trkpt lat="40.696075" lon="-3.85000333">
        <ele>942.0</ele>
        <time>2018-05-26T07:59:33.144Z</time>
      </trkpt>
      <trkpt lat="40.69607833" lon="-3.85012667">
        <ele>942.0</ele>
        <time>2018-05-26T07:59:34.161Z</time>
      </trkpt>
      <trkpt lat="40.69607833" lon="-3.85012667">
        <ele>942.0</ele>
        <time>2018-05-26T07:59:35.147Z</time>
      </trkpt>
      <trkpt lat="40.69608167" lon="-3.85024667">
        <ele>943.0</ele>
        <time>2018-05-26T07:59:36.161Z</time>
      </trkpt>
      <trkpt lat="40.69608333" lon="-3.850305">
        <ele>943.0</ele>
        <time>2018-05-26T07:59:37.147Z</time>
      </trkpt>
      <trkpt lat="40.69608333" lon="-3.850305">
        <ele>943.0</ele>
        <time>2018-05-26T07:59:38.164Z</time>
      </trkpt>
      <trkpt lat="40.69608667" lon="-3.85042333">
        <ele>943.0</ele>
        <time>2018-05-26T07:59:39.173Z</time>
      </trkpt>
      <trkpt lat="40.69608833" lon="-3.85048">
        <ele>943.0</ele>
        <time>2018-05-26T07:59:40.149Z</time>
      </trkpt>
      <trkpt lat="40.69608833" lon="-3.85048">
        <ele>943.0</ele>
        <time>2018-05-26T07:59:41.168Z</time>
      </trkpt>
      <trkpt lat="40.69609167" lon="-3.85059167">
        <ele>943.0</ele>
        <time>2018-05-26T07:59:42.139Z</time>
      </trkpt>
      <trkpt lat="40.69609167" lon="-3.85059167">
        <ele>943.0</ele>
        <time>2018-05-26T07:59:43.167Z</time>
      </trkpt>
      <trkpt lat="40.69609667" lon="-3.85070333">
        <ele>944.0</ele>
        <time>2018-05-26T07:59:44.176Z</time>
      </trkpt>
      <trkpt lat="40.6961" lon="-3.85075833">
        <ele>944.0</ele>
        <time>2018-05-26T07:59:45.165Z</time>
      </trkpt>
      <trkpt lat="40.6961" lon="-3.85075833">
        <ele>944.0</ele>
        <time>2018-05-26T07:59:46.159Z</time>
      </trkpt>
      <trkpt lat="40.696105" lon="-3.850865">
        <ele>944.0</ele>
        <time>2018-05-26T07:59:47.173Z</time>
      </trkpt>
      <trkpt lat="40.696105" lon="-3.850865">
        <ele>944.0</ele>
        <time>2018-05-26T07:59:48.145Z</time>
      </trkpt>
      <trkpt lat="40.69610833" lon="-3.85097167">
        <ele>944.0</ele>
        <time>2018-05-26T07:59:49.156Z</time>
      </trkpt>
      <trkpt lat="40.69610833" lon="-3.85097167">
        <ele>944.0</ele>
        <time>2018-05-26T07:59:50.146Z</time>
      </trkpt>
      <trkpt lat="40.69611167" lon="-3.851075">
        <ele>944.0</ele>
        <time>2018-05-26T07:59:51.159Z</time>
      </trkpt>
      <trkpt lat="40.69611333" lon="-3.85112833">
        <ele>944.0</ele>
        <time>2018-05-26T07:59:52.171Z</time>
      </trkpt>
      <trkpt lat="40.69611333" lon="-3.85112833">
        <ele>944.0</ele>
        <time>2018-05-26T07:59:53.145Z</time>
      </trkpt>
      <trkpt lat="40.69611333" lon="-3.85123167">
        <ele>945.0</ele>
        <time>2018-05-26T07:59:54.165Z</time>
      </trkpt>
      <trkpt lat="40.696115" lon="-3.85128">
        <ele>945.0</ele>
        <time>2018-05-26T07:59:55.158Z</time>
      </trkpt>
      <trkpt lat="40.696115" lon="-3.85128">
        <ele>945.0</ele>
        <time>2018-05-26T07:59:56.174Z</time>
      </trkpt>
      <trkpt lat="40.69611667" lon="-3.85137833">
        <ele>945.0</ele>
        <time>2018-05-26T07:59:57.155Z</time>
      </trkpt>
      <trkpt lat="40.69611833" lon="-3.85142667">
        <ele>945.0</ele>
        <time>2018-05-26T07:59:58.168Z</time>
      </trkpt>
      <trkpt lat="40.69611833" lon="-3.85142667">
        <ele>945.0</ele>
        <time>2018-05-26T07:59:59.155Z</time>
      </trkpt>
      <trkpt lat="40.69612" lon="-3.85152333">
        <ele>946.0</ele>
        <time>2018-05-26T08:00:00.162Z</time>
      </trkpt>
      <trkpt lat="40.69612" lon="-3.85152333">
        <ele>946.0</ele>
        <time>2018-05-26T08:00:01.168Z</time>
      </trkpt>
      <trkpt lat="40.69611833" lon="-3.85162667">
        <ele>946.0</ele>
        <time>2018-05-26T08:00:02.139Z</time>
      </trkpt>
      <trkpt lat="40.69611833" lon="-3.85162667">
        <ele>946.0</ele>
        <time>2018-05-26T08:00:03.157Z</time>
      </trkpt>
      <trkpt lat="40.69612" lon="-3.85173833">
        <ele>946.0</ele>
        <time>2018-05-26T08:00:04.168Z</time>
      </trkpt>
      <trkpt lat="40.69612" lon="-3.85173833">
        <ele>946.0</ele>
        <time>2018-05-26T08:00:05.145Z</time>
      </trkpt>
      <trkpt lat="40.69612167" lon="-3.85185">
        <ele>946.0</ele>
        <time>2018-05-26T08:00:06.154Z</time>
      </trkpt>
      <trkpt lat="40.69612333" lon="-3.85190833">
        <ele>946.0</ele>
        <time>2018-05-26T08:00:07.174Z</time>
      </trkpt>
      <trkpt lat="40.69612333" lon="-3.85190833">
        <ele>946.0</ele>
        <time>2018-05-26T08:00:08.158Z</time>
      </trkpt>
      <trkpt lat="40.69612333" lon="-3.85202">
        <ele>946.0</ele>
        <time>2018-05-26T08:00:09.173Z</time>
      </trkpt>
      <trkpt lat="40.69612333" lon="-3.85202">
        <ele>946.0</ele>
        <time>2018-05-26T08:00:10.150Z</time>
      </trkpt>
      <trkpt lat="40.696125" lon="-3.85213167">
        <ele>947.0</ele>
        <time>2018-05-26T08:00:11.169Z</time>
      </trkpt>
      <trkpt lat="40.696125" lon="-3.85218667">
        <ele>947.0</ele>
        <time>2018-05-26T08:00:12.154Z</time>
      </trkpt>
      <trkpt lat="40.696125" lon="-3.85224167">
        <ele>947.0</ele>
        <time>2018-05-26T08:00:13.142Z</time>
      </trkpt>
      <trkpt lat="40.696125" lon="-3.85224167">
        <ele>947.0</ele>
        <time>2018-05-26T08:00:14.154Z</time>
      </trkpt>
      <trkpt lat="40.696125" lon="-3.852355">
        <ele>947.0</ele>
        <time>2018-05-26T08:00:15.169Z</time>
      </trkpt>
      <trkpt lat="40.696125" lon="-3.85241167">
        <ele>947.0</ele>
        <time>2018-05-26T08:00:16.161Z</time>
      </trkpt>
      <trkpt lat="40.69612333" lon="-3.85246667">
        <ele>947.0</ele>
        <time>2018-05-26T08:00:17.156Z</time>
      </trkpt>
      <trkpt lat="40.69612333" lon="-3.85246667">
        <ele>947.0</ele>
        <time>2018-05-26T08:00:18.136Z</time>
      </trkpt>
      <trkpt lat="40.69612167" lon="-3.85258">
        <ele>947.0</ele>
        <time>2018-05-26T08:00:19.171Z</time>
      </trkpt>
      <trkpt lat="40.69612167" lon="-3.85258">
        <ele>947.0</ele>
        <time>2018-05-26T08:00:20.163Z</time>
      </trkpt>
      <trkpt lat="40.69612333" lon="-3.85269333">
        <ele>948.0</ele>
        <time>2018-05-26T08:00:21.176Z</time>
      </trkpt>
      <trkpt lat="40.696125" lon="-3.85275167">
        <ele>948.0</ele>
        <time>2018-05-26T08:00:22.165Z</time>
      </trkpt>
      <trkpt lat="40.696125" lon="-3.85275167">
        <ele>948.0</ele>
        <time>2018-05-26T08:00:23.142Z</time>
      </trkpt>
      <trkpt lat="40.696125" lon="-3.85287">
        <ele>948.0</ele>
        <time>2018-05-26T08:00:24.149Z</time>
      </trkpt>
      <trkpt lat="40.696125" lon="-3.85287">
        <ele>948.0</ele>
        <time>2018-05-26T08:00:25.146Z</time>
      </trkpt>
      <trkpt lat="40.696125" lon="-3.85298667">
        <ele>948.0</ele>
        <time>2018-05-26T08:00:26.158Z</time>
      </trkpt>
      <trkpt lat="40.696125" lon="-3.85298667">
        <ele>948.0</ele>
        <time>2018-05-26T08:00:27.167Z</time>
      </trkpt>
      <trkpt lat="40.696125" lon="-3.85310333">
        <ele>948.0</ele>
        <time>2018-05-26T08:00:28.136Z</time>
      </trkpt>
      <trkpt lat="40.696125" lon="-3.85310333">
        <ele>948.0</ele>
        <time>2018-05-26T08:00:29.154Z</time>
      </trkpt>
      <trkpt lat="40.69612667" lon="-3.85322">
        <ele>948.0</ele>
        <time>2018-05-26T08:00:30.166Z</time>
      </trkpt>
      <trkpt lat="40.69612667" lon="-3.85322">
        <ele>948.0</ele>
        <time>2018-05-26T08:00:31.143Z</time>
      </trkpt>
      <trkpt lat="40.69612833" lon="-3.85333667">
        <ele>948.0</ele>
        <time>2018-05-26T08:00:32.158Z</time>
      </trkpt>
      <trkpt lat="40.69612833" lon="-3.85339667">
        <ele>948.0</ele>
        <time>2018-05-26T08:00:33.139Z</time>
      </trkpt>
      <trkpt lat="40.69612833" lon="-3.85339667">
        <ele>948.0</ele>
        <time>2018-05-26T08:00:34.162Z</time>
      </trkpt>
      <trkpt lat="40.69612833" lon="-3.85351333">
        <ele>948.0</ele>
        <time>2018-05-26T08:00:35.170Z</time>
      </trkpt>
      <trkpt lat="40.69612833" lon="-3.85351333">
        <ele>948.0</ele>
        <time>2018-05-26T08:00:36.147Z</time>
      </trkpt>
      <trkpt lat="40.69613" lon="-3.85363">
        <ele>948.0</ele>
        <time>2018-05-26T08:00:37.163Z</time>
      </trkpt>
      <trkpt lat="40.69613" lon="-3.85363">
        <ele>948.0</ele>
        <time>2018-05-26T08:00:38.144Z</time>
      </trkpt>
      <trkpt lat="40.69613167" lon="-3.85374833">
        <ele>949.0</ele>
        <time>2018-05-26T08:00:39.159Z</time>
      </trkpt>
      <trkpt lat="40.69613167" lon="-3.85380833">
        <ele>949.0</ele>
        <time>2018-05-26T08:00:40.141Z</time>
      </trkpt>
      <trkpt lat="40.69613167" lon="-3.85380833">
        <ele>949.0</ele>
        <time>2018-05-26T08:00:41.167Z</time>
      </trkpt>
      <trkpt lat="40.69613333" lon="-3.85392333">
        <ele>949.0</ele>
        <time>2018-05-26T08:00:42.174Z</time>
      </trkpt>
      <trkpt lat="40.696135" lon="-3.85398167">
        <ele>949.0</ele>
        <time>2018-05-26T08:00:43.154Z</time>
      </trkpt>
      <trkpt lat="40.69613667" lon="-3.85404">
        <ele>949.0</ele>
        <time>2018-05-26T08:00:44.173Z</time>
      </trkpt>
      <trkpt lat="40.69613667" lon="-3.85404">
        <ele>949.0</ele>
        <time>2018-05-26T08:00:45.150Z</time>
      </trkpt>
      <trkpt lat="40.69613833" lon="-3.854155">
        <ele>949.0</ele>
        <time>2018-05-26T08:00:46.163Z</time>
      </trkpt>
      <trkpt lat="40.69613833" lon="-3.854155">
        <ele>949.0</ele>
        <time>2018-05-26T08:00:47.142Z</time>
      </trkpt>
      <trkpt lat="40.69614" lon="-3.85427">
        <ele>950.0</ele>
        <time>2018-05-26T08:00:48.159Z</time>
      </trkpt>
      <trkpt lat="40.69614" lon="-3.85432667">
        <ele>950.0</ele>
        <time>2018-05-26T08:00:49.142Z</time>
      </trkpt>
      <trkpt lat="40.69614" lon="-3.85432667">
        <ele>950.0</ele>
        <time>2018-05-26T08:00:50.169Z</time>
      </trkpt>
      <trkpt lat="40.69614" lon="-3.85443833">
        <ele>950.0</ele>
        <time>2018-05-26T08:00:51.138Z</time>
      </trkpt>
      <trkpt lat="40.69614167" lon="-3.854495">
        <ele>950.0</ele>
        <time>2018-05-26T08:00:52.171Z</time>
      </trkpt>
      <trkpt lat="40.69614167" lon="-3.854495">
        <ele>950.0</ele>
        <time>2018-05-26T08:00:53.152Z</time>
      </trkpt>
      <trkpt lat="40.696145" lon="-3.85460667">
        <ele>951.0</ele>
        <time>2018-05-26T08:00:54.174Z</time>
      </trkpt>
      <trkpt lat="40.696145" lon="-3.85460667">
        <ele>951.0</ele>
        <time>2018-05-26T08:00:55.164Z</time>
      </trkpt>
      <trkpt lat="40.69614667" lon="-3.85471667">
        <ele>951.0</ele>
        <time>2018-05-26T08:00:56.136Z</time>
      </trkpt>
      <trkpt lat="40.69614833" lon="-3.85477">
        <ele>952.0</ele>
        <time>2018-05-26T08:00:57.164Z</time>
      </trkpt>
      <trkpt lat="40.69615" lon="-3.85482333">
        <ele>952.0</ele>
        <time>2018-05-26T08:00:58.166Z</time>
      </trkpt>
      <trkpt lat="40.69615" lon="-3.85482333">
        <ele>952.0</ele>
        <time>2018-05-26T08:00:59.159Z</time>
      </trkpt>
      <trkpt lat="40.69615167" lon="-3.85493167">
        <ele>953.0</ele>
        <time>2018-05-26T08:01:00.149Z</time>
      </trkpt>
      <trkpt lat="40.69615167" lon="-3.85493167">
        <ele>953.0</ele>
        <time>2018-05-26T08:01:01.162Z</time>
      </trkpt>
      <trkpt lat="40.69615" lon="-3.85504">
        <ele>953.0</ele>
        <time>2018-05-26T08:01:02.172Z</time>
      </trkpt>
      <trkpt lat="40.69615" lon="-3.85504">
        <ele>953.0</ele>
        <time>2018-05-26T08:01:03.149Z</time>
      </trkpt>
      <trkpt lat="40.69615167" lon="-3.85514167">
        <ele>953.0</ele>
        <time>2018-05-26T08:01:04.159Z</time>
      </trkpt>
      <trkpt lat="40.69615167" lon="-3.85514167">
        <ele>953.0</ele>
        <time>2018-05-26T08:01:05.175Z</time>
      </trkpt>
      <trkpt lat="40.69615667" lon="-3.85524667">
        <ele>954.0</ele>
        <time>2018-05-26T08:01:06.158Z</time>
      </trkpt>
      <trkpt lat="40.69615667" lon="-3.85524667">
        <ele>954.0</ele>
        <time>2018-05-26T08:01:07.174Z</time>
      </trkpt>
      <trkpt lat="40.69616667" lon="-3.85535167">
        <ele>954.0</ele>
        <time>2018-05-26T08:01:08.144Z</time>
      </trkpt>
      <trkpt lat="40.69616667" lon="-3.85535167">
        <ele>954.0</ele>
        <time>2018-05-26T08:01:09.158Z</time>
      </trkpt>
      <trkpt lat="40.69618167" lon="-3.855455">
        <ele>954.0</ele>
        <time>2018-05-26T08:01:10.167Z</time>
      </trkpt>
      <trkpt lat="40.69618167" lon="-3.855455">
        <ele>954.0</ele>
        <time>2018-05-26T08:01:11.148Z</time>
      </trkpt>
      <trkpt lat="40.69621" lon="-3.85555833">
        <ele>955.0</ele>
        <time>2018-05-26T08:01:12.170Z</time>
      </trkpt>
      <trkpt lat="40.69621" lon="-3.85555833">
        <ele>955.0</ele>
        <time>2018-05-26T08:01:13.159Z</time>
      </trkpt>
      <trkpt lat="40.69622833" lon="-3.85566667">
        <ele>955.0</ele>
        <time>2018-05-26T08:01:14.166Z</time>
      </trkpt>
      <trkpt lat="40.69622833" lon="-3.85566667">
        <ele>955.0</ele>
        <time>2018-05-26T08:01:15.152Z</time>
      </trkpt>
      <trkpt lat="40.69625333" lon="-3.85577167">
        <ele>955.0</ele>
        <time>2018-05-26T08:01:16.164Z</time>
      </trkpt>
      <trkpt lat="40.69625333" lon="-3.85577167">
        <ele>955.0</ele>
        <time>2018-05-26T08:01:17.151Z</time>
      </trkpt>
      <trkpt lat="40.69629" lon="-3.855865">
        <ele>956.0</ele>
        <time>2018-05-26T08:01:18.157Z</time>
      </trkpt>
      <trkpt lat="40.69629" lon="-3.855865">
        <ele>956.0</ele>
        <time>2018-05-26T08:01:19.172Z</time>
      </trkpt>
      <trkpt lat="40.69634" lon="-3.85595167">
        <ele>956.0</ele>
        <time>2018-05-26T08:01:20.155Z</time>
      </trkpt>
      <trkpt lat="40.69634" lon="-3.85595167">
        <ele>956.0</ele>
        <time>2018-05-26T08:01:21.152Z</time>
      </trkpt>
      <trkpt lat="40.69639833" lon="-3.85603333">
        <ele>957.0</ele>
        <time>2018-05-26T08:01:22.162Z</time>
      </trkpt>
      <trkpt lat="40.69639833" lon="-3.85603333">
        <ele>957.0</ele>
        <time>2018-05-26T08:01:23.142Z</time>
      </trkpt>
      <trkpt lat="40.69645667" lon="-3.85610833">
        <ele>958.0</ele>
        <time>2018-05-26T08:01:24.153Z</time>
      </trkpt>
      <trkpt lat="40.69645667" lon="-3.85610833">
        <ele>958.0</ele>
        <time>2018-05-26T08:01:25.170Z</time>
      </trkpt>
      <trkpt lat="40.69651333" lon="-3.85618333">
        <ele>958.0</ele>
        <time>2018-05-26T08:01:26.164Z</time>
      </trkpt>
      <trkpt lat="40.69651333" lon="-3.85618333">
        <ele>958.0</ele>
        <time>2018-05-26T08:01:27.170Z</time>
      </trkpt>
      <trkpt lat="40.69656167" lon="-3.85626833">
        <ele>958.0</ele>
        <time>2018-05-26T08:01:28.153Z</time>
      </trkpt>
      <trkpt lat="40.69656167" lon="-3.85626833">
        <ele>958.0</ele>
        <time>2018-05-26T08:01:29.174Z</time>
      </trkpt>
      <trkpt lat="40.69660833" lon="-3.85635167">
        <ele>959.0</ele>
        <time>2018-05-26T08:01:30.149Z</time>
      </trkpt>
      <trkpt lat="40.69660833" lon="-3.85635167">
        <ele>959.0</ele>
        <time>2018-05-26T08:01:31.164Z</time>
      </trkpt>
      <trkpt lat="40.69665667" lon="-3.85643833">
        <ele>959.0</ele>
        <time>2018-05-26T08:01:32.172Z</time>
      </trkpt>
      <trkpt lat="40.69665667" lon="-3.85643833">
        <ele>959.0</ele>
        <time>2018-05-26T08:01:33.148Z</time>
      </trkpt>
      <trkpt lat="40.69670167" lon="-3.85653">
        <ele>959.0</ele>
        <time>2018-05-26T08:01:34.152Z</time>
      </trkpt>
      <trkpt lat="40.69670167" lon="-3.85653">
        <ele>959.0</ele>
        <time>2018-05-26T08:01:35.162Z</time>
      </trkpt>
      <trkpt lat="40.69675" lon="-3.85661833">
        <ele>960.0</ele>
        <time>2018-05-26T08:01:36.136Z</time>
      </trkpt>
      <trkpt lat="40.69675" lon="-3.85661833">
        <ele>960.0</ele>
        <time>2018-05-26T08:01:37.164Z</time>
      </trkpt>
      <trkpt lat="40.69679833" lon="-3.85670833">
        <ele>960.0</ele>
        <time>2018-05-26T08:01:38.173Z</time>
      </trkpt>
      <trkpt lat="40.69679833" lon="-3.85670833">
        <ele>960.0</ele>
        <time>2018-05-26T08:01:39.153Z</time>
      </trkpt>
      <trkpt lat="40.69684667" lon="-3.85680167">
        <ele>960.0</ele>
        <time>2018-05-26T08:01:40.166Z</time>
      </trkpt>
      <trkpt lat="40.69684667" lon="-3.85680167">
        <ele>960.0</ele>
        <time>2018-05-26T08:01:41.143Z</time>
      </trkpt>
      <trkpt lat="40.69689833" lon="-3.856895">
        <ele>960.0</ele>
        <time>2018-05-26T08:01:42.159Z</time>
      </trkpt>
      <trkpt lat="40.69689833" lon="-3.856895">
        <ele>960.0</ele>
        <time>2018-05-26T08:01:43.146Z</time>
      </trkpt>
      <trkpt lat="40.69695333" lon="-3.85699">
        <ele>960.0</ele>
        <time>2018-05-26T08:01:44.165Z</time>
      </trkpt>
      <trkpt lat="40.69695333" lon="-3.85699">
        <ele>960.0</ele>
        <time>2018-05-26T08:01:45.174Z</time>
      </trkpt>
      <trkpt lat="40.69701" lon="-3.85709333">
        <ele>960.0</ele>
        <time>2018-05-26T08:01:46.150Z</time>
      </trkpt>
      <trkpt lat="40.69701" lon="-3.85709333">
        <ele>960.0</ele>
        <time>2018-05-26T08:01:47.172Z</time>
      </trkpt>
      <trkpt lat="40.69707" lon="-3.85719667">
        <ele>960.0</ele>
        <time>2018-05-26T08:01:48.139Z</time>
      </trkpt>
      <trkpt lat="40.69707" lon="-3.85719667">
        <ele>960.0</ele>
        <time>2018-05-26T08:01:49.155Z</time>
      </trkpt>
      <trkpt lat="40.69712833" lon="-3.85729833">
        <ele>961.0</ele>
        <time>2018-05-26T08:01:50.161Z</time>
      </trkpt>
      <trkpt lat="40.69712833" lon="-3.85729833">
        <ele>961.0</ele>
        <time>2018-05-26T08:01:51.152Z</time>
      </trkpt>
      <trkpt lat="40.69719" lon="-3.8574">
        <ele>961.0</ele>
        <time>2018-05-26T08:01:52.152Z</time>
      </trkpt>
      <trkpt lat="40.69719" lon="-3.8574">
        <ele>961.0</ele>
        <time>2018-05-26T08:01:53.167Z</time>
      </trkpt>
      <trkpt lat="40.69725333" lon="-3.857505">
        <ele>961.0</ele>
        <time>2018-05-26T08:01:54.136Z</time>
      </trkpt>
      <trkpt lat="40.69728667" lon="-3.85755833">
        <ele>961.0</ele>
        <time>2018-05-26T08:01:55.156Z</time>
      </trkpt>
      <trkpt lat="40.69728667" lon="-3.85755833">
        <ele>961.0</ele>
        <time>2018-05-26T08:01:56.146Z</time>
      </trkpt>
      <trkpt lat="40.697355" lon="-3.85766833">
        <ele>961.0</ele>
        <time>2018-05-26T08:01:57.164Z</time>
      </trkpt>
      <trkpt lat="40.69738833" lon="-3.85772">
        <ele>961.0</ele>
        <time>2018-05-26T08:01:58.146Z</time>
      </trkpt>
      <trkpt lat="40.69738833" lon="-3.85772">
        <ele>961.0</ele>
        <time>2018-05-26T08:01:59.159Z</time>
      </trkpt>
      <trkpt lat="40.69745167" lon="-3.85782333">
        <ele>961.0</ele>
        <time>2018-05-26T08:02:00.144Z</time>
      </trkpt>
      <trkpt lat="40.69745167" lon="-3.85782333">
        <ele>961.0</ele>
        <time>2018-05-26T08:02:01.166Z</time>
      </trkpt>
      <trkpt lat="40.697515" lon="-3.85793167">
        <ele>961.0</ele>
        <time>2018-05-26T08:02:02.175Z</time>
      </trkpt>
      <trkpt lat="40.697515" lon="-3.85793167">
        <ele>961.0</ele>
        <time>2018-05-26T08:02:03.151Z</time>
      </trkpt>
      <trkpt lat="40.697575" lon="-3.85804833">
        <ele>961.0</ele>
        <time>2018-05-26T08:02:04.169Z</time>
      </trkpt>
      <trkpt lat="40.697575" lon="-3.85804833">
        <ele>961.0</ele>
        <time>2018-05-26T08:02:05.154Z</time>
      </trkpt>
      <trkpt lat="40.69763833" lon="-3.858165">
        <ele>961.0</ele>
        <time>2018-05-26T08:02:06.165Z</time>
      </trkpt>
      <trkpt lat="40.69763833" lon="-3.858165">
        <ele>961.0</ele>
        <time>2018-05-26T08:02:07.142Z</time>
      </trkpt>
      <trkpt lat="40.69769333" lon="-3.85828833">
        <ele>962.0</ele>
        <time>2018-05-26T08:02:08.155Z</time>
      </trkpt>
      <trkpt lat="40.69769333" lon="-3.85828833">
        <ele>962.0</ele>
        <time>2018-05-26T08:02:09.148Z</time>
      </trkpt>
      <trkpt lat="40.69775333" lon="-3.85840667">
        <ele>961.0</ele>
        <time>2018-05-26T08:02:10.161Z</time>
      </trkpt>
      <trkpt lat="40.69775333" lon="-3.85840667">
        <ele>961.0</ele>
        <time>2018-05-26T08:02:11.153Z</time>
      </trkpt>
      <trkpt lat="40.697815" lon="-3.858535">
        <ele>962.0</ele>
        <time>2018-05-26T08:02:12.166Z</time>
      </trkpt>
      <trkpt lat="40.69784" lon="-3.85860333">
        <ele>962.0</ele>
        <time>2018-05-26T08:02:13.156Z</time>
      </trkpt>
      <trkpt lat="40.69784" lon="-3.85860333">
        <ele>962.0</ele>
        <time>2018-05-26T08:02:14.173Z</time>
      </trkpt>
      <trkpt lat="40.69789" lon="-3.858735">
        <ele>962.0</ele>
        <time>2018-05-26T08:02:15.145Z</time>
      </trkpt>
      <trkpt lat="40.69791667" lon="-3.8588">
        <ele>962.0</ele>
        <time>2018-05-26T08:02:16.178Z</time>
      </trkpt>
      <trkpt lat="40.69791667" lon="-3.8588">
        <ele>962.0</ele>
        <time>2018-05-26T08:02:17.159Z</time>
      </trkpt>
      <trkpt lat="40.69797" lon="-3.85893">
        <ele>962.0</ele>
        <time>2018-05-26T08:02:18.170Z</time>
      </trkpt>
      <trkpt lat="40.69797" lon="-3.85893">
        <ele>962.0</ele>
        <time>2018-05-26T08:02:19.159Z</time>
      </trkpt>
      <trkpt lat="40.69802" lon="-3.85906833">
        <ele>962.0</ele>
        <time>2018-05-26T08:02:20.166Z</time>
      </trkpt>
      <trkpt lat="40.69802" lon="-3.85906833">
        <ele>962.0</ele>
        <time>2018-05-26T08:02:21.154Z</time>
      </trkpt>
      <trkpt lat="40.69806667" lon="-3.859205">
        <ele>962.0</ele>
        <time>2018-05-26T08:02:22.169Z</time>
      </trkpt>
      <trkpt lat="40.69806667" lon="-3.859205">
        <ele>962.0</ele>
        <time>2018-05-26T08:02:23.142Z</time>
      </trkpt>
      <trkpt lat="40.69810667" lon="-3.85934">
        <ele>963.0</ele>
        <time>2018-05-26T08:02:24.151Z</time>
      </trkpt>
      <trkpt lat="40.69810667" lon="-3.85934">
        <ele>963.0</ele>
        <time>2018-05-26T08:02:25.150Z</time>
      </trkpt>
      <trkpt lat="40.69814" lon="-3.85947167">
        <ele>963.0</ele>
        <time>2018-05-26T08:02:26.162Z</time>
      </trkpt>
      <trkpt lat="40.69814" lon="-3.85947167">
        <ele>963.0</ele>
        <time>2018-05-26T08:02:27.158Z</time>
      </trkpt>
      <trkpt lat="40.69816333" lon="-3.85961">
        <ele>963.0</ele>
        <time>2018-05-26T08:02:28.168Z</time>
      </trkpt>
      <trkpt lat="40.69816333" lon="-3.85961">
        <ele>963.0</ele>
        <time>2018-05-26T08:02:29.146Z</time>
      </trkpt>
      <trkpt lat="40.69818667" lon="-3.85974667">
        <ele>964.0</ele>
        <time>2018-05-26T08:02:30.161Z</time>
      </trkpt>
      <trkpt lat="40.69818667" lon="-3.85974667">
        <ele>964.0</ele>
        <time>2018-05-26T08:02:31.146Z</time>
      </trkpt>
      <trkpt lat="40.69821333" lon="-3.85988">
        <ele>964.0</ele>
        <time>2018-05-26T08:02:32.161Z</time>
      </trkpt>
      <trkpt lat="40.69822333" lon="-3.85994833">
        <ele>964.0</ele>
        <time>2018-05-26T08:02:33.173Z</time>
      </trkpt>
      <trkpt lat="40.69823333" lon="-3.860015">
        <ele>964.0</ele>
        <time>2018-05-26T08:02:34.156Z</time>
      </trkpt>
      <trkpt lat="40.69823333" lon="-3.860015">
        <ele>964.0</ele>
        <time>2018-05-26T08:02:35.170Z</time>
      </trkpt>
      <trkpt lat="40.69825333" lon="-3.860145">
        <ele>965.0</ele>
        <time>2018-05-26T08:02:36.151Z</time>
      </trkpt>
      <trkpt lat="40.69825333" lon="-3.860145">
        <ele>965.0</ele>
        <time>2018-05-26T08:02:37.175Z</time>
      </trkpt>
      <trkpt lat="40.698265" lon="-3.86027">
        <ele>965.0</ele>
        <time>2018-05-26T08:02:38.149Z</time>
      </trkpt>
      <trkpt lat="40.698265" lon="-3.86027">
        <ele>965.0</ele>
        <time>2018-05-26T08:02:39.173Z</time>
      </trkpt>
      <trkpt lat="40.69827833" lon="-3.86039833">
        <ele>966.0</ele>
        <time>2018-05-26T08:02:40.147Z</time>
      </trkpt>
      <trkpt lat="40.69827833" lon="-3.86039833">
        <ele>966.0</ele>
        <time>2018-05-26T08:02:41.165Z</time>
      </trkpt>
      <trkpt lat="40.6983" lon="-3.86053">
        <ele>966.0</ele>
        <time>2018-05-26T08:02:42.175Z</time>
      </trkpt>
      <trkpt lat="40.6983" lon="-3.86053">
        <ele>966.0</ele>
        <time>2018-05-26T08:02:43.165Z</time>
      </trkpt>
      <trkpt lat="40.698325" lon="-3.86065333">
        <ele>966.0</ele>
        <time>2018-05-26T08:02:44.179Z</time>
      </trkpt>
      <trkpt lat="40.69833833" lon="-3.860715">
        <ele>966.0</ele>
        <time>2018-05-26T08:02:45.169Z</time>
      </trkpt>
      <trkpt lat="40.69833833" lon="-3.860715">
        <ele>966.0</ele>
        <time>2018-05-26T08:02:46.169Z</time>
      </trkpt>
      <trkpt lat="40.69836667" lon="-3.86084">
        <ele>967.0</ele>
        <time>2018-05-26T08:02:47.163Z</time>
      </trkpt>
      <trkpt lat="40.69837833" lon="-3.860905">
        <ele>967.0</ele>
        <time>2018-05-26T08:02:48.155Z</time>
      </trkpt>
      <trkpt lat="40.69837833" lon="-3.860905">
        <ele>967.0</ele>
        <time>2018-05-26T08:02:49.167Z</time>
      </trkpt>
      <trkpt lat="40.69840167" lon="-3.86103333">
        <ele>967.0</ele>
        <time>2018-05-26T08:02:50.141Z</time>
      </trkpt>
      <trkpt lat="40.69840167" lon="-3.86103333">
        <ele>967.0</ele>
        <time>2018-05-26T08:02:51.159Z</time>
      </trkpt>
      <trkpt lat="40.69842667" lon="-3.86116">
        <ele>967.0</ele>
        <time>2018-05-26T08:02:52.182Z</time>
      </trkpt>
      <trkpt lat="40.69842667" lon="-3.86116">
        <ele>967.0</ele>
        <time>2018-05-26T08:02:53.170Z</time>
      </trkpt>
      <trkpt lat="40.69846" lon="-3.86128667">
        <ele>967.0</ele>
        <time>2018-05-26T08:02:54.145Z</time>
      </trkpt>
      <trkpt lat="40.69846" lon="-3.86128667">
        <ele>967.0</ele>
        <time>2018-05-26T08:02:55.165Z</time>
      </trkpt>
      <trkpt lat="40.69849167" lon="-3.86141333">
        <ele>967.0</ele>
        <time>2018-05-26T08:02:56.174Z</time>
      </trkpt>
      <trkpt lat="40.69849167" lon="-3.86141333">
        <ele>967.0</ele>
        <time>2018-05-26T08:02:57.145Z</time>
      </trkpt>
      <trkpt lat="40.69852333" lon="-3.86154167">
        <ele>967.0</ele>
        <time>2018-05-26T08:02:58.166Z</time>
      </trkpt>
      <trkpt lat="40.69852333" lon="-3.86154167">
        <ele>967.0</ele>
        <time>2018-05-26T08:02:59.140Z</time>
      </trkpt>
      <trkpt lat="40.69856" lon="-3.86166167">
        <ele>968.0</ele>
        <time>2018-05-26T08:03:00.159Z</time>
      </trkpt>
      <trkpt lat="40.69858167" lon="-3.86171833">
        <ele>968.0</ele>
        <time>2018-05-26T08:03:01.151Z</time>
      </trkpt>
      <trkpt lat="40.69858167" lon="-3.86171833">
        <ele>968.0</ele>
        <time>2018-05-26T08:03:02.167Z</time>
      </trkpt>
      <trkpt lat="40.698625" lon="-3.86183833">
        <ele>968.0</ele>
        <time>2018-05-26T08:03:03.136Z</time>
      </trkpt>
      <trkpt lat="40.698625" lon="-3.86183833">
        <ele>968.0</ele>
        <time>2018-05-26T08:03:04.153Z</time>
      </trkpt>
      <trkpt lat="40.69867" lon="-3.86195833">
        <ele>969.0</ele>
        <time>2018-05-26T08:03:05.138Z</time>
      </trkpt>
      <trkpt lat="40.69867" lon="-3.86195833">
        <ele>969.0</ele>
        <time>2018-05-26T08:03:06.163Z</time>
      </trkpt>
      <trkpt lat="40.698715" lon="-3.862075">
        <ele>968.0</ele>
        <time>2018-05-26T08:03:07.138Z</time>
      </trkpt>
      <trkpt lat="40.69873667" lon="-3.862135">
        <ele>968.0</ele>
        <time>2018-05-26T08:03:08.165Z</time>
      </trkpt>
      <trkpt lat="40.69873667" lon="-3.862135">
        <ele>968.0</ele>
        <time>2018-05-26T08:03:09.144Z</time>
      </trkpt>
      <trkpt lat="40.69878" lon="-3.86225833">
        <ele>969.0</ele>
        <time>2018-05-26T08:03:10.160Z</time>
      </trkpt>
      <trkpt lat="40.69878" lon="-3.86225833">
        <ele>969.0</ele>
        <time>2018-05-26T08:03:11.154Z</time>
      </trkpt>
      <trkpt lat="40.69882167" lon="-3.86237833">
        <ele>969.0</ele>
        <time>2018-05-26T08:03:12.163Z</time>
      </trkpt>
      <trkpt lat="40.69884167" lon="-3.862435">
        <ele>969.0</ele>
        <time>2018-05-26T08:03:13.146Z</time>
      </trkpt>
      <trkpt lat="40.69884167" lon="-3.862435">
        <ele>969.0</ele>
        <time>2018-05-26T08:03:14.154Z</time>
      </trkpt>
      <trkpt lat="40.69888333" lon="-3.86255">
        <ele>969.0</ele>
        <time>2018-05-26T08:03:15.163Z</time>
      </trkpt>
      <trkpt lat="40.698905" lon="-3.86261167">
        <ele>969.0</ele>
        <time>2018-05-26T08:03:16.142Z</time>
      </trkpt>
      <trkpt lat="40.698905" lon="-3.86261167">
        <ele>969.0</ele>
        <time>2018-05-26T08:03:17.169Z</time>
      </trkpt>
      <trkpt lat="40.69894333" lon="-3.86273833">
        <ele>969.0</ele>
        <time>2018-05-26T08:03:18.136Z</time>
      </trkpt>
      <trkpt lat="40.69896333" lon="-3.86280167">
        <ele>969.0</ele>
        <time>2018-05-26T08:03:19.170Z</time>
      </trkpt>
      <trkpt lat="40.69896333" lon="-3.86280167">
        <ele>969.0</ele>
        <time>2018-05-26T08:03:20.154Z</time>
      </trkpt>
      <trkpt lat="40.699005" lon="-3.862925">
        <ele>970.0</ele>
        <time>2018-05-26T08:03:21.162Z</time>
      </trkpt>
      <trkpt lat="40.69902333" lon="-3.86298667">
        <ele>970.0</ele>
        <time>2018-05-26T08:03:22.166Z</time>
      </trkpt>
      <trkpt lat="40.69902333" lon="-3.86298667">
        <ele>970.0</ele>
        <time>2018-05-26T08:03:23.144Z</time>
      </trkpt>
      <trkpt lat="40.699065" lon="-3.86310833">
        <ele>970.0</ele>
        <time>2018-05-26T08:03:24.157Z</time>
      </trkpt>
      <trkpt lat="40.699085" lon="-3.86317">
        <ele>970.0</ele>
        <time>2018-05-26T08:03:25.173Z</time>
      </trkpt>
      <trkpt lat="40.699085" lon="-3.86317">
        <ele>970.0</ele>
        <time>2018-05-26T08:03:26.136Z</time>
      </trkpt>
      <trkpt lat="40.699125" lon="-3.863295">
        <ele>970.0</ele>
        <time>2018-05-26T08:03:27.155Z</time>
      </trkpt>
      <trkpt lat="40.699145" lon="-3.86335833">
        <ele>971.0</ele>
        <time>2018-05-26T08:03:28.142Z</time>
      </trkpt>
      <trkpt lat="40.69916667" lon="-3.86342167">
        <ele>971.0</ele>
        <time>2018-05-26T08:03:29.143Z</time>
      </trkpt>
      <trkpt lat="40.69916667" lon="-3.86342167">
        <ele>971.0</ele>
        <time>2018-05-26T08:03:30.159Z</time>
      </trkpt>
      <trkpt lat="40.69920833" lon="-3.86354667">
        <ele>971.0</ele>
        <time>2018-05-26T08:03:31.171Z</time>
      </trkpt>
      <trkpt lat="40.69920833" lon="-3.86354667">
        <ele>971.0</ele>
        <time>2018-05-26T08:03:32.154Z</time>
      </trkpt>
      <trkpt lat="40.69924833" lon="-3.863665">
        <ele>972.0</ele>
        <time>2018-05-26T08:03:33.168Z</time>
      </trkpt>
      <trkpt lat="40.69924833" lon="-3.863665">
        <ele>972.0</ele>
        <time>2018-05-26T08:03:34.159Z</time>
      </trkpt>
      <trkpt lat="40.69928667" lon="-3.86377">
        <ele>972.0</ele>
        <time>2018-05-26T08:03:35.170Z</time>
      </trkpt>
      <trkpt lat="40.69928667" lon="-3.86377">
        <ele>972.0</ele>
        <time>2018-05-26T08:03:36.155Z</time>
      </trkpt>
      <trkpt lat="40.69932167" lon="-3.86388">
        <ele>973.0</ele>
        <time>2018-05-26T08:03:37.158Z</time>
      </trkpt>
      <trkpt lat="40.69932167" lon="-3.86388">
        <ele>973.0</ele>
        <time>2018-05-26T08:03:38.150Z</time>
      </trkpt>
      <trkpt lat="40.69935333" lon="-3.86399667">
        <ele>973.0</ele>
        <time>2018-05-26T08:03:39.159Z</time>
      </trkpt>
      <trkpt lat="40.69935333" lon="-3.86399667">
        <ele>973.0</ele>
        <time>2018-05-26T08:03:40.144Z</time>
      </trkpt>
      <trkpt lat="40.69938333" lon="-3.86411">
        <ele>974.0</ele>
        <time>2018-05-26T08:03:41.154Z</time>
      </trkpt>
      <trkpt lat="40.699395" lon="-3.86417">
        <ele>974.0</ele>
        <time>2018-05-26T08:03:42.177Z</time>
      </trkpt>
      <trkpt lat="40.69940333" lon="-3.86422833">
        <ele>974.0</ele>
        <time>2018-05-26T08:03:43.157Z</time>
      </trkpt>
      <trkpt lat="40.69940333" lon="-3.86422833">
        <ele>974.0</ele>
        <time>2018-05-26T08:03:44.143Z</time>
      </trkpt>
      <trkpt lat="40.699425" lon="-3.86434333">
        <ele>974.0</ele>
        <time>2018-05-26T08:03:45.163Z</time>
      </trkpt>
      <trkpt lat="40.69943667" lon="-3.8644">
        <ele>975.0</ele>
        <time>2018-05-26T08:03:46.139Z</time>
      </trkpt>
      <trkpt lat="40.69943667" lon="-3.8644">
        <ele>975.0</ele>
        <time>2018-05-26T08:03:47.166Z</time>
      </trkpt>
      <trkpt lat="40.69946333" lon="-3.864515">
        <ele>975.0</ele>
        <time>2018-05-26T08:03:48.139Z</time>
      </trkpt>
      <trkpt lat="40.69947833" lon="-3.86457333">
        <ele>975.0</ele>
        <time>2018-05-26T08:03:49.171Z</time>
      </trkpt>
      <trkpt lat="40.69949167" lon="-3.86463">
        <ele>975.0</ele>
        <time>2018-05-26T08:03:50.172Z</time>
      </trkpt>
      <trkpt lat="40.69949167" lon="-3.86463">
        <ele>975.0</ele>
        <time>2018-05-26T08:03:51.148Z</time>
      </trkpt>
      <trkpt lat="40.69951667" lon="-3.86474167">
        <ele>975.0</ele>
        <time>2018-05-26T08:03:52.158Z</time>
      </trkpt>
      <trkpt lat="40.69951667" lon="-3.86474167">
        <ele>975.0</ele>
        <time>2018-05-26T08:03:53.143Z</time>
      </trkpt>
      <trkpt lat="40.69954167" lon="-3.86484167">
        <ele>976.0</ele>
        <time>2018-05-26T08:03:54.170Z</time>
      </trkpt>
      <trkpt lat="40.69955" lon="-3.86489">
        <ele>976.0</ele>
        <time>2018-05-26T08:03:55.165Z</time>
      </trkpt>
      <trkpt lat="40.69955" lon="-3.86489">
        <ele>976.0</ele>
        <time>2018-05-26T08:03:56.151Z</time>
      </trkpt>
      <trkpt lat="40.69956833" lon="-3.86499667">
        <ele>977.0</ele>
        <time>2018-05-26T08:03:57.165Z</time>
      </trkpt>
      <trkpt lat="40.69957833" lon="-3.86505333">
        <ele>977.0</ele>
        <time>2018-05-26T08:03:58.153Z</time>
      </trkpt>
      <trkpt lat="40.69957833" lon="-3.86505333">
        <ele>977.0</ele>
        <time>2018-05-26T08:03:59.172Z</time>
      </trkpt>
      <trkpt lat="40.69959333" lon="-3.865165">
        <ele>978.0</ele>
        <time>2018-05-26T08:04:00.146Z</time>
      </trkpt>
      <trkpt lat="40.69959667" lon="-3.86522333">
        <ele>978.0</ele>
        <time>2018-05-26T08:04:01.152Z</time>
      </trkpt>
      <trkpt lat="40.69959667" lon="-3.86522333">
        <ele>978.0</ele>
        <time>2018-05-26T08:04:02.164Z</time>
      </trkpt>
      <trkpt lat="40.699595" lon="-3.865335">
        <ele>979.0</ele>
        <time>2018-05-26T08:04:03.139Z</time>
      </trkpt>
      <trkpt lat="40.69959167" lon="-3.86539">
        <ele>979.0</ele>
        <time>2018-05-26T08:04:04.165Z</time>
      </trkpt>
      <trkpt lat="40.69959167" lon="-3.86539">
        <ele>979.0</ele>
        <time>2018-05-26T08:04:05.145Z</time>
      </trkpt>
      <trkpt lat="40.69958167" lon="-3.86550167">
        <ele>979.0</ele>
        <time>2018-05-26T08:04:06.161Z</time>
      </trkpt>
      <trkpt lat="40.69957333" lon="-3.86555667">
        <ele>979.0</ele>
        <time>2018-05-26T08:04:07.154Z</time>
      </trkpt>
      <trkpt lat="40.69957333" lon="-3.86555667">
        <ele>979.0</ele>
        <time>2018-05-26T08:04:08.138Z</time>
      </trkpt>
      <trkpt lat="40.69956167" lon="-3.865665">
        <ele>980.0</ele>
        <time>2018-05-26T08:04:09.146Z</time>
      </trkpt>
      <trkpt lat="40.69955833" lon="-3.86572">
        <ele>980.0</ele>
        <time>2018-05-26T08:04:10.165Z</time>
      </trkpt>
      <trkpt lat="40.69955833" lon="-3.86572">
        <ele>980.0</ele>
        <time>2018-05-26T08:04:11.153Z</time>
      </trkpt>
      <trkpt lat="40.69954333" lon="-3.86583">
        <ele>980.0</ele>
        <time>2018-05-26T08:04:12.163Z</time>
      </trkpt>
      <trkpt lat="40.699535" lon="-3.865885">
        <ele>980.0</ele>
        <time>2018-05-26T08:04:13.150Z</time>
      </trkpt>
      <trkpt lat="40.699535" lon="-3.865885">
        <ele>980.0</ele>
        <time>2018-05-26T08:04:14.170Z</time>
      </trkpt>
      <trkpt lat="40.69951667" lon="-3.86599667">
        <ele>980.0</ele>
        <time>2018-05-26T08:04:15.137Z</time>
      </trkpt>
      <trkpt lat="40.69950667" lon="-3.86605167">
        <ele>980.0</ele>
        <time>2018-05-26T08:04:16.161Z</time>
      </trkpt>
      <trkpt lat="40.69950667" lon="-3.86605167">
        <ele>980.0</ele>
        <time>2018-05-26T08:04:17.139Z</time>
      </trkpt>
      <trkpt lat="40.69948667" lon="-3.866165">
        <ele>981.0</ele>
        <time>2018-05-26T08:04:18.149Z</time>
      </trkpt>
      <trkpt lat="40.69948667" lon="-3.866165">
        <ele>981.0</ele>
        <time>2018-05-26T08:04:19.163Z</time>
      </trkpt>
      <trkpt lat="40.69946167" lon="-3.86627167">
        <ele>981.0</ele>
        <time>2018-05-26T08:04:20.176Z</time>
      </trkpt>
      <trkpt lat="40.69946167" lon="-3.86627167">
        <ele>981.0</ele>
        <time>2018-05-26T08:04:21.162Z</time>
      </trkpt>
      <trkpt lat="40.69943667" lon="-3.86637333">
        <ele>982.0</ele>
        <time>2018-05-26T08:04:22.173Z</time>
      </trkpt>
      <trkpt lat="40.69943667" lon="-3.86637333">
        <ele>982.0</ele>
        <time>2018-05-26T08:04:23.163Z</time>
      </trkpt>
      <trkpt lat="40.69940833" lon="-3.86647667">
        <ele>982.0</ele>
        <time>2018-05-26T08:04:24.172Z</time>
      </trkpt>
      <trkpt lat="40.69940833" lon="-3.86647667">
        <ele>982.0</ele>
        <time>2018-05-26T08:04:25.147Z</time>
      </trkpt>
      <trkpt lat="40.69937667" lon="-3.86658667">
        <ele>983.0</ele>
        <time>2018-05-26T08:04:26.145Z</time>
      </trkpt>
      <trkpt lat="40.69937667" lon="-3.86658667">
        <ele>983.0</ele>
        <time>2018-05-26T08:04:27.164Z</time>
      </trkpt>
      <trkpt lat="40.69934167" lon="-3.86669">
        <ele>983.0</ele>
        <time>2018-05-26T08:04:28.137Z</time>
      </trkpt>
      <trkpt lat="40.69934167" lon="-3.86669">
        <ele>983.0</ele>
        <time>2018-05-26T08:04:29.152Z</time>
      </trkpt>
      <trkpt lat="40.69930667" lon="-3.86679833">
        <ele>984.0</ele>
        <time>2018-05-26T08:04:30.166Z</time>
      </trkpt>
      <trkpt lat="40.69930667" lon="-3.86679833">
        <ele>984.0</ele>
        <time>2018-05-26T08:04:31.142Z</time>
      </trkpt>
      <trkpt lat="40.69927" lon="-3.866905">
        <ele>985.0</ele>
        <time>2018-05-26T08:04:32.151Z</time>
      </trkpt>
      <trkpt lat="40.69927" lon="-3.866905">
        <ele>985.0</ele>
        <time>2018-05-26T08:04:33.142Z</time>
      </trkpt>
      <trkpt lat="40.69923833" lon="-3.86701667">
        <ele>985.0</ele>
        <time>2018-05-26T08:04:34.152Z</time>
      </trkpt>
      <trkpt lat="40.69923833" lon="-3.86701667">
        <ele>985.0</ele>
        <time>2018-05-26T08:04:35.136Z</time>
      </trkpt>
      <trkpt lat="40.69920667" lon="-3.86712667">
        <ele>986.0</ele>
        <time>2018-05-26T08:04:36.136Z</time>
      </trkpt>
      <trkpt lat="40.69920667" lon="-3.86712667">
        <ele>986.0</ele>
        <time>2018-05-26T08:04:37.145Z</time>
      </trkpt>
      <trkpt lat="40.699175" lon="-3.86724">
        <ele>986.0</ele>
        <time>2018-05-26T08:04:38.153Z</time>
      </trkpt>
      <trkpt lat="40.69915833" lon="-3.86729667">
        <ele>986.0</ele>
        <time>2018-05-26T08:04:39.175Z</time>
      </trkpt>
      <trkpt lat="40.69914333" lon="-3.867355">
        <ele>987.0</ele>
        <time>2018-05-26T08:04:40.152Z</time>
      </trkpt>
      <trkpt lat="40.69914333" lon="-3.867355">
        <ele>987.0</ele>
        <time>2018-05-26T08:04:41.143Z</time>
      </trkpt>
      <trkpt lat="40.69911167" lon="-3.86746667">
        <ele>987.0</ele>
        <time>2018-05-26T08:04:42.160Z</time>
      </trkpt>
      <trkpt lat="40.69909667" lon="-3.86752">
        <ele>987.0</ele>
        <time>2018-05-26T08:04:43.156Z</time>
      </trkpt>
      <trkpt lat="40.69909667" lon="-3.86752">
        <ele>987.0</ele>
        <time>2018-05-26T08:04:44.167Z</time>
      </trkpt>
      <trkpt lat="40.69906667" lon="-3.86762833">
        <ele>988.0</ele>
        <time>2018-05-26T08:04:45.137Z</time>
      </trkpt>
      <trkpt lat="40.69905" lon="-3.86768">
        <ele>988.0</ele>
        <time>2018-05-26T08:04:46.160Z</time>
      </trkpt>
      <trkpt lat="40.69905" lon="-3.86768">
        <ele>988.0</ele>
        <time>2018-05-26T08:04:47.142Z</time>
      </trkpt>
      <trkpt lat="40.69902333" lon="-3.867785">
        <ele>988.0</ele>
        <time>2018-05-26T08:04:48.154Z</time>
      </trkpt>
      <trkpt lat="40.699005" lon="-3.86783667">
        <ele>988.0</ele>
        <time>2018-05-26T08:04:49.148Z</time>
      </trkpt>
      <trkpt lat="40.699005" lon="-3.86783667">
        <ele>988.0</ele>
        <time>2018-05-26T08:04:50.160Z</time>
      </trkpt>
      <trkpt lat="40.698965" lon="-3.86795333">
        <ele>989.0</ele>
        <time>2018-05-26T08:04:51.169Z</time>
      </trkpt>
      <trkpt lat="40.698945" lon="-3.86801333">
        <ele>989.0</ele>
        <time>2018-05-26T08:04:52.147Z</time>
      </trkpt>
      <trkpt lat="40.698945" lon="-3.86801333">
        <ele>989.0</ele>
        <time>2018-05-26T08:04:53.170Z</time>
      </trkpt>
      <trkpt lat="40.6989" lon="-3.86813">
        <ele>989.0</ele>
        <time>2018-05-26T08:04:54.138Z</time>
      </trkpt>
      <trkpt lat="40.6989" lon="-3.86813">
        <ele>989.0</ele>
        <time>2018-05-26T08:04:55.158Z</time>
      </trkpt>
      <trkpt lat="40.69884667" lon="-3.86823333">
        <ele>989.0</ele>
        <time>2018-05-26T08:04:56.173Z</time>
      </trkpt>
      <trkpt lat="40.69884667" lon="-3.86823333">
        <ele>989.0</ele>
        <time>2018-05-26T08:04:57.161Z</time>
      </trkpt>
      <trkpt lat="40.69878" lon="-3.86833333">
        <ele>989.0</ele>
        <time>2018-05-26T08:04:58.174Z</time>
      </trkpt>
      <trkpt lat="40.69878" lon="-3.86833333">
        <ele>989.0</ele>
        <time>2018-05-26T08:04:59.160Z</time>
      </trkpt>
      <trkpt lat="40.69869167" lon="-3.86842667">
        <ele>989.0</ele>
        <time>2018-05-26T08:05:00.160Z</time>
      </trkpt>
      <trkpt lat="40.69863833" lon="-3.86847167">
        <ele>989.0</ele>
        <time>2018-05-26T08:05:01.163Z</time>
      </trkpt>
      <trkpt lat="40.69863833" lon="-3.86847167">
        <ele>989.0</ele>
        <time>2018-05-26T08:05:02.142Z</time>
      </trkpt>
      <trkpt lat="40.69853667" lon="-3.86858">
        <ele>988.0</ele>
        <time>2018-05-26T08:05:03.158Z</time>
      </trkpt>
      <trkpt lat="40.69848833" lon="-3.86864667">
        <ele>988.0</ele>
        <time>2018-05-26T08:05:04.141Z</time>
      </trkpt>
      <trkpt lat="40.69848833" lon="-3.86864667">
        <ele>988.0</ele>
        <time>2018-05-26T08:05:05.164Z</time>
      </trkpt>
      <trkpt lat="40.69840333" lon="-3.86879833">
        <ele>988.0</ele>
        <time>2018-05-26T08:05:06.173Z</time>
      </trkpt>
      <trkpt lat="40.69840333" lon="-3.86879833">
        <ele>988.0</ele>
        <time>2018-05-26T08:05:07.166Z</time>
      </trkpt>
      <trkpt lat="40.69833667" lon="-3.86895333">
        <ele>987.0</ele>
        <time>2018-05-26T08:05:08.140Z</time>
      </trkpt>
      <trkpt lat="40.69833667" lon="-3.86895333">
        <ele>987.0</ele>
        <time>2018-05-26T08:05:09.163Z</time>
      </trkpt>
      <trkpt lat="40.69827667" lon="-3.869115">
        <ele>987.0</ele>
        <time>2018-05-26T08:05:10.170Z</time>
      </trkpt>
      <trkpt lat="40.69824833" lon="-3.86919333">
        <ele>987.0</ele>
        <time>2018-05-26T08:05:11.175Z</time>
      </trkpt>
      <trkpt lat="40.69824833" lon="-3.86919333">
        <ele>987.0</ele>
        <time>2018-05-26T08:05:12.149Z</time>
      </trkpt>
      <trkpt lat="40.69819667" lon="-3.86935333">
        <ele>987.0</ele>
        <time>2018-05-26T08:05:13.161Z</time>
      </trkpt>
      <trkpt lat="40.69817167" lon="-3.869435">
        <ele>987.0</ele>
        <time>2018-05-26T08:05:14.163Z</time>
      </trkpt>
      <trkpt lat="40.69817167" lon="-3.869435">
        <ele>987.0</ele>
        <time>2018-05-26T08:05:15.144Z</time>
      </trkpt>
      <trkpt lat="40.69812" lon="-3.86960167">
        <ele>987.0</ele>
        <time>2018-05-26T08:05:16.151Z</time>
      </trkpt>
      <trkpt lat="40.69812" lon="-3.86960167">
        <ele>987.0</ele>
        <time>2018-05-26T08:05:17.154Z</time>
      </trkpt>
      <trkpt lat="40.69806833" lon="-3.869775">
        <ele>987.0</ele>
        <time>2018-05-26T08:05:18.169Z</time>
      </trkpt>
      <trkpt lat="40.69806833" lon="-3.869775">
        <ele>987.0</ele>
        <time>2018-05-26T08:05:19.154Z</time>
      </trkpt>
      <trkpt lat="40.69801333" lon="-3.86995833">
        <ele>987.0</ele>
        <time>2018-05-26T08:05:20.163Z</time>
      </trkpt>
      <trkpt lat="40.697985" lon="-3.87004833">
        <ele>987.0</ele>
        <time>2018-05-26T08:05:21.142Z</time>
      </trkpt>
      <trkpt lat="40.69795833" lon="-3.870135">
        <ele>987.0</ele>
        <time>2018-05-26T08:05:22.165Z</time>
      </trkpt>
      <trkpt lat="40.69795833" lon="-3.870135">
        <ele>987.0</ele>
        <time>2018-05-26T08:05:23.151Z</time>
      </trkpt>
      <trkpt lat="40.6979" lon="-3.87029833">
        <ele>987.0</ele>
        <time>2018-05-26T08:05:24.165Z</time>
      </trkpt>
      <trkpt lat="40.69787333" lon="-3.87038">
        <ele>986.0</ele>
        <time>2018-05-26T08:05:25.157Z</time>
      </trkpt>
      <trkpt lat="40.69785333" lon="-3.87046">
        <ele>986.0</ele>
        <time>2018-05-26T08:05:26.162Z</time>
      </trkpt>
      <trkpt lat="40.69785333" lon="-3.87046">
        <ele>986.0</ele>
        <time>2018-05-26T08:05:27.156Z</time>
      </trkpt>
      <trkpt lat="40.69781167" lon="-3.870615">
        <ele>986.0</ele>
        <time>2018-05-26T08:05:28.166Z</time>
      </trkpt>
      <trkpt lat="40.69781167" lon="-3.870615">
        <ele>986.0</ele>
        <time>2018-05-26T08:05:29.145Z</time>
      </trkpt>
      <trkpt lat="40.69775833" lon="-3.87077167">
        <ele>986.0</ele>
        <time>2018-05-26T08:05:30.159Z</time>
      </trkpt>
      <trkpt lat="40.69775833" lon="-3.87077167">
        <ele>986.0</ele>
        <time>2018-05-26T08:05:31.174Z</time>
      </trkpt>
      <trkpt lat="40.69772667" lon="-3.87093833">
        <ele>986.0</ele>
        <time>2018-05-26T08:05:32.146Z</time>
      </trkpt>
      <trkpt lat="40.69772667" lon="-3.87093833">
        <ele>986.0</ele>
        <time>2018-05-26T08:05:33.164Z</time>
      </trkpt>
      <trkpt lat="40.69770333" lon="-3.8711">
        <ele>987.0</ele>
        <time>2018-05-26T08:05:34.174Z</time>
      </trkpt>
      <trkpt lat="40.69770333" lon="-3.8711">
        <ele>987.0</ele>
        <time>2018-05-26T08:05:35.166Z</time>
      </trkpt>
      <trkpt lat="40.69769" lon="-3.87124833">
        <ele>988.0</ele>
        <time>2018-05-26T08:05:36.173Z</time>
      </trkpt>
      <trkpt lat="40.69768667" lon="-3.87132">
        <ele>988.0</ele>
        <time>2018-05-26T08:05:37.143Z</time>
      </trkpt>
      <trkpt lat="40.69768667" lon="-3.87132">
        <ele>988.0</ele>
        <time>2018-05-26T08:05:38.164Z</time>
      </trkpt>
      <trkpt lat="40.69768667" lon="-3.87146667">
        <ele>988.0</ele>
        <time>2018-05-26T08:05:39.139Z</time>
      </trkpt>
      <trkpt lat="40.69769333" lon="-3.87153833">
        <ele>988.0</ele>
        <time>2018-05-26T08:05:40.166Z</time>
      </trkpt>
      <trkpt lat="40.69770167" lon="-3.87160667">
        <ele>988.0</ele>
        <time>2018-05-26T08:05:41.140Z</time>
      </trkpt>
      <trkpt lat="40.69770167" lon="-3.87160667">
        <ele>988.0</ele>
        <time>2018-05-26T08:05:42.155Z</time>
      </trkpt>
      <trkpt lat="40.69773333" lon="-3.87173167">
        <ele>989.0</ele>
        <time>2018-05-26T08:05:43.172Z</time>
      </trkpt>
      <trkpt lat="40.69773333" lon="-3.87173167">
        <ele>989.0</ele>
        <time>2018-05-26T08:05:44.144Z</time>
      </trkpt>
      <trkpt lat="40.69777167" lon="-3.87183667">
        <ele>990.0</ele>
        <time>2018-05-26T08:05:45.155Z</time>
      </trkpt>
      <trkpt lat="40.69777167" lon="-3.87183667">
        <ele>990.0</ele>
        <time>2018-05-26T08:05:46.174Z</time>
      </trkpt>
      <trkpt lat="40.69781333" lon="-3.87193">
        <ele>990.0</ele>
        <time>2018-05-26T08:05:47.143Z</time>
      </trkpt>
      <trkpt lat="40.69781333" lon="-3.87193">
        <ele>990.0</ele>
        <time>2018-05-26T08:05:48.157Z</time>
      </trkpt>
      <trkpt lat="40.697855" lon="-3.87201">
        <ele>991.0</ele>
        <time>2018-05-26T08:05:49.166Z</time>
      </trkpt>
      <trkpt lat="40.697855" lon="-3.87201">
        <ele>991.0</ele>
        <time>2018-05-26T08:05:50.144Z</time>
      </trkpt>
      <trkpt lat="40.69788833" lon="-3.872075">
        <ele>992.0</ele>
        <time>2018-05-26T08:05:51.155Z</time>
      </trkpt>
      <trkpt lat="40.69790667" lon="-3.87210333">
        <ele>993.0</ele>
        <time>2018-05-26T08:05:52.153Z</time>
      </trkpt>
      <trkpt lat="40.69790667" lon="-3.87210333">
        <ele>993.0</ele>
        <time>2018-05-26T08:05:53.169Z</time>
      </trkpt>
      <trkpt lat="40.697955" lon="-3.87214667">
        <ele>994.0</ele>
        <time>2018-05-26T08:05:54.139Z</time>
      </trkpt>
      <trkpt lat="40.697955" lon="-3.87214667">
        <ele>994.0</ele>
        <time>2018-05-26T08:05:55.157Z</time>
      </trkpt>
      <trkpt lat="40.69801333" lon="-3.872155">
        <ele>995.0</ele>
        <time>2018-05-26T08:05:56.159Z</time>
      </trkpt>
      <trkpt lat="40.69804333" lon="-3.87214167">
        <ele>995.0</ele>
        <time>2018-05-26T08:05:57.149Z</time>
      </trkpt>
      <trkpt lat="40.69807167" lon="-3.87211833">
        <ele>996.0</ele>
        <time>2018-05-26T08:05:58.174Z</time>
      </trkpt>
      <trkpt lat="40.69807167" lon="-3.87211833">
        <ele>996.0</ele>
        <time>2018-05-26T08:05:59.146Z</time>
      </trkpt>
      <trkpt lat="40.69813" lon="-3.87206">
        <ele>996.0</ele>
        <time>2018-05-26T08:06:00.152Z</time>
      </trkpt>
      <trkpt lat="40.69813" lon="-3.87206">
        <ele>996.0</ele>
        <time>2018-05-26T08:06:01.141Z</time>
      </trkpt>
      <trkpt lat="40.69819167" lon="-3.87200333">
        <ele>996.0</ele>
        <time>2018-05-26T08:06:02.154Z</time>
      </trkpt>
      <trkpt lat="40.69819167" lon="-3.87200333">
        <ele>996.0</ele>
        <time>2018-05-26T08:06:03.172Z</time>
      </trkpt>
      <trkpt lat="40.698245" lon="-3.87195167">
        <ele>997.0</ele>
        <time>2018-05-26T08:06:04.154Z</time>
      </trkpt>
      <trkpt lat="40.698245" lon="-3.87195167">
        <ele>997.0</ele>
        <time>2018-05-26T08:06:05.145Z</time>
      </trkpt>
      <trkpt lat="40.69829833" lon="-3.87190333">
        <ele>996.0</ele>
        <time>2018-05-26T08:06:06.164Z</time>
      </trkpt>
      <trkpt lat="40.69832667" lon="-3.871885">
        <ele>997.0</ele>
        <time>2018-05-26T08:06:07.165Z</time>
      </trkpt>
      <trkpt lat="40.69832667" lon="-3.871885">
        <ele>997.0</ele>
        <time>2018-05-26T08:06:08.143Z</time>
      </trkpt>
      <trkpt lat="40.698385" lon="-3.87185">
        <ele>997.0</ele>
        <time>2018-05-26T08:06:09.158Z</time>
      </trkpt>
      <trkpt lat="40.69841667" lon="-3.871835">
        <ele>997.0</ele>
        <time>2018-05-26T08:06:10.153Z</time>
      </trkpt>
      <trkpt lat="40.69841667" lon="-3.871835">
        <ele>997.0</ele>
        <time>2018-05-26T08:06:11.169Z</time>
      </trkpt>
      <trkpt lat="40.69848" lon="-3.87181">
        <ele>997.0</ele>
        <time>2018-05-26T08:06:12.137Z</time>
      </trkpt>
      <trkpt lat="40.69851333" lon="-3.87179833">
        <ele>998.0</ele>
        <time>2018-05-26T08:06:13.165Z</time>
      </trkpt>
      <trkpt lat="40.69851333" lon="-3.87179833">
        <ele>998.0</ele>
        <time>2018-05-26T08:06:14.145Z</time>
      </trkpt>
      <trkpt lat="40.69857667" lon="-3.87177167">
        <ele>998.0</ele>
        <time>2018-05-26T08:06:15.155Z</time>
      </trkpt>
      <trkpt lat="40.69861" lon="-3.87175833">
        <ele>998.0</ele>
        <time>2018-05-26T08:06:16.143Z</time>
      </trkpt>
      <trkpt lat="40.69861" lon="-3.87175833">
        <ele>998.0</ele>
        <time>2018-05-26T08:06:17.162Z</time>
      </trkpt>
      <trkpt lat="40.69867833" lon="-3.871725">
        <ele>999.0</ele>
        <time>2018-05-26T08:06:18.172Z</time>
      </trkpt>
      <trkpt lat="40.69867833" lon="-3.871725">
        <ele>999.0</ele>
        <time>2018-05-26T08:06:19.163Z</time>
      </trkpt>
      <trkpt lat="40.69874" lon="-3.871675">
        <ele>999.0</ele>
        <time>2018-05-26T08:06:20.176Z</time>
      </trkpt>
      <trkpt lat="40.69874" lon="-3.871675">
        <ele>999.0</ele>
        <time>2018-05-26T08:06:21.152Z</time>
      </trkpt>
      <trkpt lat="40.69880333" lon="-3.87162">
        <ele>999.0</ele>
        <time>2018-05-26T08:06:22.164Z</time>
      </trkpt>
      <trkpt lat="40.69880333" lon="-3.87162">
        <ele>999.0</ele>
        <time>2018-05-26T08:06:23.148Z</time>
      </trkpt>
      <trkpt lat="40.69886833" lon="-3.871565">
        <ele>999.0</ele>
        <time>2018-05-26T08:06:24.162Z</time>
      </trkpt>
      <trkpt lat="40.69886833" lon="-3.871565">
        <ele>999.0</ele>
        <time>2018-05-26T08:06:25.144Z</time>
      </trkpt>
      <trkpt lat="40.69893333" lon="-3.87150667">
        <ele>999.0</ele>
        <time>2018-05-26T08:06:26.165Z</time>
      </trkpt>
      <trkpt lat="40.69896333" lon="-3.871475">
        <ele>1000.0</ele>
        <time>2018-05-26T08:06:27.140Z</time>
      </trkpt>
      <trkpt lat="40.69896333" lon="-3.871475">
        <ele>1000.0</ele>
        <time>2018-05-26T08:06:28.171Z</time>
      </trkpt>
      <trkpt lat="40.699025" lon="-3.871415">
        <ele>1000.0</ele>
        <time>2018-05-26T08:06:29.146Z</time>
      </trkpt>
      <trkpt lat="40.69905833" lon="-3.87138333">
        <ele>1000.0</ele>
        <time>2018-05-26T08:06:30.177Z</time>
      </trkpt>
      <trkpt lat="40.69905833" lon="-3.87138333">
        <ele>1000.0</ele>
        <time>2018-05-26T08:06:31.166Z</time>
      </trkpt>
      <trkpt lat="40.699125" lon="-3.87132167">
        <ele>1000.0</ele>
        <time>2018-05-26T08:06:32.174Z</time>
      </trkpt>
      <trkpt lat="40.699125" lon="-3.87132167">
        <ele>1000.0</ele>
        <time>2018-05-26T08:06:33.164Z</time>
      </trkpt>
      <trkpt lat="40.69919" lon="-3.87125833">
        <ele>1000.0</ele>
        <time>2018-05-26T08:06:34.139Z</time>
      </trkpt>
      <trkpt lat="40.69919" lon="-3.87125833">
        <ele>1000.0</ele>
        <time>2018-05-26T08:06:35.169Z</time>
      </trkpt>
      <trkpt lat="40.699255" lon="-3.87119333">
        <ele>1000.0</ele>
        <time>2018-05-26T08:06:36.138Z</time>
      </trkpt>
      <trkpt lat="40.69928833" lon="-3.87116">
        <ele>1000.0</ele>
        <time>2018-05-26T08:06:37.164Z</time>
      </trkpt>
      <trkpt lat="40.69928833" lon="-3.87116">
        <ele>1000.0</ele>
        <time>2018-05-26T08:06:38.140Z</time>
      </trkpt>
      <trkpt lat="40.69935167" lon="-3.87108833">
        <ele>1001.0</ele>
        <time>2018-05-26T08:06:39.151Z</time>
      </trkpt>
      <trkpt lat="40.69938333" lon="-3.87105167">
        <ele>1001.0</ele>
        <time>2018-05-26T08:06:40.145Z</time>
      </trkpt>
      <trkpt lat="40.69938333" lon="-3.87105167">
        <ele>1001.0</ele>
        <time>2018-05-26T08:06:41.167Z</time>
      </trkpt>
      <trkpt lat="40.699445" lon="-3.870975">
        <ele>1001.0</ele>
        <time>2018-05-26T08:06:42.136Z</time>
      </trkpt>
      <trkpt lat="40.699445" lon="-3.870975">
        <ele>1001.0</ele>
        <time>2018-05-26T08:06:43.145Z</time>
      </trkpt>
      <trkpt lat="40.69951" lon="-3.8709">
        <ele>1002.0</ele>
        <time>2018-05-26T08:06:44.158Z</time>
      </trkpt>
      <trkpt lat="40.69954333" lon="-3.87086333">
        <ele>1002.0</ele>
        <time>2018-05-26T08:06:45.165Z</time>
      </trkpt>
      <trkpt lat="40.69958" lon="-3.87083">
        <ele>1002.0</ele>
        <time>2018-05-26T08:06:46.145Z</time>
      </trkpt>
      <trkpt lat="40.69958" lon="-3.87083">
        <ele>1002.0</ele>
        <time>2018-05-26T08:06:47.172Z</time>
      </trkpt>
      <trkpt lat="40.69965167" lon="-3.87077333">
        <ele>1002.0</ele>
        <time>2018-05-26T08:06:48.156Z</time>
      </trkpt>
      <trkpt lat="40.69965167" lon="-3.87077333">
        <ele>1002.0</ele>
        <time>2018-05-26T08:06:49.175Z</time>
      </trkpt>
      <trkpt lat="40.69972333" lon="-3.87071833">
        <ele>1002.0</ele>
        <time>2018-05-26T08:06:50.144Z</time>
      </trkpt>
      <trkpt lat="40.69972333" lon="-3.87071833">
        <ele>1002.0</ele>
        <time>2018-05-26T08:06:51.145Z</time>
      </trkpt>
      <trkpt lat="40.69979167" lon="-3.870665">
        <ele>1003.0</ele>
        <time>2018-05-26T08:06:52.159Z</time>
      </trkpt>
      <trkpt lat="40.69979167" lon="-3.870665">
        <ele>1003.0</ele>
        <time>2018-05-26T08:06:53.144Z</time>
      </trkpt>
      <trkpt lat="40.69985833" lon="-3.87061833">
        <ele>1003.0</ele>
        <time>2018-05-26T08:06:54.175Z</time>
      </trkpt>
      <trkpt lat="40.69985833" lon="-3.87061833">
        <ele>1003.0</ele>
        <time>2018-05-26T08:06:55.175Z</time>
      </trkpt>
      <trkpt lat="40.69992167" lon="-3.87057167">
        <ele>1003.0</ele>
        <time>2018-05-26T08:06:56.149Z</time>
      </trkpt>
      <trkpt lat="40.69992167" lon="-3.87057167">
        <ele>1003.0</ele>
        <time>2018-05-26T08:06:57.151Z</time>
      </trkpt>
      <trkpt lat="40.69997833" lon="-3.87052333">
        <ele>1004.0</ele>
        <time>2018-05-26T08:06:58.162Z</time>
      </trkpt>
      <trkpt lat="40.69997833" lon="-3.87052333">
        <ele>1004.0</ele>
        <time>2018-05-26T08:06:59.146Z</time>
      </trkpt>
      <trkpt lat="40.70004" lon="-3.870475">
        <ele>1004.0</ele>
        <time>2018-05-26T08:07:00.151Z</time>
      </trkpt>
      <trkpt lat="40.70004" lon="-3.870475">
        <ele>1004.0</ele>
        <time>2018-05-26T08:07:01.169Z</time>
      </trkpt>
      <trkpt lat="40.70010333" lon="-3.87042333">
        <ele>1005.0</ele>
        <time>2018-05-26T08:07:02.139Z</time>
      </trkpt>
      <trkpt lat="40.70010333" lon="-3.87042333">
        <ele>1005.0</ele>
        <time>2018-05-26T08:07:03.159Z</time>
      </trkpt>
      <trkpt lat="40.70017" lon="-3.87036833">
        <ele>1006.0</ele>
        <time>2018-05-26T08:07:04.172Z</time>
      </trkpt>
      <trkpt lat="40.70020667" lon="-3.87034333">
        <ele>1006.0</ele>
        <time>2018-05-26T08:07:05.154Z</time>
      </trkpt>
      <trkpt lat="40.70020667" lon="-3.87034333">
        <ele>1006.0</ele>
        <time>2018-05-26T08:07:06.170Z</time>
      </trkpt>
      <trkpt lat="40.70028167" lon="-3.870295">
        <ele>1007.0</ele>
        <time>2018-05-26T08:07:07.138Z</time>
      </trkpt>
      <trkpt lat="40.70028167" lon="-3.870295">
        <ele>1007.0</ele>
        <time>2018-05-26T08:07:08.148Z</time>
      </trkpt>
      <trkpt lat="40.70036333" lon="-3.87025">
        <ele>1007.0</ele>
        <time>2018-05-26T08:07:09.161Z</time>
      </trkpt>
      <trkpt lat="40.700405" lon="-3.87022833">
        <ele>1007.0</ele>
        <time>2018-05-26T08:07:10.155Z</time>
      </trkpt>
      <trkpt lat="40.700405" lon="-3.87022833">
        <ele>1007.0</ele>
        <time>2018-05-26T08:07:11.165Z</time>
      </trkpt>
      <trkpt lat="40.70049167" lon="-3.87019">
        <ele>1008.0</ele>
        <time>2018-05-26T08:07:12.174Z</time>
      </trkpt>
      <trkpt lat="40.70049167" lon="-3.87019">
        <ele>1008.0</ele>
        <time>2018-05-26T08:07:13.163Z</time>
      </trkpt>
      <trkpt lat="40.70058167" lon="-3.87015167">
        <ele>1008.0</ele>
        <time>2018-05-26T08:07:14.136Z</time>
      </trkpt>
      <trkpt lat="40.70062333" lon="-3.87013167">
        <ele>1008.0</ele>
        <time>2018-05-26T08:07:15.162Z</time>
      </trkpt>
      <trkpt lat="40.700665" lon="-3.87010833">
        <ele>1008.0</ele>
        <time>2018-05-26T08:07:16.160Z</time>
      </trkpt>
      <trkpt lat="40.700665" lon="-3.87010833">
        <ele>1008.0</ele>
        <time>2018-05-26T08:07:17.147Z</time>
      </trkpt>
      <trkpt lat="40.70074667" lon="-3.87004833">
        <ele>1009.0</ele>
        <time>2018-05-26T08:07:18.158Z</time>
      </trkpt>
      <trkpt lat="40.70074667" lon="-3.87004833">
        <ele>1009.0</ele>
        <time>2018-05-26T08:07:19.144Z</time>
      </trkpt>
      <trkpt lat="40.70084333" lon="-3.86998333">
        <ele>1008.0</ele>
        <time>2018-05-26T08:07:20.166Z</time>
      </trkpt>
      <trkpt lat="40.70084333" lon="-3.86998333">
        <ele>1008.0</ele>
        <time>2018-05-26T08:07:21.143Z</time>
      </trkpt>
      <trkpt lat="40.700945" lon="-3.86991167">
        <ele>1008.0</ele>
        <time>2018-05-26T08:07:22.151Z</time>
      </trkpt>
      <trkpt lat="40.700945" lon="-3.86991167">
        <ele>1008.0</ele>
        <time>2018-05-26T08:07:23.165Z</time>
      </trkpt>
      <trkpt lat="40.70104833" lon="-3.869845">
        <ele>1008.0</ele>
        <time>2018-05-26T08:07:24.137Z</time>
      </trkpt>
      <trkpt lat="40.70104833" lon="-3.869845">
        <ele>1008.0</ele>
        <time>2018-05-26T08:07:25.159Z</time>
      </trkpt>
      <trkpt lat="40.70115167" lon="-3.869775">
        <ele>1007.0</ele>
        <time>2018-05-26T08:07:26.154Z</time>
      </trkpt>
      <trkpt lat="40.70115167" lon="-3.869775">
        <ele>1007.0</ele>
        <time>2018-05-26T08:07:27.167Z</time>
      </trkpt>
      <trkpt lat="40.70125" lon="-3.869705">
        <ele>1007.0</ele>
        <time>2018-05-26T08:07:28.144Z</time>
      </trkpt>
      <trkpt lat="40.70125" lon="-3.869705">
        <ele>1007.0</ele>
        <time>2018-05-26T08:07:29.158Z</time>
      </trkpt>
      <trkpt lat="40.70135167" lon="-3.86964667">
        <ele>1007.0</ele>
        <time>2018-05-26T08:07:30.167Z</time>
      </trkpt>
      <trkpt lat="40.70140333" lon="-3.86961833">
        <ele>1007.0</ele>
        <time>2018-05-26T08:07:31.161Z</time>
      </trkpt>
      <trkpt lat="40.70140333" lon="-3.86961833">
        <ele>1007.0</ele>
        <time>2018-05-26T08:07:32.143Z</time>
      </trkpt>
      <trkpt lat="40.7015" lon="-3.86955833">
        <ele>1007.0</ele>
        <time>2018-05-26T08:07:33.155Z</time>
      </trkpt>
      <trkpt lat="40.70154667" lon="-3.869525">
        <ele>1007.0</ele>
        <time>2018-05-26T08:07:34.172Z</time>
      </trkpt>
      <trkpt lat="40.70154667" lon="-3.869525">
        <ele>1007.0</ele>
        <time>2018-05-26T08:07:35.173Z</time>
      </trkpt>
      <trkpt lat="40.70164167" lon="-3.86946667">
        <ele>1008.0</ele>
        <time>2018-05-26T08:07:36.146Z</time>
      </trkpt>
      <trkpt lat="40.70164167" lon="-3.86946667">
        <ele>1008.0</ele>
        <time>2018-05-26T08:07:37.172Z</time>
      </trkpt>
      <trkpt lat="40.70174667" lon="-3.86940333">
        <ele>1007.0</ele>
        <time>2018-05-26T08:07:38.151Z</time>
      </trkpt>
      <trkpt lat="40.70174667" lon="-3.86940333">
        <ele>1007.0</ele>
        <time>2018-05-26T08:07:39.166Z</time>
      </trkpt>
      <trkpt lat="40.70185333" lon="-3.86935833">
        <ele>1007.0</ele>
        <time>2018-05-26T08:07:40.136Z</time>
      </trkpt>
      <trkpt lat="40.70185333" lon="-3.86935833">
        <ele>1007.0</ele>
        <time>2018-05-26T08:07:41.154Z</time>
      </trkpt>
      <trkpt lat="40.70196333" lon="-3.86932833">
        <ele>1008.0</ele>
        <time>2018-05-26T08:07:42.172Z</time>
      </trkpt>
      <trkpt lat="40.70196333" lon="-3.86932833">
        <ele>1008.0</ele>
        <time>2018-05-26T08:07:43.158Z</time>
      </trkpt>
      <trkpt lat="40.70207" lon="-3.869315">
        <ele>1008.0</ele>
        <time>2018-05-26T08:07:44.168Z</time>
      </trkpt>
      <trkpt lat="40.70207" lon="-3.869315">
        <ele>1008.0</ele>
        <time>2018-05-26T08:07:45.161Z</time>
      </trkpt>
      <trkpt lat="40.70217667" lon="-3.86930333">
        <ele>1008.0</ele>
        <time>2018-05-26T08:07:46.170Z</time>
      </trkpt>
      <trkpt lat="40.70217667" lon="-3.86930333">
        <ele>1008.0</ele>
        <time>2018-05-26T08:07:47.151Z</time>
      </trkpt>
      <trkpt lat="40.702285" lon="-3.869275">
        <ele>1008.0</ele>
        <time>2018-05-26T08:07:48.163Z</time>
      </trkpt>
      <trkpt lat="40.70234167" lon="-3.86926167">
        <ele>1008.0</ele>
        <time>2018-05-26T08:07:49.155Z</time>
      </trkpt>
      <trkpt lat="40.70234167" lon="-3.86926167">
        <ele>1008.0</ele>
        <time>2018-05-26T08:07:50.146Z</time>
      </trkpt>
      <trkpt lat="40.70245667" lon="-3.86922167">
        <ele>1007.0</ele>
        <time>2018-05-26T08:07:51.163Z</time>
      </trkpt>
      <trkpt lat="40.702515" lon="-3.86920333">
        <ele>1007.0</ele>
        <time>2018-05-26T08:07:52.162Z</time>
      </trkpt>
      <trkpt lat="40.702515" lon="-3.86920333">
        <ele>1007.0</ele>
        <time>2018-05-26T08:07:53.136Z</time>
      </trkpt>
      <trkpt lat="40.70264167" lon="-3.86917167">
        <ele>1007.0</ele>
        <time>2018-05-26T08:07:54.148Z</time>
      </trkpt>
      <trkpt lat="40.70264167" lon="-3.86917167">
        <ele>1007.0</ele>
        <time>2018-05-26T08:07:55.167Z</time>
      </trkpt>
      <trkpt lat="40.70278667" lon="-3.86915833">
        <ele>1006.0</ele>
        <time>2018-05-26T08:07:56.138Z</time>
      </trkpt>
      <trkpt lat="40.70278667" lon="-3.86915833">
        <ele>1006.0</ele>
        <time>2018-05-26T08:07:57.167Z</time>
      </trkpt>
      <trkpt lat="40.702945" lon="-3.86917167">
        <ele>1004.0</ele>
        <time>2018-05-26T08:07:58.140Z</time>
      </trkpt>
      <trkpt lat="40.702945" lon="-3.86917167">
        <ele>1004.0</ele>
        <time>2018-05-26T08:07:59.156Z</time>
      </trkpt>
      <trkpt lat="40.70311667" lon="-3.869205">
        <ele>1002.0</ele>
        <time>2018-05-26T08:08:00.148Z</time>
      </trkpt>
      <trkpt lat="40.70311667" lon="-3.869205">
        <ele>1002.0</ele>
        <time>2018-05-26T08:08:01.136Z</time>
      </trkpt>
      <trkpt lat="40.7033" lon="-3.86925833">
        <ele>1001.0</ele>
        <time>2018-05-26T08:08:02.151Z</time>
      </trkpt>
      <trkpt lat="40.7033" lon="-3.86925833">
        <ele>1001.0</ele>
        <time>2018-05-26T08:08:03.145Z</time>
      </trkpt>
      <trkpt lat="40.70350333" lon="-3.86929">
        <ele>999.0</ele>
        <time>2018-05-26T08:08:04.160Z</time>
      </trkpt>
      <trkpt lat="40.70350333" lon="-3.86929">
        <ele>999.0</ele>
        <time>2018-05-26T08:08:05.149Z</time>
      </trkpt>
      <trkpt lat="40.70372" lon="-3.869265">
        <ele>998.0</ele>
        <time>2018-05-26T08:08:06.162Z</time>
      </trkpt>
      <trkpt lat="40.70372" lon="-3.869265">
        <ele>998.0</ele>
        <time>2018-05-26T08:08:07.136Z</time>
      </trkpt>
      <trkpt lat="40.70394167" lon="-3.86921167">
        <ele>996.0</ele>
        <time>2018-05-26T08:08:08.144Z</time>
      </trkpt>
      <trkpt lat="40.70394167" lon="-3.86921167">
        <ele>996.0</ele>
        <time>2018-05-26T08:08:09.167Z</time>
      </trkpt>
      <trkpt lat="40.70417" lon="-3.86917167">
        <ele>995.0</ele>
        <time>2018-05-26T08:08:10.144Z</time>
      </trkpt>
      <trkpt lat="40.70417" lon="-3.86917167">
        <ele>995.0</ele>
        <time>2018-05-26T08:08:11.170Z</time>
      </trkpt>
      <trkpt lat="40.70440833" lon="-3.86915167">
        <ele>994.0</ele>
        <time>2018-05-26T08:08:12.143Z</time>
      </trkpt>
      <trkpt lat="40.70440833" lon="-3.86915167">
        <ele>994.0</ele>
        <time>2018-05-26T08:08:13.159Z</time>
      </trkpt>
      <trkpt lat="40.70463667" lon="-3.86914833">
        <ele>993.0</ele>
        <time>2018-05-26T08:08:14.171Z</time>
      </trkpt>
      <trkpt lat="40.70463667" lon="-3.86914833">
        <ele>993.0</ele>
        <time>2018-05-26T08:08:15.146Z</time>
      </trkpt>
      <trkpt lat="40.70484833" lon="-3.86916833">
        <ele>993.0</ele>
        <time>2018-05-26T08:08:16.166Z</time>
      </trkpt>
      <trkpt lat="40.70484833" lon="-3.86916833">
        <ele>993.0</ele>
        <time>2018-05-26T08:08:17.136Z</time>
      </trkpt>
      <trkpt lat="40.70503833" lon="-3.86919833">
        <ele>992.0</ele>
        <time>2018-05-26T08:08:18.149Z</time>
      </trkpt>
      <trkpt lat="40.70503833" lon="-3.86919833">
        <ele>992.0</ele>
        <time>2018-05-26T08:08:19.162Z</time>
      </trkpt>
      <trkpt lat="40.70519833" lon="-3.869265">
        <ele>992.0</ele>
        <time>2018-05-26T08:08:20.162Z</time>
      </trkpt>
      <trkpt lat="40.70527333" lon="-3.869325">
        <ele>991.0</ele>
        <time>2018-05-26T08:08:21.142Z</time>
      </trkpt>
      <trkpt lat="40.70527333" lon="-3.869325">
        <ele>991.0</ele>
        <time>2018-05-26T08:08:22.162Z</time>
      </trkpt>
      <trkpt lat="40.70540333" lon="-3.86947833">
        <ele>990.0</ele>
        <time>2018-05-26T08:08:23.175Z</time>
      </trkpt>
      <trkpt lat="40.70540333" lon="-3.86947833">
        <ele>990.0</ele>
        <time>2018-05-26T08:08:24.147Z</time>
      </trkpt>
      <trkpt lat="40.70553" lon="-3.86966333">
        <ele>989.0</ele>
        <time>2018-05-26T08:08:25.158Z</time>
      </trkpt>
      <trkpt lat="40.70553" lon="-3.86966333">
        <ele>989.0</ele>
        <time>2018-05-26T08:08:26.144Z</time>
      </trkpt>
      <trkpt lat="40.705645" lon="-3.86985667">
        <ele>988.0</ele>
        <time>2018-05-26T08:08:27.166Z</time>
      </trkpt>
      <trkpt lat="40.70568833" lon="-3.86996167">
        <ele>987.0</ele>
        <time>2018-05-26T08:08:28.165Z</time>
      </trkpt>
      <trkpt lat="40.70573167" lon="-3.87005833">
        <ele>987.0</ele>
        <time>2018-05-26T08:08:29.166Z</time>
      </trkpt>
      <trkpt lat="40.70573167" lon="-3.87005833">
        <ele>987.0</ele>
        <time>2018-05-26T08:08:30.144Z</time>
      </trkpt>
      <trkpt lat="40.70583333" lon="-3.87023667">
        <ele>986.0</ele>
        <time>2018-05-26T08:08:31.155Z</time>
      </trkpt>
      <trkpt lat="40.70583333" lon="-3.87023667">
        <ele>986.0</ele>
        <time>2018-05-26T08:08:32.145Z</time>
      </trkpt>
      <trkpt lat="40.70595167" lon="-3.87039">
        <ele>986.0</ele>
        <time>2018-05-26T08:08:33.158Z</time>
      </trkpt>
      <trkpt lat="40.70595167" lon="-3.87039">
        <ele>986.0</ele>
        <time>2018-05-26T08:08:34.142Z</time>
      </trkpt>
      <trkpt lat="40.70608167" lon="-3.87051333">
        <ele>986.0</ele>
        <time>2018-05-26T08:08:35.151Z</time>
      </trkpt>
      <trkpt lat="40.70608167" lon="-3.87051333">
        <ele>986.0</ele>
        <time>2018-05-26T08:08:36.175Z</time>
      </trkpt>
      <trkpt lat="40.70624167" lon="-3.87063333">
        <ele>985.0</ele>
        <time>2018-05-26T08:08:37.143Z</time>
      </trkpt>
      <trkpt lat="40.70631167" lon="-3.8707">
        <ele>985.0</ele>
        <time>2018-05-26T08:08:38.138Z</time>
      </trkpt>
      <trkpt lat="40.70631167" lon="-3.8707">
        <ele>985.0</ele>
        <time>2018-05-26T08:08:39.157Z</time>
      </trkpt>
      <trkpt lat="40.70644333" lon="-3.87084167">
        <ele>985.0</ele>
        <time>2018-05-26T08:08:40.137Z</time>
      </trkpt>
      <trkpt lat="40.70644333" lon="-3.87084167">
        <ele>985.0</ele>
        <time>2018-05-26T08:08:41.153Z</time>
      </trkpt>
      <trkpt lat="40.70658167" lon="-3.87096667">
        <ele>985.0</ele>
        <time>2018-05-26T08:08:42.164Z</time>
      </trkpt>
      <trkpt lat="40.70658167" lon="-3.87096667">
        <ele>985.0</ele>
        <time>2018-05-26T08:08:43.137Z</time>
      </trkpt>
      <trkpt lat="40.70669833" lon="-3.87109333">
        <ele>984.0</ele>
        <time>2018-05-26T08:08:44.150Z</time>
      </trkpt>
      <trkpt lat="40.70669833" lon="-3.87109333">
        <ele>984.0</ele>
        <time>2018-05-26T08:08:45.172Z</time>
      </trkpt>
      <trkpt lat="40.70677833" lon="-3.87122667">
        <ele>984.0</ele>
        <time>2018-05-26T08:08:46.140Z</time>
      </trkpt>
      <trkpt lat="40.70677833" lon="-3.87122667">
        <ele>984.0</ele>
        <time>2018-05-26T08:08:47.166Z</time>
      </trkpt>
      <trkpt lat="40.70686333" lon="-3.87133333">
        <ele>985.0</ele>
        <time>2018-05-26T08:08:48.137Z</time>
      </trkpt>
      <trkpt lat="40.70690833" lon="-3.87137667">
        <ele>985.0</ele>
        <time>2018-05-26T08:08:49.169Z</time>
      </trkpt>
      <trkpt lat="40.70690833" lon="-3.87137667">
        <ele>985.0</ele>
        <time>2018-05-26T08:08:50.148Z</time>
      </trkpt>
      <trkpt lat="40.70698" lon="-3.87148">
        <ele>985.0</ele>
        <time>2018-05-26T08:08:51.174Z</time>
      </trkpt>
      <trkpt lat="40.707005" lon="-3.87153833">
        <ele>985.0</ele>
        <time>2018-05-26T08:08:52.154Z</time>
      </trkpt>
      <trkpt lat="40.707005" lon="-3.87153833">
        <ele>985.0</ele>
        <time>2018-05-26T08:08:53.170Z</time>
      </trkpt>
      <trkpt lat="40.70704333" lon="-3.871655">
        <ele>985.0</ele>
        <time>2018-05-26T08:08:54.143Z</time>
      </trkpt>
      <trkpt lat="40.70704333" lon="-3.871655">
        <ele>985.0</ele>
        <time>2018-05-26T08:08:55.169Z</time>
      </trkpt>
      <trkpt lat="40.70706333" lon="-3.87178167">
        <ele>986.0</ele>
        <time>2018-05-26T08:08:56.142Z</time>
      </trkpt>
      <trkpt lat="40.70706333" lon="-3.87178167">
        <ele>986.0</ele>
        <time>2018-05-26T08:08:57.166Z</time>
      </trkpt>
      <trkpt lat="40.70708667" lon="-3.871925">
        <ele>986.0</ele>
        <time>2018-05-26T08:08:58.161Z</time>
      </trkpt>
      <trkpt lat="40.70708667" lon="-3.871925">
        <ele>986.0</ele>
        <time>2018-05-26T08:08:59.150Z</time>
      </trkpt>
      <trkpt lat="40.70710833" lon="-3.87205667">
        <ele>987.0</ele>
        <time>2018-05-26T08:09:00.156Z</time>
      </trkpt>
      <trkpt lat="40.70710833" lon="-3.87205667">
        <ele>987.0</ele>
        <time>2018-05-26T08:09:01.150Z</time>
      </trkpt>
      <trkpt lat="40.70713167" lon="-3.87219167">
        <ele>987.0</ele>
        <time>2018-05-26T08:09:02.169Z</time>
      </trkpt>
      <trkpt lat="40.70715167" lon="-3.87225667">
        <ele>987.0</ele>
        <time>2018-05-26T08:09:03.148Z</time>
      </trkpt>
      <trkpt lat="40.70717833" lon="-3.87232167">
        <ele>986.0</ele>
        <time>2018-05-26T08:09:04.172Z</time>
      </trkpt>
      <trkpt lat="40.70717833" lon="-3.87232167">
        <ele>986.0</ele>
        <time>2018-05-26T08:09:05.161Z</time>
      </trkpt>
      <trkpt lat="40.70723667" lon="-3.87245667">
        <ele>986.0</ele>
        <time>2018-05-26T08:09:06.137Z</time>
      </trkpt>
      <trkpt lat="40.70723667" lon="-3.87245667">
        <ele>986.0</ele>
        <time>2018-05-26T08:09:07.151Z</time>
      </trkpt>
      <trkpt lat="40.70729333" lon="-3.87260833">
        <ele>985.0</ele>
        <time>2018-05-26T08:09:08.167Z</time>
      </trkpt>
      <trkpt lat="40.70729333" lon="-3.87260833">
        <ele>985.0</ele>
        <time>2018-05-26T08:09:09.147Z</time>
      </trkpt>
      <trkpt lat="40.707365" lon="-3.87275333">
        <ele>985.0</ele>
        <time>2018-05-26T08:09:10.147Z</time>
      </trkpt>
      <trkpt lat="40.707365" lon="-3.87275333">
        <ele>985.0</ele>
        <time>2018-05-26T08:09:11.161Z</time>
      </trkpt>
      <trkpt lat="40.70745333" lon="-3.87289167">
        <ele>986.0</ele>
        <time>2018-05-26T08:09:12.138Z</time>
      </trkpt>
      <trkpt lat="40.70745333" lon="-3.87289167">
        <ele>986.0</ele>
        <time>2018-05-26T08:09:13.141Z</time>
      </trkpt>
      <trkpt lat="40.70754333" lon="-3.873035">
        <ele>986.0</ele>
        <time>2018-05-26T08:09:14.167Z</time>
      </trkpt>
      <trkpt lat="40.70754333" lon="-3.873035">
        <ele>986.0</ele>
        <time>2018-05-26T08:09:15.149Z</time>
      </trkpt>
      <trkpt lat="40.70762167" lon="-3.87319667">
        <ele>986.0</ele>
        <time>2018-05-26T08:09:16.172Z</time>
      </trkpt>
      <trkpt lat="40.70762167" lon="-3.87319667">
        <ele>986.0</ele>
        <time>2018-05-26T08:09:17.148Z</time>
      </trkpt>
      <trkpt lat="40.70769333" lon="-3.87337">
        <ele>985.0</ele>
        <time>2018-05-26T08:09:18.160Z</time>
      </trkpt>
      <trkpt lat="40.70773333" lon="-3.873455">
        <ele>984.0</ele>
        <time>2018-05-26T08:09:19.146Z</time>
      </trkpt>
      <trkpt lat="40.70773333" lon="-3.873455">
        <ele>984.0</ele>
        <time>2018-05-26T08:09:20.171Z</time>
      </trkpt>
      <trkpt lat="40.70782333" lon="-3.87361">
        <ele>984.0</ele>
        <time>2018-05-26T08:09:21.141Z</time>
      </trkpt>
      <trkpt lat="40.707875" lon="-3.87367833">
        <ele>984.0</ele>
        <time>2018-05-26T08:09:22.158Z</time>
      </trkpt>
      <trkpt lat="40.707875" lon="-3.87367833">
        <ele>984.0</ele>
        <time>2018-05-26T08:09:23.143Z</time>
      </trkpt>
      <trkpt lat="40.70797333" lon="-3.87381167">
        <ele>984.0</ele>
        <time>2018-05-26T08:09:24.153Z</time>
      </trkpt>
      <trkpt lat="40.70802167" lon="-3.87387333">
        <ele>983.0</ele>
        <time>2018-05-26T08:09:25.148Z</time>
      </trkpt>
      <trkpt lat="40.70802167" lon="-3.87387333">
        <ele>983.0</ele>
        <time>2018-05-26T08:09:26.171Z</time>
      </trkpt>
      <trkpt lat="40.70814" lon="-3.87398">
        <ele>983.0</ele>
        <time>2018-05-26T08:09:27.142Z</time>
      </trkpt>
      <trkpt lat="40.70819667" lon="-3.87403333">
        <ele>983.0</ele>
        <time>2018-05-26T08:09:28.175Z</time>
      </trkpt>
      <trkpt lat="40.70819667" lon="-3.87403333">
        <ele>983.0</ele>
        <time>2018-05-26T08:09:29.157Z</time>
      </trkpt>
      <trkpt lat="40.70832" lon="-3.87416167">
        <ele>983.0</ele>
        <time>2018-05-26T08:09:30.168Z</time>
      </trkpt>
      <trkpt lat="40.70832" lon="-3.87416167">
        <ele>983.0</ele>
        <time>2018-05-26T08:09:31.162Z</time>
      </trkpt>
      <trkpt lat="40.70843833" lon="-3.87429833">
        <ele>983.0</ele>
        <time>2018-05-26T08:09:32.172Z</time>
      </trkpt>
      <trkpt lat="40.70843833" lon="-3.87429833">
        <ele>983.0</ele>
        <time>2018-05-26T08:09:33.149Z</time>
      </trkpt>
      <trkpt lat="40.708555" lon="-3.87446">
        <ele>983.0</ele>
        <time>2018-05-26T08:09:34.160Z</time>
      </trkpt>
      <trkpt lat="40.708555" lon="-3.87446">
        <ele>983.0</ele>
        <time>2018-05-26T08:09:35.146Z</time>
      </trkpt>
      <trkpt lat="40.70866333" lon="-3.874635">
        <ele>983.0</ele>
        <time>2018-05-26T08:09:36.175Z</time>
      </trkpt>
      <trkpt lat="40.70871667" lon="-3.87472167">
        <ele>982.0</ele>
        <time>2018-05-26T08:09:37.151Z</time>
      </trkpt>
      <trkpt lat="40.70871667" lon="-3.87472167">
        <ele>982.0</ele>
        <time>2018-05-26T08:09:38.137Z</time>
      </trkpt>
      <trkpt lat="40.70881833" lon="-3.87489667">
        <ele>982.0</ele>
        <time>2018-05-26T08:09:39.149Z</time>
      </trkpt>
      <trkpt lat="40.70881833" lon="-3.87489667">
        <ele>982.0</ele>
        <time>2018-05-26T08:09:40.145Z</time>
      </trkpt>
      <trkpt lat="40.70891833" lon="-3.875055">
        <ele>983.0</ele>
        <time>2018-05-26T08:09:41.172Z</time>
      </trkpt>
      <trkpt lat="40.70891833" lon="-3.875055">
        <ele>983.0</ele>
        <time>2018-05-26T08:09:42.170Z</time>
      </trkpt>
      <trkpt lat="40.70902833" lon="-3.87517667">
        <ele>983.0</ele>
        <time>2018-05-26T08:09:43.137Z</time>
      </trkpt>
      <trkpt lat="40.70902833" lon="-3.87517667">
        <ele>983.0</ele>
        <time>2018-05-26T08:09:44.170Z</time>
      </trkpt>
      <trkpt lat="40.70914333" lon="-3.87529833">
        <ele>983.0</ele>
        <time>2018-05-26T08:09:45.140Z</time>
      </trkpt>
      <trkpt lat="40.70919667" lon="-3.87537">
        <ele>984.0</ele>
        <time>2018-05-26T08:09:46.157Z</time>
      </trkpt>
      <trkpt lat="40.70924" lon="-3.87544667">
        <ele>984.0</ele>
        <time>2018-05-26T08:09:47.174Z</time>
      </trkpt>
      <trkpt lat="40.70924" lon="-3.87544667">
        <ele>984.0</ele>
        <time>2018-05-26T08:09:48.146Z</time>
      </trkpt>
      <trkpt lat="40.70931667" lon="-3.8756">
        <ele>985.0</ele>
        <time>2018-05-26T08:09:49.155Z</time>
      </trkpt>
      <trkpt lat="40.70931667" lon="-3.8756">
        <ele>985.0</ele>
        <time>2018-05-26T08:09:50.150Z</time>
      </trkpt>
      <trkpt lat="40.709385" lon="-3.87573667">
        <ele>985.0</ele>
        <time>2018-05-26T08:09:51.169Z</time>
      </trkpt>
      <trkpt lat="40.709425" lon="-3.87579833">
        <ele>985.0</ele>
        <time>2018-05-26T08:09:52.149Z</time>
      </trkpt>
      <trkpt lat="40.709425" lon="-3.87579833">
        <ele>985.0</ele>
        <time>2018-05-26T08:09:53.162Z</time>
      </trkpt>
      <trkpt lat="40.70950333" lon="-3.87590833">
        <ele>985.0</ele>
        <time>2018-05-26T08:09:54.172Z</time>
      </trkpt>
      <trkpt lat="40.709545" lon="-3.87595833">
        <ele>985.0</ele>
        <time>2018-05-26T08:09:55.160Z</time>
      </trkpt>
      <trkpt lat="40.709545" lon="-3.87595833">
        <ele>985.0</ele>
        <time>2018-05-26T08:09:56.174Z</time>
      </trkpt>
      <trkpt lat="40.70963667" lon="-3.87605">
        <ele>985.0</ele>
        <time>2018-05-26T08:09:57.152Z</time>
      </trkpt>
      <trkpt lat="40.70968333" lon="-3.87609667">
        <ele>985.0</ele>
        <time>2018-05-26T08:09:58.144Z</time>
      </trkpt>
      <trkpt lat="40.70968333" lon="-3.87609667">
        <ele>985.0</ele>
        <time>2018-05-26T08:09:59.163Z</time>
      </trkpt>
      <trkpt lat="40.70978" lon="-3.87619333">
        <ele>984.0</ele>
        <time>2018-05-26T08:10:00.173Z</time>
      </trkpt>
      <trkpt lat="40.70978" lon="-3.87619333">
        <ele>984.0</ele>
        <time>2018-05-26T08:10:01.159Z</time>
      </trkpt>
      <trkpt lat="40.70988833" lon="-3.87628333">
        <ele>984.0</ele>
        <time>2018-05-26T08:10:02.167Z</time>
      </trkpt>
      <trkpt lat="40.70988833" lon="-3.87628333">
        <ele>984.0</ele>
        <time>2018-05-26T08:10:03.145Z</time>
      </trkpt>
      <trkpt lat="40.71" lon="-3.87637833">
        <ele>983.0</ele>
        <time>2018-05-26T08:10:04.153Z</time>
      </trkpt>
      <trkpt lat="40.71" lon="-3.87637833">
        <ele>983.0</ele>
        <time>2018-05-26T08:10:05.144Z</time>
      </trkpt>
      <trkpt lat="40.71012167" lon="-3.87647167">
        <ele>982.0</ele>
        <time>2018-05-26T08:10:06.152Z</time>
      </trkpt>
      <trkpt lat="40.71019" lon="-3.876505">
        <ele>982.0</ele>
        <time>2018-05-26T08:10:07.138Z</time>
      </trkpt>
      <trkpt lat="40.71019" lon="-3.876505">
        <ele>982.0</ele>
        <time>2018-05-26T08:10:08.159Z</time>
      </trkpt>
      <trkpt lat="40.71034333" lon="-3.876495">
        <ele>981.0</ele>
        <time>2018-05-26T08:10:09.179Z</time>
      </trkpt>
      <trkpt lat="40.71034333" lon="-3.876495">
        <ele>981.0</ele>
        <time>2018-05-26T08:10:10.148Z</time>
      </trkpt>
      <trkpt lat="40.71049" lon="-3.87641667">
        <ele>980.0</ele>
        <time>2018-05-26T08:10:11.165Z</time>
      </trkpt>
      <trkpt lat="40.71049" lon="-3.87641667">
        <ele>980.0</ele>
        <time>2018-05-26T08:10:12.137Z</time>
      </trkpt>
      <trkpt lat="40.71062" lon="-3.87627667">
        <ele>979.0</ele>
        <time>2018-05-26T08:10:13.155Z</time>
      </trkpt>
      <trkpt lat="40.71062" lon="-3.87627667">
        <ele>979.0</ele>
        <time>2018-05-26T08:10:14.167Z</time>
      </trkpt>
      <trkpt lat="40.710755" lon="-3.87610167">
        <ele>976.0</ele>
        <time>2018-05-26T08:10:15.177Z</time>
      </trkpt>
      <trkpt lat="40.71082833" lon="-3.87600833">
        <ele>975.0</ele>
        <time>2018-05-26T08:10:16.162Z</time>
      </trkpt>
      <trkpt lat="40.71082833" lon="-3.87600833">
        <ele>975.0</ele>
        <time>2018-05-26T08:10:17.152Z</time>
      </trkpt>
      <trkpt lat="40.71098333" lon="-3.87582">
        <ele>973.0</ele>
        <time>2018-05-26T08:10:18.137Z</time>
      </trkpt>
      <trkpt lat="40.71098333" lon="-3.87582">
        <ele>973.0</ele>
        <time>2018-05-26T08:10:19.161Z</time>
      </trkpt>
      <trkpt lat="40.71113667" lon="-3.87564667">
        <ele>971.0</ele>
        <time>2018-05-26T08:10:20.171Z</time>
      </trkpt>
      <trkpt lat="40.71113667" lon="-3.87564667">
        <ele>971.0</ele>
        <time>2018-05-26T08:10:21.143Z</time>
      </trkpt>
      <trkpt lat="40.71126333" lon="-3.875475">
        <ele>970.0</ele>
        <time>2018-05-26T08:10:22.153Z</time>
      </trkpt>
      <trkpt lat="40.71126333" lon="-3.875475">
        <ele>970.0</ele>
        <time>2018-05-26T08:10:23.169Z</time>
      </trkpt>
      <trkpt lat="40.71134333" lon="-3.87523167">
        <ele>967.0</ele>
        <time>2018-05-26T08:10:24.143Z</time>
      </trkpt>
      <trkpt lat="40.71136667" lon="-3.87509667">
        <ele>966.0</ele>
        <time>2018-05-26T08:10:25.138Z</time>
      </trkpt>
      <trkpt lat="40.71136667" lon="-3.87509667">
        <ele>966.0</ele>
        <time>2018-05-26T08:10:26.161Z</time>
      </trkpt>
      <trkpt lat="40.71138833" lon="-3.87481167">
        <ele>964.0</ele>
        <time>2018-05-26T08:10:27.170Z</time>
      </trkpt>
      <trkpt lat="40.71138833" lon="-3.87481167">
        <ele>964.0</ele>
        <time>2018-05-26T08:10:28.150Z</time>
      </trkpt>
      <trkpt lat="40.71141667" lon="-3.87457">
        <ele>963.0</ele>
        <time>2018-05-26T08:10:29.161Z</time>
      </trkpt>
      <trkpt lat="40.71141667" lon="-3.87457">
        <ele>963.0</ele>
        <time>2018-05-26T08:10:30.142Z</time>
      </trkpt>
      <trkpt lat="40.711515" lon="-3.87439333">
        <ele>961.0</ele>
        <time>2018-05-26T08:10:31.162Z</time>
      </trkpt>
      <trkpt lat="40.71158667" lon="-3.87433333">
        <ele>961.0</ele>
        <time>2018-05-26T08:10:32.161Z</time>
      </trkpt>
      <trkpt lat="40.71166" lon="-3.87428">
        <ele>960.0</ele>
        <time>2018-05-26T08:10:33.139Z</time>
      </trkpt>
      <trkpt lat="40.71166" lon="-3.87428">
        <ele>960.0</ele>
        <time>2018-05-26T08:10:34.165Z</time>
      </trkpt>
      <trkpt lat="40.71177" lon="-3.87412667">
        <ele>958.0</ele>
        <time>2018-05-26T08:10:35.136Z</time>
      </trkpt>
      <trkpt lat="40.71177" lon="-3.87412667">
        <ele>958.0</ele>
        <time>2018-05-26T08:10:36.156Z</time>
      </trkpt>
      <trkpt lat="40.71181333" lon="-3.87390333">
        <ele>957.0</ele>
        <time>2018-05-26T08:10:37.161Z</time>
      </trkpt>
      <trkpt lat="40.71182" lon="-3.87378167">
        <ele>956.0</ele>
        <time>2018-05-26T08:10:38.164Z</time>
      </trkpt>
      <trkpt lat="40.71182" lon="-3.87378167">
        <ele>956.0</ele>
        <time>2018-05-26T08:10:39.143Z</time>
      </trkpt>
      <trkpt lat="40.71180667" lon="-3.87355833">
        <ele>953.0</ele>
        <time>2018-05-26T08:10:40.152Z</time>
      </trkpt>
      <trkpt lat="40.71180667" lon="-3.87355833">
        <ele>953.0</ele>
        <time>2018-05-26T08:10:41.138Z</time>
      </trkpt>
      <trkpt lat="40.71170667" lon="-3.873405">
        <ele>951.0</ele>
        <time>2018-05-26T08:10:42.169Z</time>
      </trkpt>
      <trkpt lat="40.71164667" lon="-3.87334">
        <ele>951.0</ele>
        <time>2018-05-26T08:10:43.171Z</time>
      </trkpt>
      <trkpt lat="40.71164667" lon="-3.87334">
        <ele>951.0</ele>
        <time>2018-05-26T08:10:44.169Z</time>
      </trkpt>
      <trkpt lat="40.71161667" lon="-3.87318833">
        <ele>949.0</ele>
        <time>2018-05-26T08:10:45.136Z</time>
      </trkpt>
      <trkpt lat="40.71161667" lon="-3.87318833">
        <ele>949.0</ele>
        <time>2018-05-26T08:10:46.156Z</time>
      </trkpt>
      <trkpt lat="40.71169" lon="-3.87306333">
        <ele>948.0</ele>
        <time>2018-05-26T08:10:47.170Z</time>
      </trkpt>
      <trkpt lat="40.71169" lon="-3.87306333">
        <ele>948.0</ele>
        <time>2018-05-26T08:10:48.144Z</time>
      </trkpt>
      <trkpt lat="40.711815" lon="-3.87297833">
        <ele>947.0</ele>
        <time>2018-05-26T08:10:49.161Z</time>
      </trkpt>
      <trkpt lat="40.711885" lon="-3.87292667">
        <ele>947.0</ele>
        <time>2018-05-26T08:10:50.176Z</time>
      </trkpt>
      <trkpt lat="40.711885" lon="-3.87292667">
        <ele>947.0</ele>
        <time>2018-05-26T08:10:51.154Z</time>
      </trkpt>
      <trkpt lat="40.71203333" lon="-3.87281333">
        <ele>946.0</ele>
        <time>2018-05-26T08:10:52.161Z</time>
      </trkpt>
      <trkpt lat="40.71203333" lon="-3.87281333">
        <ele>946.0</ele>
        <time>2018-05-26T08:10:53.147Z</time>
      </trkpt>
      <trkpt lat="40.71218833" lon="-3.87269">
        <ele>944.0</ele>
        <time>2018-05-26T08:10:54.157Z</time>
      </trkpt>
      <trkpt lat="40.71218833" lon="-3.87269">
        <ele>944.0</ele>
        <time>2018-05-26T08:10:55.148Z</time>
      </trkpt>
      <trkpt lat="40.71235667" lon="-3.87257333">
        <ele>943.0</ele>
        <time>2018-05-26T08:10:56.159Z</time>
      </trkpt>
      <trkpt lat="40.71235667" lon="-3.87257333">
        <ele>943.0</ele>
        <time>2018-05-26T08:10:57.174Z</time>
      </trkpt>
      <trkpt lat="40.71252" lon="-3.872445">
        <ele>942.0</ele>
        <time>2018-05-26T08:10:58.171Z</time>
      </trkpt>
      <trkpt lat="40.71252" lon="-3.872445">
        <ele>942.0</ele>
        <time>2018-05-26T08:10:59.160Z</time>
      </trkpt>
      <trkpt lat="40.71266667" lon="-3.872285">
        <ele>942.0</ele>
        <time>2018-05-26T08:11:00.160Z</time>
      </trkpt>
      <trkpt lat="40.71273" lon="-3.8722">
        <ele>942.0</ele>
        <time>2018-05-26T08:11:01.165Z</time>
      </trkpt>
      <trkpt lat="40.71273" lon="-3.8722">
        <ele>942.0</ele>
        <time>2018-05-26T08:11:02.145Z</time>
      </trkpt>
      <trkpt lat="40.712835" lon="-3.87203167">
        <ele>941.0</ele>
        <time>2018-05-26T08:11:03.157Z</time>
      </trkpt>
      <trkpt lat="40.71289333" lon="-3.87194833">
        <ele>941.0</ele>
        <time>2018-05-26T08:11:04.140Z</time>
      </trkpt>
      <trkpt lat="40.71289333" lon="-3.87194833">
        <ele>941.0</ele>
        <time>2018-05-26T08:11:05.161Z</time>
      </trkpt>
      <trkpt lat="40.713045" lon="-3.87182167">
        <ele>940.0</ele>
        <time>2018-05-26T08:11:06.142Z</time>
      </trkpt>
      <trkpt lat="40.71312833" lon="-3.87177167">
        <ele>939.0</ele>
        <time>2018-05-26T08:11:07.138Z</time>
      </trkpt>
      <trkpt lat="40.71312833" lon="-3.87177167">
        <ele>939.0</ele>
        <time>2018-05-26T08:11:08.153Z</time>
      </trkpt>
      <trkpt lat="40.71330833" lon="-3.871705">
        <ele>938.0</ele>
        <time>2018-05-26T08:11:09.165Z</time>
      </trkpt>
      <trkpt lat="40.71330833" lon="-3.871705">
        <ele>938.0</ele>
        <time>2018-05-26T08:11:10.146Z</time>
      </trkpt>
      <trkpt lat="40.71350333" lon="-3.87164167">
        <ele>936.0</ele>
        <time>2018-05-26T08:11:11.161Z</time>
      </trkpt>
      <trkpt lat="40.71350333" lon="-3.87164167">
        <ele>936.0</ele>
        <time>2018-05-26T08:11:12.147Z</time>
      </trkpt>
      <trkpt lat="40.71371" lon="-3.87159667">
        <ele>935.0</ele>
        <time>2018-05-26T08:11:13.162Z</time>
      </trkpt>
      <trkpt lat="40.71371" lon="-3.87159667">
        <ele>935.0</ele>
        <time>2018-05-26T08:11:14.147Z</time>
      </trkpt>
      <trkpt lat="40.71392167" lon="-3.87158">
        <ele>934.0</ele>
        <time>2018-05-26T08:11:15.156Z</time>
      </trkpt>
      <trkpt lat="40.71403167" lon="-3.87158">
        <ele>933.0</ele>
        <time>2018-05-26T08:11:16.142Z</time>
      </trkpt>
      <trkpt lat="40.71403167" lon="-3.87158">
        <ele>933.0</ele>
        <time>2018-05-26T08:11:17.156Z</time>
      </trkpt>
      <trkpt lat="40.71425833" lon="-3.871605">
        <ele>930.0</ele>
        <time>2018-05-26T08:11:18.174Z</time>
      </trkpt>
      <trkpt lat="40.71437333" lon="-3.87162833">
        <ele>929.0</ele>
        <time>2018-05-26T08:11:19.160Z</time>
      </trkpt>
      <trkpt lat="40.71437333" lon="-3.87162833">
        <ele>929.0</ele>
        <time>2018-05-26T08:11:20.173Z</time>
      </trkpt>
      <trkpt lat="40.714605" lon="-3.87167667">
        <ele>927.0</ele>
        <time>2018-05-26T08:11:21.149Z</time>
      </trkpt>
      <trkpt lat="40.71472" lon="-3.87169333">
        <ele>926.0</ele>
        <time>2018-05-26T08:11:22.173Z</time>
      </trkpt>
      <trkpt lat="40.71472" lon="-3.87169333">
        <ele>926.0</ele>
        <time>2018-05-26T08:11:23.150Z</time>
      </trkpt>
      <trkpt lat="40.71493167" lon="-3.87166">
        <ele>925.0</ele>
        <time>2018-05-26T08:11:24.170Z</time>
      </trkpt>
      <trkpt lat="40.71503167" lon="-3.87161">
        <ele>925.0</ele>
        <time>2018-05-26T08:11:25.152Z</time>
      </trkpt>
      <trkpt lat="40.71503167" lon="-3.87161">
        <ele>925.0</ele>
        <time>2018-05-26T08:11:26.175Z</time>
      </trkpt>
      <trkpt lat="40.71524" lon="-3.87151167">
        <ele>923.0</ele>
        <time>2018-05-26T08:11:27.147Z</time>
      </trkpt>
      <trkpt lat="40.715345" lon="-3.87147">
        <ele>922.0</ele>
        <time>2018-05-26T08:11:28.177Z</time>
      </trkpt>
      <trkpt lat="40.715345" lon="-3.87147">
        <ele>922.0</ele>
        <time>2018-05-26T08:11:29.148Z</time>
      </trkpt>
      <trkpt lat="40.71554" lon="-3.87140833">
        <ele>921.0</ele>
        <time>2018-05-26T08:11:30.172Z</time>
      </trkpt>
      <trkpt lat="40.71562667" lon="-3.87139833">
        <ele>920.0</ele>
        <time>2018-05-26T08:11:31.151Z</time>
      </trkpt>
      <trkpt lat="40.71562667" lon="-3.87139833">
        <ele>920.0</ele>
        <time>2018-05-26T08:11:32.171Z</time>
      </trkpt>
      <trkpt lat="40.71579833" lon="-3.87141333">
        <ele>919.0</ele>
        <time>2018-05-26T08:11:33.141Z</time>
      </trkpt>
      <trkpt lat="40.71587333" lon="-3.87138333">
        <ele>918.0</ele>
        <time>2018-05-26T08:11:34.168Z</time>
      </trkpt>
      <trkpt lat="40.715935" lon="-3.87131833">
        <ele>917.0</ele>
        <time>2018-05-26T08:11:35.160Z</time>
      </trkpt>
      <trkpt lat="40.715935" lon="-3.87131833">
        <ele>917.0</ele>
        <time>2018-05-26T08:11:36.151Z</time>
      </trkpt>
      <trkpt lat="40.71603" lon="-3.87111667">
        <ele>916.0</ele>
        <time>2018-05-26T08:11:37.160Z</time>
      </trkpt>
      <trkpt lat="40.71603" lon="-3.87111667">
        <ele>916.0</ele>
        <time>2018-05-26T08:11:38.145Z</time>
      </trkpt>
      <trkpt lat="40.716115" lon="-3.87086333">
        <ele>914.0</ele>
        <time>2018-05-26T08:11:39.153Z</time>
      </trkpt>
      <trkpt lat="40.71615333" lon="-3.87073">
        <ele>913.0</ele>
        <time>2018-05-26T08:11:40.173Z</time>
      </trkpt>
      <trkpt lat="40.71615333" lon="-3.87073">
        <ele>913.0</ele>
        <time>2018-05-26T08:11:41.167Z</time>
      </trkpt>
      <trkpt lat="40.71621167" lon="-3.87049167">
        <ele>911.0</ele>
        <time>2018-05-26T08:11:42.136Z</time>
      </trkpt>
      <trkpt lat="40.71624667" lon="-3.87041167">
        <ele>910.0</ele>
        <time>2018-05-26T08:11:43.158Z</time>
      </trkpt>
      <trkpt lat="40.71624667" lon="-3.87041167">
        <ele>910.0</ele>
        <time>2018-05-26T08:11:44.140Z</time>
      </trkpt>
      <trkpt lat="40.71635333" lon="-3.87035167">
        <ele>908.0</ele>
        <time>2018-05-26T08:11:45.154Z</time>
      </trkpt>
      <trkpt lat="40.71635333" lon="-3.87035167">
        <ele>908.0</ele>
        <time>2018-05-26T08:11:46.140Z</time>
      </trkpt>
      <trkpt lat="40.716485" lon="-3.87039667">
        <ele>907.0</ele>
        <time>2018-05-26T08:11:47.160Z</time>
      </trkpt>
      <trkpt lat="40.716485" lon="-3.87039667">
        <ele>907.0</ele>
        <time>2018-05-26T08:11:48.138Z</time>
      </trkpt>
      <trkpt lat="40.71663" lon="-3.87046167">
        <ele>905.0</ele>
        <time>2018-05-26T08:11:49.149Z</time>
      </trkpt>
      <trkpt lat="40.71663" lon="-3.87046167">
        <ele>905.0</ele>
        <time>2018-05-26T08:11:50.151Z</time>
      </trkpt>
      <trkpt lat="40.71679667" lon="-3.87049167">
        <ele>904.0</ele>
        <time>2018-05-26T08:11:51.168Z</time>
      </trkpt>
      <trkpt lat="40.71679667" lon="-3.87049167">
        <ele>904.0</ele>
        <time>2018-05-26T08:11:52.149Z</time>
      </trkpt>
      <trkpt lat="40.71697" lon="-3.870445">
        <ele>901.0</ele>
        <time>2018-05-26T08:11:53.166Z</time>
      </trkpt>
      <trkpt lat="40.71697" lon="-3.870445">
        <ele>901.0</ele>
        <time>2018-05-26T08:11:54.147Z</time>
      </trkpt>
      <trkpt lat="40.71711333" lon="-3.87030667">
        <ele>899.0</ele>
        <time>2018-05-26T08:11:55.162Z</time>
      </trkpt>
      <trkpt lat="40.71716833" lon="-3.87020833">
        <ele>899.0</ele>
        <time>2018-05-26T08:11:56.148Z</time>
      </trkpt>
      <trkpt lat="40.71716833" lon="-3.87020833">
        <ele>899.0</ele>
        <time>2018-05-26T08:11:57.160Z</time>
      </trkpt>
      <trkpt lat="40.717285" lon="-3.87003833">
        <ele>897.0</ele>
        <time>2018-05-26T08:11:58.170Z</time>
      </trkpt>
      <trkpt lat="40.717285" lon="-3.87003833">
        <ele>897.0</ele>
        <time>2018-05-26T08:11:59.147Z</time>
      </trkpt>
      <trkpt lat="40.717445" lon="-3.869945">
        <ele>896.0</ele>
        <time>2018-05-26T08:12:00.169Z</time>
      </trkpt>
      <trkpt lat="40.717445" lon="-3.869945">
        <ele>896.0</ele>
        <time>2018-05-26T08:12:01.159Z</time>
      </trkpt>
      <trkpt lat="40.71759" lon="-3.86986333">
        <ele>896.0</ele>
        <time>2018-05-26T08:12:02.171Z</time>
      </trkpt>
      <trkpt lat="40.71766667" lon="-3.86984">
        <ele>896.0</ele>
        <time>2018-05-26T08:12:03.148Z</time>
      </trkpt>
      <trkpt lat="40.71774667" lon="-3.86982667">
        <ele>895.0</ele>
        <time>2018-05-26T08:12:04.152Z</time>
      </trkpt>
      <trkpt lat="40.71774667" lon="-3.86982667">
        <ele>895.0</ele>
        <time>2018-05-26T08:12:05.171Z</time>
      </trkpt>
      <trkpt lat="40.7179" lon="-3.86980833">
        <ele>896.0</ele>
        <time>2018-05-26T08:12:06.143Z</time>
      </trkpt>
      <trkpt lat="40.717975" lon="-3.86980333">
        <ele>896.0</ele>
        <time>2018-05-26T08:12:07.174Z</time>
      </trkpt>
      <trkpt lat="40.717975" lon="-3.86980333">
        <ele>896.0</ele>
        <time>2018-05-26T08:12:08.150Z</time>
      </trkpt>
      <trkpt lat="40.71812" lon="-3.86978667">
        <ele>896.0</ele>
        <time>2018-05-26T08:12:09.161Z</time>
      </trkpt>
      <trkpt lat="40.71818667" lon="-3.86977167">
        <ele>897.0</ele>
        <time>2018-05-26T08:12:10.142Z</time>
      </trkpt>
      <trkpt lat="40.71818667" lon="-3.86977167">
        <ele>897.0</ele>
        <time>2018-05-26T08:12:11.157Z</time>
      </trkpt>
      <trkpt lat="40.71831833" lon="-3.86974">
        <ele>897.0</ele>
        <time>2018-05-26T08:12:12.168Z</time>
      </trkpt>
      <trkpt lat="40.718385" lon="-3.86973">
        <ele>897.0</ele>
        <time>2018-05-26T08:12:13.150Z</time>
      </trkpt>
      <trkpt lat="40.718385" lon="-3.86973">
        <ele>897.0</ele>
        <time>2018-05-26T08:12:14.174Z</time>
      </trkpt>
      <trkpt lat="40.71851833" lon="-3.869715">
        <ele>897.0</ele>
        <time>2018-05-26T08:12:15.153Z</time>
      </trkpt>
      <trkpt lat="40.71858167" lon="-3.86970833">
        <ele>897.0</ele>
        <time>2018-05-26T08:12:16.143Z</time>
      </trkpt>
      <trkpt lat="40.71858167" lon="-3.86970833">
        <ele>897.0</ele>
        <time>2018-05-26T08:12:17.170Z</time>
      </trkpt>
      <trkpt lat="40.71870667" lon="-3.86969167">
        <ele>897.0</ele>
        <time>2018-05-26T08:12:18.137Z</time>
      </trkpt>
      <trkpt lat="40.71870667" lon="-3.86969167">
        <ele>897.0</ele>
        <time>2018-05-26T08:12:19.140Z</time>
      </trkpt>
      <trkpt lat="40.71882833" lon="-3.869665">
        <ele>897.0</ele>
        <time>2018-05-26T08:12:20.148Z</time>
      </trkpt>
      <trkpt lat="40.71882833" lon="-3.869665">
        <ele>897.0</ele>
        <time>2018-05-26T08:12:21.168Z</time>
      </trkpt>
      <trkpt lat="40.71894833" lon="-3.86964333">
        <ele>897.0</ele>
        <time>2018-05-26T08:12:22.138Z</time>
      </trkpt>
      <trkpt lat="40.71894833" lon="-3.86964333">
        <ele>897.0</ele>
        <time>2018-05-26T08:12:23.165Z</time>
      </trkpt>
      <trkpt lat="40.719065" lon="-3.86963">
        <ele>897.0</ele>
        <time>2018-05-26T08:12:24.173Z</time>
      </trkpt>
      <trkpt lat="40.71912167" lon="-3.869625">
        <ele>897.0</ele>
        <time>2018-05-26T08:12:25.155Z</time>
      </trkpt>
      <trkpt lat="40.71912167" lon="-3.869625">
        <ele>897.0</ele>
        <time>2018-05-26T08:12:26.174Z</time>
      </trkpt>
      <trkpt lat="40.71923833" lon="-3.86961333">
        <ele>897.0</ele>
        <time>2018-05-26T08:12:27.147Z</time>
      </trkpt>
      <trkpt lat="40.71923833" lon="-3.86961333">
        <ele>897.0</ele>
        <time>2018-05-26T08:12:28.145Z</time>
      </trkpt>
      <trkpt lat="40.71935833" lon="-3.869595">
        <ele>897.0</ele>
        <time>2018-05-26T08:12:29.156Z</time>
      </trkpt>
      <trkpt lat="40.71935833" lon="-3.869595">
        <ele>897.0</ele>
        <time>2018-05-26T08:12:30.166Z</time>
      </trkpt>
      <trkpt lat="40.719485" lon="-3.86957333">
        <ele>896.0</ele>
        <time>2018-05-26T08:12:31.139Z</time>
      </trkpt>
      <trkpt lat="40.719485" lon="-3.86957333">
        <ele>896.0</ele>
        <time>2018-05-26T08:12:32.155Z</time>
      </trkpt>
      <trkpt lat="40.71960667" lon="-3.86956">
        <ele>896.0</ele>
        <time>2018-05-26T08:12:33.165Z</time>
      </trkpt>
      <trkpt lat="40.71966667" lon="-3.86955167">
        <ele>896.0</ele>
        <time>2018-05-26T08:12:34.153Z</time>
      </trkpt>
      <trkpt lat="40.719725" lon="-3.86954333">
        <ele>896.0</ele>
        <time>2018-05-26T08:12:35.157Z</time>
      </trkpt>
      <trkpt lat="40.719725" lon="-3.86954333">
        <ele>896.0</ele>
        <time>2018-05-26T08:12:36.170Z</time>
      </trkpt>
      <trkpt lat="40.71984333" lon="-3.86952667">
        <ele>897.0</ele>
        <time>2018-05-26T08:12:37.138Z</time>
      </trkpt>
      <trkpt lat="40.71990167" lon="-3.86952167">
        <ele>897.0</ele>
        <time>2018-05-26T08:12:38.165Z</time>
      </trkpt>
      <trkpt lat="40.71990167" lon="-3.86952167">
        <ele>897.0</ele>
        <time>2018-05-26T08:12:39.147Z</time>
      </trkpt>
      <trkpt lat="40.72001833" lon="-3.86951167">
        <ele>897.0</ele>
        <time>2018-05-26T08:12:40.164Z</time>
      </trkpt>
      <trkpt lat="40.72001833" lon="-3.86951167">
        <ele>897.0</ele>
        <time>2018-05-26T08:12:41.173Z</time>
      </trkpt>
      <trkpt lat="40.72013167" lon="-3.8695">
        <ele>897.0</ele>
        <time>2018-05-26T08:12:42.146Z</time>
      </trkpt>
      <trkpt lat="40.72013167" lon="-3.8695">
        <ele>897.0</ele>
        <time>2018-05-26T08:12:43.147Z</time>
      </trkpt>
      <trkpt lat="40.720235" lon="-3.86949833">
        <ele>898.0</ele>
        <time>2018-05-26T08:12:44.159Z</time>
      </trkpt>
      <trkpt lat="40.72028333" lon="-3.869495">
        <ele>898.0</ele>
        <time>2018-05-26T08:12:45.159Z</time>
      </trkpt>
      <trkpt lat="40.72028333" lon="-3.869495">
        <ele>898.0</ele>
        <time>2018-05-26T08:12:46.140Z</time>
      </trkpt>
      <trkpt lat="40.720385" lon="-3.86948">
        <ele>899.0</ele>
        <time>2018-05-26T08:12:47.149Z</time>
      </trkpt>
      <trkpt lat="40.720385" lon="-3.86948">
        <ele>899.0</ele>
        <time>2018-05-26T08:12:48.172Z</time>
      </trkpt>
      <trkpt lat="40.72048333" lon="-3.86946667">
        <ele>899.0</ele>
        <time>2018-05-26T08:12:49.139Z</time>
      </trkpt>
      <trkpt lat="40.72052833" lon="-3.86946167">
        <ele>900.0</ele>
        <time>2018-05-26T08:12:50.177Z</time>
      </trkpt>
      <trkpt lat="40.72052833" lon="-3.86946167">
        <ele>900.0</ele>
        <time>2018-05-26T08:12:51.137Z</time>
      </trkpt>
      <trkpt lat="40.72062333" lon="-3.86944667">
        <ele>901.0</ele>
        <time>2018-05-26T08:12:52.156Z</time>
      </trkpt>
      <trkpt lat="40.72062333" lon="-3.86944667">
        <ele>901.0</ele>
        <time>2018-05-26T08:12:53.143Z</time>
      </trkpt>
      <trkpt lat="40.72073" lon="-3.86943667">
        <ele>901.0</ele>
        <time>2018-05-26T08:12:54.161Z</time>
      </trkpt>
      <trkpt lat="40.72078" lon="-3.86944">
        <ele>902.0</ele>
        <time>2018-05-26T08:12:55.139Z</time>
      </trkpt>
      <trkpt lat="40.72078" lon="-3.86944">
        <ele>902.0</ele>
        <time>2018-05-26T08:12:56.173Z</time>
      </trkpt>
      <trkpt lat="40.72089167" lon="-3.86943667">
        <ele>902.0</ele>
        <time>2018-05-26T08:12:57.151Z</time>
      </trkpt>
      <trkpt lat="40.72094667" lon="-3.86943167">
        <ele>902.0</ele>
        <time>2018-05-26T08:12:58.137Z</time>
      </trkpt>
      <trkpt lat="40.72094667" lon="-3.86943167">
        <ele>902.0</ele>
        <time>2018-05-26T08:12:59.150Z</time>
      </trkpt>
      <trkpt lat="40.72105167" lon="-3.86942333">
        <ele>902.0</ele>
        <time>2018-05-26T08:13:00.171Z</time>
      </trkpt>
      <trkpt lat="40.72110333" lon="-3.86942167">
        <ele>902.0</ele>
        <time>2018-05-26T08:13:01.153Z</time>
      </trkpt>
      <trkpt lat="40.72110333" lon="-3.86942167">
        <ele>902.0</ele>
        <time>2018-05-26T08:13:02.175Z</time>
      </trkpt>
      <trkpt lat="40.721205" lon="-3.86942">
        <ele>903.0</ele>
        <time>2018-05-26T08:13:03.151Z</time>
      </trkpt>
      <trkpt lat="40.721255" lon="-3.86942167">
        <ele>903.0</ele>
        <time>2018-05-26T08:13:04.146Z</time>
      </trkpt>
      <trkpt lat="40.721255" lon="-3.86942167">
        <ele>903.0</ele>
        <time>2018-05-26T08:13:05.166Z</time>
      </trkpt>
      <trkpt lat="40.72135833" lon="-3.86942333">
        <ele>903.0</ele>
        <time>2018-05-26T08:13:06.174Z</time>
      </trkpt>
      <trkpt lat="40.72140833" lon="-3.86942833">
        <ele>903.0</ele>
        <time>2018-05-26T08:13:07.152Z</time>
      </trkpt>
      <trkpt lat="40.72145833" lon="-3.86943">
        <ele>903.0</ele>
        <time>2018-05-26T08:13:08.144Z</time>
      </trkpt>
      <trkpt lat="40.72145833" lon="-3.86943">
        <ele>903.0</ele>
        <time>2018-05-26T08:13:09.160Z</time>
      </trkpt>
      <trkpt lat="40.721555" lon="-3.86942833">
        <ele>904.0</ele>
        <time>2018-05-26T08:13:10.172Z</time>
      </trkpt>
      <trkpt lat="40.721555" lon="-3.86942833">
        <ele>904.0</ele>
        <time>2018-05-26T08:13:11.148Z</time>
      </trkpt>
      <trkpt lat="40.72165167" lon="-3.86943">
        <ele>904.0</ele>
        <time>2018-05-26T08:13:12.160Z</time>
      </trkpt>
      <trkpt lat="40.72170167" lon="-3.86943167">
        <ele>904.0</ele>
        <time>2018-05-26T08:13:13.160Z</time>
      </trkpt>
      <trkpt lat="40.72170167" lon="-3.86943167">
        <ele>904.0</ele>
        <time>2018-05-26T08:13:14.147Z</time>
      </trkpt>
      <trkpt lat="40.72179833" lon="-3.86943333">
        <ele>905.0</ele>
        <time>2018-05-26T08:13:15.181Z</time>
      </trkpt>
      <trkpt lat="40.72184667" lon="-3.86943333">
        <ele>905.0</ele>
        <time>2018-05-26T08:13:16.165Z</time>
      </trkpt>
      <trkpt lat="40.72184667" lon="-3.86943333">
        <ele>905.0</ele>
        <time>2018-05-26T08:13:17.147Z</time>
      </trkpt>
      <trkpt lat="40.72194833" lon="-3.86944333">
        <ele>905.0</ele>
        <time>2018-05-26T08:13:18.155Z</time>
      </trkpt>
      <trkpt lat="40.72199333" lon="-3.86944833">
        <ele>906.0</ele>
        <time>2018-05-26T08:13:19.180Z</time>
      </trkpt>
      <trkpt lat="40.72203333" lon="-3.869455">
        <ele>905.0</ele>
        <time>2018-05-26T08:13:20.176Z</time>
      </trkpt>
      <trkpt lat="40.72203333" lon="-3.869455">
        <ele>905.0</ele>
        <time>2018-05-26T08:13:21.155Z</time>
      </trkpt>
      <trkpt lat="40.72208167" lon="-3.869465">
        <ele>905.0</ele>
        <time>2018-05-26T08:13:22.168Z</time>
      </trkpt>
      <trkpt lat="40.72208167" lon="-3.869465">
        <ele>905.0</ele>
        <time>2018-05-26T08:13:23.146Z</time>
      </trkpt>
      <trkpt lat="40.72211" lon="-3.86947167">
        <ele>905.0</ele>
        <time>2018-05-26T08:13:24.166Z</time>
      </trkpt>
      <trkpt lat="40.72212333" lon="-3.869475">
        <ele>905.0</ele>
        <time>2018-05-26T08:13:25.155Z</time>
      </trkpt>
      <trkpt lat="40.72212333" lon="-3.869475">
        <ele>905.0</ele>
        <time>2018-05-26T08:13:26.170Z</time>
      </trkpt>
      <trkpt lat="40.72214" lon="-3.86947667">
        <ele>905.0</ele>
        <time>2018-05-26T08:13:27.141Z</time>
      </trkpt>
      <trkpt lat="40.72214" lon="-3.86947667">
        <ele>905.0</ele>
        <time>2018-05-26T08:13:28.164Z</time>
      </trkpt>
      <trkpt lat="40.72216333" lon="-3.86948667">
        <ele>905.0</ele>
        <time>2018-05-26T08:13:29.171Z</time>
      </trkpt>
      <trkpt lat="40.72217833" lon="-3.86949667">
        <ele>905.0</ele>
        <time>2018-05-26T08:13:30.158Z</time>
      </trkpt>
      <trkpt lat="40.72217833" lon="-3.86949667">
        <ele>905.0</ele>
        <time>2018-05-26T08:13:31.152Z</time>
      </trkpt>
      <trkpt lat="40.722195" lon="-3.86950333">
        <ele>905.0</ele>
        <time>2018-05-26T08:13:32.173Z</time>
      </trkpt>
      <trkpt lat="40.722195" lon="-3.86950333">
        <ele>905.0</ele>
        <time>2018-05-26T08:13:33.154Z</time>
      </trkpt>
      <trkpt lat="40.72220167" lon="-3.86950333">
        <ele>905.0</ele>
        <time>2018-05-26T08:13:34.143Z</time>
      </trkpt>
      <trkpt lat="40.72220167" lon="-3.86950333">
        <ele>905.0</ele>
        <time>2018-05-26T08:13:35.163Z</time>
      </trkpt>
      <trkpt lat="40.72227333" lon="-3.86947667">
        <ele>904.0</ele>
        <time>2018-05-26T08:13:36.155Z</time>
      </trkpt>
      <trkpt lat="40.72227333" lon="-3.86947667">
        <ele>904.0</ele>
        <time>2018-05-26T08:13:37.144Z</time>
      </trkpt>
      <trkpt lat="40.72231167" lon="-3.869455">
        <ele>905.0</ele>
        <time>2018-05-26T08:13:38.202Z</time>
      </trkpt>
      <trkpt lat="40.72231167" lon="-3.869455">
        <ele>905.0</ele>
        <time>2018-05-26T08:13:39.145Z</time>
      </trkpt>
      <trkpt lat="40.72235667" lon="-3.869435">
        <ele>905.0</ele>
        <time>2018-05-26T08:13:40.155Z</time>
      </trkpt>
      <trkpt lat="40.72235667" lon="-3.869435">
        <ele>905.0</ele>
        <time>2018-05-26T08:13:41.159Z</time>
      </trkpt>
      <trkpt lat="40.72241667" lon="-3.86942">
        <ele>905.0</ele>
        <time>2018-05-26T08:13:42.170Z</time>
      </trkpt>
      <trkpt lat="40.72241667" lon="-3.86942">
        <ele>905.0</ele>
        <time>2018-05-26T08:13:43.163Z</time>
      </trkpt>
      <trkpt lat="40.722485" lon="-3.869405">
        <ele>904.0</ele>
        <time>2018-05-26T08:13:44.174Z</time>
      </trkpt>
      <trkpt lat="40.722485" lon="-3.869405">
        <ele>904.0</ele>
        <time>2018-05-26T08:13:45.160Z</time>
      </trkpt>
      <trkpt lat="40.72255833" lon="-3.86939167">
        <ele>904.0</ele>
        <time>2018-05-26T08:13:46.174Z</time>
      </trkpt>
      <trkpt lat="40.72255833" lon="-3.86939167">
        <ele>904.0</ele>
        <time>2018-05-26T08:13:47.158Z</time>
      </trkpt>
      <trkpt lat="40.722635" lon="-3.86938833">
        <ele>905.0</ele>
        <time>2018-05-26T08:13:48.169Z</time>
      </trkpt>
      <trkpt lat="40.72267333" lon="-3.86939">
        <ele>904.0</ele>
        <time>2018-05-26T08:13:49.164Z</time>
      </trkpt>
      <trkpt lat="40.72267333" lon="-3.86939">
        <ele>904.0</ele>
        <time>2018-05-26T08:13:50.161Z</time>
      </trkpt>
      <trkpt lat="40.72274667" lon="-3.86938667">
        <ele>904.0</ele>
        <time>2018-05-26T08:13:51.136Z</time>
      </trkpt>
      <trkpt lat="40.72278333" lon="-3.86938333">
        <ele>904.0</ele>
        <time>2018-05-26T08:13:52.144Z</time>
      </trkpt>
      <trkpt lat="40.72278333" lon="-3.86938333">
        <ele>904.0</ele>
        <time>2018-05-26T08:13:53.138Z</time>
      </trkpt>
      <trkpt lat="40.72285667" lon="-3.86938333">
        <ele>904.0</ele>
        <time>2018-05-26T08:13:54.150Z</time>
      </trkpt>
      <trkpt lat="40.72285667" lon="-3.86938333">
        <ele>904.0</ele>
        <time>2018-05-26T08:13:55.165Z</time>
      </trkpt>
      <trkpt lat="40.72293" lon="-3.86938833">
        <ele>904.0</ele>
        <time>2018-05-26T08:13:56.176Z</time>
      </trkpt>
      <trkpt lat="40.72293" lon="-3.86938833">
        <ele>904.0</ele>
        <time>2018-05-26T08:13:57.159Z</time>
      </trkpt>
      <trkpt lat="40.72300167" lon="-3.86938833">
        <ele>904.0</ele>
        <time>2018-05-26T08:13:58.172Z</time>
      </trkpt>
      <trkpt lat="40.72300167" lon="-3.86938833">
        <ele>904.0</ele>
        <time>2018-05-26T08:13:59.141Z</time>
      </trkpt>
      <trkpt lat="40.72307667" lon="-3.86939167">
        <ele>904.0</ele>
        <time>2018-05-26T08:14:00.157Z</time>
      </trkpt>
      <trkpt lat="40.72311333" lon="-3.86939333">
        <ele>904.0</ele>
        <time>2018-05-26T08:14:01.156Z</time>
      </trkpt>
      <trkpt lat="40.72311333" lon="-3.86939333">
        <ele>904.0</ele>
        <time>2018-05-26T08:14:02.136Z</time>
      </trkpt>
      <trkpt lat="40.72318333" lon="-3.869385">
        <ele>904.0</ele>
        <time>2018-05-26T08:14:03.156Z</time>
      </trkpt>
      <trkpt lat="40.723215" lon="-3.86938667">
        <ele>904.0</ele>
        <time>2018-05-26T08:14:04.177Z</time>
      </trkpt>
      <trkpt lat="40.723215" lon="-3.86938667">
        <ele>904.0</ele>
        <time>2018-05-26T08:14:05.158Z</time>
      </trkpt>
      <trkpt lat="40.72327833" lon="-3.86939833">
        <ele>904.0</ele>
        <time>2018-05-26T08:14:06.167Z</time>
      </trkpt>
      <trkpt lat="40.72327833" lon="-3.86939833">
        <ele>904.0</ele>
        <time>2018-05-26T08:14:07.158Z</time>
      </trkpt>
      <trkpt lat="40.72334333" lon="-3.86940667">
        <ele>905.0</ele>
        <time>2018-05-26T08:14:08.173Z</time>
      </trkpt>
      <trkpt lat="40.72334333" lon="-3.86940667">
        <ele>905.0</ele>
        <time>2018-05-26T08:14:09.148Z</time>
      </trkpt>
      <trkpt lat="40.72341" lon="-3.86940667">
        <ele>905.0</ele>
        <time>2018-05-26T08:14:10.139Z</time>
      </trkpt>
      <trkpt lat="40.72341" lon="-3.86940667">
        <ele>905.0</ele>
        <time>2018-05-26T08:14:11.148Z</time>
      </trkpt>
      <trkpt lat="40.72347667" lon="-3.869385">
        <ele>906.0</ele>
        <time>2018-05-26T08:14:12.161Z</time>
      </trkpt>
      <trkpt lat="40.72347667" lon="-3.869385">
        <ele>906.0</ele>
        <time>2018-05-26T08:14:13.137Z</time>
      </trkpt>
      <trkpt lat="40.72354" lon="-3.869345">
        <ele>906.0</ele>
        <time>2018-05-26T08:14:14.156Z</time>
      </trkpt>
      <trkpt lat="40.72354" lon="-3.869345">
        <ele>906.0</ele>
        <time>2018-05-26T08:14:15.139Z</time>
      </trkpt>
      <trkpt lat="40.72360333" lon="-3.86929333">
        <ele>905.0</ele>
        <time>2018-05-26T08:14:16.140Z</time>
      </trkpt>
      <trkpt lat="40.72360333" lon="-3.86929333">
        <ele>905.0</ele>
        <time>2018-05-26T08:14:17.144Z</time>
      </trkpt>
      <trkpt lat="40.723665" lon="-3.86923">
        <ele>905.0</ele>
        <time>2018-05-26T08:14:18.161Z</time>
      </trkpt>
      <trkpt lat="40.723665" lon="-3.86923">
        <ele>905.0</ele>
        <time>2018-05-26T08:14:19.136Z</time>
      </trkpt>
      <trkpt lat="40.72373" lon="-3.869165">
        <ele>905.0</ele>
        <time>2018-05-26T08:14:20.143Z</time>
      </trkpt>
      <trkpt lat="40.72376167" lon="-3.86913167">
        <ele>905.0</ele>
        <time>2018-05-26T08:14:21.162Z</time>
      </trkpt>
      <trkpt lat="40.72376167" lon="-3.86913167">
        <ele>905.0</ele>
        <time>2018-05-26T08:14:22.160Z</time>
      </trkpt>
      <trkpt lat="40.72382667" lon="-3.869065">
        <ele>905.0</ele>
        <time>2018-05-26T08:14:23.169Z</time>
      </trkpt>
      <trkpt lat="40.72382667" lon="-3.869065">
        <ele>905.0</ele>
        <time>2018-05-26T08:14:24.174Z</time>
      </trkpt>
      <trkpt lat="40.72389833" lon="-3.869">
        <ele>905.0</ele>
        <time>2018-05-26T08:14:25.148Z</time>
      </trkpt>
      <trkpt lat="40.72389833" lon="-3.869">
        <ele>905.0</ele>
        <time>2018-05-26T08:14:26.170Z</time>
      </trkpt>
      <trkpt lat="40.723965" lon="-3.86892667">
        <ele>905.0</ele>
        <time>2018-05-26T08:14:27.141Z</time>
      </trkpt>
      <trkpt lat="40.72399667" lon="-3.86889">
        <ele>905.0</ele>
        <time>2018-05-26T08:14:28.167Z</time>
      </trkpt>
      <trkpt lat="40.72399667" lon="-3.86889">
        <ele>905.0</ele>
        <time>2018-05-26T08:14:29.165Z</time>
      </trkpt>
      <trkpt lat="40.72406" lon="-3.86881667">
        <ele>904.0</ele>
        <time>2018-05-26T08:14:30.142Z</time>
      </trkpt>
      <trkpt lat="40.72409167" lon="-3.86878">
        <ele>904.0</ele>
        <time>2018-05-26T08:14:31.145Z</time>
      </trkpt>
      <trkpt lat="40.72409167" lon="-3.86878">
        <ele>904.0</ele>
        <time>2018-05-26T08:14:32.140Z</time>
      </trkpt>
      <trkpt lat="40.72415167" lon="-3.86871167">
        <ele>903.0</ele>
        <time>2018-05-26T08:14:33.153Z</time>
      </trkpt>
      <trkpt lat="40.72418333" lon="-3.86867833">
        <ele>903.0</ele>
        <time>2018-05-26T08:14:34.144Z</time>
      </trkpt>
      <trkpt lat="40.72418333" lon="-3.86867833">
        <ele>903.0</ele>
        <time>2018-05-26T08:14:35.147Z</time>
      </trkpt>
      <trkpt lat="40.72425" lon="-3.868605">
        <ele>903.0</ele>
        <time>2018-05-26T08:14:36.158Z</time>
      </trkpt>
      <trkpt lat="40.72425" lon="-3.868605">
        <ele>903.0</ele>
        <time>2018-05-26T08:14:37.137Z</time>
      </trkpt>
      <trkpt lat="40.72431833" lon="-3.86854">
        <ele>903.0</ele>
        <time>2018-05-26T08:14:38.167Z</time>
      </trkpt>
      <trkpt lat="40.72431833" lon="-3.86854">
        <ele>903.0</ele>
        <time>2018-05-26T08:14:39.138Z</time>
      </trkpt>
      <trkpt lat="40.72439167" lon="-3.86847333">
        <ele>902.0</ele>
        <time>2018-05-26T08:14:40.150Z</time>
      </trkpt>
      <trkpt lat="40.72439167" lon="-3.86847333">
        <ele>902.0</ele>
        <time>2018-05-26T08:14:41.167Z</time>
      </trkpt>
      <trkpt lat="40.72446167" lon="-3.86840833">
        <ele>904.0</ele>
        <time>2018-05-26T08:14:42.141Z</time>
      </trkpt>
      <trkpt lat="40.72449833" lon="-3.86837833">
        <ele>905.0</ele>
        <time>2018-05-26T08:14:43.170Z</time>
      </trkpt>
      <trkpt lat="40.72453333" lon="-3.86835">
        <ele>905.0</ele>
        <time>2018-05-26T08:14:44.150Z</time>
      </trkpt>
      <trkpt lat="40.72453333" lon="-3.86835">
        <ele>905.0</ele>
        <time>2018-05-26T08:14:45.158Z</time>
      </trkpt>
      <trkpt lat="40.72461167" lon="-3.86830167">
        <ele>907.0</ele>
        <time>2018-05-26T08:14:46.167Z</time>
      </trkpt>
      <trkpt lat="40.72461167" lon="-3.86830167">
        <ele>907.0</ele>
        <time>2018-05-26T08:14:47.139Z</time>
      </trkpt>
      <trkpt lat="40.72468333" lon="-3.868265">
        <ele>907.0</ele>
        <time>2018-05-26T08:14:48.171Z</time>
      </trkpt>
      <trkpt lat="40.72468333" lon="-3.868265">
        <ele>907.0</ele>
        <time>2018-05-26T08:14:49.153Z</time>
      </trkpt>
      <trkpt lat="40.72474667" lon="-3.86821167">
        <ele>907.0</ele>
        <time>2018-05-26T08:14:50.160Z</time>
      </trkpt>
      <trkpt lat="40.72474667" lon="-3.86821167">
        <ele>907.0</ele>
        <time>2018-05-26T08:14:51.169Z</time>
      </trkpt>
      <trkpt lat="40.72480333" lon="-3.86814833">
        <ele>907.0</ele>
        <time>2018-05-26T08:14:52.148Z</time>
      </trkpt>
      <trkpt lat="40.72480333" lon="-3.86814833">
        <ele>907.0</ele>
        <time>2018-05-26T08:14:53.136Z</time>
      </trkpt>
      <trkpt lat="40.72485333" lon="-3.86807">
        <ele>906.0</ele>
        <time>2018-05-26T08:14:54.144Z</time>
      </trkpt>
      <trkpt lat="40.72487833" lon="-3.868025">
        <ele>906.0</ele>
        <time>2018-05-26T08:14:55.170Z</time>
      </trkpt>
      <trkpt lat="40.72487833" lon="-3.868025">
        <ele>906.0</ele>
        <time>2018-05-26T08:14:56.144Z</time>
      </trkpt>
      <trkpt lat="40.72493833" lon="-3.86794333">
        <ele>905.0</ele>
        <time>2018-05-26T08:14:57.154Z</time>
      </trkpt>
      <trkpt lat="40.72493833" lon="-3.86794333">
        <ele>905.0</ele>
        <time>2018-05-26T08:14:58.162Z</time>
      </trkpt>
      <trkpt lat="40.72502333" lon="-3.86788833">
        <ele>905.0</ele>
        <time>2018-05-26T08:14:59.160Z</time>
      </trkpt>
      <trkpt lat="40.72502333" lon="-3.86788833">
        <ele>905.0</ele>
        <time>2018-05-26T08:15:00.137Z</time>
      </trkpt>
      <trkpt lat="40.72512" lon="-3.86787667">
        <ele>906.0</ele>
        <time>2018-05-26T08:15:01.158Z</time>
      </trkpt>
      <trkpt lat="40.72516667" lon="-3.86788667">
        <ele>906.0</ele>
        <time>2018-05-26T08:15:02.167Z</time>
      </trkpt>
      <trkpt lat="40.72521167" lon="-3.86790333">
        <ele>906.0</ele>
        <time>2018-05-26T08:15:03.156Z</time>
      </trkpt>
      <trkpt lat="40.72521167" lon="-3.86790333">
        <ele>906.0</ele>
        <time>2018-05-26T08:15:04.169Z</time>
      </trkpt>
      <trkpt lat="40.72530333" lon="-3.86793833">
        <ele>907.0</ele>
        <time>2018-05-26T08:15:05.142Z</time>
      </trkpt>
      <trkpt lat="40.72530333" lon="-3.86793833">
        <ele>907.0</ele>
        <time>2018-05-26T08:15:06.151Z</time>
      </trkpt>
      <trkpt lat="40.725395" lon="-3.86796833">
        <ele>908.0</ele>
        <time>2018-05-26T08:15:07.169Z</time>
      </trkpt>
      <trkpt lat="40.725395" lon="-3.86796833">
        <ele>908.0</ele>
        <time>2018-05-26T08:15:08.142Z</time>
      </trkpt>
      <trkpt lat="40.72548667" lon="-3.867985">
        <ele>909.0</ele>
        <time>2018-05-26T08:15:09.156Z</time>
      </trkpt>
      <trkpt lat="40.72548667" lon="-3.867985">
        <ele>909.0</ele>
        <time>2018-05-26T08:15:10.138Z</time>
      </trkpt>
      <trkpt lat="40.72557667" lon="-3.86798333">
        <ele>909.0</ele>
        <time>2018-05-26T08:15:11.136Z</time>
      </trkpt>
      <trkpt lat="40.72557667" lon="-3.86798333">
        <ele>909.0</ele>
        <time>2018-05-26T08:15:12.153Z</time>
      </trkpt>
      <trkpt lat="40.72567333" lon="-3.86800333">
        <ele>909.0</ele>
        <time>2018-05-26T08:15:13.166Z</time>
      </trkpt>
      <trkpt lat="40.725715" lon="-3.86804333">
        <ele>908.0</ele>
        <time>2018-05-26T08:15:14.169Z</time>
      </trkpt>
      <trkpt lat="40.725715" lon="-3.86804333">
        <ele>908.0</ele>
        <time>2018-05-26T08:15:15.143Z</time>
      </trkpt>
      <trkpt lat="40.72575667" lon="-3.86816">
        <ele>908.0</ele>
        <time>2018-05-26T08:15:16.177Z</time>
      </trkpt>
      <trkpt lat="40.72575667" lon="-3.86816">
        <ele>908.0</ele>
        <time>2018-05-26T08:15:17.162Z</time>
      </trkpt>
      <trkpt lat="40.72576833" lon="-3.86827667">
        <ele>909.0</ele>
        <time>2018-05-26T08:15:18.139Z</time>
      </trkpt>
      <trkpt lat="40.72576833" lon="-3.86827667">
        <ele>909.0</ele>
        <time>2018-05-26T08:15:19.162Z</time>
      </trkpt>
      <trkpt lat="40.725775" lon="-3.86838667">
        <ele>909.0</ele>
        <time>2018-05-26T08:15:20.164Z</time>
      </trkpt>
      <trkpt lat="40.725775" lon="-3.86838667">
        <ele>909.0</ele>
        <time>2018-05-26T08:15:21.144Z</time>
      </trkpt>
      <trkpt lat="40.72578333" lon="-3.86849">
        <ele>909.0</ele>
        <time>2018-05-26T08:15:22.153Z</time>
      </trkpt>
      <trkpt lat="40.72578333" lon="-3.86849">
        <ele>909.0</ele>
        <time>2018-05-26T08:15:23.174Z</time>
      </trkpt>
      <trkpt lat="40.72579667" lon="-3.86858167">
        <ele>910.0</ele>
        <time>2018-05-26T08:15:24.161Z</time>
      </trkpt>
      <trkpt lat="40.72579667" lon="-3.86858167">
        <ele>910.0</ele>
        <time>2018-05-26T08:15:25.172Z</time>
      </trkpt>
      <trkpt lat="40.7258" lon="-3.86866167">
        <ele>911.0</ele>
        <time>2018-05-26T08:15:26.142Z</time>
      </trkpt>
      <trkpt lat="40.7258" lon="-3.86869833">
        <ele>911.0</ele>
        <time>2018-05-26T08:15:27.154Z</time>
      </trkpt>
      <trkpt lat="40.72579833" lon="-3.86873667">
        <ele>912.0</ele>
        <time>2018-05-26T08:15:28.157Z</time>
      </trkpt>
      <trkpt lat="40.72579833" lon="-3.86873667">
        <ele>912.0</ele>
        <time>2018-05-26T08:15:29.139Z</time>
      </trkpt>
      <trkpt lat="40.725795" lon="-3.86881667">
        <ele>912.0</ele>
        <time>2018-05-26T08:15:30.150Z</time>
      </trkpt>
      <trkpt lat="40.725795" lon="-3.86881667">
        <ele>912.0</ele>
        <time>2018-05-26T08:15:31.156Z</time>
      </trkpt>
      <trkpt lat="40.72578833" lon="-3.868895">
        <ele>913.0</ele>
        <time>2018-05-26T08:15:32.169Z</time>
      </trkpt>
      <trkpt lat="40.72578833" lon="-3.868895">
        <ele>913.0</ele>
        <time>2018-05-26T08:15:33.148Z</time>
      </trkpt>
      <trkpt lat="40.72578833" lon="-3.86897">
        <ele>914.0</ele>
        <time>2018-05-26T08:15:34.177Z</time>
      </trkpt>
      <trkpt lat="40.72578833" lon="-3.86897">
        <ele>914.0</ele>
        <time>2018-05-26T08:15:35.146Z</time>
      </trkpt>
      <trkpt lat="40.72578667" lon="-3.86904">
        <ele>914.0</ele>
        <time>2018-05-26T08:15:36.147Z</time>
      </trkpt>
      <trkpt lat="40.72578333" lon="-3.86907333">
        <ele>915.0</ele>
        <time>2018-05-26T08:15:37.161Z</time>
      </trkpt>
      <trkpt lat="40.72578333" lon="-3.86907333">
        <ele>915.0</ele>
        <time>2018-05-26T08:15:38.138Z</time>
      </trkpt>
      <trkpt lat="40.72578167" lon="-3.86914167">
        <ele>915.0</ele>
        <time>2018-05-26T08:15:39.149Z</time>
      </trkpt>
      <trkpt lat="40.72578" lon="-3.86917667">
        <ele>915.0</ele>
        <time>2018-05-26T08:15:40.171Z</time>
      </trkpt>
      <trkpt lat="40.72578" lon="-3.86917667">
        <ele>915.0</ele>
        <time>2018-05-26T08:15:41.139Z</time>
      </trkpt>
      <trkpt lat="40.725775" lon="-3.869255">
        <ele>916.0</ele>
        <time>2018-05-26T08:15:42.151Z</time>
      </trkpt>
      <trkpt lat="40.725775" lon="-3.869255">
        <ele>916.0</ele>
        <time>2018-05-26T08:15:43.168Z</time>
      </trkpt>
      <trkpt lat="40.725775" lon="-3.86934">
        <ele>916.0</ele>
        <time>2018-05-26T08:15:44.171Z</time>
      </trkpt>
      <trkpt lat="40.725775" lon="-3.86934">
        <ele>916.0</ele>
        <time>2018-05-26T08:15:45.137Z</time>
      </trkpt>
      <trkpt lat="40.72577333" lon="-3.86941667">
        <ele>917.0</ele>
        <time>2018-05-26T08:15:46.159Z</time>
      </trkpt>
      <trkpt lat="40.72577333" lon="-3.86941667">
        <ele>917.0</ele>
        <time>2018-05-26T08:15:47.169Z</time>
      </trkpt>
      <trkpt lat="40.72577167" lon="-3.86949833">
        <ele>918.0</ele>
        <time>2018-05-26T08:15:48.168Z</time>
      </trkpt>
      <trkpt lat="40.72577167" lon="-3.86949833">
        <ele>918.0</ele>
        <time>2018-05-26T08:15:49.141Z</time>
      </trkpt>
      <trkpt lat="40.72576667" lon="-3.86958333">
        <ele>918.0</ele>
        <time>2018-05-26T08:15:50.150Z</time>
      </trkpt>
      <trkpt lat="40.72576667" lon="-3.86958333">
        <ele>918.0</ele>
        <time>2018-05-26T08:15:51.160Z</time>
      </trkpt>
      <trkpt lat="40.72576333" lon="-3.86967">
        <ele>919.0</ele>
        <time>2018-05-26T08:15:52.177Z</time>
      </trkpt>
      <trkpt lat="40.72576333" lon="-3.86967">
        <ele>919.0</ele>
        <time>2018-05-26T08:15:53.166Z</time>
      </trkpt>
      <trkpt lat="40.72575333" lon="-3.86975667">
        <ele>920.0</ele>
        <time>2018-05-26T08:15:54.138Z</time>
      </trkpt>
      <trkpt lat="40.72574833" lon="-3.8698">
        <ele>920.0</ele>
        <time>2018-05-26T08:15:55.151Z</time>
      </trkpt>
      <trkpt lat="40.72574833" lon="-3.8698">
        <ele>920.0</ele>
        <time>2018-05-26T08:15:56.147Z</time>
      </trkpt>
      <trkpt lat="40.725735" lon="-3.86988833">
        <ele>920.0</ele>
        <time>2018-05-26T08:15:57.166Z</time>
      </trkpt>
      <trkpt lat="40.72572833" lon="-3.869935">
        <ele>921.0</ele>
        <time>2018-05-26T08:15:58.146Z</time>
      </trkpt>
      <trkpt lat="40.72572167" lon="-3.86998333">
        <ele>921.0</ele>
        <time>2018-05-26T08:15:59.168Z</time>
      </trkpt>
      <trkpt lat="40.72572167" lon="-3.86998333">
        <ele>921.0</ele>
        <time>2018-05-26T08:16:00.146Z</time>
      </trkpt>
      <trkpt lat="40.725705" lon="-3.870085">
        <ele>921.0</ele>
        <time>2018-05-26T08:16:01.158Z</time>
      </trkpt>
      <trkpt lat="40.725705" lon="-3.870085">
        <ele>921.0</ele>
        <time>2018-05-26T08:16:02.167Z</time>
      </trkpt>
      <trkpt lat="40.725685" lon="-3.87019333">
        <ele>921.0</ele>
        <time>2018-05-26T08:16:03.144Z</time>
      </trkpt>
      <trkpt lat="40.72567667" lon="-3.87025167">
        <ele>920.0</ele>
        <time>2018-05-26T08:16:04.147Z</time>
      </trkpt>
      <trkpt lat="40.72567667" lon="-3.87025167">
        <ele>920.0</ele>
        <time>2018-05-26T08:16:05.156Z</time>
      </trkpt>
      <trkpt lat="40.72566" lon="-3.87037333">
        <ele>920.0</ele>
        <time>2018-05-26T08:16:06.174Z</time>
      </trkpt>
      <trkpt lat="40.72565833" lon="-3.87043833">
        <ele>920.0</ele>
        <time>2018-05-26T08:16:07.143Z</time>
      </trkpt>
      <trkpt lat="40.72565833" lon="-3.87043833">
        <ele>920.0</ele>
        <time>2018-05-26T08:16:08.152Z</time>
      </trkpt>
      <trkpt lat="40.72565667" lon="-3.87057333">
        <ele>920.0</ele>
        <time>2018-05-26T08:16:09.170Z</time>
      </trkpt>
      <trkpt lat="40.72565667" lon="-3.87063833">
        <ele>920.0</ele>
        <time>2018-05-26T08:16:10.141Z</time>
      </trkpt>
      <trkpt lat="40.72565667" lon="-3.87063833">
        <ele>920.0</ele>
        <time>2018-05-26T08:16:11.150Z</time>
      </trkpt>
      <trkpt lat="40.725655" lon="-3.87077167">
        <ele>920.0</ele>
        <time>2018-05-26T08:16:12.169Z</time>
      </trkpt>
      <trkpt lat="40.725655" lon="-3.87077167">
        <ele>920.0</ele>
        <time>2018-05-26T08:16:13.139Z</time>
      </trkpt>
      <trkpt lat="40.72566" lon="-3.87090333">
        <ele>920.0</ele>
        <time>2018-05-26T08:16:14.147Z</time>
      </trkpt>
      <trkpt lat="40.72566" lon="-3.87090333">
        <ele>920.0</ele>
        <time>2018-05-26T08:16:15.156Z</time>
      </trkpt>
      <trkpt lat="40.72567333" lon="-3.87102667">
        <ele>920.0</ele>
        <time>2018-05-26T08:16:16.152Z</time>
      </trkpt>
      <trkpt lat="40.72567333" lon="-3.87102667">
        <ele>920.0</ele>
        <time>2018-05-26T08:16:17.145Z</time>
      </trkpt>
      <trkpt lat="40.72569167" lon="-3.87115167">
        <ele>919.0</ele>
        <time>2018-05-26T08:16:18.152Z</time>
      </trkpt>
      <trkpt lat="40.72570333" lon="-3.87121667">
        <ele>919.0</ele>
        <time>2018-05-26T08:16:19.161Z</time>
      </trkpt>
      <trkpt lat="40.72570333" lon="-3.87121667">
        <ele>919.0</ele>
        <time>2018-05-26T08:16:20.159Z</time>
      </trkpt>
      <trkpt lat="40.72572833" lon="-3.87135167">
        <ele>919.0</ele>
        <time>2018-05-26T08:16:21.166Z</time>
      </trkpt>
      <trkpt lat="40.72574" lon="-3.87141833">
        <ele>919.0</ele>
        <time>2018-05-26T08:16:22.146Z</time>
      </trkpt>
      <trkpt lat="40.72574" lon="-3.87141833">
        <ele>919.0</ele>
        <time>2018-05-26T08:16:23.156Z</time>
      </trkpt>
      <trkpt lat="40.72576833" lon="-3.87155">
        <ele>919.0</ele>
        <time>2018-05-26T08:16:24.163Z</time>
      </trkpt>
      <trkpt lat="40.72579" lon="-3.87161333">
        <ele>919.0</ele>
        <time>2018-05-26T08:16:25.142Z</time>
      </trkpt>
      <trkpt lat="40.72581333" lon="-3.87167333">
        <ele>919.0</ele>
        <time>2018-05-26T08:16:26.159Z</time>
      </trkpt>
      <trkpt lat="40.72581333" lon="-3.87167333">
        <ele>919.0</ele>
        <time>2018-05-26T08:16:27.139Z</time>
      </trkpt>
      <trkpt lat="40.72586667" lon="-3.87179">
        <ele>919.0</ele>
        <time>2018-05-26T08:16:28.174Z</time>
      </trkpt>
      <trkpt lat="40.72586667" lon="-3.87179">
        <ele>919.0</ele>
        <time>2018-05-26T08:16:29.150Z</time>
      </trkpt>
      <trkpt lat="40.72592333" lon="-3.8719">
        <ele>918.0</ele>
        <time>2018-05-26T08:16:30.158Z</time>
      </trkpt>
      <trkpt lat="40.72595167" lon="-3.87195167">
        <ele>918.0</ele>
        <time>2018-05-26T08:16:31.137Z</time>
      </trkpt>
      <trkpt lat="40.72595167" lon="-3.87195167">
        <ele>918.0</ele>
        <time>2018-05-26T08:16:32.166Z</time>
      </trkpt>
      <trkpt lat="40.72600333" lon="-3.872055">
        <ele>918.0</ele>
        <time>2018-05-26T08:16:33.143Z</time>
      </trkpt>
      <trkpt lat="40.72603" lon="-3.87211">
        <ele>918.0</ele>
        <time>2018-05-26T08:16:34.176Z</time>
      </trkpt>
      <trkpt lat="40.72603" lon="-3.87211">
        <ele>918.0</ele>
        <time>2018-05-26T08:16:35.137Z</time>
      </trkpt>
      <trkpt lat="40.72608167" lon="-3.87221667">
        <ele>918.0</ele>
        <time>2018-05-26T08:16:36.146Z</time>
      </trkpt>
      <trkpt lat="40.72608167" lon="-3.87221667">
        <ele>918.0</ele>
        <time>2018-05-26T08:16:37.156Z</time>
      </trkpt>
      <trkpt lat="40.72613" lon="-3.87231833">
        <ele>918.0</ele>
        <time>2018-05-26T08:16:38.159Z</time>
      </trkpt>
      <trkpt lat="40.72613" lon="-3.87231833">
        <ele>918.0</ele>
        <time>2018-05-26T08:16:39.146Z</time>
      </trkpt>
      <trkpt lat="40.72617333" lon="-3.87241833">
        <ele>918.0</ele>
        <time>2018-05-26T08:16:40.153Z</time>
      </trkpt>
      <trkpt lat="40.72617333" lon="-3.87241833">
        <ele>918.0</ele>
        <time>2018-05-26T08:16:41.159Z</time>
      </trkpt>
      <trkpt lat="40.72620667" lon="-3.87253">
        <ele>919.0</ele>
        <time>2018-05-26T08:16:42.150Z</time>
      </trkpt>
      <trkpt lat="40.72620667" lon="-3.87253">
        <ele>919.0</ele>
        <time>2018-05-26T08:16:43.169Z</time>
      </trkpt>
      <trkpt lat="40.72622333" lon="-3.872655">
        <ele>919.0</ele>
        <time>2018-05-26T08:16:44.140Z</time>
      </trkpt>
      <trkpt lat="40.72622833" lon="-3.87271667">
        <ele>920.0</ele>
        <time>2018-05-26T08:16:45.169Z</time>
      </trkpt>
      <trkpt lat="40.72622833" lon="-3.87271667">
        <ele>920.0</ele>
        <time>2018-05-26T08:16:46.172Z</time>
      </trkpt>
      <trkpt lat="40.72624167" lon="-3.87284">
        <ele>921.0</ele>
        <time>2018-05-26T08:16:47.140Z</time>
      </trkpt>
      <trkpt lat="40.72625167" lon="-3.87289833">
        <ele>921.0</ele>
        <time>2018-05-26T08:16:48.169Z</time>
      </trkpt>
      <trkpt lat="40.72625167" lon="-3.87289833">
        <ele>921.0</ele>
        <time>2018-05-26T08:16:49.166Z</time>
      </trkpt>
      <trkpt lat="40.726275" lon="-3.873005">
        <ele>921.0</ele>
        <time>2018-05-26T08:16:50.140Z</time>
      </trkpt>
      <trkpt lat="40.726275" lon="-3.873005">
        <ele>921.0</ele>
        <time>2018-05-26T08:16:51.149Z</time>
      </trkpt>
      <trkpt lat="40.72629" lon="-3.8731">
        <ele>922.0</ele>
        <time>2018-05-26T08:16:52.174Z</time>
      </trkpt>
      <trkpt lat="40.72629" lon="-3.8731">
        <ele>922.0</ele>
        <time>2018-05-26T08:16:53.146Z</time>
      </trkpt>
      <trkpt lat="40.72630333" lon="-3.87318333">
        <ele>922.0</ele>
        <time>2018-05-26T08:16:54.154Z</time>
      </trkpt>
      <trkpt lat="40.72631" lon="-3.87322333">
        <ele>923.0</ele>
        <time>2018-05-26T08:16:55.171Z</time>
      </trkpt>
      <trkpt lat="40.72631" lon="-3.87322333">
        <ele>923.0</ele>
        <time>2018-05-26T08:16:56.167Z</time>
      </trkpt>
      <trkpt lat="40.72632167" lon="-3.87329333">
        <ele>924.0</ele>
        <time>2018-05-26T08:16:57.137Z</time>
      </trkpt>
      <trkpt lat="40.72632667" lon="-3.87332833">
        <ele>924.0</ele>
        <time>2018-05-26T08:16:58.153Z</time>
      </trkpt>
      <trkpt lat="40.72632667" lon="-3.87332833">
        <ele>924.0</ele>
        <time>2018-05-26T08:16:59.157Z</time>
      </trkpt>
      <trkpt lat="40.726345" lon="-3.873395">
        <ele>925.0</ele>
        <time>2018-05-26T08:17:00.151Z</time>
      </trkpt>
      <trkpt lat="40.72635667" lon="-3.87342333">
        <ele>926.0</ele>
        <time>2018-05-26T08:17:01.142Z</time>
      </trkpt>
      <trkpt lat="40.72637167" lon="-3.87345167">
        <ele>926.0</ele>
        <time>2018-05-26T08:17:02.151Z</time>
      </trkpt>
      <trkpt lat="40.72637167" lon="-3.87345167">
        <ele>926.0</ele>
        <time>2018-05-26T08:17:03.162Z</time>
      </trkpt>
      <trkpt lat="40.72640333" lon="-3.87350833">
        <ele>927.0</ele>
        <time>2018-05-26T08:17:04.170Z</time>
      </trkpt>
      <trkpt lat="40.72640333" lon="-3.87350833">
        <ele>927.0</ele>
        <time>2018-05-26T08:17:05.142Z</time>
      </trkpt>
      <trkpt lat="40.726435" lon="-3.87356833">
        <ele>927.0</ele>
        <time>2018-05-26T08:17:06.160Z</time>
      </trkpt>
      <trkpt lat="40.726435" lon="-3.87356833">
        <ele>927.0</ele>
        <time>2018-05-26T08:17:07.153Z</time>
      </trkpt>
      <trkpt lat="40.72646167" lon="-3.87362833">
        <ele>928.0</ele>
        <time>2018-05-26T08:17:08.160Z</time>
      </trkpt>
      <trkpt lat="40.72647333" lon="-3.87365667">
        <ele>928.0</ele>
        <time>2018-05-26T08:17:09.172Z</time>
      </trkpt>
      <trkpt lat="40.72648333" lon="-3.87368167">
        <ele>928.0</ele>
        <time>2018-05-26T08:17:10.142Z</time>
      </trkpt>
      <trkpt lat="40.72648333" lon="-3.87368167">
        <ele>928.0</ele>
        <time>2018-05-26T08:17:11.151Z</time>
      </trkpt>
      <trkpt lat="40.72650167" lon="-3.873725">
        <ele>928.0</ele>
        <time>2018-05-26T08:17:12.159Z</time>
      </trkpt>
      <trkpt lat="40.72651" lon="-3.873745">
        <ele>929.0</ele>
        <time>2018-05-26T08:17:13.140Z</time>
      </trkpt>
      <trkpt lat="40.72651" lon="-3.873745">
        <ele>929.0</ele>
        <time>2018-05-26T08:17:14.149Z</time>
      </trkpt>
      <trkpt lat="40.726535" lon="-3.87377">
        <ele>929.0</ele>
        <time>2018-05-26T08:17:15.156Z</time>
      </trkpt>
      <trkpt lat="40.72654167" lon="-3.87378167">
        <ele>929.0</ele>
        <time>2018-05-26T08:17:16.177Z</time>
      </trkpt>
      <trkpt lat="40.72654167" lon="-3.87378167">
        <ele>929.0</ele>
        <time>2018-05-26T08:17:17.152Z</time>
      </trkpt>
      <trkpt lat="40.72655333" lon="-3.87381167">
        <ele>929.0</ele>
        <time>2018-05-26T08:17:18.162Z</time>
      </trkpt>
      <trkpt lat="40.72655333" lon="-3.87381167">
        <ele>929.0</ele>
        <time>2018-05-26T08:17:19.161Z</time>
      </trkpt>
      <trkpt lat="40.72656833" lon="-3.87384333">
        <ele>929.0</ele>
        <time>2018-05-26T08:17:20.169Z</time>
      </trkpt>
      <trkpt lat="40.72657833" lon="-3.87385833">
        <ele>929.0</ele>
        <time>2018-05-26T08:17:21.145Z</time>
      </trkpt>
      <trkpt lat="40.72658667" lon="-3.87387333">
        <ele>929.0</ele>
        <time>2018-05-26T08:17:22.161Z</time>
      </trkpt>
      <trkpt lat="40.72658667" lon="-3.87387333">
        <ele>929.0</ele>
        <time>2018-05-26T08:17:23.156Z</time>
      </trkpt>
      <trkpt lat="40.72660167" lon="-3.87390667">
        <ele>929.0</ele>
        <time>2018-05-26T08:17:24.163Z</time>
      </trkpt>
      <trkpt lat="40.72660167" lon="-3.87390667">
        <ele>929.0</ele>
        <time>2018-05-26T08:17:25.144Z</time>
      </trkpt>
      <trkpt lat="40.72660833" lon="-3.87394333">
        <ele>929.0</ele>
        <time>2018-05-26T08:17:26.173Z</time>
      </trkpt>
      <trkpt lat="40.72660833" lon="-3.87394333">
        <ele>929.0</ele>
        <time>2018-05-26T08:17:27.152Z</time>
      </trkpt>
      <trkpt lat="40.726625" lon="-3.87397167">
        <ele>929.0</ele>
        <time>2018-05-26T08:17:28.160Z</time>
      </trkpt>
      <trkpt lat="40.726625" lon="-3.87397167">
        <ele>929.0</ele>
        <time>2018-05-26T08:17:29.145Z</time>
      </trkpt>
      <trkpt lat="40.72664167" lon="-3.87400833">
        <ele>928.0</ele>
        <time>2018-05-26T08:17:30.152Z</time>
      </trkpt>
      <trkpt lat="40.72664833" lon="-3.87403">
        <ele>929.0</ele>
        <time>2018-05-26T08:17:31.161Z</time>
      </trkpt>
      <trkpt lat="40.72664833" lon="-3.87403">
        <ele>929.0</ele>
        <time>2018-05-26T08:17:32.143Z</time>
      </trkpt>
      <trkpt lat="40.72665833" lon="-3.874075">
        <ele>929.0</ele>
        <time>2018-05-26T08:17:33.157Z</time>
      </trkpt>
      <trkpt lat="40.72666" lon="-3.87409667">
        <ele>929.0</ele>
        <time>2018-05-26T08:17:34.166Z</time>
      </trkpt>
      <trkpt lat="40.72666" lon="-3.87409667">
        <ele>929.0</ele>
        <time>2018-05-26T08:17:35.175Z</time>
      </trkpt>
      <trkpt lat="40.726665" lon="-3.87414167">
        <ele>929.0</ele>
        <time>2018-05-26T08:17:36.143Z</time>
      </trkpt>
      <trkpt lat="40.726665" lon="-3.87416667">
        <ele>929.0</ele>
        <time>2018-05-26T08:17:37.158Z</time>
      </trkpt>
      <trkpt lat="40.726665" lon="-3.87416667">
        <ele>929.0</ele>
        <time>2018-05-26T08:17:38.166Z</time>
      </trkpt>
      <trkpt lat="40.726665" lon="-3.874225">
        <ele>929.0</ele>
        <time>2018-05-26T08:17:39.140Z</time>
      </trkpt>
      <trkpt lat="40.72666667" lon="-3.87425667">
        <ele>929.0</ele>
        <time>2018-05-26T08:17:40.148Z</time>
      </trkpt>
      <trkpt lat="40.72666667" lon="-3.87425667">
        <ele>929.0</ele>
        <time>2018-05-26T08:17:41.144Z</time>
      </trkpt>
      <trkpt lat="40.72666333" lon="-3.87432167">
        <ele>929.0</ele>
        <time>2018-05-26T08:17:42.147Z</time>
      </trkpt>
      <trkpt lat="40.72666333" lon="-3.87432167">
        <ele>929.0</ele>
        <time>2018-05-26T08:17:43.139Z</time>
      </trkpt>
      <trkpt lat="40.72666667" lon="-3.87438667">
        <ele>930.0</ele>
        <time>2018-05-26T08:17:44.147Z</time>
      </trkpt>
      <trkpt lat="40.72666667" lon="-3.87438667">
        <ele>930.0</ele>
        <time>2018-05-26T08:17:45.154Z</time>
      </trkpt>
      <trkpt lat="40.72667333" lon="-3.87445">
        <ele>930.0</ele>
        <time>2018-05-26T08:17:46.140Z</time>
      </trkpt>
      <trkpt lat="40.72667333" lon="-3.87445">
        <ele>930.0</ele>
        <time>2018-05-26T08:17:47.140Z</time>
      </trkpt>
      <trkpt lat="40.72667333" lon="-3.874515">
        <ele>930.0</ele>
        <time>2018-05-26T08:17:48.149Z</time>
      </trkpt>
      <trkpt lat="40.72667167" lon="-3.87455167">
        <ele>930.0</ele>
        <time>2018-05-26T08:17:49.140Z</time>
      </trkpt>
      <trkpt lat="40.72667167" lon="-3.87455167">
        <ele>930.0</ele>
        <time>2018-05-26T08:17:50.156Z</time>
      </trkpt>
      <trkpt lat="40.72667" lon="-3.874625">
        <ele>930.0</ele>
        <time>2018-05-26T08:17:51.166Z</time>
      </trkpt>
      <trkpt lat="40.72667" lon="-3.874625">
        <ele>930.0</ele>
        <time>2018-05-26T08:17:52.148Z</time>
      </trkpt>
      <trkpt lat="40.72666667" lon="-3.87470167">
        <ele>930.0</ele>
        <time>2018-05-26T08:17:53.182Z</time>
      </trkpt>
      <trkpt lat="40.72666667" lon="-3.87470167">
        <ele>930.0</ele>
        <time>2018-05-26T08:17:54.172Z</time>
      </trkpt>
      <trkpt lat="40.726665" lon="-3.87477833">
        <ele>931.0</ele>
        <time>2018-05-26T08:17:55.140Z</time>
      </trkpt>
      <trkpt lat="40.72666333" lon="-3.87481667">
        <ele>931.0</ele>
        <time>2018-05-26T08:17:56.154Z</time>
      </trkpt>
      <trkpt lat="40.72666333" lon="-3.87481667">
        <ele>931.0</ele>
        <time>2018-05-26T08:17:57.147Z</time>
      </trkpt>
      <trkpt lat="40.72665667" lon="-3.874905">
        <ele>931.0</ele>
        <time>2018-05-26T08:17:58.154Z</time>
      </trkpt>
      <trkpt lat="40.72665667" lon="-3.874905">
        <ele>931.0</ele>
        <time>2018-05-26T08:17:59.164Z</time>
      </trkpt>
      <trkpt lat="40.72664333" lon="-3.875005">
        <ele>930.0</ele>
        <time>2018-05-26T08:18:00.150Z</time>
      </trkpt>
      <trkpt lat="40.72664333" lon="-3.875005">
        <ele>930.0</ele>
        <time>2018-05-26T08:18:01.175Z</time>
      </trkpt>
      <trkpt lat="40.72662667" lon="-3.87511667">
        <ele>930.0</ele>
        <time>2018-05-26T08:18:02.142Z</time>
      </trkpt>
      <trkpt lat="40.72662667" lon="-3.87511667">
        <ele>930.0</ele>
        <time>2018-05-26T08:18:03.147Z</time>
      </trkpt>
      <trkpt lat="40.72660833" lon="-3.875235">
        <ele>929.0</ele>
        <time>2018-05-26T08:18:04.154Z</time>
      </trkpt>
      <trkpt lat="40.72660833" lon="-3.875235">
        <ele>929.0</ele>
        <time>2018-05-26T08:18:05.166Z</time>
      </trkpt>
      <trkpt lat="40.7266" lon="-3.87536833">
        <ele>929.0</ele>
        <time>2018-05-26T08:18:06.176Z</time>
      </trkpt>
      <trkpt lat="40.7266" lon="-3.87536833">
        <ele>929.0</ele>
        <time>2018-05-26T08:18:07.146Z</time>
      </trkpt>
      <trkpt lat="40.72658667" lon="-3.875525">
        <ele>928.0</ele>
        <time>2018-05-26T08:18:08.154Z</time>
      </trkpt>
      <trkpt lat="40.72658667" lon="-3.875525">
        <ele>928.0</ele>
        <time>2018-05-26T08:18:09.146Z</time>
      </trkpt>
      <trkpt lat="40.72657167" lon="-3.87570833">
        <ele>926.0</ele>
        <time>2018-05-26T08:18:10.171Z</time>
      </trkpt>
      <trkpt lat="40.72657167" lon="-3.87570833">
        <ele>926.0</ele>
        <time>2018-05-26T08:18:11.138Z</time>
      </trkpt>
      <trkpt lat="40.72658" lon="-3.875905">
        <ele>925.0</ele>
        <time>2018-05-26T08:18:12.146Z</time>
      </trkpt>
      <trkpt lat="40.72659333" lon="-3.87600167">
        <ele>924.0</ele>
        <time>2018-05-26T08:18:13.140Z</time>
      </trkpt>
      <trkpt lat="40.72659333" lon="-3.87600167">
        <ele>924.0</ele>
        <time>2018-05-26T08:18:14.141Z</time>
      </trkpt>
      <trkpt lat="40.726615" lon="-3.87619333">
        <ele>924.0</ele>
        <time>2018-05-26T08:18:15.149Z</time>
      </trkpt>
      <trkpt lat="40.726615" lon="-3.87619333">
        <ele>924.0</ele>
        <time>2018-05-26T08:18:16.157Z</time>
      </trkpt>
      <trkpt lat="40.72659333" lon="-3.87638">
        <ele>923.0</ele>
        <time>2018-05-26T08:18:17.174Z</time>
      </trkpt>
      <trkpt lat="40.72659333" lon="-3.87638">
        <ele>923.0</ele>
        <time>2018-05-26T08:18:18.141Z</time>
      </trkpt>
      <trkpt lat="40.72652333" lon="-3.87655667">
        <ele>922.0</ele>
        <time>2018-05-26T08:18:19.148Z</time>
      </trkpt>
      <trkpt lat="40.72652333" lon="-3.87655667">
        <ele>922.0</ele>
        <time>2018-05-26T08:18:20.156Z</time>
      </trkpt>
      <trkpt lat="40.726505" lon="-3.87675667">
        <ele>922.0</ele>
        <time>2018-05-26T08:18:21.167Z</time>
      </trkpt>
      <trkpt lat="40.726505" lon="-3.87675667">
        <ele>922.0</ele>
        <time>2018-05-26T08:18:22.157Z</time>
      </trkpt>
      <trkpt lat="40.72651667" lon="-3.87695833">
        <ele>922.0</ele>
        <time>2018-05-26T08:18:23.164Z</time>
      </trkpt>
      <trkpt lat="40.72651833" lon="-3.87706">
        <ele>922.0</ele>
        <time>2018-05-26T08:18:24.140Z</time>
      </trkpt>
      <trkpt lat="40.72651833" lon="-3.87706">
        <ele>922.0</ele>
        <time>2018-05-26T08:18:25.166Z</time>
      </trkpt>
      <trkpt lat="40.72651667" lon="-3.87726">
        <ele>921.0</ele>
        <time>2018-05-26T08:18:26.139Z</time>
      </trkpt>
      <trkpt lat="40.72651667" lon="-3.87726">
        <ele>921.0</ele>
        <time>2018-05-26T08:18:27.149Z</time>
      </trkpt>
      <trkpt lat="40.72651333" lon="-3.87745833">
        <ele>921.0</ele>
        <time>2018-05-26T08:18:28.136Z</time>
      </trkpt>
      <trkpt lat="40.72651167" lon="-3.87755667">
        <ele>921.0</ele>
        <time>2018-05-26T08:18:29.164Z</time>
      </trkpt>
      <trkpt lat="40.72651167" lon="-3.87755667">
        <ele>921.0</ele>
        <time>2018-05-26T08:18:30.174Z</time>
      </trkpt>
      <trkpt lat="40.72651333" lon="-3.87774833">
        <ele>921.0</ele>
        <time>2018-05-26T08:18:31.142Z</time>
      </trkpt>
      <trkpt lat="40.72651333" lon="-3.87774833">
        <ele>921.0</ele>
        <time>2018-05-26T08:18:32.170Z</time>
      </trkpt>
      <trkpt lat="40.72650833" lon="-3.87792833">
        <ele>921.0</ele>
        <time>2018-05-26T08:18:33.143Z</time>
      </trkpt>
      <trkpt lat="40.72649333" lon="-3.87801">
        <ele>921.0</ele>
        <time>2018-05-26T08:18:34.150Z</time>
      </trkpt>
      <trkpt lat="40.72649333" lon="-3.87801">
        <ele>921.0</ele>
        <time>2018-05-26T08:18:35.148Z</time>
      </trkpt>
      <trkpt lat="40.72644" lon="-3.87815667">
        <ele>922.0</ele>
        <time>2018-05-26T08:18:36.155Z</time>
      </trkpt>
      <trkpt lat="40.726425" lon="-3.87823833">
        <ele>922.0</ele>
        <time>2018-05-26T08:18:37.167Z</time>
      </trkpt>
      <trkpt lat="40.726425" lon="-3.87823833">
        <ele>922.0</ele>
        <time>2018-05-26T08:18:38.138Z</time>
      </trkpt>
      <trkpt lat="40.72641167" lon="-3.8784">
        <ele>922.0</ele>
        <time>2018-05-26T08:18:39.146Z</time>
      </trkpt>
      <trkpt lat="40.72640833" lon="-3.87847667">
        <ele>922.0</ele>
        <time>2018-05-26T08:18:40.163Z</time>
      </trkpt>
      <trkpt lat="40.72640833" lon="-3.87847667">
        <ele>922.0</ele>
        <time>2018-05-26T08:18:41.165Z</time>
      </trkpt>
      <trkpt lat="40.72640333" lon="-3.87862333">
        <ele>922.0</ele>
        <time>2018-05-26T08:18:42.174Z</time>
      </trkpt>
      <trkpt lat="40.72640333" lon="-3.87862333">
        <ele>922.0</ele>
        <time>2018-05-26T08:18:43.145Z</time>
      </trkpt>
      <trkpt lat="40.7264" lon="-3.878765">
        <ele>923.0</ele>
        <time>2018-05-26T08:18:44.171Z</time>
      </trkpt>
      <trkpt lat="40.7264" lon="-3.878835">
        <ele>923.0</ele>
        <time>2018-05-26T08:18:45.160Z</time>
      </trkpt>
      <trkpt lat="40.7264" lon="-3.878835">
        <ele>923.0</ele>
        <time>2018-05-26T08:18:46.169Z</time>
      </trkpt>
      <trkpt lat="40.72639833" lon="-3.878965">
        <ele>924.0</ele>
        <time>2018-05-26T08:18:47.139Z</time>
      </trkpt>
      <trkpt lat="40.72639833" lon="-3.878965">
        <ele>924.0</ele>
        <time>2018-05-26T08:18:48.151Z</time>
      </trkpt>
      <trkpt lat="40.72639" lon="-3.87907333">
        <ele>925.0</ele>
        <time>2018-05-26T08:18:49.158Z</time>
      </trkpt>
      <trkpt lat="40.72639" lon="-3.87907333">
        <ele>925.0</ele>
        <time>2018-05-26T08:18:50.169Z</time>
      </trkpt>
      <trkpt lat="40.72637667" lon="-3.87916167">
        <ele>925.0</ele>
        <time>2018-05-26T08:18:51.148Z</time>
      </trkpt>
      <trkpt lat="40.72637667" lon="-3.87916167">
        <ele>925.0</ele>
        <time>2018-05-26T08:18:52.157Z</time>
      </trkpt>
      <trkpt lat="40.72635833" lon="-3.87924333">
        <ele>926.0</ele>
        <time>2018-05-26T08:18:53.164Z</time>
      </trkpt>
      <trkpt lat="40.72635167" lon="-3.87927833">
        <ele>926.0</ele>
        <time>2018-05-26T08:18:54.158Z</time>
      </trkpt>
      <trkpt lat="40.72635167" lon="-3.87927833">
        <ele>926.0</ele>
        <time>2018-05-26T08:18:55.146Z</time>
      </trkpt>
      <trkpt lat="40.72634" lon="-3.879345">
        <ele>927.0</ele>
        <time>2018-05-26T08:18:56.154Z</time>
      </trkpt>
      <trkpt lat="40.72634" lon="-3.879345">
        <ele>927.0</ele>
        <time>2018-05-26T08:18:57.165Z</time>
      </trkpt>
      <trkpt lat="40.72633167" lon="-3.87940833">
        <ele>927.0</ele>
        <time>2018-05-26T08:18:58.139Z</time>
      </trkpt>
      <trkpt lat="40.72633167" lon="-3.87940833">
        <ele>927.0</ele>
        <time>2018-05-26T08:18:59.149Z</time>
      </trkpt>
      <trkpt lat="40.72632333" lon="-3.87947667">
        <ele>928.0</ele>
        <time>2018-05-26T08:19:00.143Z</time>
      </trkpt>
      <trkpt lat="40.72632333" lon="-3.87947667">
        <ele>928.0</ele>
        <time>2018-05-26T08:19:01.137Z</time>
      </trkpt>
      <trkpt lat="40.726315" lon="-3.87955833">
        <ele>928.0</ele>
        <time>2018-05-26T08:19:02.147Z</time>
      </trkpt>
      <trkpt lat="40.726315" lon="-3.87955833">
        <ele>928.0</ele>
        <time>2018-05-26T08:19:03.157Z</time>
      </trkpt>
      <trkpt lat="40.72630667" lon="-3.87964667">
        <ele>928.0</ele>
        <time>2018-05-26T08:19:04.171Z</time>
      </trkpt>
      <trkpt lat="40.72630667" lon="-3.87964667">
        <ele>928.0</ele>
        <time>2018-05-26T08:19:05.166Z</time>
      </trkpt>
      <trkpt lat="40.726295" lon="-3.87973667">
        <ele>928.0</ele>
        <time>2018-05-26T08:19:06.174Z</time>
      </trkpt>
      <trkpt lat="40.72628667" lon="-3.879785">
        <ele>928.0</ele>
        <time>2018-05-26T08:19:07.148Z</time>
      </trkpt>
      <trkpt lat="40.72628667" lon="-3.879785">
        <ele>928.0</ele>
        <time>2018-05-26T08:19:08.163Z</time>
      </trkpt>
      <trkpt lat="40.726265" lon="-3.87989833">
        <ele>928.0</ele>
        <time>2018-05-26T08:19:09.172Z</time>
      </trkpt>
      <trkpt lat="40.726265" lon="-3.87989833">
        <ele>928.0</ele>
        <time>2018-05-26T08:19:10.146Z</time>
      </trkpt>
      <trkpt lat="40.72624" lon="-3.88002333">
        <ele>928.0</ele>
        <time>2018-05-26T08:19:11.171Z</time>
      </trkpt>
      <trkpt lat="40.72624" lon="-3.88002333">
        <ele>928.0</ele>
        <time>2018-05-26T08:19:12.155Z</time>
      </trkpt>
      <trkpt lat="40.726205" lon="-3.880145">
        <ele>928.0</ele>
        <time>2018-05-26T08:19:13.162Z</time>
      </trkpt>
      <trkpt lat="40.72618833" lon="-3.88020667">
        <ele>928.0</ele>
        <time>2018-05-26T08:19:14.146Z</time>
      </trkpt>
      <trkpt lat="40.72618833" lon="-3.88020667">
        <ele>928.0</ele>
        <time>2018-05-26T08:19:15.155Z</time>
      </trkpt>
      <trkpt lat="40.726165" lon="-3.88033833">
        <ele>927.0</ele>
        <time>2018-05-26T08:19:16.166Z</time>
      </trkpt>
      <trkpt lat="40.726165" lon="-3.88033833">
        <ele>927.0</ele>
        <time>2018-05-26T08:19:17.156Z</time>
      </trkpt>
      <trkpt lat="40.72614833" lon="-3.88048667">
        <ele>927.0</ele>
        <time>2018-05-26T08:19:18.163Z</time>
      </trkpt>
      <trkpt lat="40.72614833" lon="-3.88048667">
        <ele>927.0</ele>
        <time>2018-05-26T08:19:19.136Z</time>
      </trkpt>
      <trkpt lat="40.72609333" lon="-3.88063667">
        <ele>926.0</ele>
        <time>2018-05-26T08:19:20.160Z</time>
      </trkpt>
      <trkpt lat="40.72605833" lon="-3.88071">
        <ele>925.0</ele>
        <time>2018-05-26T08:19:21.154Z</time>
      </trkpt>
      <trkpt lat="40.726025" lon="-3.88078833">
        <ele>925.0</ele>
        <time>2018-05-26T08:19:22.162Z</time>
      </trkpt>
      <trkpt lat="40.726025" lon="-3.88078833">
        <ele>925.0</ele>
        <time>2018-05-26T08:19:23.139Z</time>
      </trkpt>
      <trkpt lat="40.72596333" lon="-3.88095333">
        <ele>924.0</ele>
        <time>2018-05-26T08:19:24.146Z</time>
      </trkpt>
      <trkpt lat="40.72596333" lon="-3.88095333">
        <ele>924.0</ele>
        <time>2018-05-26T08:19:25.154Z</time>
      </trkpt>
      <trkpt lat="40.72590833" lon="-3.88112833">
        <ele>923.0</ele>
        <time>2018-05-26T08:19:26.137Z</time>
      </trkpt>
      <trkpt lat="40.72590833" lon="-3.88112833">
        <ele>923.0</ele>
        <time>2018-05-26T08:19:27.156Z</time>
      </trkpt>
      <trkpt lat="40.72587667" lon="-3.881285">
        <ele>922.0</ele>
        <time>2018-05-26T08:19:28.164Z</time>
      </trkpt>
      <trkpt lat="40.72587667" lon="-3.881285">
        <ele>922.0</ele>
        <time>2018-05-26T08:19:29.172Z</time>
      </trkpt>
      <trkpt lat="40.72583333" lon="-3.88143333">
        <ele>921.0</ele>
        <time>2018-05-26T08:19:30.171Z</time>
      </trkpt>
      <trkpt lat="40.72583333" lon="-3.88143333">
        <ele>921.0</ele>
        <time>2018-05-26T08:19:31.172Z</time>
      </trkpt>
      <trkpt lat="40.72580667" lon="-3.881575">
        <ele>920.0</ele>
        <time>2018-05-26T08:19:32.141Z</time>
      </trkpt>
      <trkpt lat="40.72579833" lon="-3.881655">
        <ele>919.0</ele>
        <time>2018-05-26T08:19:33.172Z</time>
      </trkpt>
      <trkpt lat="40.72579167" lon="-3.88174167">
        <ele>919.0</ele>
        <time>2018-05-26T08:19:34.148Z</time>
      </trkpt>
      <trkpt lat="40.72579167" lon="-3.88174167">
        <ele>919.0</ele>
        <time>2018-05-26T08:19:35.157Z</time>
      </trkpt>
      <trkpt lat="40.725775" lon="-3.88192833">
        <ele>918.0</ele>
        <time>2018-05-26T08:19:36.171Z</time>
      </trkpt>
      <trkpt lat="40.725775" lon="-3.88192833">
        <ele>918.0</ele>
        <time>2018-05-26T08:19:37.156Z</time>
      </trkpt>
      <trkpt lat="40.72573833" lon="-3.88211333">
        <ele>917.0</ele>
        <time>2018-05-26T08:19:38.169Z</time>
      </trkpt>
      <trkpt lat="40.72572333" lon="-3.882205">
        <ele>917.0</ele>
        <time>2018-05-26T08:19:39.181Z</time>
      </trkpt>
      <trkpt lat="40.72572333" lon="-3.882205">
        <ele>917.0</ele>
        <time>2018-05-26T08:19:40.166Z</time>
      </trkpt>
      <trkpt lat="40.7257" lon="-3.88239333">
        <ele>916.0</ele>
        <time>2018-05-26T08:19:41.138Z</time>
      </trkpt>
      <trkpt lat="40.72568167" lon="-3.882485">
        <ele>916.0</ele>
        <time>2018-05-26T08:19:42.155Z</time>
      </trkpt>
      <trkpt lat="40.72568167" lon="-3.882485">
        <ele>916.0</ele>
        <time>2018-05-26T08:19:43.140Z</time>
      </trkpt>
      <trkpt lat="40.72563333" lon="-3.88266">
        <ele>916.0</ele>
        <time>2018-05-26T08:19:44.148Z</time>
      </trkpt>
      <trkpt lat="40.725605" lon="-3.88274833">
        <ele>916.0</ele>
        <time>2018-05-26T08:19:45.157Z</time>
      </trkpt>
      <trkpt lat="40.725575" lon="-3.88283667">
        <ele>916.0</ele>
        <time>2018-05-26T08:19:46.149Z</time>
      </trkpt>
      <trkpt lat="40.725575" lon="-3.88283667">
        <ele>916.0</ele>
        <time>2018-05-26T08:19:47.157Z</time>
      </trkpt>
      <trkpt lat="40.72552" lon="-3.88301833">
        <ele>916.0</ele>
        <time>2018-05-26T08:19:48.157Z</time>
      </trkpt>
      <trkpt lat="40.72549667" lon="-3.88311167">
        <ele>916.0</ele>
        <time>2018-05-26T08:19:49.154Z</time>
      </trkpt>
      <trkpt lat="40.72549667" lon="-3.88311167">
        <ele>916.0</ele>
        <time>2018-05-26T08:19:50.163Z</time>
      </trkpt>
      <trkpt lat="40.72545667" lon="-3.88330167">
        <ele>916.0</ele>
        <time>2018-05-26T08:19:51.171Z</time>
      </trkpt>
      <trkpt lat="40.72545667" lon="-3.88330167">
        <ele>916.0</ele>
        <time>2018-05-26T08:19:52.162Z</time>
      </trkpt>
      <trkpt lat="40.72541167" lon="-3.883485">
        <ele>916.0</ele>
        <time>2018-05-26T08:19:53.170Z</time>
      </trkpt>
      <trkpt lat="40.72539333" lon="-3.88357667">
        <ele>916.0</ele>
        <time>2018-05-26T08:19:54.158Z</time>
      </trkpt>
      <trkpt lat="40.72538167" lon="-3.88367">
        <ele>916.0</ele>
        <time>2018-05-26T08:19:55.150Z</time>
      </trkpt>
      <trkpt lat="40.72537833" lon="-3.883765">
        <ele>915.0</ele>
        <time>2018-05-26T08:19:56.159Z</time>
      </trkpt>
      <trkpt lat="40.72537833" lon="-3.883765">
        <ele>915.0</ele>
        <time>2018-05-26T08:19:57.167Z</time>
      </trkpt>
      <trkpt lat="40.72537" lon="-3.88396167">
        <ele>915.0</ele>
        <time>2018-05-26T08:19:58.139Z</time>
      </trkpt>
      <trkpt lat="40.72537" lon="-3.88396167">
        <ele>915.0</ele>
        <time>2018-05-26T08:19:59.150Z</time>
      </trkpt>
      <trkpt lat="40.72534" lon="-3.884155">
        <ele>914.0</ele>
        <time>2018-05-26T08:20:00.151Z</time>
      </trkpt>
      <trkpt lat="40.72534" lon="-3.884155">
        <ele>914.0</ele>
        <time>2018-05-26T08:20:01.147Z</time>
      </trkpt>
      <trkpt lat="40.72526833" lon="-3.88431667">
        <ele>913.0</ele>
        <time>2018-05-26T08:20:02.153Z</time>
      </trkpt>
      <trkpt lat="40.72524833" lon="-3.88439667">
        <ele>913.0</ele>
        <time>2018-05-26T08:20:03.168Z</time>
      </trkpt>
      <trkpt lat="40.72523667" lon="-3.88447167">
        <ele>913.0</ele>
        <time>2018-05-26T08:20:04.153Z</time>
      </trkpt>
      <trkpt lat="40.72523667" lon="-3.88447167">
        <ele>913.0</ele>
        <time>2018-05-26T08:20:05.160Z</time>
      </trkpt>
      <trkpt lat="40.725225" lon="-3.88462167">
        <ele>914.0</ele>
        <time>2018-05-26T08:20:06.168Z</time>
      </trkpt>
      <trkpt lat="40.725225" lon="-3.88462167">
        <ele>914.0</ele>
        <time>2018-05-26T08:20:07.163Z</time>
      </trkpt>
      <trkpt lat="40.72520833" lon="-3.88477">
        <ele>914.0</ele>
        <time>2018-05-26T08:20:08.170Z</time>
      </trkpt>
      <trkpt lat="40.72519667" lon="-3.88484">
        <ele>914.0</ele>
        <time>2018-05-26T08:20:09.169Z</time>
      </trkpt>
      <trkpt lat="40.72519667" lon="-3.88484">
        <ele>914.0</ele>
        <time>2018-05-26T08:20:10.171Z</time>
      </trkpt>
      <trkpt lat="40.72517833" lon="-3.88498333">
        <ele>914.0</ele>
        <time>2018-05-26T08:20:11.138Z</time>
      </trkpt>
      <trkpt lat="40.72516833" lon="-3.88505167">
        <ele>914.0</ele>
        <time>2018-05-26T08:20:12.149Z</time>
      </trkpt>
      <trkpt lat="40.72515833" lon="-3.88512">
        <ele>914.0</ele>
        <time>2018-05-26T08:20:13.146Z</time>
      </trkpt>
      <trkpt lat="40.72515833" lon="-3.88512">
        <ele>914.0</ele>
        <time>2018-05-26T08:20:14.155Z</time>
      </trkpt>
      <trkpt lat="40.72514" lon="-3.88526">
        <ele>914.0</ele>
        <time>2018-05-26T08:20:15.163Z</time>
      </trkpt>
      <trkpt lat="40.72513333" lon="-3.88532833">
        <ele>914.0</ele>
        <time>2018-05-26T08:20:16.152Z</time>
      </trkpt>
      <trkpt lat="40.72513333" lon="-3.88532833">
        <ele>914.0</ele>
        <time>2018-05-26T08:20:17.160Z</time>
      </trkpt>
      <trkpt lat="40.72511333" lon="-3.885465">
        <ele>915.0</ele>
        <time>2018-05-26T08:20:18.171Z</time>
      </trkpt>
      <trkpt lat="40.72510333" lon="-3.88553167">
        <ele>915.0</ele>
        <time>2018-05-26T08:20:19.169Z</time>
      </trkpt>
      <trkpt lat="40.72510333" lon="-3.88553167">
        <ele>915.0</ele>
        <time>2018-05-26T08:20:20.139Z</time>
      </trkpt>
      <trkpt lat="40.72508667" lon="-3.88566833">
        <ele>915.0</ele>
        <time>2018-05-26T08:20:21.147Z</time>
      </trkpt>
      <trkpt lat="40.72508667" lon="-3.88566833">
        <ele>915.0</ele>
        <time>2018-05-26T08:20:22.141Z</time>
      </trkpt>
      <trkpt lat="40.72507167" lon="-3.88579833">
        <ele>916.0</ele>
        <time>2018-05-26T08:20:23.150Z</time>
      </trkpt>
      <trkpt lat="40.72507167" lon="-3.88579833">
        <ele>916.0</ele>
        <time>2018-05-26T08:20:24.168Z</time>
      </trkpt>
      <trkpt lat="40.72505167" lon="-3.885925">
        <ele>916.0</ele>
        <time>2018-05-26T08:20:25.168Z</time>
      </trkpt>
      <trkpt lat="40.72505167" lon="-3.885925">
        <ele>916.0</ele>
        <time>2018-05-26T08:20:26.168Z</time>
      </trkpt>
      <trkpt lat="40.72503" lon="-3.88604667">
        <ele>916.0</ele>
        <time>2018-05-26T08:20:27.175Z</time>
      </trkpt>
      <trkpt lat="40.72502" lon="-3.88611">
        <ele>916.0</ele>
        <time>2018-05-26T08:20:28.168Z</time>
      </trkpt>
      <trkpt lat="40.72502" lon="-3.88611">
        <ele>916.0</ele>
        <time>2018-05-26T08:20:29.144Z</time>
      </trkpt>
      <trkpt lat="40.72500833" lon="-3.88623833">
        <ele>917.0</ele>
        <time>2018-05-26T08:20:30.151Z</time>
      </trkpt>
      <trkpt lat="40.72500833" lon="-3.88623833">
        <ele>917.0</ele>
        <time>2018-05-26T08:20:31.139Z</time>
      </trkpt>
      <trkpt lat="40.72500833" lon="-3.88636667">
        <ele>917.0</ele>
        <time>2018-05-26T08:20:32.172Z</time>
      </trkpt>
      <trkpt lat="40.72500833" lon="-3.88636667">
        <ele>917.0</ele>
        <time>2018-05-26T08:20:33.148Z</time>
      </trkpt>
      <trkpt lat="40.72501833" lon="-3.88649">
        <ele>917.0</ele>
        <time>2018-05-26T08:20:34.155Z</time>
      </trkpt>
      <trkpt lat="40.72501833" lon="-3.88649">
        <ele>917.0</ele>
        <time>2018-05-26T08:20:35.152Z</time>
      </trkpt>
      <trkpt lat="40.72502833" lon="-3.88661">
        <ele>918.0</ele>
        <time>2018-05-26T08:20:36.171Z</time>
      </trkpt>
      <trkpt lat="40.72502833" lon="-3.88661">
        <ele>918.0</ele>
        <time>2018-05-26T08:20:37.137Z</time>
      </trkpt>
      <trkpt lat="40.725025" lon="-3.886725">
        <ele>918.0</ele>
        <time>2018-05-26T08:20:38.146Z</time>
      </trkpt>
      <trkpt lat="40.72501833" lon="-3.88678333">
        <ele>918.0</ele>
        <time>2018-05-26T08:20:39.169Z</time>
      </trkpt>
      <trkpt lat="40.72501" lon="-3.88684167">
        <ele>919.0</ele>
        <time>2018-05-26T08:20:40.157Z</time>
      </trkpt>
      <trkpt lat="40.72501" lon="-3.88684167">
        <ele>919.0</ele>
        <time>2018-05-26T08:20:41.175Z</time>
      </trkpt>
      <trkpt lat="40.72499167" lon="-3.88695833">
        <ele>919.0</ele>
        <time>2018-05-26T08:20:42.142Z</time>
      </trkpt>
      <trkpt lat="40.72499167" lon="-3.88695833">
        <ele>919.0</ele>
        <time>2018-05-26T08:20:43.136Z</time>
      </trkpt>
      <trkpt lat="40.72496333" lon="-3.88708333">
        <ele>918.0</ele>
        <time>2018-05-26T08:20:44.143Z</time>
      </trkpt>
      <trkpt lat="40.72496333" lon="-3.88708333">
        <ele>918.0</ele>
        <time>2018-05-26T08:20:45.144Z</time>
      </trkpt>
      <trkpt lat="40.72492333" lon="-3.88722167">
        <ele>918.0</ele>
        <time>2018-05-26T08:20:46.147Z</time>
      </trkpt>
      <trkpt lat="40.72492333" lon="-3.88722167">
        <ele>918.0</ele>
        <time>2018-05-26T08:20:47.142Z</time>
      </trkpt>
      <trkpt lat="40.72488333" lon="-3.887345">
        <ele>919.0</ele>
        <time>2018-05-26T08:20:48.149Z</time>
      </trkpt>
      <trkpt lat="40.72488167" lon="-3.887405">
        <ele>919.0</ele>
        <time>2018-05-26T08:20:49.175Z</time>
      </trkpt>
      <trkpt lat="40.72488167" lon="-3.887405">
        <ele>919.0</ele>
        <time>2018-05-26T08:20:50.162Z</time>
      </trkpt>
      <trkpt lat="40.72487833" lon="-3.887525">
        <ele>919.0</ele>
        <time>2018-05-26T08:20:51.169Z</time>
      </trkpt>
      <trkpt lat="40.72487333" lon="-3.88758167">
        <ele>919.0</ele>
        <time>2018-05-26T08:20:52.158Z</time>
      </trkpt>
      <trkpt lat="40.72487333" lon="-3.88758167">
        <ele>919.0</ele>
        <time>2018-05-26T08:20:53.155Z</time>
      </trkpt>
      <trkpt lat="40.72485833" lon="-3.88769333">
        <ele>919.0</ele>
        <time>2018-05-26T08:20:54.162Z</time>
      </trkpt>
      <trkpt lat="40.72485167" lon="-3.88774667">
        <ele>920.0</ele>
        <time>2018-05-26T08:20:55.170Z</time>
      </trkpt>
      <trkpt lat="40.72485167" lon="-3.88774667">
        <ele>920.0</ele>
        <time>2018-05-26T08:20:56.166Z</time>
      </trkpt>
      <trkpt lat="40.72482833" lon="-3.88784833">
        <ele>920.0</ele>
        <time>2018-05-26T08:20:57.174Z</time>
      </trkpt>
      <trkpt lat="40.72480333" lon="-3.887895">
        <ele>920.0</ele>
        <time>2018-05-26T08:20:58.173Z</time>
      </trkpt>
      <trkpt lat="40.72480333" lon="-3.887895">
        <ele>920.0</ele>
        <time>2018-05-26T08:20:59.167Z</time>
      </trkpt>
      <trkpt lat="40.72474833" lon="-3.88797167">
        <ele>920.0</ele>
        <time>2018-05-26T08:21:00.151Z</time>
      </trkpt>
      <trkpt lat="40.724725" lon="-3.88801167">
        <ele>921.0</ele>
        <time>2018-05-26T08:21:01.160Z</time>
      </trkpt>
      <trkpt lat="40.724725" lon="-3.88801167">
        <ele>921.0</ele>
        <time>2018-05-26T08:21:02.146Z</time>
      </trkpt>
      <trkpt lat="40.72468333" lon="-3.88809833">
        <ele>921.0</ele>
        <time>2018-05-26T08:21:03.151Z</time>
      </trkpt>
      <trkpt lat="40.72466167" lon="-3.88814333">
        <ele>921.0</ele>
        <time>2018-05-26T08:21:04.156Z</time>
      </trkpt>
      <trkpt lat="40.72466167" lon="-3.88814333">
        <ele>921.0</ele>
        <time>2018-05-26T08:21:05.143Z</time>
      </trkpt>
      <trkpt lat="40.724615" lon="-3.888235">
        <ele>922.0</ele>
        <time>2018-05-26T08:21:06.154Z</time>
      </trkpt>
      <trkpt lat="40.724615" lon="-3.888235">
        <ele>922.0</ele>
        <time>2018-05-26T08:21:07.167Z</time>
      </trkpt>
      <trkpt lat="40.724565" lon="-3.88832667">
        <ele>922.0</ele>
        <time>2018-05-26T08:21:08.137Z</time>
      </trkpt>
      <trkpt lat="40.724565" lon="-3.88832667">
        <ele>922.0</ele>
        <time>2018-05-26T08:21:09.143Z</time>
      </trkpt>
      <trkpt lat="40.72451833" lon="-3.888415">
        <ele>923.0</ele>
        <time>2018-05-26T08:21:10.175Z</time>
      </trkpt>
      <trkpt lat="40.72451833" lon="-3.888415">
        <ele>923.0</ele>
        <time>2018-05-26T08:21:11.167Z</time>
      </trkpt>
      <trkpt lat="40.72447333" lon="-3.88850167">
        <ele>924.0</ele>
        <time>2018-05-26T08:21:12.137Z</time>
      </trkpt>
      <trkpt lat="40.72447333" lon="-3.88850167">
        <ele>924.0</ele>
        <time>2018-05-26T08:21:13.156Z</time>
      </trkpt>
      <trkpt lat="40.72443167" lon="-3.88858333">
        <ele>925.0</ele>
        <time>2018-05-26T08:21:14.170Z</time>
      </trkpt>
      <trkpt lat="40.72443167" lon="-3.88858333">
        <ele>925.0</ele>
        <time>2018-05-26T08:21:15.139Z</time>
      </trkpt>
      <trkpt lat="40.72438833" lon="-3.88865667">
        <ele>926.0</ele>
        <time>2018-05-26T08:21:16.146Z</time>
      </trkpt>
      <trkpt lat="40.72438833" lon="-3.88865667">
        <ele>926.0</ele>
        <time>2018-05-26T08:21:17.175Z</time>
      </trkpt>
      <trkpt lat="40.72435167" lon="-3.88873667">
        <ele>927.0</ele>
        <time>2018-05-26T08:21:18.161Z</time>
      </trkpt>
      <trkpt lat="40.72435167" lon="-3.88873667">
        <ele>927.0</ele>
        <time>2018-05-26T08:21:19.152Z</time>
      </trkpt>
      <trkpt lat="40.72431667" lon="-3.88881333">
        <ele>927.0</ele>
        <time>2018-05-26T08:21:20.158Z</time>
      </trkpt>
      <trkpt lat="40.7243" lon="-3.88885167">
        <ele>928.0</ele>
        <time>2018-05-26T08:21:21.153Z</time>
      </trkpt>
      <trkpt lat="40.7243" lon="-3.88885167">
        <ele>928.0</ele>
        <time>2018-05-26T08:21:22.171Z</time>
      </trkpt>
      <trkpt lat="40.724275" lon="-3.88893333">
        <ele>929.0</ele>
        <time>2018-05-26T08:21:23.140Z</time>
      </trkpt>
      <trkpt lat="40.724265" lon="-3.888975">
        <ele>929.0</ele>
        <time>2018-05-26T08:21:24.171Z</time>
      </trkpt>
      <trkpt lat="40.724265" lon="-3.888975">
        <ele>929.0</ele>
        <time>2018-05-26T08:21:25.137Z</time>
      </trkpt>
      <trkpt lat="40.72424333" lon="-3.88905167">
        <ele>930.0</ele>
        <time>2018-05-26T08:21:26.144Z</time>
      </trkpt>
      <trkpt lat="40.72422833" lon="-3.889085">
        <ele>930.0</ele>
        <time>2018-05-26T08:21:27.141Z</time>
      </trkpt>
      <trkpt lat="40.72422833" lon="-3.889085">
        <ele>930.0</ele>
        <time>2018-05-26T08:21:28.140Z</time>
      </trkpt>
      <trkpt lat="40.7242" lon="-3.88915167">
        <ele>931.0</ele>
        <time>2018-05-26T08:21:29.153Z</time>
      </trkpt>
      <trkpt lat="40.7242" lon="-3.88915167">
        <ele>931.0</ele>
        <time>2018-05-26T08:21:30.139Z</time>
      </trkpt>
      <trkpt lat="40.72417" lon="-3.88922333">
        <ele>932.0</ele>
        <time>2018-05-26T08:21:31.139Z</time>
      </trkpt>
      <trkpt lat="40.72415667" lon="-3.88926333">
        <ele>932.0</ele>
        <time>2018-05-26T08:21:32.143Z</time>
      </trkpt>
      <trkpt lat="40.72415667" lon="-3.88926333">
        <ele>932.0</ele>
        <time>2018-05-26T08:21:33.162Z</time>
      </trkpt>
      <trkpt lat="40.72412667" lon="-3.88933667">
        <ele>933.0</ele>
        <time>2018-05-26T08:21:34.172Z</time>
      </trkpt>
      <trkpt lat="40.72412667" lon="-3.88933667">
        <ele>933.0</ele>
        <time>2018-05-26T08:21:35.149Z</time>
      </trkpt>
      <trkpt lat="40.724095" lon="-3.88941333">
        <ele>934.0</ele>
        <time>2018-05-26T08:21:36.156Z</time>
      </trkpt>
      <trkpt lat="40.72408167" lon="-3.889455">
        <ele>934.0</ele>
        <time>2018-05-26T08:21:37.142Z</time>
      </trkpt>
      <trkpt lat="40.72408167" lon="-3.889455">
        <ele>934.0</ele>
        <time>2018-05-26T08:21:38.151Z</time>
      </trkpt>
      <trkpt lat="40.724055" lon="-3.88953667">
        <ele>934.0</ele>
        <time>2018-05-26T08:21:39.160Z</time>
      </trkpt>
      <trkpt lat="40.72404" lon="-3.88958">
        <ele>934.0</ele>
        <time>2018-05-26T08:21:40.171Z</time>
      </trkpt>
      <trkpt lat="40.72404" lon="-3.88958">
        <ele>934.0</ele>
        <time>2018-05-26T08:21:41.148Z</time>
      </trkpt>
      <trkpt lat="40.72400833" lon="-3.889665">
        <ele>935.0</ele>
        <time>2018-05-26T08:21:42.157Z</time>
      </trkpt>
      <trkpt lat="40.72400833" lon="-3.889665">
        <ele>935.0</ele>
        <time>2018-05-26T08:21:43.143Z</time>
      </trkpt>
      <trkpt lat="40.72398" lon="-3.88974833">
        <ele>935.0</ele>
        <time>2018-05-26T08:21:44.177Z</time>
      </trkpt>
      <trkpt lat="40.72398" lon="-3.88974833">
        <ele>935.0</ele>
        <time>2018-05-26T08:21:45.150Z</time>
      </trkpt>
      <trkpt lat="40.72395833" lon="-3.88983833">
        <ele>935.0</ele>
        <time>2018-05-26T08:21:46.156Z</time>
      </trkpt>
      <trkpt lat="40.72395833" lon="-3.88983833">
        <ele>935.0</ele>
        <time>2018-05-26T08:21:47.144Z</time>
      </trkpt>
      <trkpt lat="40.72394333" lon="-3.88993167">
        <ele>935.0</ele>
        <time>2018-05-26T08:21:48.172Z</time>
      </trkpt>
      <trkpt lat="40.72394333" lon="-3.88993167">
        <ele>935.0</ele>
        <time>2018-05-26T08:21:49.157Z</time>
      </trkpt>
      <trkpt lat="40.72392667" lon="-3.89002333">
        <ele>935.0</ele>
        <time>2018-05-26T08:21:50.148Z</time>
      </trkpt>
      <trkpt lat="40.72392667" lon="-3.89002333">
        <ele>935.0</ele>
        <time>2018-05-26T08:21:51.168Z</time>
      </trkpt>
      <trkpt lat="40.72391333" lon="-3.89011667">
        <ele>936.0</ele>
        <time>2018-05-26T08:21:52.175Z</time>
      </trkpt>
      <trkpt lat="40.72391333" lon="-3.89011667">
        <ele>936.0</ele>
        <time>2018-05-26T08:21:53.168Z</time>
      </trkpt>
      <trkpt lat="40.723905" lon="-3.89021667">
        <ele>936.0</ele>
        <time>2018-05-26T08:21:54.175Z</time>
      </trkpt>
      <trkpt lat="40.72390167" lon="-3.89026667">
        <ele>936.0</ele>
        <time>2018-05-26T08:21:55.181Z</time>
      </trkpt>
      <trkpt lat="40.72390167" lon="-3.89026667">
        <ele>936.0</ele>
        <time>2018-05-26T08:21:56.174Z</time>
      </trkpt>
      <trkpt lat="40.72389667" lon="-3.89037167">
        <ele>936.0</ele>
        <time>2018-05-26T08:21:57.142Z</time>
      </trkpt>
      <trkpt lat="40.72389667" lon="-3.89037167">
        <ele>936.0</ele>
        <time>2018-05-26T08:21:58.170Z</time>
      </trkpt>
      <trkpt lat="40.72390167" lon="-3.89047833">
        <ele>936.0</ele>
        <time>2018-05-26T08:21:59.139Z</time>
      </trkpt>
      <trkpt lat="40.72390167" lon="-3.89047833">
        <ele>936.0</ele>
        <time>2018-05-26T08:22:00.148Z</time>
      </trkpt>
      <trkpt lat="40.72390667" lon="-3.89058167">
        <ele>936.0</ele>
        <time>2018-05-26T08:22:01.144Z</time>
      </trkpt>
      <trkpt lat="40.72391" lon="-3.89063333">
        <ele>936.0</ele>
        <time>2018-05-26T08:22:02.144Z</time>
      </trkpt>
      <trkpt lat="40.72391" lon="-3.89063333">
        <ele>936.0</ele>
        <time>2018-05-26T08:22:03.138Z</time>
      </trkpt>
      <trkpt lat="40.72392" lon="-3.89074">
        <ele>936.0</ele>
        <time>2018-05-26T08:22:04.145Z</time>
      </trkpt>
      <trkpt lat="40.72392" lon="-3.89074">
        <ele>936.0</ele>
        <time>2018-05-26T08:22:05.151Z</time>
      </trkpt>
      <trkpt lat="40.72393" lon="-3.89085">
        <ele>936.0</ele>
        <time>2018-05-26T08:22:06.159Z</time>
      </trkpt>
      <trkpt lat="40.72393333" lon="-3.89090667">
        <ele>936.0</ele>
        <time>2018-05-26T08:22:07.149Z</time>
      </trkpt>
      <trkpt lat="40.72393333" lon="-3.89090667">
        <ele>936.0</ele>
        <time>2018-05-26T08:22:08.144Z</time>
      </trkpt>
      <trkpt lat="40.72394333" lon="-3.89102">
        <ele>936.0</ele>
        <time>2018-05-26T08:22:09.177Z</time>
      </trkpt>
      <trkpt lat="40.72394667" lon="-3.89107667">
        <ele>936.0</ele>
        <time>2018-05-26T08:22:10.167Z</time>
      </trkpt>
      <trkpt lat="40.72394667" lon="-3.89107667">
        <ele>936.0</ele>
        <time>2018-05-26T08:22:11.153Z</time>
      </trkpt>
      <trkpt lat="40.72395" lon="-3.89118667">
        <ele>937.0</ele>
        <time>2018-05-26T08:22:12.161Z</time>
      </trkpt>
      <trkpt lat="40.72395" lon="-3.89118667">
        <ele>937.0</ele>
        <time>2018-05-26T08:22:13.143Z</time>
      </trkpt>
      <trkpt lat="40.72394833" lon="-3.89129">
        <ele>937.0</ele>
        <time>2018-05-26T08:22:14.151Z</time>
      </trkpt>
      <trkpt lat="40.72394833" lon="-3.89129">
        <ele>937.0</ele>
        <time>2018-05-26T08:22:15.138Z</time>
      </trkpt>
      <trkpt lat="40.72394333" lon="-3.89138333">
        <ele>938.0</ele>
        <time>2018-05-26T08:22:16.171Z</time>
      </trkpt>
      <trkpt lat="40.72394333" lon="-3.89138333">
        <ele>938.0</ele>
        <time>2018-05-26T08:22:17.140Z</time>
      </trkpt>
      <trkpt lat="40.72392833" lon="-3.89147">
        <ele>938.0</ele>
        <time>2018-05-26T08:22:18.148Z</time>
      </trkpt>
      <trkpt lat="40.72392" lon="-3.891515">
        <ele>939.0</ele>
        <time>2018-05-26T08:22:19.146Z</time>
      </trkpt>
      <trkpt lat="40.72391333" lon="-3.89155833">
        <ele>939.0</ele>
        <time>2018-05-26T08:22:20.144Z</time>
      </trkpt>
      <trkpt lat="40.72391333" lon="-3.89155833">
        <ele>939.0</ele>
        <time>2018-05-26T08:22:21.160Z</time>
      </trkpt>
      <trkpt lat="40.72389667" lon="-3.89164833">
        <ele>939.0</ele>
        <time>2018-05-26T08:22:22.167Z</time>
      </trkpt>
      <trkpt lat="40.72389667" lon="-3.89164833">
        <ele>939.0</ele>
        <time>2018-05-26T08:22:23.162Z</time>
      </trkpt>
      <trkpt lat="40.72387833" lon="-3.89175167">
        <ele>939.0</ele>
        <time>2018-05-26T08:22:24.169Z</time>
      </trkpt>
      <trkpt lat="40.72387833" lon="-3.89175167">
        <ele>939.0</ele>
        <time>2018-05-26T08:22:25.155Z</time>
      </trkpt>
      <trkpt lat="40.72385833" lon="-3.89185">
        <ele>939.0</ele>
        <time>2018-05-26T08:22:26.165Z</time>
      </trkpt>
      <trkpt lat="40.72385833" lon="-3.89185">
        <ele>939.0</ele>
        <time>2018-05-26T08:22:27.148Z</time>
      </trkpt>
      <trkpt lat="40.72383167" lon="-3.891945">
        <ele>939.0</ele>
        <time>2018-05-26T08:22:28.155Z</time>
      </trkpt>
      <trkpt lat="40.72383167" lon="-3.891945">
        <ele>939.0</ele>
        <time>2018-05-26T08:22:29.164Z</time>
      </trkpt>
      <trkpt lat="40.72380667" lon="-3.892045">
        <ele>940.0</ele>
        <time>2018-05-26T08:22:30.141Z</time>
      </trkpt>
      <trkpt lat="40.72379667" lon="-3.89209333">
        <ele>940.0</ele>
        <time>2018-05-26T08:22:31.168Z</time>
      </trkpt>
      <trkpt lat="40.72379667" lon="-3.89209333">
        <ele>940.0</ele>
        <time>2018-05-26T08:22:32.165Z</time>
      </trkpt>
      <trkpt lat="40.72377667" lon="-3.89218833">
        <ele>940.0</ele>
        <time>2018-05-26T08:22:33.137Z</time>
      </trkpt>
      <trkpt lat="40.72376833" lon="-3.89223333">
        <ele>941.0</ele>
        <time>2018-05-26T08:22:34.163Z</time>
      </trkpt>
      <trkpt lat="40.72376833" lon="-3.89223333">
        <ele>941.0</ele>
        <time>2018-05-26T08:22:35.158Z</time>
      </trkpt>
      <trkpt lat="40.72375" lon="-3.89232">
        <ele>941.0</ele>
        <time>2018-05-26T08:22:36.164Z</time>
      </trkpt>
      <trkpt lat="40.72374" lon="-3.89236333">
        <ele>942.0</ele>
        <time>2018-05-26T08:22:37.153Z</time>
      </trkpt>
      <trkpt lat="40.72374" lon="-3.89236333">
        <ele>942.0</ele>
        <time>2018-05-26T08:22:38.136Z</time>
      </trkpt>
      <trkpt lat="40.72371833" lon="-3.89245">
        <ele>942.0</ele>
        <time>2018-05-26T08:22:39.144Z</time>
      </trkpt>
      <trkpt lat="40.72370667" lon="-3.89249167">
        <ele>942.0</ele>
        <time>2018-05-26T08:22:40.181Z</time>
      </trkpt>
      <trkpt lat="40.72370667" lon="-3.89249167">
        <ele>942.0</ele>
        <time>2018-05-26T08:22:41.138Z</time>
      </trkpt>
      <trkpt lat="40.72368833" lon="-3.89257833">
        <ele>943.0</ele>
        <time>2018-05-26T08:22:42.146Z</time>
      </trkpt>
      <trkpt lat="40.72367833" lon="-3.89262167">
        <ele>943.0</ele>
        <time>2018-05-26T08:22:43.174Z</time>
      </trkpt>
      <trkpt lat="40.72366833" lon="-3.89266333">
        <ele>943.0</ele>
        <time>2018-05-26T08:22:44.164Z</time>
      </trkpt>
      <trkpt lat="40.723655" lon="-3.8927">
        <ele>944.0</ele>
        <time>2018-05-26T08:22:45.153Z</time>
      </trkpt>
      <trkpt lat="40.723655" lon="-3.8927">
        <ele>944.0</ele>
        <time>2018-05-26T08:22:46.138Z</time>
      </trkpt>
      <trkpt lat="40.723635" lon="-3.89278667">
        <ele>944.0</ele>
        <time>2018-05-26T08:22:47.145Z</time>
      </trkpt>
      <trkpt lat="40.723635" lon="-3.89278667">
        <ele>944.0</ele>
        <time>2018-05-26T08:22:48.139Z</time>
      </trkpt>
      <trkpt lat="40.72361333" lon="-3.892885">
        <ele>944.0</ele>
        <time>2018-05-26T08:22:49.157Z</time>
      </trkpt>
      <trkpt lat="40.72361333" lon="-3.892885">
        <ele>944.0</ele>
        <time>2018-05-26T08:22:50.137Z</time>
      </trkpt>
      <trkpt lat="40.72358833" lon="-3.89298333">
        <ele>945.0</ele>
        <time>2018-05-26T08:22:51.144Z</time>
      </trkpt>
      <trkpt lat="40.72357667" lon="-3.89303167">
        <ele>945.0</ele>
        <time>2018-05-26T08:22:52.143Z</time>
      </trkpt>
      <trkpt lat="40.72357667" lon="-3.89303167">
        <ele>945.0</ele>
        <time>2018-05-26T08:22:53.153Z</time>
      </trkpt>
      <trkpt lat="40.72355833" lon="-3.89313">
        <ele>946.0</ele>
        <time>2018-05-26T08:22:54.160Z</time>
      </trkpt>
      <trkpt lat="40.72355833" lon="-3.89313">
        <ele>946.0</ele>
        <time>2018-05-26T08:22:55.148Z</time>
      </trkpt>
      <trkpt lat="40.72354333" lon="-3.89322333">
        <ele>946.0</ele>
        <time>2018-05-26T08:22:56.173Z</time>
      </trkpt>
      <trkpt lat="40.72354333" lon="-3.89322333">
        <ele>946.0</ele>
        <time>2018-05-26T08:22:57.166Z</time>
      </trkpt>
      <trkpt lat="40.72353" lon="-3.893315">
        <ele>947.0</ele>
        <time>2018-05-26T08:22:58.172Z</time>
      </trkpt>
      <trkpt lat="40.72353" lon="-3.893315">
        <ele>947.0</ele>
        <time>2018-05-26T08:22:59.157Z</time>
      </trkpt>
      <trkpt lat="40.723515" lon="-3.89340333">
        <ele>948.0</ele>
        <time>2018-05-26T08:23:00.150Z</time>
      </trkpt>
      <trkpt lat="40.723515" lon="-3.89340333">
        <ele>948.0</ele>
        <time>2018-05-26T08:23:01.140Z</time>
      </trkpt>
      <trkpt lat="40.72350667" lon="-3.89349167">
        <ele>948.0</ele>
        <time>2018-05-26T08:23:02.153Z</time>
      </trkpt>
      <trkpt lat="40.72350667" lon="-3.89349167">
        <ele>948.0</ele>
        <time>2018-05-26T08:23:03.137Z</time>
      </trkpt>
      <trkpt lat="40.72350167" lon="-3.893585">
        <ele>948.0</ele>
        <time>2018-05-26T08:23:04.144Z</time>
      </trkpt>
      <trkpt lat="40.72350167" lon="-3.893585">
        <ele>948.0</ele>
        <time>2018-05-26T08:23:05.172Z</time>
      </trkpt>
      <trkpt lat="40.72349833" lon="-3.89368167">
        <ele>949.0</ele>
        <time>2018-05-26T08:23:06.140Z</time>
      </trkpt>
      <trkpt lat="40.72349833" lon="-3.89368167">
        <ele>949.0</ele>
        <time>2018-05-26T08:23:07.144Z</time>
      </trkpt>
      <trkpt lat="40.72348667" lon="-3.89378">
        <ele>949.0</ele>
        <time>2018-05-26T08:23:08.151Z</time>
      </trkpt>
      <trkpt lat="40.72348333" lon="-3.89382833">
        <ele>949.0</ele>
        <time>2018-05-26T08:23:09.171Z</time>
      </trkpt>
      <trkpt lat="40.72348333" lon="-3.89382833">
        <ele>949.0</ele>
        <time>2018-05-26T08:23:10.157Z</time>
      </trkpt>
      <trkpt lat="40.723475" lon="-3.89392667">
        <ele>949.0</ele>
        <time>2018-05-26T08:23:11.164Z</time>
      </trkpt>
      <trkpt lat="40.723475" lon="-3.89392667">
        <ele>949.0</ele>
        <time>2018-05-26T08:23:12.150Z</time>
      </trkpt>
      <trkpt lat="40.72347" lon="-3.89402667">
        <ele>950.0</ele>
        <time>2018-05-26T08:23:13.145Z</time>
      </trkpt>
      <trkpt lat="40.72346667" lon="-3.894075">
        <ele>950.0</ele>
        <time>2018-05-26T08:23:14.167Z</time>
      </trkpt>
      <trkpt lat="40.72346667" lon="-3.894075">
        <ele>950.0</ele>
        <time>2018-05-26T08:23:15.153Z</time>
      </trkpt>
      <trkpt lat="40.723455" lon="-3.89417833">
        <ele>951.0</ele>
        <time>2018-05-26T08:23:16.173Z</time>
      </trkpt>
      <trkpt lat="40.723455" lon="-3.89417833">
        <ele>951.0</ele>
        <time>2018-05-26T08:23:17.139Z</time>
      </trkpt>
      <trkpt lat="40.72344" lon="-3.89428333">
        <ele>951.0</ele>
        <time>2018-05-26T08:23:18.149Z</time>
      </trkpt>
      <trkpt lat="40.72344" lon="-3.89428333">
        <ele>951.0</ele>
        <time>2018-05-26T08:23:19.145Z</time>
      </trkpt>
      <trkpt lat="40.72342833" lon="-3.89439333">
        <ele>951.0</ele>
        <time>2018-05-26T08:23:20.157Z</time>
      </trkpt>
      <trkpt lat="40.72342333" lon="-3.89444833">
        <ele>951.0</ele>
        <time>2018-05-26T08:23:21.141Z</time>
      </trkpt>
      <trkpt lat="40.72342333" lon="-3.89444833">
        <ele>951.0</ele>
        <time>2018-05-26T08:23:22.169Z</time>
      </trkpt>
      <trkpt lat="40.723415" lon="-3.89456333">
        <ele>951.0</ele>
        <time>2018-05-26T08:23:23.159Z</time>
      </trkpt>
      <trkpt lat="40.723415" lon="-3.89456333">
        <ele>951.0</ele>
        <time>2018-05-26T08:23:24.149Z</time>
      </trkpt>
      <trkpt lat="40.723405" lon="-3.894685">
        <ele>951.0</ele>
        <time>2018-05-26T08:23:25.155Z</time>
      </trkpt>
      <trkpt lat="40.7234" lon="-3.89474833">
        <ele>951.0</ele>
        <time>2018-05-26T08:23:26.144Z</time>
      </trkpt>
      <trkpt lat="40.7234" lon="-3.89474833">
        <ele>951.0</ele>
        <time>2018-05-26T08:23:27.148Z</time>
      </trkpt>
      <trkpt lat="40.72339167" lon="-3.89488167">
        <ele>950.0</ele>
        <time>2018-05-26T08:23:28.154Z</time>
      </trkpt>
      <trkpt lat="40.72339167" lon="-3.89488167">
        <ele>950.0</ele>
        <time>2018-05-26T08:23:29.164Z</time>
      </trkpt>
      <trkpt lat="40.72338333" lon="-3.895025">
        <ele>950.0</ele>
        <time>2018-05-26T08:23:30.175Z</time>
      </trkpt>
      <trkpt lat="40.72338333" lon="-3.895025">
        <ele>950.0</ele>
        <time>2018-05-26T08:23:31.142Z</time>
      </trkpt>
      <trkpt lat="40.72337333" lon="-3.89517667">
        <ele>950.0</ele>
        <time>2018-05-26T08:23:32.152Z</time>
      </trkpt>
      <trkpt lat="40.72337333" lon="-3.89517667">
        <ele>950.0</ele>
        <time>2018-05-26T08:23:33.137Z</time>
      </trkpt>
      <trkpt lat="40.72336833" lon="-3.895335">
        <ele>949.0</ele>
        <time>2018-05-26T08:23:34.179Z</time>
      </trkpt>
      <trkpt lat="40.72336833" lon="-3.895335">
        <ele>949.0</ele>
        <time>2018-05-26T08:23:35.137Z</time>
      </trkpt>
      <trkpt lat="40.72336167" lon="-3.89549833">
        <ele>949.0</ele>
        <time>2018-05-26T08:23:36.144Z</time>
      </trkpt>
      <trkpt lat="40.72336167" lon="-3.89549833">
        <ele>949.0</ele>
        <time>2018-05-26T08:23:37.171Z</time>
      </trkpt>
      <trkpt lat="40.72335667" lon="-3.89567">
        <ele>948.0</ele>
        <time>2018-05-26T08:23:38.149Z</time>
      </trkpt>
      <trkpt lat="40.72335167" lon="-3.89576">
        <ele>948.0</ele>
        <time>2018-05-26T08:23:39.143Z</time>
      </trkpt>
      <trkpt lat="40.72334667" lon="-3.89585167">
        <ele>948.0</ele>
        <time>2018-05-26T08:23:40.171Z</time>
      </trkpt>
      <trkpt lat="40.72334667" lon="-3.89585167">
        <ele>948.0</ele>
        <time>2018-05-26T08:23:41.160Z</time>
      </trkpt>
      <trkpt lat="40.723345" lon="-3.89604167">
        <ele>947.0</ele>
        <time>2018-05-26T08:23:42.168Z</time>
      </trkpt>
      <trkpt lat="40.723345" lon="-3.89604167">
        <ele>947.0</ele>
        <time>2018-05-26T08:23:43.156Z</time>
      </trkpt>
      <trkpt lat="40.72333833" lon="-3.896245">
        <ele>946.0</ele>
        <time>2018-05-26T08:23:44.171Z</time>
      </trkpt>
      <trkpt lat="40.72333833" lon="-3.896245">
        <ele>946.0</ele>
        <time>2018-05-26T08:23:45.158Z</time>
      </trkpt>
      <trkpt lat="40.72333" lon="-3.89646">
        <ele>945.0</ele>
        <time>2018-05-26T08:23:46.165Z</time>
      </trkpt>
      <trkpt lat="40.72333" lon="-3.89646">
        <ele>945.0</ele>
        <time>2018-05-26T08:23:47.154Z</time>
      </trkpt>
      <trkpt lat="40.72332167" lon="-3.89668333">
        <ele>944.0</ele>
        <time>2018-05-26T08:23:48.140Z</time>
      </trkpt>
      <trkpt lat="40.72332167" lon="-3.89668333">
        <ele>944.0</ele>
        <time>2018-05-26T08:23:49.148Z</time>
      </trkpt>
      <trkpt lat="40.72331333" lon="-3.89691167">
        <ele>943.0</ele>
        <time>2018-05-26T08:23:50.155Z</time>
      </trkpt>
      <trkpt lat="40.72331167" lon="-3.89702833">
        <ele>942.0</ele>
        <time>2018-05-26T08:23:51.150Z</time>
      </trkpt>
      <trkpt lat="40.72331167" lon="-3.89702833">
        <ele>942.0</ele>
        <time>2018-05-26T08:23:52.162Z</time>
      </trkpt>
      <trkpt lat="40.7233" lon="-3.89726">
        <ele>942.0</ele>
        <time>2018-05-26T08:23:53.169Z</time>
      </trkpt>
      <trkpt lat="40.72329333" lon="-3.89737833">
        <ele>941.0</ele>
        <time>2018-05-26T08:23:54.160Z</time>
      </trkpt>
      <trkpt lat="40.72329333" lon="-3.89737833">
        <ele>941.0</ele>
        <time>2018-05-26T08:23:55.153Z</time>
      </trkpt>
      <trkpt lat="40.72328833" lon="-3.89761333">
        <ele>941.0</ele>
        <time>2018-05-26T08:23:56.161Z</time>
      </trkpt>
      <trkpt lat="40.72328833" lon="-3.89761333">
        <ele>941.0</ele>
        <time>2018-05-26T08:23:57.147Z</time>
      </trkpt>
      <trkpt lat="40.72331333" lon="-3.89784">
        <ele>940.0</ele>
        <time>2018-05-26T08:23:58.140Z</time>
      </trkpt>
      <trkpt lat="40.72331333" lon="-3.89784">
        <ele>940.0</ele>
        <time>2018-05-26T08:23:59.153Z</time>
      </trkpt>
      <trkpt lat="40.72334167" lon="-3.89805667">
        <ele>940.0</ele>
        <time>2018-05-26T08:24:00.146Z</time>
      </trkpt>
      <trkpt lat="40.72334167" lon="-3.89805667">
        <ele>940.0</ele>
        <time>2018-05-26T08:24:01.136Z</time>
      </trkpt>
      <trkpt lat="40.723375" lon="-3.89826333">
        <ele>940.0</ele>
        <time>2018-05-26T08:24:02.146Z</time>
      </trkpt>
      <trkpt lat="40.723375" lon="-3.89826333">
        <ele>940.0</ele>
        <time>2018-05-26T08:24:03.144Z</time>
      </trkpt>
      <trkpt lat="40.7234" lon="-3.89846333">
        <ele>939.0</ele>
        <time>2018-05-26T08:24:04.161Z</time>
      </trkpt>
      <trkpt lat="40.7234" lon="-3.89846333">
        <ele>939.0</ele>
        <time>2018-05-26T08:24:05.168Z</time>
      </trkpt>
      <trkpt lat="40.72336833" lon="-3.898625">
        <ele>939.0</ele>
        <time>2018-05-26T08:24:06.174Z</time>
      </trkpt>
      <trkpt lat="40.72336833" lon="-3.898625">
        <ele>939.0</ele>
        <time>2018-05-26T08:24:07.163Z</time>
      </trkpt>
      <trkpt lat="40.72329667" lon="-3.89876167">
        <ele>939.0</ele>
        <time>2018-05-26T08:24:08.172Z</time>
      </trkpt>
      <trkpt lat="40.72329667" lon="-3.89876167">
        <ele>939.0</ele>
        <time>2018-05-26T08:24:09.175Z</time>
      </trkpt>
      <trkpt lat="40.72321667" lon="-3.89889667">
        <ele>939.0</ele>
        <time>2018-05-26T08:24:10.156Z</time>
      </trkpt>
      <trkpt lat="40.72321667" lon="-3.89889667">
        <ele>939.0</ele>
        <time>2018-05-26T08:24:11.148Z</time>
      </trkpt>
      <trkpt lat="40.72316" lon="-3.89904833">
        <ele>940.0</ele>
        <time>2018-05-26T08:24:12.172Z</time>
      </trkpt>
      <trkpt lat="40.72316" lon="-3.89904833">
        <ele>940.0</ele>
        <time>2018-05-26T08:24:13.166Z</time>
      </trkpt>
      <trkpt lat="40.72311833" lon="-3.89919833">
        <ele>940.0</ele>
        <time>2018-05-26T08:24:14.141Z</time>
      </trkpt>
      <trkpt lat="40.72311833" lon="-3.89919833">
        <ele>940.0</ele>
        <time>2018-05-26T08:24:15.168Z</time>
      </trkpt>
      <trkpt lat="40.723085" lon="-3.89934">
        <ele>940.0</ele>
        <time>2018-05-26T08:24:16.176Z</time>
      </trkpt>
      <trkpt lat="40.723085" lon="-3.89934">
        <ele>940.0</ele>
        <time>2018-05-26T08:24:17.150Z</time>
      </trkpt>
      <trkpt lat="40.72305167" lon="-3.89947333">
        <ele>941.0</ele>
        <time>2018-05-26T08:24:18.156Z</time>
      </trkpt>
      <trkpt lat="40.723035" lon="-3.89954333">
        <ele>941.0</ele>
        <time>2018-05-26T08:24:19.136Z</time>
      </trkpt>
      <trkpt lat="40.723035" lon="-3.89954333">
        <ele>941.0</ele>
        <time>2018-05-26T08:24:20.171Z</time>
      </trkpt>
      <trkpt lat="40.723" lon="-3.89969167">
        <ele>940.0</ele>
        <time>2018-05-26T08:24:21.139Z</time>
      </trkpt>
      <trkpt lat="40.722985" lon="-3.89977167">
        <ele>940.0</ele>
        <time>2018-05-26T08:24:22.140Z</time>
      </trkpt>
      <trkpt lat="40.722985" lon="-3.89977167">
        <ele>940.0</ele>
        <time>2018-05-26T08:24:23.137Z</time>
      </trkpt>
      <trkpt lat="40.72296167" lon="-3.89994167">
        <ele>940.0</ele>
        <time>2018-05-26T08:24:24.147Z</time>
      </trkpt>
      <trkpt lat="40.722955" lon="-3.90003">
        <ele>940.0</ele>
        <time>2018-05-26T08:24:25.172Z</time>
      </trkpt>
      <trkpt lat="40.722955" lon="-3.90003">
        <ele>940.0</ele>
        <time>2018-05-26T08:24:26.165Z</time>
      </trkpt>
      <trkpt lat="40.72294167" lon="-3.90020167">
        <ele>939.0</ele>
        <time>2018-05-26T08:24:27.143Z</time>
      </trkpt>
      <trkpt lat="40.72293167" lon="-3.90028333">
        <ele>939.0</ele>
        <time>2018-05-26T08:24:28.150Z</time>
      </trkpt>
      <trkpt lat="40.72293167" lon="-3.90028333">
        <ele>939.0</ele>
        <time>2018-05-26T08:24:29.153Z</time>
      </trkpt>
      <trkpt lat="40.72292167" lon="-3.90045167">
        <ele>939.0</ele>
        <time>2018-05-26T08:24:30.162Z</time>
      </trkpt>
      <trkpt lat="40.72292167" lon="-3.90045167">
        <ele>939.0</ele>
        <time>2018-05-26T08:24:31.152Z</time>
      </trkpt>
      <trkpt lat="40.722915" lon="-3.90061667">
        <ele>939.0</ele>
        <time>2018-05-26T08:24:32.172Z</time>
      </trkpt>
      <trkpt lat="40.722915" lon="-3.90061667">
        <ele>939.0</ele>
        <time>2018-05-26T08:24:33.137Z</time>
      </trkpt>
      <trkpt lat="40.72290667" lon="-3.90077667">
        <ele>939.0</ele>
        <time>2018-05-26T08:24:34.144Z</time>
      </trkpt>
      <trkpt lat="40.72290333" lon="-3.90085667">
        <ele>939.0</ele>
        <time>2018-05-26T08:24:35.179Z</time>
      </trkpt>
      <trkpt lat="40.72290333" lon="-3.90085667">
        <ele>939.0</ele>
        <time>2018-05-26T08:24:36.146Z</time>
      </trkpt>
      <trkpt lat="40.72289333" lon="-3.90101833">
        <ele>939.0</ele>
        <time>2018-05-26T08:24:37.153Z</time>
      </trkpt>
      <trkpt lat="40.72288667" lon="-3.90109833">
        <ele>939.0</ele>
        <time>2018-05-26T08:24:38.153Z</time>
      </trkpt>
      <trkpt lat="40.72288667" lon="-3.90109833">
        <ele>939.0</ele>
        <time>2018-05-26T08:24:39.136Z</time>
      </trkpt>
      <trkpt lat="40.72287667" lon="-3.90125667">
        <ele>939.0</ele>
        <time>2018-05-26T08:24:40.147Z</time>
      </trkpt>
      <trkpt lat="40.72287667" lon="-3.90125667">
        <ele>939.0</ele>
        <time>2018-05-26T08:24:41.176Z</time>
      </trkpt>
      <trkpt lat="40.72286333" lon="-3.90140667">
        <ele>939.0</ele>
        <time>2018-05-26T08:24:42.140Z</time>
      </trkpt>
      <trkpt lat="40.72286333" lon="-3.90140667">
        <ele>939.0</ele>
        <time>2018-05-26T08:24:43.162Z</time>
      </trkpt>
      <trkpt lat="40.72285" lon="-3.90155">
        <ele>940.0</ele>
        <time>2018-05-26T08:24:44.168Z</time>
      </trkpt>
      <trkpt lat="40.72284333" lon="-3.90162">
        <ele>940.0</ele>
        <time>2018-05-26T08:24:45.156Z</time>
      </trkpt>
      <trkpt lat="40.72283833" lon="-3.90168667">
        <ele>940.0</ele>
        <time>2018-05-26T08:24:46.170Z</time>
      </trkpt>
      <trkpt lat="40.72283833" lon="-3.90168667">
        <ele>940.0</ele>
        <time>2018-05-26T08:24:47.150Z</time>
      </trkpt>
      <trkpt lat="40.722835" lon="-3.90182167">
        <ele>940.0</ele>
        <time>2018-05-26T08:24:48.161Z</time>
      </trkpt>
      <trkpt lat="40.72283333" lon="-3.90189">
        <ele>941.0</ele>
        <time>2018-05-26T08:24:49.146Z</time>
      </trkpt>
      <trkpt lat="40.72283333" lon="-3.90189">
        <ele>941.0</ele>
        <time>2018-05-26T08:24:50.170Z</time>
      </trkpt>
      <trkpt lat="40.72282667" lon="-3.90202167">
        <ele>941.0</ele>
        <time>2018-05-26T08:24:51.158Z</time>
      </trkpt>
      <trkpt lat="40.72282333" lon="-3.90208333">
        <ele>942.0</ele>
        <time>2018-05-26T08:24:52.150Z</time>
      </trkpt>
      <trkpt lat="40.72282333" lon="-3.90208333">
        <ele>942.0</ele>
        <time>2018-05-26T08:24:53.138Z</time>
      </trkpt>
      <trkpt lat="40.72282833" lon="-3.90219833">
        <ele>942.0</ele>
        <time>2018-05-26T08:24:54.149Z</time>
      </trkpt>
      <trkpt lat="40.72283" lon="-3.902255">
        <ele>942.0</ele>
        <time>2018-05-26T08:24:55.154Z</time>
      </trkpt>
      <trkpt lat="40.72283" lon="-3.902255">
        <ele>942.0</ele>
        <time>2018-05-26T08:24:56.174Z</time>
      </trkpt>
      <trkpt lat="40.72282833" lon="-3.90237">
        <ele>943.0</ele>
        <time>2018-05-26T08:24:57.161Z</time>
      </trkpt>
      <trkpt lat="40.72282833" lon="-3.90242667">
        <ele>943.0</ele>
        <time>2018-05-26T08:24:58.155Z</time>
      </trkpt>
      <trkpt lat="40.72282833" lon="-3.90242667">
        <ele>943.0</ele>
        <time>2018-05-26T08:24:59.141Z</time>
      </trkpt>
      <trkpt lat="40.72283167" lon="-3.90254">
        <ele>944.0</ele>
        <time>2018-05-26T08:25:00.161Z</time>
      </trkpt>
      <trkpt lat="40.72283167" lon="-3.90254">
        <ele>944.0</ele>
        <time>2018-05-26T08:25:01.165Z</time>
      </trkpt>
      <trkpt lat="40.72283667" lon="-3.90266167">
        <ele>944.0</ele>
        <time>2018-05-26T08:25:02.139Z</time>
      </trkpt>
      <trkpt lat="40.72283667" lon="-3.90266167">
        <ele>944.0</ele>
        <time>2018-05-26T08:25:03.167Z</time>
      </trkpt>
      <trkpt lat="40.72283833" lon="-3.90278">
        <ele>944.0</ele>
        <time>2018-05-26T08:25:04.140Z</time>
      </trkpt>
      <trkpt lat="40.72283833" lon="-3.90278">
        <ele>944.0</ele>
        <time>2018-05-26T08:25:05.156Z</time>
      </trkpt>
      <trkpt lat="40.72284333" lon="-3.90290167">
        <ele>944.0</ele>
        <time>2018-05-26T08:25:06.162Z</time>
      </trkpt>
      <trkpt lat="40.72284333" lon="-3.90290167">
        <ele>944.0</ele>
        <time>2018-05-26T08:25:07.150Z</time>
      </trkpt>
      <trkpt lat="40.722845" lon="-3.90301833">
        <ele>945.0</ele>
        <time>2018-05-26T08:25:08.150Z</time>
      </trkpt>
      <trkpt lat="40.722845" lon="-3.90301833">
        <ele>945.0</ele>
        <time>2018-05-26T08:25:09.147Z</time>
      </trkpt>
      <trkpt lat="40.72284667" lon="-3.90313833">
        <ele>945.0</ele>
        <time>2018-05-26T08:25:10.154Z</time>
      </trkpt>
      <trkpt lat="40.72284667" lon="-3.90313833">
        <ele>945.0</ele>
        <time>2018-05-26T08:25:11.141Z</time>
      </trkpt>
      <trkpt lat="40.72285167" lon="-3.90325667">
        <ele>946.0</ele>
        <time>2018-05-26T08:25:12.171Z</time>
      </trkpt>
      <trkpt lat="40.72285167" lon="-3.90325667">
        <ele>946.0</ele>
        <time>2018-05-26T08:25:13.146Z</time>
      </trkpt>
      <trkpt lat="40.72285667" lon="-3.90337833">
        <ele>946.0</ele>
        <time>2018-05-26T08:25:14.153Z</time>
      </trkpt>
      <trkpt lat="40.72286167" lon="-3.90343833">
        <ele>946.0</ele>
        <time>2018-05-26T08:25:15.141Z</time>
      </trkpt>
      <trkpt lat="40.72286167" lon="-3.90343833">
        <ele>946.0</ele>
        <time>2018-05-26T08:25:16.156Z</time>
      </trkpt>
      <trkpt lat="40.72287" lon="-3.90356">
        <ele>946.0</ele>
        <time>2018-05-26T08:25:17.166Z</time>
      </trkpt>
      <trkpt lat="40.72287" lon="-3.90356">
        <ele>946.0</ele>
        <time>2018-05-26T08:25:18.151Z</time>
      </trkpt>
      <trkpt lat="40.722875" lon="-3.90367833">
        <ele>946.0</ele>
        <time>2018-05-26T08:25:19.175Z</time>
      </trkpt>
      <trkpt lat="40.722875" lon="-3.90367833">
        <ele>946.0</ele>
        <time>2018-05-26T08:25:20.154Z</time>
      </trkpt>
      <trkpt lat="40.72288" lon="-3.9038">
        <ele>946.0</ele>
        <time>2018-05-26T08:25:21.149Z</time>
      </trkpt>
      <trkpt lat="40.72288333" lon="-3.90386333">
        <ele>947.0</ele>
        <time>2018-05-26T08:25:22.137Z</time>
      </trkpt>
      <trkpt lat="40.72288333" lon="-3.90386333">
        <ele>947.0</ele>
        <time>2018-05-26T08:25:23.146Z</time>
      </trkpt>
      <trkpt lat="40.72288333" lon="-3.90398833">
        <ele>947.0</ele>
        <time>2018-05-26T08:25:24.152Z</time>
      </trkpt>
      <trkpt lat="40.72288333" lon="-3.90405">
        <ele>947.0</ele>
        <time>2018-05-26T08:25:25.169Z</time>
      </trkpt>
      <trkpt lat="40.72288333" lon="-3.90405">
        <ele>947.0</ele>
        <time>2018-05-26T08:25:26.145Z</time>
      </trkpt>
      <trkpt lat="40.72288333" lon="-3.90417">
        <ele>947.0</ele>
        <time>2018-05-26T08:25:27.171Z</time>
      </trkpt>
      <trkpt lat="40.72288333" lon="-3.90423167">
        <ele>948.0</ele>
        <time>2018-05-26T08:25:28.144Z</time>
      </trkpt>
      <trkpt lat="40.72288333" lon="-3.90429333">
        <ele>948.0</ele>
        <time>2018-05-26T08:25:29.175Z</time>
      </trkpt>
      <trkpt lat="40.72288333" lon="-3.90429333">
        <ele>948.0</ele>
        <time>2018-05-26T08:25:30.161Z</time>
      </trkpt>
      <trkpt lat="40.722885" lon="-3.90441667">
        <ele>948.0</ele>
        <time>2018-05-26T08:25:31.174Z</time>
      </trkpt>
      <trkpt lat="40.72288333" lon="-3.90448">
        <ele>948.0</ele>
        <time>2018-05-26T08:25:32.171Z</time>
      </trkpt>
      <trkpt lat="40.72288333" lon="-3.90448">
        <ele>948.0</ele>
        <time>2018-05-26T08:25:33.169Z</time>
      </trkpt>
      <trkpt lat="40.72288" lon="-3.90460667">
        <ele>948.0</ele>
        <time>2018-05-26T08:25:34.136Z</time>
      </trkpt>
      <trkpt lat="40.72288" lon="-3.90460667">
        <ele>948.0</ele>
        <time>2018-05-26T08:25:35.147Z</time>
      </trkpt>
      <trkpt lat="40.722875" lon="-3.90473667">
        <ele>948.0</ele>
        <time>2018-05-26T08:25:36.139Z</time>
      </trkpt>
      <trkpt lat="40.722875" lon="-3.90473667">
        <ele>948.0</ele>
        <time>2018-05-26T08:25:37.153Z</time>
      </trkpt>
      <trkpt lat="40.72287667" lon="-3.90486667">
        <ele>949.0</ele>
        <time>2018-05-26T08:25:38.160Z</time>
      </trkpt>
      <trkpt lat="40.72288" lon="-3.90493333">
        <ele>949.0</ele>
        <time>2018-05-26T08:25:39.169Z</time>
      </trkpt>
      <trkpt lat="40.72288" lon="-3.90493333">
        <ele>949.0</ele>
        <time>2018-05-26T08:25:40.140Z</time>
      </trkpt>
      <trkpt lat="40.722885" lon="-3.90506333">
        <ele>949.0</ele>
        <time>2018-05-26T08:25:41.154Z</time>
      </trkpt>
      <trkpt lat="40.722885" lon="-3.90506333">
        <ele>949.0</ele>
        <time>2018-05-26T08:25:42.165Z</time>
      </trkpt>
      <trkpt lat="40.72289333" lon="-3.90519">
        <ele>949.0</ele>
        <time>2018-05-26T08:25:43.150Z</time>
      </trkpt>
      <trkpt lat="40.72289333" lon="-3.90519">
        <ele>949.0</ele>
        <time>2018-05-26T08:25:44.168Z</time>
      </trkpt>
      <trkpt lat="40.722905" lon="-3.90531333">
        <ele>950.0</ele>
        <time>2018-05-26T08:25:45.175Z</time>
      </trkpt>
      <trkpt lat="40.72291333" lon="-3.905375">
        <ele>950.0</ele>
        <time>2018-05-26T08:25:46.160Z</time>
      </trkpt>
      <trkpt lat="40.72291333" lon="-3.905375">
        <ele>950.0</ele>
        <time>2018-05-26T08:25:47.139Z</time>
      </trkpt>
      <trkpt lat="40.72293333" lon="-3.90549333">
        <ele>950.0</ele>
        <time>2018-05-26T08:25:48.147Z</time>
      </trkpt>
      <trkpt lat="40.72293333" lon="-3.90549333">
        <ele>950.0</ele>
        <time>2018-05-26T08:25:49.159Z</time>
      </trkpt>
      <trkpt lat="40.722955" lon="-3.90561833">
        <ele>950.0</ele>
        <time>2018-05-26T08:25:50.140Z</time>
      </trkpt>
      <trkpt lat="40.72296667" lon="-3.90568333">
        <ele>950.0</ele>
        <time>2018-05-26T08:25:51.148Z</time>
      </trkpt>
      <trkpt lat="40.72297833" lon="-3.90574833">
        <ele>950.0</ele>
        <time>2018-05-26T08:25:52.137Z</time>
      </trkpt>
      <trkpt lat="40.72297833" lon="-3.90574833">
        <ele>950.0</ele>
        <time>2018-05-26T08:25:53.163Z</time>
      </trkpt>
      <trkpt lat="40.72299333" lon="-3.90588">
        <ele>950.0</ele>
        <time>2018-05-26T08:25:54.170Z</time>
      </trkpt>
      <trkpt lat="40.72299833" lon="-3.90594833">
        <ele>951.0</ele>
        <time>2018-05-26T08:25:55.150Z</time>
      </trkpt>
      <trkpt lat="40.72299833" lon="-3.90594833">
        <ele>951.0</ele>
        <time>2018-05-26T08:25:56.137Z</time>
      </trkpt>
      <trkpt lat="40.723" lon="-3.906085">
        <ele>951.0</ele>
        <time>2018-05-26T08:25:57.144Z</time>
      </trkpt>
      <trkpt lat="40.72299833" lon="-3.90615333">
        <ele>951.0</ele>
        <time>2018-05-26T08:25:58.174Z</time>
      </trkpt>
      <trkpt lat="40.722995" lon="-3.90622167">
        <ele>951.0</ele>
        <time>2018-05-26T08:25:59.173Z</time>
      </trkpt>
      <trkpt lat="40.722995" lon="-3.90622167">
        <ele>951.0</ele>
        <time>2018-05-26T08:26:00.163Z</time>
      </trkpt>
      <trkpt lat="40.72298" lon="-3.90635833">
        <ele>951.0</ele>
        <time>2018-05-26T08:26:01.144Z</time>
      </trkpt>
      <trkpt lat="40.72298" lon="-3.90635833">
        <ele>951.0</ele>
        <time>2018-05-26T08:26:02.143Z</time>
      </trkpt>
      <trkpt lat="40.72295833" lon="-3.90649667">
        <ele>950.0</ele>
        <time>2018-05-26T08:26:03.137Z</time>
      </trkpt>
      <trkpt lat="40.72294833" lon="-3.90656667">
        <ele>950.0</ele>
        <time>2018-05-26T08:26:04.138Z</time>
      </trkpt>
      <trkpt lat="40.72294833" lon="-3.90656667">
        <ele>950.0</ele>
        <time>2018-05-26T08:26:05.169Z</time>
      </trkpt>
      <trkpt lat="40.72293" lon="-3.90670333">
        <ele>950.0</ele>
        <time>2018-05-26T08:26:06.143Z</time>
      </trkpt>
      <trkpt lat="40.72292333" lon="-3.90677">
        <ele>950.0</ele>
        <time>2018-05-26T08:26:07.175Z</time>
      </trkpt>
      <trkpt lat="40.72292333" lon="-3.90677">
        <ele>950.0</ele>
        <time>2018-05-26T08:26:08.163Z</time>
      </trkpt>
      <trkpt lat="40.72291333" lon="-3.90690833">
        <ele>950.0</ele>
        <time>2018-05-26T08:26:09.140Z</time>
      </trkpt>
      <trkpt lat="40.72291167" lon="-3.90698167">
        <ele>950.0</ele>
        <time>2018-05-26T08:26:10.156Z</time>
      </trkpt>
      <trkpt lat="40.72291167" lon="-3.90698167">
        <ele>950.0</ele>
        <time>2018-05-26T08:26:11.175Z</time>
      </trkpt>
      <trkpt lat="40.72292667" lon="-3.90714333">
        <ele>949.0</ele>
        <time>2018-05-26T08:26:12.151Z</time>
      </trkpt>
      <trkpt lat="40.72293833" lon="-3.90722833">
        <ele>948.0</ele>
        <time>2018-05-26T08:26:13.143Z</time>
      </trkpt>
      <trkpt lat="40.72293833" lon="-3.90722833">
        <ele>948.0</ele>
        <time>2018-05-26T08:26:14.174Z</time>
      </trkpt>
      <trkpt lat="40.72298" lon="-3.907405">
        <ele>947.0</ele>
        <time>2018-05-26T08:26:15.142Z</time>
      </trkpt>
      <trkpt lat="40.72298" lon="-3.907405">
        <ele>947.0</ele>
        <time>2018-05-26T08:26:16.158Z</time>
      </trkpt>
      <trkpt lat="40.72303167" lon="-3.90758833">
        <ele>946.0</ele>
        <time>2018-05-26T08:26:17.164Z</time>
      </trkpt>
      <trkpt lat="40.72303167" lon="-3.90758833">
        <ele>946.0</ele>
        <time>2018-05-26T08:26:18.151Z</time>
      </trkpt>
      <trkpt lat="40.72307167" lon="-3.90778333">
        <ele>945.0</ele>
        <time>2018-05-26T08:26:19.171Z</time>
      </trkpt>
      <trkpt lat="40.72307167" lon="-3.90778333">
        <ele>945.0</ele>
        <time>2018-05-26T08:26:20.146Z</time>
      </trkpt>
      <trkpt lat="40.723115" lon="-3.90798667">
        <ele>945.0</ele>
        <time>2018-05-26T08:26:21.152Z</time>
      </trkpt>
      <trkpt lat="40.72314333" lon="-3.90809">
        <ele>944.0</ele>
        <time>2018-05-26T08:26:22.145Z</time>
      </trkpt>
      <trkpt lat="40.72314333" lon="-3.90809">
        <ele>944.0</ele>
        <time>2018-05-26T08:26:23.156Z</time>
      </trkpt>
      <trkpt lat="40.72321667" lon="-3.908285">
        <ele>943.0</ele>
        <time>2018-05-26T08:26:24.162Z</time>
      </trkpt>
      <trkpt lat="40.72321667" lon="-3.908285">
        <ele>943.0</ele>
        <time>2018-05-26T08:26:25.149Z</time>
      </trkpt>
      <trkpt lat="40.723295" lon="-3.90848833">
        <ele>942.0</ele>
        <time>2018-05-26T08:26:26.138Z</time>
      </trkpt>
      <trkpt lat="40.723295" lon="-3.90848833">
        <ele>942.0</ele>
        <time>2018-05-26T08:26:27.171Z</time>
      </trkpt>
      <trkpt lat="40.72338833" lon="-3.90867833">
        <ele>941.0</ele>
        <time>2018-05-26T08:26:28.142Z</time>
      </trkpt>
      <trkpt lat="40.72338833" lon="-3.90867833">
        <ele>941.0</ele>
        <time>2018-05-26T08:26:29.172Z</time>
      </trkpt>
      <trkpt lat="40.72350333" lon="-3.90884833">
        <ele>941.0</ele>
        <time>2018-05-26T08:26:30.171Z</time>
      </trkpt>
      <trkpt lat="40.72350333" lon="-3.90884833">
        <ele>941.0</ele>
        <time>2018-05-26T08:26:31.138Z</time>
      </trkpt>
      <trkpt lat="40.72362" lon="-3.90900333">
        <ele>940.0</ele>
        <time>2018-05-26T08:26:32.145Z</time>
      </trkpt>
      <trkpt lat="40.72367833" lon="-3.90908333">
        <ele>940.0</ele>
        <time>2018-05-26T08:26:33.144Z</time>
      </trkpt>
      <trkpt lat="40.72373667" lon="-3.90915833">
        <ele>940.0</ele>
        <time>2018-05-26T08:26:34.141Z</time>
      </trkpt>
      <trkpt lat="40.72373667" lon="-3.90915833">
        <ele>940.0</ele>
        <time>2018-05-26T08:26:35.162Z</time>
      </trkpt>
      <trkpt lat="40.72386167" lon="-3.90930833">
        <ele>939.0</ele>
        <time>2018-05-26T08:26:36.141Z</time>
      </trkpt>
      <trkpt lat="40.72386167" lon="-3.90930833">
        <ele>939.0</ele>
        <time>2018-05-26T08:26:37.155Z</time>
      </trkpt>
      <trkpt lat="40.72398667" lon="-3.90945833">
        <ele>938.0</ele>
        <time>2018-05-26T08:26:38.162Z</time>
      </trkpt>
      <trkpt lat="40.72405" lon="-3.90953833">
        <ele>938.0</ele>
        <time>2018-05-26T08:26:39.170Z</time>
      </trkpt>
      <trkpt lat="40.72411167" lon="-3.90961333">
        <ele>938.0</ele>
        <time>2018-05-26T08:26:40.170Z</time>
      </trkpt>
      <trkpt lat="40.72411167" lon="-3.90961333">
        <ele>938.0</ele>
        <time>2018-05-26T08:26:41.159Z</time>
      </trkpt>
      <trkpt lat="40.72423333" lon="-3.90976833">
        <ele>937.0</ele>
        <time>2018-05-26T08:26:42.137Z</time>
      </trkpt>
      <trkpt lat="40.72429" lon="-3.90984667">
        <ele>937.0</ele>
        <time>2018-05-26T08:26:43.161Z</time>
      </trkpt>
      <trkpt lat="40.72429" lon="-3.90984667">
        <ele>937.0</ele>
        <time>2018-05-26T08:26:44.147Z</time>
      </trkpt>
      <trkpt lat="40.72439667" lon="-3.90999333">
        <ele>937.0</ele>
        <time>2018-05-26T08:26:45.139Z</time>
      </trkpt>
      <trkpt lat="40.72439667" lon="-3.90999333">
        <ele>937.0</ele>
        <time>2018-05-26T08:26:46.155Z</time>
      </trkpt>
      <trkpt lat="40.72451167" lon="-3.91012">
        <ele>937.0</ele>
        <time>2018-05-26T08:26:47.161Z</time>
      </trkpt>
      <trkpt lat="40.72451167" lon="-3.91012">
        <ele>937.0</ele>
        <time>2018-05-26T08:26:48.147Z</time>
      </trkpt>
      <trkpt lat="40.72464167" lon="-3.91022167">
        <ele>937.0</ele>
        <time>2018-05-26T08:26:49.180Z</time>
      </trkpt>
      <trkpt lat="40.72464167" lon="-3.91022167">
        <ele>937.0</ele>
        <time>2018-05-26T08:26:50.137Z</time>
      </trkpt>
      <trkpt lat="40.72477333" lon="-3.91031333">
        <ele>937.0</ele>
        <time>2018-05-26T08:26:51.144Z</time>
      </trkpt>
      <trkpt lat="40.724835" lon="-3.910355">
        <ele>937.0</ele>
        <time>2018-05-26T08:26:52.172Z</time>
      </trkpt>
      <trkpt lat="40.724835" lon="-3.910355">
        <ele>937.0</ele>
        <time>2018-05-26T08:26:53.137Z</time>
      </trkpt>
      <trkpt lat="40.72495" lon="-3.91045333">
        <ele>937.0</ele>
        <time>2018-05-26T08:26:54.144Z</time>
      </trkpt>
      <trkpt lat="40.72495" lon="-3.91045333">
        <ele>937.0</ele>
        <time>2018-05-26T08:26:55.147Z</time>
      </trkpt>
      <trkpt lat="40.725045" lon="-3.91059">
        <ele>936.0</ele>
        <time>2018-05-26T08:26:56.163Z</time>
      </trkpt>
      <trkpt lat="40.725085" lon="-3.91066833">
        <ele>936.0</ele>
        <time>2018-05-26T08:26:57.140Z</time>
      </trkpt>
      <trkpt lat="40.725085" lon="-3.91066833">
        <ele>936.0</ele>
        <time>2018-05-26T08:26:58.162Z</time>
      </trkpt>
      <trkpt lat="40.72516667" lon="-3.91083833">
        <ele>935.0</ele>
        <time>2018-05-26T08:26:59.140Z</time>
      </trkpt>
      <trkpt lat="40.72516667" lon="-3.91083833">
        <ele>935.0</ele>
        <time>2018-05-26T08:27:00.167Z</time>
      </trkpt>
      <trkpt lat="40.72525333" lon="-3.91102167">
        <ele>934.0</ele>
        <time>2018-05-26T08:27:01.141Z</time>
      </trkpt>
      <trkpt lat="40.72525333" lon="-3.91102167">
        <ele>934.0</ele>
        <time>2018-05-26T08:27:02.143Z</time>
      </trkpt>
      <trkpt lat="40.72534667" lon="-3.91121167">
        <ele>934.0</ele>
        <time>2018-05-26T08:27:03.150Z</time>
      </trkpt>
      <trkpt lat="40.72539667" lon="-3.911305">
        <ele>934.0</ele>
        <time>2018-05-26T08:27:04.172Z</time>
      </trkpt>
      <trkpt lat="40.72539667" lon="-3.911305">
        <ele>934.0</ele>
        <time>2018-05-26T08:27:05.136Z</time>
      </trkpt>
      <trkpt lat="40.72550167" lon="-3.91149333">
        <ele>933.0</ele>
        <time>2018-05-26T08:27:06.143Z</time>
      </trkpt>
      <trkpt lat="40.72550167" lon="-3.91149333">
        <ele>933.0</ele>
        <time>2018-05-26T08:27:07.137Z</time>
      </trkpt>
      <trkpt lat="40.72561" lon="-3.911685">
        <ele>932.0</ele>
        <time>2018-05-26T08:27:08.147Z</time>
      </trkpt>
      <trkpt lat="40.72561" lon="-3.911685">
        <ele>932.0</ele>
        <time>2018-05-26T08:27:09.146Z</time>
      </trkpt>
      <trkpt lat="40.72571833" lon="-3.91187333">
        <ele>932.0</ele>
        <time>2018-05-26T08:27:10.153Z</time>
      </trkpt>
      <trkpt lat="40.72571833" lon="-3.91187333">
        <ele>932.0</ele>
        <time>2018-05-26T08:27:11.141Z</time>
      </trkpt>
      <trkpt lat="40.72582167" lon="-3.912055">
        <ele>931.0</ele>
        <time>2018-05-26T08:27:12.171Z</time>
      </trkpt>
      <trkpt lat="40.72587" lon="-3.91214333">
        <ele>931.0</ele>
        <time>2018-05-26T08:27:13.171Z</time>
      </trkpt>
      <trkpt lat="40.72591833" lon="-3.91223">
        <ele>931.0</ele>
        <time>2018-05-26T08:27:14.136Z</time>
      </trkpt>
      <trkpt lat="40.72596667" lon="-3.912315">
        <ele>931.0</ele>
        <time>2018-05-26T08:27:15.164Z</time>
      </trkpt>
      <trkpt lat="40.72596667" lon="-3.912315">
        <ele>931.0</ele>
        <time>2018-05-26T08:27:16.151Z</time>
      </trkpt>
      <trkpt lat="40.72605167" lon="-3.91248333">
        <ele>931.0</ele>
        <time>2018-05-26T08:27:17.164Z</time>
      </trkpt>
      <trkpt lat="40.72605167" lon="-3.91248333">
        <ele>931.0</ele>
        <time>2018-05-26T08:27:18.161Z</time>
      </trkpt>
      <trkpt lat="40.72613333" lon="-3.91265333">
        <ele>931.0</ele>
        <time>2018-05-26T08:27:19.167Z</time>
      </trkpt>
      <trkpt lat="40.72613333" lon="-3.91265333">
        <ele>931.0</ele>
        <time>2018-05-26T08:27:20.155Z</time>
      </trkpt>
      <trkpt lat="40.72622" lon="-3.91281333">
        <ele>931.0</ele>
        <time>2018-05-26T08:27:21.160Z</time>
      </trkpt>
      <trkpt lat="40.72622" lon="-3.91281333">
        <ele>931.0</ele>
        <time>2018-05-26T08:27:22.138Z</time>
      </trkpt>
      <trkpt lat="40.72629833" lon="-3.91298">
        <ele>930.0</ele>
        <time>2018-05-26T08:27:23.144Z</time>
      </trkpt>
      <trkpt lat="40.72629833" lon="-3.91298">
        <ele>930.0</ele>
        <time>2018-05-26T08:27:24.155Z</time>
      </trkpt>
      <trkpt lat="40.72638167" lon="-3.91313167">
        <ele>930.0</ele>
        <time>2018-05-26T08:27:25.162Z</time>
      </trkpt>
      <trkpt lat="40.72638167" lon="-3.91313167">
        <ele>930.0</ele>
        <time>2018-05-26T08:27:26.138Z</time>
      </trkpt>
      <trkpt lat="40.72647167" lon="-3.91326">
        <ele>931.0</ele>
        <time>2018-05-26T08:27:27.157Z</time>
      </trkpt>
      <trkpt lat="40.72651667" lon="-3.91331667">
        <ele>931.0</ele>
        <time>2018-05-26T08:27:28.143Z</time>
      </trkpt>
      <trkpt lat="40.72651667" lon="-3.91331667">
        <ele>931.0</ele>
        <time>2018-05-26T08:27:29.161Z</time>
      </trkpt>
      <trkpt lat="40.72660333" lon="-3.91342833">
        <ele>931.0</ele>
        <time>2018-05-26T08:27:30.168Z</time>
      </trkpt>
      <trkpt lat="40.72660333" lon="-3.91342833">
        <ele>931.0</ele>
        <time>2018-05-26T08:27:31.140Z</time>
      </trkpt>
      <trkpt lat="40.726695" lon="-3.91354167">
        <ele>931.0</ele>
        <time>2018-05-26T08:27:32.160Z</time>
      </trkpt>
      <trkpt lat="40.726695" lon="-3.91354167">
        <ele>931.0</ele>
        <time>2018-05-26T08:27:33.149Z</time>
      </trkpt>
      <trkpt lat="40.72677667" lon="-3.91364667">
        <ele>932.0</ele>
        <time>2018-05-26T08:27:34.176Z</time>
      </trkpt>
      <trkpt lat="40.72677667" lon="-3.91364667">
        <ele>932.0</ele>
        <time>2018-05-26T08:27:35.147Z</time>
      </trkpt>
      <trkpt lat="40.72686" lon="-3.91376">
        <ele>932.0</ele>
        <time>2018-05-26T08:27:36.154Z</time>
      </trkpt>
      <trkpt lat="40.7269" lon="-3.91381833">
        <ele>933.0</ele>
        <time>2018-05-26T08:27:37.141Z</time>
      </trkpt>
      <trkpt lat="40.7269" lon="-3.91381833">
        <ele>933.0</ele>
        <time>2018-05-26T08:27:38.149Z</time>
      </trkpt>
      <trkpt lat="40.72697833" lon="-3.91393">
        <ele>933.0</ele>
        <time>2018-05-26T08:27:39.172Z</time>
      </trkpt>
      <trkpt lat="40.72701333" lon="-3.91398167">
        <ele>933.0</ele>
        <time>2018-05-26T08:27:40.171Z</time>
      </trkpt>
      <trkpt lat="40.72701333" lon="-3.91398167">
        <ele>933.0</ele>
        <time>2018-05-26T08:27:41.159Z</time>
      </trkpt>
      <trkpt lat="40.72707667" lon="-3.91409333">
        <ele>933.0</ele>
        <time>2018-05-26T08:27:42.173Z</time>
      </trkpt>
      <trkpt lat="40.72711" lon="-3.91414833">
        <ele>933.0</ele>
        <time>2018-05-26T08:27:43.150Z</time>
      </trkpt>
      <trkpt lat="40.72711" lon="-3.91414833">
        <ele>933.0</ele>
        <time>2018-05-26T08:27:44.139Z</time>
      </trkpt>
      <trkpt lat="40.727175" lon="-3.91426333">
        <ele>933.0</ele>
        <time>2018-05-26T08:27:45.146Z</time>
      </trkpt>
      <trkpt lat="40.72720833" lon="-3.91431833">
        <ele>934.0</ele>
        <time>2018-05-26T08:27:46.144Z</time>
      </trkpt>
      <trkpt lat="40.72720833" lon="-3.91431833">
        <ele>934.0</ele>
        <time>2018-05-26T08:27:47.143Z</time>
      </trkpt>
      <trkpt lat="40.72727667" lon="-3.91442667">
        <ele>934.0</ele>
        <time>2018-05-26T08:27:48.142Z</time>
      </trkpt>
      <trkpt lat="40.72727667" lon="-3.91442667">
        <ele>934.0</ele>
        <time>2018-05-26T08:27:49.152Z</time>
      </trkpt>
      <trkpt lat="40.72733833" lon="-3.914535">
        <ele>933.0</ele>
        <time>2018-05-26T08:27:50.159Z</time>
      </trkpt>
      <trkpt lat="40.72733833" lon="-3.914535">
        <ele>933.0</ele>
        <time>2018-05-26T08:27:51.147Z</time>
      </trkpt>
      <trkpt lat="40.7274" lon="-3.91464">
        <ele>934.0</ele>
        <time>2018-05-26T08:27:52.164Z</time>
      </trkpt>
      <trkpt lat="40.72743" lon="-3.91469333">
        <ele>934.0</ele>
        <time>2018-05-26T08:27:53.165Z</time>
      </trkpt>
      <trkpt lat="40.72743" lon="-3.91469333">
        <ele>934.0</ele>
        <time>2018-05-26T08:27:54.151Z</time>
      </trkpt>
      <trkpt lat="40.72749" lon="-3.91479667">
        <ele>934.0</ele>
        <time>2018-05-26T08:27:55.151Z</time>
      </trkpt>
      <trkpt lat="40.72751833" lon="-3.91484">
        <ele>934.0</ele>
        <time>2018-05-26T08:27:56.153Z</time>
      </trkpt>
      <trkpt lat="40.72751833" lon="-3.91484">
        <ele>934.0</ele>
        <time>2018-05-26T08:27:57.140Z</time>
      </trkpt>
      <trkpt lat="40.72758833" lon="-3.914935">
        <ele>934.0</ele>
        <time>2018-05-26T08:27:58.149Z</time>
      </trkpt>
      <trkpt lat="40.72758833" lon="-3.914935">
        <ele>934.0</ele>
        <time>2018-05-26T08:27:59.163Z</time>
      </trkpt>
      <trkpt lat="40.72765" lon="-3.91501833">
        <ele>934.0</ele>
        <time>2018-05-26T08:28:00.156Z</time>
      </trkpt>
      <trkpt lat="40.72765" lon="-3.91501833">
        <ele>934.0</ele>
        <time>2018-05-26T08:28:01.165Z</time>
      </trkpt>
      <trkpt lat="40.727725" lon="-3.91511667">
        <ele>935.0</ele>
        <time>2018-05-26T08:28:02.172Z</time>
      </trkpt>
      <trkpt lat="40.727725" lon="-3.91511667">
        <ele>935.0</ele>
        <time>2018-05-26T08:28:03.171Z</time>
      </trkpt>
      <trkpt lat="40.72779167" lon="-3.91521833">
        <ele>935.0</ele>
        <time>2018-05-26T08:28:04.150Z</time>
      </trkpt>
      <trkpt lat="40.72779167" lon="-3.91521833">
        <ele>935.0</ele>
        <time>2018-05-26T08:28:05.166Z</time>
      </trkpt>
      <trkpt lat="40.727855" lon="-3.91532167">
        <ele>936.0</ele>
        <time>2018-05-26T08:28:06.141Z</time>
      </trkpt>
      <trkpt lat="40.727855" lon="-3.91532167">
        <ele>936.0</ele>
        <time>2018-05-26T08:28:07.158Z</time>
      </trkpt>
      <trkpt lat="40.72791667" lon="-3.91543">
        <ele>937.0</ele>
        <time>2018-05-26T08:28:08.136Z</time>
      </trkpt>
      <trkpt lat="40.72794667" lon="-3.915485">
        <ele>937.0</ele>
        <time>2018-05-26T08:28:09.166Z</time>
      </trkpt>
      <trkpt lat="40.72794667" lon="-3.915485">
        <ele>937.0</ele>
        <time>2018-05-26T08:28:10.153Z</time>
      </trkpt>
      <trkpt lat="40.72800167" lon="-3.915595">
        <ele>937.0</ele>
        <time>2018-05-26T08:28:11.159Z</time>
      </trkpt>
      <trkpt lat="40.72800167" lon="-3.915595">
        <ele>937.0</ele>
        <time>2018-05-26T08:28:12.152Z</time>
      </trkpt>
      <trkpt lat="40.72806167" lon="-3.91569833">
        <ele>938.0</ele>
        <time>2018-05-26T08:28:13.159Z</time>
      </trkpt>
      <trkpt lat="40.72809333" lon="-3.91574667">
        <ele>938.0</ele>
        <time>2018-05-26T08:28:14.171Z</time>
      </trkpt>
      <trkpt lat="40.72809333" lon="-3.91574667">
        <ele>938.0</ele>
        <time>2018-05-26T08:28:15.157Z</time>
      </trkpt>
      <trkpt lat="40.72815333" lon="-3.91584833">
        <ele>938.0</ele>
        <time>2018-05-26T08:28:16.165Z</time>
      </trkpt>
      <trkpt lat="40.72815333" lon="-3.91584833">
        <ele>938.0</ele>
        <time>2018-05-26T08:28:17.151Z</time>
      </trkpt>
      <trkpt lat="40.72820667" lon="-3.91595">
        <ele>938.0</ele>
        <time>2018-05-26T08:28:18.161Z</time>
      </trkpt>
      <trkpt lat="40.72823167" lon="-3.91600333">
        <ele>938.0</ele>
        <time>2018-05-26T08:28:19.157Z</time>
      </trkpt>
      <trkpt lat="40.72823167" lon="-3.91600333">
        <ele>938.0</ele>
        <time>2018-05-26T08:28:20.143Z</time>
      </trkpt>
      <trkpt lat="40.72827667" lon="-3.91611">
        <ele>938.0</ele>
        <time>2018-05-26T08:28:21.150Z</time>
      </trkpt>
      <trkpt lat="40.72827667" lon="-3.91611">
        <ele>938.0</ele>
        <time>2018-05-26T08:28:22.158Z</time>
      </trkpt>
      <trkpt lat="40.728315" lon="-3.91621333">
        <ele>938.0</ele>
        <time>2018-05-26T08:28:23.164Z</time>
      </trkpt>
      <trkpt lat="40.728335" lon="-3.916265">
        <ele>938.0</ele>
        <time>2018-05-26T08:28:24.172Z</time>
      </trkpt>
      <trkpt lat="40.728335" lon="-3.916265">
        <ele>938.0</ele>
        <time>2018-05-26T08:28:25.167Z</time>
      </trkpt>
      <trkpt lat="40.72836833" lon="-3.91637833">
        <ele>939.0</ele>
        <time>2018-05-26T08:28:26.174Z</time>
      </trkpt>
      <trkpt lat="40.72836833" lon="-3.91637833">
        <ele>939.0</ele>
        <time>2018-05-26T08:28:27.159Z</time>
      </trkpt>
      <trkpt lat="40.728405" lon="-3.9165">
        <ele>939.0</ele>
        <time>2018-05-26T08:28:28.171Z</time>
      </trkpt>
      <trkpt lat="40.728405" lon="-3.9165">
        <ele>939.0</ele>
        <time>2018-05-26T08:28:29.151Z</time>
      </trkpt>
      <trkpt lat="40.72844333" lon="-3.91662">
        <ele>939.0</ele>
        <time>2018-05-26T08:28:30.158Z</time>
      </trkpt>
      <trkpt lat="40.72844333" lon="-3.91662">
        <ele>939.0</ele>
        <time>2018-05-26T08:28:31.145Z</time>
      </trkpt>
      <trkpt lat="40.72848333" lon="-3.91674667">
        <ele>939.0</ele>
        <time>2018-05-26T08:28:32.160Z</time>
      </trkpt>
      <trkpt lat="40.72848333" lon="-3.91674667">
        <ele>939.0</ele>
        <time>2018-05-26T08:28:33.141Z</time>
      </trkpt>
      <trkpt lat="40.72851833" lon="-3.91687167">
        <ele>939.0</ele>
        <time>2018-05-26T08:28:34.150Z</time>
      </trkpt>
      <trkpt lat="40.72851833" lon="-3.91687167">
        <ele>939.0</ele>
        <time>2018-05-26T08:28:35.160Z</time>
      </trkpt>
      <trkpt lat="40.728555" lon="-3.91699667">
        <ele>940.0</ele>
        <time>2018-05-26T08:28:36.171Z</time>
      </trkpt>
      <trkpt lat="40.728555" lon="-3.91699667">
        <ele>940.0</ele>
        <time>2018-05-26T08:28:37.151Z</time>
      </trkpt>
      <trkpt lat="40.72859167" lon="-3.91712167">
        <ele>940.0</ele>
        <time>2018-05-26T08:28:38.158Z</time>
      </trkpt>
      <trkpt lat="40.72859167" lon="-3.91712167">
        <ele>940.0</ele>
        <time>2018-05-26T08:28:39.156Z</time>
      </trkpt>
      <trkpt lat="40.72863" lon="-3.91724667">
        <ele>940.0</ele>
        <time>2018-05-26T08:28:40.138Z</time>
      </trkpt>
      <trkpt lat="40.72863" lon="-3.91724667">
        <ele>940.0</ele>
        <time>2018-05-26T08:28:41.167Z</time>
      </trkpt>
      <trkpt lat="40.72866667" lon="-3.91736333">
        <ele>940.0</ele>
        <time>2018-05-26T08:28:42.136Z</time>
      </trkpt>
      <trkpt lat="40.72866667" lon="-3.91736333">
        <ele>940.0</ele>
        <time>2018-05-26T08:28:43.170Z</time>
      </trkpt>
      <trkpt lat="40.72870167" lon="-3.91748">
        <ele>940.0</ele>
        <time>2018-05-26T08:28:44.174Z</time>
      </trkpt>
      <trkpt lat="40.72870167" lon="-3.91748">
        <ele>940.0</ele>
        <time>2018-05-26T08:28:45.167Z</time>
      </trkpt>
      <trkpt lat="40.72874" lon="-3.91759333">
        <ele>941.0</ele>
        <time>2018-05-26T08:28:46.175Z</time>
      </trkpt>
      <trkpt lat="40.72874" lon="-3.91759333">
        <ele>941.0</ele>
        <time>2018-05-26T08:28:47.162Z</time>
      </trkpt>
      <trkpt lat="40.72878167" lon="-3.91770833">
        <ele>941.0</ele>
        <time>2018-05-26T08:28:48.151Z</time>
      </trkpt>
      <trkpt lat="40.72878167" lon="-3.91770833">
        <ele>941.0</ele>
        <time>2018-05-26T08:28:49.156Z</time>
      </trkpt>
      <trkpt lat="40.72881833" lon="-3.91782333">
        <ele>941.0</ele>
        <time>2018-05-26T08:28:50.162Z</time>
      </trkpt>
      <trkpt lat="40.72881833" lon="-3.91782333">
        <ele>941.0</ele>
        <time>2018-05-26T08:28:51.146Z</time>
      </trkpt>
      <trkpt lat="40.72885333" lon="-3.91793167">
        <ele>941.0</ele>
        <time>2018-05-26T08:28:52.172Z</time>
      </trkpt>
      <trkpt lat="40.72885333" lon="-3.91793167">
        <ele>941.0</ele>
        <time>2018-05-26T08:28:53.166Z</time>
      </trkpt>
      <trkpt lat="40.72889" lon="-3.91804167">
        <ele>942.0</ele>
        <time>2018-05-26T08:28:54.175Z</time>
      </trkpt>
      <trkpt lat="40.72890833" lon="-3.9181">
        <ele>942.0</ele>
        <time>2018-05-26T08:28:55.163Z</time>
      </trkpt>
      <trkpt lat="40.72890833" lon="-3.9181">
        <ele>942.0</ele>
        <time>2018-05-26T08:28:56.165Z</time>
      </trkpt>
      <trkpt lat="40.72894333" lon="-3.91821167">
        <ele>942.0</ele>
        <time>2018-05-26T08:28:57.164Z</time>
      </trkpt>
      <trkpt lat="40.72896167" lon="-3.91826667">
        <ele>942.0</ele>
        <time>2018-05-26T08:28:58.155Z</time>
      </trkpt>
      <trkpt lat="40.72896167" lon="-3.91826667">
        <ele>942.0</ele>
        <time>2018-05-26T08:28:59.143Z</time>
      </trkpt>
      <trkpt lat="40.72899833" lon="-3.91837667">
        <ele>943.0</ele>
        <time>2018-05-26T08:29:00.144Z</time>
      </trkpt>
      <trkpt lat="40.72899833" lon="-3.91837667">
        <ele>943.0</ele>
        <time>2018-05-26T08:29:01.175Z</time>
      </trkpt>
      <trkpt lat="40.729035" lon="-3.91848667">
        <ele>943.0</ele>
        <time>2018-05-26T08:29:02.154Z</time>
      </trkpt>
      <trkpt lat="40.729035" lon="-3.91848667">
        <ele>943.0</ele>
        <time>2018-05-26T08:29:03.156Z</time>
      </trkpt>
      <trkpt lat="40.72907167" lon="-3.91859833">
        <ele>944.0</ele>
        <time>2018-05-26T08:29:04.163Z</time>
      </trkpt>
      <trkpt lat="40.72907167" lon="-3.91859833">
        <ele>944.0</ele>
        <time>2018-05-26T08:29:05.152Z</time>
      </trkpt>
      <trkpt lat="40.72911" lon="-3.91871333">
        <ele>944.0</ele>
        <time>2018-05-26T08:29:06.150Z</time>
      </trkpt>
      <trkpt lat="40.72911" lon="-3.91871333">
        <ele>944.0</ele>
        <time>2018-05-26T08:29:07.171Z</time>
      </trkpt>
      <trkpt lat="40.72914667" lon="-3.91882833">
        <ele>944.0</ele>
        <time>2018-05-26T08:29:08.141Z</time>
      </trkpt>
      <trkpt lat="40.72916667" lon="-3.91888833">
        <ele>944.0</ele>
        <time>2018-05-26T08:29:09.151Z</time>
      </trkpt>
      <trkpt lat="40.72916667" lon="-3.91888833">
        <ele>944.0</ele>
        <time>2018-05-26T08:29:10.142Z</time>
      </trkpt>
      <trkpt lat="40.729205" lon="-3.919005">
        <ele>944.0</ele>
        <time>2018-05-26T08:29:11.151Z</time>
      </trkpt>
      <trkpt lat="40.72922333" lon="-3.91906167">
        <ele>944.0</ele>
        <time>2018-05-26T08:29:12.161Z</time>
      </trkpt>
      <trkpt lat="40.72922333" lon="-3.91906167">
        <ele>944.0</ele>
        <time>2018-05-26T08:29:13.156Z</time>
      </trkpt>
      <trkpt lat="40.72925667" lon="-3.91917667">
        <ele>945.0</ele>
        <time>2018-05-26T08:29:14.162Z</time>
      </trkpt>
      <trkpt lat="40.72925667" lon="-3.91917667">
        <ele>945.0</ele>
        <time>2018-05-26T08:29:15.173Z</time>
      </trkpt>
      <trkpt lat="40.72929333" lon="-3.91929667">
        <ele>945.0</ele>
        <time>2018-05-26T08:29:16.171Z</time>
      </trkpt>
      <trkpt lat="40.72929333" lon="-3.91929667">
        <ele>945.0</ele>
        <time>2018-05-26T08:29:17.146Z</time>
      </trkpt>
      <trkpt lat="40.72933" lon="-3.91941167">
        <ele>945.0</ele>
        <time>2018-05-26T08:29:18.153Z</time>
      </trkpt>
      <trkpt lat="40.72934833" lon="-3.91946833">
        <ele>945.0</ele>
        <time>2018-05-26T08:29:19.137Z</time>
      </trkpt>
      <trkpt lat="40.72934833" lon="-3.91946833">
        <ele>945.0</ele>
        <time>2018-05-26T08:29:20.147Z</time>
      </trkpt>
      <trkpt lat="40.72938833" lon="-3.91958667">
        <ele>945.0</ele>
        <time>2018-05-26T08:29:21.154Z</time>
      </trkpt>
      <trkpt lat="40.72938833" lon="-3.91958667">
        <ele>945.0</ele>
        <time>2018-05-26T08:29:22.140Z</time>
      </trkpt>
      <trkpt lat="40.72943" lon="-3.91970833">
        <ele>945.0</ele>
        <time>2018-05-26T08:29:23.157Z</time>
      </trkpt>
      <trkpt lat="40.72943" lon="-3.91970833">
        <ele>945.0</ele>
        <time>2018-05-26T08:29:24.155Z</time>
      </trkpt>
      <trkpt lat="40.72947" lon="-3.91983167">
        <ele>945.0</ele>
        <time>2018-05-26T08:29:25.162Z</time>
      </trkpt>
      <trkpt lat="40.72949" lon="-3.91989333">
        <ele>945.0</ele>
        <time>2018-05-26T08:29:26.150Z</time>
      </trkpt>
      <trkpt lat="40.72949" lon="-3.91989333">
        <ele>945.0</ele>
        <time>2018-05-26T08:29:27.139Z</time>
      </trkpt>
      <trkpt lat="40.72953167" lon="-3.920015">
        <ele>945.0</ele>
        <time>2018-05-26T08:29:28.145Z</time>
      </trkpt>
      <trkpt lat="40.72955333" lon="-3.92007833">
        <ele>945.0</ele>
        <time>2018-05-26T08:29:29.140Z</time>
      </trkpt>
      <trkpt lat="40.72955333" lon="-3.92007833">
        <ele>945.0</ele>
        <time>2018-05-26T08:29:30.148Z</time>
      </trkpt>
      <trkpt lat="40.72959333" lon="-3.92020333">
        <ele>945.0</ele>
        <time>2018-05-26T08:29:31.154Z</time>
      </trkpt>
      <trkpt lat="40.72959333" lon="-3.92020333">
        <ele>945.0</ele>
        <time>2018-05-26T08:29:32.143Z</time>
      </trkpt>
      <trkpt lat="40.72963333" lon="-3.92032667">
        <ele>945.0</ele>
        <time>2018-05-26T08:29:33.138Z</time>
      </trkpt>
      <trkpt lat="40.72963333" lon="-3.92032667">
        <ele>945.0</ele>
        <time>2018-05-26T08:29:34.164Z</time>
      </trkpt>
      <trkpt lat="40.729675" lon="-3.92045">
        <ele>945.0</ele>
        <time>2018-05-26T08:29:35.171Z</time>
      </trkpt>
      <trkpt lat="40.729675" lon="-3.92045">
        <ele>945.0</ele>
        <time>2018-05-26T08:29:36.147Z</time>
      </trkpt>
      <trkpt lat="40.72971333" lon="-3.92057333">
        <ele>945.0</ele>
        <time>2018-05-26T08:29:37.171Z</time>
      </trkpt>
      <trkpt lat="40.72971333" lon="-3.92057333">
        <ele>945.0</ele>
        <time>2018-05-26T08:29:38.166Z</time>
      </trkpt>
      <trkpt lat="40.72975167" lon="-3.92069833">
        <ele>946.0</ele>
        <time>2018-05-26T08:29:39.142Z</time>
      </trkpt>
      <trkpt lat="40.72977" lon="-3.92076167">
        <ele>946.0</ele>
        <time>2018-05-26T08:29:40.139Z</time>
      </trkpt>
      <trkpt lat="40.72977" lon="-3.92076167">
        <ele>946.0</ele>
        <time>2018-05-26T08:29:41.156Z</time>
      </trkpt>
      <trkpt lat="40.72980667" lon="-3.92088333">
        <ele>946.0</ele>
        <time>2018-05-26T08:29:42.163Z</time>
      </trkpt>
      <trkpt lat="40.72982667" lon="-3.920945">
        <ele>946.0</ele>
        <time>2018-05-26T08:29:43.147Z</time>
      </trkpt>
      <trkpt lat="40.72982667" lon="-3.920945">
        <ele>946.0</ele>
        <time>2018-05-26T08:29:44.165Z</time>
      </trkpt>
      <trkpt lat="40.72986333" lon="-3.92106833">
        <ele>946.0</ele>
        <time>2018-05-26T08:29:45.172Z</time>
      </trkpt>
      <trkpt lat="40.72988167" lon="-3.92112667">
        <ele>946.0</ele>
        <time>2018-05-26T08:29:46.153Z</time>
      </trkpt>
      <trkpt lat="40.72990167" lon="-3.92118333">
        <ele>946.0</ele>
        <time>2018-05-26T08:29:47.153Z</time>
      </trkpt>
      <trkpt lat="40.72990167" lon="-3.92118333">
        <ele>946.0</ele>
        <time>2018-05-26T08:29:48.143Z</time>
      </trkpt>
      <trkpt lat="40.72993667" lon="-3.92129167">
        <ele>947.0</ele>
        <time>2018-05-26T08:29:49.172Z</time>
      </trkpt>
      <trkpt lat="40.729955" lon="-3.921345">
        <ele>947.0</ele>
        <time>2018-05-26T08:29:50.156Z</time>
      </trkpt>
      <trkpt lat="40.729955" lon="-3.921345">
        <ele>947.0</ele>
        <time>2018-05-26T08:29:51.142Z</time>
      </trkpt>
      <trkpt lat="40.72998667" lon="-3.92144167">
        <ele>947.0</ele>
        <time>2018-05-26T08:29:52.156Z</time>
      </trkpt>
      <trkpt lat="40.73000333" lon="-3.92148667">
        <ele>948.0</ele>
        <time>2018-05-26T08:29:53.151Z</time>
      </trkpt>
      <trkpt lat="40.73000333" lon="-3.92148667">
        <ele>948.0</ele>
        <time>2018-05-26T08:29:54.149Z</time>
      </trkpt>
      <trkpt lat="40.73003667" lon="-3.921575">
        <ele>948.0</ele>
        <time>2018-05-26T08:29:55.156Z</time>
      </trkpt>
      <trkpt lat="40.73003667" lon="-3.921575">
        <ele>948.0</ele>
        <time>2018-05-26T08:29:56.162Z</time>
      </trkpt>
      <trkpt lat="40.73006833" lon="-3.92166">
        <ele>949.0</ele>
        <time>2018-05-26T08:29:57.174Z</time>
      </trkpt>
      <trkpt lat="40.73006833" lon="-3.92166">
        <ele>949.0</ele>
        <time>2018-05-26T08:29:58.163Z</time>
      </trkpt>
      <trkpt lat="40.73009833" lon="-3.92174">
        <ele>950.0</ele>
        <time>2018-05-26T08:29:59.170Z</time>
      </trkpt>
      <trkpt lat="40.73009833" lon="-3.92174">
        <ele>950.0</ele>
        <time>2018-05-26T08:30:00.159Z</time>
      </trkpt>
      <trkpt lat="40.73012167" lon="-3.92181833">
        <ele>951.0</ele>
        <time>2018-05-26T08:30:01.159Z</time>
      </trkpt>
      <trkpt lat="40.73012167" lon="-3.92181833">
        <ele>951.0</ele>
        <time>2018-05-26T08:30:02.148Z</time>
      </trkpt>
      <trkpt lat="40.73014167" lon="-3.92189667">
        <ele>952.0</ele>
        <time>2018-05-26T08:30:03.150Z</time>
      </trkpt>
      <trkpt lat="40.73015" lon="-3.92193667">
        <ele>952.0</ele>
        <time>2018-05-26T08:30:04.171Z</time>
      </trkpt>
      <trkpt lat="40.73015" lon="-3.92193667">
        <ele>952.0</ele>
        <time>2018-05-26T08:30:05.154Z</time>
      </trkpt>
      <trkpt lat="40.73016167" lon="-3.92202167">
        <ele>953.0</ele>
        <time>2018-05-26T08:30:06.164Z</time>
      </trkpt>
      <trkpt lat="40.73016167" lon="-3.92202167">
        <ele>953.0</ele>
        <time>2018-05-26T08:30:07.148Z</time>
      </trkpt>
      <trkpt lat="40.73016667" lon="-3.92212">
        <ele>953.0</ele>
        <time>2018-05-26T08:30:08.164Z</time>
      </trkpt>
      <trkpt lat="40.73016833" lon="-3.92217333">
        <ele>953.0</ele>
        <time>2018-05-26T08:30:09.173Z</time>
      </trkpt>
      <trkpt lat="40.73016833" lon="-3.92217333">
        <ele>953.0</ele>
        <time>2018-05-26T08:30:10.156Z</time>
      </trkpt>
      <trkpt lat="40.73017333" lon="-3.922285">
        <ele>953.0</ele>
        <time>2018-05-26T08:30:11.164Z</time>
      </trkpt>
      <trkpt lat="40.73017333" lon="-3.922285">
        <ele>953.0</ele>
        <time>2018-05-26T08:30:12.152Z</time>
      </trkpt>
      <trkpt lat="40.73018" lon="-3.92239833">
        <ele>953.0</ele>
        <time>2018-05-26T08:30:13.139Z</time>
      </trkpt>
      <trkpt lat="40.73018" lon="-3.92239833">
        <ele>953.0</ele>
        <time>2018-05-26T08:30:14.166Z</time>
      </trkpt>
      <trkpt lat="40.73018833" lon="-3.92251833">
        <ele>953.0</ele>
        <time>2018-05-26T08:30:15.143Z</time>
      </trkpt>
      <trkpt lat="40.73019" lon="-3.92257833">
        <ele>953.0</ele>
        <time>2018-05-26T08:30:16.169Z</time>
      </trkpt>
      <trkpt lat="40.73019" lon="-3.92257833">
        <ele>953.0</ele>
        <time>2018-05-26T08:30:17.141Z</time>
      </trkpt>
      <trkpt lat="40.73019333" lon="-3.9227">
        <ele>953.0</ele>
        <time>2018-05-26T08:30:18.148Z</time>
      </trkpt>
      <trkpt lat="40.73019333" lon="-3.9227">
        <ele>953.0</ele>
        <time>2018-05-26T08:30:19.160Z</time>
      </trkpt>
      <trkpt lat="40.73019167" lon="-3.922825">
        <ele>953.0</ele>
        <time>2018-05-26T08:30:20.164Z</time>
      </trkpt>
      <trkpt lat="40.73019167" lon="-3.922825">
        <ele>953.0</ele>
        <time>2018-05-26T08:30:21.167Z</time>
      </trkpt>
      <trkpt lat="40.73019167" lon="-3.92295167">
        <ele>953.0</ele>
        <time>2018-05-26T08:30:22.173Z</time>
      </trkpt>
      <trkpt lat="40.730195" lon="-3.92301667">
        <ele>954.0</ele>
        <time>2018-05-26T08:30:23.171Z</time>
      </trkpt>
      <trkpt lat="40.730195" lon="-3.92301667">
        <ele>954.0</ele>
        <time>2018-05-26T08:30:24.140Z</time>
      </trkpt>
      <trkpt lat="40.73020167" lon="-3.92314">
        <ele>954.0</ele>
        <time>2018-05-26T08:30:25.149Z</time>
      </trkpt>
      <trkpt lat="40.73020167" lon="-3.92314">
        <ele>954.0</ele>
        <time>2018-05-26T08:30:26.140Z</time>
      </trkpt>
      <trkpt lat="40.73021667" lon="-3.92325333">
        <ele>954.0</ele>
        <time>2018-05-26T08:30:27.172Z</time>
      </trkpt>
      <trkpt lat="40.73022667" lon="-3.923305">
        <ele>954.0</ele>
        <time>2018-05-26T08:30:28.172Z</time>
      </trkpt>
      <trkpt lat="40.73022667" lon="-3.923305">
        <ele>954.0</ele>
        <time>2018-05-26T08:30:29.160Z</time>
      </trkpt>
      <trkpt lat="40.73025333" lon="-3.92340667">
        <ele>955.0</ele>
        <time>2018-05-26T08:30:30.168Z</time>
      </trkpt>
      <trkpt lat="40.73026833" lon="-3.92345667">
        <ele>955.0</ele>
        <time>2018-05-26T08:30:31.171Z</time>
      </trkpt>
      <trkpt lat="40.73026833" lon="-3.92345667">
        <ele>955.0</ele>
        <time>2018-05-26T08:30:32.143Z</time>
      </trkpt>
      <trkpt lat="40.730305" lon="-3.92356">
        <ele>955.0</ele>
        <time>2018-05-26T08:30:33.154Z</time>
      </trkpt>
      <trkpt lat="40.73032333" lon="-3.92361167">
        <ele>955.0</ele>
        <time>2018-05-26T08:30:34.161Z</time>
      </trkpt>
      <trkpt lat="40.73032333" lon="-3.92361167">
        <ele>955.0</ele>
        <time>2018-05-26T08:30:35.146Z</time>
      </trkpt>
      <trkpt lat="40.73035333" lon="-3.92371667">
        <ele>956.0</ele>
        <time>2018-05-26T08:30:36.153Z</time>
      </trkpt>
      <trkpt lat="40.73036833" lon="-3.92377">
        <ele>956.0</ele>
        <time>2018-05-26T08:30:37.140Z</time>
      </trkpt>
      <trkpt lat="40.73036833" lon="-3.92377">
        <ele>956.0</ele>
        <time>2018-05-26T08:30:38.150Z</time>
      </trkpt>
      <trkpt lat="40.73039333" lon="-3.92388333">
        <ele>957.0</ele>
        <time>2018-05-26T08:30:39.156Z</time>
      </trkpt>
      <trkpt lat="40.73040667" lon="-3.92394">
        <ele>957.0</ele>
        <time>2018-05-26T08:30:40.161Z</time>
      </trkpt>
      <trkpt lat="40.73040667" lon="-3.92394">
        <ele>957.0</ele>
        <time>2018-05-26T08:30:41.147Z</time>
      </trkpt>
      <trkpt lat="40.73042833" lon="-3.92405167">
        <ele>958.0</ele>
        <time>2018-05-26T08:30:42.154Z</time>
      </trkpt>
      <trkpt lat="40.73042833" lon="-3.92405167">
        <ele>958.0</ele>
        <time>2018-05-26T08:30:43.144Z</time>
      </trkpt>
      <trkpt lat="40.73044667" lon="-3.92416">
        <ele>958.0</ele>
        <time>2018-05-26T08:30:44.149Z</time>
      </trkpt>
      <trkpt lat="40.73044667" lon="-3.92416">
        <ele>958.0</ele>
        <time>2018-05-26T08:30:45.164Z</time>
      </trkpt>
      <trkpt lat="40.73046833" lon="-3.92426667">
        <ele>959.0</ele>
        <time>2018-05-26T08:30:46.171Z</time>
      </trkpt>
      <trkpt lat="40.73046833" lon="-3.92426667">
        <ele>959.0</ele>
        <time>2018-05-26T08:30:47.157Z</time>
      </trkpt>
      <trkpt lat="40.73048833" lon="-3.92437">
        <ele>959.0</ele>
        <time>2018-05-26T08:30:48.140Z</time>
      </trkpt>
      <trkpt lat="40.73048833" lon="-3.92437">
        <ele>959.0</ele>
        <time>2018-05-26T08:30:49.140Z</time>
      </trkpt>
      <trkpt lat="40.730515" lon="-3.92446667">
        <ele>960.0</ele>
        <time>2018-05-26T08:30:50.152Z</time>
      </trkpt>
      <trkpt lat="40.73052833" lon="-3.924515">
        <ele>960.0</ele>
        <time>2018-05-26T08:30:51.151Z</time>
      </trkpt>
      <trkpt lat="40.73054" lon="-3.92456167">
        <ele>960.0</ele>
        <time>2018-05-26T08:30:52.143Z</time>
      </trkpt>
      <trkpt lat="40.73054" lon="-3.92456167">
        <ele>960.0</ele>
        <time>2018-05-26T08:30:53.171Z</time>
      </trkpt>
      <trkpt lat="40.73056833" lon="-3.92465833">
        <ele>960.0</ele>
        <time>2018-05-26T08:30:54.156Z</time>
      </trkpt>
      <trkpt lat="40.73058333" lon="-3.92470833">
        <ele>961.0</ele>
        <time>2018-05-26T08:30:55.160Z</time>
      </trkpt>
      <trkpt lat="40.73058333" lon="-3.92470833">
        <ele>961.0</ele>
        <time>2018-05-26T08:30:56.142Z</time>
      </trkpt>
      <trkpt lat="40.73061833" lon="-3.924805">
        <ele>961.0</ele>
        <time>2018-05-26T08:30:57.149Z</time>
      </trkpt>
      <trkpt lat="40.73063833" lon="-3.92485333">
        <ele>961.0</ele>
        <time>2018-05-26T08:30:58.149Z</time>
      </trkpt>
      <trkpt lat="40.73063833" lon="-3.92485333">
        <ele>961.0</ele>
        <time>2018-05-26T08:30:59.175Z</time>
      </trkpt>
      <trkpt lat="40.73068" lon="-3.92495167">
        <ele>961.0</ele>
        <time>2018-05-26T08:31:00.152Z</time>
      </trkpt>
      <trkpt lat="40.73068" lon="-3.92495167">
        <ele>961.0</ele>
        <time>2018-05-26T08:31:01.163Z</time>
      </trkpt>
      <trkpt lat="40.73072" lon="-3.92505833">
        <ele>960.0</ele>
        <time>2018-05-26T08:31:02.170Z</time>
      </trkpt>
      <trkpt lat="40.73072" lon="-3.92505833">
        <ele>960.0</ele>
        <time>2018-05-26T08:31:03.147Z</time>
      </trkpt>
      <trkpt lat="40.73075667" lon="-3.92516833">
        <ele>960.0</ele>
        <time>2018-05-26T08:31:04.160Z</time>
      </trkpt>
      <trkpt lat="40.73075667" lon="-3.92516833">
        <ele>960.0</ele>
        <time>2018-05-26T08:31:05.166Z</time>
      </trkpt>
      <trkpt lat="40.730795" lon="-3.92527833">
        <ele>960.0</ele>
        <time>2018-05-26T08:31:06.144Z</time>
      </trkpt>
      <trkpt lat="40.730795" lon="-3.92527833">
        <ele>960.0</ele>
        <time>2018-05-26T08:31:07.138Z</time>
      </trkpt>
      <trkpt lat="40.73083" lon="-3.92538667">
        <ele>960.0</ele>
        <time>2018-05-26T08:31:08.172Z</time>
      </trkpt>
      <trkpt lat="40.73083" lon="-3.92538667">
        <ele>960.0</ele>
        <time>2018-05-26T08:31:09.166Z</time>
      </trkpt>
      <trkpt lat="40.73086333" lon="-3.925495">
        <ele>961.0</ele>
        <time>2018-05-26T08:31:10.173Z</time>
      </trkpt>
      <trkpt lat="40.73086333" lon="-3.925495">
        <ele>961.0</ele>
        <time>2018-05-26T08:31:11.159Z</time>
      </trkpt>
      <trkpt lat="40.73089167" lon="-3.925605">
        <ele>961.0</ele>
        <time>2018-05-26T08:31:12.149Z</time>
      </trkpt>
      <trkpt lat="40.73089167" lon="-3.925605">
        <ele>961.0</ele>
        <time>2018-05-26T08:31:13.174Z</time>
      </trkpt>
      <trkpt lat="40.73092167" lon="-3.92571667">
        <ele>961.0</ele>
        <time>2018-05-26T08:31:14.143Z</time>
      </trkpt>
      <trkpt lat="40.73092167" lon="-3.92571667">
        <ele>961.0</ele>
        <time>2018-05-26T08:31:15.155Z</time>
      </trkpt>
      <trkpt lat="40.73095167" lon="-3.92582167">
        <ele>961.0</ele>
        <time>2018-05-26T08:31:16.171Z</time>
      </trkpt>
      <trkpt lat="40.73095167" lon="-3.92582167">
        <ele>961.0</ele>
        <time>2018-05-26T08:31:17.146Z</time>
      </trkpt>
      <trkpt lat="40.73098167" lon="-3.92591833">
        <ele>962.0</ele>
        <time>2018-05-26T08:31:18.153Z</time>
      </trkpt>
      <trkpt lat="40.730995" lon="-3.92595833">
        <ele>962.0</ele>
        <time>2018-05-26T08:31:19.143Z</time>
      </trkpt>
      <trkpt lat="40.73100667" lon="-3.92599833">
        <ele>963.0</ele>
        <time>2018-05-26T08:31:20.167Z</time>
      </trkpt>
      <trkpt lat="40.73100667" lon="-3.92599833">
        <ele>963.0</ele>
        <time>2018-05-26T08:31:21.142Z</time>
      </trkpt>
      <trkpt lat="40.73103" lon="-3.92608167">
        <ele>963.0</ele>
        <time>2018-05-26T08:31:22.149Z</time>
      </trkpt>
      <trkpt lat="40.73103" lon="-3.92608167">
        <ele>963.0</ele>
        <time>2018-05-26T08:31:23.157Z</time>
      </trkpt>
      <trkpt lat="40.73106667" lon="-3.92615833">
        <ele>964.0</ele>
        <time>2018-05-26T08:31:24.164Z</time>
      </trkpt>
      <trkpt lat="40.73108667" lon="-3.92620167">
        <ele>964.0</ele>
        <time>2018-05-26T08:31:25.162Z</time>
      </trkpt>
      <trkpt lat="40.73108667" lon="-3.92620167">
        <ele>964.0</ele>
        <time>2018-05-26T08:31:26.166Z</time>
      </trkpt>
      <trkpt lat="40.73113" lon="-3.92629333">
        <ele>963.0</ele>
        <time>2018-05-26T08:31:27.141Z</time>
      </trkpt>
      <trkpt lat="40.73113" lon="-3.92629333">
        <ele>963.0</ele>
        <time>2018-05-26T08:31:28.167Z</time>
      </trkpt>
      <trkpt lat="40.73117833" lon="-3.92639833">
        <ele>963.0</ele>
        <time>2018-05-26T08:31:29.169Z</time>
      </trkpt>
      <trkpt lat="40.73117833" lon="-3.92639833">
        <ele>963.0</ele>
        <time>2018-05-26T08:31:30.146Z</time>
      </trkpt>
      <trkpt lat="40.73122333" lon="-3.92651833">
        <ele>963.0</ele>
        <time>2018-05-26T08:31:31.153Z</time>
      </trkpt>
      <trkpt lat="40.73122333" lon="-3.92651833">
        <ele>963.0</ele>
        <time>2018-05-26T08:31:32.171Z</time>
      </trkpt>
      <trkpt lat="40.73127" lon="-3.92663667">
        <ele>962.0</ele>
        <time>2018-05-26T08:31:33.147Z</time>
      </trkpt>
      <trkpt lat="40.73127" lon="-3.92663667">
        <ele>962.0</ele>
        <time>2018-05-26T08:31:34.141Z</time>
      </trkpt>
      <trkpt lat="40.73131833" lon="-3.92675167">
        <ele>962.0</ele>
        <time>2018-05-26T08:31:35.149Z</time>
      </trkpt>
      <trkpt lat="40.73131833" lon="-3.92675167">
        <ele>962.0</ele>
        <time>2018-05-26T08:31:36.175Z</time>
      </trkpt>
      <trkpt lat="40.73134667" lon="-3.92686667">
        <ele>963.0</ele>
        <time>2018-05-26T08:31:37.151Z</time>
      </trkpt>
      <trkpt lat="40.73135833" lon="-3.92692667">
        <ele>963.0</ele>
        <time>2018-05-26T08:31:38.138Z</time>
      </trkpt>
      <trkpt lat="40.73137333" lon="-3.92698333">
        <ele>963.0</ele>
        <time>2018-05-26T08:31:39.165Z</time>
      </trkpt>
      <trkpt lat="40.73137333" lon="-3.92698333">
        <ele>963.0</ele>
        <time>2018-05-26T08:31:40.140Z</time>
      </trkpt>
      <trkpt lat="40.7314" lon="-3.927085">
        <ele>963.0</ele>
        <time>2018-05-26T08:31:41.152Z</time>
      </trkpt>
      <trkpt lat="40.7314" lon="-3.927085">
        <ele>963.0</ele>
        <time>2018-05-26T08:31:42.141Z</time>
      </trkpt>
      <trkpt lat="40.73143333" lon="-3.92718">
        <ele>963.0</ele>
        <time>2018-05-26T08:31:43.171Z</time>
      </trkpt>
      <trkpt lat="40.73143333" lon="-3.92718">
        <ele>963.0</ele>
        <time>2018-05-26T08:31:44.156Z</time>
      </trkpt>
      <trkpt lat="40.731465" lon="-3.92726833">
        <ele>964.0</ele>
        <time>2018-05-26T08:31:45.163Z</time>
      </trkpt>
      <trkpt lat="40.73147667" lon="-3.92731333">
        <ele>964.0</ele>
        <time>2018-05-26T08:31:46.153Z</time>
      </trkpt>
      <trkpt lat="40.73147667" lon="-3.92731333">
        <ele>964.0</ele>
        <time>2018-05-26T08:31:47.157Z</time>
      </trkpt>
      <trkpt lat="40.73150167" lon="-3.92739667">
        <ele>965.0</ele>
        <time>2018-05-26T08:31:48.164Z</time>
      </trkpt>
      <trkpt lat="40.73151333" lon="-3.92744">
        <ele>965.0</ele>
        <time>2018-05-26T08:31:49.175Z</time>
      </trkpt>
      <trkpt lat="40.73151333" lon="-3.92744">
        <ele>965.0</ele>
        <time>2018-05-26T08:31:50.150Z</time>
      </trkpt>
      <trkpt lat="40.73154" lon="-3.92751833">
        <ele>966.0</ele>
        <time>2018-05-26T08:31:51.157Z</time>
      </trkpt>
      <trkpt lat="40.73154" lon="-3.92751833">
        <ele>966.0</ele>
        <time>2018-05-26T08:31:52.140Z</time>
      </trkpt>
      <trkpt lat="40.73156667" lon="-3.92759833">
        <ele>966.0</ele>
        <time>2018-05-26T08:31:53.171Z</time>
      </trkpt>
      <trkpt lat="40.73156667" lon="-3.92759833">
        <ele>966.0</ele>
        <time>2018-05-26T08:31:54.138Z</time>
      </trkpt>
      <trkpt lat="40.73159" lon="-3.927675">
        <ele>967.0</ele>
        <time>2018-05-26T08:31:55.144Z</time>
      </trkpt>
      <trkpt lat="40.73159" lon="-3.927675">
        <ele>967.0</ele>
        <time>2018-05-26T08:31:56.169Z</time>
      </trkpt>
      <trkpt lat="40.73160833" lon="-3.927745">
        <ele>967.0</ele>
        <time>2018-05-26T08:31:57.147Z</time>
      </trkpt>
      <trkpt lat="40.73160833" lon="-3.927745">
        <ele>967.0</ele>
        <time>2018-05-26T08:31:58.175Z</time>
      </trkpt>
      <trkpt lat="40.73163167" lon="-3.927815">
        <ele>968.0</ele>
        <time>2018-05-26T08:31:59.141Z</time>
      </trkpt>
      <trkpt lat="40.73163167" lon="-3.927815">
        <ele>968.0</ele>
        <time>2018-05-26T08:32:00.163Z</time>
      </trkpt>
      <trkpt lat="40.73165667" lon="-3.92787833">
        <ele>969.0</ele>
        <time>2018-05-26T08:32:01.144Z</time>
      </trkpt>
      <trkpt lat="40.73165667" lon="-3.92787833">
        <ele>969.0</ele>
        <time>2018-05-26T08:32:02.160Z</time>
      </trkpt>
      <trkpt lat="40.73168333" lon="-3.927935">
        <ele>970.0</ele>
        <time>2018-05-26T08:32:03.139Z</time>
      </trkpt>
      <trkpt lat="40.73168333" lon="-3.927935">
        <ele>970.0</ele>
        <time>2018-05-26T08:32:04.150Z</time>
      </trkpt>
      <trkpt lat="40.73170833" lon="-3.92800333">
        <ele>970.0</ele>
        <time>2018-05-26T08:32:05.156Z</time>
      </trkpt>
      <trkpt lat="40.73170833" lon="-3.92800333">
        <ele>970.0</ele>
        <time>2018-05-26T08:32:06.146Z</time>
      </trkpt>
      <trkpt lat="40.731735" lon="-3.92806167">
        <ele>971.0</ele>
        <time>2018-05-26T08:32:07.171Z</time>
      </trkpt>
      <trkpt lat="40.731735" lon="-3.92806167">
        <ele>971.0</ele>
        <time>2018-05-26T08:32:08.166Z</time>
      </trkpt>
      <trkpt lat="40.73175833" lon="-3.92811333">
        <ele>972.0</ele>
        <time>2018-05-26T08:32:09.172Z</time>
      </trkpt>
      <trkpt lat="40.73176833" lon="-3.92813833">
        <ele>972.0</ele>
        <time>2018-05-26T08:32:10.171Z</time>
      </trkpt>
      <trkpt lat="40.73176833" lon="-3.92813833">
        <ele>972.0</ele>
        <time>2018-05-26T08:32:11.155Z</time>
      </trkpt>
      <trkpt lat="40.731795" lon="-3.92818667">
        <ele>972.0</ele>
        <time>2018-05-26T08:32:12.173Z</time>
      </trkpt>
      <trkpt lat="40.73180833" lon="-3.92820833">
        <ele>973.0</ele>
        <time>2018-05-26T08:32:13.173Z</time>
      </trkpt>
      <trkpt lat="40.73180833" lon="-3.92820833">
        <ele>973.0</ele>
        <time>2018-05-26T08:32:14.158Z</time>
      </trkpt>
      <trkpt lat="40.731835" lon="-3.92825667">
        <ele>974.0</ele>
        <time>2018-05-26T08:32:15.166Z</time>
      </trkpt>
      <trkpt lat="40.731835" lon="-3.92825667">
        <ele>974.0</ele>
        <time>2018-05-26T08:32:16.152Z</time>
      </trkpt>
      <trkpt lat="40.73185667" lon="-3.92831">
        <ele>974.0</ele>
        <time>2018-05-26T08:32:17.171Z</time>
      </trkpt>
      <trkpt lat="40.73185667" lon="-3.92831">
        <ele>974.0</ele>
        <time>2018-05-26T08:32:18.160Z</time>
      </trkpt>
      <trkpt lat="40.73188167" lon="-3.92835833">
        <ele>975.0</ele>
        <time>2018-05-26T08:32:19.167Z</time>
      </trkpt>
      <trkpt lat="40.73188167" lon="-3.92835833">
        <ele>975.0</ele>
        <time>2018-05-26T08:32:20.148Z</time>
      </trkpt>
      <trkpt lat="40.73191" lon="-3.92841333">
        <ele>976.0</ele>
        <time>2018-05-26T08:32:21.180Z</time>
      </trkpt>
      <trkpt lat="40.73191" lon="-3.92841333">
        <ele>976.0</ele>
        <time>2018-05-26T08:32:22.144Z</time>
      </trkpt>
      <trkpt lat="40.73193833" lon="-3.92846833">
        <ele>976.0</ele>
        <time>2018-05-26T08:32:23.150Z</time>
      </trkpt>
      <trkpt lat="40.73195333" lon="-3.928495">
        <ele>977.0</ele>
        <time>2018-05-26T08:32:24.171Z</time>
      </trkpt>
      <trkpt lat="40.73195333" lon="-3.928495">
        <ele>977.0</ele>
        <time>2018-05-26T08:32:25.136Z</time>
      </trkpt>
      <trkpt lat="40.73198167" lon="-3.92854833">
        <ele>977.0</ele>
        <time>2018-05-26T08:32:26.143Z</time>
      </trkpt>
      <trkpt lat="40.73198167" lon="-3.92854833">
        <ele>977.0</ele>
        <time>2018-05-26T08:32:27.167Z</time>
      </trkpt>
      <trkpt lat="40.73201" lon="-3.9286">
        <ele>978.0</ele>
        <time>2018-05-26T08:32:28.177Z</time>
      </trkpt>
      <trkpt lat="40.73201" lon="-3.9286">
        <ele>978.0</ele>
        <time>2018-05-26T08:32:29.151Z</time>
      </trkpt>
      <trkpt lat="40.73203667" lon="-3.92865333">
        <ele>978.0</ele>
        <time>2018-05-26T08:32:30.159Z</time>
      </trkpt>
      <trkpt lat="40.73205" lon="-3.92868333">
        <ele>978.0</ele>
        <time>2018-05-26T08:32:31.145Z</time>
      </trkpt>
      <trkpt lat="40.73205" lon="-3.92868333">
        <ele>978.0</ele>
        <time>2018-05-26T08:32:32.146Z</time>
      </trkpt>
      <trkpt lat="40.73207333" lon="-3.92874">
        <ele>979.0</ele>
        <time>2018-05-26T08:32:33.154Z</time>
      </trkpt>
      <trkpt lat="40.73207333" lon="-3.92874">
        <ele>979.0</ele>
        <time>2018-05-26T08:32:34.136Z</time>
      </trkpt>
      <trkpt lat="40.732105" lon="-3.92880167">
        <ele>979.0</ele>
        <time>2018-05-26T08:32:35.161Z</time>
      </trkpt>
      <trkpt lat="40.732105" lon="-3.92880167">
        <ele>979.0</ele>
        <time>2018-05-26T08:32:36.172Z</time>
      </trkpt>
      <trkpt lat="40.732135" lon="-3.92886333">
        <ele>979.0</ele>
        <time>2018-05-26T08:32:37.141Z</time>
      </trkpt>
      <trkpt lat="40.732135" lon="-3.92886333">
        <ele>979.0</ele>
        <time>2018-05-26T08:32:38.168Z</time>
      </trkpt>
      <trkpt lat="40.73216167" lon="-3.92892167">
        <ele>979.0</ele>
        <time>2018-05-26T08:32:39.176Z</time>
      </trkpt>
      <trkpt lat="40.73216167" lon="-3.92892167">
        <ele>979.0</ele>
        <time>2018-05-26T08:32:40.158Z</time>
      </trkpt>
      <trkpt lat="40.73219167" lon="-3.92897833">
        <ele>979.0</ele>
        <time>2018-05-26T08:32:41.164Z</time>
      </trkpt>
      <trkpt lat="40.73219167" lon="-3.92897833">
        <ele>979.0</ele>
        <time>2018-05-26T08:32:42.150Z</time>
      </trkpt>
      <trkpt lat="40.73221667" lon="-3.929035">
        <ele>980.0</ele>
        <time>2018-05-26T08:32:43.172Z</time>
      </trkpt>
      <trkpt lat="40.73221667" lon="-3.929035">
        <ele>980.0</ele>
        <time>2018-05-26T08:32:44.150Z</time>
      </trkpt>
      <trkpt lat="40.73223833" lon="-3.929095">
        <ele>980.0</ele>
        <time>2018-05-26T08:32:45.157Z</time>
      </trkpt>
      <trkpt lat="40.73224833" lon="-3.92912167">
        <ele>980.0</ele>
        <time>2018-05-26T08:32:46.168Z</time>
      </trkpt>
      <trkpt lat="40.73224833" lon="-3.92912167">
        <ele>980.0</ele>
        <time>2018-05-26T08:32:47.168Z</time>
      </trkpt>
      <trkpt lat="40.73227" lon="-3.92916833">
        <ele>981.0</ele>
        <time>2018-05-26T08:32:48.141Z</time>
      </trkpt>
      <trkpt lat="40.73228" lon="-3.92919167">
        <ele>981.0</ele>
        <time>2018-05-26T08:32:49.158Z</time>
      </trkpt>
      <trkpt lat="40.73228" lon="-3.92919167">
        <ele>981.0</ele>
        <time>2018-05-26T08:32:50.158Z</time>
      </trkpt>
      <trkpt lat="40.73229833" lon="-3.92924">
        <ele>981.0</ele>
        <time>2018-05-26T08:32:51.147Z</time>
      </trkpt>
      <trkpt lat="40.73229833" lon="-3.92924">
        <ele>981.0</ele>
        <time>2018-05-26T08:32:52.175Z</time>
      </trkpt>
      <trkpt lat="40.732315" lon="-3.92929167">
        <ele>982.0</ele>
        <time>2018-05-26T08:32:53.151Z</time>
      </trkpt>
      <trkpt lat="40.732315" lon="-3.92929167">
        <ele>982.0</ele>
        <time>2018-05-26T08:32:54.168Z</time>
      </trkpt>
      <trkpt lat="40.732335" lon="-3.92934">
        <ele>983.0</ele>
        <time>2018-05-26T08:32:55.138Z</time>
      </trkpt>
      <trkpt lat="40.732345" lon="-3.92936333">
        <ele>984.0</ele>
        <time>2018-05-26T08:32:56.167Z</time>
      </trkpt>
      <trkpt lat="40.732345" lon="-3.92936333">
        <ele>984.0</ele>
        <time>2018-05-26T08:32:57.140Z</time>
      </trkpt>
      <trkpt lat="40.73236" lon="-3.92941667">
        <ele>984.0</ele>
        <time>2018-05-26T08:32:58.151Z</time>
      </trkpt>
      <trkpt lat="40.73236" lon="-3.92941667">
        <ele>984.0</ele>
        <time>2018-05-26T08:32:59.168Z</time>
      </trkpt>
      <trkpt lat="40.73237167" lon="-3.92947167">
        <ele>985.0</ele>
        <time>2018-05-26T08:33:00.154Z</time>
      </trkpt>
      <trkpt lat="40.732375" lon="-3.9295">
        <ele>985.0</ele>
        <time>2018-05-26T08:33:01.151Z</time>
      </trkpt>
      <trkpt lat="40.732375" lon="-3.9295">
        <ele>985.0</ele>
        <time>2018-05-26T08:33:02.142Z</time>
      </trkpt>
      <trkpt lat="40.73237667" lon="-3.92955333">
        <ele>986.0</ele>
        <time>2018-05-26T08:33:03.150Z</time>
      </trkpt>
      <trkpt lat="40.73237667" lon="-3.92958">
        <ele>986.0</ele>
        <time>2018-05-26T08:33:04.169Z</time>
      </trkpt>
      <trkpt lat="40.73237667" lon="-3.92958">
        <ele>986.0</ele>
        <time>2018-05-26T08:33:05.172Z</time>
      </trkpt>
      <trkpt lat="40.73237333" lon="-3.92963167">
        <ele>986.0</ele>
        <time>2018-05-26T08:33:06.147Z</time>
      </trkpt>
      <trkpt lat="40.73237" lon="-3.92965667">
        <ele>986.0</ele>
        <time>2018-05-26T08:33:07.142Z</time>
      </trkpt>
      <trkpt lat="40.73237" lon="-3.92965667">
        <ele>986.0</ele>
        <time>2018-05-26T08:33:08.140Z</time>
      </trkpt>
      <trkpt lat="40.73235833" lon="-3.92971">
        <ele>987.0</ele>
        <time>2018-05-26T08:33:09.161Z</time>
      </trkpt>
      <trkpt lat="40.73234667" lon="-3.92973667">
        <ele>988.0</ele>
        <time>2018-05-26T08:33:10.158Z</time>
      </trkpt>
      <trkpt lat="40.73234667" lon="-3.92973667">
        <ele>988.0</ele>
        <time>2018-05-26T08:33:11.138Z</time>
      </trkpt>
      <trkpt lat="40.73233333" lon="-3.92979">
        <ele>988.0</ele>
        <time>2018-05-26T08:33:12.145Z</time>
      </trkpt>
      <trkpt lat="40.73233333" lon="-3.92979">
        <ele>988.0</ele>
        <time>2018-05-26T08:33:13.146Z</time>
      </trkpt>
      <trkpt lat="40.73232" lon="-3.92984167">
        <ele>989.0</ele>
        <time>2018-05-26T08:33:14.152Z</time>
      </trkpt>
      <trkpt lat="40.73232" lon="-3.92984167">
        <ele>989.0</ele>
        <time>2018-05-26T08:33:15.142Z</time>
      </trkpt>
      <trkpt lat="40.73231167" lon="-3.929895">
        <ele>989.0</ele>
        <time>2018-05-26T08:33:16.171Z</time>
      </trkpt>
      <trkpt lat="40.73231167" lon="-3.929895">
        <ele>989.0</ele>
        <time>2018-05-26T08:33:17.150Z</time>
      </trkpt>
      <trkpt lat="40.732305" lon="-3.92994333">
        <ele>989.0</ele>
        <time>2018-05-26T08:33:18.158Z</time>
      </trkpt>
      <trkpt lat="40.732305" lon="-3.92994333">
        <ele>989.0</ele>
        <time>2018-05-26T08:33:19.143Z</time>
      </trkpt>
      <trkpt lat="40.73230667" lon="-3.92999667">
        <ele>989.0</ele>
        <time>2018-05-26T08:33:20.138Z</time>
      </trkpt>
      <trkpt lat="40.73230667" lon="-3.93003">
        <ele>989.0</ele>
        <time>2018-05-26T08:33:21.142Z</time>
      </trkpt>
      <trkpt lat="40.73230667" lon="-3.93003">
        <ele>989.0</ele>
        <time>2018-05-26T08:33:22.173Z</time>
      </trkpt>
      <trkpt lat="40.73230833" lon="-3.93009833">
        <ele>990.0</ele>
        <time>2018-05-26T08:33:23.152Z</time>
      </trkpt>
      <trkpt lat="40.73230833" lon="-3.93013333">
        <ele>990.0</ele>
        <time>2018-05-26T08:33:24.149Z</time>
      </trkpt>
      <trkpt lat="40.73230833" lon="-3.93013333">
        <ele>990.0</ele>
        <time>2018-05-26T08:33:25.142Z</time>
      </trkpt>
      <trkpt lat="40.73231167" lon="-3.93020833">
        <ele>990.0</ele>
        <time>2018-05-26T08:33:26.174Z</time>
      </trkpt>
      <trkpt lat="40.73231167" lon="-3.93020833">
        <ele>990.0</ele>
        <time>2018-05-26T08:33:27.146Z</time>
      </trkpt>
      <trkpt lat="40.732315" lon="-3.93028833">
        <ele>990.0</ele>
        <time>2018-05-26T08:33:28.154Z</time>
      </trkpt>
      <trkpt lat="40.732315" lon="-3.93028833">
        <ele>990.0</ele>
        <time>2018-05-26T08:33:29.148Z</time>
      </trkpt>
      <trkpt lat="40.73232167" lon="-3.93037167">
        <ele>990.0</ele>
        <time>2018-05-26T08:33:30.171Z</time>
      </trkpt>
      <trkpt lat="40.73232167" lon="-3.93037167">
        <ele>990.0</ele>
        <time>2018-05-26T08:33:31.153Z</time>
      </trkpt>
      <trkpt lat="40.73233" lon="-3.93046">
        <ele>990.0</ele>
        <time>2018-05-26T08:33:32.161Z</time>
      </trkpt>
      <trkpt lat="40.73233" lon="-3.93046">
        <ele>990.0</ele>
        <time>2018-05-26T08:33:33.155Z</time>
      </trkpt>
      <trkpt lat="40.73233667" lon="-3.93054833">
        <ele>990.0</ele>
        <time>2018-05-26T08:33:34.171Z</time>
      </trkpt>
      <trkpt lat="40.73233667" lon="-3.93054833">
        <ele>990.0</ele>
        <time>2018-05-26T08:33:35.156Z</time>
      </trkpt>
      <trkpt lat="40.732345" lon="-3.93064167">
        <ele>990.0</ele>
        <time>2018-05-26T08:33:36.162Z</time>
      </trkpt>
      <trkpt lat="40.732345" lon="-3.93064167">
        <ele>990.0</ele>
        <time>2018-05-26T08:33:37.150Z</time>
      </trkpt>
      <trkpt lat="40.73236" lon="-3.93073167">
        <ele>990.0</ele>
        <time>2018-05-26T08:33:38.172Z</time>
      </trkpt>
      <trkpt lat="40.73236833" lon="-3.93077833">
        <ele>990.0</ele>
        <time>2018-05-26T08:33:39.166Z</time>
      </trkpt>
      <trkpt lat="40.73237833" lon="-3.93082167">
        <ele>990.0</ele>
        <time>2018-05-26T08:33:40.151Z</time>
      </trkpt>
      <trkpt lat="40.73237833" lon="-3.93082167">
        <ele>990.0</ele>
        <time>2018-05-26T08:33:41.139Z</time>
      </trkpt>
      <trkpt lat="40.73240667" lon="-3.93091167">
        <ele>991.0</ele>
        <time>2018-05-26T08:33:42.150Z</time>
      </trkpt>
      <trkpt lat="40.73240667" lon="-3.93091167">
        <ele>991.0</ele>
        <time>2018-05-26T08:33:43.138Z</time>
      </trkpt>
      <trkpt lat="40.73243833" lon="-3.930995">
        <ele>991.0</ele>
        <time>2018-05-26T08:33:44.172Z</time>
      </trkpt>
      <trkpt lat="40.732455" lon="-3.93103833">
        <ele>991.0</ele>
        <time>2018-05-26T08:33:45.157Z</time>
      </trkpt>
      <trkpt lat="40.732455" lon="-3.93103833">
        <ele>991.0</ele>
        <time>2018-05-26T08:33:46.149Z</time>
      </trkpt>
      <trkpt lat="40.73249" lon="-3.93112">
        <ele>991.0</ele>
        <time>2018-05-26T08:33:47.166Z</time>
      </trkpt>
      <trkpt lat="40.73249" lon="-3.93112">
        <ele>991.0</ele>
        <time>2018-05-26T08:33:48.163Z</time>
      </trkpt>
      <trkpt lat="40.732525" lon="-3.931205">
        <ele>991.0</ele>
        <time>2018-05-26T08:33:49.170Z</time>
      </trkpt>
      <trkpt lat="40.73254167" lon="-3.93124833">
        <ele>991.0</ele>
        <time>2018-05-26T08:33:50.173Z</time>
      </trkpt>
      <trkpt lat="40.73254167" lon="-3.93124833">
        <ele>991.0</ele>
        <time>2018-05-26T08:33:51.143Z</time>
      </trkpt>
      <trkpt lat="40.73258167" lon="-3.931335">
        <ele>991.0</ele>
        <time>2018-05-26T08:33:52.150Z</time>
      </trkpt>
      <trkpt lat="40.73258167" lon="-3.931335">
        <ele>991.0</ele>
        <time>2018-05-26T08:33:53.146Z</time>
      </trkpt>
      <trkpt lat="40.73262" lon="-3.93141667">
        <ele>992.0</ele>
        <time>2018-05-26T08:33:54.139Z</time>
      </trkpt>
      <trkpt lat="40.73262" lon="-3.93141667">
        <ele>992.0</ele>
        <time>2018-05-26T08:33:55.155Z</time>
      </trkpt>
      <trkpt lat="40.73265667" lon="-3.93149667">
        <ele>992.0</ele>
        <time>2018-05-26T08:33:56.162Z</time>
      </trkpt>
      <trkpt lat="40.73265667" lon="-3.93149667">
        <ele>992.0</ele>
        <time>2018-05-26T08:33:57.148Z</time>
      </trkpt>
      <trkpt lat="40.73268833" lon="-3.93157333">
        <ele>992.0</ele>
        <time>2018-05-26T08:33:58.172Z</time>
      </trkpt>
      <trkpt lat="40.73268833" lon="-3.93157333">
        <ele>992.0</ele>
        <time>2018-05-26T08:33:59.140Z</time>
      </trkpt>
      <trkpt lat="40.73271667" lon="-3.931655">
        <ele>992.0</ele>
        <time>2018-05-26T08:34:00.154Z</time>
      </trkpt>
      <trkpt lat="40.73273" lon="-3.93169667">
        <ele>992.0</ele>
        <time>2018-05-26T08:34:01.142Z</time>
      </trkpt>
      <trkpt lat="40.73273" lon="-3.93169667">
        <ele>992.0</ele>
        <time>2018-05-26T08:34:02.167Z</time>
      </trkpt>
      <trkpt lat="40.73275167" lon="-3.93177333">
        <ele>993.0</ele>
        <time>2018-05-26T08:34:03.149Z</time>
      </trkpt>
      <trkpt lat="40.73276167" lon="-3.93181167">
        <ele>993.0</ele>
        <time>2018-05-26T08:34:04.174Z</time>
      </trkpt>
      <trkpt lat="40.73276167" lon="-3.93181167">
        <ele>993.0</ele>
        <time>2018-05-26T08:34:05.160Z</time>
      </trkpt>
      <trkpt lat="40.73278167" lon="-3.931895">
        <ele>993.0</ele>
        <time>2018-05-26T08:34:06.168Z</time>
      </trkpt>
      <trkpt lat="40.73278667" lon="-3.93194">
        <ele>994.0</ele>
        <time>2018-05-26T08:34:07.143Z</time>
      </trkpt>
      <trkpt lat="40.73278667" lon="-3.93194">
        <ele>994.0</ele>
        <time>2018-05-26T08:34:08.175Z</time>
      </trkpt>
      <trkpt lat="40.73280167" lon="-3.932025">
        <ele>994.0</ele>
        <time>2018-05-26T08:34:09.144Z</time>
      </trkpt>
      <trkpt lat="40.73280833" lon="-3.93206833">
        <ele>994.0</ele>
        <time>2018-05-26T08:34:10.166Z</time>
      </trkpt>
      <trkpt lat="40.73280833" lon="-3.93206833">
        <ele>994.0</ele>
        <time>2018-05-26T08:34:11.154Z</time>
      </trkpt>
      <trkpt lat="40.73281667" lon="-3.93215167">
        <ele>995.0</ele>
        <time>2018-05-26T08:34:12.161Z</time>
      </trkpt>
      <trkpt lat="40.73282" lon="-3.93219333">
        <ele>995.0</ele>
        <time>2018-05-26T08:34:13.141Z</time>
      </trkpt>
      <trkpt lat="40.73282" lon="-3.93219333">
        <ele>995.0</ele>
        <time>2018-05-26T08:34:14.170Z</time>
      </trkpt>
      <trkpt lat="40.73282167" lon="-3.93227667">
        <ele>995.0</ele>
        <time>2018-05-26T08:34:15.136Z</time>
      </trkpt>
      <trkpt lat="40.73281833" lon="-3.93231667">
        <ele>996.0</ele>
        <time>2018-05-26T08:34:16.153Z</time>
      </trkpt>
      <trkpt lat="40.73281833" lon="-3.93231667">
        <ele>996.0</ele>
        <time>2018-05-26T08:34:17.142Z</time>
      </trkpt>
      <trkpt lat="40.732805" lon="-3.93239667">
        <ele>996.0</ele>
        <time>2018-05-26T08:34:18.140Z</time>
      </trkpt>
      <trkpt lat="40.732805" lon="-3.93239667">
        <ele>996.0</ele>
        <time>2018-05-26T08:34:19.151Z</time>
      </trkpt>
      <trkpt lat="40.73278" lon="-3.93247667">
        <ele>996.0</ele>
        <time>2018-05-26T08:34:20.157Z</time>
      </trkpt>
      <trkpt lat="40.73276667" lon="-3.93251667">
        <ele>996.0</ele>
        <time>2018-05-26T08:34:21.150Z</time>
      </trkpt>
      <trkpt lat="40.732755" lon="-3.93255667">
        <ele>996.0</ele>
        <time>2018-05-26T08:34:22.166Z</time>
      </trkpt>
      <trkpt lat="40.732755" lon="-3.93255667">
        <ele>996.0</ele>
        <time>2018-05-26T08:34:23.160Z</time>
      </trkpt>
      <trkpt lat="40.73272667" lon="-3.93263333">
        <ele>997.0</ele>
        <time>2018-05-26T08:34:24.176Z</time>
      </trkpt>
      <trkpt lat="40.73271167" lon="-3.93267">
        <ele>997.0</ele>
        <time>2018-05-26T08:34:25.149Z</time>
      </trkpt>
      <trkpt lat="40.73271167" lon="-3.93267">
        <ele>997.0</ele>
        <time>2018-05-26T08:34:26.147Z</time>
      </trkpt>
      <trkpt lat="40.73268" lon="-3.93274833">
        <ele>997.0</ele>
        <time>2018-05-26T08:34:27.153Z</time>
      </trkpt>
      <trkpt lat="40.73266333" lon="-3.93278833">
        <ele>997.0</ele>
        <time>2018-05-26T08:34:28.172Z</time>
      </trkpt>
      <trkpt lat="40.73266333" lon="-3.93278833">
        <ele>997.0</ele>
        <time>2018-05-26T08:34:29.154Z</time>
      </trkpt>
      <trkpt lat="40.73263333" lon="-3.93286833">
        <ele>998.0</ele>
        <time>2018-05-26T08:34:30.161Z</time>
      </trkpt>
      <trkpt lat="40.73261833" lon="-3.93290667">
        <ele>999.0</ele>
        <time>2018-05-26T08:34:31.161Z</time>
      </trkpt>
      <trkpt lat="40.73261833" lon="-3.93290667">
        <ele>999.0</ele>
        <time>2018-05-26T08:34:32.149Z</time>
      </trkpt>
      <trkpt lat="40.73259333" lon="-3.93298833">
        <ele>999.0</ele>
        <time>2018-05-26T08:34:33.160Z</time>
      </trkpt>
      <trkpt lat="40.732585" lon="-3.93303">
        <ele>999.0</ele>
        <time>2018-05-26T08:34:34.171Z</time>
      </trkpt>
      <trkpt lat="40.732585" lon="-3.93303">
        <ele>999.0</ele>
        <time>2018-05-26T08:34:35.158Z</time>
      </trkpt>
      <trkpt lat="40.73258167" lon="-3.93312333">
        <ele>999.0</ele>
        <time>2018-05-26T08:34:36.164Z</time>
      </trkpt>
      <trkpt lat="40.73258167" lon="-3.93312333">
        <ele>999.0</ele>
        <time>2018-05-26T08:34:37.150Z</time>
      </trkpt>
      <trkpt lat="40.7326" lon="-3.93321667">
        <ele>999.0</ele>
        <time>2018-05-26T08:34:38.137Z</time>
      </trkpt>
      <trkpt lat="40.73261" lon="-3.93326">
        <ele>999.0</ele>
        <time>2018-05-26T08:34:39.151Z</time>
      </trkpt>
      <trkpt lat="40.73261" lon="-3.93326">
        <ele>999.0</ele>
        <time>2018-05-26T08:34:40.141Z</time>
      </trkpt>
      <trkpt lat="40.73263167" lon="-3.933355">
        <ele>999.0</ele>
        <time>2018-05-26T08:34:41.152Z</time>
      </trkpt>
      <trkpt lat="40.73263167" lon="-3.933355">
        <ele>999.0</ele>
        <time>2018-05-26T08:34:42.169Z</time>
      </trkpt>
      <trkpt lat="40.73265333" lon="-3.93344833">
        <ele>999.0</ele>
        <time>2018-05-26T08:34:43.143Z</time>
      </trkpt>
      <trkpt lat="40.73265333" lon="-3.93344833">
        <ele>999.0</ele>
        <time>2018-05-26T08:34:44.158Z</time>
      </trkpt>
      <trkpt lat="40.732675" lon="-3.93354333">
        <ele>1000.0</ele>
        <time>2018-05-26T08:34:45.140Z</time>
      </trkpt>
      <trkpt lat="40.73268333" lon="-3.93358667">
        <ele>1000.0</ele>
        <time>2018-05-26T08:34:46.157Z</time>
      </trkpt>
      <trkpt lat="40.73268333" lon="-3.93358667">
        <ele>1000.0</ele>
        <time>2018-05-26T08:34:47.173Z</time>
      </trkpt>
      <trkpt lat="40.73270167" lon="-3.93368">
        <ele>1000.0</ele>
        <time>2018-05-26T08:34:48.137Z</time>
      </trkpt>
      <trkpt lat="40.73270167" lon="-3.93368">
        <ele>1000.0</ele>
        <time>2018-05-26T08:34:49.139Z</time>
      </trkpt>
      <trkpt lat="40.732715" lon="-3.933775">
        <ele>1001.0</ele>
        <time>2018-05-26T08:34:50.146Z</time>
      </trkpt>
      <trkpt lat="40.73272" lon="-3.93382167">
        <ele>1001.0</ele>
        <time>2018-05-26T08:34:51.174Z</time>
      </trkpt>
      <trkpt lat="40.73272" lon="-3.93382167">
        <ele>1001.0</ele>
        <time>2018-05-26T08:34:52.159Z</time>
      </trkpt>
      <trkpt lat="40.73272667" lon="-3.933915">
        <ele>1001.0</ele>
        <time>2018-05-26T08:34:53.138Z</time>
      </trkpt>
      <trkpt lat="40.73272667" lon="-3.933915">
        <ele>1001.0</ele>
        <time>2018-05-26T08:34:54.141Z</time>
      </trkpt>
      <trkpt lat="40.732735" lon="-3.93400833">
        <ele>1001.0</ele>
        <time>2018-05-26T08:34:55.151Z</time>
      </trkpt>
      <trkpt lat="40.732735" lon="-3.93400833">
        <ele>1001.0</ele>
        <time>2018-05-26T08:34:56.140Z</time>
      </trkpt>
      <trkpt lat="40.73273667" lon="-3.93411167">
        <ele>1001.0</ele>
        <time>2018-05-26T08:34:57.150Z</time>
      </trkpt>
      <trkpt lat="40.73273667" lon="-3.93411167">
        <ele>1001.0</ele>
        <time>2018-05-26T08:34:58.174Z</time>
      </trkpt>
      <trkpt lat="40.73274167" lon="-3.93421667">
        <ele>1001.0</ele>
        <time>2018-05-26T08:34:59.142Z</time>
      </trkpt>
      <trkpt lat="40.73274167" lon="-3.93421667">
        <ele>1001.0</ele>
        <time>2018-05-26T08:35:00.148Z</time>
      </trkpt>
      <trkpt lat="40.73274833" lon="-3.93432">
        <ele>1001.0</ele>
        <time>2018-05-26T08:35:01.160Z</time>
      </trkpt>
      <trkpt lat="40.73274833" lon="-3.93432">
        <ele>1001.0</ele>
        <time>2018-05-26T08:35:02.145Z</time>
      </trkpt>
      <trkpt lat="40.73276167" lon="-3.93441667">
        <ele>1002.0</ele>
        <time>2018-05-26T08:35:03.151Z</time>
      </trkpt>
      <trkpt lat="40.73276833" lon="-3.934465">
        <ele>1002.0</ele>
        <time>2018-05-26T08:35:04.171Z</time>
      </trkpt>
      <trkpt lat="40.73276833" lon="-3.934465">
        <ele>1002.0</ele>
        <time>2018-05-26T08:35:05.149Z</time>
      </trkpt>
      <trkpt lat="40.732785" lon="-3.93456167">
        <ele>1003.0</ele>
        <time>2018-05-26T08:35:06.164Z</time>
      </trkpt>
      <trkpt lat="40.73279167" lon="-3.93461333">
        <ele>1003.0</ele>
        <time>2018-05-26T08:35:07.153Z</time>
      </trkpt>
      <trkpt lat="40.73279167" lon="-3.93461333">
        <ele>1003.0</ele>
        <time>2018-05-26T08:35:08.142Z</time>
      </trkpt>
      <trkpt lat="40.73280167" lon="-3.934715">
        <ele>1003.0</ele>
        <time>2018-05-26T08:35:09.154Z</time>
      </trkpt>
      <trkpt lat="40.73280667" lon="-3.93476667">
        <ele>1003.0</ele>
        <time>2018-05-26T08:35:10.146Z</time>
      </trkpt>
      <trkpt lat="40.73280667" lon="-3.93476667">
        <ele>1003.0</ele>
        <time>2018-05-26T08:35:11.174Z</time>
      </trkpt>
      <trkpt lat="40.73281333" lon="-3.93486667">
        <ele>1004.0</ele>
        <time>2018-05-26T08:35:12.142Z</time>
      </trkpt>
      <trkpt lat="40.732815" lon="-3.93491667">
        <ele>1004.0</ele>
        <time>2018-05-26T08:35:13.143Z</time>
      </trkpt>
      <trkpt lat="40.73281667" lon="-3.934965">
        <ele>1004.0</ele>
        <time>2018-05-26T08:35:14.171Z</time>
      </trkpt>
      <trkpt lat="40.73281667" lon="-3.934965">
        <ele>1004.0</ele>
        <time>2018-05-26T08:35:15.152Z</time>
      </trkpt>
      <trkpt lat="40.732815" lon="-3.93506167">
        <ele>1005.0</ele>
        <time>2018-05-26T08:35:16.172Z</time>
      </trkpt>
      <trkpt lat="40.732815" lon="-3.93506167">
        <ele>1005.0</ele>
        <time>2018-05-26T08:35:17.141Z</time>
      </trkpt>
      <trkpt lat="40.73281167" lon="-3.93515833">
        <ele>1005.0</ele>
        <time>2018-05-26T08:35:18.147Z</time>
      </trkpt>
      <trkpt lat="40.73281167" lon="-3.93515833">
        <ele>1005.0</ele>
        <time>2018-05-26T08:35:19.146Z</time>
      </trkpt>
      <trkpt lat="40.73281333" lon="-3.93525167">
        <ele>1005.0</ele>
        <time>2018-05-26T08:35:20.142Z</time>
      </trkpt>
      <trkpt lat="40.73281333" lon="-3.93525167">
        <ele>1005.0</ele>
        <time>2018-05-26T08:35:21.156Z</time>
      </trkpt>
      <trkpt lat="40.73281167" lon="-3.935345">
        <ele>1006.0</ele>
        <time>2018-05-26T08:35:22.162Z</time>
      </trkpt>
      <trkpt lat="40.73280833" lon="-3.93539167">
        <ele>1006.0</ele>
        <time>2018-05-26T08:35:23.175Z</time>
      </trkpt>
      <trkpt lat="40.73280333" lon="-3.93543667">
        <ele>1006.0</ele>
        <time>2018-05-26T08:35:24.166Z</time>
      </trkpt>
      <trkpt lat="40.73280333" lon="-3.93543667">
        <ele>1006.0</ele>
        <time>2018-05-26T08:35:25.152Z</time>
      </trkpt>
      <trkpt lat="40.732795" lon="-3.93552667">
        <ele>1007.0</ele>
        <time>2018-05-26T08:35:26.164Z</time>
      </trkpt>
      <trkpt lat="40.73279" lon="-3.93557167">
        <ele>1007.0</ele>
        <time>2018-05-26T08:35:27.152Z</time>
      </trkpt>
      <trkpt lat="40.732785" lon="-3.93561667">
        <ele>1007.0</ele>
        <time>2018-05-26T08:35:28.169Z</time>
      </trkpt>
      <trkpt lat="40.73277833" lon="-3.93566">
        <ele>1007.0</ele>
        <time>2018-05-26T08:35:29.157Z</time>
      </trkpt>
      <trkpt lat="40.73277833" lon="-3.93566">
        <ele>1007.0</ele>
        <time>2018-05-26T08:35:30.143Z</time>
      </trkpt>
      <trkpt lat="40.73277" lon="-3.93575167">
        <ele>1007.0</ele>
        <time>2018-05-26T08:35:31.154Z</time>
      </trkpt>
      <trkpt lat="40.732765" lon="-3.93579833">
        <ele>1008.0</ele>
        <time>2018-05-26T08:35:32.150Z</time>
      </trkpt>
      <trkpt lat="40.732765" lon="-3.93579833">
        <ele>1008.0</ele>
        <time>2018-05-26T08:35:33.147Z</time>
      </trkpt>
      <trkpt lat="40.732755" lon="-3.93589333">
        <ele>1008.0</ele>
        <time>2018-05-26T08:35:34.154Z</time>
      </trkpt>
      <trkpt lat="40.732755" lon="-3.93589333">
        <ele>1008.0</ele>
        <time>2018-05-26T08:35:35.158Z</time>
      </trkpt>
      <trkpt lat="40.73273833" lon="-3.93598833">
        <ele>1008.0</ele>
        <time>2018-05-26T08:35:36.163Z</time>
      </trkpt>
      <trkpt lat="40.73273833" lon="-3.93598833">
        <ele>1008.0</ele>
        <time>2018-05-26T08:35:37.156Z</time>
      </trkpt>
      <trkpt lat="40.73272333" lon="-3.93608">
        <ele>1008.0</ele>
        <time>2018-05-26T08:35:38.144Z</time>
      </trkpt>
      <trkpt lat="40.73272333" lon="-3.93608">
        <ele>1008.0</ele>
        <time>2018-05-26T08:35:39.168Z</time>
      </trkpt>
      <trkpt lat="40.73270833" lon="-3.93617167">
        <ele>1009.0</ele>
        <time>2018-05-26T08:35:40.175Z</time>
      </trkpt>
      <trkpt lat="40.73270833" lon="-3.93617167">
        <ele>1009.0</ele>
        <time>2018-05-26T08:35:41.162Z</time>
      </trkpt>
      <trkpt lat="40.73268833" lon="-3.93626">
        <ele>1009.0</ele>
        <time>2018-05-26T08:35:42.136Z</time>
      </trkpt>
      <trkpt lat="40.73268833" lon="-3.93626">
        <ele>1009.0</ele>
        <time>2018-05-26T08:35:43.144Z</time>
      </trkpt>
      <trkpt lat="40.732665" lon="-3.93634333">
        <ele>1009.0</ele>
        <time>2018-05-26T08:35:44.153Z</time>
      </trkpt>
      <trkpt lat="40.73265333" lon="-3.93638167">
        <ele>1010.0</ele>
        <time>2018-05-26T08:35:45.171Z</time>
      </trkpt>
      <trkpt lat="40.73264333" lon="-3.93642167">
        <ele>1010.0</ele>
        <time>2018-05-26T08:35:46.157Z</time>
      </trkpt>
      <trkpt lat="40.73264333" lon="-3.93642167">
        <ele>1010.0</ele>
        <time>2018-05-26T08:35:47.156Z</time>
      </trkpt>
      <trkpt lat="40.732625" lon="-3.9365">
        <ele>1010.0</ele>
        <time>2018-05-26T08:35:48.175Z</time>
      </trkpt>
      <trkpt lat="40.732625" lon="-3.9365">
        <ele>1010.0</ele>
        <time>2018-05-26T08:35:49.155Z</time>
      </trkpt>
      <trkpt lat="40.73261" lon="-3.93657833">
        <ele>1011.0</ele>
        <time>2018-05-26T08:35:50.162Z</time>
      </trkpt>
      <trkpt lat="40.73261" lon="-3.93657833">
        <ele>1011.0</ele>
        <time>2018-05-26T08:35:51.148Z</time>
      </trkpt>
      <trkpt lat="40.73259833" lon="-3.936655">
        <ele>1011.0</ele>
        <time>2018-05-26T08:35:52.136Z</time>
      </trkpt>
      <trkpt lat="40.73259833" lon="-3.936655">
        <ele>1011.0</ele>
        <time>2018-05-26T08:35:53.141Z</time>
      </trkpt>
      <trkpt lat="40.73258833" lon="-3.93673167">
        <ele>1012.0</ele>
        <time>2018-05-26T08:35:54.148Z</time>
      </trkpt>
      <trkpt lat="40.73258833" lon="-3.93673167">
        <ele>1012.0</ele>
        <time>2018-05-26T08:35:55.137Z</time>
      </trkpt>
      <trkpt lat="40.73258333" lon="-3.93680833">
        <ele>1012.0</ele>
        <time>2018-05-26T08:35:56.172Z</time>
      </trkpt>
      <trkpt lat="40.73257833" lon="-3.93684667">
        <ele>1012.0</ele>
        <time>2018-05-26T08:35:57.142Z</time>
      </trkpt>
      <trkpt lat="40.73257333" lon="-3.93688667">
        <ele>1012.0</ele>
        <time>2018-05-26T08:35:58.167Z</time>
      </trkpt>
      <trkpt lat="40.73257333" lon="-3.93688667">
        <ele>1012.0</ele>
        <time>2018-05-26T08:35:59.155Z</time>
      </trkpt>
      <trkpt lat="40.73256167" lon="-3.93696833">
        <ele>1013.0</ele>
        <time>2018-05-26T08:36:00.158Z</time>
      </trkpt>
      <trkpt lat="40.73255667" lon="-3.93701167">
        <ele>1013.0</ele>
        <time>2018-05-26T08:36:01.145Z</time>
      </trkpt>
      <trkpt lat="40.73255333" lon="-3.93705333">
        <ele>1013.0</ele>
        <time>2018-05-26T08:36:02.175Z</time>
      </trkpt>
      <trkpt lat="40.73255333" lon="-3.93705333">
        <ele>1013.0</ele>
        <time>2018-05-26T08:36:03.164Z</time>
      </trkpt>
      <trkpt lat="40.73254833" lon="-3.93714">
        <ele>1014.0</ele>
        <time>2018-05-26T08:36:04.171Z</time>
      </trkpt>
      <trkpt lat="40.73254833" lon="-3.93714">
        <ele>1014.0</ele>
        <time>2018-05-26T08:36:05.153Z</time>
      </trkpt>
      <trkpt lat="40.73254167" lon="-3.93722833">
        <ele>1014.0</ele>
        <time>2018-05-26T08:36:06.168Z</time>
      </trkpt>
      <trkpt lat="40.73253833" lon="-3.93727167">
        <ele>1014.0</ele>
        <time>2018-05-26T08:36:07.159Z</time>
      </trkpt>
      <trkpt lat="40.73253833" lon="-3.93727167">
        <ele>1014.0</ele>
        <time>2018-05-26T08:36:08.146Z</time>
      </trkpt>
      <trkpt lat="40.73253667" lon="-3.93736">
        <ele>1014.0</ele>
        <time>2018-05-26T08:36:09.173Z</time>
      </trkpt>
      <trkpt lat="40.73253667" lon="-3.93736">
        <ele>1014.0</ele>
        <time>2018-05-26T08:36:10.173Z</time>
      </trkpt>
      <trkpt lat="40.73253333" lon="-3.93744667">
        <ele>1014.0</ele>
        <time>2018-05-26T08:36:11.139Z</time>
      </trkpt>
      <trkpt lat="40.73253333" lon="-3.93744667">
        <ele>1014.0</ele>
        <time>2018-05-26T08:36:12.166Z</time>
      </trkpt>
      <trkpt lat="40.73252833" lon="-3.93753333">
        <ele>1014.0</ele>
        <time>2018-05-26T08:36:13.174Z</time>
      </trkpt>
      <trkpt lat="40.73252833" lon="-3.93753333">
        <ele>1014.0</ele>
        <time>2018-05-26T08:36:14.148Z</time>
      </trkpt>
      <trkpt lat="40.732525" lon="-3.93762167">
        <ele>1015.0</ele>
        <time>2018-05-26T08:36:15.155Z</time>
      </trkpt>
      <trkpt lat="40.73252167" lon="-3.93766667">
        <ele>1015.0</ele>
        <time>2018-05-26T08:36:16.146Z</time>
      </trkpt>
      <trkpt lat="40.73252167" lon="-3.93766667">
        <ele>1015.0</ele>
        <time>2018-05-26T08:36:17.160Z</time>
      </trkpt>
      <trkpt lat="40.73251833" lon="-3.937755">
        <ele>1016.0</ele>
        <time>2018-05-26T08:36:18.169Z</time>
      </trkpt>
      <trkpt lat="40.73251667" lon="-3.9378">
        <ele>1016.0</ele>
        <time>2018-05-26T08:36:19.157Z</time>
      </trkpt>
      <trkpt lat="40.73251667" lon="-3.9378">
        <ele>1016.0</ele>
        <time>2018-05-26T08:36:20.165Z</time>
      </trkpt>
      <trkpt lat="40.73251667" lon="-3.93789167">
        <ele>1016.0</ele>
        <time>2018-05-26T08:36:21.172Z</time>
      </trkpt>
      <trkpt lat="40.73251667" lon="-3.93789167">
        <ele>1016.0</ele>
        <time>2018-05-26T08:36:22.158Z</time>
      </trkpt>
      <trkpt lat="40.73252333" lon="-3.93797833">
        <ele>1017.0</ele>
        <time>2018-05-26T08:36:23.172Z</time>
      </trkpt>
      <trkpt lat="40.73252333" lon="-3.93797833">
        <ele>1017.0</ele>
        <time>2018-05-26T08:36:24.139Z</time>
      </trkpt>
      <trkpt lat="40.73253" lon="-3.93806167">
        <ele>1017.0</ele>
        <time>2018-05-26T08:36:25.151Z</time>
      </trkpt>
      <trkpt lat="40.73253" lon="-3.93806167">
        <ele>1017.0</ele>
        <time>2018-05-26T08:36:26.175Z</time>
      </trkpt>
      <trkpt lat="40.73253167" lon="-3.93814667">
        <ele>1018.0</ele>
        <time>2018-05-26T08:36:27.172Z</time>
      </trkpt>
      <trkpt lat="40.73253667" lon="-3.93819">
        <ele>1018.0</ele>
        <time>2018-05-26T08:36:28.145Z</time>
      </trkpt>
      <trkpt lat="40.73253667" lon="-3.93819">
        <ele>1018.0</ele>
        <time>2018-05-26T08:36:29.145Z</time>
      </trkpt>
      <trkpt lat="40.73254667" lon="-3.93827833">
        <ele>1018.0</ele>
        <time>2018-05-26T08:36:30.137Z</time>
      </trkpt>
      <trkpt lat="40.73255167" lon="-3.93832333">
        <ele>1018.0</ele>
        <time>2018-05-26T08:36:31.159Z</time>
      </trkpt>
      <trkpt lat="40.732555" lon="-3.93837">
        <ele>1018.0</ele>
        <time>2018-05-26T08:36:32.147Z</time>
      </trkpt>
      <trkpt lat="40.732555" lon="-3.93837">
        <ele>1018.0</ele>
        <time>2018-05-26T08:36:33.145Z</time>
      </trkpt>
      <trkpt lat="40.73256" lon="-3.93846">
        <ele>1019.0</ele>
        <time>2018-05-26T08:36:34.151Z</time>
      </trkpt>
      <trkpt lat="40.73256" lon="-3.93846">
        <ele>1019.0</ele>
        <time>2018-05-26T08:36:35.141Z</time>
      </trkpt>
      <trkpt lat="40.732565" lon="-3.93855167">
        <ele>1019.0</ele>
        <time>2018-05-26T08:36:36.156Z</time>
      </trkpt>
      <trkpt lat="40.732565" lon="-3.93855167">
        <ele>1019.0</ele>
        <time>2018-05-26T08:36:37.138Z</time>
      </trkpt>
      <trkpt lat="40.73257" lon="-3.93864167">
        <ele>1020.0</ele>
        <time>2018-05-26T08:36:38.153Z</time>
      </trkpt>
      <trkpt lat="40.73257333" lon="-3.93868333">
        <ele>1020.0</ele>
        <time>2018-05-26T08:36:39.140Z</time>
      </trkpt>
      <trkpt lat="40.73257333" lon="-3.93868333">
        <ele>1020.0</ele>
        <time>2018-05-26T08:36:40.151Z</time>
      </trkpt>
      <trkpt lat="40.73258167" lon="-3.93876833">
        <ele>1020.0</ele>
        <time>2018-05-26T08:36:41.159Z</time>
      </trkpt>
      <trkpt lat="40.73258167" lon="-3.93876833">
        <ele>1020.0</ele>
        <time>2018-05-26T08:36:42.140Z</time>
      </trkpt>
      <trkpt lat="40.73259" lon="-3.93885167">
        <ele>1021.0</ele>
        <time>2018-05-26T08:36:43.145Z</time>
      </trkpt>
      <trkpt lat="40.73259" lon="-3.93885167">
        <ele>1021.0</ele>
        <time>2018-05-26T08:36:44.169Z</time>
      </trkpt>
      <trkpt lat="40.73259667" lon="-3.93892667">
        <ele>1021.0</ele>
        <time>2018-05-26T08:36:45.144Z</time>
      </trkpt>
      <trkpt lat="40.7326" lon="-3.938965">
        <ele>1022.0</ele>
        <time>2018-05-26T08:36:46.176Z</time>
      </trkpt>
      <trkpt lat="40.7326" lon="-3.938965">
        <ele>1022.0</ele>
        <time>2018-05-26T08:36:47.161Z</time>
      </trkpt>
      <trkpt lat="40.732605" lon="-3.93904">
        <ele>1022.0</ele>
        <time>2018-05-26T08:36:48.168Z</time>
      </trkpt>
      <trkpt lat="40.73260833" lon="-3.93908">
        <ele>1022.0</ele>
        <time>2018-05-26T08:36:49.174Z</time>
      </trkpt>
      <trkpt lat="40.73261" lon="-3.93911833">
        <ele>1022.0</ele>
        <time>2018-05-26T08:36:50.163Z</time>
      </trkpt>
      <trkpt lat="40.73261" lon="-3.93911833">
        <ele>1022.0</ele>
        <time>2018-05-26T08:36:51.147Z</time>
      </trkpt>
      <trkpt lat="40.73261667" lon="-3.93919667">
        <ele>1023.0</ele>
        <time>2018-05-26T08:36:52.153Z</time>
      </trkpt>
      <trkpt lat="40.73261667" lon="-3.93919667">
        <ele>1023.0</ele>
        <time>2018-05-26T08:36:53.155Z</time>
      </trkpt>
      <trkpt lat="40.73262333" lon="-3.93927333">
        <ele>1023.0</ele>
        <time>2018-05-26T08:36:54.155Z</time>
      </trkpt>
      <trkpt lat="40.73262333" lon="-3.93927333">
        <ele>1023.0</ele>
        <time>2018-05-26T08:36:55.141Z</time>
      </trkpt>
      <trkpt lat="40.73262833" lon="-3.93934833">
        <ele>1023.0</ele>
        <time>2018-05-26T08:36:56.148Z</time>
      </trkpt>
      <trkpt lat="40.73262833" lon="-3.93934833">
        <ele>1023.0</ele>
        <time>2018-05-26T08:36:57.137Z</time>
      </trkpt>
      <trkpt lat="40.732635" lon="-3.93942">
        <ele>1024.0</ele>
        <time>2018-05-26T08:36:58.175Z</time>
      </trkpt>
      <trkpt lat="40.732635" lon="-3.93942">
        <ele>1024.0</ele>
        <time>2018-05-26T08:36:59.164Z</time>
      </trkpt>
      <trkpt lat="40.73264" lon="-3.93949167">
        <ele>1025.0</ele>
        <time>2018-05-26T08:37:00.154Z</time>
      </trkpt>
      <trkpt lat="40.73264" lon="-3.93949167">
        <ele>1025.0</ele>
        <time>2018-05-26T08:37:01.168Z</time>
      </trkpt>
      <trkpt lat="40.73265667" lon="-3.939555">
        <ele>1025.0</ele>
        <time>2018-05-26T08:37:02.175Z</time>
      </trkpt>
      <trkpt lat="40.73265667" lon="-3.939555">
        <ele>1025.0</ele>
        <time>2018-05-26T08:37:03.161Z</time>
      </trkpt>
      <trkpt lat="40.73269333" lon="-3.93960667">
        <ele>1026.0</ele>
        <time>2018-05-26T08:37:04.171Z</time>
      </trkpt>
      <trkpt lat="40.73269333" lon="-3.93960667">
        <ele>1026.0</ele>
        <time>2018-05-26T08:37:05.142Z</time>
      </trkpt>
      <trkpt lat="40.73271833" lon="-3.93966">
        <ele>1027.0</ele>
        <time>2018-05-26T08:37:06.148Z</time>
      </trkpt>
      <trkpt lat="40.73271833" lon="-3.93966">
        <ele>1027.0</ele>
        <time>2018-05-26T08:37:07.144Z</time>
      </trkpt>
      <trkpt lat="40.73274833" lon="-3.93970667">
        <ele>1027.0</ele>
        <time>2018-05-26T08:37:08.164Z</time>
      </trkpt>
      <trkpt lat="40.73274833" lon="-3.93970667">
        <ele>1027.0</ele>
        <time>2018-05-26T08:37:09.167Z</time>
      </trkpt>
      <trkpt lat="40.73278" lon="-3.93975667">
        <ele>1028.0</ele>
        <time>2018-05-26T08:37:10.174Z</time>
      </trkpt>
      <trkpt lat="40.73278" lon="-3.93975667">
        <ele>1028.0</ele>
        <time>2018-05-26T08:37:11.162Z</time>
      </trkpt>
      <trkpt lat="40.732815" lon="-3.939795">
        <ele>1029.0</ele>
        <time>2018-05-26T08:37:12.136Z</time>
      </trkpt>
      <trkpt lat="40.732815" lon="-3.939795">
        <ele>1029.0</ele>
        <time>2018-05-26T08:37:13.140Z</time>
      </trkpt>
      <trkpt lat="40.73286167" lon="-3.93983833">
        <ele>1030.0</ele>
        <time>2018-05-26T08:37:14.148Z</time>
      </trkpt>
      <trkpt lat="40.73288667" lon="-3.939855">
        <ele>1030.0</ele>
        <time>2018-05-26T08:37:15.168Z</time>
      </trkpt>
      <trkpt lat="40.73288667" lon="-3.939855">
        <ele>1030.0</ele>
        <time>2018-05-26T08:37:16.140Z</time>
      </trkpt>
      <trkpt lat="40.73293833" lon="-3.93988667">
        <ele>1031.0</ele>
        <time>2018-05-26T08:37:17.147Z</time>
      </trkpt>
      <trkpt lat="40.73296333" lon="-3.9399">
        <ele>1031.0</ele>
        <time>2018-05-26T08:37:18.164Z</time>
      </trkpt>
      <trkpt lat="40.73296333" lon="-3.9399">
        <ele>1031.0</ele>
        <time>2018-05-26T08:37:19.139Z</time>
      </trkpt>
      <trkpt lat="40.73301333" lon="-3.93993">
        <ele>1032.0</ele>
        <time>2018-05-26T08:37:20.146Z</time>
      </trkpt>
      <trkpt lat="40.73301333" lon="-3.93993">
        <ele>1032.0</ele>
        <time>2018-05-26T08:37:21.175Z</time>
      </trkpt>
      <trkpt lat="40.73306" lon="-3.939945">
        <ele>1033.0</ele>
        <time>2018-05-26T08:37:22.172Z</time>
      </trkpt>
      <trkpt lat="40.73306" lon="-3.939945">
        <ele>1033.0</ele>
        <time>2018-05-26T08:37:23.155Z</time>
      </trkpt>
      <trkpt lat="40.73310167" lon="-3.93995167">
        <ele>1034.0</ele>
        <time>2018-05-26T08:37:24.163Z</time>
      </trkpt>
      <trkpt lat="40.73312" lon="-3.93995333">
        <ele>1034.0</ele>
        <time>2018-05-26T08:37:25.170Z</time>
      </trkpt>
      <trkpt lat="40.73312" lon="-3.93995333">
        <ele>1034.0</ele>
        <time>2018-05-26T08:37:26.166Z</time>
      </trkpt>
      <trkpt lat="40.733165" lon="-3.93995333">
        <ele>1034.0</ele>
        <time>2018-05-26T08:37:27.137Z</time>
      </trkpt>
      <trkpt lat="40.733165" lon="-3.93995333">
        <ele>1034.0</ele>
        <time>2018-05-26T08:37:28.149Z</time>
      </trkpt>
      <trkpt lat="40.73319833" lon="-3.93996667">
        <ele>1034.0</ele>
        <time>2018-05-26T08:37:29.150Z</time>
      </trkpt>
      <trkpt lat="40.73319833" lon="-3.93996667">
        <ele>1034.0</ele>
        <time>2018-05-26T08:37:30.153Z</time>
      </trkpt>
      <trkpt lat="40.73324667" lon="-3.93998">
        <ele>1034.0</ele>
        <time>2018-05-26T08:37:31.161Z</time>
      </trkpt>
      <trkpt lat="40.73324667" lon="-3.93998">
        <ele>1034.0</ele>
        <time>2018-05-26T08:37:32.148Z</time>
      </trkpt>
      <trkpt lat="40.73328333" lon="-3.93999167">
        <ele>1034.0</ele>
        <time>2018-05-26T08:37:33.137Z</time>
      </trkpt>
      <trkpt lat="40.73330167" lon="-3.94000333">
        <ele>1034.0</ele>
        <time>2018-05-26T08:37:34.142Z</time>
      </trkpt>
      <trkpt lat="40.73330167" lon="-3.94000333">
        <ele>1034.0</ele>
        <time>2018-05-26T08:37:35.142Z</time>
      </trkpt>
      <trkpt lat="40.73334" lon="-3.94000833">
        <ele>1035.0</ele>
        <time>2018-05-26T08:37:36.150Z</time>
      </trkpt>
      <trkpt lat="40.73334" lon="-3.94000833">
        <ele>1035.0</ele>
        <time>2018-05-26T08:37:37.159Z</time>
      </trkpt>
      <trkpt lat="40.73337333" lon="-3.940015">
        <ele>1035.0</ele>
        <time>2018-05-26T08:37:38.166Z</time>
      </trkpt>
      <trkpt lat="40.73338667" lon="-3.94001833">
        <ele>1035.0</ele>
        <time>2018-05-26T08:37:39.154Z</time>
      </trkpt>
      <trkpt lat="40.7334" lon="-3.940025">
        <ele>1035.0</ele>
        <time>2018-05-26T08:37:40.166Z</time>
      </trkpt>
      <trkpt lat="40.7334" lon="-3.940025">
        <ele>1035.0</ele>
        <time>2018-05-26T08:37:41.153Z</time>
      </trkpt>
      <trkpt lat="40.73342833" lon="-3.94003">
        <ele>1035.0</ele>
        <time>2018-05-26T08:37:42.162Z</time>
      </trkpt>
      <trkpt lat="40.73344333" lon="-3.940035">
        <ele>1035.0</ele>
        <time>2018-05-26T08:37:43.139Z</time>
      </trkpt>
      <trkpt lat="40.73344333" lon="-3.940035">
        <ele>1035.0</ele>
        <time>2018-05-26T08:37:44.166Z</time>
      </trkpt>
      <trkpt lat="40.73346333" lon="-3.94004833">
        <ele>1036.0</ele>
        <time>2018-05-26T08:37:45.174Z</time>
      </trkpt>
      <trkpt lat="40.73347667" lon="-3.94005333">
        <ele>1037.0</ele>
        <time>2018-05-26T08:37:46.164Z</time>
      </trkpt>
      <trkpt lat="40.73347667" lon="-3.94005333">
        <ele>1037.0</ele>
        <time>2018-05-26T08:37:47.150Z</time>
      </trkpt>
      <trkpt lat="40.73351" lon="-3.94007">
        <ele>1038.0</ele>
        <time>2018-05-26T08:37:48.164Z</time>
      </trkpt>
      <trkpt lat="40.73353" lon="-3.94007833">
        <ele>1038.0</ele>
        <time>2018-05-26T08:37:49.147Z</time>
      </trkpt>
      <trkpt lat="40.733545" lon="-3.94008167">
        <ele>1039.0</ele>
        <time>2018-05-26T08:37:50.161Z</time>
      </trkpt>
      <trkpt lat="40.733545" lon="-3.94008167">
        <ele>1039.0</ele>
        <time>2018-05-26T08:37:51.148Z</time>
      </trkpt>
      <trkpt lat="40.73357667" lon="-3.94009833">
        <ele>1040.0</ele>
        <time>2018-05-26T08:37:52.155Z</time>
      </trkpt>
      <trkpt lat="40.73357667" lon="-3.94009833">
        <ele>1040.0</ele>
        <time>2018-05-26T08:37:53.142Z</time>
      </trkpt>
      <trkpt lat="40.73360333" lon="-3.94011333">
        <ele>1041.0</ele>
        <time>2018-05-26T08:37:54.161Z</time>
      </trkpt>
      <trkpt lat="40.73360333" lon="-3.94011333">
        <ele>1041.0</ele>
        <time>2018-05-26T08:37:55.166Z</time>
      </trkpt>
      <trkpt lat="40.73363167" lon="-3.94013">
        <ele>1041.0</ele>
        <time>2018-05-26T08:37:56.142Z</time>
      </trkpt>
      <trkpt lat="40.73364333" lon="-3.94013667">
        <ele>1042.0</ele>
        <time>2018-05-26T08:37:57.160Z</time>
      </trkpt>
      <trkpt lat="40.73364333" lon="-3.94013667">
        <ele>1042.0</ele>
        <time>2018-05-26T08:37:58.156Z</time>
      </trkpt>
      <trkpt lat="40.73366833" lon="-3.94014833">
        <ele>1043.0</ele>
        <time>2018-05-26T08:37:59.169Z</time>
      </trkpt>
      <trkpt lat="40.73366833" lon="-3.94014833">
        <ele>1043.0</ele>
        <time>2018-05-26T08:38:00.152Z</time>
      </trkpt>
      <trkpt lat="40.73369333" lon="-3.940165">
        <ele>1044.0</ele>
        <time>2018-05-26T08:38:01.169Z</time>
      </trkpt>
      <trkpt lat="40.73369333" lon="-3.940165">
        <ele>1044.0</ele>
        <time>2018-05-26T08:38:02.156Z</time>
      </trkpt>
      <trkpt lat="40.73372333" lon="-3.94019">
        <ele>1045.0</ele>
        <time>2018-05-26T08:38:03.161Z</time>
      </trkpt>
      <trkpt lat="40.73374167" lon="-3.94020333">
        <ele>1045.0</ele>
        <time>2018-05-26T08:38:04.153Z</time>
      </trkpt>
      <trkpt lat="40.73374167" lon="-3.94020333">
        <ele>1045.0</ele>
        <time>2018-05-26T08:38:05.141Z</time>
      </trkpt>
      <trkpt lat="40.73377833" lon="-3.94023">
        <ele>1045.0</ele>
        <time>2018-05-26T08:38:06.154Z</time>
      </trkpt>
      <trkpt lat="40.73379333" lon="-3.94024667">
        <ele>1045.0</ele>
        <time>2018-05-26T08:38:07.143Z</time>
      </trkpt>
      <trkpt lat="40.73379333" lon="-3.94024667">
        <ele>1045.0</ele>
        <time>2018-05-26T08:38:08.140Z</time>
      </trkpt>
      <trkpt lat="40.73381833" lon="-3.94029">
        <ele>1046.0</ele>
        <time>2018-05-26T08:38:09.162Z</time>
      </trkpt>
      <trkpt lat="40.73381833" lon="-3.94029">
        <ele>1046.0</ele>
        <time>2018-05-26T08:38:10.154Z</time>
      </trkpt>
      <trkpt lat="40.733835" lon="-3.94033333">
        <ele>1046.0</ele>
        <time>2018-05-26T08:38:11.161Z</time>
      </trkpt>
      <trkpt lat="40.733835" lon="-3.94033333">
        <ele>1046.0</ele>
        <time>2018-05-26T08:38:12.148Z</time>
      </trkpt>
      <trkpt lat="40.73386" lon="-3.940375">
        <ele>1045.0</ele>
        <time>2018-05-26T08:38:13.161Z</time>
      </trkpt>
      <trkpt lat="40.73386" lon="-3.940375">
        <ele>1045.0</ele>
        <time>2018-05-26T08:38:14.166Z</time>
      </trkpt>
      <trkpt lat="40.733875" lon="-3.94042333">
        <ele>1046.0</ele>
        <time>2018-05-26T08:38:15.174Z</time>
      </trkpt>
      <trkpt lat="40.73388333" lon="-3.94044667">
        <ele>1046.0</ele>
        <time>2018-05-26T08:38:16.162Z</time>
      </trkpt>
      <trkpt lat="40.73388333" lon="-3.94044667">
        <ele>1046.0</ele>
        <time>2018-05-26T08:38:17.165Z</time>
      </trkpt>
      <trkpt lat="40.73390167" lon="-3.94048833">
        <ele>1046.0</ele>
        <time>2018-05-26T08:38:18.139Z</time>
      </trkpt>
      <trkpt lat="40.73390167" lon="-3.94048833">
        <ele>1046.0</ele>
        <time>2018-05-26T08:38:19.138Z</time>
      </trkpt>
      <trkpt lat="40.73392167" lon="-3.94053167">
        <ele>1047.0</ele>
        <time>2018-05-26T08:38:20.145Z</time>
      </trkpt>
      <trkpt lat="40.73392167" lon="-3.94053167">
        <ele>1047.0</ele>
        <time>2018-05-26T08:38:21.159Z</time>
      </trkpt>
      <trkpt lat="40.73394167" lon="-3.94057167">
        <ele>1047.0</ele>
        <time>2018-05-26T08:38:22.150Z</time>
      </trkpt>
      <trkpt lat="40.73394167" lon="-3.94057167">
        <ele>1047.0</ele>
        <time>2018-05-26T08:38:23.142Z</time>
      </trkpt>
      <trkpt lat="40.733965" lon="-3.94060167">
        <ele>1047.0</ele>
        <time>2018-05-26T08:38:24.148Z</time>
      </trkpt>
      <trkpt lat="40.733965" lon="-3.94060167">
        <ele>1047.0</ele>
        <time>2018-05-26T08:38:25.155Z</time>
      </trkpt>
      <trkpt lat="40.733995" lon="-3.94063">
        <ele>1048.0</ele>
        <time>2018-05-26T08:38:26.161Z</time>
      </trkpt>
      <trkpt lat="40.733995" lon="-3.94063">
        <ele>1048.0</ele>
        <time>2018-05-26T08:38:27.149Z</time>
      </trkpt>
      <trkpt lat="40.73401833" lon="-3.94066167">
        <ele>1048.0</ele>
        <time>2018-05-26T08:38:28.155Z</time>
      </trkpt>
      <trkpt lat="40.73403167" lon="-3.940675">
        <ele>1049.0</ele>
        <time>2018-05-26T08:38:29.171Z</time>
      </trkpt>
      <trkpt lat="40.73403167" lon="-3.940675">
        <ele>1049.0</ele>
        <time>2018-05-26T08:38:30.167Z</time>
      </trkpt>
      <trkpt lat="40.73405833" lon="-3.94070667">
        <ele>1049.0</ele>
        <time>2018-05-26T08:38:31.173Z</time>
      </trkpt>
      <trkpt lat="40.73407" lon="-3.94072167">
        <ele>1049.0</ele>
        <time>2018-05-26T08:38:32.161Z</time>
      </trkpt>
      <trkpt lat="40.73407" lon="-3.94072167">
        <ele>1049.0</ele>
        <time>2018-05-26T08:38:33.156Z</time>
      </trkpt>
      <trkpt lat="40.734095" lon="-3.940755">
        <ele>1050.0</ele>
        <time>2018-05-26T08:38:34.163Z</time>
      </trkpt>
      <trkpt lat="40.734095" lon="-3.940755">
        <ele>1050.0</ele>
        <time>2018-05-26T08:38:35.146Z</time>
      </trkpt>
      <trkpt lat="40.73412833" lon="-3.940785">
        <ele>1050.0</ele>
        <time>2018-05-26T08:38:36.169Z</time>
      </trkpt>
      <trkpt lat="40.73412833" lon="-3.940785">
        <ele>1050.0</ele>
        <time>2018-05-26T08:38:37.170Z</time>
      </trkpt>
      <trkpt lat="40.73415333" lon="-3.94081333">
        <ele>1050.0</ele>
        <time>2018-05-26T08:38:38.142Z</time>
      </trkpt>
      <trkpt lat="40.73416833" lon="-3.940825">
        <ele>1051.0</ele>
        <time>2018-05-26T08:38:39.161Z</time>
      </trkpt>
      <trkpt lat="40.734185" lon="-3.94084">
        <ele>1051.0</ele>
        <time>2018-05-26T08:38:40.170Z</time>
      </trkpt>
      <trkpt lat="40.734185" lon="-3.94084">
        <ele>1051.0</ele>
        <time>2018-05-26T08:38:41.157Z</time>
      </trkpt>
      <trkpt lat="40.73422667" lon="-3.94086833">
        <ele>1051.0</ele>
        <time>2018-05-26T08:38:42.164Z</time>
      </trkpt>
      <trkpt lat="40.73422667" lon="-3.94086833">
        <ele>1051.0</ele>
        <time>2018-05-26T08:38:43.158Z</time>
      </trkpt>
      <trkpt lat="40.73426167" lon="-3.94089833">
        <ele>1052.0</ele>
        <time>2018-05-26T08:38:44.164Z</time>
      </trkpt>
      <trkpt lat="40.73426167" lon="-3.94089833">
        <ele>1052.0</ele>
        <time>2018-05-26T08:38:45.151Z</time>
      </trkpt>
      <trkpt lat="40.7343" lon="-3.940925">
        <ele>1052.0</ele>
        <time>2018-05-26T08:38:46.161Z</time>
      </trkpt>
      <trkpt lat="40.7343" lon="-3.940925">
        <ele>1052.0</ele>
        <time>2018-05-26T08:38:47.154Z</time>
      </trkpt>
      <trkpt lat="40.73433833" lon="-3.940965">
        <ele>1052.0</ele>
        <time>2018-05-26T08:38:48.161Z</time>
      </trkpt>
      <trkpt lat="40.73435833" lon="-3.940985">
        <ele>1052.0</ele>
        <time>2018-05-26T08:38:49.161Z</time>
      </trkpt>
      <trkpt lat="40.73437833" lon="-3.94100333">
        <ele>1052.0</ele>
        <time>2018-05-26T08:38:50.153Z</time>
      </trkpt>
      <trkpt lat="40.73437833" lon="-3.94100333">
        <ele>1052.0</ele>
        <time>2018-05-26T08:38:51.172Z</time>
      </trkpt>
      <trkpt lat="40.73441833" lon="-3.94103167">
        <ele>1053.0</ele>
        <time>2018-05-26T08:38:52.140Z</time>
      </trkpt>
      <trkpt lat="40.73441833" lon="-3.94103167">
        <ele>1053.0</ele>
        <time>2018-05-26T08:38:53.175Z</time>
      </trkpt>
      <trkpt lat="40.73446167" lon="-3.94106333">
        <ele>1053.0</ele>
        <time>2018-05-26T08:38:54.144Z</time>
      </trkpt>
      <trkpt lat="40.73448333" lon="-3.94107667">
        <ele>1053.0</ele>
        <time>2018-05-26T08:38:55.173Z</time>
      </trkpt>
      <trkpt lat="40.73448333" lon="-3.94107667">
        <ele>1053.0</ele>
        <time>2018-05-26T08:38:56.152Z</time>
      </trkpt>
      <trkpt lat="40.734525" lon="-3.9411">
        <ele>1054.0</ele>
        <time>2018-05-26T08:38:57.149Z</time>
      </trkpt>
      <trkpt lat="40.734525" lon="-3.9411">
        <ele>1054.0</ele>
        <time>2018-05-26T08:38:58.146Z</time>
      </trkpt>
      <trkpt lat="40.73456833" lon="-3.94112833">
        <ele>1054.0</ele>
        <time>2018-05-26T08:38:59.153Z</time>
      </trkpt>
      <trkpt lat="40.73456833" lon="-3.94112833">
        <ele>1054.0</ele>
        <time>2018-05-26T08:39:00.152Z</time>
      </trkpt>
      <trkpt lat="40.73461" lon="-3.94116167">
        <ele>1054.0</ele>
        <time>2018-05-26T08:39:01.173Z</time>
      </trkpt>
      <trkpt lat="40.73463" lon="-3.94117833">
        <ele>1055.0</ele>
        <time>2018-05-26T08:39:02.159Z</time>
      </trkpt>
      <trkpt lat="40.73463" lon="-3.94117833">
        <ele>1055.0</ele>
        <time>2018-05-26T08:39:03.148Z</time>
      </trkpt>
      <trkpt lat="40.734665" lon="-3.94121333">
        <ele>1056.0</ele>
        <time>2018-05-26T08:39:04.155Z</time>
      </trkpt>
      <trkpt lat="40.734665" lon="-3.94121333">
        <ele>1056.0</ele>
        <time>2018-05-26T08:39:05.156Z</time>
      </trkpt>
      <trkpt lat="40.7347" lon="-3.94123333">
        <ele>1057.0</ele>
        <time>2018-05-26T08:39:06.170Z</time>
      </trkpt>
      <trkpt lat="40.7347" lon="-3.94123333">
        <ele>1057.0</ele>
        <time>2018-05-26T08:39:07.151Z</time>
      </trkpt>
      <trkpt lat="40.73474" lon="-3.94126167">
        <ele>1057.0</ele>
        <time>2018-05-26T08:39:08.160Z</time>
      </trkpt>
      <trkpt lat="40.73476" lon="-3.94127167">
        <ele>1057.0</ele>
        <time>2018-05-26T08:39:09.160Z</time>
      </trkpt>
      <trkpt lat="40.73477833" lon="-3.941285">
        <ele>1057.0</ele>
        <time>2018-05-26T08:39:10.155Z</time>
      </trkpt>
      <trkpt lat="40.73477833" lon="-3.941285">
        <ele>1057.0</ele>
        <time>2018-05-26T08:39:11.141Z</time>
      </trkpt>
      <trkpt lat="40.73482" lon="-3.94132">
        <ele>1057.0</ele>
        <time>2018-05-26T08:39:12.149Z</time>
      </trkpt>
      <trkpt lat="40.73484167" lon="-3.941335">
        <ele>1057.0</ele>
        <time>2018-05-26T08:39:13.145Z</time>
      </trkpt>
      <trkpt lat="40.73484167" lon="-3.941335">
        <ele>1057.0</ele>
        <time>2018-05-26T08:39:14.141Z</time>
      </trkpt>
      <trkpt lat="40.73487667" lon="-3.94136">
        <ele>1058.0</ele>
        <time>2018-05-26T08:39:15.149Z</time>
      </trkpt>
      <trkpt lat="40.734895" lon="-3.94137333">
        <ele>1058.0</ele>
        <time>2018-05-26T08:39:16.157Z</time>
      </trkpt>
      <trkpt lat="40.734895" lon="-3.94137333">
        <ele>1058.0</ele>
        <time>2018-05-26T08:39:17.145Z</time>
      </trkpt>
      <trkpt lat="40.73493167" lon="-3.94140167">
        <ele>1059.0</ele>
        <time>2018-05-26T08:39:18.156Z</time>
      </trkpt>
      <trkpt lat="40.73495333" lon="-3.941415">
        <ele>1059.0</ele>
        <time>2018-05-26T08:39:19.166Z</time>
      </trkpt>
      <trkpt lat="40.73495333" lon="-3.941415">
        <ele>1059.0</ele>
        <time>2018-05-26T08:39:20.153Z</time>
      </trkpt>
      <trkpt lat="40.73499667" lon="-3.94143667">
        <ele>1059.0</ele>
        <time>2018-05-26T08:39:21.161Z</time>
      </trkpt>
      <trkpt lat="40.73502" lon="-3.94144833">
        <ele>1059.0</ele>
        <time>2018-05-26T08:39:22.160Z</time>
      </trkpt>
      <trkpt lat="40.73502" lon="-3.94144833">
        <ele>1059.0</ele>
        <time>2018-05-26T08:39:23.166Z</time>
      </trkpt>
      <trkpt lat="40.73506167" lon="-3.941465">
        <ele>1059.0</ele>
        <time>2018-05-26T08:39:24.173Z</time>
      </trkpt>
      <trkpt lat="40.73508333" lon="-3.94147">
        <ele>1059.0</ele>
        <time>2018-05-26T08:39:25.162Z</time>
      </trkpt>
      <trkpt lat="40.73508333" lon="-3.94147">
        <ele>1059.0</ele>
        <time>2018-05-26T08:39:26.165Z</time>
      </trkpt>
      <trkpt lat="40.73512333" lon="-3.94147333">
        <ele>1060.0</ele>
        <time>2018-05-26T08:39:27.171Z</time>
      </trkpt>
      <trkpt lat="40.73512333" lon="-3.94147333">
        <ele>1060.0</ele>
        <time>2018-05-26T08:39:28.137Z</time>
      </trkpt>
      <trkpt lat="40.73516" lon="-3.94147333">
        <ele>1060.0</ele>
        <time>2018-05-26T08:39:29.171Z</time>
      </trkpt>
      <trkpt lat="40.73516" lon="-3.94147333">
        <ele>1060.0</ele>
        <time>2018-05-26T08:39:30.168Z</time>
      </trkpt>
      <trkpt lat="40.7352" lon="-3.94147667">
        <ele>1061.0</ele>
        <time>2018-05-26T08:39:31.175Z</time>
      </trkpt>
      <trkpt lat="40.7352" lon="-3.94147667">
        <ele>1061.0</ele>
        <time>2018-05-26T08:39:32.161Z</time>
      </trkpt>
      <trkpt lat="40.73523833" lon="-3.94147833">
        <ele>1063.0</ele>
        <time>2018-05-26T08:39:33.139Z</time>
      </trkpt>
      <trkpt lat="40.73523833" lon="-3.94147833">
        <ele>1063.0</ele>
        <time>2018-05-26T08:39:34.138Z</time>
      </trkpt>
      <trkpt lat="40.73527667" lon="-3.941485">
        <ele>1064.0</ele>
        <time>2018-05-26T08:39:35.145Z</time>
      </trkpt>
      <trkpt lat="40.73527667" lon="-3.941485">
        <ele>1064.0</ele>
        <time>2018-05-26T08:39:36.173Z</time>
      </trkpt>
      <trkpt lat="40.735325" lon="-3.94149">
        <ele>1064.0</ele>
        <time>2018-05-26T08:39:37.146Z</time>
      </trkpt>
      <trkpt lat="40.73535167" lon="-3.94148833">
        <ele>1064.0</ele>
        <time>2018-05-26T08:39:38.149Z</time>
      </trkpt>
      <trkpt lat="40.73537" lon="-3.941485">
        <ele>1064.0</ele>
        <time>2018-05-26T08:39:39.141Z</time>
      </trkpt>
      <trkpt lat="40.73537" lon="-3.941485">
        <ele>1064.0</ele>
        <time>2018-05-26T08:39:40.170Z</time>
      </trkpt>
      <trkpt lat="40.73541167" lon="-3.94149667">
        <ele>1064.0</ele>
        <time>2018-05-26T08:39:41.143Z</time>
      </trkpt>
      <trkpt lat="40.73541167" lon="-3.94149667">
        <ele>1064.0</ele>
        <time>2018-05-26T08:39:42.161Z</time>
      </trkpt>
      <trkpt lat="40.735455" lon="-3.941515">
        <ele>1064.0</ele>
        <time>2018-05-26T08:39:43.150Z</time>
      </trkpt>
      <trkpt lat="40.735455" lon="-3.941515">
        <ele>1064.0</ele>
        <time>2018-05-26T08:39:44.156Z</time>
      </trkpt>
      <trkpt lat="40.735495" lon="-3.94153">
        <ele>1064.0</ele>
        <time>2018-05-26T08:39:45.163Z</time>
      </trkpt>
      <trkpt lat="40.73551333" lon="-3.941535">
        <ele>1064.0</ele>
        <time>2018-05-26T08:39:46.148Z</time>
      </trkpt>
      <trkpt lat="40.73551333" lon="-3.941535">
        <ele>1064.0</ele>
        <time>2018-05-26T08:39:47.160Z</time>
      </trkpt>
      <trkpt lat="40.73555" lon="-3.94155667">
        <ele>1065.0</ele>
        <time>2018-05-26T08:39:48.166Z</time>
      </trkpt>
      <trkpt lat="40.73557" lon="-3.94156667">
        <ele>1065.0</ele>
        <time>2018-05-26T08:39:49.163Z</time>
      </trkpt>
      <trkpt lat="40.73557" lon="-3.94156667">
        <ele>1065.0</ele>
        <time>2018-05-26T08:39:50.154Z</time>
      </trkpt>
      <trkpt lat="40.73561333" lon="-3.94158">
        <ele>1065.0</ele>
        <time>2018-05-26T08:39:51.160Z</time>
      </trkpt>
      <trkpt lat="40.735635" lon="-3.94158833">
        <ele>1066.0</ele>
        <time>2018-05-26T08:39:52.147Z</time>
      </trkpt>
      <trkpt lat="40.735635" lon="-3.94158833">
        <ele>1066.0</ele>
        <time>2018-05-26T08:39:53.156Z</time>
      </trkpt>
      <trkpt lat="40.73566833" lon="-3.94160833">
        <ele>1067.0</ele>
        <time>2018-05-26T08:39:54.162Z</time>
      </trkpt>
      <trkpt lat="40.73568167" lon="-3.94162167">
        <ele>1067.0</ele>
        <time>2018-05-26T08:39:55.157Z</time>
      </trkpt>
      <trkpt lat="40.73568167" lon="-3.94162167">
        <ele>1067.0</ele>
        <time>2018-05-26T08:39:56.146Z</time>
      </trkpt>
      <trkpt lat="40.735715" lon="-3.94165">
        <ele>1068.0</ele>
        <time>2018-05-26T08:39:57.152Z</time>
      </trkpt>
      <trkpt lat="40.73573167" lon="-3.941665">
        <ele>1068.0</ele>
        <time>2018-05-26T08:39:58.143Z</time>
      </trkpt>
      <trkpt lat="40.73573167" lon="-3.941665">
        <ele>1068.0</ele>
        <time>2018-05-26T08:39:59.155Z</time>
      </trkpt>
      <trkpt lat="40.73576833" lon="-3.94170167">
        <ele>1069.0</ele>
        <time>2018-05-26T08:40:00.152Z</time>
      </trkpt>
      <trkpt lat="40.73576833" lon="-3.94170167">
        <ele>1069.0</ele>
        <time>2018-05-26T08:40:01.157Z</time>
      </trkpt>
      <trkpt lat="40.73580333" lon="-3.94173333">
        <ele>1070.0</ele>
        <time>2018-05-26T08:40:02.158Z</time>
      </trkpt>
      <trkpt lat="40.73581667" lon="-3.94174667">
        <ele>1071.0</ele>
        <time>2018-05-26T08:40:03.137Z</time>
      </trkpt>
      <trkpt lat="40.73581667" lon="-3.94174667">
        <ele>1071.0</ele>
        <time>2018-05-26T08:40:04.165Z</time>
      </trkpt>
      <trkpt lat="40.73584667" lon="-3.94176667">
        <ele>1072.0</ele>
        <time>2018-05-26T08:40:05.172Z</time>
      </trkpt>
      <trkpt lat="40.73584667" lon="-3.94176667">
        <ele>1072.0</ele>
        <time>2018-05-26T08:40:06.153Z</time>
      </trkpt>
      <trkpt lat="40.73588333" lon="-3.941795">
        <ele>1073.0</ele>
        <time>2018-05-26T08:40:07.160Z</time>
      </trkpt>
      <trkpt lat="40.73589833" lon="-3.94182167">
        <ele>1074.0</ele>
        <time>2018-05-26T08:40:08.159Z</time>
      </trkpt>
      <trkpt lat="40.73589833" lon="-3.94182167">
        <ele>1074.0</ele>
        <time>2018-05-26T08:40:09.147Z</time>
      </trkpt>
      <trkpt lat="40.73593667" lon="-3.941885">
        <ele>1073.0</ele>
        <time>2018-05-26T08:40:10.161Z</time>
      </trkpt>
      <trkpt lat="40.73593667" lon="-3.941885">
        <ele>1073.0</ele>
        <time>2018-05-26T08:40:11.153Z</time>
      </trkpt>
      <trkpt lat="40.73596" lon="-3.94194">
        <ele>1073.0</ele>
        <time>2018-05-26T08:40:12.162Z</time>
      </trkpt>
      <trkpt lat="40.73596667" lon="-3.94196667">
        <ele>1073.0</ele>
        <time>2018-05-26T08:40:13.138Z</time>
      </trkpt>
      <trkpt lat="40.73596833" lon="-3.941995">
        <ele>1073.0</ele>
        <time>2018-05-26T08:40:14.152Z</time>
      </trkpt>
      <trkpt lat="40.73596833" lon="-3.941995">
        <ele>1073.0</ele>
        <time>2018-05-26T08:40:15.141Z</time>
      </trkpt>
      <trkpt lat="40.73596167" lon="-3.94205667">
        <ele>1073.0</ele>
        <time>2018-05-26T08:40:16.149Z</time>
      </trkpt>
      <trkpt lat="40.73596167" lon="-3.94205667">
        <ele>1073.0</ele>
        <time>2018-05-26T08:40:17.146Z</time>
      </trkpt>
      <trkpt lat="40.73596" lon="-3.94212667">
        <ele>1073.0</ele>
        <time>2018-05-26T08:40:18.171Z</time>
      </trkpt>
      <trkpt lat="40.73596" lon="-3.94212667">
        <ele>1073.0</ele>
        <time>2018-05-26T08:40:19.138Z</time>
      </trkpt>
      <trkpt lat="40.73596833" lon="-3.94219">
        <ele>1073.0</ele>
        <time>2018-05-26T08:40:20.145Z</time>
      </trkpt>
      <trkpt lat="40.73596833" lon="-3.94219">
        <ele>1073.0</ele>
        <time>2018-05-26T08:40:21.137Z</time>
      </trkpt>
      <trkpt lat="40.73599667" lon="-3.94225167">
        <ele>1074.0</ele>
        <time>2018-05-26T08:40:22.162Z</time>
      </trkpt>
      <trkpt lat="40.73599667" lon="-3.94225167">
        <ele>1074.0</ele>
        <time>2018-05-26T08:40:23.157Z</time>
      </trkpt>
      <trkpt lat="40.736025" lon="-3.942305">
        <ele>1074.0</ele>
        <time>2018-05-26T08:40:24.164Z</time>
      </trkpt>
      <trkpt lat="40.736025" lon="-3.942305">
        <ele>1074.0</ele>
        <time>2018-05-26T08:40:25.151Z</time>
      </trkpt>
      <trkpt lat="40.736055" lon="-3.94235333">
        <ele>1074.0</ele>
        <time>2018-05-26T08:40:26.161Z</time>
      </trkpt>
      <trkpt lat="40.736055" lon="-3.94235333">
        <ele>1074.0</ele>
        <time>2018-05-26T08:40:27.158Z</time>
      </trkpt>
      <trkpt lat="40.73607833" lon="-3.94241167">
        <ele>1075.0</ele>
        <time>2018-05-26T08:40:28.164Z</time>
      </trkpt>
      <trkpt lat="40.73609167" lon="-3.94244167">
        <ele>1074.0</ele>
        <time>2018-05-26T08:40:29.143Z</time>
      </trkpt>
      <trkpt lat="40.73609167" lon="-3.94244167">
        <ele>1074.0</ele>
        <time>2018-05-26T08:40:30.166Z</time>
      </trkpt>
      <trkpt lat="40.73611333" lon="-3.94250333">
        <ele>1074.0</ele>
        <time>2018-05-26T08:40:31.173Z</time>
      </trkpt>
      <trkpt lat="40.73611333" lon="-3.94250333">
        <ele>1074.0</ele>
        <time>2018-05-26T08:40:32.160Z</time>
      </trkpt>
      <trkpt lat="40.73613" lon="-3.942565">
        <ele>1073.0</ele>
        <time>2018-05-26T08:40:33.154Z</time>
      </trkpt>
      <trkpt lat="40.73613" lon="-3.942565">
        <ele>1073.0</ele>
        <time>2018-05-26T08:40:34.165Z</time>
      </trkpt>
      <trkpt lat="40.73614167" lon="-3.94263333">
        <ele>1073.0</ele>
        <time>2018-05-26T08:40:35.171Z</time>
      </trkpt>
      <trkpt lat="40.73614167" lon="-3.94263333">
        <ele>1073.0</ele>
        <time>2018-05-26T08:40:36.149Z</time>
      </trkpt>
      <trkpt lat="40.73615167" lon="-3.9427">
        <ele>1074.0</ele>
        <time>2018-05-26T08:40:37.168Z</time>
      </trkpt>
      <trkpt lat="40.73615667" lon="-3.94273333">
        <ele>1073.0</ele>
        <time>2018-05-26T08:40:38.167Z</time>
      </trkpt>
      <trkpt lat="40.73615667" lon="-3.94273333">
        <ele>1073.0</ele>
        <time>2018-05-26T08:40:39.156Z</time>
      </trkpt>
      <trkpt lat="40.73615833" lon="-3.94279833">
        <ele>1074.0</ele>
        <time>2018-05-26T08:40:40.163Z</time>
      </trkpt>
      <trkpt lat="40.736155" lon="-3.942835">
        <ele>1074.0</ele>
        <time>2018-05-26T08:40:41.166Z</time>
      </trkpt>
      <trkpt lat="40.736155" lon="-3.942835">
        <ele>1074.0</ele>
        <time>2018-05-26T08:40:42.155Z</time>
      </trkpt>
      <trkpt lat="40.73615167" lon="-3.94290167">
        <ele>1074.0</ele>
        <time>2018-05-26T08:40:43.171Z</time>
      </trkpt>
      <trkpt lat="40.73615167" lon="-3.94290167">
        <ele>1074.0</ele>
        <time>2018-05-26T08:40:44.148Z</time>
      </trkpt>
      <trkpt lat="40.736145" lon="-3.94296833">
        <ele>1074.0</ele>
        <time>2018-05-26T08:40:45.154Z</time>
      </trkpt>
      <trkpt lat="40.73614333" lon="-3.94300167">
        <ele>1074.0</ele>
        <time>2018-05-26T08:40:46.143Z</time>
      </trkpt>
      <trkpt lat="40.73614333" lon="-3.94300167">
        <ele>1074.0</ele>
        <time>2018-05-26T08:40:47.163Z</time>
      </trkpt>
      <trkpt lat="40.73613833" lon="-3.94306167">
        <ele>1075.0</ele>
        <time>2018-05-26T08:40:48.169Z</time>
      </trkpt>
      <trkpt lat="40.73613667" lon="-3.94308833">
        <ele>1076.0</ele>
        <time>2018-05-26T08:40:49.171Z</time>
      </trkpt>
      <trkpt lat="40.73613667" lon="-3.94308833">
        <ele>1076.0</ele>
        <time>2018-05-26T08:40:50.168Z</time>
      </trkpt>
      <trkpt lat="40.73613833" lon="-3.94314167">
        <ele>1077.0</ele>
        <time>2018-05-26T08:40:51.174Z</time>
      </trkpt>
      <trkpt lat="40.73613667" lon="-3.94316667">
        <ele>1077.0</ele>
        <time>2018-05-26T08:40:52.161Z</time>
      </trkpt>
      <trkpt lat="40.73613667" lon="-3.94316667">
        <ele>1077.0</ele>
        <time>2018-05-26T08:40:53.141Z</time>
      </trkpt>
      <trkpt lat="40.736125" lon="-3.943235">
        <ele>1076.0</ele>
        <time>2018-05-26T08:40:54.148Z</time>
      </trkpt>
      <trkpt lat="40.736125" lon="-3.943235">
        <ele>1076.0</ele>
        <time>2018-05-26T08:40:55.175Z</time>
      </trkpt>
      <trkpt lat="40.73610833" lon="-3.94331333">
        <ele>1076.0</ele>
        <time>2018-05-26T08:40:56.144Z</time>
      </trkpt>
      <trkpt lat="40.73610833" lon="-3.94331333">
        <ele>1076.0</ele>
        <time>2018-05-26T08:40:57.152Z</time>
      </trkpt>
      <trkpt lat="40.73609667" lon="-3.943405">
        <ele>1076.0</ele>
        <time>2018-05-26T08:40:58.145Z</time>
      </trkpt>
      <trkpt lat="40.73609667" lon="-3.943405">
        <ele>1076.0</ele>
        <time>2018-05-26T08:40:59.160Z</time>
      </trkpt>
      <trkpt lat="40.73607833" lon="-3.94350667">
        <ele>1076.0</ele>
        <time>2018-05-26T08:41:00.151Z</time>
      </trkpt>
      <trkpt lat="40.73607833" lon="-3.94350667">
        <ele>1076.0</ele>
        <time>2018-05-26T08:41:01.143Z</time>
      </trkpt>
      <trkpt lat="40.73606" lon="-3.94361333">
        <ele>1076.0</ele>
        <time>2018-05-26T08:41:02.150Z</time>
      </trkpt>
      <trkpt lat="40.73606" lon="-3.94361333">
        <ele>1076.0</ele>
        <time>2018-05-26T08:41:03.141Z</time>
      </trkpt>
      <trkpt lat="40.73604833" lon="-3.943725">
        <ele>1076.0</ele>
        <time>2018-05-26T08:41:04.149Z</time>
      </trkpt>
      <trkpt lat="40.73604833" lon="-3.943725">
        <ele>1076.0</ele>
        <time>2018-05-26T08:41:05.141Z</time>
      </trkpt>
      <trkpt lat="40.73603667" lon="-3.943835">
        <ele>1076.0</ele>
        <time>2018-05-26T08:41:06.151Z</time>
      </trkpt>
      <trkpt lat="40.73603667" lon="-3.943835">
        <ele>1076.0</ele>
        <time>2018-05-26T08:41:07.166Z</time>
      </trkpt>
      <trkpt lat="40.736025" lon="-3.94394667">
        <ele>1076.0</ele>
        <time>2018-05-26T08:41:08.173Z</time>
      </trkpt>
      <trkpt lat="40.73601667" lon="-3.94400167">
        <ele>1076.0</ele>
        <time>2018-05-26T08:41:09.156Z</time>
      </trkpt>
      <trkpt lat="40.73601667" lon="-3.94400167">
        <ele>1076.0</ele>
        <time>2018-05-26T08:41:10.157Z</time>
      </trkpt>
      <trkpt lat="40.73601" lon="-3.94411">
        <ele>1075.0</ele>
        <time>2018-05-26T08:41:11.164Z</time>
      </trkpt>
      <trkpt lat="40.73601" lon="-3.94411">
        <ele>1075.0</ele>
        <time>2018-05-26T08:41:12.153Z</time>
      </trkpt>
      <trkpt lat="40.73600333" lon="-3.94421">
        <ele>1075.0</ele>
        <time>2018-05-26T08:41:13.171Z</time>
      </trkpt>
      <trkpt lat="40.73600333" lon="-3.94421">
        <ele>1075.0</ele>
        <time>2018-05-26T08:41:14.156Z</time>
      </trkpt>
      <trkpt lat="40.73599333" lon="-3.94430167">
        <ele>1075.0</ele>
        <time>2018-05-26T08:41:15.162Z</time>
      </trkpt>
      <trkpt lat="40.73599333" lon="-3.944345">
        <ele>1075.0</ele>
        <time>2018-05-26T08:41:16.151Z</time>
      </trkpt>
      <trkpt lat="40.73599" lon="-3.94438833">
        <ele>1075.0</ele>
        <time>2018-05-26T08:41:17.144Z</time>
      </trkpt>
      <trkpt lat="40.73599" lon="-3.94438833">
        <ele>1075.0</ele>
        <time>2018-05-26T08:41:18.173Z</time>
      </trkpt>
      <trkpt lat="40.73598667" lon="-3.94447167">
        <ele>1075.0</ele>
        <time>2018-05-26T08:41:19.154Z</time>
      </trkpt>
      <trkpt lat="40.73598667" lon="-3.94447167">
        <ele>1075.0</ele>
        <time>2018-05-26T08:41:20.152Z</time>
      </trkpt>
      <trkpt lat="40.73599667" lon="-3.94455">
        <ele>1075.0</ele>
        <time>2018-05-26T08:41:21.159Z</time>
      </trkpt>
      <trkpt lat="40.736005" lon="-3.944585">
        <ele>1075.0</ele>
        <time>2018-05-26T08:41:22.144Z</time>
      </trkpt>
      <trkpt lat="40.736005" lon="-3.944585">
        <ele>1075.0</ele>
        <time>2018-05-26T08:41:23.145Z</time>
      </trkpt>
      <trkpt lat="40.73602167" lon="-3.94464333">
        <ele>1077.0</ele>
        <time>2018-05-26T08:41:24.155Z</time>
      </trkpt>
      <trkpt lat="40.73603" lon="-3.94467833">
        <ele>1077.0</ele>
        <time>2018-05-26T08:41:25.144Z</time>
      </trkpt>
      <trkpt lat="40.736035" lon="-3.94471333">
        <ele>1078.0</ele>
        <time>2018-05-26T08:41:26.171Z</time>
      </trkpt>
      <trkpt lat="40.736035" lon="-3.94471333">
        <ele>1078.0</ele>
        <time>2018-05-26T08:41:27.155Z</time>
      </trkpt>
      <trkpt lat="40.73603167" lon="-3.94477833">
        <ele>1078.0</ele>
        <time>2018-05-26T08:41:28.162Z</time>
      </trkpt>
      <trkpt lat="40.73603167" lon="-3.94477833">
        <ele>1078.0</ele>
        <time>2018-05-26T08:41:29.147Z</time>
      </trkpt>
      <trkpt lat="40.73602" lon="-3.94483667">
        <ele>1079.0</ele>
        <time>2018-05-26T08:41:30.139Z</time>
      </trkpt>
      <trkpt lat="40.73602" lon="-3.94483667">
        <ele>1079.0</ele>
        <time>2018-05-26T08:41:31.138Z</time>
      </trkpt>
      <trkpt lat="40.73602333" lon="-3.94491167">
        <ele>1080.0</ele>
        <time>2018-05-26T08:41:32.150Z</time>
      </trkpt>
      <trkpt lat="40.73602667" lon="-3.94495">
        <ele>1080.0</ele>
        <time>2018-05-26T08:41:33.149Z</time>
      </trkpt>
      <trkpt lat="40.736025" lon="-3.94498333">
        <ele>1080.0</ele>
        <time>2018-05-26T08:41:34.167Z</time>
      </trkpt>
      <trkpt lat="40.736025" lon="-3.94498333">
        <ele>1080.0</ele>
        <time>2018-05-26T08:41:35.155Z</time>
      </trkpt>
      <trkpt lat="40.736035" lon="-3.94504833">
        <ele>1081.0</ele>
        <time>2018-05-26T08:41:36.162Z</time>
      </trkpt>
      <trkpt lat="40.736035" lon="-3.94504833">
        <ele>1081.0</ele>
        <time>2018-05-26T08:41:37.173Z</time>
      </trkpt>
      <trkpt lat="40.73604667" lon="-3.94511667">
        <ele>1082.0</ele>
        <time>2018-05-26T08:41:38.144Z</time>
      </trkpt>
      <trkpt lat="40.73605333" lon="-3.94514833">
        <ele>1083.0</ele>
        <time>2018-05-26T08:41:39.172Z</time>
      </trkpt>
      <trkpt lat="40.73606333" lon="-3.94518167">
        <ele>1084.0</ele>
        <time>2018-05-26T08:41:40.162Z</time>
      </trkpt>
      <trkpt lat="40.73606333" lon="-3.94518167">
        <ele>1084.0</ele>
        <time>2018-05-26T08:41:41.150Z</time>
      </trkpt>
      <trkpt lat="40.7361" lon="-3.94520333">
        <ele>1085.0</ele>
        <time>2018-05-26T08:41:42.156Z</time>
      </trkpt>
      <trkpt lat="40.73612" lon="-3.945205">
        <ele>1086.0</ele>
        <time>2018-05-26T08:41:43.171Z</time>
      </trkpt>
      <trkpt lat="40.73612" lon="-3.945205">
        <ele>1086.0</ele>
        <time>2018-05-26T08:41:44.145Z</time>
      </trkpt>
      <trkpt lat="40.73615667" lon="-3.94521167">
        <ele>1087.0</ele>
        <time>2018-05-26T08:41:45.151Z</time>
      </trkpt>
      <trkpt lat="40.73617833" lon="-3.945215">
        <ele>1087.0</ele>
        <time>2018-05-26T08:41:46.141Z</time>
      </trkpt>
      <trkpt lat="40.73617833" lon="-3.945215">
        <ele>1087.0</ele>
        <time>2018-05-26T08:41:47.141Z</time>
      </trkpt>
      <trkpt lat="40.73620833" lon="-3.94522167">
        <ele>1087.0</ele>
        <time>2018-05-26T08:41:48.149Z</time>
      </trkpt>
      <trkpt lat="40.73620833" lon="-3.94522167">
        <ele>1087.0</ele>
        <time>2018-05-26T08:41:49.139Z</time>
      </trkpt>
      <trkpt lat="40.736255" lon="-3.94522667">
        <ele>1088.0</ele>
        <time>2018-05-26T08:41:50.150Z</time>
      </trkpt>
      <trkpt lat="40.736255" lon="-3.94522667">
        <ele>1088.0</ele>
        <time>2018-05-26T08:41:51.139Z</time>
      </trkpt>
      <trkpt lat="40.736295" lon="-3.94523167">
        <ele>1088.0</ele>
        <time>2018-05-26T08:41:52.152Z</time>
      </trkpt>
      <trkpt lat="40.736295" lon="-3.94523167">
        <ele>1088.0</ele>
        <time>2018-05-26T08:41:53.143Z</time>
      </trkpt>
      <trkpt lat="40.73632667" lon="-3.945255">
        <ele>1089.0</ele>
        <time>2018-05-26T08:41:54.136Z</time>
      </trkpt>
      <trkpt lat="40.73632667" lon="-3.945255">
        <ele>1089.0</ele>
        <time>2018-05-26T08:41:55.151Z</time>
      </trkpt>
      <trkpt lat="40.73635333" lon="-3.94528833">
        <ele>1090.0</ele>
        <time>2018-05-26T08:41:56.158Z</time>
      </trkpt>
      <trkpt lat="40.73635333" lon="-3.94528833">
        <ele>1090.0</ele>
        <time>2018-05-26T08:41:57.145Z</time>
      </trkpt>
      <trkpt lat="40.736385" lon="-3.94531667">
        <ele>1091.0</ele>
        <time>2018-05-26T08:41:58.139Z</time>
      </trkpt>
      <trkpt lat="40.736385" lon="-3.94531667">
        <ele>1091.0</ele>
        <time>2018-05-26T08:41:59.148Z</time>
      </trkpt>
      <trkpt lat="40.73642167" lon="-3.94532833">
        <ele>1092.0</ele>
        <time>2018-05-26T08:42:00.158Z</time>
      </trkpt>
      <trkpt lat="40.73642167" lon="-3.94532833">
        <ele>1092.0</ele>
        <time>2018-05-26T08:42:01.154Z</time>
      </trkpt>
      <trkpt lat="40.73645333" lon="-3.945335">
        <ele>1094.0</ele>
        <time>2018-05-26T08:42:02.160Z</time>
      </trkpt>
      <trkpt lat="40.73645333" lon="-3.945335">
        <ele>1094.0</ele>
        <time>2018-05-26T08:42:03.148Z</time>
      </trkpt>
      <trkpt lat="40.73648667" lon="-3.94533833">
        <ele>1095.0</ele>
        <time>2018-05-26T08:42:04.136Z</time>
      </trkpt>
      <trkpt lat="40.73648667" lon="-3.94533833">
        <ele>1095.0</ele>
        <time>2018-05-26T08:42:05.151Z</time>
      </trkpt>
      <trkpt lat="40.73652" lon="-3.94534333">
        <ele>1096.0</ele>
        <time>2018-05-26T08:42:06.158Z</time>
      </trkpt>
      <trkpt lat="40.73652" lon="-3.94534333">
        <ele>1096.0</ele>
        <time>2018-05-26T08:42:07.143Z</time>
      </trkpt>
      <trkpt lat="40.736555" lon="-3.94535833">
        <ele>1096.0</ele>
        <time>2018-05-26T08:42:08.170Z</time>
      </trkpt>
      <trkpt lat="40.736555" lon="-3.94535833">
        <ele>1096.0</ele>
        <time>2018-05-26T08:42:09.146Z</time>
      </trkpt>
      <trkpt lat="40.73658667" lon="-3.94538167">
        <ele>1097.0</ele>
        <time>2018-05-26T08:42:10.152Z</time>
      </trkpt>
      <trkpt lat="40.73660167" lon="-3.945395">
        <ele>1097.0</ele>
        <time>2018-05-26T08:42:11.143Z</time>
      </trkpt>
      <trkpt lat="40.73661333" lon="-3.94541167">
        <ele>1097.0</ele>
        <time>2018-05-26T08:42:12.171Z</time>
      </trkpt>
      <trkpt lat="40.73661333" lon="-3.94541167">
        <ele>1097.0</ele>
        <time>2018-05-26T08:42:13.163Z</time>
      </trkpt>
      <trkpt lat="40.73663833" lon="-3.94545167">
        <ele>1098.0</ele>
        <time>2018-05-26T08:42:14.169Z</time>
      </trkpt>
      <trkpt lat="40.73665167" lon="-3.94547333">
        <ele>1098.0</ele>
        <time>2018-05-26T08:42:15.175Z</time>
      </trkpt>
      <trkpt lat="40.73665833" lon="-3.94549167">
        <ele>1099.0</ele>
        <time>2018-05-26T08:42:16.160Z</time>
      </trkpt>
      <trkpt lat="40.73665833" lon="-3.94549167">
        <ele>1099.0</ele>
        <time>2018-05-26T08:42:17.148Z</time>
      </trkpt>
      <trkpt lat="40.73667333" lon="-3.94552333">
        <ele>1099.0</ele>
        <time>2018-05-26T08:42:18.163Z</time>
      </trkpt>
      <trkpt lat="40.73667333" lon="-3.94552333">
        <ele>1099.0</ele>
        <time>2018-05-26T08:42:19.152Z</time>
      </trkpt>
      <trkpt lat="40.73669167" lon="-3.94555667">
        <ele>1101.0</ele>
        <time>2018-05-26T08:42:20.157Z</time>
      </trkpt>
      <trkpt lat="40.736705" lon="-3.94557667">
        <ele>1101.0</ele>
        <time>2018-05-26T08:42:21.146Z</time>
      </trkpt>
      <trkpt lat="40.73671333" lon="-3.94559167">
        <ele>1102.0</ele>
        <time>2018-05-26T08:42:22.152Z</time>
      </trkpt>
      <trkpt lat="40.73671333" lon="-3.94559167">
        <ele>1102.0</ele>
        <time>2018-05-26T08:42:23.144Z</time>
      </trkpt>
      <trkpt lat="40.73672167" lon="-3.94561333">
        <ele>1104.0</ele>
        <time>2018-05-26T08:42:24.172Z</time>
      </trkpt>
      <trkpt lat="40.73672167" lon="-3.94561333">
        <ele>1104.0</ele>
        <time>2018-05-26T08:42:25.171Z</time>
      </trkpt>
      <trkpt lat="40.73674333" lon="-3.94563667">
        <ele>1105.0</ele>
        <time>2018-05-26T08:42:26.142Z</time>
      </trkpt>
      <trkpt lat="40.73675833" lon="-3.94565667">
        <ele>1106.0</ele>
        <time>2018-05-26T08:42:27.171Z</time>
      </trkpt>
      <trkpt lat="40.73675833" lon="-3.94565667">
        <ele>1106.0</ele>
        <time>2018-05-26T08:42:28.158Z</time>
      </trkpt>
      <trkpt lat="40.7368" lon="-3.94569167">
        <ele>1108.0</ele>
        <time>2018-05-26T08:42:29.173Z</time>
      </trkpt>
      <trkpt lat="40.7368" lon="-3.94569167">
        <ele>1108.0</ele>
        <time>2018-05-26T08:42:30.150Z</time>
      </trkpt>
      <trkpt lat="40.73683" lon="-3.94572167">
        <ele>1108.0</ele>
        <time>2018-05-26T08:42:31.174Z</time>
      </trkpt>
      <trkpt lat="40.73683" lon="-3.94572167">
        <ele>1108.0</ele>
        <time>2018-05-26T08:42:32.139Z</time>
      </trkpt>
      <trkpt lat="40.73688" lon="-3.94573833">
        <ele>1108.0</ele>
        <time>2018-05-26T08:42:33.156Z</time>
      </trkpt>
      <trkpt lat="40.73690833" lon="-3.94574">
        <ele>1108.0</ele>
        <time>2018-05-26T08:42:34.137Z</time>
      </trkpt>
      <trkpt lat="40.73690833" lon="-3.94574">
        <ele>1108.0</ele>
        <time>2018-05-26T08:42:35.147Z</time>
      </trkpt>
      <trkpt lat="40.736965" lon="-3.94572333">
        <ele>1107.0</ele>
        <time>2018-05-26T08:42:36.154Z</time>
      </trkpt>
      <trkpt lat="40.736965" lon="-3.94572333">
        <ele>1107.0</ele>
        <time>2018-05-26T08:42:37.141Z</time>
      </trkpt>
      <trkpt lat="40.73702167" lon="-3.94570333">
        <ele>1106.0</ele>
        <time>2018-05-26T08:42:38.175Z</time>
      </trkpt>
      <trkpt lat="40.73705" lon="-3.945695">
        <ele>1106.0</ele>
        <time>2018-05-26T08:42:39.157Z</time>
      </trkpt>
      <trkpt lat="40.73705" lon="-3.945695">
        <ele>1106.0</ele>
        <time>2018-05-26T08:42:40.144Z</time>
      </trkpt>
      <trkpt lat="40.737105" lon="-3.94568667">
        <ele>1106.0</ele>
        <time>2018-05-26T08:42:41.140Z</time>
      </trkpt>
      <trkpt lat="40.73712667" lon="-3.94569667">
        <ele>1106.0</ele>
        <time>2018-05-26T08:42:42.139Z</time>
      </trkpt>
      <trkpt lat="40.73712667" lon="-3.94569667">
        <ele>1106.0</ele>
        <time>2018-05-26T08:42:43.167Z</time>
      </trkpt>
      <trkpt lat="40.737165" lon="-3.94572">
        <ele>1106.0</ele>
        <time>2018-05-26T08:42:44.173Z</time>
      </trkpt>
      <trkpt lat="40.73718333" lon="-3.94573667">
        <ele>1106.0</ele>
        <time>2018-05-26T08:42:45.160Z</time>
      </trkpt>
      <trkpt lat="40.73718333" lon="-3.94573667">
        <ele>1106.0</ele>
        <time>2018-05-26T08:42:46.149Z</time>
      </trkpt>
      <trkpt lat="40.73721167" lon="-3.94577333">
        <ele>1106.0</ele>
        <time>2018-05-26T08:42:47.170Z</time>
      </trkpt>
      <trkpt lat="40.73721167" lon="-3.94577333">
        <ele>1106.0</ele>
        <time>2018-05-26T08:42:48.147Z</time>
      </trkpt>
      <trkpt lat="40.73723667" lon="-3.94581">
        <ele>1106.0</ele>
        <time>2018-05-26T08:42:49.160Z</time>
      </trkpt>
      <trkpt lat="40.73723667" lon="-3.94581">
        <ele>1106.0</ele>
        <time>2018-05-26T08:42:50.143Z</time>
      </trkpt>
      <trkpt lat="40.73726" lon="-3.94585">
        <ele>1106.0</ele>
        <time>2018-05-26T08:42:51.169Z</time>
      </trkpt>
      <trkpt lat="40.737275" lon="-3.94587667">
        <ele>1105.0</ele>
        <time>2018-05-26T08:42:52.166Z</time>
      </trkpt>
      <trkpt lat="40.737275" lon="-3.94587667">
        <ele>1105.0</ele>
        <time>2018-05-26T08:42:53.153Z</time>
      </trkpt>
      <trkpt lat="40.7373" lon="-3.94593333">
        <ele>1105.0</ele>
        <time>2018-05-26T08:42:54.164Z</time>
      </trkpt>
      <trkpt lat="40.7373" lon="-3.94593333">
        <ele>1105.0</ele>
        <time>2018-05-26T08:42:55.148Z</time>
      </trkpt>
      <trkpt lat="40.73732" lon="-3.94599333">
        <ele>1104.0</ele>
        <time>2018-05-26T08:42:56.154Z</time>
      </trkpt>
      <trkpt lat="40.73732667" lon="-3.94602333">
        <ele>1104.0</ele>
        <time>2018-05-26T08:42:57.151Z</time>
      </trkpt>
      <trkpt lat="40.73732667" lon="-3.94602333">
        <ele>1104.0</ele>
        <time>2018-05-26T08:42:58.158Z</time>
      </trkpt>
      <trkpt lat="40.73733667" lon="-3.94608667">
        <ele>1104.0</ele>
        <time>2018-05-26T08:42:59.164Z</time>
      </trkpt>
      <trkpt lat="40.73733667" lon="-3.94608667">
        <ele>1104.0</ele>
        <time>2018-05-26T08:43:00.153Z</time>
      </trkpt>
      <trkpt lat="40.73735167" lon="-3.94614667">
        <ele>1104.0</ele>
        <time>2018-05-26T08:43:01.149Z</time>
      </trkpt>
      <trkpt lat="40.73735167" lon="-3.94614667">
        <ele>1104.0</ele>
        <time>2018-05-26T08:43:02.140Z</time>
      </trkpt>
      <trkpt lat="40.73737333" lon="-3.94620333">
        <ele>1104.0</ele>
        <time>2018-05-26T08:43:03.171Z</time>
      </trkpt>
      <trkpt lat="40.73737333" lon="-3.94620333">
        <ele>1104.0</ele>
        <time>2018-05-26T08:43:04.167Z</time>
      </trkpt>
      <trkpt lat="40.73739667" lon="-3.94625833">
        <ele>1104.0</ele>
        <time>2018-05-26T08:43:05.174Z</time>
      </trkpt>
      <trkpt lat="40.73739667" lon="-3.94625833">
        <ele>1104.0</ele>
        <time>2018-05-26T08:43:06.162Z</time>
      </trkpt>
      <trkpt lat="40.73742333" lon="-3.94631333">
        <ele>1104.0</ele>
        <time>2018-05-26T08:43:07.137Z</time>
      </trkpt>
      <trkpt lat="40.73742333" lon="-3.94631333">
        <ele>1104.0</ele>
        <time>2018-05-26T08:43:08.175Z</time>
      </trkpt>
      <trkpt lat="40.73744833" lon="-3.94636667">
        <ele>1105.0</ele>
        <time>2018-05-26T08:43:09.142Z</time>
      </trkpt>
      <trkpt lat="40.73746333" lon="-3.94639">
        <ele>1105.0</ele>
        <time>2018-05-26T08:43:10.154Z</time>
      </trkpt>
      <trkpt lat="40.73746333" lon="-3.94639">
        <ele>1105.0</ele>
        <time>2018-05-26T08:43:11.143Z</time>
      </trkpt>
      <trkpt lat="40.73749333" lon="-3.94643667">
        <ele>1106.0</ele>
        <time>2018-05-26T08:43:12.152Z</time>
      </trkpt>
      <trkpt lat="40.73749333" lon="-3.94643667">
        <ele>1106.0</ele>
        <time>2018-05-26T08:43:13.161Z</time>
      </trkpt>
      <trkpt lat="40.73752167" lon="-3.94649333">
        <ele>1106.0</ele>
        <time>2018-05-26T08:43:14.139Z</time>
      </trkpt>
      <trkpt lat="40.73752167" lon="-3.94649333">
        <ele>1106.0</ele>
        <time>2018-05-26T08:43:15.169Z</time>
      </trkpt>
      <trkpt lat="40.73754667" lon="-3.946555">
        <ele>1105.0</ele>
        <time>2018-05-26T08:43:16.136Z</time>
      </trkpt>
      <trkpt lat="40.73754667" lon="-3.946555">
        <ele>1105.0</ele>
        <time>2018-05-26T08:43:17.153Z</time>
      </trkpt>
      <trkpt lat="40.737565" lon="-3.94662333">
        <ele>1105.0</ele>
        <time>2018-05-26T08:43:18.171Z</time>
      </trkpt>
      <trkpt lat="40.737565" lon="-3.94662333">
        <ele>1105.0</ele>
        <time>2018-05-26T08:43:19.167Z</time>
      </trkpt>
      <trkpt lat="40.73757833" lon="-3.94670167">
        <ele>1104.0</ele>
        <time>2018-05-26T08:43:20.179Z</time>
      </trkpt>
      <trkpt lat="40.73757833" lon="-3.94670167">
        <ele>1104.0</ele>
        <time>2018-05-26T08:43:21.140Z</time>
      </trkpt>
      <trkpt lat="40.737585" lon="-3.94677833">
        <ele>1104.0</ele>
        <time>2018-05-26T08:43:22.141Z</time>
      </trkpt>
      <trkpt lat="40.737585" lon="-3.94677833">
        <ele>1104.0</ele>
        <time>2018-05-26T08:43:23.165Z</time>
      </trkpt>
      <trkpt lat="40.73759167" lon="-3.94685833">
        <ele>1104.0</ele>
        <time>2018-05-26T08:43:24.153Z</time>
      </trkpt>
      <trkpt lat="40.73759167" lon="-3.94685833">
        <ele>1104.0</ele>
        <time>2018-05-26T08:43:25.140Z</time>
      </trkpt>
      <trkpt lat="40.73759167" lon="-3.946935">
        <ele>1105.0</ele>
        <time>2018-05-26T08:43:26.146Z</time>
      </trkpt>
      <trkpt lat="40.73759167" lon="-3.946935">
        <ele>1105.0</ele>
        <time>2018-05-26T08:43:27.173Z</time>
      </trkpt>
      <trkpt lat="40.73759667" lon="-3.94701333">
        <ele>1105.0</ele>
        <time>2018-05-26T08:43:28.149Z</time>
      </trkpt>
      <trkpt lat="40.73759667" lon="-3.94701333">
        <ele>1105.0</ele>
        <time>2018-05-26T08:43:29.141Z</time>
      </trkpt>
      <trkpt lat="40.7376" lon="-3.94709333">
        <ele>1105.0</ele>
        <time>2018-05-26T08:43:30.148Z</time>
      </trkpt>
      <trkpt lat="40.7376" lon="-3.94709333">
        <ele>1105.0</ele>
        <time>2018-05-26T08:43:31.142Z</time>
      </trkpt>
      <trkpt lat="40.73760333" lon="-3.947175">
        <ele>1104.0</ele>
        <time>2018-05-26T08:43:32.150Z</time>
      </trkpt>
      <trkpt lat="40.73760333" lon="-3.947175">
        <ele>1104.0</ele>
        <time>2018-05-26T08:43:33.145Z</time>
      </trkpt>
      <trkpt lat="40.73760833" lon="-3.94724333">
        <ele>1104.0</ele>
        <time>2018-05-26T08:43:34.161Z</time>
      </trkpt>
      <trkpt lat="40.73760833" lon="-3.94724333">
        <ele>1104.0</ele>
        <time>2018-05-26T08:43:35.137Z</time>
      </trkpt>
      <trkpt lat="40.737615" lon="-3.94732">
        <ele>1104.0</ele>
        <time>2018-05-26T08:43:36.145Z</time>
      </trkpt>
      <trkpt lat="40.737615" lon="-3.94732">
        <ele>1104.0</ele>
        <time>2018-05-26T08:43:37.169Z</time>
      </trkpt>
      <trkpt lat="40.73762" lon="-3.94740833">
        <ele>1104.0</ele>
        <time>2018-05-26T08:43:38.171Z</time>
      </trkpt>
      <trkpt lat="40.73762" lon="-3.94740833">
        <ele>1104.0</ele>
        <time>2018-05-26T08:43:39.153Z</time>
      </trkpt>
      <trkpt lat="40.73762333" lon="-3.94749667">
        <ele>1104.0</ele>
        <time>2018-05-26T08:43:40.160Z</time>
      </trkpt>
      <trkpt lat="40.73762333" lon="-3.94749667">
        <ele>1104.0</ele>
        <time>2018-05-26T08:43:41.153Z</time>
      </trkpt>
      <trkpt lat="40.73762833" lon="-3.94759667">
        <ele>1103.0</ele>
        <time>2018-05-26T08:43:42.169Z</time>
      </trkpt>
      <trkpt lat="40.73763167" lon="-3.94764667">
        <ele>1103.0</ele>
        <time>2018-05-26T08:43:43.161Z</time>
      </trkpt>
      <trkpt lat="40.737635" lon="-3.94770167">
        <ele>1103.0</ele>
        <time>2018-05-26T08:43:44.149Z</time>
      </trkpt>
      <trkpt lat="40.737635" lon="-3.94770167">
        <ele>1103.0</ele>
        <time>2018-05-26T08:43:45.139Z</time>
      </trkpt>
      <trkpt lat="40.73764167" lon="-3.947815">
        <ele>1102.0</ele>
        <time>2018-05-26T08:43:46.146Z</time>
      </trkpt>
      <trkpt lat="40.73764167" lon="-3.947815">
        <ele>1102.0</ele>
        <time>2018-05-26T08:43:47.163Z</time>
      </trkpt>
      <trkpt lat="40.73764333" lon="-3.94793833">
        <ele>1102.0</ele>
        <time>2018-05-26T08:43:48.171Z</time>
      </trkpt>
      <trkpt lat="40.73764333" lon="-3.94793833">
        <ele>1102.0</ele>
        <time>2018-05-26T08:43:49.165Z</time>
      </trkpt>
      <trkpt lat="40.73763833" lon="-3.94805833">
        <ele>1101.0</ele>
        <time>2018-05-26T08:43:50.171Z</time>
      </trkpt>
      <trkpt lat="40.73763667" lon="-3.948115">
        <ele>1101.0</ele>
        <time>2018-05-26T08:43:51.166Z</time>
      </trkpt>
      <trkpt lat="40.737635" lon="-3.94816833">
        <ele>1101.0</ele>
        <time>2018-05-26T08:43:52.146Z</time>
      </trkpt>
      <trkpt lat="40.737635" lon="-3.94816833">
        <ele>1101.0</ele>
        <time>2018-05-26T08:43:53.146Z</time>
      </trkpt>
      <trkpt lat="40.73763" lon="-3.94826667">
        <ele>1101.0</ele>
        <time>2018-05-26T08:43:54.161Z</time>
      </trkpt>
      <trkpt lat="40.73763" lon="-3.94830833">
        <ele>1101.0</ele>
        <time>2018-05-26T08:43:55.169Z</time>
      </trkpt>
      <trkpt lat="40.73762833" lon="-3.94834667">
        <ele>1101.0</ele>
        <time>2018-05-26T08:43:56.156Z</time>
      </trkpt>
      <trkpt lat="40.73762833" lon="-3.94834667">
        <ele>1101.0</ele>
        <time>2018-05-26T08:43:57.144Z</time>
      </trkpt>
      <trkpt lat="40.73762" lon="-3.94843167">
        <ele>1102.0</ele>
        <time>2018-05-26T08:43:58.150Z</time>
      </trkpt>
      <trkpt lat="40.73762" lon="-3.94843167">
        <ele>1102.0</ele>
        <time>2018-05-26T08:43:59.136Z</time>
      </trkpt>
      <trkpt lat="40.73761667" lon="-3.94851">
        <ele>1102.0</ele>
        <time>2018-05-26T08:44:00.166Z</time>
      </trkpt>
      <trkpt lat="40.737615" lon="-3.948545">
        <ele>1103.0</ele>
        <time>2018-05-26T08:44:01.163Z</time>
      </trkpt>
      <trkpt lat="40.737615" lon="-3.948545">
        <ele>1103.0</ele>
        <time>2018-05-26T08:44:02.145Z</time>
      </trkpt>
      <trkpt lat="40.73761" lon="-3.94860833">
        <ele>1104.0</ele>
        <time>2018-05-26T08:44:03.153Z</time>
      </trkpt>
      <trkpt lat="40.73760333" lon="-3.94864167">
        <ele>1104.0</ele>
        <time>2018-05-26T08:44:04.144Z</time>
      </trkpt>
      <trkpt lat="40.73760333" lon="-3.94864167">
        <ele>1104.0</ele>
        <time>2018-05-26T08:44:05.147Z</time>
      </trkpt>
      <trkpt lat="40.7376" lon="-3.94870667">
        <ele>1105.0</ele>
        <time>2018-05-26T08:44:06.154Z</time>
      </trkpt>
      <trkpt lat="40.73759667" lon="-3.94874">
        <ele>1105.0</ele>
        <time>2018-05-26T08:44:07.146Z</time>
      </trkpt>
      <trkpt lat="40.73759667" lon="-3.94874">
        <ele>1105.0</ele>
        <time>2018-05-26T08:44:08.146Z</time>
      </trkpt>
      <trkpt lat="40.73759667" lon="-3.94880667">
        <ele>1106.0</ele>
        <time>2018-05-26T08:44:09.155Z</time>
      </trkpt>
      <trkpt lat="40.73759667" lon="-3.94880667">
        <ele>1106.0</ele>
        <time>2018-05-26T08:44:10.142Z</time>
      </trkpt>
      <trkpt lat="40.73759833" lon="-3.94888">
        <ele>1107.0</ele>
        <time>2018-05-26T08:44:11.137Z</time>
      </trkpt>
      <trkpt lat="40.73759833" lon="-3.94888">
        <ele>1107.0</ele>
        <time>2018-05-26T08:44:12.146Z</time>
      </trkpt>
      <trkpt lat="40.73759667" lon="-3.94894333">
        <ele>1107.0</ele>
        <time>2018-05-26T08:44:13.153Z</time>
      </trkpt>
      <trkpt lat="40.73759667" lon="-3.94894333">
        <ele>1107.0</ele>
        <time>2018-05-26T08:44:14.142Z</time>
      </trkpt>
      <trkpt lat="40.73760167" lon="-3.949">
        <ele>1107.0</ele>
        <time>2018-05-26T08:44:15.173Z</time>
      </trkpt>
      <trkpt lat="40.737605" lon="-3.94902667">
        <ele>1107.0</ele>
        <time>2018-05-26T08:44:16.151Z</time>
      </trkpt>
      <trkpt lat="40.737605" lon="-3.94902667">
        <ele>1107.0</ele>
        <time>2018-05-26T08:44:17.140Z</time>
      </trkpt>
      <trkpt lat="40.737605" lon="-3.94907667">
        <ele>1108.0</ele>
        <time>2018-05-26T08:44:18.161Z</time>
      </trkpt>
      <trkpt lat="40.73760167" lon="-3.94910333">
        <ele>1108.0</ele>
        <time>2018-05-26T08:44:19.140Z</time>
      </trkpt>
      <trkpt lat="40.73760167" lon="-3.94910333">
        <ele>1108.0</ele>
        <time>2018-05-26T08:44:20.167Z</time>
      </trkpt>
      <trkpt lat="40.737595" lon="-3.94915667">
        <ele>1108.0</ele>
        <time>2018-05-26T08:44:21.174Z</time>
      </trkpt>
      <trkpt lat="40.73759167" lon="-3.949185">
        <ele>1109.0</ele>
        <time>2018-05-26T08:44:22.151Z</time>
      </trkpt>
      <trkpt lat="40.73759167" lon="-3.949185">
        <ele>1109.0</ele>
        <time>2018-05-26T08:44:23.142Z</time>
      </trkpt>
      <trkpt lat="40.73758667" lon="-3.94923833">
        <ele>1109.0</ele>
        <time>2018-05-26T08:44:24.149Z</time>
      </trkpt>
      <trkpt lat="40.73758667" lon="-3.94923833">
        <ele>1109.0</ele>
        <time>2018-05-26T08:44:25.156Z</time>
      </trkpt>
      <trkpt lat="40.73757667" lon="-3.94928667">
        <ele>1110.0</ele>
        <time>2018-05-26T08:44:26.163Z</time>
      </trkpt>
      <trkpt lat="40.73757667" lon="-3.94928667">
        <ele>1110.0</ele>
        <time>2018-05-26T08:44:27.148Z</time>
      </trkpt>
      <trkpt lat="40.737565" lon="-3.94933833">
        <ele>1111.0</ele>
        <time>2018-05-26T08:44:28.176Z</time>
      </trkpt>
      <trkpt lat="40.737565" lon="-3.94933833">
        <ele>1111.0</ele>
        <time>2018-05-26T08:44:29.139Z</time>
      </trkpt>
      <trkpt lat="40.73755833" lon="-3.949395">
        <ele>1112.0</ele>
        <time>2018-05-26T08:44:30.151Z</time>
      </trkpt>
      <trkpt lat="40.73755833" lon="-3.949395">
        <ele>1112.0</ele>
        <time>2018-05-26T08:44:31.141Z</time>
      </trkpt>
      <trkpt lat="40.73754667" lon="-3.949445">
        <ele>1113.0</ele>
        <time>2018-05-26T08:44:32.161Z</time>
      </trkpt>
      <trkpt lat="40.73754667" lon="-3.949445">
        <ele>1113.0</ele>
        <time>2018-05-26T08:44:33.150Z</time>
      </trkpt>
      <trkpt lat="40.73753167" lon="-3.9495">
        <ele>1114.0</ele>
        <time>2018-05-26T08:44:34.157Z</time>
      </trkpt>
      <trkpt lat="40.73753167" lon="-3.9495">
        <ele>1114.0</ele>
        <time>2018-05-26T08:44:35.166Z</time>
      </trkpt>
      <trkpt lat="40.73751333" lon="-3.94955167">
        <ele>1115.0</ele>
        <time>2018-05-26T08:44:36.172Z</time>
      </trkpt>
      <trkpt lat="40.73751333" lon="-3.94955167">
        <ele>1115.0</ele>
        <time>2018-05-26T08:44:37.154Z</time>
      </trkpt>
      <trkpt lat="40.73749667" lon="-3.949605">
        <ele>1115.0</ele>
        <time>2018-05-26T08:44:38.140Z</time>
      </trkpt>
      <trkpt lat="40.73749667" lon="-3.949605">
        <ele>1115.0</ele>
        <time>2018-05-26T08:44:39.141Z</time>
      </trkpt>
      <trkpt lat="40.73747167" lon="-3.94964833">
        <ele>1115.0</ele>
        <time>2018-05-26T08:44:40.148Z</time>
      </trkpt>
      <trkpt lat="40.73747167" lon="-3.94964833">
        <ele>1115.0</ele>
        <time>2018-05-26T08:44:41.138Z</time>
      </trkpt>
      <trkpt lat="40.737465" lon="-3.94969">
        <ele>1115.0</ele>
        <time>2018-05-26T08:44:42.173Z</time>
      </trkpt>
      <trkpt lat="40.737465" lon="-3.94969">
        <ele>1115.0</ele>
        <time>2018-05-26T08:44:43.147Z</time>
      </trkpt>
      <trkpt lat="40.73745667" lon="-3.949735">
        <ele>1115.0</ele>
        <time>2018-05-26T08:44:44.153Z</time>
      </trkpt>
      <trkpt lat="40.73745667" lon="-3.949735">
        <ele>1115.0</ele>
        <time>2018-05-26T08:44:45.146Z</time>
      </trkpt>
      <trkpt lat="40.73744833" lon="-3.94978833">
        <ele>1115.0</ele>
        <time>2018-05-26T08:44:46.171Z</time>
      </trkpt>
      <trkpt lat="40.73744833" lon="-3.94978833">
        <ele>1115.0</ele>
        <time>2018-05-26T08:44:47.165Z</time>
      </trkpt>
      <trkpt lat="40.73743833" lon="-3.94983833">
        <ele>1116.0</ele>
        <time>2018-05-26T08:44:48.172Z</time>
      </trkpt>
      <trkpt lat="40.73743167" lon="-3.949865">
        <ele>1116.0</ele>
        <time>2018-05-26T08:44:49.139Z</time>
      </trkpt>
      <trkpt lat="40.73743167" lon="-3.949865">
        <ele>1116.0</ele>
        <time>2018-05-26T08:44:50.146Z</time>
      </trkpt>
      <trkpt lat="40.737415" lon="-3.94991833">
        <ele>1116.0</ele>
        <time>2018-05-26T08:44:51.153Z</time>
      </trkpt>
      <trkpt lat="40.73740667" lon="-3.94994833">
        <ele>1116.0</ele>
        <time>2018-05-26T08:44:52.170Z</time>
      </trkpt>
      <trkpt lat="40.73740667" lon="-3.94994833">
        <ele>1116.0</ele>
        <time>2018-05-26T08:44:53.148Z</time>
      </trkpt>
      <trkpt lat="40.737385" lon="-3.950005">
        <ele>1115.0</ele>
        <time>2018-05-26T08:44:54.154Z</time>
      </trkpt>
      <trkpt lat="40.737385" lon="-3.950005">
        <ele>1115.0</ele>
        <time>2018-05-26T08:44:55.142Z</time>
      </trkpt>
      <trkpt lat="40.73736333" lon="-3.95007">
        <ele>1115.0</ele>
        <time>2018-05-26T08:44:56.171Z</time>
      </trkpt>
      <trkpt lat="40.73736333" lon="-3.95007">
        <ele>1115.0</ele>
        <time>2018-05-26T08:44:57.156Z</time>
      </trkpt>
      <trkpt lat="40.73733" lon="-3.95014">
        <ele>1115.0</ele>
        <time>2018-05-26T08:44:58.164Z</time>
      </trkpt>
      <trkpt lat="40.73731" lon="-3.95017167">
        <ele>1115.0</ele>
        <time>2018-05-26T08:44:59.176Z</time>
      </trkpt>
      <trkpt lat="40.73731" lon="-3.95017167">
        <ele>1115.0</ele>
        <time>2018-05-26T08:45:00.166Z</time>
      </trkpt>
      <trkpt lat="40.73726667" lon="-3.95024">
        <ele>1114.0</ele>
        <time>2018-05-26T08:45:01.170Z</time>
      </trkpt>
      <trkpt lat="40.73726667" lon="-3.95024">
        <ele>1114.0</ele>
        <time>2018-05-26T08:45:02.157Z</time>
      </trkpt>
      <trkpt lat="40.737215" lon="-3.95031">
        <ele>1114.0</ele>
        <time>2018-05-26T08:45:03.164Z</time>
      </trkpt>
      <trkpt lat="40.73719167" lon="-3.95034667">
        <ele>1114.0</ele>
        <time>2018-05-26T08:45:04.155Z</time>
      </trkpt>
      <trkpt lat="40.73719167" lon="-3.95034667">
        <ele>1114.0</ele>
        <time>2018-05-26T08:45:05.139Z</time>
      </trkpt>
      <trkpt lat="40.73715333" lon="-3.95041667">
        <ele>1114.0</ele>
        <time>2018-05-26T08:45:06.145Z</time>
      </trkpt>
      <trkpt lat="40.73713333" lon="-3.950445">
        <ele>1115.0</ele>
        <time>2018-05-26T08:45:07.172Z</time>
      </trkpt>
      <trkpt lat="40.73713333" lon="-3.950445">
        <ele>1115.0</ele>
        <time>2018-05-26T08:45:08.142Z</time>
      </trkpt>
      <trkpt lat="40.73709833" lon="-3.95050167">
        <ele>1114.0</ele>
        <time>2018-05-26T08:45:09.149Z</time>
      </trkpt>
      <trkpt lat="40.73708" lon="-3.95052667">
        <ele>1114.0</ele>
        <time>2018-05-26T08:45:10.143Z</time>
      </trkpt>
      <trkpt lat="40.73708" lon="-3.95052667">
        <ele>1114.0</ele>
        <time>2018-05-26T08:45:11.143Z</time>
      </trkpt>
      <trkpt lat="40.73704167" lon="-3.95057667">
        <ele>1114.0</ele>
        <time>2018-05-26T08:45:12.153Z</time>
      </trkpt>
      <trkpt lat="40.73702167" lon="-3.950605">
        <ele>1115.0</ele>
        <time>2018-05-26T08:45:13.171Z</time>
      </trkpt>
      <trkpt lat="40.73702167" lon="-3.950605">
        <ele>1115.0</ele>
        <time>2018-05-26T08:45:14.146Z</time>
      </trkpt>
      <trkpt lat="40.73698833" lon="-3.950675">
        <ele>1115.0</ele>
        <time>2018-05-26T08:45:15.152Z</time>
      </trkpt>
      <trkpt lat="40.73697" lon="-3.95071">
        <ele>1115.0</ele>
        <time>2018-05-26T08:45:16.145Z</time>
      </trkpt>
      <trkpt lat="40.73697" lon="-3.95071">
        <ele>1115.0</ele>
        <time>2018-05-26T08:45:17.146Z</time>
      </trkpt>
      <trkpt lat="40.73694333" lon="-3.95079">
        <ele>1114.0</ele>
        <time>2018-05-26T08:45:18.152Z</time>
      </trkpt>
      <trkpt lat="40.73694333" lon="-3.95079">
        <ele>1114.0</ele>
        <time>2018-05-26T08:45:19.158Z</time>
      </trkpt>
      <trkpt lat="40.73692667" lon="-3.95087167">
        <ele>1114.0</ele>
        <time>2018-05-26T08:45:20.140Z</time>
      </trkpt>
      <trkpt lat="40.73692667" lon="-3.95087167">
        <ele>1114.0</ele>
        <time>2018-05-26T08:45:21.151Z</time>
      </trkpt>
      <trkpt lat="40.73691333" lon="-3.95095833">
        <ele>1115.0</ele>
        <time>2018-05-26T08:45:22.161Z</time>
      </trkpt>
      <trkpt lat="40.73691333" lon="-3.95095833">
        <ele>1115.0</ele>
        <time>2018-05-26T08:45:23.164Z</time>
      </trkpt>
      <trkpt lat="40.73690333" lon="-3.95103667">
        <ele>1115.0</ele>
        <time>2018-05-26T08:45:24.150Z</time>
      </trkpt>
      <trkpt lat="40.73690333" lon="-3.95103667">
        <ele>1115.0</ele>
        <time>2018-05-26T08:45:25.145Z</time>
      </trkpt>
      <trkpt lat="40.73689333" lon="-3.95110667">
        <ele>1116.0</ele>
        <time>2018-05-26T08:45:26.152Z</time>
      </trkpt>
      <trkpt lat="40.73689333" lon="-3.95110667">
        <ele>1116.0</ele>
        <time>2018-05-26T08:45:27.139Z</time>
      </trkpt>
      <trkpt lat="40.73687333" lon="-3.95117167">
        <ele>1117.0</ele>
        <time>2018-05-26T08:45:28.171Z</time>
      </trkpt>
      <trkpt lat="40.73687333" lon="-3.95117167">
        <ele>1117.0</ele>
        <time>2018-05-26T08:45:29.137Z</time>
      </trkpt>
      <trkpt lat="40.73685333" lon="-3.95123667">
        <ele>1117.0</ele>
        <time>2018-05-26T08:45:30.144Z</time>
      </trkpt>
      <trkpt lat="40.73685333" lon="-3.95123667">
        <ele>1117.0</ele>
        <time>2018-05-26T08:45:31.170Z</time>
      </trkpt>
      <trkpt lat="40.736835" lon="-3.95129833">
        <ele>1118.0</ele>
        <time>2018-05-26T08:45:32.175Z</time>
      </trkpt>
      <trkpt lat="40.736835" lon="-3.95129833">
        <ele>1118.0</ele>
        <time>2018-05-26T08:45:33.138Z</time>
      </trkpt>
      <trkpt lat="40.73680833" lon="-3.95136667">
        <ele>1117.0</ele>
        <time>2018-05-26T08:45:34.145Z</time>
      </trkpt>
      <trkpt lat="40.736795" lon="-3.95140833">
        <ele>1117.0</ele>
        <time>2018-05-26T08:45:35.177Z</time>
      </trkpt>
      <trkpt lat="40.736795" lon="-3.95140833">
        <ele>1117.0</ele>
        <time>2018-05-26T08:45:36.141Z</time>
      </trkpt>
      <trkpt lat="40.73677" lon="-3.9515">
        <ele>1117.0</ele>
        <time>2018-05-26T08:45:37.149Z</time>
      </trkpt>
      <trkpt lat="40.73677" lon="-3.9515">
        <ele>1117.0</ele>
        <time>2018-05-26T08:45:38.175Z</time>
      </trkpt>
      <trkpt lat="40.73676167" lon="-3.95159833">
        <ele>1117.0</ele>
        <time>2018-05-26T08:45:39.175Z</time>
      </trkpt>
      <trkpt lat="40.73675833" lon="-3.95164333">
        <ele>1118.0</ele>
        <time>2018-05-26T08:45:40.147Z</time>
      </trkpt>
      <trkpt lat="40.73675833" lon="-3.95164333">
        <ele>1118.0</ele>
        <time>2018-05-26T08:45:41.138Z</time>
      </trkpt>
      <trkpt lat="40.73675" lon="-3.95173167">
        <ele>1118.0</ele>
        <time>2018-05-26T08:45:42.155Z</time>
      </trkpt>
      <trkpt lat="40.73675" lon="-3.95173167">
        <ele>1118.0</ele>
        <time>2018-05-26T08:45:43.154Z</time>
      </trkpt>
      <trkpt lat="40.73674167" lon="-3.951815">
        <ele>1118.0</ele>
        <time>2018-05-26T08:45:44.161Z</time>
      </trkpt>
      <trkpt lat="40.73674167" lon="-3.951815">
        <ele>1118.0</ele>
        <time>2018-05-26T08:45:45.147Z</time>
      </trkpt>
      <trkpt lat="40.73673333" lon="-3.951895">
        <ele>1118.0</ele>
        <time>2018-05-26T08:45:46.161Z</time>
      </trkpt>
      <trkpt lat="40.73672833" lon="-3.95193333">
        <ele>1119.0</ele>
        <time>2018-05-26T08:45:47.140Z</time>
      </trkpt>
      <trkpt lat="40.73672833" lon="-3.95193333">
        <ele>1119.0</ele>
        <time>2018-05-26T08:45:48.165Z</time>
      </trkpt>
      <trkpt lat="40.73671167" lon="-3.95201333">
        <ele>1119.0</ele>
        <time>2018-05-26T08:45:49.175Z</time>
      </trkpt>
      <trkpt lat="40.73670167" lon="-3.95205333">
        <ele>1119.0</ele>
        <time>2018-05-26T08:45:50.170Z</time>
      </trkpt>
      <trkpt lat="40.73669167" lon="-3.95209333">
        <ele>1119.0</ele>
        <time>2018-05-26T08:45:51.174Z</time>
      </trkpt>
      <trkpt lat="40.736685" lon="-3.95213667">
        <ele>1120.0</ele>
        <time>2018-05-26T08:45:52.159Z</time>
      </trkpt>
      <trkpt lat="40.736685" lon="-3.95213667">
        <ele>1120.0</ele>
        <time>2018-05-26T08:45:53.142Z</time>
      </trkpt>
      <trkpt lat="40.736655" lon="-3.952215">
        <ele>1121.0</ele>
        <time>2018-05-26T08:45:54.151Z</time>
      </trkpt>
      <trkpt lat="40.736655" lon="-3.952215">
        <ele>1121.0</ele>
        <time>2018-05-26T08:45:55.156Z</time>
      </trkpt>
      <trkpt lat="40.73662333" lon="-3.95229333">
        <ele>1121.0</ele>
        <time>2018-05-26T08:45:56.169Z</time>
      </trkpt>
      <trkpt lat="40.73662333" lon="-3.95229333">
        <ele>1121.0</ele>
        <time>2018-05-26T08:45:57.161Z</time>
      </trkpt>
      <trkpt lat="40.73659833" lon="-3.95237667">
        <ele>1121.0</ele>
        <time>2018-05-26T08:45:58.176Z</time>
      </trkpt>
      <trkpt lat="40.73659833" lon="-3.95237667">
        <ele>1121.0</ele>
        <time>2018-05-26T08:45:59.163Z</time>
      </trkpt>
      <trkpt lat="40.73658167" lon="-3.95246">
        <ele>1121.0</ele>
        <time>2018-05-26T08:46:00.175Z</time>
      </trkpt>
      <trkpt lat="40.73658167" lon="-3.95246">
        <ele>1121.0</ele>
        <time>2018-05-26T08:46:01.144Z</time>
      </trkpt>
      <trkpt lat="40.73657167" lon="-3.95254667">
        <ele>1121.0</ele>
        <time>2018-05-26T08:46:02.151Z</time>
      </trkpt>
      <trkpt lat="40.73656833" lon="-3.95259167">
        <ele>1121.0</ele>
        <time>2018-05-26T08:46:03.176Z</time>
      </trkpt>
      <trkpt lat="40.736565" lon="-3.95263667">
        <ele>1121.0</ele>
        <time>2018-05-26T08:46:04.162Z</time>
      </trkpt>
      <trkpt lat="40.736565" lon="-3.95263667">
        <ele>1121.0</ele>
        <time>2018-05-26T08:46:05.152Z</time>
      </trkpt>
      <trkpt lat="40.73656" lon="-3.95272333">
        <ele>1122.0</ele>
        <time>2018-05-26T08:46:06.159Z</time>
      </trkpt>
      <trkpt lat="40.73656" lon="-3.95272333">
        <ele>1122.0</ele>
        <time>2018-05-26T08:46:07.166Z</time>
      </trkpt>
      <trkpt lat="40.73656" lon="-3.95280667">
        <ele>1122.0</ele>
        <time>2018-05-26T08:46:08.173Z</time>
      </trkpt>
      <trkpt lat="40.73656" lon="-3.95280667">
        <ele>1122.0</ele>
        <time>2018-05-26T08:46:09.159Z</time>
      </trkpt>
      <trkpt lat="40.73656333" lon="-3.95289">
        <ele>1122.0</ele>
        <time>2018-05-26T08:46:10.161Z</time>
      </trkpt>
      <trkpt lat="40.73656333" lon="-3.95289">
        <ele>1122.0</ele>
        <time>2018-05-26T08:46:11.140Z</time>
      </trkpt>
      <trkpt lat="40.736575" lon="-3.952975">
        <ele>1122.0</ele>
        <time>2018-05-26T08:46:12.148Z</time>
      </trkpt>
      <trkpt lat="40.736575" lon="-3.952975">
        <ele>1122.0</ele>
        <time>2018-05-26T08:46:13.149Z</time>
      </trkpt>
      <trkpt lat="40.73659167" lon="-3.95306">
        <ele>1123.0</ele>
        <time>2018-05-26T08:46:14.170Z</time>
      </trkpt>
      <trkpt lat="40.73659167" lon="-3.95306">
        <ele>1123.0</ele>
        <time>2018-05-26T08:46:15.156Z</time>
      </trkpt>
      <trkpt lat="40.73660833" lon="-3.95314">
        <ele>1123.0</ele>
        <time>2018-05-26T08:46:16.163Z</time>
      </trkpt>
      <trkpt lat="40.73660833" lon="-3.95314">
        <ele>1123.0</ele>
        <time>2018-05-26T08:46:17.151Z</time>
      </trkpt>
      <trkpt lat="40.73662333" lon="-3.95322167">
        <ele>1123.0</ele>
        <time>2018-05-26T08:46:18.174Z</time>
      </trkpt>
      <trkpt lat="40.73663167" lon="-3.95326333">
        <ele>1123.0</ele>
        <time>2018-05-26T08:46:19.164Z</time>
      </trkpt>
      <trkpt lat="40.736635" lon="-3.953305">
        <ele>1123.0</ele>
        <time>2018-05-26T08:46:20.151Z</time>
      </trkpt>
      <trkpt lat="40.736635" lon="-3.953305">
        <ele>1123.0</ele>
        <time>2018-05-26T08:46:21.139Z</time>
      </trkpt>
      <trkpt lat="40.73663167" lon="-3.95338833">
        <ele>1123.0</ele>
        <time>2018-05-26T08:46:22.147Z</time>
      </trkpt>
      <trkpt lat="40.73663167" lon="-3.95338833">
        <ele>1123.0</ele>
        <time>2018-05-26T08:46:23.136Z</time>
      </trkpt>
      <trkpt lat="40.736635" lon="-3.95346167">
        <ele>1123.0</ele>
        <time>2018-05-26T08:46:24.171Z</time>
      </trkpt>
      <trkpt lat="40.736635" lon="-3.95346167">
        <ele>1123.0</ele>
        <time>2018-05-26T08:46:25.157Z</time>
      </trkpt>
      <trkpt lat="40.73663" lon="-3.95354">
        <ele>1124.0</ele>
        <time>2018-05-26T08:46:26.163Z</time>
      </trkpt>
      <trkpt lat="40.73663" lon="-3.95354">
        <ele>1124.0</ele>
        <time>2018-05-26T08:46:27.150Z</time>
      </trkpt>
      <trkpt lat="40.73661833" lon="-3.95360167">
        <ele>1124.0</ele>
        <time>2018-05-26T08:46:28.176Z</time>
      </trkpt>
      <trkpt lat="40.73661833" lon="-3.95360167">
        <ele>1124.0</ele>
        <time>2018-05-26T08:46:29.139Z</time>
      </trkpt>
      <trkpt lat="40.73659833" lon="-3.95366333">
        <ele>1124.0</ele>
        <time>2018-05-26T08:46:30.146Z</time>
      </trkpt>
      <trkpt lat="40.73659833" lon="-3.95366333">
        <ele>1124.0</ele>
        <time>2018-05-26T08:46:31.172Z</time>
      </trkpt>
      <trkpt lat="40.73657667" lon="-3.953715">
        <ele>1125.0</ele>
        <time>2018-05-26T08:46:32.174Z</time>
      </trkpt>
      <trkpt lat="40.736565" lon="-3.95373667">
        <ele>1125.0</ele>
        <time>2018-05-26T08:46:33.143Z</time>
      </trkpt>
      <trkpt lat="40.736565" lon="-3.95373667">
        <ele>1125.0</ele>
        <time>2018-05-26T08:46:34.173Z</time>
      </trkpt>
      <trkpt lat="40.736545" lon="-3.95377833">
        <ele>1125.0</ele>
        <time>2018-05-26T08:46:35.145Z</time>
      </trkpt>
      <trkpt lat="40.73653833" lon="-3.95379833">
        <ele>1125.0</ele>
        <time>2018-05-26T08:46:36.156Z</time>
      </trkpt>
      <trkpt lat="40.73653833" lon="-3.95379833">
        <ele>1125.0</ele>
        <time>2018-05-26T08:46:37.143Z</time>
      </trkpt>
      <trkpt lat="40.736525" lon="-3.95384833">
        <ele>1126.0</ele>
        <time>2018-05-26T08:46:38.154Z</time>
      </trkpt>
      <trkpt lat="40.736525" lon="-3.95384833">
        <ele>1126.0</ele>
        <time>2018-05-26T08:46:39.138Z</time>
      </trkpt>
      <trkpt lat="40.73651" lon="-3.95389">
        <ele>1127.0</ele>
        <time>2018-05-26T08:46:40.145Z</time>
      </trkpt>
      <trkpt lat="40.73651" lon="-3.95389">
        <ele>1127.0</ele>
        <time>2018-05-26T08:46:41.162Z</time>
      </trkpt>
      <trkpt lat="40.73649" lon="-3.95393833">
        <ele>1127.0</ele>
        <time>2018-05-26T08:46:42.169Z</time>
      </trkpt>
      <trkpt lat="40.73649" lon="-3.95393833">
        <ele>1127.0</ele>
        <time>2018-05-26T08:46:43.166Z</time>
      </trkpt>
      <trkpt lat="40.73647" lon="-3.95398833">
        <ele>1127.0</ele>
        <time>2018-05-26T08:46:44.173Z</time>
      </trkpt>
      <trkpt lat="40.73647" lon="-3.95398833">
        <ele>1127.0</ele>
        <time>2018-05-26T08:46:45.153Z</time>
      </trkpt>
      <trkpt lat="40.73645167" lon="-3.95403667">
        <ele>1128.0</ele>
        <time>2018-05-26T08:46:46.175Z</time>
      </trkpt>
      <trkpt lat="40.73645167" lon="-3.95403667">
        <ele>1128.0</ele>
        <time>2018-05-26T08:46:47.171Z</time>
      </trkpt>
      <trkpt lat="40.73643" lon="-3.95408833">
        <ele>1129.0</ele>
        <time>2018-05-26T08:46:48.145Z</time>
      </trkpt>
      <trkpt lat="40.73643" lon="-3.95408833">
        <ele>1129.0</ele>
        <time>2018-05-26T08:46:49.159Z</time>
      </trkpt>
      <trkpt lat="40.736415" lon="-3.95414">
        <ele>1129.0</ele>
        <time>2018-05-26T08:46:50.175Z</time>
      </trkpt>
      <trkpt lat="40.73640667" lon="-3.95416333">
        <ele>1129.0</ele>
        <time>2018-05-26T08:46:51.144Z</time>
      </trkpt>
      <trkpt lat="40.73640667" lon="-3.95416333">
        <ele>1129.0</ele>
        <time>2018-05-26T08:46:52.170Z</time>
      </trkpt>
      <trkpt lat="40.736405" lon="-3.95421667">
        <ele>1130.0</ele>
        <time>2018-05-26T08:46:53.180Z</time>
      </trkpt>
      <trkpt lat="40.736405" lon="-3.95421667">
        <ele>1130.0</ele>
        <time>2018-05-26T08:46:54.155Z</time>
      </trkpt>
      <trkpt lat="40.73641333" lon="-3.95426667">
        <ele>1130.0</ele>
        <time>2018-05-26T08:46:55.163Z</time>
      </trkpt>
      <trkpt lat="40.73641333" lon="-3.95426667">
        <ele>1130.0</ele>
        <time>2018-05-26T08:46:56.152Z</time>
      </trkpt>
      <trkpt lat="40.736435" lon="-3.95430833">
        <ele>1130.0</ele>
        <time>2018-05-26T08:46:57.171Z</time>
      </trkpt>
      <trkpt lat="40.736435" lon="-3.95430833">
        <ele>1130.0</ele>
        <time>2018-05-26T08:46:58.142Z</time>
      </trkpt>
      <trkpt lat="40.73646333" lon="-3.95432667">
        <ele>1131.0</ele>
        <time>2018-05-26T08:46:59.149Z</time>
      </trkpt>
      <trkpt lat="40.73646333" lon="-3.95432667">
        <ele>1131.0</ele>
        <time>2018-05-26T08:47:00.139Z</time>
      </trkpt>
      <trkpt lat="40.73649333" lon="-3.95432667">
        <ele>1131.0</ele>
        <time>2018-05-26T08:47:01.168Z</time>
      </trkpt>
      <trkpt lat="40.73649333" lon="-3.95432667">
        <ele>1131.0</ele>
        <time>2018-05-26T08:47:02.155Z</time>
      </trkpt>
      <trkpt lat="40.73651833" lon="-3.95431833">
        <ele>1132.0</ele>
        <time>2018-05-26T08:47:03.168Z</time>
      </trkpt>
      <trkpt lat="40.73653167" lon="-3.954315">
        <ele>1133.0</ele>
        <time>2018-05-26T08:47:04.159Z</time>
      </trkpt>
      <trkpt lat="40.73653167" lon="-3.954315">
        <ele>1133.0</ele>
        <time>2018-05-26T08:47:05.139Z</time>
      </trkpt>
      <trkpt lat="40.73656" lon="-3.95431167">
        <ele>1134.0</ele>
        <time>2018-05-26T08:47:06.147Z</time>
      </trkpt>
      <trkpt lat="40.73656" lon="-3.95431167">
        <ele>1134.0</ele>
        <time>2018-05-26T08:47:07.172Z</time>
      </trkpt>
      <trkpt lat="40.73658333" lon="-3.954305">
        <ele>1135.0</ele>
        <time>2018-05-26T08:47:08.144Z</time>
      </trkpt>
      <trkpt lat="40.73659167" lon="-3.954295">
        <ele>1135.0</ele>
        <time>2018-05-26T08:47:09.161Z</time>
      </trkpt>
      <trkpt lat="40.7366" lon="-3.95428">
        <ele>1135.0</ele>
        <time>2018-05-26T08:47:10.166Z</time>
      </trkpt>
      <trkpt lat="40.7366" lon="-3.95428">
        <ele>1135.0</ele>
        <time>2018-05-26T08:47:11.154Z</time>
      </trkpt>
      <trkpt lat="40.73662" lon="-3.954255">
        <ele>1136.0</ele>
        <time>2018-05-26T08:47:12.162Z</time>
      </trkpt>
      <trkpt lat="40.73662" lon="-3.954255">
        <ele>1136.0</ele>
        <time>2018-05-26T08:47:13.169Z</time>
      </trkpt>
      <trkpt lat="40.73663833" lon="-3.95422667">
        <ele>1137.0</ele>
        <time>2018-05-26T08:47:14.143Z</time>
      </trkpt>
      <trkpt lat="40.73663833" lon="-3.95422667">
        <ele>1137.0</ele>
        <time>2018-05-26T08:47:15.165Z</time>
      </trkpt>
      <trkpt lat="40.73664667" lon="-3.95418667">
        <ele>1137.0</ele>
        <time>2018-05-26T08:47:16.161Z</time>
      </trkpt>
      <trkpt lat="40.73664667" lon="-3.95418667">
        <ele>1137.0</ele>
        <time>2018-05-26T08:47:17.156Z</time>
      </trkpt>
      <trkpt lat="40.73665833" lon="-3.95414833">
        <ele>1139.0</ele>
        <time>2018-05-26T08:47:18.163Z</time>
      </trkpt>
      <trkpt lat="40.73665833" lon="-3.95414833">
        <ele>1139.0</ele>
        <time>2018-05-26T08:47:19.150Z</time>
      </trkpt>
      <trkpt lat="40.73667" lon="-3.954125">
        <ele>1139.0</ele>
        <time>2018-05-26T08:47:20.171Z</time>
      </trkpt>
      <trkpt lat="40.73667" lon="-3.954125">
        <ele>1139.0</ele>
        <time>2018-05-26T08:47:21.166Z</time>
      </trkpt>
      <trkpt lat="40.73668833" lon="-3.95410167">
        <ele>1140.0</ele>
        <time>2018-05-26T08:47:22.136Z</time>
      </trkpt>
      <trkpt lat="40.73668833" lon="-3.95410167">
        <ele>1140.0</ele>
        <time>2018-05-26T08:47:23.145Z</time>
      </trkpt>
      <trkpt lat="40.73671" lon="-3.95408333">
        <ele>1140.0</ele>
        <time>2018-05-26T08:47:24.137Z</time>
      </trkpt>
      <trkpt lat="40.73671" lon="-3.95408333">
        <ele>1140.0</ele>
        <time>2018-05-26T08:47:25.173Z</time>
      </trkpt>
      <trkpt lat="40.73673667" lon="-3.95407833">
        <ele>1141.0</ele>
        <time>2018-05-26T08:47:26.140Z</time>
      </trkpt>
      <trkpt lat="40.73673667" lon="-3.95407833">
        <ele>1141.0</ele>
        <time>2018-05-26T08:47:27.167Z</time>
      </trkpt>
      <trkpt lat="40.736755" lon="-3.9541">
        <ele>1141.0</ele>
        <time>2018-05-26T08:47:28.139Z</time>
      </trkpt>
      <trkpt lat="40.736755" lon="-3.9541">
        <ele>1141.0</ele>
        <time>2018-05-26T08:47:29.157Z</time>
      </trkpt>
      <trkpt lat="40.736775" lon="-3.95413">
        <ele>1142.0</ele>
        <time>2018-05-26T08:47:30.164Z</time>
      </trkpt>
      <trkpt lat="40.736775" lon="-3.95413">
        <ele>1142.0</ele>
        <time>2018-05-26T08:47:31.151Z</time>
      </trkpt>
      <trkpt lat="40.73678667" lon="-3.95416833">
        <ele>1142.0</ele>
        <time>2018-05-26T08:47:32.145Z</time>
      </trkpt>
      <trkpt lat="40.73678667" lon="-3.95416833">
        <ele>1142.0</ele>
        <time>2018-05-26T08:47:33.158Z</time>
      </trkpt>
      <trkpt lat="40.73678833" lon="-3.95421">
        <ele>1143.0</ele>
        <time>2018-05-26T08:47:34.165Z</time>
      </trkpt>
      <trkpt lat="40.73678833" lon="-3.95421">
        <ele>1143.0</ele>
        <time>2018-05-26T08:47:35.155Z</time>
      </trkpt>
      <trkpt lat="40.73678333" lon="-3.95425333">
        <ele>1143.0</ele>
        <time>2018-05-26T08:47:36.171Z</time>
      </trkpt>
      <trkpt lat="40.73678333" lon="-3.95425333">
        <ele>1143.0</ele>
        <time>2018-05-26T08:47:37.158Z</time>
      </trkpt>
      <trkpt lat="40.73677167" lon="-3.954295">
        <ele>1143.0</ele>
        <time>2018-05-26T08:47:38.164Z</time>
      </trkpt>
      <trkpt lat="40.73677167" lon="-3.954295">
        <ele>1143.0</ele>
        <time>2018-05-26T08:47:39.151Z</time>
      </trkpt>
      <trkpt lat="40.73676333" lon="-3.95433667">
        <ele>1144.0</ele>
        <time>2018-05-26T08:47:40.175Z</time>
      </trkpt>
      <trkpt lat="40.73676333" lon="-3.95433667">
        <ele>1144.0</ele>
        <time>2018-05-26T08:47:41.147Z</time>
      </trkpt>
      <trkpt lat="40.73675333" lon="-3.95437167">
        <ele>1144.0</ele>
        <time>2018-05-26T08:47:42.153Z</time>
      </trkpt>
      <trkpt lat="40.73675333" lon="-3.95437167">
        <ele>1144.0</ele>
        <time>2018-05-26T08:47:43.157Z</time>
      </trkpt>
      <trkpt lat="40.73674" lon="-3.95441">
        <ele>1144.0</ele>
        <time>2018-05-26T08:47:44.171Z</time>
      </trkpt>
      <trkpt lat="40.73673667" lon="-3.95443167">
        <ele>1145.0</ele>
        <time>2018-05-26T08:47:45.164Z</time>
      </trkpt>
      <trkpt lat="40.73673333" lon="-3.95445333">
        <ele>1145.0</ele>
        <time>2018-05-26T08:47:46.152Z</time>
      </trkpt>
      <trkpt lat="40.73673333" lon="-3.95445333">
        <ele>1145.0</ele>
        <time>2018-05-26T08:47:47.142Z</time>
      </trkpt>
      <trkpt lat="40.73672333" lon="-3.95449167">
        <ele>1145.0</ele>
        <time>2018-05-26T08:47:48.151Z</time>
      </trkpt>
      <trkpt lat="40.73672333" lon="-3.95449167">
        <ele>1145.0</ele>
        <time>2018-05-26T08:47:49.139Z</time>
      </trkpt>
      <trkpt lat="40.73671167" lon="-3.95452667">
        <ele>1145.0</ele>
        <time>2018-05-26T08:47:50.151Z</time>
      </trkpt>
      <trkpt lat="40.73670667" lon="-3.95454667">
        <ele>1145.0</ele>
        <time>2018-05-26T08:47:51.169Z</time>
      </trkpt>
      <trkpt lat="40.73670167" lon="-3.954565">
        <ele>1145.0</ele>
        <time>2018-05-26T08:47:52.157Z</time>
      </trkpt>
      <trkpt lat="40.73670167" lon="-3.954565">
        <ele>1145.0</ele>
        <time>2018-05-26T08:47:53.156Z</time>
      </trkpt>
      <trkpt lat="40.73669167" lon="-3.95460667">
        <ele>1146.0</ele>
        <time>2018-05-26T08:47:54.162Z</time>
      </trkpt>
      <trkpt lat="40.73669167" lon="-3.95460667">
        <ele>1146.0</ele>
        <time>2018-05-26T08:47:55.147Z</time>
      </trkpt>
      <trkpt lat="40.73668333" lon="-3.95464833">
        <ele>1146.0</ele>
        <time>2018-05-26T08:47:56.171Z</time>
      </trkpt>
      <trkpt lat="40.73668333" lon="-3.95464833">
        <ele>1146.0</ele>
        <time>2018-05-26T08:47:57.140Z</time>
      </trkpt>
      <trkpt lat="40.736675" lon="-3.95468667">
        <ele>1146.0</ele>
        <time>2018-05-26T08:47:58.146Z</time>
      </trkpt>
      <trkpt lat="40.736675" lon="-3.95468667">
        <ele>1146.0</ele>
        <time>2018-05-26T08:47:59.173Z</time>
      </trkpt>
      <trkpt lat="40.73667333" lon="-3.95472667">
        <ele>1147.0</ele>
        <time>2018-05-26T08:48:00.168Z</time>
      </trkpt>
      <trkpt lat="40.73667333" lon="-3.95472667">
        <ele>1147.0</ele>
        <time>2018-05-26T08:48:01.144Z</time>
      </trkpt>
      <trkpt lat="40.73667" lon="-3.95477">
        <ele>1147.0</ele>
        <time>2018-05-26T08:48:02.154Z</time>
      </trkpt>
      <trkpt lat="40.73667" lon="-3.95477">
        <ele>1147.0</ele>
        <time>2018-05-26T08:48:03.157Z</time>
      </trkpt>
      <trkpt lat="40.73666333" lon="-3.95481167">
        <ele>1148.0</ele>
        <time>2018-05-26T08:48:04.164Z</time>
      </trkpt>
      <trkpt lat="40.73666333" lon="-3.95481167">
        <ele>1148.0</ele>
        <time>2018-05-26T08:48:05.149Z</time>
      </trkpt>
      <trkpt lat="40.73665333" lon="-3.95485">
        <ele>1149.0</ele>
        <time>2018-05-26T08:48:06.171Z</time>
      </trkpt>
      <trkpt lat="40.73665333" lon="-3.95485">
        <ele>1149.0</ele>
        <time>2018-05-26T08:48:07.153Z</time>
      </trkpt>
      <trkpt lat="40.73664167" lon="-3.95489">
        <ele>1149.0</ele>
        <time>2018-05-26T08:48:08.161Z</time>
      </trkpt>
      <trkpt lat="40.73663667" lon="-3.95491167">
        <ele>1149.0</ele>
        <time>2018-05-26T08:48:09.147Z</time>
      </trkpt>
      <trkpt lat="40.73663167" lon="-3.954935">
        <ele>1150.0</ele>
        <time>2018-05-26T08:48:10.156Z</time>
      </trkpt>
      <trkpt lat="40.73663167" lon="-3.954935">
        <ele>1150.0</ele>
        <time>2018-05-26T08:48:11.143Z</time>
      </trkpt>
      <trkpt lat="40.73662167" lon="-3.95498333">
        <ele>1150.0</ele>
        <time>2018-05-26T08:48:12.151Z</time>
      </trkpt>
      <trkpt lat="40.73662167" lon="-3.95498333">
        <ele>1150.0</ele>
        <time>2018-05-26T08:48:13.168Z</time>
      </trkpt>
      <trkpt lat="40.73661" lon="-3.95503">
        <ele>1150.0</ele>
        <time>2018-05-26T08:48:14.145Z</time>
      </trkpt>
      <trkpt lat="40.73661" lon="-3.95503">
        <ele>1150.0</ele>
        <time>2018-05-26T08:48:15.170Z</time>
      </trkpt>
      <trkpt lat="40.73660333" lon="-3.95508167">
        <ele>1151.0</ele>
        <time>2018-05-26T08:48:16.171Z</time>
      </trkpt>
      <trkpt lat="40.73660333" lon="-3.95508167">
        <ele>1151.0</ele>
        <time>2018-05-26T08:48:17.166Z</time>
      </trkpt>
      <trkpt lat="40.73659667" lon="-3.95513667">
        <ele>1151.0</ele>
        <time>2018-05-26T08:48:18.173Z</time>
      </trkpt>
      <trkpt lat="40.736595" lon="-3.95516667">
        <ele>1151.0</ele>
        <time>2018-05-26T08:48:19.162Z</time>
      </trkpt>
      <trkpt lat="40.73659333" lon="-3.95519667">
        <ele>1151.0</ele>
        <time>2018-05-26T08:48:20.157Z</time>
      </trkpt>
      <trkpt lat="40.73659333" lon="-3.95519667">
        <ele>1151.0</ele>
        <time>2018-05-26T08:48:21.144Z</time>
      </trkpt>
      <trkpt lat="40.73658667" lon="-3.95526167">
        <ele>1151.0</ele>
        <time>2018-05-26T08:48:22.138Z</time>
      </trkpt>
      <trkpt lat="40.736585" lon="-3.955295">
        <ele>1152.0</ele>
        <time>2018-05-26T08:48:23.146Z</time>
      </trkpt>
      <trkpt lat="40.736585" lon="-3.955295">
        <ele>1152.0</ele>
        <time>2018-05-26T08:48:24.173Z</time>
      </trkpt>
      <trkpt lat="40.73658" lon="-3.95537167">
        <ele>1152.0</ele>
        <time>2018-05-26T08:48:25.151Z</time>
      </trkpt>
      <trkpt lat="40.73657333" lon="-3.95541333">
        <ele>1152.0</ele>
        <time>2018-05-26T08:48:26.157Z</time>
      </trkpt>
      <trkpt lat="40.73657333" lon="-3.95541333">
        <ele>1152.0</ele>
        <time>2018-05-26T08:48:27.142Z</time>
      </trkpt>
      <trkpt lat="40.73654667" lon="-3.955495">
        <ele>1152.0</ele>
        <time>2018-05-26T08:48:28.171Z</time>
      </trkpt>
      <trkpt lat="40.73654667" lon="-3.955495">
        <ele>1152.0</ele>
        <time>2018-05-26T08:48:29.158Z</time>
      </trkpt>
      <trkpt lat="40.73651" lon="-3.955585">
        <ele>1152.0</ele>
        <time>2018-05-26T08:48:30.164Z</time>
      </trkpt>
      <trkpt lat="40.73651" lon="-3.955585">
        <ele>1152.0</ele>
        <time>2018-05-26T08:48:31.150Z</time>
      </trkpt>
      <trkpt lat="40.73644667" lon="-3.955685">
        <ele>1152.0</ele>
        <time>2018-05-26T08:48:32.142Z</time>
      </trkpt>
      <trkpt lat="40.73640833" lon="-3.95573667">
        <ele>1152.0</ele>
        <time>2018-05-26T08:48:33.147Z</time>
      </trkpt>
      <trkpt lat="40.73640833" lon="-3.95573667">
        <ele>1152.0</ele>
        <time>2018-05-26T08:48:34.174Z</time>
      </trkpt>
      <trkpt lat="40.73631833" lon="-3.95583833">
        <ele>1151.0</ele>
        <time>2018-05-26T08:48:35.151Z</time>
      </trkpt>
      <trkpt lat="40.73627167" lon="-3.95589">
        <ele>1151.0</ele>
        <time>2018-05-26T08:48:36.143Z</time>
      </trkpt>
      <trkpt lat="40.73622333" lon="-3.95594">
        <ele>1151.0</ele>
        <time>2018-05-26T08:48:37.168Z</time>
      </trkpt>
      <trkpt lat="40.73622333" lon="-3.95594">
        <ele>1151.0</ele>
        <time>2018-05-26T08:48:38.156Z</time>
      </trkpt>
      <trkpt lat="40.73613" lon="-3.95605167">
        <ele>1151.0</ele>
        <time>2018-05-26T08:48:39.163Z</time>
      </trkpt>
      <trkpt lat="40.73608333" lon="-3.95610667">
        <ele>1151.0</ele>
        <time>2018-05-26T08:48:40.150Z</time>
      </trkpt>
      <trkpt lat="40.73608333" lon="-3.95610667">
        <ele>1151.0</ele>
        <time>2018-05-26T08:48:41.156Z</time>
      </trkpt>
      <trkpt lat="40.73599667" lon="-3.95621">
        <ele>1151.0</ele>
        <time>2018-05-26T08:48:42.163Z</time>
      </trkpt>
      <trkpt lat="40.73599667" lon="-3.95621">
        <ele>1151.0</ele>
        <time>2018-05-26T08:48:43.138Z</time>
      </trkpt>
      <trkpt lat="40.73592167" lon="-3.956305">
        <ele>1151.0</ele>
        <time>2018-05-26T08:48:44.138Z</time>
      </trkpt>
      <trkpt lat="40.73592167" lon="-3.956305">
        <ele>1151.0</ele>
        <time>2018-05-26T08:48:45.147Z</time>
      </trkpt>
      <trkpt lat="40.73585" lon="-3.95639833">
        <ele>1151.0</ele>
        <time>2018-05-26T08:48:46.154Z</time>
      </trkpt>
      <trkpt lat="40.73585" lon="-3.95639833">
        <ele>1151.0</ele>
        <time>2018-05-26T08:48:47.150Z</time>
      </trkpt>
      <trkpt lat="40.73577167" lon="-3.95649333">
        <ele>1151.0</ele>
        <time>2018-05-26T08:48:48.157Z</time>
      </trkpt>
      <trkpt lat="40.73577167" lon="-3.95649333">
        <ele>1151.0</ele>
        <time>2018-05-26T08:48:49.156Z</time>
      </trkpt>
      <trkpt lat="40.73568833" lon="-3.95660667">
        <ele>1150.0</ele>
        <time>2018-05-26T08:48:50.162Z</time>
      </trkpt>
      <trkpt lat="40.73568833" lon="-3.95660667">
        <ele>1150.0</ele>
        <time>2018-05-26T08:48:51.150Z</time>
      </trkpt>
      <trkpt lat="40.735595" lon="-3.95673">
        <ele>1149.0</ele>
        <time>2018-05-26T08:48:52.170Z</time>
      </trkpt>
      <trkpt lat="40.735595" lon="-3.95673">
        <ele>1149.0</ele>
        <time>2018-05-26T08:48:53.146Z</time>
      </trkpt>
      <trkpt lat="40.73549333" lon="-3.95686333">
        <ele>1148.0</ele>
        <time>2018-05-26T08:48:54.153Z</time>
      </trkpt>
      <trkpt lat="40.73549333" lon="-3.95686333">
        <ele>1148.0</ele>
        <time>2018-05-26T08:48:55.139Z</time>
      </trkpt>
      <trkpt lat="40.73539" lon="-3.957005">
        <ele>1147.0</ele>
        <time>2018-05-26T08:48:56.171Z</time>
      </trkpt>
      <trkpt lat="40.73533667" lon="-3.95708">
        <ele>1146.0</ele>
        <time>2018-05-26T08:48:57.150Z</time>
      </trkpt>
      <trkpt lat="40.73528167" lon="-3.95715833">
        <ele>1146.0</ele>
        <time>2018-05-26T08:48:58.145Z</time>
      </trkpt>
      <trkpt lat="40.73528167" lon="-3.95715833">
        <ele>1146.0</ele>
        <time>2018-05-26T08:48:59.169Z</time>
      </trkpt>
      <trkpt lat="40.73516833" lon="-3.95731667">
        <ele>1145.0</ele>
        <time>2018-05-26T08:49:00.164Z</time>
      </trkpt>
      <trkpt lat="40.73516833" lon="-3.95731667">
        <ele>1145.0</ele>
        <time>2018-05-26T08:49:01.137Z</time>
      </trkpt>
      <trkpt lat="40.735065" lon="-3.95744667">
        <ele>1145.0</ele>
        <time>2018-05-26T08:49:02.144Z</time>
      </trkpt>
      <trkpt lat="40.735065" lon="-3.95744667">
        <ele>1145.0</ele>
        <time>2018-05-26T08:49:03.139Z</time>
      </trkpt>
      <trkpt lat="40.73498" lon="-3.95757167">
        <ele>1145.0</ele>
        <time>2018-05-26T08:49:04.170Z</time>
      </trkpt>
      <trkpt lat="40.73498" lon="-3.95757167">
        <ele>1145.0</ele>
        <time>2018-05-26T08:49:05.154Z</time>
      </trkpt>
      <trkpt lat="40.73490667" lon="-3.95769833">
        <ele>1145.0</ele>
        <time>2018-05-26T08:49:06.161Z</time>
      </trkpt>
      <trkpt lat="40.73490667" lon="-3.95769833">
        <ele>1145.0</ele>
        <time>2018-05-26T08:49:07.154Z</time>
      </trkpt>
      <trkpt lat="40.734845" lon="-3.957825">
        <ele>1146.0</ele>
        <time>2018-05-26T08:49:08.157Z</time>
      </trkpt>
      <trkpt lat="40.734845" lon="-3.957825">
        <ele>1146.0</ele>
        <time>2018-05-26T08:49:09.146Z</time>
      </trkpt>
      <trkpt lat="40.73477833" lon="-3.95794333">
        <ele>1146.0</ele>
        <time>2018-05-26T08:49:10.152Z</time>
      </trkpt>
      <trkpt lat="40.73477833" lon="-3.95794333">
        <ele>1146.0</ele>
        <time>2018-05-26T08:49:11.159Z</time>
      </trkpt>
      <trkpt lat="40.73470667" lon="-3.95806667">
        <ele>1146.0</ele>
        <time>2018-05-26T08:49:12.140Z</time>
      </trkpt>
      <trkpt lat="40.73470667" lon="-3.95806667">
        <ele>1146.0</ele>
        <time>2018-05-26T08:49:13.170Z</time>
      </trkpt>
      <trkpt lat="40.734635" lon="-3.95820333">
        <ele>1146.0</ele>
        <time>2018-05-26T08:49:14.136Z</time>
      </trkpt>
      <trkpt lat="40.73459333" lon="-3.95826833">
        <ele>1146.0</ele>
        <time>2018-05-26T08:49:15.151Z</time>
      </trkpt>
      <trkpt lat="40.73459333" lon="-3.95826833">
        <ele>1146.0</ele>
        <time>2018-05-26T08:49:16.146Z</time>
      </trkpt>
      <trkpt lat="40.73449" lon="-3.958375">
        <ele>1146.0</ele>
        <time>2018-05-26T08:49:17.153Z</time>
      </trkpt>
      <trkpt lat="40.73449" lon="-3.958375">
        <ele>1146.0</ele>
        <time>2018-05-26T08:49:18.138Z</time>
      </trkpt>
      <trkpt lat="40.73436833" lon="-3.95844667">
        <ele>1145.0</ele>
        <time>2018-05-26T08:49:19.137Z</time>
      </trkpt>
      <trkpt lat="40.73436833" lon="-3.95844667">
        <ele>1145.0</ele>
        <time>2018-05-26T08:49:20.170Z</time>
      </trkpt>
      <trkpt lat="40.734235" lon="-3.95849833">
        <ele>1145.0</ele>
        <time>2018-05-26T08:49:21.142Z</time>
      </trkpt>
      <trkpt lat="40.73416833" lon="-3.958525">
        <ele>1145.0</ele>
        <time>2018-05-26T08:49:22.169Z</time>
      </trkpt>
      <trkpt lat="40.73416833" lon="-3.958525">
        <ele>1145.0</ele>
        <time>2018-05-26T08:49:23.164Z</time>
      </trkpt>
      <trkpt lat="40.73403333" lon="-3.95857833">
        <ele>1145.0</ele>
        <time>2018-05-26T08:49:24.157Z</time>
      </trkpt>
      <trkpt lat="40.73403333" lon="-3.95857833">
        <ele>1145.0</ele>
        <time>2018-05-26T08:49:25.143Z</time>
      </trkpt>
      <trkpt lat="40.73389833" lon="-3.958645">
        <ele>1144.0</ele>
        <time>2018-05-26T08:49:26.174Z</time>
      </trkpt>
      <trkpt lat="40.73389833" lon="-3.958645">
        <ele>1144.0</ele>
        <time>2018-05-26T08:49:27.156Z</time>
      </trkpt>
      <trkpt lat="40.73375833" lon="-3.95871">
        <ele>1144.0</ele>
        <time>2018-05-26T08:49:28.163Z</time>
      </trkpt>
      <trkpt lat="40.73375833" lon="-3.95871">
        <ele>1144.0</ele>
        <time>2018-05-26T08:49:29.155Z</time>
      </trkpt>
      <trkpt lat="40.73362833" lon="-3.95877333">
        <ele>1143.0</ele>
        <time>2018-05-26T08:49:30.174Z</time>
      </trkpt>
      <trkpt lat="40.73362833" lon="-3.95877333">
        <ele>1143.0</ele>
        <time>2018-05-26T08:49:31.166Z</time>
      </trkpt>
      <trkpt lat="40.733525" lon="-3.958855">
        <ele>1144.0</ele>
        <time>2018-05-26T08:49:32.173Z</time>
      </trkpt>
      <trkpt lat="40.733525" lon="-3.958855">
        <ele>1144.0</ele>
        <time>2018-05-26T08:49:33.171Z</time>
      </trkpt>
      <trkpt lat="40.73343833" lon="-3.95895167">
        <ele>1144.0</ele>
        <time>2018-05-26T08:49:34.176Z</time>
      </trkpt>
      <trkpt lat="40.73343833" lon="-3.95895167">
        <ele>1144.0</ele>
        <time>2018-05-26T08:49:35.147Z</time>
      </trkpt>
      <trkpt lat="40.73334667" lon="-3.95904">
        <ele>1143.0</ele>
        <time>2018-05-26T08:49:36.153Z</time>
      </trkpt>
      <trkpt lat="40.73334667" lon="-3.95904">
        <ele>1143.0</ele>
        <time>2018-05-26T08:49:37.142Z</time>
      </trkpt>
      <trkpt lat="40.73324333" lon="-3.95912">
        <ele>1142.0</ele>
        <time>2018-05-26T08:49:38.174Z</time>
      </trkpt>
      <trkpt lat="40.73318333" lon="-3.95913833">
        <ele>1141.0</ele>
        <time>2018-05-26T08:49:39.163Z</time>
      </trkpt>
      <trkpt lat="40.73311667" lon="-3.959145">
        <ele>1140.0</ele>
        <time>2018-05-26T08:49:40.148Z</time>
      </trkpt>
      <trkpt lat="40.73311667" lon="-3.959145">
        <ele>1140.0</ele>
        <time>2018-05-26T08:49:41.136Z</time>
      </trkpt>
      <trkpt lat="40.73296667" lon="-3.959125">
        <ele>1138.0</ele>
        <time>2018-05-26T08:49:42.143Z</time>
      </trkpt>
      <trkpt lat="40.73296667" lon="-3.959125">
        <ele>1138.0</ele>
        <time>2018-05-26T08:49:43.170Z</time>
      </trkpt>
      <trkpt lat="40.7328" lon="-3.95907833">
        <ele>1138.0</ele>
        <time>2018-05-26T08:49:44.176Z</time>
      </trkpt>
      <trkpt lat="40.732725" lon="-3.95905833">
        <ele>1138.0</ele>
        <time>2018-05-26T08:49:45.160Z</time>
      </trkpt>
      <trkpt lat="40.732725" lon="-3.95905833">
        <ele>1138.0</ele>
        <time>2018-05-26T08:49:46.147Z</time>
      </trkpt>
      <trkpt lat="40.73261167" lon="-3.95904833">
        <ele>1138.0</ele>
        <time>2018-05-26T08:49:47.153Z</time>
      </trkpt>
      <trkpt lat="40.73257167" lon="-3.959055">
        <ele>1138.0</ele>
        <time>2018-05-26T08:49:48.162Z</time>
      </trkpt>
      <trkpt lat="40.73257167" lon="-3.959055">
        <ele>1138.0</ele>
        <time>2018-05-26T08:49:49.150Z</time>
      </trkpt>
      <trkpt lat="40.73251667" lon="-3.95909667">
        <ele>1137.0</ele>
        <time>2018-05-26T08:49:50.156Z</time>
      </trkpt>
      <trkpt lat="40.73251667" lon="-3.95909667">
        <ele>1137.0</ele>
        <time>2018-05-26T08:49:51.171Z</time>
      </trkpt>
      <trkpt lat="40.73249333" lon="-3.95917">
        <ele>1137.0</ele>
        <time>2018-05-26T08:49:52.139Z</time>
      </trkpt>
      <trkpt lat="40.73249333" lon="-3.95917">
        <ele>1137.0</ele>
        <time>2018-05-26T08:49:53.165Z</time>
      </trkpt>
      <trkpt lat="40.73250167" lon="-3.95926833">
        <ele>1137.0</ele>
        <time>2018-05-26T08:49:54.176Z</time>
      </trkpt>
      <trkpt lat="40.73250167" lon="-3.95926833">
        <ele>1137.0</ele>
        <time>2018-05-26T08:49:55.171Z</time>
      </trkpt>
      <trkpt lat="40.732525" lon="-3.95939833">
        <ele>1136.0</ele>
        <time>2018-05-26T08:49:56.144Z</time>
      </trkpt>
      <trkpt lat="40.732525" lon="-3.95939833">
        <ele>1136.0</ele>
        <time>2018-05-26T08:49:57.166Z</time>
      </trkpt>
      <trkpt lat="40.73254667" lon="-3.95953833">
        <ele>1136.0</ele>
        <time>2018-05-26T08:49:58.140Z</time>
      </trkpt>
      <trkpt lat="40.73254667" lon="-3.95953833">
        <ele>1136.0</ele>
        <time>2018-05-26T08:49:59.142Z</time>
      </trkpt>
      <trkpt lat="40.73256667" lon="-3.95967833">
        <ele>1136.0</ele>
        <time>2018-05-26T08:50:00.163Z</time>
      </trkpt>
      <trkpt lat="40.73256667" lon="-3.95967833">
        <ele>1136.0</ele>
        <time>2018-05-26T08:50:01.163Z</time>
      </trkpt>
      <trkpt lat="40.73258333" lon="-3.959825">
        <ele>1136.0</ele>
        <time>2018-05-26T08:50:02.171Z</time>
      </trkpt>
      <trkpt lat="40.73258333" lon="-3.959825">
        <ele>1136.0</ele>
        <time>2018-05-26T08:50:03.155Z</time>
      </trkpt>
      <trkpt lat="40.7326" lon="-3.959975">
        <ele>1136.0</ele>
        <time>2018-05-26T08:50:04.138Z</time>
      </trkpt>
      <trkpt lat="40.7326" lon="-3.959975">
        <ele>1136.0</ele>
        <time>2018-05-26T08:50:05.148Z</time>
      </trkpt>
      <trkpt lat="40.73261667" lon="-3.96012667">
        <ele>1136.0</ele>
        <time>2018-05-26T08:50:06.154Z</time>
      </trkpt>
      <trkpt lat="40.73261667" lon="-3.96012667">
        <ele>1136.0</ele>
        <time>2018-05-26T08:50:07.142Z</time>
      </trkpt>
      <trkpt lat="40.73263167" lon="-3.96028">
        <ele>1135.0</ele>
        <time>2018-05-26T08:50:08.175Z</time>
      </trkpt>
      <trkpt lat="40.73263167" lon="-3.96028">
        <ele>1135.0</ele>
        <time>2018-05-26T08:50:09.170Z</time>
      </trkpt>
      <trkpt lat="40.73265" lon="-3.96044667">
        <ele>1135.0</ele>
        <time>2018-05-26T08:50:10.145Z</time>
      </trkpt>
      <trkpt lat="40.73265" lon="-3.96044667">
        <ele>1135.0</ele>
        <time>2018-05-26T08:50:11.171Z</time>
      </trkpt>
      <trkpt lat="40.73267167" lon="-3.96062167">
        <ele>1135.0</ele>
        <time>2018-05-26T08:50:12.136Z</time>
      </trkpt>
      <trkpt lat="40.73267167" lon="-3.96062167">
        <ele>1135.0</ele>
        <time>2018-05-26T08:50:13.153Z</time>
      </trkpt>
      <trkpt lat="40.732695" lon="-3.960805">
        <ele>1135.0</ele>
        <time>2018-05-26T08:50:14.202Z</time>
      </trkpt>
      <trkpt lat="40.732695" lon="-3.960805">
        <ele>1135.0</ele>
        <time>2018-05-26T08:50:15.138Z</time>
      </trkpt>
      <trkpt lat="40.73271833" lon="-3.96099333">
        <ele>1134.0</ele>
        <time>2018-05-26T08:50:16.145Z</time>
      </trkpt>
      <trkpt lat="40.73271833" lon="-3.96099333">
        <ele>1134.0</ele>
        <time>2018-05-26T08:50:17.175Z</time>
      </trkpt>
      <trkpt lat="40.73274167" lon="-3.961185">
        <ele>1134.0</ele>
        <time>2018-05-26T08:50:18.158Z</time>
      </trkpt>
      <trkpt lat="40.73275167" lon="-3.96128333">
        <ele>1134.0</ele>
        <time>2018-05-26T08:50:19.158Z</time>
      </trkpt>
      <trkpt lat="40.73275167" lon="-3.96128333">
        <ele>1134.0</ele>
        <time>2018-05-26T08:50:20.163Z</time>
      </trkpt>
      <trkpt lat="40.73277333" lon="-3.961475">
        <ele>1134.0</ele>
        <time>2018-05-26T08:50:21.170Z</time>
      </trkpt>
      <trkpt lat="40.73277333" lon="-3.961475">
        <ele>1134.0</ele>
        <time>2018-05-26T08:50:22.158Z</time>
      </trkpt>
      <trkpt lat="40.73279667" lon="-3.96166833">
        <ele>1134.0</ele>
        <time>2018-05-26T08:50:23.171Z</time>
      </trkpt>
      <trkpt lat="40.73279667" lon="-3.96166833">
        <ele>1134.0</ele>
        <time>2018-05-26T08:50:24.168Z</time>
      </trkpt>
      <trkpt lat="40.73281833" lon="-3.96187">
        <ele>1133.0</ele>
        <time>2018-05-26T08:50:25.139Z</time>
      </trkpt>
      <trkpt lat="40.73281833" lon="-3.96187">
        <ele>1133.0</ele>
        <time>2018-05-26T08:50:26.164Z</time>
      </trkpt>
      <trkpt lat="40.73283833" lon="-3.96207667">
        <ele>1133.0</ele>
        <time>2018-05-26T08:50:27.161Z</time>
      </trkpt>
      <trkpt lat="40.73283833" lon="-3.96207667">
        <ele>1133.0</ele>
        <time>2018-05-26T08:50:28.166Z</time>
      </trkpt>
      <trkpt lat="40.73286167" lon="-3.962295">
        <ele>1133.0</ele>
        <time>2018-05-26T08:50:29.173Z</time>
      </trkpt>
      <trkpt lat="40.73287333" lon="-3.96240667">
        <ele>1133.0</ele>
        <time>2018-05-26T08:50:30.174Z</time>
      </trkpt>
      <trkpt lat="40.73287333" lon="-3.96240667">
        <ele>1133.0</ele>
        <time>2018-05-26T08:50:31.165Z</time>
      </trkpt>
      <trkpt lat="40.73289667" lon="-3.96262667">
        <ele>1133.0</ele>
        <time>2018-05-26T08:50:32.172Z</time>
      </trkpt>
      <trkpt lat="40.73289667" lon="-3.96262667">
        <ele>1133.0</ele>
        <time>2018-05-26T08:50:33.169Z</time>
      </trkpt>
      <trkpt lat="40.73292" lon="-3.962845">
        <ele>1132.0</ele>
        <time>2018-05-26T08:50:34.168Z</time>
      </trkpt>
      <trkpt lat="40.73292" lon="-3.962845">
        <ele>1132.0</ele>
        <time>2018-05-26T08:50:35.161Z</time>
      </trkpt>
      <trkpt lat="40.732945" lon="-3.96306167">
        <ele>1132.0</ele>
        <time>2018-05-26T08:50:36.167Z</time>
      </trkpt>
      <trkpt lat="40.732945" lon="-3.96306167">
        <ele>1132.0</ele>
        <time>2018-05-26T08:50:37.155Z</time>
      </trkpt>
      <trkpt lat="40.73297" lon="-3.96327833">
        <ele>1132.0</ele>
        <time>2018-05-26T08:50:38.151Z</time>
      </trkpt>
      <trkpt lat="40.73298167" lon="-3.96338667">
        <ele>1132.0</ele>
        <time>2018-05-26T08:50:39.149Z</time>
      </trkpt>
      <trkpt lat="40.73299" lon="-3.963495">
        <ele>1132.0</ele>
        <time>2018-05-26T08:50:40.174Z</time>
      </trkpt>
      <trkpt lat="40.73299" lon="-3.963495">
        <ele>1132.0</ele>
        <time>2018-05-26T08:50:41.153Z</time>
      </trkpt>
      <trkpt lat="40.733005" lon="-3.96371167">
        <ele>1132.0</ele>
        <time>2018-05-26T08:50:42.160Z</time>
      </trkpt>
      <trkpt lat="40.733005" lon="-3.96371167">
        <ele>1132.0</ele>
        <time>2018-05-26T08:50:43.146Z</time>
      </trkpt>
      <trkpt lat="40.73300833" lon="-3.96392167">
        <ele>1132.0</ele>
        <time>2018-05-26T08:50:44.161Z</time>
      </trkpt>
      <trkpt lat="40.73300667" lon="-3.964025">
        <ele>1132.0</ele>
        <time>2018-05-26T08:50:45.158Z</time>
      </trkpt>
      <trkpt lat="40.733005" lon="-3.96412667">
        <ele>1132.0</ele>
        <time>2018-05-26T08:50:46.144Z</time>
      </trkpt>
      <trkpt lat="40.733005" lon="-3.96412667">
        <ele>1132.0</ele>
        <time>2018-05-26T08:50:47.152Z</time>
      </trkpt>
      <trkpt lat="40.732995" lon="-3.96433167">
        <ele>1132.0</ele>
        <time>2018-05-26T08:50:48.159Z</time>
      </trkpt>
      <trkpt lat="40.732995" lon="-3.96433167">
        <ele>1132.0</ele>
        <time>2018-05-26T08:50:49.147Z</time>
      </trkpt>
      <trkpt lat="40.73297833" lon="-3.96454167">
        <ele>1131.0</ele>
        <time>2018-05-26T08:50:50.173Z</time>
      </trkpt>
      <trkpt lat="40.73297833" lon="-3.96454167">
        <ele>1131.0</ele>
        <time>2018-05-26T08:50:51.156Z</time>
      </trkpt>
      <trkpt lat="40.73295667" lon="-3.96475">
        <ele>1131.0</ele>
        <time>2018-05-26T08:50:52.163Z</time>
      </trkpt>
      <trkpt lat="40.73295667" lon="-3.96475">
        <ele>1131.0</ele>
        <time>2018-05-26T08:50:53.164Z</time>
      </trkpt>
      <trkpt lat="40.732925" lon="-3.96495667">
        <ele>1131.0</ele>
        <time>2018-05-26T08:50:54.161Z</time>
      </trkpt>
      <trkpt lat="40.73290667" lon="-3.96505833">
        <ele>1131.0</ele>
        <time>2018-05-26T08:50:55.149Z</time>
      </trkpt>
      <trkpt lat="40.73290667" lon="-3.96505833">
        <ele>1131.0</ele>
        <time>2018-05-26T08:50:56.140Z</time>
      </trkpt>
      <trkpt lat="40.73287" lon="-3.96526">
        <ele>1130.0</ele>
        <time>2018-05-26T08:50:57.149Z</time>
      </trkpt>
      <trkpt lat="40.73285" lon="-3.96536">
        <ele>1130.0</ele>
        <time>2018-05-26T08:50:58.175Z</time>
      </trkpt>
      <trkpt lat="40.73283" lon="-3.96546167">
        <ele>1130.0</ele>
        <time>2018-05-26T08:50:59.150Z</time>
      </trkpt>
      <trkpt lat="40.73283" lon="-3.96546167">
        <ele>1130.0</ele>
        <time>2018-05-26T08:51:00.162Z</time>
      </trkpt>
      <trkpt lat="40.73279" lon="-3.96567">
        <ele>1129.0</ele>
        <time>2018-05-26T08:51:01.140Z</time>
      </trkpt>
      <trkpt lat="40.73279" lon="-3.96567">
        <ele>1129.0</ele>
        <time>2018-05-26T08:51:02.166Z</time>
      </trkpt>
      <trkpt lat="40.732745" lon="-3.96589">
        <ele>1129.0</ele>
        <time>2018-05-26T08:51:03.174Z</time>
      </trkpt>
      <trkpt lat="40.73272167" lon="-3.96600333">
        <ele>1128.0</ele>
        <time>2018-05-26T08:51:04.174Z</time>
      </trkpt>
      <trkpt lat="40.73272167" lon="-3.96600333">
        <ele>1128.0</ele>
        <time>2018-05-26T08:51:05.164Z</time>
      </trkpt>
      <trkpt lat="40.73266667" lon="-3.96624">
        <ele>1128.0</ele>
        <time>2018-05-26T08:51:06.171Z</time>
      </trkpt>
      <trkpt lat="40.73266667" lon="-3.96624">
        <ele>1128.0</ele>
        <time>2018-05-26T08:51:07.157Z</time>
      </trkpt>
      <trkpt lat="40.73260833" lon="-3.96648333">
        <ele>1127.0</ele>
        <time>2018-05-26T08:51:08.174Z</time>
      </trkpt>
      <trkpt lat="40.73260833" lon="-3.96648333">
        <ele>1127.0</ele>
        <time>2018-05-26T08:51:09.167Z</time>
      </trkpt>
      <trkpt lat="40.73254667" lon="-3.96673167">
        <ele>1126.0</ele>
        <time>2018-05-26T08:51:10.173Z</time>
      </trkpt>
      <trkpt lat="40.73254667" lon="-3.96673167">
        <ele>1126.0</ele>
        <time>2018-05-26T08:51:11.153Z</time>
      </trkpt>
      <trkpt lat="40.73248667" lon="-3.96698667">
        <ele>1125.0</ele>
        <time>2018-05-26T08:51:12.163Z</time>
      </trkpt>
      <trkpt lat="40.73248667" lon="-3.96698667">
        <ele>1125.0</ele>
        <time>2018-05-26T08:51:13.157Z</time>
      </trkpt>
      <trkpt lat="40.732425" lon="-3.96722833">
        <ele>1124.0</ele>
        <time>2018-05-26T08:51:14.166Z</time>
      </trkpt>
      <trkpt lat="40.732425" lon="-3.96722833">
        <ele>1124.0</ele>
        <time>2018-05-26T08:51:15.155Z</time>
      </trkpt>
      <trkpt lat="40.73236" lon="-3.96747333">
        <ele>1123.0</ele>
        <time>2018-05-26T08:51:16.173Z</time>
      </trkpt>
      <trkpt lat="40.73236" lon="-3.96747333">
        <ele>1123.0</ele>
        <time>2018-05-26T08:51:17.146Z</time>
      </trkpt>
      <trkpt lat="40.73228833" lon="-3.96772833">
        <ele>1122.0</ele>
        <time>2018-05-26T08:51:18.153Z</time>
      </trkpt>
      <trkpt lat="40.73228833" lon="-3.96772833">
        <ele>1122.0</ele>
        <time>2018-05-26T08:51:19.147Z</time>
      </trkpt>
      <trkpt lat="40.73221667" lon="-3.96799333">
        <ele>1121.0</ele>
        <time>2018-05-26T08:51:20.172Z</time>
      </trkpt>
      <trkpt lat="40.73221667" lon="-3.96799333">
        <ele>1121.0</ele>
        <time>2018-05-26T08:51:21.154Z</time>
      </trkpt>
      <trkpt lat="40.73214167" lon="-3.96826333">
        <ele>1119.0</ele>
        <time>2018-05-26T08:51:22.161Z</time>
      </trkpt>
      <trkpt lat="40.73214167" lon="-3.96826333">
        <ele>1119.0</ele>
        <time>2018-05-26T08:51:23.155Z</time>
      </trkpt>
      <trkpt lat="40.73206333" lon="-3.96853833">
        <ele>1118.0</ele>
        <time>2018-05-26T08:51:24.142Z</time>
      </trkpt>
      <trkpt lat="40.73206333" lon="-3.96853833">
        <ele>1118.0</ele>
        <time>2018-05-26T08:51:25.166Z</time>
      </trkpt>
      <trkpt lat="40.73198667" lon="-3.96882167">
        <ele>1117.0</ele>
        <time>2018-05-26T08:51:26.172Z</time>
      </trkpt>
      <trkpt lat="40.73198667" lon="-3.96882167">
        <ele>1117.0</ele>
        <time>2018-05-26T08:51:27.152Z</time>
      </trkpt>
      <trkpt lat="40.731905" lon="-3.96910667">
        <ele>1116.0</ele>
        <time>2018-05-26T08:51:28.172Z</time>
      </trkpt>
      <trkpt lat="40.731905" lon="-3.96910667">
        <ele>1116.0</ele>
        <time>2018-05-26T08:51:29.147Z</time>
      </trkpt>
      <trkpt lat="40.73181" lon="-3.96939333">
        <ele>1115.0</ele>
        <time>2018-05-26T08:51:30.153Z</time>
      </trkpt>
      <trkpt lat="40.73181" lon="-3.96939333">
        <ele>1115.0</ele>
        <time>2018-05-26T08:51:31.145Z</time>
      </trkpt>
      <trkpt lat="40.73168667" lon="-3.96966167">
        <ele>1114.0</ele>
        <time>2018-05-26T08:51:32.137Z</time>
      </trkpt>
      <trkpt lat="40.73161333" lon="-3.96979">
        <ele>1114.0</ele>
        <time>2018-05-26T08:51:33.140Z</time>
      </trkpt>
      <trkpt lat="40.73161333" lon="-3.96979">
        <ele>1114.0</ele>
        <time>2018-05-26T08:51:34.169Z</time>
      </trkpt>
      <trkpt lat="40.73145" lon="-3.970025">
        <ele>1113.0</ele>
        <time>2018-05-26T08:51:35.150Z</time>
      </trkpt>
      <trkpt lat="40.73135833" lon="-3.97013333">
        <ele>1112.0</ele>
        <time>2018-05-26T08:51:36.171Z</time>
      </trkpt>
      <trkpt lat="40.73135833" lon="-3.97013333">
        <ele>1112.0</ele>
        <time>2018-05-26T08:51:37.160Z</time>
      </trkpt>
      <trkpt lat="40.73115" lon="-3.97033167">
        <ele>1111.0</ele>
        <time>2018-05-26T08:51:38.140Z</time>
      </trkpt>
      <trkpt lat="40.73104" lon="-3.97042167">
        <ele>1111.0</ele>
        <time>2018-05-26T08:51:39.169Z</time>
      </trkpt>
      <trkpt lat="40.73093167" lon="-3.970515">
        <ele>1111.0</ele>
        <time>2018-05-26T08:51:40.142Z</time>
      </trkpt>
      <trkpt lat="40.73093167" lon="-3.970515">
        <ele>1111.0</ele>
        <time>2018-05-26T08:51:41.169Z</time>
      </trkpt>
      <trkpt lat="40.73071833" lon="-3.97068833">
        <ele>1110.0</ele>
        <time>2018-05-26T08:51:42.136Z</time>
      </trkpt>
      <trkpt lat="40.73071833" lon="-3.97068833">
        <ele>1110.0</ele>
        <time>2018-05-26T08:51:43.165Z</time>
      </trkpt>
      <trkpt lat="40.730515" lon="-3.970855">
        <ele>1109.0</ele>
        <time>2018-05-26T08:51:44.170Z</time>
      </trkpt>
      <trkpt lat="40.730515" lon="-3.970855">
        <ele>1109.0</ele>
        <time>2018-05-26T08:51:45.145Z</time>
      </trkpt>
      <trkpt lat="40.73032833" lon="-3.97103">
        <ele>1108.0</ele>
        <time>2018-05-26T08:51:46.152Z</time>
      </trkpt>
      <trkpt lat="40.73032833" lon="-3.97103">
        <ele>1108.0</ele>
        <time>2018-05-26T08:51:47.171Z</time>
      </trkpt>
      <trkpt lat="40.73016833" lon="-3.971245">
        <ele>1107.0</ele>
        <time>2018-05-26T08:51:48.140Z</time>
      </trkpt>
      <trkpt lat="40.73016833" lon="-3.971245">
        <ele>1107.0</ele>
        <time>2018-05-26T08:51:49.157Z</time>
      </trkpt>
      <trkpt lat="40.73004333" lon="-3.971495">
        <ele>1105.0</ele>
        <time>2018-05-26T08:51:50.163Z</time>
      </trkpt>
      <trkpt lat="40.73004333" lon="-3.971495">
        <ele>1105.0</ele>
        <time>2018-05-26T08:51:51.143Z</time>
      </trkpt>
      <trkpt lat="40.72995167" lon="-3.971765">
        <ele>1104.0</ele>
        <time>2018-05-26T08:51:52.172Z</time>
      </trkpt>
      <trkpt lat="40.72995167" lon="-3.971765">
        <ele>1104.0</ele>
        <time>2018-05-26T08:51:53.136Z</time>
      </trkpt>
      <trkpt lat="40.72989" lon="-3.97206">
        <ele>1103.0</ele>
        <time>2018-05-26T08:51:54.143Z</time>
      </trkpt>
      <trkpt lat="40.72989" lon="-3.97206">
        <ele>1103.0</ele>
        <time>2018-05-26T08:51:55.152Z</time>
      </trkpt>
      <trkpt lat="40.72987167" lon="-3.97236833">
        <ele>1102.0</ele>
        <time>2018-05-26T08:51:56.161Z</time>
      </trkpt>
      <trkpt lat="40.72987167" lon="-3.97236833">
        <ele>1102.0</ele>
        <time>2018-05-26T08:51:57.139Z</time>
      </trkpt>
      <trkpt lat="40.72986833" lon="-3.97267667">
        <ele>1101.0</ele>
        <time>2018-05-26T08:51:58.147Z</time>
      </trkpt>
      <trkpt lat="40.72986833" lon="-3.97267667">
        <ele>1101.0</ele>
        <time>2018-05-26T08:51:59.173Z</time>
      </trkpt>
      <trkpt lat="40.72987167" lon="-3.97297833">
        <ele>1100.0</ele>
        <time>2018-05-26T08:52:00.141Z</time>
      </trkpt>
      <trkpt lat="40.72987167" lon="-3.97297833">
        <ele>1100.0</ele>
        <time>2018-05-26T08:52:01.159Z</time>
      </trkpt>
      <trkpt lat="40.72986667" lon="-3.97326167">
        <ele>1100.0</ele>
        <time>2018-05-26T08:52:02.168Z</time>
      </trkpt>
      <trkpt lat="40.72986667" lon="-3.97326167">
        <ele>1100.0</ele>
        <time>2018-05-26T08:52:03.157Z</time>
      </trkpt>
      <trkpt lat="40.72982667" lon="-3.97351833">
        <ele>1099.0</ele>
        <time>2018-05-26T08:52:04.167Z</time>
      </trkpt>
      <trkpt lat="40.72982667" lon="-3.97351833">
        <ele>1099.0</ele>
        <time>2018-05-26T08:52:05.160Z</time>
      </trkpt>
      <trkpt lat="40.729765" lon="-3.973755">
        <ele>1098.0</ele>
        <time>2018-05-26T08:52:06.167Z</time>
      </trkpt>
      <trkpt lat="40.729765" lon="-3.973755">
        <ele>1098.0</ele>
        <time>2018-05-26T08:52:07.157Z</time>
      </trkpt>
      <trkpt lat="40.729685" lon="-3.97397833">
        <ele>1098.0</ele>
        <time>2018-05-26T08:52:08.177Z</time>
      </trkpt>
      <trkpt lat="40.72963667" lon="-3.97408667">
        <ele>1098.0</ele>
        <time>2018-05-26T08:52:09.167Z</time>
      </trkpt>
      <trkpt lat="40.72963667" lon="-3.97408667">
        <ele>1098.0</ele>
        <time>2018-05-26T08:52:10.155Z</time>
      </trkpt>
      <trkpt lat="40.72953333" lon="-3.97428833">
        <ele>1099.0</ele>
        <time>2018-05-26T08:52:11.165Z</time>
      </trkpt>
      <trkpt lat="40.72953333" lon="-3.97428833">
        <ele>1099.0</ele>
        <time>2018-05-26T08:52:12.154Z</time>
      </trkpt>
      <trkpt lat="40.72943333" lon="-3.97448167">
        <ele>1099.0</ele>
        <time>2018-05-26T08:52:13.164Z</time>
      </trkpt>
      <trkpt lat="40.72943333" lon="-3.97448167">
        <ele>1099.0</ele>
        <time>2018-05-26T08:52:14.175Z</time>
      </trkpt>
      <trkpt lat="40.72933333" lon="-3.97468167">
        <ele>1099.0</ele>
        <time>2018-05-26T08:52:15.171Z</time>
      </trkpt>
      <trkpt lat="40.72933333" lon="-3.97468167">
        <ele>1099.0</ele>
        <time>2018-05-26T08:52:16.168Z</time>
      </trkpt>
      <trkpt lat="40.72924" lon="-3.97490167">
        <ele>1099.0</ele>
        <time>2018-05-26T08:52:17.175Z</time>
      </trkpt>
      <trkpt lat="40.72924" lon="-3.97490167">
        <ele>1099.0</ele>
        <time>2018-05-26T08:52:18.156Z</time>
      </trkpt>
      <trkpt lat="40.72916667" lon="-3.97513667">
        <ele>1099.0</ele>
        <time>2018-05-26T08:52:19.171Z</time>
      </trkpt>
      <trkpt lat="40.72916667" lon="-3.97513667">
        <ele>1099.0</ele>
        <time>2018-05-26T08:52:20.137Z</time>
      </trkpt>
      <trkpt lat="40.729115" lon="-3.97538167">
        <ele>1099.0</ele>
        <time>2018-05-26T08:52:21.144Z</time>
      </trkpt>
      <trkpt lat="40.72909333" lon="-3.97550667">
        <ele>1099.0</ele>
        <time>2018-05-26T08:52:22.176Z</time>
      </trkpt>
      <trkpt lat="40.72909333" lon="-3.97550667">
        <ele>1099.0</ele>
        <time>2018-05-26T08:52:23.170Z</time>
      </trkpt>
      <trkpt lat="40.72906" lon="-3.97575333">
        <ele>1099.0</ele>
        <time>2018-05-26T08:52:24.147Z</time>
      </trkpt>
      <trkpt lat="40.72906" lon="-3.97575333">
        <ele>1099.0</ele>
        <time>2018-05-26T08:52:25.144Z</time>
      </trkpt>
      <trkpt lat="40.72902667" lon="-3.97598667">
        <ele>1100.0</ele>
        <time>2018-05-26T08:52:26.152Z</time>
      </trkpt>
      <trkpt lat="40.72900833" lon="-3.97609167">
        <ele>1100.0</ele>
        <time>2018-05-26T08:52:27.144Z</time>
      </trkpt>
      <trkpt lat="40.72900833" lon="-3.97609167">
        <ele>1100.0</ele>
        <time>2018-05-26T08:52:28.169Z</time>
      </trkpt>
      <trkpt lat="40.72898667" lon="-3.9763">
        <ele>1100.0</ele>
        <time>2018-05-26T08:52:29.154Z</time>
      </trkpt>
      <trkpt lat="40.72898667" lon="-3.9763">
        <ele>1100.0</ele>
        <time>2018-05-26T08:52:30.158Z</time>
      </trkpt>
      <trkpt lat="40.72896333" lon="-3.97650833">
        <ele>1102.0</ele>
        <time>2018-05-26T08:52:31.172Z</time>
      </trkpt>
      <trkpt lat="40.72896333" lon="-3.97650833">
        <ele>1102.0</ele>
        <time>2018-05-26T08:52:32.155Z</time>
      </trkpt>
      <trkpt lat="40.72893333" lon="-3.9767">
        <ele>1104.0</ele>
        <time>2018-05-26T08:52:33.144Z</time>
      </trkpt>
      <trkpt lat="40.72893333" lon="-3.9767">
        <ele>1104.0</ele>
        <time>2018-05-26T08:52:34.141Z</time>
      </trkpt>
      <trkpt lat="40.72890167" lon="-3.97690167">
        <ele>1104.0</ele>
        <time>2018-05-26T08:52:35.148Z</time>
      </trkpt>
      <trkpt lat="40.72888667" lon="-3.977005">
        <ele>1104.0</ele>
        <time>2018-05-26T08:52:36.171Z</time>
      </trkpt>
      <trkpt lat="40.72887333" lon="-3.977105">
        <ele>1104.0</ele>
        <time>2018-05-26T08:52:37.146Z</time>
      </trkpt>
      <trkpt lat="40.72887333" lon="-3.977105">
        <ele>1104.0</ele>
        <time>2018-05-26T08:52:38.164Z</time>
      </trkpt>
      <trkpt lat="40.72885" lon="-3.97727167">
        <ele>1105.0</ele>
        <time>2018-05-26T08:52:39.173Z</time>
      </trkpt>
      <trkpt lat="40.72883833" lon="-3.97734167">
        <ele>1105.0</ele>
        <time>2018-05-26T08:52:40.160Z</time>
      </trkpt>
      <trkpt lat="40.72883833" lon="-3.97734167">
        <ele>1105.0</ele>
        <time>2018-05-26T08:52:41.147Z</time>
      </trkpt>
      <trkpt lat="40.728815" lon="-3.97750333">
        <ele>1106.0</ele>
        <time>2018-05-26T08:52:42.154Z</time>
      </trkpt>
      <trkpt lat="40.728815" lon="-3.97750333">
        <ele>1106.0</ele>
        <time>2018-05-26T08:52:43.166Z</time>
      </trkpt>
      <trkpt lat="40.72878667" lon="-3.97768167">
        <ele>1106.0</ele>
        <time>2018-05-26T08:52:44.172Z</time>
      </trkpt>
      <trkpt lat="40.72878667" lon="-3.97768167">
        <ele>1106.0</ele>
        <time>2018-05-26T08:52:45.161Z</time>
      </trkpt>
      <trkpt lat="40.72876333" lon="-3.97786167">
        <ele>1106.0</ele>
        <time>2018-05-26T08:52:46.140Z</time>
      </trkpt>
      <trkpt lat="40.72876333" lon="-3.97786167">
        <ele>1106.0</ele>
        <time>2018-05-26T08:52:47.172Z</time>
      </trkpt>
      <trkpt lat="40.728745" lon="-3.97803333">
        <ele>1106.0</ele>
        <time>2018-05-26T08:52:48.138Z</time>
      </trkpt>
      <trkpt lat="40.728735" lon="-3.97811667">
        <ele>1106.0</ele>
        <time>2018-05-26T08:52:49.150Z</time>
      </trkpt>
      <trkpt lat="40.728735" lon="-3.97811667">
        <ele>1106.0</ele>
        <time>2018-05-26T08:52:50.157Z</time>
      </trkpt>
      <trkpt lat="40.728745" lon="-3.97827333">
        <ele>1106.0</ele>
        <time>2018-05-26T08:52:51.164Z</time>
      </trkpt>
      <trkpt lat="40.728745" lon="-3.97827333">
        <ele>1106.0</ele>
        <time>2018-05-26T08:52:52.174Z</time>
      </trkpt>
      <trkpt lat="40.72882667" lon="-3.97838667">
        <ele>1106.0</ele>
        <time>2018-05-26T08:52:53.164Z</time>
      </trkpt>
      <trkpt lat="40.72882667" lon="-3.97838667">
        <ele>1106.0</ele>
        <time>2018-05-26T08:52:54.168Z</time>
      </trkpt>
      <trkpt lat="40.728925" lon="-3.97844">
        <ele>1106.0</ele>
        <time>2018-05-26T08:52:55.141Z</time>
      </trkpt>
      <trkpt lat="40.728925" lon="-3.97844">
        <ele>1106.0</ele>
        <time>2018-05-26T08:52:56.162Z</time>
      </trkpt>
      <trkpt lat="40.72901333" lon="-3.97848">
        <ele>1106.0</ele>
        <time>2018-05-26T08:52:57.136Z</time>
      </trkpt>
      <trkpt lat="40.729055" lon="-3.97849833">
        <ele>1106.0</ele>
        <time>2018-05-26T08:52:58.175Z</time>
      </trkpt>
      <trkpt lat="40.729055" lon="-3.97849833">
        <ele>1106.0</ele>
        <time>2018-05-26T08:52:59.161Z</time>
      </trkpt>
      <trkpt lat="40.72913833" lon="-3.97853">
        <ele>1106.0</ele>
        <time>2018-05-26T08:53:00.148Z</time>
      </trkpt>
      <trkpt lat="40.72913833" lon="-3.97853">
        <ele>1106.0</ele>
        <time>2018-05-26T08:53:01.164Z</time>
      </trkpt>
      <trkpt lat="40.72922" lon="-3.97855833">
        <ele>1107.0</ele>
        <time>2018-05-26T08:53:02.171Z</time>
      </trkpt>
      <trkpt lat="40.72926" lon="-3.97857667">
        <ele>1107.0</ele>
        <time>2018-05-26T08:53:03.166Z</time>
      </trkpt>
      <trkpt lat="40.72926" lon="-3.97857667">
        <ele>1107.0</ele>
        <time>2018-05-26T08:53:04.152Z</time>
      </trkpt>
      <trkpt lat="40.72933833" lon="-3.97861167">
        <ele>1107.0</ele>
        <time>2018-05-26T08:53:05.144Z</time>
      </trkpt>
      <trkpt lat="40.72933833" lon="-3.97861167">
        <ele>1107.0</ele>
        <time>2018-05-26T08:53:06.169Z</time>
      </trkpt>
      <trkpt lat="40.72942" lon="-3.97864833">
        <ele>1108.0</ele>
        <time>2018-05-26T08:53:07.144Z</time>
      </trkpt>
      <trkpt lat="40.72942" lon="-3.97864833">
        <ele>1108.0</ele>
        <time>2018-05-26T08:53:08.163Z</time>
      </trkpt>
      <trkpt lat="40.72949833" lon="-3.97868833">
        <ele>1108.0</ele>
        <time>2018-05-26T08:53:09.171Z</time>
      </trkpt>
      <trkpt lat="40.72949833" lon="-3.97868833">
        <ele>1108.0</ele>
        <time>2018-05-26T08:53:10.157Z</time>
      </trkpt>
      <trkpt lat="40.72957333" lon="-3.978725">
        <ele>1108.0</ele>
        <time>2018-05-26T08:53:11.164Z</time>
      </trkpt>
      <trkpt lat="40.72957333" lon="-3.978725">
        <ele>1108.0</ele>
        <time>2018-05-26T08:53:12.151Z</time>
      </trkpt>
      <trkpt lat="40.72964833" lon="-3.978765">
        <ele>1109.0</ele>
        <time>2018-05-26T08:53:13.141Z</time>
      </trkpt>
      <trkpt lat="40.72964833" lon="-3.978765">
        <ele>1109.0</ele>
        <time>2018-05-26T08:53:14.145Z</time>
      </trkpt>
      <trkpt lat="40.72972333" lon="-3.9788">
        <ele>1110.0</ele>
        <time>2018-05-26T08:53:15.153Z</time>
      </trkpt>
      <trkpt lat="40.72976" lon="-3.97881833">
        <ele>1110.0</ele>
        <time>2018-05-26T08:53:16.142Z</time>
      </trkpt>
      <trkpt lat="40.72976" lon="-3.97881833">
        <ele>1110.0</ele>
        <time>2018-05-26T08:53:17.167Z</time>
      </trkpt>
      <trkpt lat="40.72983" lon="-3.978855">
        <ele>1110.0</ele>
        <time>2018-05-26T08:53:18.175Z</time>
      </trkpt>
      <trkpt lat="40.72983" lon="-3.978855">
        <ele>1110.0</ele>
        <time>2018-05-26T08:53:19.162Z</time>
      </trkpt>
      <trkpt lat="40.729895" lon="-3.97889333">
        <ele>1111.0</ele>
        <time>2018-05-26T08:53:20.176Z</time>
      </trkpt>
      <trkpt lat="40.729895" lon="-3.97889333">
        <ele>1111.0</ele>
        <time>2018-05-26T08:53:21.146Z</time>
      </trkpt>
      <trkpt lat="40.729955" lon="-3.978925">
        <ele>1112.0</ele>
        <time>2018-05-26T08:53:22.153Z</time>
      </trkpt>
      <trkpt lat="40.729955" lon="-3.978925">
        <ele>1112.0</ele>
        <time>2018-05-26T08:53:23.148Z</time>
      </trkpt>
      <trkpt lat="40.73001167" lon="-3.97895833">
        <ele>1112.0</ele>
        <time>2018-05-26T08:53:24.175Z</time>
      </trkpt>
      <trkpt lat="40.73001167" lon="-3.97895833">
        <ele>1112.0</ele>
        <time>2018-05-26T08:53:25.152Z</time>
      </trkpt>
      <trkpt lat="40.73007" lon="-3.978985">
        <ele>1113.0</ele>
        <time>2018-05-26T08:53:26.158Z</time>
      </trkpt>
      <trkpt lat="40.73007" lon="-3.978985">
        <ele>1113.0</ele>
        <time>2018-05-26T08:53:27.140Z</time>
      </trkpt>
      <trkpt lat="40.73013" lon="-3.97901">
        <ele>1113.0</ele>
        <time>2018-05-26T08:53:28.164Z</time>
      </trkpt>
      <trkpt lat="40.73013" lon="-3.97901">
        <ele>1113.0</ele>
        <time>2018-05-26T08:53:29.166Z</time>
      </trkpt>
      <trkpt lat="40.73018833" lon="-3.97904">
        <ele>1114.0</ele>
        <time>2018-05-26T08:53:30.172Z</time>
      </trkpt>
      <trkpt lat="40.73018833" lon="-3.97904">
        <ele>1114.0</ele>
        <time>2018-05-26T08:53:31.156Z</time>
      </trkpt>
      <trkpt lat="40.73024667" lon="-3.979065">
        <ele>1115.0</ele>
        <time>2018-05-26T08:53:32.140Z</time>
      </trkpt>
      <trkpt lat="40.73024667" lon="-3.979065">
        <ele>1115.0</ele>
        <time>2018-05-26T08:53:33.161Z</time>
      </trkpt>
      <trkpt lat="40.73030167" lon="-3.97909333">
        <ele>1115.0</ele>
        <time>2018-05-26T08:53:34.167Z</time>
      </trkpt>
      <trkpt lat="40.73030167" lon="-3.97909333">
        <ele>1115.0</ele>
        <time>2018-05-26T08:53:35.154Z</time>
      </trkpt>
      <trkpt lat="40.73035667" lon="-3.97912">
        <ele>1116.0</ele>
        <time>2018-05-26T08:53:36.171Z</time>
      </trkpt>
      <trkpt lat="40.73035667" lon="-3.97912">
        <ele>1116.0</ele>
        <time>2018-05-26T08:53:37.166Z</time>
      </trkpt>
      <trkpt lat="40.73041167" lon="-3.97914667">
        <ele>1116.0</ele>
        <time>2018-05-26T08:53:38.173Z</time>
      </trkpt>
      <trkpt lat="40.73041167" lon="-3.97914667">
        <ele>1116.0</ele>
        <time>2018-05-26T08:53:39.150Z</time>
      </trkpt>
      <trkpt lat="40.730465" lon="-3.97917333">
        <ele>1117.0</ele>
        <time>2018-05-26T08:53:40.175Z</time>
      </trkpt>
      <trkpt lat="40.730465" lon="-3.97917333">
        <ele>1117.0</ele>
        <time>2018-05-26T08:53:41.154Z</time>
      </trkpt>
      <trkpt lat="40.73052" lon="-3.9792">
        <ele>1117.0</ele>
        <time>2018-05-26T08:53:42.161Z</time>
      </trkpt>
      <trkpt lat="40.73052" lon="-3.9792">
        <ele>1117.0</ele>
        <time>2018-05-26T08:53:43.156Z</time>
      </trkpt>
      <trkpt lat="40.73057667" lon="-3.97922333">
        <ele>1118.0</ele>
        <time>2018-05-26T08:53:44.170Z</time>
      </trkpt>
      <trkpt lat="40.73057667" lon="-3.97922333">
        <ele>1118.0</ele>
        <time>2018-05-26T08:53:45.168Z</time>
      </trkpt>
      <trkpt lat="40.73063167" lon="-3.979245">
        <ele>1119.0</ele>
        <time>2018-05-26T08:53:46.174Z</time>
      </trkpt>
      <trkpt lat="40.73063167" lon="-3.979245">
        <ele>1119.0</ele>
        <time>2018-05-26T08:53:47.161Z</time>
      </trkpt>
      <trkpt lat="40.73068333" lon="-3.97926667">
        <ele>1120.0</ele>
        <time>2018-05-26T08:53:48.171Z</time>
      </trkpt>
      <trkpt lat="40.73068333" lon="-3.97926667">
        <ele>1120.0</ele>
        <time>2018-05-26T08:53:49.166Z</time>
      </trkpt>
      <trkpt lat="40.73073333" lon="-3.97928667">
        <ele>1120.0</ele>
        <time>2018-05-26T08:53:50.173Z</time>
      </trkpt>
      <trkpt lat="40.73073333" lon="-3.97928667">
        <ele>1120.0</ele>
        <time>2018-05-26T08:53:51.162Z</time>
      </trkpt>
      <trkpt lat="40.730785" lon="-3.97931">
        <ele>1121.0</ele>
        <time>2018-05-26T08:53:52.139Z</time>
      </trkpt>
      <trkpt lat="40.730785" lon="-3.97931">
        <ele>1121.0</ele>
        <time>2018-05-26T08:53:53.146Z</time>
      </trkpt>
      <trkpt lat="40.73082833" lon="-3.979325">
        <ele>1121.0</ele>
        <time>2018-05-26T08:53:54.153Z</time>
      </trkpt>
      <trkpt lat="40.73085" lon="-3.979335">
        <ele>1121.0</ele>
        <time>2018-05-26T08:53:55.160Z</time>
      </trkpt>
      <trkpt lat="40.73085" lon="-3.979335">
        <ele>1121.0</ele>
        <time>2018-05-26T08:53:56.146Z</time>
      </trkpt>
      <trkpt lat="40.73089167" lon="-3.979355">
        <ele>1122.0</ele>
        <time>2018-05-26T08:53:57.153Z</time>
      </trkpt>
      <trkpt lat="40.73089167" lon="-3.979355">
        <ele>1122.0</ele>
        <time>2018-05-26T08:53:58.144Z</time>
      </trkpt>
      <trkpt lat="40.730935" lon="-3.97936833">
        <ele>1123.0</ele>
        <time>2018-05-26T08:53:59.172Z</time>
      </trkpt>
      <trkpt lat="40.730935" lon="-3.97936833">
        <ele>1123.0</ele>
        <time>2018-05-26T08:54:00.166Z</time>
      </trkpt>
      <trkpt lat="40.73097167" lon="-3.97938">
        <ele>1123.0</ele>
        <time>2018-05-26T08:54:01.164Z</time>
      </trkpt>
      <trkpt lat="40.73097167" lon="-3.97938">
        <ele>1123.0</ele>
        <time>2018-05-26T08:54:02.151Z</time>
      </trkpt>
      <trkpt lat="40.73100833" lon="-3.97939667">
        <ele>1124.0</ele>
        <time>2018-05-26T08:54:03.159Z</time>
      </trkpt>
      <trkpt lat="40.73100833" lon="-3.97939667">
        <ele>1124.0</ele>
        <time>2018-05-26T08:54:04.151Z</time>
      </trkpt>
      <trkpt lat="40.73104667" lon="-3.97941167">
        <ele>1125.0</ele>
        <time>2018-05-26T08:54:05.140Z</time>
      </trkpt>
      <trkpt lat="40.73104667" lon="-3.97941167">
        <ele>1125.0</ele>
        <time>2018-05-26T08:54:06.153Z</time>
      </trkpt>
      <trkpt lat="40.73108167" lon="-3.97943167">
        <ele>1126.0</ele>
        <time>2018-05-26T08:54:07.160Z</time>
      </trkpt>
      <trkpt lat="40.73108167" lon="-3.97943167">
        <ele>1126.0</ele>
        <time>2018-05-26T08:54:08.147Z</time>
      </trkpt>
      <trkpt lat="40.731115" lon="-3.97945167">
        <ele>1127.0</ele>
        <time>2018-05-26T08:54:09.161Z</time>
      </trkpt>
      <trkpt lat="40.73113333" lon="-3.97946">
        <ele>1127.0</ele>
        <time>2018-05-26T08:54:10.141Z</time>
      </trkpt>
      <trkpt lat="40.73113333" lon="-3.97946">
        <ele>1127.0</ele>
        <time>2018-05-26T08:54:11.167Z</time>
      </trkpt>
      <trkpt lat="40.731165" lon="-3.97948">
        <ele>1128.0</ele>
        <time>2018-05-26T08:54:12.145Z</time>
      </trkpt>
      <trkpt lat="40.731165" lon="-3.97948">
        <ele>1128.0</ele>
        <time>2018-05-26T08:54:13.164Z</time>
      </trkpt>
      <trkpt lat="40.7312" lon="-3.97949667">
        <ele>1129.0</ele>
        <time>2018-05-26T08:54:14.138Z</time>
      </trkpt>
      <trkpt lat="40.73121833" lon="-3.97950667">
        <ele>1129.0</ele>
        <time>2018-05-26T08:54:15.149Z</time>
      </trkpt>
      <trkpt lat="40.73123667" lon="-3.97951667">
        <ele>1130.0</ele>
        <time>2018-05-26T08:54:16.177Z</time>
      </trkpt>
      <trkpt lat="40.73123667" lon="-3.97951667">
        <ele>1130.0</ele>
        <time>2018-05-26T08:54:17.142Z</time>
      </trkpt>
      <trkpt lat="40.73126833" lon="-3.97952833">
        <ele>1131.0</ele>
        <time>2018-05-26T08:54:18.150Z</time>
      </trkpt>
      <trkpt lat="40.73126833" lon="-3.97952833">
        <ele>1131.0</ele>
        <time>2018-05-26T08:54:19.150Z</time>
      </trkpt>
      <trkpt lat="40.73130333" lon="-3.979535">
        <ele>1132.0</ele>
        <time>2018-05-26T08:54:20.176Z</time>
      </trkpt>
      <trkpt lat="40.73130333" lon="-3.979535">
        <ele>1132.0</ele>
        <time>2018-05-26T08:54:21.162Z</time>
      </trkpt>
      <trkpt lat="40.73134" lon="-3.979545">
        <ele>1132.0</ele>
        <time>2018-05-26T08:54:22.169Z</time>
      </trkpt>
      <trkpt lat="40.73134" lon="-3.979545">
        <ele>1132.0</ele>
        <time>2018-05-26T08:54:23.158Z</time>
      </trkpt>
      <trkpt lat="40.73137" lon="-3.97955">
        <ele>1133.0</ele>
        <time>2018-05-26T08:54:24.175Z</time>
      </trkpt>
      <trkpt lat="40.73137" lon="-3.97955">
        <ele>1133.0</ele>
        <time>2018-05-26T08:54:25.142Z</time>
      </trkpt>
      <trkpt lat="40.73140667" lon="-3.97956">
        <ele>1133.0</ele>
        <time>2018-05-26T08:54:26.153Z</time>
      </trkpt>
      <trkpt lat="40.73140667" lon="-3.97956">
        <ele>1133.0</ele>
        <time>2018-05-26T08:54:27.141Z</time>
      </trkpt>
      <trkpt lat="40.73144" lon="-3.97957167">
        <ele>1134.0</ele>
        <time>2018-05-26T08:54:28.170Z</time>
      </trkpt>
      <trkpt lat="40.73144" lon="-3.97957167">
        <ele>1134.0</ele>
        <time>2018-05-26T08:54:29.165Z</time>
      </trkpt>
      <trkpt lat="40.73147" lon="-3.97958833">
        <ele>1134.0</ele>
        <time>2018-05-26T08:54:30.172Z</time>
      </trkpt>
      <trkpt lat="40.73148667" lon="-3.97959167">
        <ele>1134.0</ele>
        <time>2018-05-26T08:54:31.157Z</time>
      </trkpt>
      <trkpt lat="40.73148667" lon="-3.97959167">
        <ele>1134.0</ele>
        <time>2018-05-26T08:54:32.143Z</time>
      </trkpt>
      <trkpt lat="40.73151833" lon="-3.9796">
        <ele>1135.0</ele>
        <time>2018-05-26T08:54:33.155Z</time>
      </trkpt>
      <trkpt lat="40.73153333" lon="-3.97960667">
        <ele>1135.0</ele>
        <time>2018-05-26T08:54:34.139Z</time>
      </trkpt>
      <trkpt lat="40.73153333" lon="-3.97960667">
        <ele>1135.0</ele>
        <time>2018-05-26T08:54:35.154Z</time>
      </trkpt>
      <trkpt lat="40.73156333" lon="-3.97963167">
        <ele>1136.0</ele>
        <time>2018-05-26T08:54:36.161Z</time>
      </trkpt>
      <trkpt lat="40.73157833" lon="-3.97964333">
        <ele>1136.0</ele>
        <time>2018-05-26T08:54:37.149Z</time>
      </trkpt>
      <trkpt lat="40.73157833" lon="-3.97964333">
        <ele>1136.0</ele>
        <time>2018-05-26T08:54:38.155Z</time>
      </trkpt>
      <trkpt lat="40.731605" lon="-3.97966167">
        <ele>1137.0</ele>
        <time>2018-05-26T08:54:39.140Z</time>
      </trkpt>
      <trkpt lat="40.731605" lon="-3.97966167">
        <ele>1137.0</ele>
        <time>2018-05-26T08:54:40.143Z</time>
      </trkpt>
      <trkpt lat="40.731635" lon="-3.97968167">
        <ele>1137.0</ele>
        <time>2018-05-26T08:54:41.152Z</time>
      </trkpt>
      <trkpt lat="40.731635" lon="-3.97968167">
        <ele>1137.0</ele>
        <time>2018-05-26T08:54:42.143Z</time>
      </trkpt>
      <trkpt lat="40.73166833" lon="-3.9797">
        <ele>1137.0</ele>
        <time>2018-05-26T08:54:43.140Z</time>
      </trkpt>
      <trkpt lat="40.73166833" lon="-3.9797">
        <ele>1137.0</ele>
        <time>2018-05-26T08:54:44.156Z</time>
      </trkpt>
      <trkpt lat="40.7317" lon="-3.97971833">
        <ele>1138.0</ele>
        <time>2018-05-26T08:54:45.162Z</time>
      </trkpt>
      <trkpt lat="40.7317" lon="-3.97971833">
        <ele>1138.0</ele>
        <time>2018-05-26T08:54:46.149Z</time>
      </trkpt>
      <trkpt lat="40.73172833" lon="-3.97974">
        <ele>1138.0</ele>
        <time>2018-05-26T08:54:47.139Z</time>
      </trkpt>
      <trkpt lat="40.73172833" lon="-3.97974">
        <ele>1138.0</ele>
        <time>2018-05-26T08:54:48.155Z</time>
      </trkpt>
      <trkpt lat="40.73175667" lon="-3.979765">
        <ele>1139.0</ele>
        <time>2018-05-26T08:54:49.162Z</time>
      </trkpt>
      <trkpt lat="40.73175667" lon="-3.979765">
        <ele>1139.0</ele>
        <time>2018-05-26T08:54:50.153Z</time>
      </trkpt>
      <trkpt lat="40.73178" lon="-3.9798">
        <ele>1139.0</ele>
        <time>2018-05-26T08:54:51.140Z</time>
      </trkpt>
      <trkpt lat="40.73178" lon="-3.9798">
        <ele>1139.0</ele>
        <time>2018-05-26T08:54:52.165Z</time>
      </trkpt>
      <trkpt lat="40.73180333" lon="-3.97983167">
        <ele>1140.0</ele>
        <time>2018-05-26T08:54:53.171Z</time>
      </trkpt>
      <trkpt lat="40.73181667" lon="-3.97985">
        <ele>1140.0</ele>
        <time>2018-05-26T08:54:54.139Z</time>
      </trkpt>
      <trkpt lat="40.73181667" lon="-3.97985">
        <ele>1140.0</ele>
        <time>2018-05-26T08:54:55.146Z</time>
      </trkpt>
      <trkpt lat="40.73184333" lon="-3.97988667">
        <ele>1140.0</ele>
        <time>2018-05-26T08:54:56.153Z</time>
      </trkpt>
      <trkpt lat="40.73184333" lon="-3.97988667">
        <ele>1140.0</ele>
        <time>2018-05-26T08:54:57.139Z</time>
      </trkpt>
      <trkpt lat="40.73186167" lon="-3.97992667">
        <ele>1141.0</ele>
        <time>2018-05-26T08:54:58.139Z</time>
      </trkpt>
      <trkpt lat="40.73186833" lon="-3.97994833">
        <ele>1141.0</ele>
        <time>2018-05-26T08:54:59.166Z</time>
      </trkpt>
      <trkpt lat="40.73186833" lon="-3.97994833">
        <ele>1141.0</ele>
        <time>2018-05-26T08:55:00.153Z</time>
      </trkpt>
      <trkpt lat="40.731885" lon="-3.97999167">
        <ele>1141.0</ele>
        <time>2018-05-26T08:55:01.153Z</time>
      </trkpt>
      <trkpt lat="40.73189333" lon="-3.98001333">
        <ele>1142.0</ele>
        <time>2018-05-26T08:55:02.142Z</time>
      </trkpt>
      <trkpt lat="40.73189333" lon="-3.98001333">
        <ele>1142.0</ele>
        <time>2018-05-26T08:55:03.169Z</time>
      </trkpt>
      <trkpt lat="40.73191333" lon="-3.98005833">
        <ele>1142.0</ele>
        <time>2018-05-26T08:55:04.145Z</time>
      </trkpt>
      <trkpt lat="40.73191333" lon="-3.98005833">
        <ele>1142.0</ele>
        <time>2018-05-26T08:55:05.167Z</time>
      </trkpt>
      <trkpt lat="40.73193" lon="-3.980105">
        <ele>1142.0</ele>
        <time>2018-05-26T08:55:06.140Z</time>
      </trkpt>
      <trkpt lat="40.73193" lon="-3.980105">
        <ele>1142.0</ele>
        <time>2018-05-26T08:55:07.152Z</time>
      </trkpt>
      <trkpt lat="40.73194667" lon="-3.98015667">
        <ele>1143.0</ele>
        <time>2018-05-26T08:55:08.159Z</time>
      </trkpt>
      <trkpt lat="40.73195667" lon="-3.98018167">
        <ele>1143.0</ele>
        <time>2018-05-26T08:55:09.160Z</time>
      </trkpt>
      <trkpt lat="40.73195667" lon="-3.98018167">
        <ele>1143.0</ele>
        <time>2018-05-26T08:55:10.147Z</time>
      </trkpt>
      <trkpt lat="40.73196833" lon="-3.98024167">
        <ele>1143.0</ele>
        <time>2018-05-26T08:55:11.153Z</time>
      </trkpt>
      <trkpt lat="40.73196833" lon="-3.98024167">
        <ele>1143.0</ele>
        <time>2018-05-26T08:55:12.142Z</time>
      </trkpt>
      <trkpt lat="40.731965" lon="-3.98030667">
        <ele>1143.0</ele>
        <time>2018-05-26T08:55:13.171Z</time>
      </trkpt>
      <trkpt lat="40.73195833" lon="-3.98034167">
        <ele>1143.0</ele>
        <time>2018-05-26T08:55:14.168Z</time>
      </trkpt>
      <trkpt lat="40.73195833" lon="-3.98034167">
        <ele>1143.0</ele>
        <time>2018-05-26T08:55:15.145Z</time>
      </trkpt>
      <trkpt lat="40.73193333" lon="-3.98042">
        <ele>1143.0</ele>
        <time>2018-05-26T08:55:16.152Z</time>
      </trkpt>
      <trkpt lat="40.73193333" lon="-3.98042">
        <ele>1143.0</ele>
        <time>2018-05-26T08:55:17.141Z</time>
      </trkpt>
      <trkpt lat="40.73190333" lon="-3.98050667">
        <ele>1143.0</ele>
        <time>2018-05-26T08:55:18.159Z</time>
      </trkpt>
      <trkpt lat="40.73189" lon="-3.98055167">
        <ele>1143.0</ele>
        <time>2018-05-26T08:55:19.172Z</time>
      </trkpt>
      <trkpt lat="40.73189" lon="-3.98055167">
        <ele>1143.0</ele>
        <time>2018-05-26T08:55:20.167Z</time>
      </trkpt>
      <trkpt lat="40.73186667" lon="-3.98065333">
        <ele>1143.0</ele>
        <time>2018-05-26T08:55:21.174Z</time>
      </trkpt>
      <trkpt lat="40.73186667" lon="-3.98065333">
        <ele>1143.0</ele>
        <time>2018-05-26T08:55:22.162Z</time>
      </trkpt>
      <trkpt lat="40.731835" lon="-3.980755">
        <ele>1143.0</ele>
        <time>2018-05-26T08:55:23.152Z</time>
      </trkpt>
      <trkpt lat="40.731835" lon="-3.980755">
        <ele>1143.0</ele>
        <time>2018-05-26T08:55:24.160Z</time>
      </trkpt>
      <trkpt lat="40.731795" lon="-3.98085667">
        <ele>1143.0</ele>
        <time>2018-05-26T08:55:25.153Z</time>
      </trkpt>
      <trkpt lat="40.73177333" lon="-3.98090833">
        <ele>1142.0</ele>
        <time>2018-05-26T08:55:26.143Z</time>
      </trkpt>
      <trkpt lat="40.73177333" lon="-3.98090833">
        <ele>1142.0</ele>
        <time>2018-05-26T08:55:27.136Z</time>
      </trkpt>
      <trkpt lat="40.73172" lon="-3.98101">
        <ele>1142.0</ele>
        <time>2018-05-26T08:55:28.143Z</time>
      </trkpt>
      <trkpt lat="40.73169" lon="-3.98106167">
        <ele>1141.0</ele>
        <time>2018-05-26T08:55:29.171Z</time>
      </trkpt>
      <trkpt lat="40.73169" lon="-3.98106167">
        <ele>1141.0</ele>
        <time>2018-05-26T08:55:30.137Z</time>
      </trkpt>
      <trkpt lat="40.73162333" lon="-3.98116833">
        <ele>1140.0</ele>
        <time>2018-05-26T08:55:31.144Z</time>
      </trkpt>
      <trkpt lat="40.73162333" lon="-3.98116833">
        <ele>1140.0</ele>
        <time>2018-05-26T08:55:32.170Z</time>
      </trkpt>
      <trkpt lat="40.731545" lon="-3.981285">
        <ele>1140.0</ele>
        <time>2018-05-26T08:55:33.171Z</time>
      </trkpt>
      <trkpt lat="40.731545" lon="-3.981285">
        <ele>1140.0</ele>
        <time>2018-05-26T08:55:34.143Z</time>
      </trkpt>
      <trkpt lat="40.73144833" lon="-3.98138">
        <ele>1139.0</ele>
        <time>2018-05-26T08:55:35.150Z</time>
      </trkpt>
      <trkpt lat="40.73144833" lon="-3.98138">
        <ele>1139.0</ele>
        <time>2018-05-26T08:55:36.138Z</time>
      </trkpt>
      <trkpt lat="40.73133167" lon="-3.98144167">
        <ele>1139.0</ele>
        <time>2018-05-26T08:55:37.167Z</time>
      </trkpt>
      <trkpt lat="40.731275" lon="-3.98148167">
        <ele>1139.0</ele>
        <time>2018-05-26T08:55:38.153Z</time>
      </trkpt>
      <trkpt lat="40.731275" lon="-3.98148167">
        <ele>1139.0</ele>
        <time>2018-05-26T08:55:39.142Z</time>
      </trkpt>
      <trkpt lat="40.73117333" lon="-3.98157333">
        <ele>1139.0</ele>
        <time>2018-05-26T08:55:40.164Z</time>
      </trkpt>
      <trkpt lat="40.73117333" lon="-3.98157333">
        <ele>1139.0</ele>
        <time>2018-05-26T08:55:41.146Z</time>
      </trkpt>
      <trkpt lat="40.73108667" lon="-3.98168667">
        <ele>1138.0</ele>
        <time>2018-05-26T08:55:42.154Z</time>
      </trkpt>
      <trkpt lat="40.73108667" lon="-3.98168667">
        <ele>1138.0</ele>
        <time>2018-05-26T08:55:43.146Z</time>
      </trkpt>
      <trkpt lat="40.73100667" lon="-3.981805">
        <ele>1138.0</ele>
        <time>2018-05-26T08:55:44.161Z</time>
      </trkpt>
      <trkpt lat="40.73100667" lon="-3.981805">
        <ele>1138.0</ele>
        <time>2018-05-26T08:55:45.158Z</time>
      </trkpt>
      <trkpt lat="40.730925" lon="-3.981915">
        <ele>1138.0</ele>
        <time>2018-05-26T08:55:46.165Z</time>
      </trkpt>
      <trkpt lat="40.730925" lon="-3.981915">
        <ele>1138.0</ele>
        <time>2018-05-26T08:55:47.136Z</time>
      </trkpt>
      <trkpt lat="40.73084833" lon="-3.98202">
        <ele>1137.0</ele>
        <time>2018-05-26T08:55:48.171Z</time>
      </trkpt>
      <trkpt lat="40.73084833" lon="-3.98202">
        <ele>1137.0</ele>
        <time>2018-05-26T08:55:49.146Z</time>
      </trkpt>
      <trkpt lat="40.73077" lon="-3.98211833">
        <ele>1137.0</ele>
        <time>2018-05-26T08:55:50.153Z</time>
      </trkpt>
      <trkpt lat="40.73073167" lon="-3.982165">
        <ele>1137.0</ele>
        <time>2018-05-26T08:55:51.143Z</time>
      </trkpt>
      <trkpt lat="40.730695" lon="-3.98221167">
        <ele>1137.0</ele>
        <time>2018-05-26T08:55:52.147Z</time>
      </trkpt>
      <trkpt lat="40.730695" lon="-3.98221167">
        <ele>1137.0</ele>
        <time>2018-05-26T08:55:53.145Z</time>
      </trkpt>
      <trkpt lat="40.73062" lon="-3.98231">
        <ele>1136.0</ele>
        <time>2018-05-26T08:55:54.153Z</time>
      </trkpt>
      <trkpt lat="40.73062" lon="-3.98231">
        <ele>1136.0</ele>
        <time>2018-05-26T08:55:55.142Z</time>
      </trkpt>
      <trkpt lat="40.73054" lon="-3.98241167">
        <ele>1136.0</ele>
        <time>2018-05-26T08:55:56.150Z</time>
      </trkpt>
      <trkpt lat="40.73054" lon="-3.98241167">
        <ele>1136.0</ele>
        <time>2018-05-26T08:55:57.140Z</time>
      </trkpt>
      <trkpt lat="40.730465" lon="-3.98252667">
        <ele>1135.0</ele>
        <time>2018-05-26T08:55:58.164Z</time>
      </trkpt>
      <trkpt lat="40.73043" lon="-3.98259">
        <ele>1136.0</ele>
        <time>2018-05-26T08:55:59.169Z</time>
      </trkpt>
      <trkpt lat="40.73043" lon="-3.98259">
        <ele>1136.0</ele>
        <time>2018-05-26T08:56:00.154Z</time>
      </trkpt>
      <trkpt lat="40.73036" lon="-3.98270167">
        <ele>1135.0</ele>
        <time>2018-05-26T08:56:01.143Z</time>
      </trkpt>
      <trkpt lat="40.73036" lon="-3.98270167">
        <ele>1135.0</ele>
        <time>2018-05-26T08:56:02.161Z</time>
      </trkpt>
      <trkpt lat="40.730255" lon="-3.98276">
        <ele>1134.0</ele>
        <time>2018-05-26T08:56:03.136Z</time>
      </trkpt>
      <trkpt lat="40.73019333" lon="-3.98277">
        <ele>1134.0</ele>
        <time>2018-05-26T08:56:04.151Z</time>
      </trkpt>
      <trkpt lat="40.73019333" lon="-3.98277">
        <ele>1134.0</ele>
        <time>2018-05-26T08:56:05.169Z</time>
      </trkpt>
      <trkpt lat="40.73005167" lon="-3.98277167">
        <ele>1133.0</ele>
        <time>2018-05-26T08:56:06.144Z</time>
      </trkpt>
      <trkpt lat="40.72997333" lon="-3.98275833">
        <ele>1132.0</ele>
        <time>2018-05-26T08:56:07.151Z</time>
      </trkpt>
      <trkpt lat="40.72997333" lon="-3.98275833">
        <ele>1132.0</ele>
        <time>2018-05-26T08:56:08.167Z</time>
      </trkpt>
      <trkpt lat="40.72981167" lon="-3.98271167">
        <ele>1131.0</ele>
        <time>2018-05-26T08:56:09.171Z</time>
      </trkpt>
      <trkpt lat="40.72972667" lon="-3.98267667">
        <ele>1130.0</ele>
        <time>2018-05-26T08:56:10.145Z</time>
      </trkpt>
      <trkpt lat="40.72972667" lon="-3.98267667">
        <ele>1130.0</ele>
        <time>2018-05-26T08:56:11.171Z</time>
      </trkpt>
      <trkpt lat="40.72954167" lon="-3.982595">
        <ele>1127.0</ele>
        <time>2018-05-26T08:56:12.141Z</time>
      </trkpt>
      <trkpt lat="40.72954167" lon="-3.982595">
        <ele>1127.0</ele>
        <time>2018-05-26T08:56:13.143Z</time>
      </trkpt>
      <trkpt lat="40.72934" lon="-3.982555">
        <ele>1125.0</ele>
        <time>2018-05-26T08:56:14.152Z</time>
      </trkpt>
      <trkpt lat="40.72923667" lon="-3.98254167">
        <ele>1124.0</ele>
        <time>2018-05-26T08:56:15.139Z</time>
      </trkpt>
      <trkpt lat="40.72913667" lon="-3.98252">
        <ele>1123.0</ele>
        <time>2018-05-26T08:56:16.175Z</time>
      </trkpt>
      <trkpt lat="40.72913667" lon="-3.98252">
        <ele>1123.0</ele>
        <time>2018-05-26T08:56:17.157Z</time>
      </trkpt>
      <trkpt lat="40.72894833" lon="-3.98244167">
        <ele>1122.0</ele>
        <time>2018-05-26T08:56:18.161Z</time>
      </trkpt>
      <trkpt lat="40.72894833" lon="-3.98244167">
        <ele>1122.0</ele>
        <time>2018-05-26T08:56:19.168Z</time>
      </trkpt>
      <trkpt lat="40.72876833" lon="-3.982345">
        <ele>1120.0</ele>
        <time>2018-05-26T08:56:20.143Z</time>
      </trkpt>
      <trkpt lat="40.72867167" lon="-3.98231167">
        <ele>1119.0</ele>
        <time>2018-05-26T08:56:21.170Z</time>
      </trkpt>
      <trkpt lat="40.72857333" lon="-3.982285">
        <ele>1119.0</ele>
        <time>2018-05-26T08:56:22.164Z</time>
      </trkpt>
      <trkpt lat="40.72857333" lon="-3.982285">
        <ele>1119.0</ele>
        <time>2018-05-26T08:56:23.166Z</time>
      </trkpt>
      <trkpt lat="40.72837167" lon="-3.98224167">
        <ele>1118.0</ele>
        <time>2018-05-26T08:56:24.156Z</time>
      </trkpt>
      <trkpt lat="40.72837167" lon="-3.98224167">
        <ele>1118.0</ele>
        <time>2018-05-26T08:56:25.165Z</time>
      </trkpt>
      <trkpt lat="40.72818" lon="-3.982175">
        <ele>1117.0</ele>
        <time>2018-05-26T08:56:26.160Z</time>
      </trkpt>
      <trkpt lat="40.72818" lon="-3.982175">
        <ele>1117.0</ele>
        <time>2018-05-26T08:56:27.142Z</time>
      </trkpt>
      <trkpt lat="40.72799333" lon="-3.98207833">
        <ele>1117.0</ele>
        <time>2018-05-26T08:56:28.153Z</time>
      </trkpt>
      <trkpt lat="40.72799333" lon="-3.98207833">
        <ele>1117.0</ele>
        <time>2018-05-26T08:56:29.165Z</time>
      </trkpt>
      <trkpt lat="40.72783" lon="-3.98199333">
        <ele>1116.0</ele>
        <time>2018-05-26T08:56:30.172Z</time>
      </trkpt>
      <trkpt lat="40.72783" lon="-3.98199333">
        <ele>1116.0</ele>
        <time>2018-05-26T08:56:31.145Z</time>
      </trkpt>
      <trkpt lat="40.72773167" lon="-3.981895">
        <ele>1116.0</ele>
        <time>2018-05-26T08:56:32.154Z</time>
      </trkpt>
      <trkpt lat="40.72773167" lon="-3.981895">
        <ele>1116.0</ele>
        <time>2018-05-26T08:56:33.146Z</time>
      </trkpt>
      <trkpt lat="40.72765333" lon="-3.98183333">
        <ele>1116.0</ele>
        <time>2018-05-26T08:56:34.158Z</time>
      </trkpt>
      <trkpt lat="40.72765333" lon="-3.98183333">
        <ele>1116.0</ele>
        <time>2018-05-26T08:56:35.154Z</time>
      </trkpt>
      <trkpt lat="40.727585" lon="-3.98185167">
        <ele>1116.0</ele>
        <time>2018-05-26T08:56:36.160Z</time>
      </trkpt>
      <trkpt lat="40.727585" lon="-3.98185167">
        <ele>1116.0</ele>
        <time>2018-05-26T08:56:37.147Z</time>
      </trkpt>
      <trkpt lat="40.72755" lon="-3.98192">
        <ele>1117.0</ele>
        <time>2018-05-26T08:56:38.169Z</time>
      </trkpt>
      <trkpt lat="40.72753667" lon="-3.98195667">
        <ele>1117.0</ele>
        <time>2018-05-26T08:56:39.162Z</time>
      </trkpt>
      <trkpt lat="40.72753667" lon="-3.98195667">
        <ele>1117.0</ele>
        <time>2018-05-26T08:56:40.149Z</time>
      </trkpt>
      <trkpt lat="40.72750833" lon="-3.98201667">
        <ele>1118.0</ele>
        <time>2018-05-26T08:56:41.164Z</time>
      </trkpt>
      <trkpt lat="40.72749" lon="-3.98204167">
        <ele>1118.0</ele>
        <time>2018-05-26T08:56:42.140Z</time>
      </trkpt>
      <trkpt lat="40.72749" lon="-3.98204167">
        <ele>1118.0</ele>
        <time>2018-05-26T08:56:43.168Z</time>
      </trkpt>
      <trkpt lat="40.727455" lon="-3.98209833">
        <ele>1118.0</ele>
        <time>2018-05-26T08:56:44.146Z</time>
      </trkpt>
      <trkpt lat="40.727455" lon="-3.98209833">
        <ele>1118.0</ele>
        <time>2018-05-26T08:56:45.171Z</time>
      </trkpt>
      <trkpt lat="40.72743333" lon="-3.98216333">
        <ele>1119.0</ele>
        <time>2018-05-26T08:56:46.173Z</time>
      </trkpt>
      <trkpt lat="40.72743333" lon="-3.98216333">
        <ele>1119.0</ele>
        <time>2018-05-26T08:56:47.146Z</time>
      </trkpt>
      <trkpt lat="40.72741333" lon="-3.98222833">
        <ele>1119.0</ele>
        <time>2018-05-26T08:56:48.153Z</time>
      </trkpt>
      <trkpt lat="40.72741333" lon="-3.98222833">
        <ele>1119.0</ele>
        <time>2018-05-26T08:56:49.165Z</time>
      </trkpt>
      <trkpt lat="40.727395" lon="-3.98229667">
        <ele>1120.0</ele>
        <time>2018-05-26T08:56:50.172Z</time>
      </trkpt>
      <trkpt lat="40.72738667" lon="-3.98233333">
        <ele>1120.0</ele>
        <time>2018-05-26T08:56:51.158Z</time>
      </trkpt>
      <trkpt lat="40.72738667" lon="-3.98233333">
        <ele>1120.0</ele>
        <time>2018-05-26T08:56:52.155Z</time>
      </trkpt>
      <trkpt lat="40.72736167" lon="-3.98241">
        <ele>1120.0</ele>
        <time>2018-05-26T08:56:53.168Z</time>
      </trkpt>
      <trkpt lat="40.72735333" lon="-3.98245">
        <ele>1121.0</ele>
        <time>2018-05-26T08:56:54.169Z</time>
      </trkpt>
      <trkpt lat="40.72735333" lon="-3.98245">
        <ele>1121.0</ele>
        <time>2018-05-26T08:56:55.144Z</time>
      </trkpt>
      <trkpt lat="40.72734833" lon="-3.98253167">
        <ele>1121.0</ele>
        <time>2018-05-26T08:56:56.151Z</time>
      </trkpt>
      <trkpt lat="40.72734667" lon="-3.98257">
        <ele>1121.0</ele>
        <time>2018-05-26T08:56:57.137Z</time>
      </trkpt>
      <trkpt lat="40.72734667" lon="-3.98257">
        <ele>1121.0</ele>
        <time>2018-05-26T08:56:58.162Z</time>
      </trkpt>
      <trkpt lat="40.72734667" lon="-3.98264833">
        <ele>1121.0</ele>
        <time>2018-05-26T08:56:59.169Z</time>
      </trkpt>
      <trkpt lat="40.72734667" lon="-3.98264833">
        <ele>1121.0</ele>
        <time>2018-05-26T08:57:00.158Z</time>
      </trkpt>
      <trkpt lat="40.72734167" lon="-3.982745">
        <ele>1122.0</ele>
        <time>2018-05-26T08:57:01.149Z</time>
      </trkpt>
      <trkpt lat="40.72733167" lon="-3.98279167">
        <ele>1122.0</ele>
        <time>2018-05-26T08:57:02.143Z</time>
      </trkpt>
      <trkpt lat="40.72733167" lon="-3.98279167">
        <ele>1122.0</ele>
        <time>2018-05-26T08:57:03.170Z</time>
      </trkpt>
      <trkpt lat="40.72731333" lon="-3.982885">
        <ele>1122.0</ele>
        <time>2018-05-26T08:57:04.137Z</time>
      </trkpt>
      <trkpt lat="40.72731333" lon="-3.982885">
        <ele>1122.0</ele>
        <time>2018-05-26T08:57:05.148Z</time>
      </trkpt>
      <trkpt lat="40.72729833" lon="-3.98298167">
        <ele>1122.0</ele>
        <time>2018-05-26T08:57:06.155Z</time>
      </trkpt>
      <trkpt lat="40.72729" lon="-3.98303">
        <ele>1122.0</ele>
        <time>2018-05-26T08:57:07.152Z</time>
      </trkpt>
      <trkpt lat="40.72729" lon="-3.98303">
        <ele>1122.0</ele>
        <time>2018-05-26T08:57:08.138Z</time>
      </trkpt>
      <trkpt lat="40.727275" lon="-3.98311833">
        <ele>1122.0</ele>
        <time>2018-05-26T08:57:09.145Z</time>
      </trkpt>
      <trkpt lat="40.72726833" lon="-3.98316833">
        <ele>1122.0</ele>
        <time>2018-05-26T08:57:10.170Z</time>
      </trkpt>
      <trkpt lat="40.72726833" lon="-3.98316833">
        <ele>1122.0</ele>
        <time>2018-05-26T08:57:11.168Z</time>
      </trkpt>
      <trkpt lat="40.72725667" lon="-3.98326167">
        <ele>1122.0</ele>
        <time>2018-05-26T08:57:12.136Z</time>
      </trkpt>
      <trkpt lat="40.72725667" lon="-3.98326167">
        <ele>1122.0</ele>
        <time>2018-05-26T08:57:13.165Z</time>
      </trkpt>
      <trkpt lat="40.727245" lon="-3.983365">
        <ele>1122.0</ele>
        <time>2018-05-26T08:57:14.171Z</time>
      </trkpt>
      <trkpt lat="40.727245" lon="-3.983365">
        <ele>1122.0</ele>
        <time>2018-05-26T08:57:15.168Z</time>
      </trkpt>
      <trkpt lat="40.727225" lon="-3.98347167">
        <ele>1122.0</ele>
        <time>2018-05-26T08:57:16.175Z</time>
      </trkpt>
      <trkpt lat="40.727225" lon="-3.98347167">
        <ele>1122.0</ele>
        <time>2018-05-26T08:57:17.157Z</time>
      </trkpt>
      <trkpt lat="40.72719833" lon="-3.98357833">
        <ele>1122.0</ele>
        <time>2018-05-26T08:57:18.140Z</time>
      </trkpt>
      <trkpt lat="40.72719833" lon="-3.98357833">
        <ele>1122.0</ele>
        <time>2018-05-26T08:57:19.136Z</time>
      </trkpt>
      <trkpt lat="40.72717167" lon="-3.98368333">
        <ele>1122.0</ele>
        <time>2018-05-26T08:57:20.143Z</time>
      </trkpt>
      <trkpt lat="40.72717167" lon="-3.98368333">
        <ele>1122.0</ele>
        <time>2018-05-26T08:57:21.173Z</time>
      </trkpt>
      <trkpt lat="40.72713667" lon="-3.98378167">
        <ele>1122.0</ele>
        <time>2018-05-26T08:57:22.173Z</time>
      </trkpt>
      <trkpt lat="40.72713667" lon="-3.98378167">
        <ele>1122.0</ele>
        <time>2018-05-26T08:57:23.146Z</time>
      </trkpt>
      <trkpt lat="40.72709833" lon="-3.983875">
        <ele>1123.0</ele>
        <time>2018-05-26T08:57:24.153Z</time>
      </trkpt>
      <trkpt lat="40.72709833" lon="-3.98392333">
        <ele>1123.0</ele>
        <time>2018-05-26T08:57:25.139Z</time>
      </trkpt>
      <trkpt lat="40.72709833" lon="-3.98392333">
        <ele>1123.0</ele>
        <time>2018-05-26T08:57:26.166Z</time>
      </trkpt>
      <trkpt lat="40.72711833" lon="-3.98404">
        <ele>1123.0</ele>
        <time>2018-05-26T08:57:27.175Z</time>
      </trkpt>
      <trkpt lat="40.72713" lon="-3.9841">
        <ele>1124.0</ele>
        <time>2018-05-26T08:57:28.175Z</time>
      </trkpt>
      <trkpt lat="40.72713" lon="-3.9841">
        <ele>1124.0</ele>
        <time>2018-05-26T08:57:29.170Z</time>
      </trkpt>
      <trkpt lat="40.727145" lon="-3.98422167">
        <ele>1124.0</ele>
        <time>2018-05-26T08:57:30.156Z</time>
      </trkpt>
      <trkpt lat="40.72715167" lon="-3.98428167">
        <ele>1123.0</ele>
        <time>2018-05-26T08:57:31.174Z</time>
      </trkpt>
      <trkpt lat="40.72715833" lon="-3.98434667">
        <ele>1124.0</ele>
        <time>2018-05-26T08:57:32.153Z</time>
      </trkpt>
      <trkpt lat="40.72715833" lon="-3.98434667">
        <ele>1124.0</ele>
        <time>2018-05-26T08:57:33.154Z</time>
      </trkpt>
      <trkpt lat="40.727165" lon="-3.98447333">
        <ele>1123.0</ele>
        <time>2018-05-26T08:57:34.173Z</time>
      </trkpt>
      <trkpt lat="40.72716667" lon="-3.98453833">
        <ele>1123.0</ele>
        <time>2018-05-26T08:57:35.150Z</time>
      </trkpt>
      <trkpt lat="40.72716667" lon="-3.98460167">
        <ele>1123.0</ele>
        <time>2018-05-26T08:57:36.140Z</time>
      </trkpt>
      <trkpt lat="40.72716667" lon="-3.98460167">
        <ele>1123.0</ele>
        <time>2018-05-26T08:57:37.168Z</time>
      </trkpt>
      <trkpt lat="40.72716667" lon="-3.98472167">
        <ele>1124.0</ele>
        <time>2018-05-26T08:57:38.143Z</time>
      </trkpt>
      <trkpt lat="40.72716333" lon="-3.984785">
        <ele>1123.0</ele>
        <time>2018-05-26T08:57:39.172Z</time>
      </trkpt>
      <trkpt lat="40.72716333" lon="-3.984785">
        <ele>1123.0</ele>
        <time>2018-05-26T08:57:40.148Z</time>
      </trkpt>
      <trkpt lat="40.72714667" lon="-3.9849">
        <ele>1123.0</ele>
        <time>2018-05-26T08:57:41.155Z</time>
      </trkpt>
      <trkpt lat="40.72713833" lon="-3.98495333">
        <ele>1123.0</ele>
        <time>2018-05-26T08:57:42.171Z</time>
      </trkpt>
      <trkpt lat="40.72713833" lon="-3.98495333">
        <ele>1123.0</ele>
        <time>2018-05-26T08:57:43.174Z</time>
      </trkpt>
      <trkpt lat="40.72712833" lon="-3.98507">
        <ele>1123.0</ele>
        <time>2018-05-26T08:57:44.145Z</time>
      </trkpt>
      <trkpt lat="40.72712833" lon="-3.98507">
        <ele>1123.0</ele>
        <time>2018-05-26T08:57:45.171Z</time>
      </trkpt>
      <trkpt lat="40.72711667" lon="-3.98519333">
        <ele>1123.0</ele>
        <time>2018-05-26T08:57:46.171Z</time>
      </trkpt>
      <trkpt lat="40.72711667" lon="-3.98519333">
        <ele>1123.0</ele>
        <time>2018-05-26T08:57:47.156Z</time>
      </trkpt>
      <trkpt lat="40.727105" lon="-3.98530667">
        <ele>1124.0</ele>
        <time>2018-05-26T08:57:48.162Z</time>
      </trkpt>
      <trkpt lat="40.7271" lon="-3.98536333">
        <ele>1123.0</ele>
        <time>2018-05-26T08:57:49.137Z</time>
      </trkpt>
      <trkpt lat="40.7271" lon="-3.98536333">
        <ele>1123.0</ele>
        <time>2018-05-26T08:57:50.136Z</time>
      </trkpt>
      <trkpt lat="40.727105" lon="-3.98548">
        <ele>1123.0</ele>
        <time>2018-05-26T08:57:51.144Z</time>
      </trkpt>
      <trkpt lat="40.727105" lon="-3.98548">
        <ele>1123.0</ele>
        <time>2018-05-26T08:57:52.170Z</time>
      </trkpt>
      <trkpt lat="40.72711833" lon="-3.98559167">
        <ele>1123.0</ele>
        <time>2018-05-26T08:57:53.172Z</time>
      </trkpt>
      <trkpt lat="40.72711833" lon="-3.98559167">
        <ele>1123.0</ele>
        <time>2018-05-26T08:57:54.163Z</time>
      </trkpt>
      <trkpt lat="40.7271" lon="-3.98570333">
        <ele>1124.0</ele>
        <time>2018-05-26T08:57:55.169Z</time>
      </trkpt>
      <trkpt lat="40.7271" lon="-3.98570333">
        <ele>1124.0</ele>
        <time>2018-05-26T08:57:56.156Z</time>
      </trkpt>
      <trkpt lat="40.72705333" lon="-3.98577833">
        <ele>1124.0</ele>
        <time>2018-05-26T08:57:57.172Z</time>
      </trkpt>
      <trkpt lat="40.72703833" lon="-3.985815">
        <ele>1124.0</ele>
        <time>2018-05-26T08:57:58.161Z</time>
      </trkpt>
      <trkpt lat="40.72703833" lon="-3.985815">
        <ele>1124.0</ele>
        <time>2018-05-26T08:57:59.146Z</time>
      </trkpt>
      <trkpt lat="40.72701" lon="-3.985895">
        <ele>1125.0</ele>
        <time>2018-05-26T08:58:00.167Z</time>
      </trkpt>
      <trkpt lat="40.72701" lon="-3.985895">
        <ele>1125.0</ele>
        <time>2018-05-26T08:58:01.162Z</time>
      </trkpt>
      <trkpt lat="40.72697333" lon="-3.98597">
        <ele>1125.0</ele>
        <time>2018-05-26T08:58:02.169Z</time>
      </trkpt>
      <trkpt lat="40.72697333" lon="-3.98597">
        <ele>1125.0</ele>
        <time>2018-05-26T08:58:03.160Z</time>
      </trkpt>
      <trkpt lat="40.726935" lon="-3.986045">
        <ele>1126.0</ele>
        <time>2018-05-26T08:58:04.167Z</time>
      </trkpt>
      <trkpt lat="40.726935" lon="-3.986045">
        <ele>1126.0</ele>
        <time>2018-05-26T08:58:05.157Z</time>
      </trkpt>
      <trkpt lat="40.72690167" lon="-3.98611333">
        <ele>1126.0</ele>
        <time>2018-05-26T08:58:06.168Z</time>
      </trkpt>
      <trkpt lat="40.72690167" lon="-3.98611333">
        <ele>1126.0</ele>
        <time>2018-05-26T08:58:07.164Z</time>
      </trkpt>
      <trkpt lat="40.72687" lon="-3.98618167">
        <ele>1127.0</ele>
        <time>2018-05-26T08:58:08.171Z</time>
      </trkpt>
      <trkpt lat="40.72687" lon="-3.98618167">
        <ele>1127.0</ele>
        <time>2018-05-26T08:58:09.159Z</time>
      </trkpt>
      <trkpt lat="40.726855" lon="-3.986255">
        <ele>1127.0</ele>
        <time>2018-05-26T08:58:10.170Z</time>
      </trkpt>
      <trkpt lat="40.726855" lon="-3.986255">
        <ele>1127.0</ele>
        <time>2018-05-26T08:58:11.162Z</time>
      </trkpt>
      <trkpt lat="40.72683333" lon="-3.98633667">
        <ele>1127.0</ele>
        <time>2018-05-26T08:58:12.169Z</time>
      </trkpt>
      <trkpt lat="40.72683333" lon="-3.98633667">
        <ele>1127.0</ele>
        <time>2018-05-26T08:58:13.161Z</time>
      </trkpt>
      <trkpt lat="40.72680667" lon="-3.98641833">
        <ele>1127.0</ele>
        <time>2018-05-26T08:58:14.171Z</time>
      </trkpt>
      <trkpt lat="40.72679167" lon="-3.98645333">
        <ele>1127.0</ele>
        <time>2018-05-26T08:58:15.147Z</time>
      </trkpt>
      <trkpt lat="40.72678" lon="-3.986485">
        <ele>1127.0</ele>
        <time>2018-05-26T08:58:16.173Z</time>
      </trkpt>
      <trkpt lat="40.72678" lon="-3.986485">
        <ele>1127.0</ele>
        <time>2018-05-26T08:58:17.155Z</time>
      </trkpt>
      <trkpt lat="40.72675667" lon="-3.98655">
        <ele>1127.0</ele>
        <time>2018-05-26T08:58:18.161Z</time>
      </trkpt>
      <trkpt lat="40.72674333" lon="-3.98659">
        <ele>1127.0</ele>
        <time>2018-05-26T08:58:19.145Z</time>
      </trkpt>
      <trkpt lat="40.726725" lon="-3.986635">
        <ele>1127.0</ele>
        <time>2018-05-26T08:58:20.168Z</time>
      </trkpt>
      <trkpt lat="40.726725" lon="-3.986635">
        <ele>1127.0</ele>
        <time>2018-05-26T08:58:21.140Z</time>
      </trkpt>
      <trkpt lat="40.726675" lon="-3.98673167">
        <ele>1126.0</ele>
        <time>2018-05-26T08:58:22.171Z</time>
      </trkpt>
      <trkpt lat="40.726675" lon="-3.98673167">
        <ele>1126.0</ele>
        <time>2018-05-26T08:58:23.164Z</time>
      </trkpt>
      <trkpt lat="40.72665" lon="-3.98677333">
        <ele>1125.0</ele>
        <time>2018-05-26T08:58:24.171Z</time>
      </trkpt>
      <trkpt lat="40.72665167" lon="-3.986765">
        <ele>1126.0</ele>
        <time>2018-05-26T08:58:25.136Z</time>
      </trkpt>
      <trkpt lat="40.72665167" lon="-3.986765">
        <ele>1126.0</ele>
        <time>2018-05-26T08:58:26.164Z</time>
      </trkpt>
      <trkpt lat="40.72665" lon="-3.986755">
        <ele>1125.0</ele>
        <time>2018-05-26T08:58:27.171Z</time>
      </trkpt>
      <trkpt lat="40.72665" lon="-3.986755">
        <ele>1125.0</ele>
        <time>2018-05-26T08:58:28.159Z</time>
      </trkpt>
      <trkpt lat="40.72667833" lon="-3.98673167">
        <ele>1125.0</ele>
        <time>2018-05-26T08:58:29.161Z</time>
      </trkpt>
      <trkpt lat="40.72669" lon="-3.98672">
        <ele>1125.0</ele>
        <time>2018-05-26T08:58:30.151Z</time>
      </trkpt>
      <trkpt lat="40.72669" lon="-3.98672">
        <ele>1125.0</ele>
        <time>2018-05-26T08:58:31.156Z</time>
      </trkpt>
      <trkpt lat="40.72671" lon="-3.98668">
        <ele>1125.0</ele>
        <time>2018-05-26T08:58:32.176Z</time>
      </trkpt>
      <trkpt lat="40.72671" lon="-3.98668">
        <ele>1125.0</ele>
        <time>2018-05-26T08:58:33.145Z</time>
      </trkpt>
      <trkpt lat="40.72673" lon="-3.98664667">
        <ele>1125.0</ele>
        <time>2018-05-26T08:58:34.156Z</time>
      </trkpt>
      <trkpt lat="40.72673" lon="-3.98664667">
        <ele>1125.0</ele>
        <time>2018-05-26T08:58:35.143Z</time>
      </trkpt>
      <trkpt lat="40.72675" lon="-3.986625">
        <ele>1125.0</ele>
        <time>2018-05-26T08:58:36.152Z</time>
      </trkpt>
      <trkpt lat="40.72675" lon="-3.986625">
        <ele>1125.0</ele>
        <time>2018-05-26T08:58:37.158Z</time>
      </trkpt>
      <trkpt lat="40.72676167" lon="-3.98659833">
        <ele>1125.0</ele>
        <time>2018-05-26T08:58:38.165Z</time>
      </trkpt>
      <trkpt lat="40.72676167" lon="-3.98659833">
        <ele>1125.0</ele>
        <time>2018-05-26T08:58:39.147Z</time>
      </trkpt>
      <trkpt lat="40.72677" lon="-3.98656833">
        <ele>1126.0</ele>
        <time>2018-05-26T08:58:40.142Z</time>
      </trkpt>
      <trkpt lat="40.72677" lon="-3.98656833">
        <ele>1126.0</ele>
        <time>2018-05-26T08:58:41.140Z</time>
      </trkpt>
      <trkpt lat="40.72677333" lon="-3.98653833">
        <ele>1126.0</ele>
        <time>2018-05-26T08:58:42.146Z</time>
      </trkpt>
      <trkpt lat="40.72678" lon="-3.98652667">
        <ele>1126.0</ele>
        <time>2018-05-26T08:58:43.177Z</time>
      </trkpt>
      <trkpt lat="40.72678" lon="-3.98652667">
        <ele>1126.0</ele>
        <time>2018-05-26T08:58:44.172Z</time>
      </trkpt>
      <trkpt lat="40.72680333" lon="-3.98653333">
        <ele>1127.0</ele>
        <time>2018-05-26T08:58:45.146Z</time>
      </trkpt>
      <trkpt lat="40.72680833" lon="-3.98654167">
        <ele>1127.0</ele>
        <time>2018-05-26T08:58:46.163Z</time>
      </trkpt>
      <trkpt lat="40.72680167" lon="-3.98654">
        <ele>1127.0</ele>
        <time>2018-05-26T08:58:47.139Z</time>
      </trkpt>
      <trkpt lat="40.72680167" lon="-3.98654">
        <ele>1127.0</ele>
        <time>2018-05-26T08:58:48.164Z</time>
      </trkpt>
      <trkpt lat="40.7268" lon="-3.98654167">
        <ele>1127.0</ele>
        <time>2018-05-26T08:58:49.146Z</time>
      </trkpt>
      <trkpt lat="40.7268" lon="-3.98654167">
        <ele>1127.0</ele>
        <time>2018-05-26T08:58:50.161Z</time>
      </trkpt>
      <trkpt lat="40.7268" lon="-3.98654167">
        <ele>1127.0</ele>
        <time>2018-05-26T08:58:51.160Z</time>
      </trkpt>
      <trkpt lat="40.726725" lon="-3.98664667">
        <ele>1121.0</ele>
        <time>2018-05-26T08:58:52.156Z</time>
      </trkpt>
      <trkpt lat="40.726725" lon="-3.98664667">
        <ele>1121.0</ele>
        <time>2018-05-26T08:58:53.150Z</time>
      </trkpt>
      <trkpt lat="40.72668667" lon="-3.98673667">
        <ele>1120.0</ele>
        <time>2018-05-26T08:58:54.139Z</time>
      </trkpt>
      <trkpt lat="40.72668667" lon="-3.98673667">
        <ele>1120.0</ele>
        <time>2018-05-26T08:58:55.146Z</time>
      </trkpt>
      <trkpt lat="40.72665667" lon="-3.986835">
        <ele>1120.0</ele>
        <time>2018-05-26T08:58:56.152Z</time>
      </trkpt>
      <trkpt lat="40.72665667" lon="-3.986835">
        <ele>1120.0</ele>
        <time>2018-05-26T08:58:57.159Z</time>
      </trkpt>
      <trkpt lat="40.72662667" lon="-3.98692667">
        <ele>1120.0</ele>
        <time>2018-05-26T08:58:58.145Z</time>
      </trkpt>
      <trkpt lat="40.72661" lon="-3.98696667">
        <ele>1120.0</ele>
        <time>2018-05-26T08:58:59.152Z</time>
      </trkpt>
      <trkpt lat="40.72661" lon="-3.98696667">
        <ele>1120.0</ele>
        <time>2018-05-26T08:59:00.162Z</time>
      </trkpt>
      <trkpt lat="40.72657167" lon="-3.98704167">
        <ele>1120.0</ele>
        <time>2018-05-26T08:59:01.168Z</time>
      </trkpt>
      <trkpt lat="40.72655167" lon="-3.98708">
        <ele>1121.0</ele>
        <time>2018-05-26T08:59:02.149Z</time>
      </trkpt>
      <trkpt lat="40.72655167" lon="-3.98708">
        <ele>1121.0</ele>
        <time>2018-05-26T08:59:03.156Z</time>
      </trkpt>
      <trkpt lat="40.72652" lon="-3.98716833">
        <ele>1121.0</ele>
        <time>2018-05-26T08:59:04.163Z</time>
      </trkpt>
      <trkpt lat="40.72652" lon="-3.98716833">
        <ele>1121.0</ele>
        <time>2018-05-26T08:59:05.171Z</time>
      </trkpt>
      <trkpt lat="40.72649167" lon="-3.98724667">
        <ele>1122.0</ele>
        <time>2018-05-26T08:59:06.137Z</time>
      </trkpt>
      <trkpt lat="40.72649167" lon="-3.98724667">
        <ele>1122.0</ele>
        <time>2018-05-26T08:59:07.143Z</time>
      </trkpt>
      <trkpt lat="40.72646" lon="-3.98732">
        <ele>1123.0</ele>
        <time>2018-05-26T08:59:08.159Z</time>
      </trkpt>
      <trkpt lat="40.726445" lon="-3.98735667">
        <ele>1124.0</ele>
        <time>2018-05-26T08:59:09.159Z</time>
      </trkpt>
      <trkpt lat="40.726445" lon="-3.98735667">
        <ele>1124.0</ele>
        <time>2018-05-26T08:59:10.166Z</time>
      </trkpt>
      <trkpt lat="40.72641167" lon="-3.98743333">
        <ele>1124.0</ele>
        <time>2018-05-26T08:59:11.140Z</time>
      </trkpt>
      <trkpt lat="40.726395" lon="-3.98747667">
        <ele>1123.0</ele>
        <time>2018-05-26T08:59:12.162Z</time>
      </trkpt>
      <trkpt lat="40.726395" lon="-3.98747667">
        <ele>1123.0</ele>
        <time>2018-05-26T08:59:13.168Z</time>
      </trkpt>
      <trkpt lat="40.72635667" lon="-3.98757">
        <ele>1124.0</ele>
        <time>2018-05-26T08:59:14.137Z</time>
      </trkpt>
      <trkpt lat="40.72635667" lon="-3.98757">
        <ele>1124.0</ele>
        <time>2018-05-26T08:59:15.142Z</time>
      </trkpt>
      <trkpt lat="40.72632" lon="-3.98766333">
        <ele>1124.0</ele>
        <time>2018-05-26T08:59:16.148Z</time>
      </trkpt>
      <trkpt lat="40.72632" lon="-3.98766333">
        <ele>1124.0</ele>
        <time>2018-05-26T08:59:17.154Z</time>
      </trkpt>
      <trkpt lat="40.72628" lon="-3.987755">
        <ele>1124.0</ele>
        <time>2018-05-26T08:59:18.161Z</time>
      </trkpt>
      <trkpt lat="40.72628" lon="-3.987755">
        <ele>1124.0</ele>
        <time>2018-05-26T08:59:19.170Z</time>
      </trkpt>
      <trkpt lat="40.72624" lon="-3.98783667">
        <ele>1125.0</ele>
        <time>2018-05-26T08:59:20.175Z</time>
      </trkpt>
      <trkpt lat="40.72624" lon="-3.98783667">
        <ele>1125.0</ele>
        <time>2018-05-26T08:59:21.140Z</time>
      </trkpt>
      <trkpt lat="40.726195" lon="-3.98791667">
        <ele>1125.0</ele>
        <time>2018-05-26T08:59:22.153Z</time>
      </trkpt>
      <trkpt lat="40.726175" lon="-3.987955">
        <ele>1125.0</ele>
        <time>2018-05-26T08:59:23.138Z</time>
      </trkpt>
      <trkpt lat="40.726155" lon="-3.98799667">
        <ele>1125.0</ele>
        <time>2018-05-26T08:59:24.144Z</time>
      </trkpt>
      <trkpt lat="40.726155" lon="-3.98799667">
        <ele>1125.0</ele>
        <time>2018-05-26T08:59:25.151Z</time>
      </trkpt>
      <trkpt lat="40.72610833" lon="-3.988075">
        <ele>1125.0</ele>
        <time>2018-05-26T08:59:26.167Z</time>
      </trkpt>
      <trkpt lat="40.72610833" lon="-3.988075">
        <ele>1125.0</ele>
        <time>2018-05-26T08:59:27.139Z</time>
      </trkpt>
      <trkpt lat="40.72606" lon="-3.98815">
        <ele>1126.0</ele>
        <time>2018-05-26T08:59:28.146Z</time>
      </trkpt>
      <trkpt lat="40.72606" lon="-3.98815">
        <ele>1126.0</ele>
        <time>2018-05-26T08:59:29.151Z</time>
      </trkpt>
      <trkpt lat="40.72601333" lon="-3.98823333">
        <ele>1126.0</ele>
        <time>2018-05-26T08:59:30.151Z</time>
      </trkpt>
      <trkpt lat="40.72601333" lon="-3.98823333">
        <ele>1126.0</ele>
        <time>2018-05-26T08:59:31.156Z</time>
      </trkpt>
      <trkpt lat="40.72596833" lon="-3.98831333">
        <ele>1126.0</ele>
        <time>2018-05-26T08:59:32.166Z</time>
      </trkpt>
      <trkpt lat="40.72596833" lon="-3.98831333">
        <ele>1126.0</ele>
        <time>2018-05-26T08:59:33.149Z</time>
      </trkpt>
      <trkpt lat="40.72593333" lon="-3.9884">
        <ele>1126.0</ele>
        <time>2018-05-26T08:59:34.136Z</time>
      </trkpt>
      <trkpt lat="40.72593333" lon="-3.9884">
        <ele>1126.0</ele>
        <time>2018-05-26T08:59:35.142Z</time>
      </trkpt>
      <trkpt lat="40.72591667" lon="-3.98851">
        <ele>1127.0</ele>
        <time>2018-05-26T08:59:36.153Z</time>
      </trkpt>
      <trkpt lat="40.72592" lon="-3.98855667">
        <ele>1127.0</ele>
        <time>2018-05-26T08:59:37.151Z</time>
      </trkpt>
      <trkpt lat="40.72592" lon="-3.98855667">
        <ele>1127.0</ele>
        <time>2018-05-26T08:59:38.157Z</time>
      </trkpt>
      <trkpt lat="40.72593" lon="-3.98865">
        <ele>1128.0</ele>
        <time>2018-05-26T08:59:39.165Z</time>
      </trkpt>
      <trkpt lat="40.72593167" lon="-3.988695">
        <ele>1128.0</ele>
        <time>2018-05-26T08:59:40.171Z</time>
      </trkpt>
      <trkpt lat="40.72592667" lon="-3.98874333">
        <ele>1128.0</ele>
        <time>2018-05-26T08:59:41.166Z</time>
      </trkpt>
      <trkpt lat="40.72592667" lon="-3.98874333">
        <ele>1128.0</ele>
        <time>2018-05-26T08:59:42.172Z</time>
      </trkpt>
      <trkpt lat="40.72594" lon="-3.98883833">
        <ele>1129.0</ele>
        <time>2018-05-26T08:59:43.165Z</time>
      </trkpt>
      <trkpt lat="40.72595167" lon="-3.98888333">
        <ele>1129.0</ele>
        <time>2018-05-26T08:59:44.146Z</time>
      </trkpt>
      <trkpt lat="40.72595167" lon="-3.98888333">
        <ele>1129.0</ele>
        <time>2018-05-26T08:59:45.152Z</time>
      </trkpt>
      <trkpt lat="40.72597167" lon="-3.98896833">
        <ele>1129.0</ele>
        <time>2018-05-26T08:59:46.159Z</time>
      </trkpt>
      <trkpt lat="40.72597333" lon="-3.98901167">
        <ele>1130.0</ele>
        <time>2018-05-26T08:59:47.136Z</time>
      </trkpt>
      <trkpt lat="40.72597" lon="-3.98905167">
        <ele>1130.0</ele>
        <time>2018-05-26T08:59:48.143Z</time>
      </trkpt>
      <trkpt lat="40.72597" lon="-3.98905167">
        <ele>1130.0</ele>
        <time>2018-05-26T08:59:49.149Z</time>
      </trkpt>
      <trkpt lat="40.72597667" lon="-3.98913167">
        <ele>1130.0</ele>
        <time>2018-05-26T08:59:50.156Z</time>
      </trkpt>
      <trkpt lat="40.72598667" lon="-3.98917">
        <ele>1130.0</ele>
        <time>2018-05-26T08:59:51.140Z</time>
      </trkpt>
      <trkpt lat="40.72598667" lon="-3.98917">
        <ele>1130.0</ele>
        <time>2018-05-26T08:59:52.164Z</time>
      </trkpt>
      <trkpt lat="40.72599833" lon="-3.98925">
        <ele>1131.0</ele>
        <time>2018-05-26T08:59:53.139Z</time>
      </trkpt>
      <trkpt lat="40.72599333" lon="-3.98929167">
        <ele>1131.0</ele>
        <time>2018-05-26T08:59:54.155Z</time>
      </trkpt>
      <trkpt lat="40.72599333" lon="-3.98929167">
        <ele>1131.0</ele>
        <time>2018-05-26T08:59:55.160Z</time>
      </trkpt>
      <trkpt lat="40.72597167" lon="-3.989375">
        <ele>1131.0</ele>
        <time>2018-05-26T08:59:56.167Z</time>
      </trkpt>
      <trkpt lat="40.72597167" lon="-3.989375">
        <ele>1131.0</ele>
        <time>2018-05-26T08:59:57.139Z</time>
      </trkpt>
      <trkpt lat="40.72595" lon="-3.989465">
        <ele>1132.0</ele>
        <time>2018-05-26T08:59:58.140Z</time>
      </trkpt>
      <trkpt lat="40.72595" lon="-3.989465">
        <ele>1132.0</ele>
        <time>2018-05-26T08:59:59.146Z</time>
      </trkpt>
      <trkpt lat="40.72593667" lon="-3.98955333">
        <ele>1133.0</ele>
        <time>2018-05-26T09:00:00.144Z</time>
      </trkpt>
      <trkpt lat="40.72593667" lon="-3.98955333">
        <ele>1133.0</ele>
        <time>2018-05-26T09:00:01.137Z</time>
      </trkpt>
      <trkpt lat="40.72593833" lon="-3.98964167">
        <ele>1133.0</ele>
        <time>2018-05-26T09:00:02.150Z</time>
      </trkpt>
      <trkpt lat="40.72593833" lon="-3.98964167">
        <ele>1133.0</ele>
        <time>2018-05-26T09:00:03.156Z</time>
      </trkpt>
      <trkpt lat="40.72594167" lon="-3.989735">
        <ele>1134.0</ele>
        <time>2018-05-26T09:00:04.160Z</time>
      </trkpt>
      <trkpt lat="40.72594167" lon="-3.989735">
        <ele>1134.0</ele>
        <time>2018-05-26T09:00:05.166Z</time>
      </trkpt>
      <trkpt lat="40.725955" lon="-3.98981667">
        <ele>1134.0</ele>
        <time>2018-05-26T09:00:06.173Z</time>
      </trkpt>
      <trkpt lat="40.725955" lon="-3.98981667">
        <ele>1134.0</ele>
        <time>2018-05-26T09:00:07.142Z</time>
      </trkpt>
      <trkpt lat="40.72597333" lon="-3.98989833">
        <ele>1135.0</ele>
        <time>2018-05-26T09:00:08.170Z</time>
      </trkpt>
      <trkpt lat="40.72597333" lon="-3.98989833">
        <ele>1135.0</ele>
        <time>2018-05-26T09:00:09.136Z</time>
      </trkpt>
      <trkpt lat="40.72598" lon="-3.98997667">
        <ele>1136.0</ele>
        <time>2018-05-26T09:00:10.144Z</time>
      </trkpt>
      <trkpt lat="40.72598833" lon="-3.99001167">
        <ele>1136.0</ele>
        <time>2018-05-26T09:00:11.150Z</time>
      </trkpt>
      <trkpt lat="40.726" lon="-3.99004">
        <ele>1136.0</ele>
        <time>2018-05-26T09:00:12.157Z</time>
      </trkpt>
      <trkpt lat="40.726" lon="-3.99004">
        <ele>1136.0</ele>
        <time>2018-05-26T09:00:13.164Z</time>
      </trkpt>
      <trkpt lat="40.72602" lon="-3.99009167">
        <ele>1137.0</ele>
        <time>2018-05-26T09:00:14.171Z</time>
      </trkpt>
      <trkpt lat="40.72603" lon="-3.990115">
        <ele>1137.0</ele>
        <time>2018-05-26T09:00:15.143Z</time>
      </trkpt>
      <trkpt lat="40.72604167" lon="-3.99013667">
        <ele>1137.0</ele>
        <time>2018-05-26T09:00:16.138Z</time>
      </trkpt>
      <trkpt lat="40.72604167" lon="-3.99013667">
        <ele>1137.0</ele>
        <time>2018-05-26T09:00:17.144Z</time>
      </trkpt>
      <trkpt lat="40.72607" lon="-3.99019167">
        <ele>1137.0</ele>
        <time>2018-05-26T09:00:18.151Z</time>
      </trkpt>
      <trkpt lat="40.72607" lon="-3.99019167">
        <ele>1137.0</ele>
        <time>2018-05-26T09:00:19.156Z</time>
      </trkpt>
      <trkpt lat="40.72608167" lon="-3.99026667">
        <ele>1138.0</ele>
        <time>2018-05-26T09:00:20.141Z</time>
      </trkpt>
      <trkpt lat="40.72608" lon="-3.99030167">
        <ele>1138.0</ele>
        <time>2018-05-26T09:00:21.148Z</time>
      </trkpt>
      <trkpt lat="40.72608" lon="-3.99030167">
        <ele>1138.0</ele>
        <time>2018-05-26T09:00:22.156Z</time>
      </trkpt>
      <trkpt lat="40.72608" lon="-3.99037167">
        <ele>1139.0</ele>
        <time>2018-05-26T09:00:23.146Z</time>
      </trkpt>
      <trkpt lat="40.72608" lon="-3.99037167">
        <ele>1139.0</ele>
        <time>2018-05-26T09:00:24.152Z</time>
      </trkpt>
      <trkpt lat="40.72609333" lon="-3.99042333">
        <ele>1139.0</ele>
        <time>2018-05-26T09:00:25.159Z</time>
      </trkpt>
      <trkpt lat="40.72610333" lon="-3.99044333">
        <ele>1140.0</ele>
        <time>2018-05-26T09:00:26.151Z</time>
      </trkpt>
      <trkpt lat="40.726115" lon="-3.99046167">
        <ele>1140.0</ele>
        <time>2018-05-26T09:00:27.157Z</time>
      </trkpt>
      <trkpt lat="40.726115" lon="-3.99046167">
        <ele>1140.0</ele>
        <time>2018-05-26T09:00:28.163Z</time>
      </trkpt>
      <trkpt lat="40.72613333" lon="-3.99050833">
        <ele>1141.0</ele>
        <time>2018-05-26T09:00:29.146Z</time>
      </trkpt>
      <trkpt lat="40.72613333" lon="-3.99050833">
        <ele>1141.0</ele>
        <time>2018-05-26T09:00:30.152Z</time>
      </trkpt>
      <trkpt lat="40.72613667" lon="-3.99057">
        <ele>1142.0</ele>
        <time>2018-05-26T09:00:31.159Z</time>
      </trkpt>
      <trkpt lat="40.72613667" lon="-3.99057">
        <ele>1142.0</ele>
        <time>2018-05-26T09:00:32.165Z</time>
      </trkpt>
      <trkpt lat="40.72614167" lon="-3.99061833">
        <ele>1143.0</ele>
        <time>2018-05-26T09:00:33.152Z</time>
      </trkpt>
      <trkpt lat="40.72614167" lon="-3.99061833">
        <ele>1143.0</ele>
        <time>2018-05-26T09:00:34.158Z</time>
      </trkpt>
      <trkpt lat="40.72614333" lon="-3.99066667">
        <ele>1143.0</ele>
        <time>2018-05-26T09:00:35.166Z</time>
      </trkpt>
      <trkpt lat="40.72614" lon="-3.99068667">
        <ele>1143.0</ele>
        <time>2018-05-26T09:00:36.141Z</time>
      </trkpt>
      <trkpt lat="40.72614" lon="-3.99068667">
        <ele>1143.0</ele>
        <time>2018-05-26T09:00:37.147Z</time>
      </trkpt>
      <trkpt lat="40.72613167" lon="-3.99072667">
        <ele>1143.0</ele>
        <time>2018-05-26T09:00:38.154Z</time>
      </trkpt>
      <trkpt lat="40.72613" lon="-3.99074833">
        <ele>1144.0</ele>
        <time>2018-05-26T09:00:39.141Z</time>
      </trkpt>
      <trkpt lat="40.72613" lon="-3.99074833">
        <ele>1144.0</ele>
        <time>2018-05-26T09:00:40.148Z</time>
      </trkpt>
      <trkpt lat="40.72612667" lon="-3.99079167">
        <ele>1144.0</ele>
        <time>2018-05-26T09:00:41.155Z</time>
      </trkpt>
      <trkpt lat="40.72612333" lon="-3.99081167">
        <ele>1145.0</ele>
        <time>2018-05-26T09:00:42.157Z</time>
      </trkpt>
      <trkpt lat="40.72612333" lon="-3.99081167">
        <ele>1145.0</ele>
        <time>2018-05-26T09:00:43.163Z</time>
      </trkpt>
      <trkpt lat="40.72611333" lon="-3.99085167">
        <ele>1145.0</ele>
        <time>2018-05-26T09:00:44.170Z</time>
      </trkpt>
      <trkpt lat="40.72611333" lon="-3.99085167">
        <ele>1145.0</ele>
        <time>2018-05-26T09:00:45.137Z</time>
      </trkpt>
      <trkpt lat="40.72609" lon="-3.99088333">
        <ele>1146.0</ele>
        <time>2018-05-26T09:00:46.145Z</time>
      </trkpt>
      <trkpt lat="40.72609" lon="-3.99088333">
        <ele>1146.0</ele>
        <time>2018-05-26T09:00:47.151Z</time>
      </trkpt>
      <trkpt lat="40.726075" lon="-3.990915">
        <ele>1147.0</ele>
        <time>2018-05-26T09:00:48.158Z</time>
      </trkpt>
      <trkpt lat="40.726075" lon="-3.990915">
        <ele>1147.0</ele>
        <time>2018-05-26T09:00:49.164Z</time>
      </trkpt>
      <trkpt lat="40.72606833" lon="-3.99095833">
        <ele>1147.0</ele>
        <time>2018-05-26T09:00:50.140Z</time>
      </trkpt>
      <trkpt lat="40.72606833" lon="-3.99095833">
        <ele>1147.0</ele>
        <time>2018-05-26T09:00:51.146Z</time>
      </trkpt>
      <trkpt lat="40.72606167" lon="-3.991015">
        <ele>1147.0</ele>
        <time>2018-05-26T09:00:52.158Z</time>
      </trkpt>
      <trkpt lat="40.726055" lon="-3.99104333">
        <ele>1147.0</ele>
        <time>2018-05-26T09:00:53.170Z</time>
      </trkpt>
      <trkpt lat="40.726045" lon="-3.99107">
        <ele>1147.0</ele>
        <time>2018-05-26T09:00:54.142Z</time>
      </trkpt>
      <trkpt lat="40.726045" lon="-3.99107">
        <ele>1147.0</ele>
        <time>2018-05-26T09:00:55.147Z</time>
      </trkpt>
      <trkpt lat="40.72602" lon="-3.99112">
        <ele>1147.0</ele>
        <time>2018-05-26T09:00:56.153Z</time>
      </trkpt>
      <trkpt lat="40.72602" lon="-3.99112">
        <ele>1147.0</ele>
        <time>2018-05-26T09:00:57.158Z</time>
      </trkpt>
      <trkpt lat="40.72601833" lon="-3.99119333">
        <ele>1147.0</ele>
        <time>2018-05-26T09:00:58.155Z</time>
      </trkpt>
      <trkpt lat="40.72601833" lon="-3.99119333">
        <ele>1147.0</ele>
        <time>2018-05-26T09:00:59.142Z</time>
      </trkpt>
      <trkpt lat="40.72603333" lon="-3.99126833">
        <ele>1147.0</ele>
        <time>2018-05-26T09:01:00.147Z</time>
      </trkpt>
      <trkpt lat="40.72603333" lon="-3.99126833">
        <ele>1147.0</ele>
        <time>2018-05-26T09:01:01.148Z</time>
      </trkpt>
      <trkpt lat="40.72603833" lon="-3.991345">
        <ele>1147.0</ele>
        <time>2018-05-26T09:01:02.163Z</time>
      </trkpt>
      <trkpt lat="40.72603833" lon="-3.991345">
        <ele>1147.0</ele>
        <time>2018-05-26T09:01:03.169Z</time>
      </trkpt>
      <trkpt lat="40.72603167" lon="-3.991425">
        <ele>1147.0</ele>
        <time>2018-05-26T09:01:04.136Z</time>
      </trkpt>
      <trkpt lat="40.72603167" lon="-3.991425">
        <ele>1147.0</ele>
        <time>2018-05-26T09:01:05.141Z</time>
      </trkpt>
      <trkpt lat="40.72602333" lon="-3.991505">
        <ele>1147.0</ele>
        <time>2018-05-26T09:01:06.148Z</time>
      </trkpt>
      <trkpt lat="40.72602333" lon="-3.991505">
        <ele>1147.0</ele>
        <time>2018-05-26T09:01:07.154Z</time>
      </trkpt>
      <trkpt lat="40.726" lon="-3.99159">
        <ele>1148.0</ele>
        <time>2018-05-26T09:01:08.146Z</time>
      </trkpt>
      <trkpt lat="40.726" lon="-3.99159">
        <ele>1148.0</ele>
        <time>2018-05-26T09:01:09.153Z</time>
      </trkpt>
      <trkpt lat="40.725955" lon="-3.99165">
        <ele>1148.0</ele>
        <time>2018-05-26T09:01:10.160Z</time>
      </trkpt>
      <trkpt lat="40.725955" lon="-3.99165">
        <ele>1148.0</ele>
        <time>2018-05-26T09:01:11.170Z</time>
      </trkpt>
      <trkpt lat="40.72592333" lon="-3.99169667">
        <ele>1148.0</ele>
        <time>2018-05-26T09:01:12.138Z</time>
      </trkpt>
      <trkpt lat="40.72592333" lon="-3.99169667">
        <ele>1148.0</ele>
        <time>2018-05-26T09:01:13.145Z</time>
      </trkpt>
      <trkpt lat="40.725905" lon="-3.99175333">
        <ele>1148.0</ele>
        <time>2018-05-26T09:01:14.152Z</time>
      </trkpt>
      <trkpt lat="40.725905" lon="-3.99175333">
        <ele>1148.0</ele>
        <time>2018-05-26T09:01:15.161Z</time>
      </trkpt>
      <trkpt lat="40.72590333" lon="-3.99183667">
        <ele>1148.0</ele>
        <time>2018-05-26T09:01:16.171Z</time>
      </trkpt>
      <trkpt lat="40.72590333" lon="-3.99183667">
        <ele>1148.0</ele>
        <time>2018-05-26T09:01:17.137Z</time>
      </trkpt>
      <trkpt lat="40.725905" lon="-3.99192167">
        <ele>1148.0</ele>
        <time>2018-05-26T09:01:18.170Z</time>
      </trkpt>
      <trkpt lat="40.725905" lon="-3.99192167">
        <ele>1148.0</ele>
        <time>2018-05-26T09:01:19.136Z</time>
      </trkpt>
      <trkpt lat="40.725905" lon="-3.99200167">
        <ele>1149.0</ele>
        <time>2018-05-26T09:01:20.143Z</time>
      </trkpt>
      <trkpt lat="40.725905" lon="-3.99200167">
        <ele>1149.0</ele>
        <time>2018-05-26T09:01:21.149Z</time>
      </trkpt>
      <trkpt lat="40.72591" lon="-3.99207833">
        <ele>1149.0</ele>
        <time>2018-05-26T09:01:22.143Z</time>
      </trkpt>
      <trkpt lat="40.72591" lon="-3.99207833">
        <ele>1149.0</ele>
        <time>2018-05-26T09:01:23.149Z</time>
      </trkpt>
      <trkpt lat="40.72590167" lon="-3.992155">
        <ele>1149.0</ele>
        <time>2018-05-26T09:01:24.139Z</time>
      </trkpt>
      <trkpt lat="40.72589833" lon="-3.992195">
        <ele>1150.0</ele>
        <time>2018-05-26T09:01:25.149Z</time>
      </trkpt>
      <trkpt lat="40.72589833" lon="-3.992195">
        <ele>1150.0</ele>
        <time>2018-05-26T09:01:26.155Z</time>
      </trkpt>
      <trkpt lat="40.72589" lon="-3.99227333">
        <ele>1150.0</ele>
        <time>2018-05-26T09:01:27.163Z</time>
      </trkpt>
      <trkpt lat="40.72589" lon="-3.99227333">
        <ele>1150.0</ele>
        <time>2018-05-26T09:01:28.171Z</time>
      </trkpt>
      <trkpt lat="40.72587667" lon="-3.99237">
        <ele>1150.0</ele>
        <time>2018-05-26T09:01:29.142Z</time>
      </trkpt>
      <trkpt lat="40.72587667" lon="-3.99237">
        <ele>1150.0</ele>
        <time>2018-05-26T09:01:30.148Z</time>
      </trkpt>
      <trkpt lat="40.72585" lon="-3.99247333">
        <ele>1150.0</ele>
        <time>2018-05-26T09:01:31.155Z</time>
      </trkpt>
      <trkpt lat="40.72583833" lon="-3.99253">
        <ele>1150.0</ele>
        <time>2018-05-26T09:01:32.141Z</time>
      </trkpt>
      <trkpt lat="40.72582333" lon="-3.992585">
        <ele>1150.0</ele>
        <time>2018-05-26T09:01:33.151Z</time>
      </trkpt>
      <trkpt lat="40.72580833" lon="-3.99263833">
        <ele>1149.0</ele>
        <time>2018-05-26T09:01:34.164Z</time>
      </trkpt>
      <trkpt lat="40.72580833" lon="-3.99263833">
        <ele>1149.0</ele>
        <time>2018-05-26T09:01:35.170Z</time>
      </trkpt>
      <trkpt lat="40.725785" lon="-3.992745">
        <ele>1149.0</ele>
        <time>2018-05-26T09:01:36.160Z</time>
      </trkpt>
      <trkpt lat="40.725785" lon="-3.992745">
        <ele>1149.0</ele>
        <time>2018-05-26T09:01:37.166Z</time>
      </trkpt>
      <trkpt lat="40.72575167" lon="-3.99285333">
        <ele>1149.0</ele>
        <time>2018-05-26T09:01:38.143Z</time>
      </trkpt>
      <trkpt lat="40.725735" lon="-3.99290833">
        <ele>1150.0</ele>
        <time>2018-05-26T09:01:39.174Z</time>
      </trkpt>
      <trkpt lat="40.72571833" lon="-3.992965">
        <ele>1150.0</ele>
        <time>2018-05-26T09:01:40.142Z</time>
      </trkpt>
      <trkpt lat="40.72571833" lon="-3.992965">
        <ele>1150.0</ele>
        <time>2018-05-26T09:01:41.148Z</time>
      </trkpt>
      <trkpt lat="40.72569" lon="-3.99308667">
        <ele>1149.0</ele>
        <time>2018-05-26T09:01:42.166Z</time>
      </trkpt>
      <trkpt lat="40.72569" lon="-3.99308667">
        <ele>1149.0</ele>
        <time>2018-05-26T09:01:43.150Z</time>
      </trkpt>
      <trkpt lat="40.7257" lon="-3.99321333">
        <ele>1149.0</ele>
        <time>2018-05-26T09:01:44.140Z</time>
      </trkpt>
      <trkpt lat="40.72571" lon="-3.99327167">
        <ele>1149.0</ele>
        <time>2018-05-26T09:01:45.146Z</time>
      </trkpt>
      <trkpt lat="40.72571" lon="-3.99327167">
        <ele>1149.0</ele>
        <time>2018-05-26T09:01:46.153Z</time>
      </trkpt>
      <trkpt lat="40.725725" lon="-3.99338">
        <ele>1150.0</ele>
        <time>2018-05-26T09:01:47.149Z</time>
      </trkpt>
      <trkpt lat="40.72574333" lon="-3.993435">
        <ele>1150.0</ele>
        <time>2018-05-26T09:01:48.156Z</time>
      </trkpt>
      <trkpt lat="40.72574333" lon="-3.993435">
        <ele>1150.0</ele>
        <time>2018-05-26T09:01:49.162Z</time>
      </trkpt>
      <trkpt lat="40.72576833" lon="-3.99355">
        <ele>1151.0</ele>
        <time>2018-05-26T09:01:50.150Z</time>
      </trkpt>
      <trkpt lat="40.725775" lon="-3.99360833">
        <ele>1151.0</ele>
        <time>2018-05-26T09:01:51.157Z</time>
      </trkpt>
      <trkpt lat="40.725775" lon="-3.99360833">
        <ele>1151.0</ele>
        <time>2018-05-26T09:01:52.163Z</time>
      </trkpt>
      <trkpt lat="40.72578167" lon="-3.99372167">
        <ele>1151.0</ele>
        <time>2018-05-26T09:01:53.143Z</time>
      </trkpt>
      <trkpt lat="40.72578167" lon="-3.99377667">
        <ele>1152.0</ele>
        <time>2018-05-26T09:01:54.150Z</time>
      </trkpt>
      <trkpt lat="40.72578167" lon="-3.99377667">
        <ele>1152.0</ele>
        <time>2018-05-26T09:01:55.156Z</time>
      </trkpt>
      <trkpt lat="40.72578167" lon="-3.99388333">
        <ele>1152.0</ele>
        <time>2018-05-26T09:01:56.152Z</time>
      </trkpt>
      <trkpt lat="40.72578167" lon="-3.99388333">
        <ele>1152.0</ele>
        <time>2018-05-26T09:01:57.157Z</time>
      </trkpt>
      <trkpt lat="40.72577167" lon="-3.993985">
        <ele>1152.0</ele>
        <time>2018-05-26T09:01:58.164Z</time>
      </trkpt>
      <trkpt lat="40.72576167" lon="-3.99403333">
        <ele>1153.0</ele>
        <time>2018-05-26T09:01:59.155Z</time>
      </trkpt>
      <trkpt lat="40.72576167" lon="-3.99403333">
        <ele>1153.0</ele>
        <time>2018-05-26T09:02:00.145Z</time>
      </trkpt>
      <trkpt lat="40.72573167" lon="-3.994125">
        <ele>1153.0</ele>
        <time>2018-05-26T09:02:01.148Z</time>
      </trkpt>
      <trkpt lat="40.72571167" lon="-3.99416">
        <ele>1153.0</ele>
        <time>2018-05-26T09:02:02.156Z</time>
      </trkpt>
      <trkpt lat="40.72571167" lon="-3.99416">
        <ele>1153.0</ele>
        <time>2018-05-26T09:02:03.161Z</time>
      </trkpt>
      <trkpt lat="40.72566333" lon="-3.99424167">
        <ele>1153.0</ele>
        <time>2018-05-26T09:02:04.169Z</time>
      </trkpt>
      <trkpt lat="40.72566333" lon="-3.99424167">
        <ele>1153.0</ele>
        <time>2018-05-26T09:02:05.136Z</time>
      </trkpt>
      <trkpt lat="40.72559833" lon="-3.994325">
        <ele>1153.0</ele>
        <time>2018-05-26T09:02:06.171Z</time>
      </trkpt>
      <trkpt lat="40.72559833" lon="-3.994325">
        <ele>1153.0</ele>
        <time>2018-05-26T09:02:07.142Z</time>
      </trkpt>
      <trkpt lat="40.72554833" lon="-3.99441833">
        <ele>1152.0</ele>
        <time>2018-05-26T09:02:08.159Z</time>
      </trkpt>
      <trkpt lat="40.72553333" lon="-3.99446667">
        <ele>1152.0</ele>
        <time>2018-05-26T09:02:09.160Z</time>
      </trkpt>
      <trkpt lat="40.725525" lon="-3.99451333">
        <ele>1152.0</ele>
        <time>2018-05-26T09:02:10.167Z</time>
      </trkpt>
      <trkpt lat="40.725525" lon="-3.99451333">
        <ele>1152.0</ele>
        <time>2018-05-26T09:02:11.175Z</time>
      </trkpt>
      <trkpt lat="40.72551833" lon="-3.99458833">
        <ele>1154.0</ele>
        <time>2018-05-26T09:02:12.149Z</time>
      </trkpt>
      <trkpt lat="40.72551833" lon="-3.99458833">
        <ele>1154.0</ele>
        <time>2018-05-26T09:02:13.142Z</time>
      </trkpt>
      <trkpt lat="40.72552" lon="-3.99465667">
        <ele>1154.0</ele>
        <time>2018-05-26T09:02:14.148Z</time>
      </trkpt>
      <trkpt lat="40.72552" lon="-3.99465667">
        <ele>1154.0</ele>
        <time>2018-05-26T09:02:15.154Z</time>
      </trkpt>
      <trkpt lat="40.725545" lon="-3.99474">
        <ele>1154.0</ele>
        <time>2018-05-26T09:02:16.161Z</time>
      </trkpt>
      <trkpt lat="40.725545" lon="-3.99474">
        <ele>1154.0</ele>
        <time>2018-05-26T09:02:17.170Z</time>
      </trkpt>
      <trkpt lat="40.72556667" lon="-3.99479833">
        <ele>1154.0</ele>
        <time>2018-05-26T09:02:18.146Z</time>
      </trkpt>
      <trkpt lat="40.72556667" lon="-3.99479833">
        <ele>1154.0</ele>
        <time>2018-05-26T09:02:19.152Z</time>
      </trkpt>
      <trkpt lat="40.72557333" lon="-3.99485667">
        <ele>1153.0</ele>
        <time>2018-05-26T09:02:20.159Z</time>
      </trkpt>
      <trkpt lat="40.725575" lon="-3.99489">
        <ele>1153.0</ele>
        <time>2018-05-26T09:02:21.165Z</time>
      </trkpt>
      <trkpt lat="40.725575" lon="-3.99489">
        <ele>1153.0</ele>
        <time>2018-05-26T09:02:22.140Z</time>
      </trkpt>
      <trkpt lat="40.72558667" lon="-3.99494333">
        <ele>1153.0</ele>
        <time>2018-05-26T09:02:23.150Z</time>
      </trkpt>
      <trkpt lat="40.72559" lon="-3.99497167">
        <ele>1154.0</ele>
        <time>2018-05-26T09:02:24.156Z</time>
      </trkpt>
      <trkpt lat="40.72559" lon="-3.99497167">
        <ele>1154.0</ele>
        <time>2018-05-26T09:02:25.162Z</time>
      </trkpt>
      <trkpt lat="40.72559167" lon="-3.99502833">
        <ele>1154.0</ele>
        <time>2018-05-26T09:02:26.169Z</time>
      </trkpt>
      <trkpt lat="40.72559333" lon="-3.99506333">
        <ele>1154.0</ele>
        <time>2018-05-26T09:02:27.145Z</time>
      </trkpt>
      <trkpt lat="40.72559333" lon="-3.99506333">
        <ele>1154.0</ele>
        <time>2018-05-26T09:02:28.151Z</time>
      </trkpt>
      <trkpt lat="40.725605" lon="-3.99512333">
        <ele>1155.0</ele>
        <time>2018-05-26T09:02:29.158Z</time>
      </trkpt>
      <trkpt lat="40.72561833" lon="-3.99514167">
        <ele>1155.0</ele>
        <time>2018-05-26T09:02:30.136Z</time>
      </trkpt>
      <trkpt lat="40.72561833" lon="-3.99514167">
        <ele>1155.0</ele>
        <time>2018-05-26T09:02:31.143Z</time>
      </trkpt>
      <trkpt lat="40.72564333" lon="-3.99518333">
        <ele>1156.0</ele>
        <time>2018-05-26T09:02:32.150Z</time>
      </trkpt>
      <trkpt lat="40.72564333" lon="-3.99518333">
        <ele>1156.0</ele>
        <time>2018-05-26T09:02:33.156Z</time>
      </trkpt>
      <trkpt lat="40.72565" lon="-3.995195">
        <ele>1156.0</ele>
        <time>2018-05-26T09:02:34.151Z</time>
      </trkpt>
      <trkpt lat="40.72565" lon="-3.995195">
        <ele>1156.0</ele>
        <time>2018-05-26T09:02:35.157Z</time>
      </trkpt>
      <trkpt lat="40.72565" lon="-3.99521667">
        <ele>1157.0</ele>
        <time>2018-05-26T09:02:36.164Z</time>
      </trkpt>
      <trkpt lat="40.72564667" lon="-3.99523">
        <ele>1157.0</ele>
        <time>2018-05-26T09:02:37.150Z</time>
      </trkpt>
      <trkpt lat="40.72564667" lon="-3.99523">
        <ele>1157.0</ele>
        <time>2018-05-26T09:02:38.156Z</time>
      </trkpt>
      <trkpt lat="40.72565167" lon="-3.99525333">
        <ele>1158.0</ele>
        <time>2018-05-26T09:02:39.139Z</time>
      </trkpt>
      <trkpt lat="40.725655" lon="-3.99526333">
        <ele>1158.0</ele>
        <time>2018-05-26T09:02:40.148Z</time>
      </trkpt>
      <trkpt lat="40.725655" lon="-3.99526333">
        <ele>1158.0</ele>
        <time>2018-05-26T09:02:41.154Z</time>
      </trkpt>
      <trkpt lat="40.72565833" lon="-3.995275">
        <ele>1158.0</ele>
        <time>2018-05-26T09:02:42.162Z</time>
      </trkpt>
      <trkpt lat="40.72565833" lon="-3.995275">
        <ele>1158.0</ele>
        <time>2018-05-26T09:02:43.170Z</time>
      </trkpt>
      <trkpt lat="40.72566" lon="-3.99527333">
        <ele>1159.0</ele>
        <time>2018-05-26T09:02:44.175Z</time>
      </trkpt>
      <trkpt lat="40.72568667" lon="-3.99531333">
        <ele>1160.0</ele>
        <time>2018-05-26T09:02:45.174Z</time>
      </trkpt>
      <trkpt lat="40.72568667" lon="-3.99531333">
        <ele>1160.0</ele>
        <time>2018-05-26T09:02:46.174Z</time>
      </trkpt>
      <trkpt lat="40.72569" lon="-3.99533833">
        <ele>1161.0</ele>
        <time>2018-05-26T09:02:47.142Z</time>
      </trkpt>
      <trkpt lat="40.72569" lon="-3.99533833">
        <ele>1161.0</ele>
        <time>2018-05-26T09:02:48.168Z</time>
      </trkpt>
      <trkpt lat="40.72568833" lon="-3.99536">
        <ele>1161.0</ele>
        <time>2018-05-26T09:02:49.175Z</time>
      </trkpt>
      <trkpt lat="40.72568833" lon="-3.99536667">
        <ele>1161.0</ele>
        <time>2018-05-26T09:02:50.144Z</time>
      </trkpt>
      <trkpt lat="40.72568833" lon="-3.99536667">
        <ele>1161.0</ele>
        <time>2018-05-26T09:02:51.157Z</time>
      </trkpt>
      <trkpt lat="40.72568667" lon="-3.995385">
        <ele>1162.0</ele>
        <time>2018-05-26T09:02:52.165Z</time>
      </trkpt>
      <trkpt lat="40.72568667" lon="-3.995385">
        <ele>1162.0</ele>
        <time>2018-05-26T09:02:53.163Z</time>
      </trkpt>
      <trkpt lat="40.72569" lon="-3.99541">
        <ele>1162.0</ele>
        <time>2018-05-26T09:02:54.140Z</time>
      </trkpt>
      <trkpt lat="40.72569" lon="-3.99541">
        <ele>1162.0</ele>
        <time>2018-05-26T09:02:55.165Z</time>
      </trkpt>
      <trkpt lat="40.72570167" lon="-3.99544167">
        <ele>1163.0</ele>
        <time>2018-05-26T09:02:56.171Z</time>
      </trkpt>
      <trkpt lat="40.72570167" lon="-3.99544167">
        <ele>1163.0</ele>
        <time>2018-05-26T09:02:57.149Z</time>
      </trkpt>
      <trkpt lat="40.72571167" lon="-3.99545667">
        <ele>1163.0</ele>
        <time>2018-05-26T09:02:58.150Z</time>
      </trkpt>
      <trkpt lat="40.725715" lon="-3.99545667">
        <ele>1163.0</ele>
        <time>2018-05-26T09:02:59.156Z</time>
      </trkpt>
      <trkpt lat="40.725715" lon="-3.99545667">
        <ele>1163.0</ele>
        <time>2018-05-26T09:03:00.152Z</time>
      </trkpt>
      <trkpt lat="40.725715" lon="-3.99545667">
        <ele>1163.0</ele>
        <time>2018-05-26T09:03:01.143Z</time>
      </trkpt>
      <trkpt lat="40.725795" lon="-3.995555">
        <ele>1164.0</ele>
        <time>2018-05-26T09:03:02.148Z</time>
      </trkpt>
      <trkpt lat="40.725795" lon="-3.995555">
        <ele>1164.0</ele>
        <time>2018-05-26T09:03:03.149Z</time>
      </trkpt>
      <trkpt lat="40.72581333" lon="-3.99557167">
        <ele>1164.0</ele>
        <time>2018-05-26T09:03:04.147Z</time>
      </trkpt>
      <trkpt lat="40.72582" lon="-3.99557667">
        <ele>1164.0</ele>
        <time>2018-05-26T09:03:05.164Z</time>
      </trkpt>
      <trkpt lat="40.725835" lon="-3.99558667">
        <ele>1164.0</ele>
        <time>2018-05-26T09:03:06.136Z</time>
      </trkpt>
      <trkpt lat="40.725835" lon="-3.99558667">
        <ele>1164.0</ele>
        <time>2018-05-26T09:03:07.147Z</time>
      </trkpt>
      <trkpt lat="40.72586667" lon="-3.99562333">
        <ele>1164.0</ele>
        <time>2018-05-26T09:03:08.165Z</time>
      </trkpt>
      <trkpt lat="40.72586667" lon="-3.99562333">
        <ele>1164.0</ele>
        <time>2018-05-26T09:03:09.136Z</time>
      </trkpt>
      <trkpt lat="40.725895" lon="-3.99567333">
        <ele>1165.0</ele>
        <time>2018-05-26T09:03:10.158Z</time>
      </trkpt>
      <trkpt lat="40.72591167" lon="-3.99569333">
        <ele>1165.0</ele>
        <time>2018-05-26T09:03:11.163Z</time>
      </trkpt>
      <trkpt lat="40.72591167" lon="-3.99569333">
        <ele>1165.0</ele>
        <time>2018-05-26T09:03:12.173Z</time>
      </trkpt>
      <trkpt lat="40.725945" lon="-3.99572167">
        <ele>1166.0</ele>
        <time>2018-05-26T09:03:13.140Z</time>
      </trkpt>
      <trkpt lat="40.72596667" lon="-3.99573833">
        <ele>1166.0</ele>
        <time>2018-05-26T09:03:14.144Z</time>
      </trkpt>
      <trkpt lat="40.72596667" lon="-3.99573833">
        <ele>1166.0</ele>
        <time>2018-05-26T09:03:15.152Z</time>
      </trkpt>
      <trkpt lat="40.72600833" lon="-3.99576667">
        <ele>1167.0</ele>
        <time>2018-05-26T09:03:16.161Z</time>
      </trkpt>
      <trkpt lat="40.72600833" lon="-3.99576667">
        <ele>1167.0</ele>
        <time>2018-05-26T09:03:17.138Z</time>
      </trkpt>
      <trkpt lat="40.726055" lon="-3.99580333">
        <ele>1168.0</ele>
        <time>2018-05-26T09:03:18.158Z</time>
      </trkpt>
      <trkpt lat="40.726055" lon="-3.99580333">
        <ele>1168.0</ele>
        <time>2018-05-26T09:03:19.166Z</time>
      </trkpt>
      <trkpt lat="40.7261" lon="-3.99585667">
        <ele>1169.0</ele>
        <time>2018-05-26T09:03:20.143Z</time>
      </trkpt>
      <trkpt lat="40.7261" lon="-3.99585667">
        <ele>1169.0</ele>
        <time>2018-05-26T09:03:21.161Z</time>
      </trkpt>
      <trkpt lat="40.72614833" lon="-3.99588">
        <ele>1169.0</ele>
        <time>2018-05-26T09:03:22.162Z</time>
      </trkpt>
      <trkpt lat="40.72614833" lon="-3.99588">
        <ele>1169.0</ele>
        <time>2018-05-26T09:03:23.174Z</time>
      </trkpt>
      <trkpt lat="40.72620333" lon="-3.99588">
        <ele>1169.0</ele>
        <time>2018-05-26T09:03:24.143Z</time>
      </trkpt>
      <trkpt lat="40.72620333" lon="-3.99588">
        <ele>1169.0</ele>
        <time>2018-05-26T09:03:25.160Z</time>
      </trkpt>
      <trkpt lat="40.72626" lon="-3.99587167">
        <ele>1170.0</ele>
        <time>2018-05-26T09:03:26.139Z</time>
      </trkpt>
      <trkpt lat="40.72626" lon="-3.99587167">
        <ele>1170.0</ele>
        <time>2018-05-26T09:03:27.147Z</time>
      </trkpt>
      <trkpt lat="40.72631167" lon="-3.99586">
        <ele>1170.0</ele>
        <time>2018-05-26T09:03:28.155Z</time>
      </trkpt>
      <trkpt lat="40.72631167" lon="-3.99586">
        <ele>1170.0</ele>
        <time>2018-05-26T09:03:29.172Z</time>
      </trkpt>
      <trkpt lat="40.72636333" lon="-3.99584833">
        <ele>1171.0</ele>
        <time>2018-05-26T09:03:30.168Z</time>
      </trkpt>
      <trkpt lat="40.72636333" lon="-3.99584833">
        <ele>1171.0</ele>
        <time>2018-05-26T09:03:31.175Z</time>
      </trkpt>
      <trkpt lat="40.72640333" lon="-3.99583833">
        <ele>1171.0</ele>
        <time>2018-05-26T09:03:32.172Z</time>
      </trkpt>
      <trkpt lat="40.726425" lon="-3.99583667">
        <ele>1172.0</ele>
        <time>2018-05-26T09:03:33.142Z</time>
      </trkpt>
      <trkpt lat="40.726425" lon="-3.99583667">
        <ele>1172.0</ele>
        <time>2018-05-26T09:03:34.151Z</time>
      </trkpt>
      <trkpt lat="40.72646167" lon="-3.99582667">
        <ele>1173.0</ele>
        <time>2018-05-26T09:03:35.148Z</time>
      </trkpt>
      <trkpt lat="40.72646167" lon="-3.99582667">
        <ele>1173.0</ele>
        <time>2018-05-26T09:03:36.157Z</time>
      </trkpt>
      <trkpt lat="40.72649833" lon="-3.995805">
        <ele>1173.0</ele>
        <time>2018-05-26T09:03:37.172Z</time>
      </trkpt>
      <trkpt lat="40.72649833" lon="-3.995805">
        <ele>1173.0</ele>
        <time>2018-05-26T09:03:38.141Z</time>
      </trkpt>
      <trkpt lat="40.72653333" lon="-3.99578667">
        <ele>1174.0</ele>
        <time>2018-05-26T09:03:39.175Z</time>
      </trkpt>
      <trkpt lat="40.72653333" lon="-3.99578667">
        <ele>1174.0</ele>
        <time>2018-05-26T09:03:40.147Z</time>
      </trkpt>
      <trkpt lat="40.72657" lon="-3.99578333">
        <ele>1174.0</ele>
        <time>2018-05-26T09:03:41.158Z</time>
      </trkpt>
      <trkpt lat="40.72657" lon="-3.99578333">
        <ele>1174.0</ele>
        <time>2018-05-26T09:03:42.165Z</time>
      </trkpt>
      <trkpt lat="40.7266" lon="-3.995785">
        <ele>1174.0</ele>
        <time>2018-05-26T09:03:43.175Z</time>
      </trkpt>
      <trkpt lat="40.7266" lon="-3.995785">
        <ele>1174.0</ele>
        <time>2018-05-26T09:03:44.144Z</time>
      </trkpt>
      <trkpt lat="40.72663" lon="-3.99578333">
        <ele>1175.0</ele>
        <time>2018-05-26T09:03:45.154Z</time>
      </trkpt>
      <trkpt lat="40.72664667" lon="-3.99577667">
        <ele>1175.0</ele>
        <time>2018-05-26T09:03:46.173Z</time>
      </trkpt>
      <trkpt lat="40.72664667" lon="-3.99577667">
        <ele>1175.0</ele>
        <time>2018-05-26T09:03:47.140Z</time>
      </trkpt>
      <trkpt lat="40.72668" lon="-3.99575833">
        <ele>1176.0</ele>
        <time>2018-05-26T09:03:48.150Z</time>
      </trkpt>
      <trkpt lat="40.72668" lon="-3.99575833">
        <ele>1176.0</ele>
        <time>2018-05-26T09:03:49.157Z</time>
      </trkpt>
      <trkpt lat="40.72670833" lon="-3.99575833">
        <ele>1176.0</ele>
        <time>2018-05-26T09:03:50.175Z</time>
      </trkpt>
      <trkpt lat="40.72670833" lon="-3.99575833">
        <ele>1176.0</ele>
        <time>2018-05-26T09:03:51.145Z</time>
      </trkpt>
      <trkpt lat="40.72675" lon="-3.99577">
        <ele>1177.0</ele>
        <time>2018-05-26T09:03:52.154Z</time>
      </trkpt>
      <trkpt lat="40.72676833" lon="-3.995775">
        <ele>1177.0</ele>
        <time>2018-05-26T09:03:53.137Z</time>
      </trkpt>
      <trkpt lat="40.72676833" lon="-3.995775">
        <ele>1177.0</ele>
        <time>2018-05-26T09:03:54.144Z</time>
      </trkpt>
      <trkpt lat="40.72679833" lon="-3.99577">
        <ele>1178.0</ele>
        <time>2018-05-26T09:03:55.161Z</time>
      </trkpt>
      <trkpt lat="40.726815" lon="-3.995765">
        <ele>1178.0</ele>
        <time>2018-05-26T09:03:56.175Z</time>
      </trkpt>
      <trkpt lat="40.726815" lon="-3.995765">
        <ele>1178.0</ele>
        <time>2018-05-26T09:03:57.144Z</time>
      </trkpt>
      <trkpt lat="40.72684333" lon="-3.99573833">
        <ele>1179.0</ele>
        <time>2018-05-26T09:03:58.152Z</time>
      </trkpt>
      <trkpt lat="40.72684333" lon="-3.99573833">
        <ele>1179.0</ele>
        <time>2018-05-26T09:03:59.160Z</time>
      </trkpt>
      <trkpt lat="40.72687" lon="-3.99571">
        <ele>1180.0</ele>
        <time>2018-05-26T09:04:00.160Z</time>
      </trkpt>
      <trkpt lat="40.72687" lon="-3.99571">
        <ele>1180.0</ele>
        <time>2018-05-26T09:04:01.144Z</time>
      </trkpt>
      <trkpt lat="40.72690167" lon="-3.99569">
        <ele>1180.0</ele>
        <time>2018-05-26T09:04:02.154Z</time>
      </trkpt>
      <trkpt lat="40.72690167" lon="-3.99569">
        <ele>1180.0</ele>
        <time>2018-05-26T09:04:03.162Z</time>
      </trkpt>
      <trkpt lat="40.72693833" lon="-3.995685">
        <ele>1181.0</ele>
        <time>2018-05-26T09:04:04.170Z</time>
      </trkpt>
      <trkpt lat="40.72693833" lon="-3.995685">
        <ele>1181.0</ele>
        <time>2018-05-26T09:04:05.138Z</time>
      </trkpt>
      <trkpt lat="40.72698" lon="-3.99568667">
        <ele>1181.0</ele>
        <time>2018-05-26T09:04:06.140Z</time>
      </trkpt>
      <trkpt lat="40.72698" lon="-3.99568667">
        <ele>1181.0</ele>
        <time>2018-05-26T09:04:07.146Z</time>
      </trkpt>
      <trkpt lat="40.727015" lon="-3.99569833">
        <ele>1181.0</ele>
        <time>2018-05-26T09:04:08.154Z</time>
      </trkpt>
      <trkpt lat="40.727015" lon="-3.99569833">
        <ele>1181.0</ele>
        <time>2018-05-26T09:04:09.163Z</time>
      </trkpt>
      <trkpt lat="40.727045" lon="-3.99568333">
        <ele>1181.0</ele>
        <time>2018-05-26T09:04:10.168Z</time>
      </trkpt>
      <trkpt lat="40.727045" lon="-3.99568333">
        <ele>1181.0</ele>
        <time>2018-05-26T09:04:11.136Z</time>
      </trkpt>
      <trkpt lat="40.72706667" lon="-3.995645">
        <ele>1182.0</ele>
        <time>2018-05-26T09:04:12.146Z</time>
      </trkpt>
      <trkpt lat="40.72706667" lon="-3.995645">
        <ele>1182.0</ele>
        <time>2018-05-26T09:04:13.153Z</time>
      </trkpt>
      <trkpt lat="40.72709" lon="-3.99561833">
        <ele>1182.0</ele>
        <time>2018-05-26T09:04:14.139Z</time>
      </trkpt>
      <trkpt lat="40.72709" lon="-3.99561833">
        <ele>1182.0</ele>
        <time>2018-05-26T09:04:15.146Z</time>
      </trkpt>
      <trkpt lat="40.72712" lon="-3.9956">
        <ele>1182.0</ele>
        <time>2018-05-26T09:04:16.154Z</time>
      </trkpt>
      <trkpt lat="40.72713833" lon="-3.995595">
        <ele>1182.0</ele>
        <time>2018-05-26T09:04:17.167Z</time>
      </trkpt>
      <trkpt lat="40.72713833" lon="-3.995595">
        <ele>1182.0</ele>
        <time>2018-05-26T09:04:18.174Z</time>
      </trkpt>
      <trkpt lat="40.72717833" lon="-3.99558333">
        <ele>1182.0</ele>
        <time>2018-05-26T09:04:19.141Z</time>
      </trkpt>
      <trkpt lat="40.72717833" lon="-3.99558333">
        <ele>1182.0</ele>
        <time>2018-05-26T09:04:20.147Z</time>
      </trkpt>
      <trkpt lat="40.72722" lon="-3.99558167">
        <ele>1183.0</ele>
        <time>2018-05-26T09:04:21.168Z</time>
      </trkpt>
      <trkpt lat="40.72722" lon="-3.99558167">
        <ele>1183.0</ele>
        <time>2018-05-26T09:04:22.175Z</time>
      </trkpt>
      <trkpt lat="40.72726333" lon="-3.99559">
        <ele>1183.0</ele>
        <time>2018-05-26T09:04:23.148Z</time>
      </trkpt>
      <trkpt lat="40.727285" lon="-3.9956">
        <ele>1183.0</ele>
        <time>2018-05-26T09:04:24.170Z</time>
      </trkpt>
      <trkpt lat="40.727285" lon="-3.9956">
        <ele>1183.0</ele>
        <time>2018-05-26T09:04:25.138Z</time>
      </trkpt>
      <trkpt lat="40.72733" lon="-3.99561833">
        <ele>1183.0</ele>
        <time>2018-05-26T09:04:26.145Z</time>
      </trkpt>
      <trkpt lat="40.72733" lon="-3.99561833">
        <ele>1183.0</ele>
        <time>2018-05-26T09:04:27.151Z</time>
      </trkpt>
      <trkpt lat="40.72736833" lon="-3.99562667">
        <ele>1184.0</ele>
        <time>2018-05-26T09:04:28.153Z</time>
      </trkpt>
      <trkpt lat="40.72736833" lon="-3.99562667">
        <ele>1184.0</ele>
        <time>2018-05-26T09:04:29.160Z</time>
      </trkpt>
      <trkpt lat="40.72740667" lon="-3.99561333">
        <ele>1183.0</ele>
        <time>2018-05-26T09:04:30.136Z</time>
      </trkpt>
      <trkpt lat="40.72740667" lon="-3.99561333">
        <ele>1183.0</ele>
        <time>2018-05-26T09:04:31.143Z</time>
      </trkpt>
      <trkpt lat="40.72745167" lon="-3.99560833">
        <ele>1183.0</ele>
        <time>2018-05-26T09:04:32.142Z</time>
      </trkpt>
      <trkpt lat="40.72747833" lon="-3.99561167">
        <ele>1183.0</ele>
        <time>2018-05-26T09:04:33.150Z</time>
      </trkpt>
      <trkpt lat="40.72747833" lon="-3.99561167">
        <ele>1183.0</ele>
        <time>2018-05-26T09:04:34.158Z</time>
      </trkpt>
      <trkpt lat="40.72752333" lon="-3.99561833">
        <ele>1183.0</ele>
        <time>2018-05-26T09:04:35.149Z</time>
      </trkpt>
      <trkpt lat="40.727545" lon="-3.99562167">
        <ele>1184.0</ele>
        <time>2018-05-26T09:04:36.156Z</time>
      </trkpt>
      <trkpt lat="40.727545" lon="-3.99562167">
        <ele>1184.0</ele>
        <time>2018-05-26T09:04:37.170Z</time>
      </trkpt>
      <trkpt lat="40.72759333" lon="-3.99562167">
        <ele>1184.0</ele>
        <time>2018-05-26T09:04:38.148Z</time>
      </trkpt>
      <trkpt lat="40.727615" lon="-3.99562333">
        <ele>1184.0</ele>
        <time>2018-05-26T09:04:39.155Z</time>
      </trkpt>
      <trkpt lat="40.727615" lon="-3.99562333">
        <ele>1184.0</ele>
        <time>2018-05-26T09:04:40.170Z</time>
      </trkpt>
      <trkpt lat="40.72765667" lon="-3.99563333">
        <ele>1184.0</ele>
        <time>2018-05-26T09:04:41.158Z</time>
      </trkpt>
      <trkpt lat="40.72767667" lon="-3.99564167">
        <ele>1184.0</ele>
        <time>2018-05-26T09:04:42.139Z</time>
      </trkpt>
      <trkpt lat="40.72767667" lon="-3.99564167">
        <ele>1184.0</ele>
        <time>2018-05-26T09:04:43.146Z</time>
      </trkpt>
      <trkpt lat="40.72771167" lon="-3.995665">
        <ele>1184.0</ele>
        <time>2018-05-26T09:04:44.138Z</time>
      </trkpt>
      <trkpt lat="40.72771167" lon="-3.995665">
        <ele>1184.0</ele>
        <time>2018-05-26T09:04:45.139Z</time>
      </trkpt>
      <trkpt lat="40.72774" lon="-3.99567833">
        <ele>1185.0</ele>
        <time>2018-05-26T09:04:46.151Z</time>
      </trkpt>
      <trkpt lat="40.72774" lon="-3.99567833">
        <ele>1185.0</ele>
        <time>2018-05-26T09:04:47.159Z</time>
      </trkpt>
      <trkpt lat="40.72777833" lon="-3.99566667">
        <ele>1185.0</ele>
        <time>2018-05-26T09:04:48.175Z</time>
      </trkpt>
      <trkpt lat="40.72777833" lon="-3.99566667">
        <ele>1185.0</ele>
        <time>2018-05-26T09:04:49.143Z</time>
      </trkpt>
      <trkpt lat="40.72781833" lon="-3.99566167">
        <ele>1186.0</ele>
        <time>2018-05-26T09:04:50.140Z</time>
      </trkpt>
      <trkpt lat="40.72781833" lon="-3.99566167">
        <ele>1186.0</ele>
        <time>2018-05-26T09:04:51.148Z</time>
      </trkpt>
      <trkpt lat="40.72785333" lon="-3.99567333">
        <ele>1186.0</ele>
        <time>2018-05-26T09:04:52.165Z</time>
      </trkpt>
      <trkpt lat="40.72785333" lon="-3.99567333">
        <ele>1186.0</ele>
        <time>2018-05-26T09:04:53.172Z</time>
      </trkpt>
      <trkpt lat="40.72789" lon="-3.99568667">
        <ele>1186.0</ele>
        <time>2018-05-26T09:04:54.173Z</time>
      </trkpt>
      <trkpt lat="40.72789" lon="-3.99568667">
        <ele>1186.0</ele>
        <time>2018-05-26T09:04:55.139Z</time>
      </trkpt>
      <trkpt lat="40.72793" lon="-3.99571167">
        <ele>1187.0</ele>
        <time>2018-05-26T09:04:56.147Z</time>
      </trkpt>
      <trkpt lat="40.72793" lon="-3.99571167">
        <ele>1187.0</ele>
        <time>2018-05-26T09:04:57.155Z</time>
      </trkpt>
      <trkpt lat="40.72797167" lon="-3.99572333">
        <ele>1188.0</ele>
        <time>2018-05-26T09:04:58.154Z</time>
      </trkpt>
      <trkpt lat="40.72797167" lon="-3.99572333">
        <ele>1188.0</ele>
        <time>2018-05-26T09:04:59.170Z</time>
      </trkpt>
      <trkpt lat="40.728015" lon="-3.99572167">
        <ele>1188.0</ele>
        <time>2018-05-26T09:05:00.169Z</time>
      </trkpt>
      <trkpt lat="40.728035" lon="-3.995715">
        <ele>1188.0</ele>
        <time>2018-05-26T09:05:01.147Z</time>
      </trkpt>
      <trkpt lat="40.728035" lon="-3.995715">
        <ele>1188.0</ele>
        <time>2018-05-26T09:05:02.155Z</time>
      </trkpt>
      <trkpt lat="40.728075" lon="-3.99569833">
        <ele>1188.0</ele>
        <time>2018-05-26T09:05:03.138Z</time>
      </trkpt>
      <trkpt lat="40.72809833" lon="-3.99568667">
        <ele>1188.0</ele>
        <time>2018-05-26T09:05:04.145Z</time>
      </trkpt>
      <trkpt lat="40.72809833" lon="-3.99568667">
        <ele>1188.0</ele>
        <time>2018-05-26T09:05:05.152Z</time>
      </trkpt>
      <trkpt lat="40.72813667" lon="-3.995655">
        <ele>1189.0</ele>
        <time>2018-05-26T09:05:06.139Z</time>
      </trkpt>
      <trkpt lat="40.72813667" lon="-3.995655">
        <ele>1189.0</ele>
        <time>2018-05-26T09:05:07.145Z</time>
      </trkpt>
      <trkpt lat="40.72817833" lon="-3.99563">
        <ele>1189.0</ele>
        <time>2018-05-26T09:05:08.152Z</time>
      </trkpt>
      <trkpt lat="40.7282" lon="-3.99562">
        <ele>1190.0</ele>
        <time>2018-05-26T09:05:09.138Z</time>
      </trkpt>
      <trkpt lat="40.7282" lon="-3.99562">
        <ele>1190.0</ele>
        <time>2018-05-26T09:05:10.139Z</time>
      </trkpt>
      <trkpt lat="40.72824667" lon="-3.99558833">
        <ele>1190.0</ele>
        <time>2018-05-26T09:05:11.151Z</time>
      </trkpt>
      <trkpt lat="40.72826833" lon="-3.99557833">
        <ele>1190.0</ele>
        <time>2018-05-26T09:05:12.168Z</time>
      </trkpt>
      <trkpt lat="40.72826833" lon="-3.99557833">
        <ele>1190.0</ele>
        <time>2018-05-26T09:05:13.175Z</time>
      </trkpt>
      <trkpt lat="40.72831833" lon="-3.99557333">
        <ele>1190.0</ele>
        <time>2018-05-26T09:05:14.159Z</time>
      </trkpt>
      <trkpt lat="40.72831833" lon="-3.99557333">
        <ele>1190.0</ele>
        <time>2018-05-26T09:05:15.169Z</time>
      </trkpt>
      <trkpt lat="40.72838" lon="-3.995605">
        <ele>1189.0</ele>
        <time>2018-05-26T09:05:16.137Z</time>
      </trkpt>
      <trkpt lat="40.72840667" lon="-3.99564333">
        <ele>1189.0</ele>
        <time>2018-05-26T09:05:17.159Z</time>
      </trkpt>
      <trkpt lat="40.72840667" lon="-3.99564333">
        <ele>1189.0</ele>
        <time>2018-05-26T09:05:18.166Z</time>
      </trkpt>
      <trkpt lat="40.72847" lon="-3.99570333">
        <ele>1188.0</ele>
        <time>2018-05-26T09:05:19.175Z</time>
      </trkpt>
      <trkpt lat="40.72847" lon="-3.99570333">
        <ele>1188.0</ele>
        <time>2018-05-26T09:05:20.142Z</time>
      </trkpt>
      <trkpt lat="40.72854333" lon="-3.99572833">
        <ele>1188.0</ele>
        <time>2018-05-26T09:05:21.139Z</time>
      </trkpt>
      <trkpt lat="40.72854333" lon="-3.99572833">
        <ele>1188.0</ele>
        <time>2018-05-26T09:05:22.145Z</time>
      </trkpt>
      <trkpt lat="40.72861167" lon="-3.99575">
        <ele>1188.0</ele>
        <time>2018-05-26T09:05:23.151Z</time>
      </trkpt>
      <trkpt lat="40.72864167" lon="-3.99577167">
        <ele>1188.0</ele>
        <time>2018-05-26T09:05:24.146Z</time>
      </trkpt>
      <trkpt lat="40.72864167" lon="-3.99577167">
        <ele>1188.0</ele>
        <time>2018-05-26T09:05:25.139Z</time>
      </trkpt>
      <trkpt lat="40.72870667" lon="-3.99582">
        <ele>1188.0</ele>
        <time>2018-05-26T09:05:26.164Z</time>
      </trkpt>
      <trkpt lat="40.72870667" lon="-3.99582">
        <ele>1188.0</ele>
        <time>2018-05-26T09:05:27.172Z</time>
      </trkpt>
      <trkpt lat="40.72878" lon="-3.99585">
        <ele>1188.0</ele>
        <time>2018-05-26T09:05:28.139Z</time>
      </trkpt>
      <trkpt lat="40.72878" lon="-3.99585">
        <ele>1188.0</ele>
        <time>2018-05-26T09:05:29.154Z</time>
      </trkpt>
      <trkpt lat="40.72885333" lon="-3.99585667">
        <ele>1189.0</ele>
        <time>2018-05-26T09:05:30.139Z</time>
      </trkpt>
      <trkpt lat="40.72885333" lon="-3.99585667">
        <ele>1189.0</ele>
        <time>2018-05-26T09:05:31.146Z</time>
      </trkpt>
      <trkpt lat="40.72889333" lon="-3.995895">
        <ele>1190.0</ele>
        <time>2018-05-26T09:05:32.154Z</time>
      </trkpt>
      <trkpt lat="40.728915" lon="-3.995915">
        <ele>1190.0</ele>
        <time>2018-05-26T09:05:33.137Z</time>
      </trkpt>
      <trkpt lat="40.728915" lon="-3.995915">
        <ele>1190.0</ele>
        <time>2018-05-26T09:05:34.151Z</time>
      </trkpt>
      <trkpt lat="40.728955" lon="-3.995935">
        <ele>1191.0</ele>
        <time>2018-05-26T09:05:35.158Z</time>
      </trkpt>
      <trkpt lat="40.72897167" lon="-3.995935">
        <ele>1191.0</ele>
        <time>2018-05-26T09:05:36.173Z</time>
      </trkpt>
      <trkpt lat="40.72897167" lon="-3.995935">
        <ele>1191.0</ele>
        <time>2018-05-26T09:05:37.141Z</time>
      </trkpt>
      <trkpt lat="40.729005" lon="-3.99594">
        <ele>1190.0</ele>
        <time>2018-05-26T09:05:38.148Z</time>
      </trkpt>
      <trkpt lat="40.729005" lon="-3.99594">
        <ele>1190.0</ele>
        <time>2018-05-26T09:05:39.155Z</time>
      </trkpt>
      <trkpt lat="40.72903833" lon="-3.995965">
        <ele>1190.0</ele>
        <time>2018-05-26T09:05:40.151Z</time>
      </trkpt>
      <trkpt lat="40.72903833" lon="-3.995965">
        <ele>1190.0</ele>
        <time>2018-05-26T09:05:41.157Z</time>
      </trkpt>
      <trkpt lat="40.72907333" lon="-3.995975">
        <ele>1192.0</ele>
        <time>2018-05-26T09:05:42.153Z</time>
      </trkpt>
      <trkpt lat="40.72907333" lon="-3.995975">
        <ele>1192.0</ele>
        <time>2018-05-26T09:05:43.160Z</time>
      </trkpt>
      <trkpt lat="40.72912333" lon="-3.99599">
        <ele>1192.0</ele>
        <time>2018-05-26T09:05:44.174Z</time>
      </trkpt>
      <trkpt lat="40.72914333" lon="-3.99599167">
        <ele>1193.0</ele>
        <time>2018-05-26T09:05:45.159Z</time>
      </trkpt>
      <trkpt lat="40.72916833" lon="-3.99597833">
        <ele>1192.0</ele>
        <time>2018-05-26T09:05:46.172Z</time>
      </trkpt>
      <trkpt lat="40.72916833" lon="-3.99597833">
        <ele>1192.0</ele>
        <time>2018-05-26T09:05:47.139Z</time>
      </trkpt>
      <trkpt lat="40.72922" lon="-3.99596833">
        <ele>1193.0</ele>
        <time>2018-05-26T09:05:48.147Z</time>
      </trkpt>
      <trkpt lat="40.72922" lon="-3.99596833">
        <ele>1193.0</ele>
        <time>2018-05-26T09:05:49.150Z</time>
      </trkpt>
      <trkpt lat="40.72926333" lon="-3.99600667">
        <ele>1193.0</ele>
        <time>2018-05-26T09:05:50.137Z</time>
      </trkpt>
      <trkpt lat="40.72926333" lon="-3.99600667">
        <ele>1193.0</ele>
        <time>2018-05-26T09:05:51.144Z</time>
      </trkpt>
      <trkpt lat="40.72931" lon="-3.99604667">
        <ele>1193.0</ele>
        <time>2018-05-26T09:05:52.152Z</time>
      </trkpt>
      <trkpt lat="40.72931" lon="-3.99604667">
        <ele>1193.0</ele>
        <time>2018-05-26T09:05:53.159Z</time>
      </trkpt>
      <trkpt lat="40.72936333" lon="-3.996075">
        <ele>1193.0</ele>
        <time>2018-05-26T09:05:54.139Z</time>
      </trkpt>
      <trkpt lat="40.72936333" lon="-3.996075">
        <ele>1193.0</ele>
        <time>2018-05-26T09:05:55.146Z</time>
      </trkpt>
      <trkpt lat="40.72941333" lon="-3.99611667">
        <ele>1194.0</ele>
        <time>2018-05-26T09:05:56.154Z</time>
      </trkpt>
      <trkpt lat="40.72943833" lon="-3.99613833">
        <ele>1194.0</ele>
        <time>2018-05-26T09:05:57.169Z</time>
      </trkpt>
      <trkpt lat="40.72943833" lon="-3.99613833">
        <ele>1194.0</ele>
        <time>2018-05-26T09:05:58.136Z</time>
      </trkpt>
      <trkpt lat="40.72947833" lon="-3.99617333">
        <ele>1194.0</ele>
        <time>2018-05-26T09:05:59.156Z</time>
      </trkpt>
      <trkpt lat="40.72949667" lon="-3.99619167">
        <ele>1194.0</ele>
        <time>2018-05-26T09:06:00.142Z</time>
      </trkpt>
      <trkpt lat="40.72951667" lon="-3.99621333">
        <ele>1194.0</ele>
        <time>2018-05-26T09:06:01.140Z</time>
      </trkpt>
      <trkpt lat="40.72951667" lon="-3.99621333">
        <ele>1194.0</ele>
        <time>2018-05-26T09:06:02.147Z</time>
      </trkpt>
      <trkpt lat="40.72956667" lon="-3.99625667">
        <ele>1194.0</ele>
        <time>2018-05-26T09:06:03.156Z</time>
      </trkpt>
      <trkpt lat="40.72959" lon="-3.99627333">
        <ele>1194.0</ele>
        <time>2018-05-26T09:06:04.164Z</time>
      </trkpt>
      <trkpt lat="40.72959" lon="-3.99627333">
        <ele>1194.0</ele>
        <time>2018-05-26T09:06:05.170Z</time>
      </trkpt>
      <trkpt lat="40.729645" lon="-3.99629333">
        <ele>1194.0</ele>
        <time>2018-05-26T09:06:06.137Z</time>
      </trkpt>
      <trkpt lat="40.729645" lon="-3.99629333">
        <ele>1194.0</ele>
        <time>2018-05-26T09:06:07.145Z</time>
      </trkpt>
      <trkpt lat="40.72969667" lon="-3.99629333">
        <ele>1195.0</ele>
        <time>2018-05-26T09:06:08.149Z</time>
      </trkpt>
      <trkpt lat="40.72969667" lon="-3.99629333">
        <ele>1195.0</ele>
        <time>2018-05-26T09:06:09.154Z</time>
      </trkpt>
      <trkpt lat="40.72973167" lon="-3.99629833">
        <ele>1194.0</ele>
        <time>2018-05-26T09:06:10.169Z</time>
      </trkpt>
      <trkpt lat="40.72973167" lon="-3.99629833">
        <ele>1194.0</ele>
        <time>2018-05-26T09:06:11.175Z</time>
      </trkpt>
      <trkpt lat="40.729755" lon="-3.99631">
        <ele>1195.0</ele>
        <time>2018-05-26T09:06:12.173Z</time>
      </trkpt>
      <trkpt lat="40.729755" lon="-3.99631">
        <ele>1195.0</ele>
        <time>2018-05-26T09:06:13.140Z</time>
      </trkpt>
      <trkpt lat="40.72977167" lon="-3.99631333">
        <ele>1195.0</ele>
        <time>2018-05-26T09:06:14.137Z</time>
      </trkpt>
      <trkpt lat="40.72977167" lon="-3.99631333">
        <ele>1195.0</ele>
        <time>2018-05-26T09:06:15.143Z</time>
      </trkpt>
      <trkpt lat="40.72980333" lon="-3.996315">
        <ele>1195.0</ele>
        <time>2018-05-26T09:06:16.169Z</time>
      </trkpt>
      <trkpt lat="40.72980333" lon="-3.996315">
        <ele>1195.0</ele>
        <time>2018-05-26T09:06:17.175Z</time>
      </trkpt>
      <trkpt lat="40.729845" lon="-3.99632333">
        <ele>1195.0</ele>
        <time>2018-05-26T09:06:18.143Z</time>
      </trkpt>
      <trkpt lat="40.729845" lon="-3.99632333">
        <ele>1195.0</ele>
        <time>2018-05-26T09:06:19.149Z</time>
      </trkpt>
      <trkpt lat="40.72988333" lon="-3.996335">
        <ele>1195.0</ele>
        <time>2018-05-26T09:06:20.174Z</time>
      </trkpt>
      <trkpt lat="40.729905" lon="-3.99634333">
        <ele>1195.0</ele>
        <time>2018-05-26T09:06:21.142Z</time>
      </trkpt>
      <trkpt lat="40.729905" lon="-3.99634333">
        <ele>1195.0</ele>
        <time>2018-05-26T09:06:22.149Z</time>
      </trkpt>
      <trkpt lat="40.729945" lon="-3.99637167">
        <ele>1195.0</ele>
        <time>2018-05-26T09:06:23.144Z</time>
      </trkpt>
      <trkpt lat="40.72997" lon="-3.99638">
        <ele>1195.0</ele>
        <time>2018-05-26T09:06:24.151Z</time>
      </trkpt>
      <trkpt lat="40.72997" lon="-3.99638">
        <ele>1195.0</ele>
        <time>2018-05-26T09:06:25.160Z</time>
      </trkpt>
      <trkpt lat="40.730015" lon="-3.9964">
        <ele>1195.0</ele>
        <time>2018-05-26T09:06:26.156Z</time>
      </trkpt>
      <trkpt lat="40.730015" lon="-3.9964">
        <ele>1195.0</ele>
        <time>2018-05-26T09:06:27.164Z</time>
      </trkpt>
      <trkpt lat="40.73005333" lon="-3.99642667">
        <ele>1195.0</ele>
        <time>2018-05-26T09:06:28.171Z</time>
      </trkpt>
      <trkpt lat="40.73005333" lon="-3.99642667">
        <ele>1195.0</ele>
        <time>2018-05-26T09:06:29.138Z</time>
      </trkpt>
      <trkpt lat="40.73010167" lon="-3.99644667">
        <ele>1196.0</ele>
        <time>2018-05-26T09:06:30.153Z</time>
      </trkpt>
      <trkpt lat="40.730125" lon="-3.99645167">
        <ele>1196.0</ele>
        <time>2018-05-26T09:06:31.161Z</time>
      </trkpt>
      <trkpt lat="40.730125" lon="-3.99645167">
        <ele>1196.0</ele>
        <time>2018-05-26T09:06:32.168Z</time>
      </trkpt>
      <trkpt lat="40.73016333" lon="-3.996465">
        <ele>1197.0</ele>
        <time>2018-05-26T09:06:33.173Z</time>
      </trkpt>
      <trkpt lat="40.73016333" lon="-3.996465">
        <ele>1197.0</ele>
        <time>2018-05-26T09:06:34.139Z</time>
      </trkpt>
      <trkpt lat="40.730185" lon="-3.99647667">
        <ele>1197.0</ele>
        <time>2018-05-26T09:06:35.147Z</time>
      </trkpt>
      <trkpt lat="40.73020167" lon="-3.99648667">
        <ele>1197.0</ele>
        <time>2018-05-26T09:06:36.155Z</time>
      </trkpt>
      <trkpt lat="40.73020167" lon="-3.99648667">
        <ele>1197.0</ele>
        <time>2018-05-26T09:06:37.161Z</time>
      </trkpt>
      <trkpt lat="40.730235" lon="-3.99651833">
        <ele>1197.0</ele>
        <time>2018-05-26T09:06:38.171Z</time>
      </trkpt>
      <trkpt lat="40.730235" lon="-3.99651833">
        <ele>1197.0</ele>
        <time>2018-05-26T09:06:39.137Z</time>
      </trkpt>
      <trkpt lat="40.73027167" lon="-3.996555">
        <ele>1197.0</ele>
        <time>2018-05-26T09:06:40.153Z</time>
      </trkpt>
      <trkpt lat="40.73027167" lon="-3.996555">
        <ele>1197.0</ele>
        <time>2018-05-26T09:06:41.160Z</time>
      </trkpt>
      <trkpt lat="40.730305" lon="-3.99659333">
        <ele>1198.0</ele>
        <time>2018-05-26T09:06:42.176Z</time>
      </trkpt>
      <trkpt lat="40.730305" lon="-3.99659333">
        <ele>1198.0</ele>
        <time>2018-05-26T09:06:43.142Z</time>
      </trkpt>
      <trkpt lat="40.73032333" lon="-3.99664833">
        <ele>1198.0</ele>
        <time>2018-05-26T09:06:44.156Z</time>
      </trkpt>
      <trkpt lat="40.73032333" lon="-3.99664833">
        <ele>1198.0</ele>
        <time>2018-05-26T09:06:45.163Z</time>
      </trkpt>
      <trkpt lat="40.73034667" lon="-3.99671333">
        <ele>1198.0</ele>
        <time>2018-05-26T09:06:46.171Z</time>
      </trkpt>
      <trkpt lat="40.73034667" lon="-3.99671333">
        <ele>1198.0</ele>
        <time>2018-05-26T09:06:47.138Z</time>
      </trkpt>
      <trkpt lat="40.730355" lon="-3.996795">
        <ele>1199.0</ele>
        <time>2018-05-26T09:06:48.139Z</time>
      </trkpt>
      <trkpt lat="40.730355" lon="-3.996795">
        <ele>1199.0</ele>
        <time>2018-05-26T09:06:49.146Z</time>
      </trkpt>
      <trkpt lat="40.73036167" lon="-3.99688">
        <ele>1198.0</ele>
        <time>2018-05-26T09:06:50.153Z</time>
      </trkpt>
      <trkpt lat="40.73038667" lon="-3.99690167">
        <ele>1198.0</ele>
        <time>2018-05-26T09:06:51.137Z</time>
      </trkpt>
      <trkpt lat="40.73038667" lon="-3.99690167">
        <ele>1198.0</ele>
        <time>2018-05-26T09:06:52.145Z</time>
      </trkpt>
      <trkpt lat="40.73044667" lon="-3.99688333">
        <ele>1199.0</ele>
        <time>2018-05-26T09:06:53.157Z</time>
      </trkpt>
      <trkpt lat="40.73048" lon="-3.99687167">
        <ele>1199.0</ele>
        <time>2018-05-26T09:06:54.149Z</time>
      </trkpt>
      <trkpt lat="40.73048" lon="-3.99687167">
        <ele>1199.0</ele>
        <time>2018-05-26T09:06:55.155Z</time>
      </trkpt>
      <trkpt lat="40.73053667" lon="-3.996855">
        <ele>1200.0</ele>
        <time>2018-05-26T09:06:56.137Z</time>
      </trkpt>
      <trkpt lat="40.730565" lon="-3.996855">
        <ele>1200.0</ele>
        <time>2018-05-26T09:06:57.174Z</time>
      </trkpt>
      <trkpt lat="40.730565" lon="-3.996855">
        <ele>1200.0</ele>
        <time>2018-05-26T09:06:58.141Z</time>
      </trkpt>
      <trkpt lat="40.730615" lon="-3.99686833">
        <ele>1200.0</ele>
        <time>2018-05-26T09:06:59.144Z</time>
      </trkpt>
      <trkpt lat="40.73063667" lon="-3.996875">
        <ele>1200.0</ele>
        <time>2018-05-26T09:07:00.141Z</time>
      </trkpt>
      <trkpt lat="40.73063667" lon="-3.996875">
        <ele>1200.0</ele>
        <time>2018-05-26T09:07:01.154Z</time>
      </trkpt>
      <trkpt lat="40.73066" lon="-3.99691833">
        <ele>1200.0</ele>
        <time>2018-05-26T09:07:02.162Z</time>
      </trkpt>
      <trkpt lat="40.73067167" lon="-3.99695">
        <ele>1200.0</ele>
        <time>2018-05-26T09:07:03.174Z</time>
      </trkpt>
      <trkpt lat="40.73067167" lon="-3.99695">
        <ele>1200.0</ele>
        <time>2018-05-26T09:07:04.141Z</time>
      </trkpt>
      <trkpt lat="40.73070667" lon="-3.99701167">
        <ele>1199.0</ele>
        <time>2018-05-26T09:07:05.149Z</time>
      </trkpt>
      <trkpt lat="40.730735" lon="-3.99704167">
        <ele>1199.0</ele>
        <time>2018-05-26T09:07:06.160Z</time>
      </trkpt>
      <trkpt lat="40.730735" lon="-3.99704167">
        <ele>1199.0</ele>
        <time>2018-05-26T09:07:07.169Z</time>
      </trkpt>
      <trkpt lat="40.73079" lon="-3.99710833">
        <ele>1199.0</ele>
        <time>2018-05-26T09:07:08.136Z</time>
      </trkpt>
      <trkpt lat="40.73079" lon="-3.99710833">
        <ele>1199.0</ele>
        <time>2018-05-26T09:07:09.141Z</time>
      </trkpt>
      <trkpt lat="40.73084833" lon="-3.997165">
        <ele>1199.0</ele>
        <time>2018-05-26T09:07:10.172Z</time>
      </trkpt>
      <trkpt lat="40.73084833" lon="-3.997165">
        <ele>1199.0</ele>
        <time>2018-05-26T09:07:11.139Z</time>
      </trkpt>
      <trkpt lat="40.73090167" lon="-3.99722">
        <ele>1199.0</ele>
        <time>2018-05-26T09:07:12.147Z</time>
      </trkpt>
      <trkpt lat="40.73092833" lon="-3.99724167">
        <ele>1199.0</ele>
        <time>2018-05-26T09:07:13.171Z</time>
      </trkpt>
      <trkpt lat="40.73092833" lon="-3.99724167">
        <ele>1199.0</ele>
        <time>2018-05-26T09:07:14.137Z</time>
      </trkpt>
      <trkpt lat="40.73098667" lon="-3.99728833">
        <ele>1198.0</ele>
        <time>2018-05-26T09:07:15.148Z</time>
      </trkpt>
      <trkpt lat="40.731015" lon="-3.99731833">
        <ele>1198.0</ele>
        <time>2018-05-26T09:07:16.161Z</time>
      </trkpt>
      <trkpt lat="40.731015" lon="-3.99731833">
        <ele>1198.0</ele>
        <time>2018-05-26T09:07:17.169Z</time>
      </trkpt>
      <trkpt lat="40.731045" lon="-3.9974">
        <ele>1199.0</ele>
        <time>2018-05-26T09:07:18.137Z</time>
      </trkpt>
      <trkpt lat="40.731045" lon="-3.9974">
        <ele>1199.0</ele>
        <time>2018-05-26T09:07:19.144Z</time>
      </trkpt>
      <trkpt lat="40.73105833" lon="-3.997495">
        <ele>1199.0</ele>
        <time>2018-05-26T09:07:20.140Z</time>
      </trkpt>
      <trkpt lat="40.73105833" lon="-3.997495">
        <ele>1199.0</ele>
        <time>2018-05-26T09:07:21.147Z</time>
      </trkpt>
      <trkpt lat="40.73107" lon="-3.99760333">
        <ele>1199.0</ele>
        <time>2018-05-26T09:07:22.154Z</time>
      </trkpt>
      <trkpt lat="40.73107" lon="-3.99760333">
        <ele>1199.0</ele>
        <time>2018-05-26T09:07:23.161Z</time>
      </trkpt>
      <trkpt lat="40.731085" lon="-3.99772">
        <ele>1198.0</ele>
        <time>2018-05-26T09:07:24.148Z</time>
      </trkpt>
      <trkpt lat="40.731085" lon="-3.99772">
        <ele>1198.0</ele>
        <time>2018-05-26T09:07:25.153Z</time>
      </trkpt>
      <trkpt lat="40.73108333" lon="-3.99781833">
        <ele>1199.0</ele>
        <time>2018-05-26T09:07:26.161Z</time>
      </trkpt>
      <trkpt lat="40.731065" lon="-3.99785333">
        <ele>1199.0</ele>
        <time>2018-05-26T09:07:27.159Z</time>
      </trkpt>
      <trkpt lat="40.731065" lon="-3.99785333">
        <ele>1199.0</ele>
        <time>2018-05-26T09:07:28.168Z</time>
      </trkpt>
      <trkpt lat="40.73104667" lon="-3.99793833">
        <ele>1199.0</ele>
        <time>2018-05-26T09:07:29.137Z</time>
      </trkpt>
      <trkpt lat="40.73105" lon="-3.99797167">
        <ele>1198.0</ele>
        <time>2018-05-26T09:07:30.146Z</time>
      </trkpt>
      <trkpt lat="40.73105" lon="-3.99797167">
        <ele>1198.0</ele>
        <time>2018-05-26T09:07:31.170Z</time>
      </trkpt>
      <trkpt lat="40.731095" lon="-3.998025">
        <ele>1198.0</ele>
        <time>2018-05-26T09:07:32.140Z</time>
      </trkpt>
      <trkpt lat="40.731095" lon="-3.998025">
        <ele>1198.0</ele>
        <time>2018-05-26T09:07:33.147Z</time>
      </trkpt>
      <trkpt lat="40.73113" lon="-3.99808167">
        <ele>1198.0</ele>
        <time>2018-05-26T09:07:34.154Z</time>
      </trkpt>
      <trkpt lat="40.73114" lon="-3.998115">
        <ele>1198.0</ele>
        <time>2018-05-26T09:07:35.169Z</time>
      </trkpt>
      <trkpt lat="40.73114" lon="-3.998115">
        <ele>1198.0</ele>
        <time>2018-05-26T09:07:36.136Z</time>
      </trkpt>
      <trkpt lat="40.731155" lon="-3.99820167">
        <ele>1197.0</ele>
        <time>2018-05-26T09:07:37.158Z</time>
      </trkpt>
      <trkpt lat="40.73116" lon="-3.99825">
        <ele>1197.0</ele>
        <time>2018-05-26T09:07:38.148Z</time>
      </trkpt>
      <trkpt lat="40.73116" lon="-3.99825">
        <ele>1197.0</ele>
        <time>2018-05-26T09:07:39.156Z</time>
      </trkpt>
      <trkpt lat="40.73117167" lon="-3.99835167">
        <ele>1197.0</ele>
        <time>2018-05-26T09:07:40.139Z</time>
      </trkpt>
      <trkpt lat="40.73117833" lon="-3.99840167">
        <ele>1197.0</ele>
        <time>2018-05-26T09:07:41.166Z</time>
      </trkpt>
      <trkpt lat="40.73118667" lon="-3.99845">
        <ele>1197.0</ele>
        <time>2018-05-26T09:07:42.175Z</time>
      </trkpt>
      <trkpt lat="40.73118667" lon="-3.99845">
        <ele>1197.0</ele>
        <time>2018-05-26T09:07:43.141Z</time>
      </trkpt>
      <trkpt lat="40.7312" lon="-3.998555">
        <ele>1197.0</ele>
        <time>2018-05-26T09:07:44.171Z</time>
      </trkpt>
      <trkpt lat="40.73121" lon="-3.99861167">
        <ele>1197.0</ele>
        <time>2018-05-26T09:07:45.144Z</time>
      </trkpt>
      <trkpt lat="40.73121" lon="-3.99861167">
        <ele>1197.0</ele>
        <time>2018-05-26T09:07:46.150Z</time>
      </trkpt>
      <trkpt lat="40.731225" lon="-3.99872667">
        <ele>1197.0</ele>
        <time>2018-05-26T09:07:47.157Z</time>
      </trkpt>
      <trkpt lat="40.73123167" lon="-3.99878333">
        <ele>1197.0</ele>
        <time>2018-05-26T09:07:48.148Z</time>
      </trkpt>
      <trkpt lat="40.73124167" lon="-3.99883833">
        <ele>1197.0</ele>
        <time>2018-05-26T09:07:49.149Z</time>
      </trkpt>
      <trkpt lat="40.73124167" lon="-3.99883833">
        <ele>1197.0</ele>
        <time>2018-05-26T09:07:50.156Z</time>
      </trkpt>
      <trkpt lat="40.73125333" lon="-3.99893333">
        <ele>1197.0</ele>
        <time>2018-05-26T09:07:51.164Z</time>
      </trkpt>
      <trkpt lat="40.73125667" lon="-3.99897667">
        <ele>1197.0</ele>
        <time>2018-05-26T09:07:52.142Z</time>
      </trkpt>
      <trkpt lat="40.73125667" lon="-3.99897667">
        <ele>1197.0</ele>
        <time>2018-05-26T09:07:53.148Z</time>
      </trkpt>
      <trkpt lat="40.73125167" lon="-3.99906667">
        <ele>1198.0</ele>
        <time>2018-05-26T09:07:54.158Z</time>
      </trkpt>
      <trkpt lat="40.73125167" lon="-3.99911">
        <ele>1198.0</ele>
        <time>2018-05-26T09:07:55.149Z</time>
      </trkpt>
      <trkpt lat="40.73125167" lon="-3.99911">
        <ele>1198.0</ele>
        <time>2018-05-26T09:07:56.156Z</time>
      </trkpt>
      <trkpt lat="40.73125333" lon="-3.99919167">
        <ele>1198.0</ele>
        <time>2018-05-26T09:07:57.138Z</time>
      </trkpt>
      <trkpt lat="40.73126" lon="-3.99922167">
        <ele>1198.0</ele>
        <time>2018-05-26T09:07:58.139Z</time>
      </trkpt>
      <trkpt lat="40.73126" lon="-3.99922167">
        <ele>1198.0</ele>
        <time>2018-05-26T09:07:59.145Z</time>
      </trkpt>
      <trkpt lat="40.731295" lon="-3.99924667">
        <ele>1198.0</ele>
        <time>2018-05-26T09:08:00.174Z</time>
      </trkpt>
      <trkpt lat="40.731295" lon="-3.99924667">
        <ele>1198.0</ele>
        <time>2018-05-26T09:08:01.166Z</time>
      </trkpt>
      <trkpt lat="40.73133167" lon="-3.99921833">
        <ele>1199.0</ele>
        <time>2018-05-26T09:08:02.174Z</time>
      </trkpt>
      <trkpt lat="40.73135333" lon="-3.999195">
        <ele>1199.0</ele>
        <time>2018-05-26T09:08:03.143Z</time>
      </trkpt>
      <trkpt lat="40.73135333" lon="-3.999195">
        <ele>1199.0</ele>
        <time>2018-05-26T09:08:04.150Z</time>
      </trkpt>
      <trkpt lat="40.73139833" lon="-3.99916333">
        <ele>1199.0</ele>
        <time>2018-05-26T09:08:05.168Z</time>
      </trkpt>
      <trkpt lat="40.731415" lon="-3.99914667">
        <ele>1199.0</ele>
        <time>2018-05-26T09:08:06.139Z</time>
      </trkpt>
      <trkpt lat="40.731415" lon="-3.99914667">
        <ele>1199.0</ele>
        <time>2018-05-26T09:08:07.144Z</time>
      </trkpt>
      <trkpt lat="40.731435" lon="-3.99912">
        <ele>1199.0</ele>
        <time>2018-05-26T09:08:08.152Z</time>
      </trkpt>
      <trkpt lat="40.73144833" lon="-3.999105">
        <ele>1199.0</ele>
        <time>2018-05-26T09:08:09.158Z</time>
      </trkpt>
      <trkpt lat="40.73144833" lon="-3.999105">
        <ele>1199.0</ele>
        <time>2018-05-26T09:08:10.172Z</time>
      </trkpt>
      <trkpt lat="40.73148333" lon="-3.99907333">
        <ele>1199.0</ele>
        <time>2018-05-26T09:08:11.149Z</time>
      </trkpt>
      <trkpt lat="40.73148333" lon="-3.99907333">
        <ele>1199.0</ele>
        <time>2018-05-26T09:08:12.155Z</time>
      </trkpt>
      <trkpt lat="40.73153" lon="-3.99905">
        <ele>1199.0</ele>
        <time>2018-05-26T09:08:13.162Z</time>
      </trkpt>
      <trkpt lat="40.73153" lon="-3.99905">
        <ele>1199.0</ele>
        <time>2018-05-26T09:08:14.168Z</time>
      </trkpt>
      <trkpt lat="40.73159167" lon="-3.99901833">
        <ele>1200.0</ele>
        <time>2018-05-26T09:08:15.175Z</time>
      </trkpt>
      <trkpt lat="40.73159167" lon="-3.99901833">
        <ele>1200.0</ele>
        <time>2018-05-26T09:08:16.150Z</time>
      </trkpt>
      <trkpt lat="40.73162833" lon="-3.99900333">
        <ele>1200.0</ele>
        <time>2018-05-26T09:08:17.157Z</time>
      </trkpt>
      <trkpt lat="40.73163833" lon="-3.99901333">
        <ele>1201.0</ele>
        <time>2018-05-26T09:08:18.175Z</time>
      </trkpt>
      <trkpt lat="40.73163833" lon="-3.99901333">
        <ele>1201.0</ele>
        <time>2018-05-26T09:08:19.140Z</time>
      </trkpt>
      <trkpt lat="40.73163" lon="-3.999065">
        <ele>1201.0</ele>
        <time>2018-05-26T09:08:20.149Z</time>
      </trkpt>
      <trkpt lat="40.73163" lon="-3.999065">
        <ele>1201.0</ele>
        <time>2018-05-26T09:08:21.155Z</time>
      </trkpt>
      <trkpt lat="40.73161" lon="-3.99915333">
        <ele>1201.0</ele>
        <time>2018-05-26T09:08:22.171Z</time>
      </trkpt>
      <trkpt lat="40.73161667" lon="-3.99921333">
        <ele>1200.0</ele>
        <time>2018-05-26T09:08:23.168Z</time>
      </trkpt>
      <trkpt lat="40.73162833" lon="-3.999275">
        <ele>1199.0</ele>
        <time>2018-05-26T09:08:24.139Z</time>
      </trkpt>
      <trkpt lat="40.73162833" lon="-3.999275">
        <ele>1199.0</ele>
        <time>2018-05-26T09:08:25.145Z</time>
      </trkpt>
      <trkpt lat="40.73168667" lon="-3.99933667">
        <ele>1198.0</ele>
        <time>2018-05-26T09:08:26.138Z</time>
      </trkpt>
      <trkpt lat="40.731715" lon="-3.999325">
        <ele>1198.0</ele>
        <time>2018-05-26T09:08:27.145Z</time>
      </trkpt>
      <trkpt lat="40.731715" lon="-3.999325">
        <ele>1198.0</ele>
        <time>2018-05-26T09:08:28.151Z</time>
      </trkpt>
      <trkpt lat="40.731765" lon="-3.99924167">
        <ele>1198.0</ele>
        <time>2018-05-26T09:08:29.138Z</time>
      </trkpt>
      <trkpt lat="40.73179167" lon="-3.99919833">
        <ele>1198.0</ele>
        <time>2018-05-26T09:08:30.153Z</time>
      </trkpt>
      <trkpt lat="40.73179167" lon="-3.99919833">
        <ele>1198.0</ele>
        <time>2018-05-26T09:08:31.161Z</time>
      </trkpt>
      <trkpt lat="40.73186333" lon="-3.99912333">
        <ele>1197.0</ele>
        <time>2018-05-26T09:08:32.142Z</time>
      </trkpt>
      <trkpt lat="40.73186333" lon="-3.99912333">
        <ele>1197.0</ele>
        <time>2018-05-26T09:08:33.147Z</time>
      </trkpt>
      <trkpt lat="40.73194333" lon="-3.99906667">
        <ele>1197.0</ele>
        <time>2018-05-26T09:08:34.159Z</time>
      </trkpt>
      <trkpt lat="40.73194333" lon="-3.99906667">
        <ele>1197.0</ele>
        <time>2018-05-26T09:08:35.167Z</time>
      </trkpt>
      <trkpt lat="40.73202833" lon="-3.99903833">
        <ele>1197.0</ele>
        <time>2018-05-26T09:08:36.137Z</time>
      </trkpt>
      <trkpt lat="40.73202833" lon="-3.99903833">
        <ele>1197.0</ele>
        <time>2018-05-26T09:08:37.143Z</time>
      </trkpt>
      <trkpt lat="40.73211" lon="-3.999025">
        <ele>1198.0</ele>
        <time>2018-05-26T09:08:38.150Z</time>
      </trkpt>
      <trkpt lat="40.73211" lon="-3.999025">
        <ele>1198.0</ele>
        <time>2018-05-26T09:08:39.157Z</time>
      </trkpt>
      <trkpt lat="40.73218333" lon="-3.99902167">
        <ele>1198.0</ele>
        <time>2018-05-26T09:08:40.166Z</time>
      </trkpt>
      <trkpt lat="40.732215" lon="-3.99902333">
        <ele>1199.0</ele>
        <time>2018-05-26T09:08:41.174Z</time>
      </trkpt>
      <trkpt lat="40.732215" lon="-3.99902333">
        <ele>1199.0</ele>
        <time>2018-05-26T09:08:42.141Z</time>
      </trkpt>
      <trkpt lat="40.732275" lon="-3.99903167">
        <ele>1200.0</ele>
        <time>2018-05-26T09:08:43.148Z</time>
      </trkpt>
      <trkpt lat="40.732305" lon="-3.999035">
        <ele>1201.0</ele>
        <time>2018-05-26T09:08:44.175Z</time>
      </trkpt>
      <trkpt lat="40.732305" lon="-3.999035">
        <ele>1201.0</ele>
        <time>2018-05-26T09:08:45.142Z</time>
      </trkpt>
      <trkpt lat="40.73236333" lon="-3.99904667">
        <ele>1203.0</ele>
        <time>2018-05-26T09:08:46.149Z</time>
      </trkpt>
      <trkpt lat="40.73236333" lon="-3.99904667">
        <ele>1203.0</ele>
        <time>2018-05-26T09:08:47.160Z</time>
      </trkpt>
      <trkpt lat="40.732425" lon="-3.99905833">
        <ele>1204.0</ele>
        <time>2018-05-26T09:08:48.136Z</time>
      </trkpt>
      <trkpt lat="40.732425" lon="-3.99905833">
        <ele>1204.0</ele>
        <time>2018-05-26T09:08:49.142Z</time>
      </trkpt>
      <trkpt lat="40.73248167" lon="-3.99907">
        <ele>1206.0</ele>
        <time>2018-05-26T09:08:50.151Z</time>
      </trkpt>
      <trkpt lat="40.73248167" lon="-3.99907">
        <ele>1206.0</ele>
        <time>2018-05-26T09:08:51.160Z</time>
      </trkpt>
      <trkpt lat="40.73254667" lon="-3.99907667">
        <ele>1206.0</ele>
        <time>2018-05-26T09:08:52.159Z</time>
      </trkpt>
      <trkpt lat="40.73254667" lon="-3.99907667">
        <ele>1206.0</ele>
        <time>2018-05-26T09:08:53.171Z</time>
      </trkpt>
      <trkpt lat="40.73261333" lon="-3.99907333">
        <ele>1206.0</ele>
        <time>2018-05-26T09:08:54.144Z</time>
      </trkpt>
      <trkpt lat="40.73261333" lon="-3.99907333">
        <ele>1206.0</ele>
        <time>2018-05-26T09:08:55.150Z</time>
      </trkpt>
      <trkpt lat="40.73268" lon="-3.999075">
        <ele>1207.0</ele>
        <time>2018-05-26T09:08:56.145Z</time>
      </trkpt>
      <trkpt lat="40.73268" lon="-3.999075">
        <ele>1207.0</ele>
        <time>2018-05-26T09:08:57.151Z</time>
      </trkpt>
      <trkpt lat="40.73274667" lon="-3.99907667">
        <ele>1208.0</ele>
        <time>2018-05-26T09:08:58.157Z</time>
      </trkpt>
      <trkpt lat="40.73274667" lon="-3.99907667">
        <ele>1208.0</ele>
        <time>2018-05-26T09:08:59.165Z</time>
      </trkpt>
      <trkpt lat="40.73281" lon="-3.99907667">
        <ele>1208.0</ele>
        <time>2018-05-26T09:09:00.138Z</time>
      </trkpt>
      <trkpt lat="40.73281" lon="-3.99907667">
        <ele>1208.0</ele>
        <time>2018-05-26T09:09:01.152Z</time>
      </trkpt>
      <trkpt lat="40.73287333" lon="-3.99907">
        <ele>1209.0</ele>
        <time>2018-05-26T09:09:02.159Z</time>
      </trkpt>
      <trkpt lat="40.732905" lon="-3.999065">
        <ele>1209.0</ele>
        <time>2018-05-26T09:09:03.166Z</time>
      </trkpt>
      <trkpt lat="40.732905" lon="-3.999065">
        <ele>1209.0</ele>
        <time>2018-05-26T09:09:04.173Z</time>
      </trkpt>
      <trkpt lat="40.73296833" lon="-3.99906333">
        <ele>1210.0</ele>
        <time>2018-05-26T09:09:05.166Z</time>
      </trkpt>
      <trkpt lat="40.73299833" lon="-3.99906333">
        <ele>1210.0</ele>
        <time>2018-05-26T09:09:06.174Z</time>
      </trkpt>
      <trkpt lat="40.73299833" lon="-3.99906333">
        <ele>1210.0</ele>
        <time>2018-05-26T09:09:07.141Z</time>
      </trkpt>
      <trkpt lat="40.73306" lon="-3.99906333">
        <ele>1211.0</ele>
        <time>2018-05-26T09:09:08.166Z</time>
      </trkpt>
      <trkpt lat="40.73306" lon="-3.99906333">
        <ele>1211.0</ele>
        <time>2018-05-26T09:09:09.172Z</time>
      </trkpt>
      <trkpt lat="40.73312333" lon="-3.99906333">
        <ele>1211.0</ele>
        <time>2018-05-26T09:09:10.146Z</time>
      </trkpt>
      <trkpt lat="40.733155" lon="-3.99906167">
        <ele>1211.0</ele>
        <time>2018-05-26T09:09:11.169Z</time>
      </trkpt>
      <trkpt lat="40.733155" lon="-3.99906167">
        <ele>1211.0</ele>
        <time>2018-05-26T09:09:12.174Z</time>
      </trkpt>
      <trkpt lat="40.73322" lon="-3.99905333">
        <ele>1212.0</ele>
        <time>2018-05-26T09:09:13.141Z</time>
      </trkpt>
      <trkpt lat="40.73325" lon="-3.999055">
        <ele>1213.0</ele>
        <time>2018-05-26T09:09:14.154Z</time>
      </trkpt>
      <trkpt lat="40.73328" lon="-3.99905833">
        <ele>1213.0</ele>
        <time>2018-05-26T09:09:15.161Z</time>
      </trkpt>
      <trkpt lat="40.73328" lon="-3.99905833">
        <ele>1213.0</ele>
        <time>2018-05-26T09:09:16.171Z</time>
      </trkpt>
      <trkpt lat="40.73333667" lon="-3.99906333">
        <ele>1214.0</ele>
        <time>2018-05-26T09:09:17.159Z</time>
      </trkpt>
      <trkpt lat="40.73336667" lon="-3.99907">
        <ele>1215.0</ele>
        <time>2018-05-26T09:09:18.174Z</time>
      </trkpt>
      <trkpt lat="40.73336667" lon="-3.99907">
        <ele>1215.0</ele>
        <time>2018-05-26T09:09:19.140Z</time>
      </trkpt>
      <trkpt lat="40.73341667" lon="-3.99908333">
        <ele>1215.0</ele>
        <time>2018-05-26T09:09:20.174Z</time>
      </trkpt>
      <trkpt lat="40.73341667" lon="-3.99908333">
        <ele>1215.0</ele>
        <time>2018-05-26T09:09:21.141Z</time>
      </trkpt>
      <trkpt lat="40.73346833" lon="-3.99909333">
        <ele>1216.0</ele>
        <time>2018-05-26T09:09:22.153Z</time>
      </trkpt>
      <trkpt lat="40.733495" lon="-3.99909833">
        <ele>1216.0</ele>
        <time>2018-05-26T09:09:23.136Z</time>
      </trkpt>
      <trkpt lat="40.73352333" lon="-3.99910167">
        <ele>1217.0</ele>
        <time>2018-05-26T09:09:24.143Z</time>
      </trkpt>
      <trkpt lat="40.73352333" lon="-3.99910167">
        <ele>1217.0</ele>
        <time>2018-05-26T09:09:25.158Z</time>
      </trkpt>
      <trkpt lat="40.733575" lon="-3.99911667">
        <ele>1218.0</ele>
        <time>2018-05-26T09:09:26.148Z</time>
      </trkpt>
      <trkpt lat="40.733575" lon="-3.99911667">
        <ele>1218.0</ele>
        <time>2018-05-26T09:09:27.154Z</time>
      </trkpt>
      <trkpt lat="40.73362667" lon="-3.99914333">
        <ele>1219.0</ele>
        <time>2018-05-26T09:09:28.137Z</time>
      </trkpt>
      <trkpt lat="40.73365333" lon="-3.999155">
        <ele>1219.0</ele>
        <time>2018-05-26T09:09:29.144Z</time>
      </trkpt>
      <trkpt lat="40.73365333" lon="-3.999155">
        <ele>1219.0</ele>
        <time>2018-05-26T09:09:30.151Z</time>
      </trkpt>
      <trkpt lat="40.73371167" lon="-3.99917833">
        <ele>1220.0</ele>
        <time>2018-05-26T09:09:31.159Z</time>
      </trkpt>
      <trkpt lat="40.73371167" lon="-3.99917833">
        <ele>1220.0</ele>
        <time>2018-05-26T09:09:32.165Z</time>
      </trkpt>
      <trkpt lat="40.73376167" lon="-3.99919667">
        <ele>1221.0</ele>
        <time>2018-05-26T09:09:33.169Z</time>
      </trkpt>
      <trkpt lat="40.73376167" lon="-3.99919667">
        <ele>1221.0</ele>
        <time>2018-05-26T09:09:34.175Z</time>
      </trkpt>
      <trkpt lat="40.73381167" lon="-3.99921">
        <ele>1222.0</ele>
        <time>2018-05-26T09:09:35.174Z</time>
      </trkpt>
      <trkpt lat="40.73383333" lon="-3.99921667">
        <ele>1222.0</ele>
        <time>2018-05-26T09:09:36.173Z</time>
      </trkpt>
      <trkpt lat="40.73383333" lon="-3.99921667">
        <ele>1222.0</ele>
        <time>2018-05-26T09:09:37.140Z</time>
      </trkpt>
      <trkpt lat="40.73388667" lon="-3.99923167">
        <ele>1222.0</ele>
        <time>2018-05-26T09:09:38.150Z</time>
      </trkpt>
      <trkpt lat="40.73388667" lon="-3.99923167">
        <ele>1222.0</ele>
        <time>2018-05-26T09:09:39.157Z</time>
      </trkpt>
      <trkpt lat="40.73393833" lon="-3.99924667">
        <ele>1223.0</ele>
        <time>2018-05-26T09:09:40.145Z</time>
      </trkpt>
      <trkpt lat="40.73393833" lon="-3.99924667">
        <ele>1223.0</ele>
        <time>2018-05-26T09:09:41.151Z</time>
      </trkpt>
      <trkpt lat="40.733995" lon="-3.99925167">
        <ele>1223.0</ele>
        <time>2018-05-26T09:09:42.159Z</time>
      </trkpt>
      <trkpt lat="40.73403333" lon="-3.99924667">
        <ele>1223.0</ele>
        <time>2018-05-26T09:09:43.171Z</time>
      </trkpt>
      <trkpt lat="40.73403333" lon="-3.99924667">
        <ele>1223.0</ele>
        <time>2018-05-26T09:09:44.137Z</time>
      </trkpt>
      <trkpt lat="40.73410167" lon="-3.99924">
        <ele>1223.0</ele>
        <time>2018-05-26T09:09:45.145Z</time>
      </trkpt>
      <trkpt lat="40.734135" lon="-3.99923833">
        <ele>1224.0</ele>
        <time>2018-05-26T09:09:46.169Z</time>
      </trkpt>
      <trkpt lat="40.734135" lon="-3.99923833">
        <ele>1224.0</ele>
        <time>2018-05-26T09:09:47.175Z</time>
      </trkpt>
      <trkpt lat="40.7342" lon="-3.99922333">
        <ele>1223.0</ele>
        <time>2018-05-26T09:09:48.142Z</time>
      </trkpt>
      <trkpt lat="40.7342" lon="-3.99922333">
        <ele>1223.0</ele>
        <time>2018-05-26T09:09:49.148Z</time>
      </trkpt>
      <trkpt lat="40.73425667" lon="-3.99921167">
        <ele>1224.0</ele>
        <time>2018-05-26T09:09:50.156Z</time>
      </trkpt>
      <trkpt lat="40.73425667" lon="-3.99921167">
        <ele>1224.0</ele>
        <time>2018-05-26T09:09:51.172Z</time>
      </trkpt>
      <trkpt lat="40.73431833" lon="-3.99920167">
        <ele>1224.0</ele>
        <time>2018-05-26T09:09:52.143Z</time>
      </trkpt>
      <trkpt lat="40.73434667" lon="-3.99919667">
        <ele>1224.0</ele>
        <time>2018-05-26T09:09:53.168Z</time>
      </trkpt>
      <trkpt lat="40.73434667" lon="-3.99919667">
        <ele>1224.0</ele>
        <time>2018-05-26T09:09:54.175Z</time>
      </trkpt>
      <trkpt lat="40.73440667" lon="-3.99918667">
        <ele>1225.0</ele>
        <time>2018-05-26T09:09:55.141Z</time>
      </trkpt>
      <trkpt lat="40.73443833" lon="-3.99918333">
        <ele>1225.0</ele>
        <time>2018-05-26T09:09:56.169Z</time>
      </trkpt>
      <trkpt lat="40.73443833" lon="-3.99918333">
        <ele>1225.0</ele>
        <time>2018-05-26T09:09:57.136Z</time>
      </trkpt>
      <trkpt lat="40.73449833" lon="-3.99917333">
        <ele>1226.0</ele>
        <time>2018-05-26T09:09:58.143Z</time>
      </trkpt>
      <trkpt lat="40.73452833" lon="-3.99916667">
        <ele>1225.0</ele>
        <time>2018-05-26T09:09:59.143Z</time>
      </trkpt>
      <trkpt lat="40.73452833" lon="-3.99916667">
        <ele>1225.0</ele>
        <time>2018-05-26T09:10:00.153Z</time>
      </trkpt>
      <trkpt lat="40.73459" lon="-3.999155">
        <ele>1225.0</ele>
        <time>2018-05-26T09:10:01.164Z</time>
      </trkpt>
      <trkpt lat="40.73462167" lon="-3.99914667">
        <ele>1225.0</ele>
        <time>2018-05-26T09:10:02.171Z</time>
      </trkpt>
      <trkpt lat="40.73465167" lon="-3.99913667">
        <ele>1225.0</ele>
        <time>2018-05-26T09:10:03.139Z</time>
      </trkpt>
      <trkpt lat="40.73468167" lon="-3.999125">
        <ele>1225.0</ele>
        <time>2018-05-26T09:10:04.145Z</time>
      </trkpt>
      <trkpt lat="40.73468167" lon="-3.999125">
        <ele>1225.0</ele>
        <time>2018-05-26T09:10:05.152Z</time>
      </trkpt>
      <trkpt lat="40.73473833" lon="-3.9991">
        <ele>1225.0</ele>
        <time>2018-05-26T09:10:06.169Z</time>
      </trkpt>
      <trkpt lat="40.73473833" lon="-3.9991">
        <ele>1225.0</ele>
        <time>2018-05-26T09:10:07.176Z</time>
      </trkpt>
      <trkpt lat="40.73479667" lon="-3.999075">
        <ele>1225.0</ele>
        <time>2018-05-26T09:10:08.144Z</time>
      </trkpt>
      <trkpt lat="40.73479667" lon="-3.999075">
        <ele>1225.0</ele>
        <time>2018-05-26T09:10:09.150Z</time>
      </trkpt>
      <trkpt lat="40.73485333" lon="-3.99904833">
        <ele>1226.0</ele>
        <time>2018-05-26T09:10:10.160Z</time>
      </trkpt>
      <trkpt lat="40.73485333" lon="-3.99904833">
        <ele>1226.0</ele>
        <time>2018-05-26T09:10:11.167Z</time>
      </trkpt>
      <trkpt lat="40.73491333" lon="-3.999035">
        <ele>1226.0</ele>
        <time>2018-05-26T09:10:12.174Z</time>
      </trkpt>
      <trkpt lat="40.73491333" lon="-3.999035">
        <ele>1226.0</ele>
        <time>2018-05-26T09:10:13.140Z</time>
      </trkpt>
      <trkpt lat="40.73497333" lon="-3.99902">
        <ele>1226.0</ele>
        <time>2018-05-26T09:10:14.139Z</time>
      </trkpt>
      <trkpt lat="40.73497333" lon="-3.99902">
        <ele>1226.0</ele>
        <time>2018-05-26T09:10:15.145Z</time>
      </trkpt>
      <trkpt lat="40.73503167" lon="-3.99901">
        <ele>1227.0</ele>
        <time>2018-05-26T09:10:16.147Z</time>
      </trkpt>
      <trkpt lat="40.73506" lon="-3.999005">
        <ele>1227.0</ele>
        <time>2018-05-26T09:10:17.154Z</time>
      </trkpt>
      <trkpt lat="40.73506" lon="-3.999005">
        <ele>1227.0</ele>
        <time>2018-05-26T09:10:18.160Z</time>
      </trkpt>
      <trkpt lat="40.73511833" lon="-3.999">
        <ele>1227.0</ele>
        <time>2018-05-26T09:10:19.167Z</time>
      </trkpt>
      <trkpt lat="40.73511833" lon="-3.999">
        <ele>1227.0</ele>
        <time>2018-05-26T09:10:20.173Z</time>
      </trkpt>
      <trkpt lat="40.735175" lon="-3.998995">
        <ele>1228.0</ele>
        <time>2018-05-26T09:10:21.153Z</time>
      </trkpt>
      <trkpt lat="40.735175" lon="-3.998995">
        <ele>1228.0</ele>
        <time>2018-05-26T09:10:22.159Z</time>
      </trkpt>
      <trkpt lat="40.73523333" lon="-3.99899833">
        <ele>1228.0</ele>
        <time>2018-05-26T09:10:23.172Z</time>
      </trkpt>
      <trkpt lat="40.73523333" lon="-3.99899833">
        <ele>1228.0</ele>
        <time>2018-05-26T09:10:24.139Z</time>
      </trkpt>
      <trkpt lat="40.735295" lon="-3.99900167">
        <ele>1229.0</ele>
        <time>2018-05-26T09:10:25.156Z</time>
      </trkpt>
      <trkpt lat="40.735295" lon="-3.99900167">
        <ele>1229.0</ele>
        <time>2018-05-26T09:10:26.161Z</time>
      </trkpt>
      <trkpt lat="40.73535667" lon="-3.99901167">
        <ele>1229.0</ele>
        <time>2018-05-26T09:10:27.171Z</time>
      </trkpt>
      <trkpt lat="40.73535667" lon="-3.99901167">
        <ele>1229.0</ele>
        <time>2018-05-26T09:10:28.137Z</time>
      </trkpt>
      <trkpt lat="40.73541833" lon="-3.99902">
        <ele>1229.0</ele>
        <time>2018-05-26T09:10:29.171Z</time>
      </trkpt>
      <trkpt lat="40.73541833" lon="-3.99902">
        <ele>1229.0</ele>
        <time>2018-05-26T09:10:30.137Z</time>
      </trkpt>
      <trkpt lat="40.735475" lon="-3.99902833">
        <ele>1230.0</ele>
        <time>2018-05-26T09:10:31.164Z</time>
      </trkpt>
      <trkpt lat="40.735505" lon="-3.999035">
        <ele>1230.0</ele>
        <time>2018-05-26T09:10:32.173Z</time>
      </trkpt>
      <trkpt lat="40.735505" lon="-3.999035">
        <ele>1230.0</ele>
        <time>2018-05-26T09:10:33.140Z</time>
      </trkpt>
      <trkpt lat="40.73556167" lon="-3.999045">
        <ele>1230.0</ele>
        <time>2018-05-26T09:10:34.147Z</time>
      </trkpt>
      <trkpt lat="40.73558833" lon="-3.99905167">
        <ele>1230.0</ele>
        <time>2018-05-26T09:10:35.156Z</time>
      </trkpt>
      <trkpt lat="40.73562" lon="-3.99905833">
        <ele>1230.0</ele>
        <time>2018-05-26T09:10:36.174Z</time>
      </trkpt>
      <trkpt lat="40.73562" lon="-3.99905833">
        <ele>1230.0</ele>
        <time>2018-05-26T09:10:37.139Z</time>
      </trkpt>
      <trkpt lat="40.73568" lon="-3.99907833">
        <ele>1231.0</ele>
        <time>2018-05-26T09:10:38.147Z</time>
      </trkpt>
      <trkpt lat="40.73570333" lon="-3.99909167">
        <ele>1232.0</ele>
        <time>2018-05-26T09:10:39.144Z</time>
      </trkpt>
      <trkpt lat="40.73570333" lon="-3.99909167">
        <ele>1232.0</ele>
        <time>2018-05-26T09:10:40.150Z</time>
      </trkpt>
      <trkpt lat="40.73574333" lon="-3.99914667">
        <ele>1232.0</ele>
        <time>2018-05-26T09:10:41.158Z</time>
      </trkpt>
      <trkpt lat="40.73575667" lon="-3.99918667">
        <ele>1232.0</ele>
        <time>2018-05-26T09:10:42.148Z</time>
      </trkpt>
      <trkpt lat="40.73575667" lon="-3.99918667">
        <ele>1232.0</ele>
        <time>2018-05-26T09:10:43.154Z</time>
      </trkpt>
      <trkpt lat="40.73575667" lon="-3.999285">
        <ele>1232.0</ele>
        <time>2018-05-26T09:10:44.161Z</time>
      </trkpt>
      <trkpt lat="40.73574833" lon="-3.99933833">
        <ele>1232.0</ele>
        <time>2018-05-26T09:10:45.160Z</time>
      </trkpt>
      <trkpt lat="40.73574833" lon="-3.99933833">
        <ele>1232.0</ele>
        <time>2018-05-26T09:10:46.170Z</time>
      </trkpt>
      <trkpt lat="40.73572833" lon="-3.99945333">
        <ele>1231.0</ele>
        <time>2018-05-26T09:10:47.138Z</time>
      </trkpt>
      <trkpt lat="40.73572333" lon="-3.99952">
        <ele>1231.0</ele>
        <time>2018-05-26T09:10:48.145Z</time>
      </trkpt>
      <trkpt lat="40.73572333" lon="-3.99952">
        <ele>1231.0</ele>
        <time>2018-05-26T09:10:49.151Z</time>
      </trkpt>
      <trkpt lat="40.73572" lon="-3.99966">
        <ele>1231.0</ele>
        <time>2018-05-26T09:10:50.159Z</time>
      </trkpt>
      <trkpt lat="40.73572" lon="-3.99966">
        <ele>1231.0</ele>
        <time>2018-05-26T09:10:51.165Z</time>
      </trkpt>
      <trkpt lat="40.73573167" lon="-3.999815">
        <ele>1231.0</ele>
        <time>2018-05-26T09:10:52.139Z</time>
      </trkpt>
      <trkpt lat="40.73573167" lon="-3.999815">
        <ele>1231.0</ele>
        <time>2018-05-26T09:10:53.145Z</time>
      </trkpt>
      <trkpt lat="40.73575167" lon="-3.99997333">
        <ele>1231.0</ele>
        <time>2018-05-26T09:10:54.152Z</time>
      </trkpt>
      <trkpt lat="40.73575167" lon="-3.99997333">
        <ele>1231.0</ele>
        <time>2018-05-26T09:10:55.159Z</time>
      </trkpt>
      <trkpt lat="40.73577833" lon="-4.00013167">
        <ele>1231.0</ele>
        <time>2018-05-26T09:10:56.159Z</time>
      </trkpt>
      <trkpt lat="40.73577833" lon="-4.00013167">
        <ele>1231.0</ele>
        <time>2018-05-26T09:10:57.167Z</time>
      </trkpt>
      <trkpt lat="40.735805" lon="-4.00030167">
        <ele>1230.0</ele>
        <time>2018-05-26T09:10:58.174Z</time>
      </trkpt>
      <trkpt lat="40.73582" lon="-4.00039167">
        <ele>1230.0</ele>
        <time>2018-05-26T09:10:59.141Z</time>
      </trkpt>
      <trkpt lat="40.73583" lon="-4.00048333">
        <ele>1230.0</ele>
        <time>2018-05-26T09:11:00.146Z</time>
      </trkpt>
      <trkpt lat="40.73583" lon="-4.00048333">
        <ele>1230.0</ele>
        <time>2018-05-26T09:11:01.157Z</time>
      </trkpt>
      <trkpt lat="40.73585167" lon="-4.00067667">
        <ele>1230.0</ele>
        <time>2018-05-26T09:11:02.169Z</time>
      </trkpt>
      <trkpt lat="40.73585167" lon="-4.00067667">
        <ele>1230.0</ele>
        <time>2018-05-26T09:11:03.136Z</time>
      </trkpt>
      <trkpt lat="40.73585167" lon="-4.000865">
        <ele>1230.0</ele>
        <time>2018-05-26T09:11:04.143Z</time>
      </trkpt>
      <trkpt lat="40.73585167" lon="-4.000865">
        <ele>1230.0</ele>
        <time>2018-05-26T09:11:05.153Z</time>
      </trkpt>
      <trkpt lat="40.73582833" lon="-4.00105667">
        <ele>1229.0</ele>
        <time>2018-05-26T09:11:06.170Z</time>
      </trkpt>
      <trkpt lat="40.73582833" lon="-4.00105667">
        <ele>1229.0</ele>
        <time>2018-05-26T09:11:07.142Z</time>
      </trkpt>
      <trkpt lat="40.73578667" lon="-4.00124833">
        <ele>1229.0</ele>
        <time>2018-05-26T09:11:08.149Z</time>
      </trkpt>
      <trkpt lat="40.73578667" lon="-4.00124833">
        <ele>1229.0</ele>
        <time>2018-05-26T09:11:09.155Z</time>
      </trkpt>
      <trkpt lat="40.73574833" lon="-4.00143833">
        <ele>1229.0</ele>
        <time>2018-05-26T09:11:10.145Z</time>
      </trkpt>
      <trkpt lat="40.73573" lon="-4.001525">
        <ele>1229.0</ele>
        <time>2018-05-26T09:11:11.159Z</time>
      </trkpt>
      <trkpt lat="40.73573" lon="-4.001525">
        <ele>1229.0</ele>
        <time>2018-05-26T09:11:12.164Z</time>
      </trkpt>
      <trkpt lat="40.735685" lon="-4.00169833">
        <ele>1229.0</ele>
        <time>2018-05-26T09:11:13.158Z</time>
      </trkpt>
      <trkpt lat="40.735685" lon="-4.00169833">
        <ele>1229.0</ele>
        <time>2018-05-26T09:11:14.169Z</time>
      </trkpt>
      <trkpt lat="40.73564833" lon="-4.00187667">
        <ele>1228.0</ele>
        <time>2018-05-26T09:11:15.137Z</time>
      </trkpt>
      <trkpt lat="40.73564833" lon="-4.00187667">
        <ele>1228.0</ele>
        <time>2018-05-26T09:11:16.142Z</time>
      </trkpt>
      <trkpt lat="40.73560833" lon="-4.00205167">
        <ele>1229.0</ele>
        <time>2018-05-26T09:11:17.146Z</time>
      </trkpt>
      <trkpt lat="40.73560833" lon="-4.00205167">
        <ele>1229.0</ele>
        <time>2018-05-26T09:11:18.152Z</time>
      </trkpt>
      <trkpt lat="40.73556333" lon="-4.00223">
        <ele>1229.0</ele>
        <time>2018-05-26T09:11:19.159Z</time>
      </trkpt>
      <trkpt lat="40.73556333" lon="-4.00223">
        <ele>1229.0</ele>
        <time>2018-05-26T09:11:20.165Z</time>
      </trkpt>
      <trkpt lat="40.735515" lon="-4.00240333">
        <ele>1229.0</ele>
        <time>2018-05-26T09:11:21.144Z</time>
      </trkpt>
      <trkpt lat="40.735515" lon="-4.00240333">
        <ele>1229.0</ele>
        <time>2018-05-26T09:11:22.149Z</time>
      </trkpt>
      <trkpt lat="40.735465" lon="-4.002565">
        <ele>1229.0</ele>
        <time>2018-05-26T09:11:23.156Z</time>
      </trkpt>
      <trkpt lat="40.73544" lon="-4.00264167">
        <ele>1229.0</ele>
        <time>2018-05-26T09:11:24.173Z</time>
      </trkpt>
      <trkpt lat="40.73544" lon="-4.00264167">
        <ele>1229.0</ele>
        <time>2018-05-26T09:11:25.138Z</time>
      </trkpt>
      <trkpt lat="40.73539333" lon="-4.00278333">
        <ele>1230.0</ele>
        <time>2018-05-26T09:11:26.142Z</time>
      </trkpt>
      <trkpt lat="40.73539333" lon="-4.00278333">
        <ele>1230.0</ele>
        <time>2018-05-26T09:11:27.147Z</time>
      </trkpt>
      <trkpt lat="40.73535833" lon="-4.00292167">
        <ele>1230.0</ele>
        <time>2018-05-26T09:11:28.154Z</time>
      </trkpt>
      <trkpt lat="40.73535833" lon="-4.00292167">
        <ele>1230.0</ele>
        <time>2018-05-26T09:11:29.160Z</time>
      </trkpt>
      <trkpt lat="40.735325" lon="-4.00306167">
        <ele>1230.0</ele>
        <time>2018-05-26T09:11:30.139Z</time>
      </trkpt>
      <trkpt lat="40.735325" lon="-4.00306167">
        <ele>1230.0</ele>
        <time>2018-05-26T09:11:31.145Z</time>
      </trkpt>
      <trkpt lat="40.73529833" lon="-4.00319333">
        <ele>1231.0</ele>
        <time>2018-05-26T09:11:32.138Z</time>
      </trkpt>
      <trkpt lat="40.73529167" lon="-4.00325667">
        <ele>1231.0</ele>
        <time>2018-05-26T09:11:33.144Z</time>
      </trkpt>
      <trkpt lat="40.73529167" lon="-4.00325667">
        <ele>1231.0</ele>
        <time>2018-05-26T09:11:34.149Z</time>
      </trkpt>
      <trkpt lat="40.73527833" lon="-4.00337">
        <ele>1231.0</ele>
        <time>2018-05-26T09:11:35.167Z</time>
      </trkpt>
      <trkpt lat="40.73527833" lon="-4.00337">
        <ele>1231.0</ele>
        <time>2018-05-26T09:11:36.148Z</time>
      </trkpt>
      <trkpt lat="40.73527333" lon="-4.003475">
        <ele>1232.0</ele>
        <time>2018-05-26T09:11:37.139Z</time>
      </trkpt>
      <trkpt lat="40.73527333" lon="-4.003475">
        <ele>1232.0</ele>
        <time>2018-05-26T09:11:38.147Z</time>
      </trkpt>
      <trkpt lat="40.73526667" lon="-4.00357833">
        <ele>1232.0</ele>
        <time>2018-05-26T09:11:39.154Z</time>
      </trkpt>
      <trkpt lat="40.73526333" lon="-4.00363333">
        <ele>1232.0</ele>
        <time>2018-05-26T09:11:40.149Z</time>
      </trkpt>
      <trkpt lat="40.73525667" lon="-4.003685">
        <ele>1233.0</ele>
        <time>2018-05-26T09:11:41.139Z</time>
      </trkpt>
      <trkpt lat="40.73525333" lon="-4.00374">
        <ele>1233.0</ele>
        <time>2018-05-26T09:11:42.145Z</time>
      </trkpt>
      <trkpt lat="40.73525333" lon="-4.00374">
        <ele>1233.0</ele>
        <time>2018-05-26T09:11:43.150Z</time>
      </trkpt>
      <trkpt lat="40.73524333" lon="-4.00384833">
        <ele>1233.0</ele>
        <time>2018-05-26T09:11:44.137Z</time>
      </trkpt>
      <trkpt lat="40.73523667" lon="-4.00390333">
        <ele>1234.0</ele>
        <time>2018-05-26T09:11:45.149Z</time>
      </trkpt>
      <trkpt lat="40.73523667" lon="-4.00390333">
        <ele>1234.0</ele>
        <time>2018-05-26T09:11:46.156Z</time>
      </trkpt>
      <trkpt lat="40.735225" lon="-4.00401667">
        <ele>1234.0</ele>
        <time>2018-05-26T09:11:47.168Z</time>
      </trkpt>
      <trkpt lat="40.73522167" lon="-4.00407667">
        <ele>1234.0</ele>
        <time>2018-05-26T09:11:48.163Z</time>
      </trkpt>
      <trkpt lat="40.73522167" lon="-4.00407667">
        <ele>1234.0</ele>
        <time>2018-05-26T09:11:49.170Z</time>
      </trkpt>
      <trkpt lat="40.73521167" lon="-4.00419333">
        <ele>1234.0</ele>
        <time>2018-05-26T09:11:50.140Z</time>
      </trkpt>
      <trkpt lat="40.73521167" lon="-4.00419333">
        <ele>1234.0</ele>
        <time>2018-05-26T09:11:51.146Z</time>
      </trkpt>
      <trkpt lat="40.735195" lon="-4.00430667">
        <ele>1234.0</ele>
        <time>2018-05-26T09:11:52.158Z</time>
      </trkpt>
      <trkpt lat="40.735195" lon="-4.00430667">
        <ele>1234.0</ele>
        <time>2018-05-26T09:11:53.169Z</time>
      </trkpt>
      <trkpt lat="40.73517" lon="-4.00442">
        <ele>1234.0</ele>
        <time>2018-05-26T09:11:54.137Z</time>
      </trkpt>
      <trkpt lat="40.73517" lon="-4.00442">
        <ele>1234.0</ele>
        <time>2018-05-26T09:11:55.143Z</time>
      </trkpt>
      <trkpt lat="40.73513" lon="-4.00453667">
        <ele>1233.0</ele>
        <time>2018-05-26T09:11:56.172Z</time>
      </trkpt>
      <trkpt lat="40.73513" lon="-4.00453667">
        <ele>1233.0</ele>
        <time>2018-05-26T09:11:57.138Z</time>
      </trkpt>
      <trkpt lat="40.73507833" lon="-4.00467167">
        <ele>1232.0</ele>
        <time>2018-05-26T09:11:58.145Z</time>
      </trkpt>
      <trkpt lat="40.735045" lon="-4.004745">
        <ele>1232.0</ele>
        <time>2018-05-26T09:11:59.171Z</time>
      </trkpt>
      <trkpt lat="40.73500833" lon="-4.00482667">
        <ele>1231.0</ele>
        <time>2018-05-26T09:12:00.155Z</time>
      </trkpt>
      <trkpt lat="40.73500833" lon="-4.00482667">
        <ele>1231.0</ele>
        <time>2018-05-26T09:12:01.165Z</time>
      </trkpt>
      <trkpt lat="40.73492333" lon="-4.00501167">
        <ele>1230.0</ele>
        <time>2018-05-26T09:12:02.174Z</time>
      </trkpt>
      <trkpt lat="40.73492333" lon="-4.00501167">
        <ele>1230.0</ele>
        <time>2018-05-26T09:12:03.140Z</time>
      </trkpt>
      <trkpt lat="40.73481" lon="-4.005195">
        <ele>1229.0</ele>
        <time>2018-05-26T09:12:04.176Z</time>
      </trkpt>
      <trkpt lat="40.73475167" lon="-4.00527833">
        <ele>1229.0</ele>
        <time>2018-05-26T09:12:05.147Z</time>
      </trkpt>
      <trkpt lat="40.73469333" lon="-4.00535167">
        <ele>1228.0</ele>
        <time>2018-05-26T09:12:06.155Z</time>
      </trkpt>
      <trkpt lat="40.73469333" lon="-4.00535167">
        <ele>1228.0</ele>
        <time>2018-05-26T09:12:07.161Z</time>
      </trkpt>
      <trkpt lat="40.73456167" lon="-4.00548833">
        <ele>1228.0</ele>
        <time>2018-05-26T09:12:08.169Z</time>
      </trkpt>
      <trkpt lat="40.73449667" lon="-4.00555667">
        <ele>1227.0</ele>
        <time>2018-05-26T09:12:09.136Z</time>
      </trkpt>
      <trkpt lat="40.73449667" lon="-4.00555667">
        <ele>1227.0</ele>
        <time>2018-05-26T09:12:10.139Z</time>
      </trkpt>
      <trkpt lat="40.734365" lon="-4.0057">
        <ele>1226.0</ele>
        <time>2018-05-26T09:12:11.168Z</time>
      </trkpt>
      <trkpt lat="40.73428833" lon="-4.00578">
        <ele>1226.0</ele>
        <time>2018-05-26T09:12:12.137Z</time>
      </trkpt>
      <trkpt lat="40.73428833" lon="-4.00578">
        <ele>1226.0</ele>
        <time>2018-05-26T09:12:13.143Z</time>
      </trkpt>
      <trkpt lat="40.73413667" lon="-4.00595167">
        <ele>1224.0</ele>
        <time>2018-05-26T09:12:14.138Z</time>
      </trkpt>
      <trkpt lat="40.73407" lon="-4.00605667">
        <ele>1223.0</ele>
        <time>2018-05-26T09:12:15.144Z</time>
      </trkpt>
      <trkpt lat="40.73407" lon="-4.00605667">
        <ele>1223.0</ele>
        <time>2018-05-26T09:12:16.150Z</time>
      </trkpt>
      <trkpt lat="40.73395833" lon="-4.0063">
        <ele>1222.0</ele>
        <time>2018-05-26T09:12:17.171Z</time>
      </trkpt>
      <trkpt lat="40.73391667" lon="-4.00642333">
        <ele>1222.0</ele>
        <time>2018-05-26T09:12:18.139Z</time>
      </trkpt>
      <trkpt lat="40.73391667" lon="-4.00642333">
        <ele>1222.0</ele>
        <time>2018-05-26T09:12:19.145Z</time>
      </trkpt>
      <trkpt lat="40.73388" lon="-4.00667">
        <ele>1221.0</ele>
        <time>2018-05-26T09:12:20.170Z</time>
      </trkpt>
      <trkpt lat="40.73388" lon="-4.00667">
        <ele>1221.0</ele>
        <time>2018-05-26T09:12:21.136Z</time>
      </trkpt>
      <trkpt lat="40.73392833" lon="-4.00688667">
        <ele>1220.0</ele>
        <time>2018-05-26T09:12:22.143Z</time>
      </trkpt>
      <trkpt lat="40.73392833" lon="-4.00688667">
        <ele>1220.0</ele>
        <time>2018-05-26T09:12:23.149Z</time>
      </trkpt>
      <trkpt lat="40.73401167" lon="-4.00705333">
        <ele>1221.0</ele>
        <time>2018-05-26T09:12:24.175Z</time>
      </trkpt>
      <trkpt lat="40.73401167" lon="-4.00705333">
        <ele>1221.0</ele>
        <time>2018-05-26T09:12:25.140Z</time>
      </trkpt>
      <trkpt lat="40.73409333" lon="-4.00719833">
        <ele>1221.0</ele>
        <time>2018-05-26T09:12:26.149Z</time>
      </trkpt>
      <trkpt lat="40.73413167" lon="-4.007265">
        <ele>1222.0</ele>
        <time>2018-05-26T09:12:27.138Z</time>
      </trkpt>
      <trkpt lat="40.73413167" lon="-4.007265">
        <ele>1222.0</ele>
        <time>2018-05-26T09:12:28.143Z</time>
      </trkpt>
      <trkpt lat="40.73420333" lon="-4.00739167">
        <ele>1222.0</ele>
        <time>2018-05-26T09:12:29.150Z</time>
      </trkpt>
      <trkpt lat="40.73420333" lon="-4.00739167">
        <ele>1222.0</ele>
        <time>2018-05-26T09:12:30.142Z</time>
      </trkpt>
      <trkpt lat="40.734275" lon="-4.00749833">
        <ele>1223.0</ele>
        <time>2018-05-26T09:12:31.148Z</time>
      </trkpt>
      <trkpt lat="40.734275" lon="-4.00749833">
        <ele>1223.0</ele>
        <time>2018-05-26T09:12:32.155Z</time>
      </trkpt>
      <trkpt lat="40.73433833" lon="-4.007595">
        <ele>1225.0</ele>
        <time>2018-05-26T09:12:33.162Z</time>
      </trkpt>
      <trkpt lat="40.73436833" lon="-4.00763833">
        <ele>1225.0</ele>
        <time>2018-05-26T09:12:34.146Z</time>
      </trkpt>
      <trkpt lat="40.73436833" lon="-4.00763833">
        <ele>1225.0</ele>
        <time>2018-05-26T09:12:35.152Z</time>
      </trkpt>
      <trkpt lat="40.73442667" lon="-4.00772167">
        <ele>1225.0</ele>
        <time>2018-05-26T09:12:36.165Z</time>
      </trkpt>
      <trkpt lat="40.73445" lon="-4.00776">
        <ele>1226.0</ele>
        <time>2018-05-26T09:12:37.174Z</time>
      </trkpt>
      <trkpt lat="40.73445" lon="-4.00776">
        <ele>1226.0</ele>
        <time>2018-05-26T09:12:38.140Z</time>
      </trkpt>
      <trkpt lat="40.73449833" lon="-4.00783333">
        <ele>1226.0</ele>
        <time>2018-05-26T09:12:39.147Z</time>
      </trkpt>
      <trkpt lat="40.73452" lon="-4.00787">
        <ele>1227.0</ele>
        <time>2018-05-26T09:12:40.169Z</time>
      </trkpt>
      <trkpt lat="40.73452" lon="-4.00787">
        <ele>1227.0</ele>
        <time>2018-05-26T09:12:41.175Z</time>
      </trkpt>
      <trkpt lat="40.73456833" lon="-4.00793833">
        <ele>1227.0</ele>
        <time>2018-05-26T09:12:42.143Z</time>
      </trkpt>
      <trkpt lat="40.73456833" lon="-4.00793833">
        <ele>1227.0</ele>
        <time>2018-05-26T09:12:43.148Z</time>
      </trkpt>
      <trkpt lat="40.73461833" lon="-4.00800833">
        <ele>1227.0</ele>
        <time>2018-05-26T09:12:44.139Z</time>
      </trkpt>
      <trkpt lat="40.73461833" lon="-4.00800833">
        <ele>1227.0</ele>
        <time>2018-05-26T09:12:45.145Z</time>
      </trkpt>
      <trkpt lat="40.734665" lon="-4.00808167">
        <ele>1227.0</ele>
        <time>2018-05-26T09:12:46.164Z</time>
      </trkpt>
      <trkpt lat="40.73469" lon="-4.00811333">
        <ele>1227.0</ele>
        <time>2018-05-26T09:12:47.156Z</time>
      </trkpt>
      <trkpt lat="40.73469" lon="-4.00811333">
        <ele>1227.0</ele>
        <time>2018-05-26T09:12:48.162Z</time>
      </trkpt>
      <trkpt lat="40.73473833" lon="-4.00817833">
        <ele>1228.0</ele>
        <time>2018-05-26T09:12:49.171Z</time>
      </trkpt>
      <trkpt lat="40.73476167" lon="-4.00821333">
        <ele>1228.0</ele>
        <time>2018-05-26T09:12:50.159Z</time>
      </trkpt>
      <trkpt lat="40.73476167" lon="-4.00821333">
        <ele>1228.0</ele>
        <time>2018-05-26T09:12:51.169Z</time>
      </trkpt>
      <trkpt lat="40.73480833" lon="-4.008285">
        <ele>1228.0</ele>
        <time>2018-05-26T09:12:52.139Z</time>
      </trkpt>
      <trkpt lat="40.73483167" lon="-4.00832">
        <ele>1229.0</ele>
        <time>2018-05-26T09:12:53.162Z</time>
      </trkpt>
      <trkpt lat="40.73485333" lon="-4.00835833">
        <ele>1229.0</ele>
        <time>2018-05-26T09:12:54.172Z</time>
      </trkpt>
      <trkpt lat="40.73485333" lon="-4.00835833">
        <ele>1229.0</ele>
        <time>2018-05-26T09:12:55.137Z</time>
      </trkpt>
      <trkpt lat="40.73490333" lon="-4.00842833">
        <ele>1230.0</ele>
        <time>2018-05-26T09:12:56.169Z</time>
      </trkpt>
      <trkpt lat="40.73490333" lon="-4.00842833">
        <ele>1230.0</ele>
        <time>2018-05-26T09:12:57.174Z</time>
      </trkpt>
      <trkpt lat="40.73495833" lon="-4.00849833">
        <ele>1230.0</ele>
        <time>2018-05-26T09:12:58.140Z</time>
      </trkpt>
      <trkpt lat="40.734985" lon="-4.008535">
        <ele>1231.0</ele>
        <time>2018-05-26T09:12:59.155Z</time>
      </trkpt>
      <trkpt lat="40.73501333" lon="-4.00857167">
        <ele>1231.0</ele>
        <time>2018-05-26T09:13:00.160Z</time>
      </trkpt>
      <trkpt lat="40.73501333" lon="-4.00857167">
        <ele>1231.0</ele>
        <time>2018-05-26T09:13:01.160Z</time>
      </trkpt>
      <trkpt lat="40.73507" lon="-4.008645">
        <ele>1231.0</ele>
        <time>2018-05-26T09:13:02.170Z</time>
      </trkpt>
      <trkpt lat="40.73509833" lon="-4.00868167">
        <ele>1231.0</ele>
        <time>2018-05-26T09:13:03.137Z</time>
      </trkpt>
      <trkpt lat="40.73509833" lon="-4.00868167">
        <ele>1231.0</ele>
        <time>2018-05-26T09:13:04.143Z</time>
      </trkpt>
      <trkpt lat="40.73515" lon="-4.00875833">
        <ele>1231.0</ele>
        <time>2018-05-26T09:13:05.140Z</time>
      </trkpt>
      <trkpt lat="40.73517667" lon="-4.0088">
        <ele>1231.0</ele>
        <time>2018-05-26T09:13:06.160Z</time>
      </trkpt>
      <trkpt lat="40.73517667" lon="-4.0088">
        <ele>1231.0</ele>
        <time>2018-05-26T09:13:07.167Z</time>
      </trkpt>
      <trkpt lat="40.73522333" lon="-4.00888667">
        <ele>1232.0</ele>
        <time>2018-05-26T09:13:08.164Z</time>
      </trkpt>
      <trkpt lat="40.73522333" lon="-4.00888667">
        <ele>1232.0</ele>
        <time>2018-05-26T09:13:09.171Z</time>
      </trkpt>
      <trkpt lat="40.73527" lon="-4.00897833">
        <ele>1233.0</ele>
        <time>2018-05-26T09:13:10.146Z</time>
      </trkpt>
      <trkpt lat="40.73529333" lon="-4.009025">
        <ele>1233.0</ele>
        <time>2018-05-26T09:13:11.143Z</time>
      </trkpt>
      <trkpt lat="40.73531833" lon="-4.00907167">
        <ele>1233.0</ele>
        <time>2018-05-26T09:13:12.149Z</time>
      </trkpt>
      <trkpt lat="40.73531833" lon="-4.00907167">
        <ele>1233.0</ele>
        <time>2018-05-26T09:13:13.154Z</time>
      </trkpt>
      <trkpt lat="40.73536833" lon="-4.00916833">
        <ele>1233.0</ele>
        <time>2018-05-26T09:13:14.161Z</time>
      </trkpt>
      <trkpt lat="40.73539167" lon="-4.00921833">
        <ele>1233.0</ele>
        <time>2018-05-26T09:13:15.167Z</time>
      </trkpt>
      <trkpt lat="40.73539167" lon="-4.00921833">
        <ele>1233.0</ele>
        <time>2018-05-26T09:13:16.173Z</time>
      </trkpt>
      <trkpt lat="40.735435" lon="-4.009325">
        <ele>1233.0</ele>
        <time>2018-05-26T09:13:17.150Z</time>
      </trkpt>
      <trkpt lat="40.73545167" lon="-4.00938333">
        <ele>1233.0</ele>
        <time>2018-05-26T09:13:18.170Z</time>
      </trkpt>
      <trkpt lat="40.73545167" lon="-4.00938333">
        <ele>1233.0</ele>
        <time>2018-05-26T09:13:19.136Z</time>
      </trkpt>
      <trkpt lat="40.73548667" lon="-4.00949833">
        <ele>1233.0</ele>
        <time>2018-05-26T09:13:20.147Z</time>
      </trkpt>
      <trkpt lat="40.73550667" lon="-4.00955833">
        <ele>1232.0</ele>
        <time>2018-05-26T09:13:21.147Z</time>
      </trkpt>
      <trkpt lat="40.73550667" lon="-4.00955833">
        <ele>1232.0</ele>
        <time>2018-05-26T09:13:22.154Z</time>
      </trkpt>
      <trkpt lat="40.73553667" lon="-4.00968167">
        <ele>1232.0</ele>
        <time>2018-05-26T09:13:23.160Z</time>
      </trkpt>
      <trkpt lat="40.73554667" lon="-4.00974667">
        <ele>1232.0</ele>
        <time>2018-05-26T09:13:24.163Z</time>
      </trkpt>
      <trkpt lat="40.73554667" lon="-4.00974667">
        <ele>1232.0</ele>
        <time>2018-05-26T09:13:25.148Z</time>
      </trkpt>
      <trkpt lat="40.735565" lon="-4.00987833">
        <ele>1233.0</ele>
        <time>2018-05-26T09:13:26.155Z</time>
      </trkpt>
      <trkpt lat="40.735565" lon="-4.00987833">
        <ele>1233.0</ele>
        <time>2018-05-26T09:13:27.161Z</time>
      </trkpt>
      <trkpt lat="40.73557333" lon="-4.01001167">
        <ele>1233.0</ele>
        <time>2018-05-26T09:13:28.140Z</time>
      </trkpt>
      <trkpt lat="40.73557333" lon="-4.01001167">
        <ele>1233.0</ele>
        <time>2018-05-26T09:13:29.146Z</time>
      </trkpt>
      <trkpt lat="40.73558167" lon="-4.01014333">
        <ele>1232.0</ele>
        <time>2018-05-26T09:13:30.154Z</time>
      </trkpt>
      <trkpt lat="40.73558333" lon="-4.01020667">
        <ele>1232.0</ele>
        <time>2018-05-26T09:13:31.149Z</time>
      </trkpt>
      <trkpt lat="40.73558333" lon="-4.01020667">
        <ele>1232.0</ele>
        <time>2018-05-26T09:13:32.156Z</time>
      </trkpt>
      <trkpt lat="40.73558333" lon="-4.01033667">
        <ele>1233.0</ele>
        <time>2018-05-26T09:13:33.165Z</time>
      </trkpt>
      <trkpt lat="40.73558" lon="-4.01040333">
        <ele>1233.0</ele>
        <time>2018-05-26T09:13:34.159Z</time>
      </trkpt>
      <trkpt lat="40.73558" lon="-4.01040333">
        <ele>1233.0</ele>
        <time>2018-05-26T09:13:35.171Z</time>
      </trkpt>
      <trkpt lat="40.73556833" lon="-4.01053667">
        <ele>1233.0</ele>
        <time>2018-05-26T09:13:36.139Z</time>
      </trkpt>
      <trkpt lat="40.73556833" lon="-4.01053667">
        <ele>1233.0</ele>
        <time>2018-05-26T09:13:37.144Z</time>
      </trkpt>
      <trkpt lat="40.73555167" lon="-4.01067333">
        <ele>1232.0</ele>
        <time>2018-05-26T09:13:38.147Z</time>
      </trkpt>
      <trkpt lat="40.73555167" lon="-4.01067333">
        <ele>1232.0</ele>
        <time>2018-05-26T09:13:39.153Z</time>
      </trkpt>
      <trkpt lat="40.735525" lon="-4.01080333">
        <ele>1232.0</ele>
        <time>2018-05-26T09:13:40.160Z</time>
      </trkpt>
      <trkpt lat="40.735505" lon="-4.01086667">
        <ele>1232.0</ele>
        <time>2018-05-26T09:13:41.159Z</time>
      </trkpt>
      <trkpt lat="40.73548333" lon="-4.01093">
        <ele>1233.0</ele>
        <time>2018-05-26T09:13:42.173Z</time>
      </trkpt>
      <trkpt lat="40.73548333" lon="-4.01093">
        <ele>1233.0</ele>
        <time>2018-05-26T09:13:43.139Z</time>
      </trkpt>
      <trkpt lat="40.73544333" lon="-4.01105667">
        <ele>1233.0</ele>
        <time>2018-05-26T09:13:44.146Z</time>
      </trkpt>
      <trkpt lat="40.73544333" lon="-4.01105667">
        <ele>1233.0</ele>
        <time>2018-05-26T09:13:45.153Z</time>
      </trkpt>
      <trkpt lat="40.73540167" lon="-4.011175">
        <ele>1233.0</ele>
        <time>2018-05-26T09:13:46.169Z</time>
      </trkpt>
      <trkpt lat="40.73540167" lon="-4.011175">
        <ele>1233.0</ele>
        <time>2018-05-26T09:13:47.176Z</time>
      </trkpt>
      <trkpt lat="40.73535667" lon="-4.01129167">
        <ele>1233.0</ele>
        <time>2018-05-26T09:13:48.143Z</time>
      </trkpt>
      <trkpt lat="40.73535667" lon="-4.01129167">
        <ele>1233.0</ele>
        <time>2018-05-26T09:13:49.150Z</time>
      </trkpt>
      <trkpt lat="40.73530667" lon="-4.01140667">
        <ele>1234.0</ele>
        <time>2018-05-26T09:13:50.168Z</time>
      </trkpt>
      <trkpt lat="40.73530667" lon="-4.01140667">
        <ele>1234.0</ele>
        <time>2018-05-26T09:13:51.174Z</time>
      </trkpt>
      <trkpt lat="40.73526" lon="-4.01151167">
        <ele>1234.0</ele>
        <time>2018-05-26T09:13:52.148Z</time>
      </trkpt>
      <trkpt lat="40.73523333" lon="-4.01156167">
        <ele>1234.0</ele>
        <time>2018-05-26T09:13:53.152Z</time>
      </trkpt>
      <trkpt lat="40.73523333" lon="-4.01156167">
        <ele>1234.0</ele>
        <time>2018-05-26T09:13:54.158Z</time>
      </trkpt>
      <trkpt lat="40.73518167" lon="-4.01165333">
        <ele>1234.0</ele>
        <time>2018-05-26T09:13:55.160Z</time>
      </trkpt>
      <trkpt lat="40.73518167" lon="-4.01165333">
        <ele>1234.0</ele>
        <time>2018-05-26T09:13:56.166Z</time>
      </trkpt>
      <trkpt lat="40.735125" lon="-4.01173333">
        <ele>1234.0</ele>
        <time>2018-05-26T09:13:57.146Z</time>
      </trkpt>
      <trkpt lat="40.735125" lon="-4.01173333">
        <ele>1234.0</ele>
        <time>2018-05-26T09:13:58.152Z</time>
      </trkpt>
      <trkpt lat="40.735065" lon="-4.011805">
        <ele>1234.0</ele>
        <time>2018-05-26T09:13:59.159Z</time>
      </trkpt>
      <trkpt lat="40.73503167" lon="-4.01183833">
        <ele>1234.0</ele>
        <time>2018-05-26T09:14:00.150Z</time>
      </trkpt>
      <trkpt lat="40.73503167" lon="-4.01183833">
        <ele>1234.0</ele>
        <time>2018-05-26T09:14:01.147Z</time>
      </trkpt>
      <trkpt lat="40.73496667" lon="-4.0119">
        <ele>1235.0</ele>
        <time>2018-05-26T09:14:02.159Z</time>
      </trkpt>
      <trkpt lat="40.73496667" lon="-4.0119">
        <ele>1235.0</ele>
        <time>2018-05-26T09:14:03.169Z</time>
      </trkpt>
      <trkpt lat="40.734905" lon="-4.011955">
        <ele>1236.0</ele>
        <time>2018-05-26T09:14:04.175Z</time>
      </trkpt>
      <trkpt lat="40.73488" lon="-4.01198333">
        <ele>1236.0</ele>
        <time>2018-05-26T09:14:05.141Z</time>
      </trkpt>
      <trkpt lat="40.73488" lon="-4.01198333">
        <ele>1236.0</ele>
        <time>2018-05-26T09:14:06.147Z</time>
      </trkpt>
      <trkpt lat="40.73482167" lon="-4.012035">
        <ele>1236.0</ele>
        <time>2018-05-26T09:14:07.160Z</time>
      </trkpt>
      <trkpt lat="40.73482167" lon="-4.012035">
        <ele>1236.0</ele>
        <time>2018-05-26T09:14:08.166Z</time>
      </trkpt>
      <trkpt lat="40.734755" lon="-4.01208167">
        <ele>1237.0</ele>
        <time>2018-05-26T09:14:09.173Z</time>
      </trkpt>
      <trkpt lat="40.734755" lon="-4.01208167">
        <ele>1237.0</ele>
        <time>2018-05-26T09:14:10.138Z</time>
      </trkpt>
      <trkpt lat="40.73470333" lon="-4.012135">
        <ele>1237.0</ele>
        <time>2018-05-26T09:14:11.150Z</time>
      </trkpt>
      <trkpt lat="40.73467" lon="-4.01216333">
        <ele>1238.0</ele>
        <time>2018-05-26T09:14:12.139Z</time>
      </trkpt>
      <trkpt lat="40.73467" lon="-4.01216333">
        <ele>1238.0</ele>
        <time>2018-05-26T09:14:13.145Z</time>
      </trkpt>
      <trkpt lat="40.73460167" lon="-4.012215">
        <ele>1239.0</ele>
        <time>2018-05-26T09:14:14.153Z</time>
      </trkpt>
      <trkpt lat="40.73456667" lon="-4.01223833">
        <ele>1239.0</ele>
        <time>2018-05-26T09:14:15.149Z</time>
      </trkpt>
      <trkpt lat="40.73456667" lon="-4.01223833">
        <ele>1239.0</ele>
        <time>2018-05-26T09:14:16.155Z</time>
      </trkpt>
      <trkpt lat="40.7345" lon="-4.01229167">
        <ele>1240.0</ele>
        <time>2018-05-26T09:14:17.163Z</time>
      </trkpt>
      <trkpt lat="40.73447" lon="-4.01231833">
        <ele>1240.0</ele>
        <time>2018-05-26T09:14:18.163Z</time>
      </trkpt>
      <trkpt lat="40.73447" lon="-4.01231833">
        <ele>1240.0</ele>
        <time>2018-05-26T09:14:19.171Z</time>
      </trkpt>
      <trkpt lat="40.73441" lon="-4.01236667">
        <ele>1240.0</ele>
        <time>2018-05-26T09:14:20.143Z</time>
      </trkpt>
      <trkpt lat="40.73441" lon="-4.01236667">
        <ele>1240.0</ele>
        <time>2018-05-26T09:14:21.150Z</time>
      </trkpt>
      <trkpt lat="40.734355" lon="-4.01241333">
        <ele>1241.0</ele>
        <time>2018-05-26T09:14:22.170Z</time>
      </trkpt>
      <trkpt lat="40.734355" lon="-4.01241333">
        <ele>1241.0</ele>
        <time>2018-05-26T09:14:23.175Z</time>
      </trkpt>
      <trkpt lat="40.73430333" lon="-4.01247">
        <ele>1241.0</ele>
        <time>2018-05-26T09:14:24.145Z</time>
      </trkpt>
      <trkpt lat="40.73430333" lon="-4.01247">
        <ele>1241.0</ele>
        <time>2018-05-26T09:14:25.150Z</time>
      </trkpt>
      <trkpt lat="40.73426" lon="-4.01253833">
        <ele>1242.0</ele>
        <time>2018-05-26T09:14:26.148Z</time>
      </trkpt>
      <trkpt lat="40.73426" lon="-4.01253833">
        <ele>1242.0</ele>
        <time>2018-05-26T09:14:27.155Z</time>
      </trkpt>
      <trkpt lat="40.73421667" lon="-4.01260333">
        <ele>1243.0</ele>
        <time>2018-05-26T09:14:28.162Z</time>
      </trkpt>
      <trkpt lat="40.73421667" lon="-4.01260333">
        <ele>1243.0</ele>
        <time>2018-05-26T09:14:29.171Z</time>
      </trkpt>
      <trkpt lat="40.73417333" lon="-4.01266667">
        <ele>1243.0</ele>
        <time>2018-05-26T09:14:30.149Z</time>
      </trkpt>
      <trkpt lat="40.73417333" lon="-4.01266667">
        <ele>1243.0</ele>
        <time>2018-05-26T09:14:31.155Z</time>
      </trkpt>
      <trkpt lat="40.73413333" lon="-4.01273">
        <ele>1243.0</ele>
        <time>2018-05-26T09:14:32.162Z</time>
      </trkpt>
      <trkpt lat="40.73411333" lon="-4.01276333">
        <ele>1243.0</ele>
        <time>2018-05-26T09:14:33.148Z</time>
      </trkpt>
      <trkpt lat="40.73411333" lon="-4.01276333">
        <ele>1243.0</ele>
        <time>2018-05-26T09:14:34.154Z</time>
      </trkpt>
      <trkpt lat="40.73407667" lon="-4.01283">
        <ele>1244.0</ele>
        <time>2018-05-26T09:14:35.162Z</time>
      </trkpt>
      <trkpt lat="40.73406167" lon="-4.01286333">
        <ele>1244.0</ele>
        <time>2018-05-26T09:14:36.157Z</time>
      </trkpt>
      <trkpt lat="40.73406167" lon="-4.01286333">
        <ele>1244.0</ele>
        <time>2018-05-26T09:14:37.163Z</time>
      </trkpt>
      <trkpt lat="40.73403167" lon="-4.01294">
        <ele>1244.0</ele>
        <time>2018-05-26T09:14:38.170Z</time>
      </trkpt>
      <trkpt lat="40.73401833" lon="-4.01297833">
        <ele>1244.0</ele>
        <time>2018-05-26T09:14:39.143Z</time>
      </trkpt>
      <trkpt lat="40.73401833" lon="-4.01297833">
        <ele>1244.0</ele>
        <time>2018-05-26T09:14:40.149Z</time>
      </trkpt>
      <trkpt lat="40.73399333" lon="-4.01305">
        <ele>1244.0</ele>
        <time>2018-05-26T09:14:41.155Z</time>
      </trkpt>
      <trkpt lat="40.73398167" lon="-4.01308667">
        <ele>1244.0</ele>
        <time>2018-05-26T09:14:42.164Z</time>
      </trkpt>
      <trkpt lat="40.73398167" lon="-4.01308667">
        <ele>1244.0</ele>
        <time>2018-05-26T09:14:43.170Z</time>
      </trkpt>
      <trkpt lat="40.73395833" lon="-4.01316">
        <ele>1244.0</ele>
        <time>2018-05-26T09:14:44.138Z</time>
      </trkpt>
      <trkpt lat="40.733945" lon="-4.0132">
        <ele>1245.0</ele>
        <time>2018-05-26T09:14:45.175Z</time>
      </trkpt>
      <trkpt lat="40.733945" lon="-4.0132">
        <ele>1245.0</ele>
        <time>2018-05-26T09:14:46.141Z</time>
      </trkpt>
      <trkpt lat="40.73392" lon="-4.01328">
        <ele>1245.0</ele>
        <time>2018-05-26T09:14:47.153Z</time>
      </trkpt>
      <trkpt lat="40.73391" lon="-4.01331667">
        <ele>1246.0</ele>
        <time>2018-05-26T09:14:48.138Z</time>
      </trkpt>
      <trkpt lat="40.73391" lon="-4.01331667">
        <ele>1246.0</ele>
        <time>2018-05-26T09:14:49.144Z</time>
      </trkpt>
      <trkpt lat="40.73388667" lon="-4.01338333">
        <ele>1247.0</ele>
        <time>2018-05-26T09:14:50.150Z</time>
      </trkpt>
      <trkpt lat="40.73388667" lon="-4.01338333">
        <ele>1247.0</ele>
        <time>2018-05-26T09:14:51.160Z</time>
      </trkpt>
      <trkpt lat="40.73386833" lon="-4.01346333">
        <ele>1249.0</ele>
        <time>2018-05-26T09:14:52.168Z</time>
      </trkpt>
      <trkpt lat="40.73386833" lon="-4.01346333">
        <ele>1249.0</ele>
        <time>2018-05-26T09:14:53.174Z</time>
      </trkpt>
      <trkpt lat="40.73385667" lon="-4.01354667">
        <ele>1249.0</ele>
        <time>2018-05-26T09:14:54.141Z</time>
      </trkpt>
      <trkpt lat="40.73385667" lon="-4.01354667">
        <ele>1249.0</ele>
        <time>2018-05-26T09:14:55.147Z</time>
      </trkpt>
      <trkpt lat="40.73384833" lon="-4.01362833">
        <ele>1249.0</ele>
        <time>2018-05-26T09:14:56.170Z</time>
      </trkpt>
      <trkpt lat="40.73385" lon="-4.013675">
        <ele>1250.0</ele>
        <time>2018-05-26T09:14:57.147Z</time>
      </trkpt>
      <trkpt lat="40.73385" lon="-4.013675">
        <ele>1250.0</ele>
        <time>2018-05-26T09:14:58.153Z</time>
      </trkpt>
      <trkpt lat="40.73385167" lon="-4.01376167">
        <ele>1250.0</ele>
        <time>2018-05-26T09:14:59.171Z</time>
      </trkpt>
      <trkpt lat="40.73385167" lon="-4.01376167">
        <ele>1250.0</ele>
        <time>2018-05-26T09:15:00.150Z</time>
      </trkpt>
      <trkpt lat="40.73385333" lon="-4.01385">
        <ele>1250.0</ele>
        <time>2018-05-26T09:15:01.164Z</time>
      </trkpt>
      <trkpt lat="40.73385333" lon="-4.01385">
        <ele>1250.0</ele>
        <time>2018-05-26T09:15:02.169Z</time>
      </trkpt>
      <trkpt lat="40.73385167" lon="-4.01393667">
        <ele>1250.0</ele>
        <time>2018-05-26T09:15:03.136Z</time>
      </trkpt>
      <trkpt lat="40.73385167" lon="-4.01393667">
        <ele>1250.0</ele>
        <time>2018-05-26T09:15:04.142Z</time>
      </trkpt>
      <trkpt lat="40.73385" lon="-4.014015">
        <ele>1251.0</ele>
        <time>2018-05-26T09:15:05.153Z</time>
      </trkpt>
      <trkpt lat="40.73385" lon="-4.014015">
        <ele>1251.0</ele>
        <time>2018-05-26T09:15:06.160Z</time>
      </trkpt>
      <trkpt lat="40.73385667" lon="-4.01408667">
        <ele>1251.0</ele>
        <time>2018-05-26T09:15:07.170Z</time>
      </trkpt>
      <trkpt lat="40.73386" lon="-4.01412333">
        <ele>1251.0</ele>
        <time>2018-05-26T09:15:08.156Z</time>
      </trkpt>
      <trkpt lat="40.73386333" lon="-4.01415833">
        <ele>1252.0</ele>
        <time>2018-05-26T09:15:09.162Z</time>
      </trkpt>
      <trkpt lat="40.73386333" lon="-4.01415833">
        <ele>1252.0</ele>
        <time>2018-05-26T09:15:10.170Z</time>
      </trkpt>
      <trkpt lat="40.73387" lon="-4.01423">
        <ele>1252.0</ele>
        <time>2018-05-26T09:15:11.159Z</time>
      </trkpt>
      <trkpt lat="40.733875" lon="-4.014265">
        <ele>1252.0</ele>
        <time>2018-05-26T09:15:12.170Z</time>
      </trkpt>
      <trkpt lat="40.733875" lon="-4.014265">
        <ele>1252.0</ele>
        <time>2018-05-26T09:15:13.176Z</time>
      </trkpt>
      <trkpt lat="40.73388667" lon="-4.01433167">
        <ele>1252.0</ele>
        <time>2018-05-26T09:15:14.142Z</time>
      </trkpt>
      <trkpt lat="40.73389167" lon="-4.01436667">
        <ele>1252.0</ele>
        <time>2018-05-26T09:15:15.166Z</time>
      </trkpt>
      <trkpt lat="40.73389167" lon="-4.01436667">
        <ele>1252.0</ele>
        <time>2018-05-26T09:15:16.171Z</time>
      </trkpt>
      <trkpt lat="40.733905" lon="-4.014435">
        <ele>1252.0</ele>
        <time>2018-05-26T09:15:17.139Z</time>
      </trkpt>
      <trkpt lat="40.73391" lon="-4.01447">
        <ele>1253.0</ele>
        <time>2018-05-26T09:15:18.167Z</time>
      </trkpt>
      <trkpt lat="40.73391" lon="-4.01447">
        <ele>1253.0</ele>
        <time>2018-05-26T09:15:19.173Z</time>
      </trkpt>
      <trkpt lat="40.73392333" lon="-4.014535">
        <ele>1253.0</ele>
        <time>2018-05-26T09:15:20.145Z</time>
      </trkpt>
      <trkpt lat="40.73393" lon="-4.01457">
        <ele>1253.0</ele>
        <time>2018-05-26T09:15:21.173Z</time>
      </trkpt>
      <trkpt lat="40.73393" lon="-4.01457">
        <ele>1253.0</ele>
        <time>2018-05-26T09:15:22.138Z</time>
      </trkpt>
      <trkpt lat="40.73394667" lon="-4.014635">
        <ele>1254.0</ele>
        <time>2018-05-26T09:15:23.145Z</time>
      </trkpt>
      <trkpt lat="40.733955" lon="-4.01467">
        <ele>1254.0</ele>
        <time>2018-05-26T09:15:24.174Z</time>
      </trkpt>
      <trkpt lat="40.733955" lon="-4.01467">
        <ele>1254.0</ele>
        <time>2018-05-26T09:15:25.139Z</time>
      </trkpt>
      <trkpt lat="40.73397" lon="-4.01473667">
        <ele>1254.0</ele>
        <time>2018-05-26T09:15:26.171Z</time>
      </trkpt>
      <trkpt lat="40.733975" lon="-4.01477">
        <ele>1255.0</ele>
        <time>2018-05-26T09:15:27.149Z</time>
      </trkpt>
      <trkpt lat="40.733975" lon="-4.01477">
        <ele>1255.0</ele>
        <time>2018-05-26T09:15:28.154Z</time>
      </trkpt>
      <trkpt lat="40.73398833" lon="-4.01483833">
        <ele>1256.0</ele>
        <time>2018-05-26T09:15:29.162Z</time>
      </trkpt>
      <trkpt lat="40.73399667" lon="-4.01487167">
        <ele>1256.0</ele>
        <time>2018-05-26T09:15:30.151Z</time>
      </trkpt>
      <trkpt lat="40.73399667" lon="-4.01487167">
        <ele>1256.0</ele>
        <time>2018-05-26T09:15:31.157Z</time>
      </trkpt>
      <trkpt lat="40.73400833" lon="-4.01493833">
        <ele>1256.0</ele>
        <time>2018-05-26T09:15:32.173Z</time>
      </trkpt>
      <trkpt lat="40.73401167" lon="-4.01497">
        <ele>1257.0</ele>
        <time>2018-05-26T09:15:33.158Z</time>
      </trkpt>
      <trkpt lat="40.73402167" lon="-4.01500333">
        <ele>1257.0</ele>
        <time>2018-05-26T09:15:34.150Z</time>
      </trkpt>
      <trkpt lat="40.73402167" lon="-4.01500333">
        <ele>1257.0</ele>
        <time>2018-05-26T09:15:35.157Z</time>
      </trkpt>
      <trkpt lat="40.73404333" lon="-4.01507333">
        <ele>1258.0</ele>
        <time>2018-05-26T09:15:36.164Z</time>
      </trkpt>
      <trkpt lat="40.73404333" lon="-4.01507333">
        <ele>1258.0</ele>
        <time>2018-05-26T09:15:37.171Z</time>
      </trkpt>
      <trkpt lat="40.73406333" lon="-4.01513667">
        <ele>1259.0</ele>
        <time>2018-05-26T09:15:38.150Z</time>
      </trkpt>
      <trkpt lat="40.73407" lon="-4.01517333">
        <ele>1260.0</ele>
        <time>2018-05-26T09:15:39.155Z</time>
      </trkpt>
      <trkpt lat="40.73407" lon="-4.01517333">
        <ele>1260.0</ele>
        <time>2018-05-26T09:15:40.161Z</time>
      </trkpt>
      <trkpt lat="40.73408167" lon="-4.01524167">
        <ele>1260.0</ele>
        <time>2018-05-26T09:15:41.174Z</time>
      </trkpt>
      <trkpt lat="40.73408833" lon="-4.015275">
        <ele>1260.0</ele>
        <time>2018-05-26T09:15:42.140Z</time>
      </trkpt>
      <trkpt lat="40.73408833" lon="-4.015275">
        <ele>1260.0</ele>
        <time>2018-05-26T09:15:43.146Z</time>
      </trkpt>
      <trkpt lat="40.73410333" lon="-4.01534167">
        <ele>1261.0</ele>
        <time>2018-05-26T09:15:44.153Z</time>
      </trkpt>
      <trkpt lat="40.73410333" lon="-4.01534167">
        <ele>1261.0</ele>
        <time>2018-05-26T09:15:45.161Z</time>
      </trkpt>
      <trkpt lat="40.73412167" lon="-4.01541">
        <ele>1261.0</ele>
        <time>2018-05-26T09:15:46.168Z</time>
      </trkpt>
      <trkpt lat="40.73412167" lon="-4.01541">
        <ele>1261.0</ele>
        <time>2018-05-26T09:15:47.175Z</time>
      </trkpt>
      <trkpt lat="40.734145" lon="-4.01547833">
        <ele>1261.0</ele>
        <time>2018-05-26T09:15:48.143Z</time>
      </trkpt>
      <trkpt lat="40.734145" lon="-4.01547833">
        <ele>1261.0</ele>
        <time>2018-05-26T09:15:49.148Z</time>
      </trkpt>
      <trkpt lat="40.734165" lon="-4.01554167">
        <ele>1262.0</ele>
        <time>2018-05-26T09:15:50.152Z</time>
      </trkpt>
      <trkpt lat="40.734165" lon="-4.01554167">
        <ele>1262.0</ele>
        <time>2018-05-26T09:15:51.159Z</time>
      </trkpt>
      <trkpt lat="40.734185" lon="-4.01560833">
        <ele>1263.0</ele>
        <time>2018-05-26T09:15:52.150Z</time>
      </trkpt>
      <trkpt lat="40.734185" lon="-4.01560833">
        <ele>1263.0</ele>
        <time>2018-05-26T09:15:53.174Z</time>
      </trkpt>
      <trkpt lat="40.73420167" lon="-4.01567667">
        <ele>1263.0</ele>
        <time>2018-05-26T09:15:54.148Z</time>
      </trkpt>
      <trkpt lat="40.73420167" lon="-4.01567667">
        <ele>1263.0</ele>
        <time>2018-05-26T09:15:55.154Z</time>
      </trkpt>
      <trkpt lat="40.73423167" lon="-4.01574">
        <ele>1263.0</ele>
        <time>2018-05-26T09:15:56.160Z</time>
      </trkpt>
      <trkpt lat="40.73423167" lon="-4.01574">
        <ele>1263.0</ele>
        <time>2018-05-26T09:15:57.168Z</time>
      </trkpt>
      <trkpt lat="40.73425667" lon="-4.01580167">
        <ele>1263.0</ele>
        <time>2018-05-26T09:15:58.174Z</time>
      </trkpt>
      <trkpt lat="40.73425667" lon="-4.01580167">
        <ele>1263.0</ele>
        <time>2018-05-26T09:15:59.140Z</time>
      </trkpt>
      <trkpt lat="40.73428667" lon="-4.01586333">
        <ele>1264.0</ele>
        <time>2018-05-26T09:16:00.148Z</time>
      </trkpt>
      <trkpt lat="40.73428667" lon="-4.01586333">
        <ele>1264.0</ele>
        <time>2018-05-26T09:16:01.174Z</time>
      </trkpt>
      <trkpt lat="40.73431" lon="-4.01592333">
        <ele>1264.0</ele>
        <time>2018-05-26T09:16:02.141Z</time>
      </trkpt>
      <trkpt lat="40.73431" lon="-4.01592333">
        <ele>1264.0</ele>
        <time>2018-05-26T09:16:03.162Z</time>
      </trkpt>
      <trkpt lat="40.73433667" lon="-4.01598667">
        <ele>1264.0</ele>
        <time>2018-05-26T09:16:04.163Z</time>
      </trkpt>
      <trkpt lat="40.73433667" lon="-4.01598667">
        <ele>1264.0</ele>
        <time>2018-05-26T09:16:05.170Z</time>
      </trkpt>
      <trkpt lat="40.73436167" lon="-4.016045">
        <ele>1265.0</ele>
        <time>2018-05-26T09:16:06.137Z</time>
      </trkpt>
      <trkpt lat="40.73436167" lon="-4.016045">
        <ele>1265.0</ele>
        <time>2018-05-26T09:16:07.143Z</time>
      </trkpt>
      <trkpt lat="40.73438833" lon="-4.01609667">
        <ele>1267.0</ele>
        <time>2018-05-26T09:16:08.151Z</time>
      </trkpt>
      <trkpt lat="40.73438833" lon="-4.01609667">
        <ele>1267.0</ele>
        <time>2018-05-26T09:16:09.156Z</time>
      </trkpt>
      <trkpt lat="40.73441333" lon="-4.01616167">
        <ele>1267.0</ele>
        <time>2018-05-26T09:16:10.164Z</time>
      </trkpt>
      <trkpt lat="40.73441333" lon="-4.01616167">
        <ele>1267.0</ele>
        <time>2018-05-26T09:16:11.136Z</time>
      </trkpt>
      <trkpt lat="40.73443667" lon="-4.01622667">
        <ele>1268.0</ele>
        <time>2018-05-26T09:16:12.141Z</time>
      </trkpt>
      <trkpt lat="40.73443667" lon="-4.01622667">
        <ele>1268.0</ele>
        <time>2018-05-26T09:16:13.146Z</time>
      </trkpt>
      <trkpt lat="40.73446" lon="-4.016295">
        <ele>1268.0</ele>
        <time>2018-05-26T09:16:14.153Z</time>
      </trkpt>
      <trkpt lat="40.73447167" lon="-4.01633">
        <ele>1268.0</ele>
        <time>2018-05-26T09:16:15.146Z</time>
      </trkpt>
      <trkpt lat="40.73448167" lon="-4.016365">
        <ele>1268.0</ele>
        <time>2018-05-26T09:16:16.136Z</time>
      </trkpt>
      <trkpt lat="40.73448167" lon="-4.016365">
        <ele>1268.0</ele>
        <time>2018-05-26T09:16:17.143Z</time>
      </trkpt>
      <trkpt lat="40.73450167" lon="-4.01643333">
        <ele>1268.0</ele>
        <time>2018-05-26T09:16:18.158Z</time>
      </trkpt>
      <trkpt lat="40.73451" lon="-4.01647">
        <ele>1269.0</ele>
        <time>2018-05-26T09:16:19.164Z</time>
      </trkpt>
      <trkpt lat="40.73451" lon="-4.01647">
        <ele>1269.0</ele>
        <time>2018-05-26T09:16:20.140Z</time>
      </trkpt>
      <trkpt lat="40.73453167" lon="-4.01653833">
        <ele>1269.0</ele>
        <time>2018-05-26T09:16:21.158Z</time>
      </trkpt>
      <trkpt lat="40.73454" lon="-4.01657333">
        <ele>1269.0</ele>
        <time>2018-05-26T09:16:22.150Z</time>
      </trkpt>
      <trkpt lat="40.73454" lon="-4.01657333">
        <ele>1269.0</ele>
        <time>2018-05-26T09:16:23.157Z</time>
      </trkpt>
      <trkpt lat="40.73455833" lon="-4.01663833">
        <ele>1269.0</ele>
        <time>2018-05-26T09:16:24.163Z</time>
      </trkpt>
      <trkpt lat="40.73456833" lon="-4.01667">
        <ele>1269.0</ele>
        <time>2018-05-26T09:16:25.157Z</time>
      </trkpt>
      <trkpt lat="40.73456833" lon="-4.01667">
        <ele>1269.0</ele>
        <time>2018-05-26T09:16:26.171Z</time>
      </trkpt>
      <trkpt lat="40.73458167" lon="-4.01674">
        <ele>1270.0</ele>
        <time>2018-05-26T09:16:27.137Z</time>
      </trkpt>
      <trkpt lat="40.73458667" lon="-4.016775">
        <ele>1270.0</ele>
        <time>2018-05-26T09:16:28.168Z</time>
      </trkpt>
      <trkpt lat="40.73458667" lon="-4.016775">
        <ele>1270.0</ele>
        <time>2018-05-26T09:16:29.173Z</time>
      </trkpt>
      <trkpt lat="40.73459667" lon="-4.01683833">
        <ele>1270.0</ele>
        <time>2018-05-26T09:16:30.147Z</time>
      </trkpt>
      <trkpt lat="40.73459667" lon="-4.01683833">
        <ele>1270.0</ele>
        <time>2018-05-26T09:16:31.153Z</time>
      </trkpt>
      <trkpt lat="40.734605" lon="-4.01691667">
        <ele>1271.0</ele>
        <time>2018-05-26T09:16:32.138Z</time>
      </trkpt>
      <trkpt lat="40.734605" lon="-4.01691667">
        <ele>1271.0</ele>
        <time>2018-05-26T09:16:33.143Z</time>
      </trkpt>
      <trkpt lat="40.73461833" lon="-4.01699167">
        <ele>1272.0</ele>
        <time>2018-05-26T09:16:34.150Z</time>
      </trkpt>
      <trkpt lat="40.73462333" lon="-4.01702667">
        <ele>1272.0</ele>
        <time>2018-05-26T09:16:35.157Z</time>
      </trkpt>
      <trkpt lat="40.73462333" lon="-4.01702667">
        <ele>1272.0</ele>
        <time>2018-05-26T09:16:36.150Z</time>
      </trkpt>
      <trkpt lat="40.734635" lon="-4.0171">
        <ele>1272.0</ele>
        <time>2018-05-26T09:16:37.139Z</time>
      </trkpt>
      <trkpt lat="40.734635" lon="-4.0171">
        <ele>1272.0</ele>
        <time>2018-05-26T09:16:38.144Z</time>
      </trkpt>
      <trkpt lat="40.73464667" lon="-4.01717333">
        <ele>1272.0</ele>
        <time>2018-05-26T09:16:39.151Z</time>
      </trkpt>
      <trkpt lat="40.73464667" lon="-4.01721167">
        <ele>1272.0</ele>
        <time>2018-05-26T09:16:40.147Z</time>
      </trkpt>
      <trkpt lat="40.73465" lon="-4.01724833">
        <ele>1272.0</ele>
        <time>2018-05-26T09:16:41.163Z</time>
      </trkpt>
      <trkpt lat="40.73465" lon="-4.01724833">
        <ele>1272.0</ele>
        <time>2018-05-26T09:16:42.142Z</time>
      </trkpt>
      <trkpt lat="40.73465333" lon="-4.01731833">
        <ele>1272.0</ele>
        <time>2018-05-26T09:16:43.148Z</time>
      </trkpt>
      <trkpt lat="40.73465333" lon="-4.01735667">
        <ele>1272.0</ele>
        <time>2018-05-26T09:16:44.170Z</time>
      </trkpt>
      <trkpt lat="40.73465333" lon="-4.01739333">
        <ele>1272.0</ele>
        <time>2018-05-26T09:16:45.136Z</time>
      </trkpt>
      <trkpt lat="40.73465333" lon="-4.01739333">
        <ele>1272.0</ele>
        <time>2018-05-26T09:16:46.141Z</time>
      </trkpt>
      <trkpt lat="40.73465333" lon="-4.01746667">
        <ele>1273.0</ele>
        <time>2018-05-26T09:16:47.139Z</time>
      </trkpt>
      <trkpt lat="40.73465167" lon="-4.01750667">
        <ele>1273.0</ele>
        <time>2018-05-26T09:16:48.148Z</time>
      </trkpt>
      <trkpt lat="40.73465167" lon="-4.01750667">
        <ele>1273.0</ele>
        <time>2018-05-26T09:16:49.154Z</time>
      </trkpt>
      <trkpt lat="40.73465" lon="-4.01758333">
        <ele>1274.0</ele>
        <time>2018-05-26T09:16:50.145Z</time>
      </trkpt>
      <trkpt lat="40.73465" lon="-4.01758333">
        <ele>1274.0</ele>
        <time>2018-05-26T09:16:51.151Z</time>
      </trkpt>
      <trkpt lat="40.734655" lon="-4.01766">
        <ele>1273.0</ele>
        <time>2018-05-26T09:16:52.160Z</time>
      </trkpt>
      <trkpt lat="40.73465667" lon="-4.01769833">
        <ele>1274.0</ele>
        <time>2018-05-26T09:16:53.170Z</time>
      </trkpt>
      <trkpt lat="40.73465667" lon="-4.01773833">
        <ele>1274.0</ele>
        <time>2018-05-26T09:16:54.153Z</time>
      </trkpt>
      <trkpt lat="40.73465667" lon="-4.01773833">
        <ele>1274.0</ele>
        <time>2018-05-26T09:16:55.160Z</time>
      </trkpt>
      <trkpt lat="40.73465833" lon="-4.017815">
        <ele>1274.0</ele>
        <time>2018-05-26T09:16:56.171Z</time>
      </trkpt>
      <trkpt lat="40.73465833" lon="-4.017815">
        <ele>1274.0</ele>
        <time>2018-05-26T09:16:57.136Z</time>
      </trkpt>
      <trkpt lat="40.73466" lon="-4.01789167">
        <ele>1275.0</ele>
        <time>2018-05-26T09:16:58.159Z</time>
      </trkpt>
      <trkpt lat="40.73466" lon="-4.01789167">
        <ele>1275.0</ele>
        <time>2018-05-26T09:16:59.169Z</time>
      </trkpt>
      <trkpt lat="40.734655" lon="-4.017965">
        <ele>1275.0</ele>
        <time>2018-05-26T09:17:00.157Z</time>
      </trkpt>
      <trkpt lat="40.734655" lon="-4.017965">
        <ele>1275.0</ele>
        <time>2018-05-26T09:17:01.160Z</time>
      </trkpt>
      <trkpt lat="40.73465667" lon="-4.01804333">
        <ele>1276.0</ele>
        <time>2018-05-26T09:17:02.167Z</time>
      </trkpt>
      <trkpt lat="40.73465667" lon="-4.01804333">
        <ele>1276.0</ele>
        <time>2018-05-26T09:17:03.175Z</time>
      </trkpt>
      <trkpt lat="40.73466167" lon="-4.01812">
        <ele>1276.0</ele>
        <time>2018-05-26T09:17:04.160Z</time>
      </trkpt>
      <trkpt lat="40.73466" lon="-4.01815833">
        <ele>1276.0</ele>
        <time>2018-05-26T09:17:05.170Z</time>
      </trkpt>
      <trkpt lat="40.73465667" lon="-4.018195">
        <ele>1277.0</ele>
        <time>2018-05-26T09:17:06.138Z</time>
      </trkpt>
      <trkpt lat="40.73465333" lon="-4.01823167">
        <ele>1277.0</ele>
        <time>2018-05-26T09:17:07.141Z</time>
      </trkpt>
      <trkpt lat="40.73465333" lon="-4.01823167">
        <ele>1277.0</ele>
        <time>2018-05-26T09:17:08.147Z</time>
      </trkpt>
      <trkpt lat="40.734655" lon="-4.01830667">
        <ele>1277.0</ele>
        <time>2018-05-26T09:17:09.154Z</time>
      </trkpt>
      <trkpt lat="40.73465667" lon="-4.01834333">
        <ele>1277.0</ele>
        <time>2018-05-26T09:17:10.148Z</time>
      </trkpt>
      <trkpt lat="40.73465667" lon="-4.01834333">
        <ele>1277.0</ele>
        <time>2018-05-26T09:17:11.155Z</time>
      </trkpt>
      <trkpt lat="40.73466167" lon="-4.018415">
        <ele>1277.0</ele>
        <time>2018-05-26T09:17:12.170Z</time>
      </trkpt>
      <trkpt lat="40.73466167" lon="-4.018415">
        <ele>1277.0</ele>
        <time>2018-05-26T09:17:13.175Z</time>
      </trkpt>
      <trkpt lat="40.73466167" lon="-4.01848833">
        <ele>1277.0</ele>
        <time>2018-05-26T09:17:14.140Z</time>
      </trkpt>
      <trkpt lat="40.73466167" lon="-4.01848833">
        <ele>1277.0</ele>
        <time>2018-05-26T09:17:15.146Z</time>
      </trkpt>
      <trkpt lat="40.73465667" lon="-4.01856">
        <ele>1277.0</ele>
        <time>2018-05-26T09:17:16.153Z</time>
      </trkpt>
      <trkpt lat="40.73465" lon="-4.01859667">
        <ele>1278.0</ele>
        <time>2018-05-26T09:17:17.170Z</time>
      </trkpt>
      <trkpt lat="40.73464833" lon="-4.018635">
        <ele>1278.0</ele>
        <time>2018-05-26T09:17:18.137Z</time>
      </trkpt>
      <trkpt lat="40.73464833" lon="-4.018635">
        <ele>1278.0</ele>
        <time>2018-05-26T09:17:19.144Z</time>
      </trkpt>
      <trkpt lat="40.734645" lon="-4.01871">
        <ele>1279.0</ele>
        <time>2018-05-26T09:17:20.167Z</time>
      </trkpt>
      <trkpt lat="40.73464333" lon="-4.01874833">
        <ele>1279.0</ele>
        <time>2018-05-26T09:17:21.137Z</time>
      </trkpt>
      <trkpt lat="40.73464333" lon="-4.01874833">
        <ele>1279.0</ele>
        <time>2018-05-26T09:17:22.142Z</time>
      </trkpt>
      <trkpt lat="40.73463833" lon="-4.01882333">
        <ele>1279.0</ele>
        <time>2018-05-26T09:17:23.149Z</time>
      </trkpt>
      <trkpt lat="40.73463833" lon="-4.01882333">
        <ele>1279.0</ele>
        <time>2018-05-26T09:17:24.155Z</time>
      </trkpt>
      <trkpt lat="40.73464" lon="-4.01889833">
        <ele>1280.0</ele>
        <time>2018-05-26T09:17:25.162Z</time>
      </trkpt>
      <trkpt lat="40.73464" lon="-4.01889833">
        <ele>1280.0</ele>
        <time>2018-05-26T09:17:26.138Z</time>
      </trkpt>
      <trkpt lat="40.73463667" lon="-4.01897333">
        <ele>1280.0</ele>
        <time>2018-05-26T09:17:27.169Z</time>
      </trkpt>
      <trkpt lat="40.73463667" lon="-4.01897333">
        <ele>1280.0</ele>
        <time>2018-05-26T09:17:28.174Z</time>
      </trkpt>
      <trkpt lat="40.73463833" lon="-4.01905">
        <ele>1280.0</ele>
        <time>2018-05-26T09:17:29.145Z</time>
      </trkpt>
      <trkpt lat="40.73463833" lon="-4.01908833">
        <ele>1280.0</ele>
        <time>2018-05-26T09:17:30.167Z</time>
      </trkpt>
      <trkpt lat="40.73463667" lon="-4.01912667">
        <ele>1280.0</ele>
        <time>2018-05-26T09:17:31.175Z</time>
      </trkpt>
      <trkpt lat="40.73463667" lon="-4.01912667">
        <ele>1280.0</ele>
        <time>2018-05-26T09:17:32.140Z</time>
      </trkpt>
      <trkpt lat="40.73462833" lon="-4.01920167">
        <ele>1280.0</ele>
        <time>2018-05-26T09:17:33.137Z</time>
      </trkpt>
      <trkpt lat="40.73462833" lon="-4.01920167">
        <ele>1280.0</ele>
        <time>2018-05-26T09:17:34.143Z</time>
      </trkpt>
      <trkpt lat="40.73461833" lon="-4.01928167">
        <ele>1281.0</ele>
        <time>2018-05-26T09:17:35.150Z</time>
      </trkpt>
      <trkpt lat="40.734615" lon="-4.01932">
        <ele>1281.0</ele>
        <time>2018-05-26T09:17:36.149Z</time>
      </trkpt>
      <trkpt lat="40.734615" lon="-4.01932">
        <ele>1281.0</ele>
        <time>2018-05-26T09:17:37.154Z</time>
      </trkpt>
      <trkpt lat="40.73461833" lon="-4.0194">
        <ele>1281.0</ele>
        <time>2018-05-26T09:17:38.161Z</time>
      </trkpt>
      <trkpt lat="40.73461833" lon="-4.0194">
        <ele>1281.0</ele>
        <time>2018-05-26T09:17:39.169Z</time>
      </trkpt>
      <trkpt lat="40.73461333" lon="-4.01947667">
        <ele>1283.0</ele>
        <time>2018-05-26T09:17:40.138Z</time>
      </trkpt>
      <trkpt lat="40.73461333" lon="-4.01947667">
        <ele>1283.0</ele>
        <time>2018-05-26T09:17:41.145Z</time>
      </trkpt>
      <trkpt lat="40.73461167" lon="-4.01955333">
        <ele>1283.0</ele>
        <time>2018-05-26T09:17:42.152Z</time>
      </trkpt>
      <trkpt lat="40.73461167" lon="-4.01955333">
        <ele>1283.0</ele>
        <time>2018-05-26T09:17:43.159Z</time>
      </trkpt>
      <trkpt lat="40.73460667" lon="-4.019635">
        <ele>1283.0</ele>
        <time>2018-05-26T09:17:44.147Z</time>
      </trkpt>
      <trkpt lat="40.73460667" lon="-4.019635">
        <ele>1283.0</ele>
        <time>2018-05-26T09:17:45.153Z</time>
      </trkpt>
      <trkpt lat="40.73460833" lon="-4.01971667">
        <ele>1284.0</ele>
        <time>2018-05-26T09:17:46.160Z</time>
      </trkpt>
      <trkpt lat="40.73461" lon="-4.01975833">
        <ele>1284.0</ele>
        <time>2018-05-26T09:17:47.170Z</time>
      </trkpt>
      <trkpt lat="40.73461" lon="-4.01975833">
        <ele>1284.0</ele>
        <time>2018-05-26T09:17:48.175Z</time>
      </trkpt>
      <trkpt lat="40.73460333" lon="-4.01984">
        <ele>1284.0</ele>
        <time>2018-05-26T09:17:49.144Z</time>
      </trkpt>
      <trkpt lat="40.7346" lon="-4.01988">
        <ele>1284.0</ele>
        <time>2018-05-26T09:17:50.159Z</time>
      </trkpt>
      <trkpt lat="40.734595" lon="-4.01992">
        <ele>1285.0</ele>
        <time>2018-05-26T09:17:51.174Z</time>
      </trkpt>
      <trkpt lat="40.734595" lon="-4.01992">
        <ele>1285.0</ele>
        <time>2018-05-26T09:17:52.140Z</time>
      </trkpt>
      <trkpt lat="40.73457833" lon="-4.01999667">
        <ele>1286.0</ele>
        <time>2018-05-26T09:17:53.146Z</time>
      </trkpt>
      <trkpt lat="40.73457" lon="-4.02003333">
        <ele>1287.0</ele>
        <time>2018-05-26T09:17:54.165Z</time>
      </trkpt>
      <trkpt lat="40.73457" lon="-4.02003333">
        <ele>1287.0</ele>
        <time>2018-05-26T09:17:55.171Z</time>
      </trkpt>
      <trkpt lat="40.73455" lon="-4.02010833">
        <ele>1288.0</ele>
        <time>2018-05-26T09:17:56.138Z</time>
      </trkpt>
      <trkpt lat="40.73453667" lon="-4.020145">
        <ele>1289.0</ele>
        <time>2018-05-26T09:17:57.136Z</time>
      </trkpt>
      <trkpt lat="40.73453667" lon="-4.020145">
        <ele>1289.0</ele>
        <time>2018-05-26T09:17:58.161Z</time>
      </trkpt>
      <trkpt lat="40.73451833" lon="-4.02022667">
        <ele>1289.0</ele>
        <time>2018-05-26T09:17:59.171Z</time>
      </trkpt>
      <trkpt lat="40.73451167" lon="-4.02027">
        <ele>1289.0</ele>
        <time>2018-05-26T09:18:00.144Z</time>
      </trkpt>
      <trkpt lat="40.73451167" lon="-4.02027">
        <ele>1289.0</ele>
        <time>2018-05-26T09:18:01.143Z</time>
      </trkpt>
      <trkpt lat="40.7345" lon="-4.02035333">
        <ele>1290.0</ele>
        <time>2018-05-26T09:18:02.149Z</time>
      </trkpt>
      <trkpt lat="40.734495" lon="-4.02039833">
        <ele>1290.0</ele>
        <time>2018-05-26T09:18:03.155Z</time>
      </trkpt>
      <trkpt lat="40.734495" lon="-4.02039833">
        <ele>1290.0</ele>
        <time>2018-05-26T09:18:04.163Z</time>
      </trkpt>
      <trkpt lat="40.73448" lon="-4.02048167">
        <ele>1291.0</ele>
        <time>2018-05-26T09:18:05.141Z</time>
      </trkpt>
      <trkpt lat="40.73448" lon="-4.02048167">
        <ele>1291.0</ele>
        <time>2018-05-26T09:18:06.147Z</time>
      </trkpt>
      <trkpt lat="40.73446" lon="-4.02055833">
        <ele>1291.0</ele>
        <time>2018-05-26T09:18:07.154Z</time>
      </trkpt>
      <trkpt lat="40.734455" lon="-4.02059667">
        <ele>1291.0</ele>
        <time>2018-05-26T09:18:08.170Z</time>
      </trkpt>
      <trkpt lat="40.73444667" lon="-4.02063667">
        <ele>1292.0</ele>
        <time>2018-05-26T09:18:09.157Z</time>
      </trkpt>
      <trkpt lat="40.73444667" lon="-4.02063667">
        <ele>1292.0</ele>
        <time>2018-05-26T09:18:10.163Z</time>
      </trkpt>
      <trkpt lat="40.73442833" lon="-4.020715">
        <ele>1292.0</ele>
        <time>2018-05-26T09:18:11.170Z</time>
      </trkpt>
      <trkpt lat="40.73442167" lon="-4.020755">
        <ele>1292.0</ele>
        <time>2018-05-26T09:18:12.175Z</time>
      </trkpt>
      <trkpt lat="40.73442167" lon="-4.020755">
        <ele>1292.0</ele>
        <time>2018-05-26T09:18:13.142Z</time>
      </trkpt>
      <trkpt lat="40.73440833" lon="-4.020835">
        <ele>1293.0</ele>
        <time>2018-05-26T09:18:14.149Z</time>
      </trkpt>
      <trkpt lat="40.73440833" lon="-4.020835">
        <ele>1293.0</ele>
        <time>2018-05-26T09:18:15.155Z</time>
      </trkpt>
      <trkpt lat="40.73439667" lon="-4.020915">
        <ele>1293.0</ele>
        <time>2018-05-26T09:18:16.164Z</time>
      </trkpt>
      <trkpt lat="40.73439667" lon="-4.020915">
        <ele>1293.0</ele>
        <time>2018-05-26T09:18:17.172Z</time>
      </trkpt>
      <trkpt lat="40.73438833" lon="-4.02099667">
        <ele>1294.0</ele>
        <time>2018-05-26T09:18:18.139Z</time>
      </trkpt>
      <trkpt lat="40.73438833" lon="-4.02099667">
        <ele>1294.0</ele>
        <time>2018-05-26T09:18:19.145Z</time>
      </trkpt>
      <trkpt lat="40.73438333" lon="-4.02107833">
        <ele>1294.0</ele>
        <time>2018-05-26T09:18:20.171Z</time>
      </trkpt>
      <trkpt lat="40.73438333" lon="-4.02107833">
        <ele>1294.0</ele>
        <time>2018-05-26T09:18:21.137Z</time>
      </trkpt>
      <trkpt lat="40.734385" lon="-4.02116">
        <ele>1295.0</ele>
        <time>2018-05-26T09:18:22.144Z</time>
      </trkpt>
      <trkpt lat="40.73439" lon="-4.0212">
        <ele>1295.0</ele>
        <time>2018-05-26T09:18:23.169Z</time>
      </trkpt>
      <trkpt lat="40.73439" lon="-4.0212">
        <ele>1295.0</ele>
        <time>2018-05-26T09:18:24.175Z</time>
      </trkpt>
      <trkpt lat="40.73440833" lon="-4.02127667">
        <ele>1295.0</ele>
        <time>2018-05-26T09:18:25.142Z</time>
      </trkpt>
      <trkpt lat="40.73440833" lon="-4.02127667">
        <ele>1295.0</ele>
        <time>2018-05-26T09:18:26.148Z</time>
      </trkpt>
      <trkpt lat="40.73443667" lon="-4.02134667">
        <ele>1296.0</ele>
        <time>2018-05-26T09:18:27.150Z</time>
      </trkpt>
      <trkpt lat="40.73443667" lon="-4.02134667">
        <ele>1296.0</ele>
        <time>2018-05-26T09:18:28.156Z</time>
      </trkpt>
      <trkpt lat="40.73446833" lon="-4.02141333">
        <ele>1296.0</ele>
        <time>2018-05-26T09:18:29.175Z</time>
      </trkpt>
      <trkpt lat="40.734485" lon="-4.021445">
        <ele>1296.0</ele>
        <time>2018-05-26T09:18:30.167Z</time>
      </trkpt>
      <trkpt lat="40.734485" lon="-4.021445">
        <ele>1296.0</ele>
        <time>2018-05-26T09:18:31.172Z</time>
      </trkpt>
      <trkpt lat="40.73452333" lon="-4.02150333">
        <ele>1296.0</ele>
        <time>2018-05-26T09:18:32.142Z</time>
      </trkpt>
      <trkpt lat="40.73452333" lon="-4.02150333">
        <ele>1296.0</ele>
        <time>2018-05-26T09:18:33.147Z</time>
      </trkpt>
      <trkpt lat="40.73456167" lon="-4.02156">
        <ele>1297.0</ele>
        <time>2018-05-26T09:18:34.164Z</time>
      </trkpt>
      <trkpt lat="40.73456167" lon="-4.02156">
        <ele>1297.0</ele>
        <time>2018-05-26T09:18:35.171Z</time>
      </trkpt>
      <trkpt lat="40.734605" lon="-4.02160667">
        <ele>1297.0</ele>
        <time>2018-05-26T09:18:36.168Z</time>
      </trkpt>
      <trkpt lat="40.73462833" lon="-4.02163">
        <ele>1297.0</ele>
        <time>2018-05-26T09:18:37.161Z</time>
      </trkpt>
      <trkpt lat="40.73462833" lon="-4.02163">
        <ele>1297.0</ele>
        <time>2018-05-26T09:18:38.169Z</time>
      </trkpt>
      <trkpt lat="40.73468" lon="-4.02167333">
        <ele>1298.0</ele>
        <time>2018-05-26T09:18:39.148Z</time>
      </trkpt>
      <trkpt lat="40.73468" lon="-4.02167333">
        <ele>1298.0</ele>
        <time>2018-05-26T09:18:40.165Z</time>
      </trkpt>
      <trkpt lat="40.73473333" lon="-4.02171167">
        <ele>1298.0</ele>
        <time>2018-05-26T09:18:41.165Z</time>
      </trkpt>
      <trkpt lat="40.73473333" lon="-4.02171167">
        <ele>1298.0</ele>
        <time>2018-05-26T09:18:42.172Z</time>
      </trkpt>
      <trkpt lat="40.734785" lon="-4.021745">
        <ele>1298.0</ele>
        <time>2018-05-26T09:18:43.140Z</time>
      </trkpt>
      <trkpt lat="40.734785" lon="-4.021745">
        <ele>1298.0</ele>
        <time>2018-05-26T09:18:44.145Z</time>
      </trkpt>
      <trkpt lat="40.73483167" lon="-4.02177833">
        <ele>1299.0</ele>
        <time>2018-05-26T09:18:45.150Z</time>
      </trkpt>
      <trkpt lat="40.73483167" lon="-4.02177833">
        <ele>1299.0</ele>
        <time>2018-05-26T09:18:46.156Z</time>
      </trkpt>
      <trkpt lat="40.73488333" lon="-4.02181333">
        <ele>1299.0</ele>
        <time>2018-05-26T09:18:47.172Z</time>
      </trkpt>
      <trkpt lat="40.73490667" lon="-4.02183">
        <ele>1299.0</ele>
        <time>2018-05-26T09:18:48.169Z</time>
      </trkpt>
      <trkpt lat="40.73490667" lon="-4.02183">
        <ele>1299.0</ele>
        <time>2018-05-26T09:18:49.174Z</time>
      </trkpt>
      <trkpt lat="40.73496" lon="-4.02186167">
        <ele>1299.0</ele>
        <time>2018-05-26T09:18:50.151Z</time>
      </trkpt>
      <trkpt lat="40.734985" lon="-4.02187833">
        <ele>1299.0</ele>
        <time>2018-05-26T09:18:51.158Z</time>
      </trkpt>
      <trkpt lat="40.734985" lon="-4.02187833">
        <ele>1299.0</ele>
        <time>2018-05-26T09:18:52.166Z</time>
      </trkpt>
      <trkpt lat="40.73503833" lon="-4.021915">
        <ele>1300.0</ele>
        <time>2018-05-26T09:18:53.160Z</time>
      </trkpt>
      <trkpt lat="40.73506333" lon="-4.02193333">
        <ele>1300.0</ele>
        <time>2018-05-26T09:18:54.170Z</time>
      </trkpt>
      <trkpt lat="40.73506333" lon="-4.02193333">
        <ele>1300.0</ele>
        <time>2018-05-26T09:18:55.175Z</time>
      </trkpt>
      <trkpt lat="40.735115" lon="-4.02197">
        <ele>1300.0</ele>
        <time>2018-05-26T09:18:56.169Z</time>
      </trkpt>
      <trkpt lat="40.73514167" lon="-4.02198833">
        <ele>1300.0</ele>
        <time>2018-05-26T09:18:57.136Z</time>
      </trkpt>
      <trkpt lat="40.73514167" lon="-4.02198833">
        <ele>1300.0</ele>
        <time>2018-05-26T09:18:58.141Z</time>
      </trkpt>
      <trkpt lat="40.73519667" lon="-4.02202167">
        <ele>1301.0</ele>
        <time>2018-05-26T09:18:59.171Z</time>
      </trkpt>
      <trkpt lat="40.73519667" lon="-4.02202167">
        <ele>1301.0</ele>
        <time>2018-05-26T09:19:00.163Z</time>
      </trkpt>
      <trkpt lat="40.73525167" lon="-4.02205333">
        <ele>1301.0</ele>
        <time>2018-05-26T09:19:01.136Z</time>
      </trkpt>
      <trkpt lat="40.73525167" lon="-4.02205333">
        <ele>1301.0</ele>
        <time>2018-05-26T09:19:02.160Z</time>
      </trkpt>
      <trkpt lat="40.73531333" lon="-4.02208167">
        <ele>1301.0</ele>
        <time>2018-05-26T09:19:03.167Z</time>
      </trkpt>
      <trkpt lat="40.73531333" lon="-4.02208167">
        <ele>1301.0</ele>
        <time>2018-05-26T09:19:04.173Z</time>
      </trkpt>
      <trkpt lat="40.73538" lon="-4.02211">
        <ele>1301.0</ele>
        <time>2018-05-26T09:19:05.169Z</time>
      </trkpt>
      <trkpt lat="40.73541" lon="-4.02212">
        <ele>1301.0</ele>
        <time>2018-05-26T09:19:06.175Z</time>
      </trkpt>
      <trkpt lat="40.73541" lon="-4.02212">
        <ele>1301.0</ele>
        <time>2018-05-26T09:19:07.141Z</time>
      </trkpt>
      <trkpt lat="40.73547333" lon="-4.02213833">
        <ele>1302.0</ele>
        <time>2018-05-26T09:19:08.148Z</time>
      </trkpt>
      <trkpt lat="40.73550667" lon="-4.02214667">
        <ele>1302.0</ele>
        <time>2018-05-26T09:19:09.172Z</time>
      </trkpt>
      <trkpt lat="40.73550667" lon="-4.02214667">
        <ele>1302.0</ele>
        <time>2018-05-26T09:19:10.152Z</time>
      </trkpt>
      <trkpt lat="40.73557333" lon="-4.02215833">
        <ele>1303.0</ele>
        <time>2018-05-26T09:19:11.159Z</time>
      </trkpt>
      <trkpt lat="40.73560833" lon="-4.02216167">
        <ele>1303.0</ele>
        <time>2018-05-26T09:19:12.149Z</time>
      </trkpt>
      <trkpt lat="40.73560833" lon="-4.02216167">
        <ele>1303.0</ele>
        <time>2018-05-26T09:19:13.156Z</time>
      </trkpt>
      <trkpt lat="40.73567667" lon="-4.022165">
        <ele>1303.0</ele>
        <time>2018-05-26T09:19:14.163Z</time>
      </trkpt>
      <trkpt lat="40.73567667" lon="-4.022165">
        <ele>1303.0</ele>
        <time>2018-05-26T09:19:15.169Z</time>
      </trkpt>
      <trkpt lat="40.73573833" lon="-4.02215667">
        <ele>1303.0</ele>
        <time>2018-05-26T09:19:16.172Z</time>
      </trkpt>
      <trkpt lat="40.73573833" lon="-4.02215667">
        <ele>1303.0</ele>
        <time>2018-05-26T09:19:17.137Z</time>
      </trkpt>
      <trkpt lat="40.73580333" lon="-4.02215">
        <ele>1303.0</ele>
        <time>2018-05-26T09:19:18.144Z</time>
      </trkpt>
      <trkpt lat="40.73583667" lon="-4.022145">
        <ele>1303.0</ele>
        <time>2018-05-26T09:19:19.169Z</time>
      </trkpt>
      <trkpt lat="40.73583667" lon="-4.022145">
        <ele>1303.0</ele>
        <time>2018-05-26T09:19:20.174Z</time>
      </trkpt>
      <trkpt lat="40.73590333" lon="-4.02213167">
        <ele>1304.0</ele>
        <time>2018-05-26T09:19:21.143Z</time>
      </trkpt>
      <trkpt lat="40.735935" lon="-4.02212333">
        <ele>1304.0</ele>
        <time>2018-05-26T09:19:22.164Z</time>
      </trkpt>
      <trkpt lat="40.735935" lon="-4.02212333">
        <ele>1304.0</ele>
        <time>2018-05-26T09:19:23.170Z</time>
      </trkpt>
      <trkpt lat="40.73599667" lon="-4.02210667">
        <ele>1304.0</ele>
        <time>2018-05-26T09:19:24.137Z</time>
      </trkpt>
      <trkpt lat="40.73599667" lon="-4.02210667">
        <ele>1304.0</ele>
        <time>2018-05-26T09:19:25.144Z</time>
      </trkpt>
      <trkpt lat="40.73606" lon="-4.02209">
        <ele>1305.0</ele>
        <time>2018-05-26T09:19:26.164Z</time>
      </trkpt>
      <trkpt lat="40.73606" lon="-4.02209">
        <ele>1305.0</ele>
        <time>2018-05-26T09:19:27.171Z</time>
      </trkpt>
      <trkpt lat="40.736125" lon="-4.022075">
        <ele>1305.0</ele>
        <time>2018-05-26T09:19:28.138Z</time>
      </trkpt>
      <trkpt lat="40.73616" lon="-4.02207">
        <ele>1305.0</ele>
        <time>2018-05-26T09:19:29.159Z</time>
      </trkpt>
      <trkpt lat="40.736195" lon="-4.022065">
        <ele>1305.0</ele>
        <time>2018-05-26T09:19:30.162Z</time>
      </trkpt>
      <trkpt lat="40.736195" lon="-4.022065">
        <ele>1305.0</ele>
        <time>2018-05-26T09:19:31.172Z</time>
      </trkpt>
      <trkpt lat="40.73626667" lon="-4.02206167">
        <ele>1305.0</ele>
        <time>2018-05-26T09:19:32.138Z</time>
      </trkpt>
      <trkpt lat="40.73630333" lon="-4.02206167">
        <ele>1305.0</ele>
        <time>2018-05-26T09:19:33.154Z</time>
      </trkpt>
      <trkpt lat="40.73630333" lon="-4.02206167">
        <ele>1305.0</ele>
        <time>2018-05-26T09:19:34.159Z</time>
      </trkpt>
      <trkpt lat="40.73637333" lon="-4.02206667">
        <ele>1305.0</ele>
        <time>2018-05-26T09:19:35.171Z</time>
      </trkpt>
      <trkpt lat="40.73640667" lon="-4.02207333">
        <ele>1305.0</ele>
        <time>2018-05-26T09:19:36.174Z</time>
      </trkpt>
      <trkpt lat="40.73640667" lon="-4.02207333">
        <ele>1305.0</ele>
        <time>2018-05-26T09:19:37.140Z</time>
      </trkpt>
      <trkpt lat="40.73646667" lon="-4.02209">
        <ele>1305.0</ele>
        <time>2018-05-26T09:19:38.147Z</time>
      </trkpt>
      <trkpt lat="40.73649667" lon="-4.0221">
        <ele>1305.0</ele>
        <time>2018-05-26T09:19:39.154Z</time>
      </trkpt>
      <trkpt lat="40.73649667" lon="-4.0221">
        <ele>1305.0</ele>
        <time>2018-05-26T09:19:40.163Z</time>
      </trkpt>
      <trkpt lat="40.73655833" lon="-4.02212167">
        <ele>1305.0</ele>
        <time>2018-05-26T09:19:41.136Z</time>
      </trkpt>
      <trkpt lat="40.73655833" lon="-4.02212167">
        <ele>1305.0</ele>
        <time>2018-05-26T09:19:42.142Z</time>
      </trkpt>
      <trkpt lat="40.73662333" lon="-4.02214">
        <ele>1305.0</ele>
        <time>2018-05-26T09:19:43.149Z</time>
      </trkpt>
      <trkpt lat="40.736655" lon="-4.02214667">
        <ele>1305.0</ele>
        <time>2018-05-26T09:19:44.139Z</time>
      </trkpt>
      <trkpt lat="40.73668667" lon="-4.02215333">
        <ele>1305.0</ele>
        <time>2018-05-26T09:19:45.146Z</time>
      </trkpt>
      <trkpt lat="40.73668667" lon="-4.02215333">
        <ele>1305.0</ele>
        <time>2018-05-26T09:19:46.153Z</time>
      </trkpt>
      <trkpt lat="40.73675" lon="-4.02216833">
        <ele>1305.0</ele>
        <time>2018-05-26T09:19:47.137Z</time>
      </trkpt>
      <trkpt lat="40.73677833" lon="-4.02218">
        <ele>1305.0</ele>
        <time>2018-05-26T09:19:48.144Z</time>
      </trkpt>
      <trkpt lat="40.73677833" lon="-4.02218">
        <ele>1305.0</ele>
        <time>2018-05-26T09:19:49.149Z</time>
      </trkpt>
      <trkpt lat="40.73683167" lon="-4.02221833">
        <ele>1306.0</ele>
        <time>2018-05-26T09:19:50.150Z</time>
      </trkpt>
      <trkpt lat="40.73685333" lon="-4.02224833">
        <ele>1306.0</ele>
        <time>2018-05-26T09:19:51.157Z</time>
      </trkpt>
      <trkpt lat="40.73685333" lon="-4.02224833">
        <ele>1306.0</ele>
        <time>2018-05-26T09:19:52.165Z</time>
      </trkpt>
      <trkpt lat="40.73689" lon="-4.02232333">
        <ele>1307.0</ele>
        <time>2018-05-26T09:19:53.160Z</time>
      </trkpt>
      <trkpt lat="40.73689" lon="-4.02232333">
        <ele>1307.0</ele>
        <time>2018-05-26T09:19:54.173Z</time>
      </trkpt>
      <trkpt lat="40.73690833" lon="-4.02241167">
        <ele>1307.0</ele>
        <time>2018-05-26T09:19:55.147Z</time>
      </trkpt>
      <trkpt lat="40.73690833" lon="-4.02241167">
        <ele>1307.0</ele>
        <time>2018-05-26T09:19:56.153Z</time>
      </trkpt>
      <trkpt lat="40.73690667" lon="-4.02251333">
        <ele>1307.0</ele>
        <time>2018-05-26T09:19:57.138Z</time>
      </trkpt>
      <trkpt lat="40.73690667" lon="-4.02251333">
        <ele>1307.0</ele>
        <time>2018-05-26T09:19:58.143Z</time>
      </trkpt>
      <trkpt lat="40.7369" lon="-4.02263">
        <ele>1306.0</ele>
        <time>2018-05-26T09:19:59.150Z</time>
      </trkpt>
      <trkpt lat="40.73689833" lon="-4.022705">
        <ele>1306.0</ele>
        <time>2018-05-26T09:20:00.156Z</time>
      </trkpt>
      <trkpt lat="40.73689833" lon="-4.022705">
        <ele>1306.0</ele>
        <time>2018-05-26T09:20:01.157Z</time>
      </trkpt>
      <trkpt lat="40.73689167" lon="-4.02285">
        <ele>1306.0</ele>
        <time>2018-05-26T09:20:02.166Z</time>
      </trkpt>
      <trkpt lat="40.73689" lon="-4.02291833">
        <ele>1305.0</ele>
        <time>2018-05-26T09:20:03.143Z</time>
      </trkpt>
      <trkpt lat="40.73689" lon="-4.02291833">
        <ele>1305.0</ele>
        <time>2018-05-26T09:20:04.149Z</time>
      </trkpt>
      <trkpt lat="40.736885" lon="-4.02306333">
        <ele>1304.0</ele>
        <time>2018-05-26T09:20:05.184Z</time>
      </trkpt>
      <trkpt lat="40.736885" lon="-4.02306333">
        <ele>1304.0</ele>
        <time>2018-05-26T09:20:06.154Z</time>
      </trkpt>
      <trkpt lat="40.736865" lon="-4.02322333">
        <ele>1304.0</ele>
        <time>2018-05-26T09:20:07.163Z</time>
      </trkpt>
      <trkpt lat="40.736865" lon="-4.02322333">
        <ele>1304.0</ele>
        <time>2018-05-26T09:20:08.169Z</time>
      </trkpt>
      <trkpt lat="40.73685333" lon="-4.02339167">
        <ele>1303.0</ele>
        <time>2018-05-26T09:20:09.137Z</time>
      </trkpt>
      <trkpt lat="40.73684667" lon="-4.02347167">
        <ele>1303.0</ele>
        <time>2018-05-26T09:20:10.158Z</time>
      </trkpt>
      <trkpt lat="40.73684667" lon="-4.02347167">
        <ele>1303.0</ele>
        <time>2018-05-26T09:20:11.149Z</time>
      </trkpt>
      <trkpt lat="40.73683" lon="-4.02362833">
        <ele>1302.0</ele>
        <time>2018-05-26T09:20:12.146Z</time>
      </trkpt>
      <trkpt lat="40.73683" lon="-4.02362833">
        <ele>1302.0</ele>
        <time>2018-05-26T09:20:13.152Z</time>
      </trkpt>
      <trkpt lat="40.736815" lon="-4.02379">
        <ele>1302.0</ele>
        <time>2018-05-26T09:20:14.159Z</time>
      </trkpt>
      <trkpt lat="40.736815" lon="-4.02379">
        <ele>1302.0</ele>
        <time>2018-05-26T09:20:15.169Z</time>
      </trkpt>
      <trkpt lat="40.73679333" lon="-4.02395333">
        <ele>1301.0</ele>
        <time>2018-05-26T09:20:16.139Z</time>
      </trkpt>
      <trkpt lat="40.73679333" lon="-4.02395333">
        <ele>1301.0</ele>
        <time>2018-05-26T09:20:17.144Z</time>
      </trkpt>
      <trkpt lat="40.73676167" lon="-4.02412167">
        <ele>1300.0</ele>
        <time>2018-05-26T09:20:18.151Z</time>
      </trkpt>
      <trkpt lat="40.73676167" lon="-4.02412167">
        <ele>1300.0</ele>
        <time>2018-05-26T09:20:19.157Z</time>
      </trkpt>
      <trkpt lat="40.736715" lon="-4.02429">
        <ele>1300.0</ele>
        <time>2018-05-26T09:20:20.151Z</time>
      </trkpt>
      <trkpt lat="40.736715" lon="-4.02429">
        <ele>1300.0</ele>
        <time>2018-05-26T09:20:21.158Z</time>
      </trkpt>
      <trkpt lat="40.736665" lon="-4.02446667">
        <ele>1299.0</ele>
        <time>2018-05-26T09:20:22.173Z</time>
      </trkpt>
      <trkpt lat="40.736665" lon="-4.02446667">
        <ele>1299.0</ele>
        <time>2018-05-26T09:20:23.138Z</time>
      </trkpt>
      <trkpt lat="40.73660333" lon="-4.02465">
        <ele>1299.0</ele>
        <time>2018-05-26T09:20:24.142Z</time>
      </trkpt>
      <trkpt lat="40.73660333" lon="-4.02465">
        <ele>1299.0</ele>
        <time>2018-05-26T09:20:25.148Z</time>
      </trkpt>
      <trkpt lat="40.73653833" lon="-4.02484667">
        <ele>1298.0</ele>
        <time>2018-05-26T09:20:26.155Z</time>
      </trkpt>
      <trkpt lat="40.73651333" lon="-4.02495167">
        <ele>1297.0</ele>
        <time>2018-05-26T09:20:27.167Z</time>
      </trkpt>
      <trkpt lat="40.73651333" lon="-4.02495167">
        <ele>1297.0</ele>
        <time>2018-05-26T09:20:28.173Z</time>
      </trkpt>
      <trkpt lat="40.73645333" lon="-4.02515667">
        <ele>1297.0</ele>
        <time>2018-05-26T09:20:29.141Z</time>
      </trkpt>
      <trkpt lat="40.73642333" lon="-4.02525833">
        <ele>1296.0</ele>
        <time>2018-05-26T09:20:30.141Z</time>
      </trkpt>
      <trkpt lat="40.73642333" lon="-4.02525833">
        <ele>1296.0</ele>
        <time>2018-05-26T09:20:31.148Z</time>
      </trkpt>
      <trkpt lat="40.73635833" lon="-4.02547">
        <ele>1295.0</ele>
        <time>2018-05-26T09:20:32.154Z</time>
      </trkpt>
      <trkpt lat="40.73635833" lon="-4.02547">
        <ele>1295.0</ele>
        <time>2018-05-26T09:20:33.161Z</time>
      </trkpt>
      <trkpt lat="40.73628833" lon="-4.02568667">
        <ele>1294.0</ele>
        <time>2018-05-26T09:20:34.167Z</time>
      </trkpt>
      <trkpt lat="40.73628833" lon="-4.02568667">
        <ele>1294.0</ele>
        <time>2018-05-26T09:20:35.174Z</time>
      </trkpt>
      <trkpt lat="40.736225" lon="-4.02590167">
        <ele>1293.0</ele>
        <time>2018-05-26T09:20:36.144Z</time>
      </trkpt>
      <trkpt lat="40.736225" lon="-4.02590167">
        <ele>1293.0</ele>
        <time>2018-05-26T09:20:37.150Z</time>
      </trkpt>
      <trkpt lat="40.736155" lon="-4.02611833">
        <ele>1292.0</ele>
        <time>2018-05-26T09:20:38.173Z</time>
      </trkpt>
      <trkpt lat="40.73612333" lon="-4.02622833">
        <ele>1292.0</ele>
        <time>2018-05-26T09:20:39.142Z</time>
      </trkpt>
      <trkpt lat="40.73612333" lon="-4.02622833">
        <ele>1292.0</ele>
        <time>2018-05-26T09:20:40.149Z</time>
      </trkpt>
      <trkpt lat="40.73605333" lon="-4.02645333">
        <ele>1291.0</ele>
        <time>2018-05-26T09:20:41.170Z</time>
      </trkpt>
      <trkpt lat="40.73601833" lon="-4.026565">
        <ele>1290.0</ele>
        <time>2018-05-26T09:20:42.137Z</time>
      </trkpt>
      <trkpt lat="40.73601833" lon="-4.026565">
        <ele>1290.0</ele>
        <time>2018-05-26T09:20:43.143Z</time>
      </trkpt>
      <trkpt lat="40.73595333" lon="-4.02679333">
        <ele>1289.0</ele>
        <time>2018-05-26T09:20:44.147Z</time>
      </trkpt>
      <trkpt lat="40.73595333" lon="-4.02679333">
        <ele>1289.0</ele>
        <time>2018-05-26T09:20:45.153Z</time>
      </trkpt>
      <trkpt lat="40.73591667" lon="-4.02703667">
        <ele>1288.0</ele>
        <time>2018-05-26T09:20:46.160Z</time>
      </trkpt>
      <trkpt lat="40.73591667" lon="-4.02703667">
        <ele>1288.0</ele>
        <time>2018-05-26T09:20:47.172Z</time>
      </trkpt>
      <trkpt lat="40.73592333" lon="-4.02729333">
        <ele>1287.0</ele>
        <time>2018-05-26T09:20:48.159Z</time>
      </trkpt>
      <trkpt lat="40.73592333" lon="-4.02729333">
        <ele>1287.0</ele>
        <time>2018-05-26T09:20:49.166Z</time>
      </trkpt>
      <trkpt lat="40.735975" lon="-4.02754">
        <ele>1286.0</ele>
        <time>2018-05-26T09:20:50.139Z</time>
      </trkpt>
      <trkpt lat="40.735975" lon="-4.02754">
        <ele>1286.0</ele>
        <time>2018-05-26T09:20:51.144Z</time>
      </trkpt>
      <trkpt lat="40.736085" lon="-4.027755">
        <ele>1285.0</ele>
        <time>2018-05-26T09:20:52.143Z</time>
      </trkpt>
      <trkpt lat="40.736085" lon="-4.027755">
        <ele>1285.0</ele>
        <time>2018-05-26T09:20:53.149Z</time>
      </trkpt>
      <trkpt lat="40.736225" lon="-4.02793667">
        <ele>1284.0</ele>
        <time>2018-05-26T09:20:54.156Z</time>
      </trkpt>
      <trkpt lat="40.736225" lon="-4.02793667">
        <ele>1284.0</ele>
        <time>2018-05-26T09:20:55.168Z</time>
      </trkpt>
      <trkpt lat="40.73639833" lon="-4.028065">
        <ele>1283.0</ele>
        <time>2018-05-26T09:20:56.141Z</time>
      </trkpt>
      <trkpt lat="40.73639833" lon="-4.028065">
        <ele>1283.0</ele>
        <time>2018-05-26T09:20:57.148Z</time>
      </trkpt>
      <trkpt lat="40.73657333" lon="-4.02816667">
        <ele>1282.0</ele>
        <time>2018-05-26T09:20:58.155Z</time>
      </trkpt>
      <trkpt lat="40.73666" lon="-4.02821167">
        <ele>1282.0</ele>
        <time>2018-05-26T09:20:59.161Z</time>
      </trkpt>
      <trkpt lat="40.736745" lon="-4.02826">
        <ele>1282.0</ele>
        <time>2018-05-26T09:21:00.161Z</time>
      </trkpt>
      <trkpt lat="40.736745" lon="-4.02826">
        <ele>1282.0</ele>
        <time>2018-05-26T09:21:01.166Z</time>
      </trkpt>
      <trkpt lat="40.73691667" lon="-4.028355">
        <ele>1281.0</ele>
        <time>2018-05-26T09:21:02.174Z</time>
      </trkpt>
      <trkpt lat="40.73699833" lon="-4.0284">
        <ele>1281.0</ele>
        <time>2018-05-26T09:21:03.140Z</time>
      </trkpt>
      <trkpt lat="40.73699833" lon="-4.0284">
        <ele>1281.0</ele>
        <time>2018-05-26T09:21:04.147Z</time>
      </trkpt>
      <trkpt lat="40.73716167" lon="-4.02849">
        <ele>1281.0</ele>
        <time>2018-05-26T09:21:05.138Z</time>
      </trkpt>
      <trkpt lat="40.73716167" lon="-4.02849">
        <ele>1281.0</ele>
        <time>2018-05-26T09:21:06.145Z</time>
      </trkpt>
      <trkpt lat="40.73732" lon="-4.02858">
        <ele>1280.0</ele>
        <time>2018-05-26T09:21:07.166Z</time>
      </trkpt>
      <trkpt lat="40.73739833" lon="-4.02862333">
        <ele>1280.0</ele>
        <time>2018-05-26T09:21:08.136Z</time>
      </trkpt>
      <trkpt lat="40.737475" lon="-4.028665">
        <ele>1280.0</ele>
        <time>2018-05-26T09:21:09.145Z</time>
      </trkpt>
      <trkpt lat="40.737475" lon="-4.028665">
        <ele>1280.0</ele>
        <time>2018-05-26T09:21:10.150Z</time>
      </trkpt>
      <trkpt lat="40.73762333" lon="-4.02875167">
        <ele>1280.0</ele>
        <time>2018-05-26T09:21:11.160Z</time>
      </trkpt>
      <trkpt lat="40.73769833" lon="-4.02879833">
        <ele>1280.0</ele>
        <time>2018-05-26T09:21:12.150Z</time>
      </trkpt>
      <trkpt lat="40.73769833" lon="-4.02879833">
        <ele>1280.0</ele>
        <time>2018-05-26T09:21:13.155Z</time>
      </trkpt>
      <trkpt lat="40.73784333" lon="-4.028885">
        <ele>1280.0</ele>
        <time>2018-05-26T09:21:14.163Z</time>
      </trkpt>
      <trkpt lat="40.73791333" lon="-4.02892667">
        <ele>1279.0</ele>
        <time>2018-05-26T09:21:15.145Z</time>
      </trkpt>
      <trkpt lat="40.737985" lon="-4.028965">
        <ele>1279.0</ele>
        <time>2018-05-26T09:21:16.163Z</time>
      </trkpt>
      <trkpt lat="40.737985" lon="-4.028965">
        <ele>1279.0</ele>
        <time>2018-05-26T09:21:17.169Z</time>
      </trkpt>
      <trkpt lat="40.73811833" lon="-4.02904333">
        <ele>1279.0</ele>
        <time>2018-05-26T09:21:18.136Z</time>
      </trkpt>
      <trkpt lat="40.73811833" lon="-4.02904333">
        <ele>1279.0</ele>
        <time>2018-05-26T09:21:19.141Z</time>
      </trkpt>
      <trkpt lat="40.73825167" lon="-4.02911833">
        <ele>1279.0</ele>
        <time>2018-05-26T09:21:20.159Z</time>
      </trkpt>
      <trkpt lat="40.73825167" lon="-4.02911833">
        <ele>1279.0</ele>
        <time>2018-05-26T09:21:21.165Z</time>
      </trkpt>
      <trkpt lat="40.73838833" lon="-4.02918167">
        <ele>1279.0</ele>
        <time>2018-05-26T09:21:22.172Z</time>
      </trkpt>
      <trkpt lat="40.73838833" lon="-4.02918167">
        <ele>1279.0</ele>
        <time>2018-05-26T09:21:23.137Z</time>
      </trkpt>
      <trkpt lat="40.73853" lon="-4.02923667">
        <ele>1278.0</ele>
        <time>2018-05-26T09:21:24.159Z</time>
      </trkpt>
      <trkpt lat="40.73853" lon="-4.02923667">
        <ele>1278.0</ele>
        <time>2018-05-26T09:21:25.169Z</time>
      </trkpt>
      <trkpt lat="40.73868" lon="-4.02928333">
        <ele>1278.0</ele>
        <time>2018-05-26T09:21:26.136Z</time>
      </trkpt>
      <trkpt lat="40.73868" lon="-4.02928333">
        <ele>1278.0</ele>
        <time>2018-05-26T09:21:27.140Z</time>
      </trkpt>
      <trkpt lat="40.73883667" lon="-4.029325">
        <ele>1277.0</ele>
        <time>2018-05-26T09:21:28.161Z</time>
      </trkpt>
      <trkpt lat="40.73883667" lon="-4.029325">
        <ele>1277.0</ele>
        <time>2018-05-26T09:21:29.169Z</time>
      </trkpt>
      <trkpt lat="40.738995" lon="-4.02936167">
        <ele>1277.0</ele>
        <time>2018-05-26T09:21:30.152Z</time>
      </trkpt>
      <trkpt lat="40.738995" lon="-4.02936167">
        <ele>1277.0</ele>
        <time>2018-05-26T09:21:31.164Z</time>
      </trkpt>
      <trkpt lat="40.73915" lon="-4.02940167">
        <ele>1277.0</ele>
        <time>2018-05-26T09:21:32.171Z</time>
      </trkpt>
      <trkpt lat="40.73922833" lon="-4.02942167">
        <ele>1277.0</ele>
        <time>2018-05-26T09:21:33.139Z</time>
      </trkpt>
      <trkpt lat="40.739305" lon="-4.02944167">
        <ele>1277.0</ele>
        <time>2018-05-26T09:21:34.165Z</time>
      </trkpt>
      <trkpt lat="40.739305" lon="-4.02944167">
        <ele>1277.0</ele>
        <time>2018-05-26T09:21:35.172Z</time>
      </trkpt>
      <trkpt lat="40.73946167" lon="-4.029475">
        <ele>1277.0</ele>
        <time>2018-05-26T09:21:36.146Z</time>
      </trkpt>
      <trkpt lat="40.73954167" lon="-4.02949333">
        <ele>1276.0</ele>
        <time>2018-05-26T09:21:37.147Z</time>
      </trkpt>
      <trkpt lat="40.73954167" lon="-4.02949333">
        <ele>1276.0</ele>
        <time>2018-05-26T09:21:38.153Z</time>
      </trkpt>
      <trkpt lat="40.73969" lon="-4.02953">
        <ele>1276.0</ele>
        <time>2018-05-26T09:21:39.160Z</time>
      </trkpt>
      <trkpt lat="40.73969" lon="-4.02953">
        <ele>1276.0</ele>
        <time>2018-05-26T09:21:40.170Z</time>
      </trkpt>
      <trkpt lat="40.73984167" lon="-4.02956833">
        <ele>1276.0</ele>
        <time>2018-05-26T09:21:41.156Z</time>
      </trkpt>
      <trkpt lat="40.73984167" lon="-4.02956833">
        <ele>1276.0</ele>
        <time>2018-05-26T09:21:42.173Z</time>
      </trkpt>
      <trkpt lat="40.73997833" lon="-4.029585">
        <ele>1276.0</ele>
        <time>2018-05-26T09:21:43.140Z</time>
      </trkpt>
      <trkpt lat="40.740055" lon="-4.02958333">
        <ele>1276.0</ele>
        <time>2018-05-26T09:21:44.176Z</time>
      </trkpt>
      <trkpt lat="40.740055" lon="-4.02958333">
        <ele>1276.0</ele>
        <time>2018-05-26T09:21:45.142Z</time>
      </trkpt>
      <trkpt lat="40.74019833" lon="-4.02958">
        <ele>1278.0</ele>
        <time>2018-05-26T09:21:46.148Z</time>
      </trkpt>
      <trkpt lat="40.74026833" lon="-4.02957667">
        <ele>1278.0</ele>
        <time>2018-05-26T09:21:47.160Z</time>
      </trkpt>
      <trkpt lat="40.74026833" lon="-4.02957667">
        <ele>1278.0</ele>
        <time>2018-05-26T09:21:48.170Z</time>
      </trkpt>
      <trkpt lat="40.740405" lon="-4.029575">
        <ele>1279.0</ele>
        <time>2018-05-26T09:21:49.141Z</time>
      </trkpt>
      <trkpt lat="40.740405" lon="-4.029575">
        <ele>1279.0</ele>
        <time>2018-05-26T09:21:50.146Z</time>
      </trkpt>
      <trkpt lat="40.74054" lon="-4.029565">
        <ele>1278.0</ele>
        <time>2018-05-26T09:21:51.159Z</time>
      </trkpt>
      <trkpt lat="40.74054" lon="-4.029565">
        <ele>1278.0</ele>
        <time>2018-05-26T09:21:52.173Z</time>
      </trkpt>
      <trkpt lat="40.74067167" lon="-4.02955833">
        <ele>1278.0</ele>
        <time>2018-05-26T09:21:53.140Z</time>
      </trkpt>
      <trkpt lat="40.74074" lon="-4.029555">
        <ele>1278.0</ele>
        <time>2018-05-26T09:21:54.160Z</time>
      </trkpt>
      <trkpt lat="40.74074" lon="-4.029555">
        <ele>1278.0</ele>
        <time>2018-05-26T09:21:55.169Z</time>
      </trkpt>
      <trkpt lat="40.740875" lon="-4.02954333">
        <ele>1279.0</ele>
        <time>2018-05-26T09:21:56.137Z</time>
      </trkpt>
      <trkpt lat="40.74094167" lon="-4.029535">
        <ele>1279.0</ele>
        <time>2018-05-26T09:21:57.136Z</time>
      </trkpt>
      <trkpt lat="40.74094167" lon="-4.029535">
        <ele>1279.0</ele>
        <time>2018-05-26T09:21:58.142Z</time>
      </trkpt>
      <trkpt lat="40.74108333" lon="-4.029495">
        <ele>1279.0</ele>
        <time>2018-05-26T09:21:59.149Z</time>
      </trkpt>
      <trkpt lat="40.74115167" lon="-4.02946">
        <ele>1278.0</ele>
        <time>2018-05-26T09:22:00.144Z</time>
      </trkpt>
      <trkpt lat="40.74115167" lon="-4.02946">
        <ele>1278.0</ele>
        <time>2018-05-26T09:22:01.143Z</time>
      </trkpt>
      <trkpt lat="40.74128833" lon="-4.029405">
        <ele>1277.0</ele>
        <time>2018-05-26T09:22:02.150Z</time>
      </trkpt>
      <trkpt lat="40.741355" lon="-4.02937333">
        <ele>1277.0</ele>
        <time>2018-05-26T09:22:03.156Z</time>
      </trkpt>
      <trkpt lat="40.741355" lon="-4.02937333">
        <ele>1277.0</ele>
        <time>2018-05-26T09:22:04.171Z</time>
      </trkpt>
      <trkpt lat="40.74148833" lon="-4.02931333">
        <ele>1277.0</ele>
        <time>2018-05-26T09:22:05.138Z</time>
      </trkpt>
      <trkpt lat="40.741555" lon="-4.02928">
        <ele>1277.0</ele>
        <time>2018-05-26T09:22:06.162Z</time>
      </trkpt>
      <trkpt lat="40.741555" lon="-4.02928">
        <ele>1277.0</ele>
        <time>2018-05-26T09:22:07.170Z</time>
      </trkpt>
      <trkpt lat="40.74169" lon="-4.02921667">
        <ele>1277.0</ele>
        <time>2018-05-26T09:22:08.137Z</time>
      </trkpt>
      <trkpt lat="40.741755" lon="-4.02918333">
        <ele>1277.0</ele>
        <time>2018-05-26T09:22:09.160Z</time>
      </trkpt>
      <trkpt lat="40.741755" lon="-4.02918333">
        <ele>1277.0</ele>
        <time>2018-05-26T09:22:10.169Z</time>
      </trkpt>
      <trkpt lat="40.74187167" lon="-4.02910167">
        <ele>1276.0</ele>
        <time>2018-05-26T09:22:11.173Z</time>
      </trkpt>
      <trkpt lat="40.74193333" lon="-4.02906">
        <ele>1276.0</ele>
        <time>2018-05-26T09:22:12.138Z</time>
      </trkpt>
      <trkpt lat="40.74193333" lon="-4.02906">
        <ele>1276.0</ele>
        <time>2018-05-26T09:22:13.144Z</time>
      </trkpt>
      <trkpt lat="40.742065" lon="-4.02898167">
        <ele>1276.0</ele>
        <time>2018-05-26T09:22:14.151Z</time>
      </trkpt>
      <trkpt lat="40.742065" lon="-4.02898167">
        <ele>1276.0</ele>
        <time>2018-05-26T09:22:15.161Z</time>
      </trkpt>
      <trkpt lat="40.74220667" lon="-4.02892833">
        <ele>1275.0</ele>
        <time>2018-05-26T09:22:16.164Z</time>
      </trkpt>
      <trkpt lat="40.74220667" lon="-4.02892833">
        <ele>1275.0</ele>
        <time>2018-05-26T09:22:17.170Z</time>
      </trkpt>
      <trkpt lat="40.74235667" lon="-4.02891833">
        <ele>1275.0</ele>
        <time>2018-05-26T09:22:18.137Z</time>
      </trkpt>
      <trkpt lat="40.74235667" lon="-4.02891833">
        <ele>1275.0</ele>
        <time>2018-05-26T09:22:19.143Z</time>
      </trkpt>
      <trkpt lat="40.742505" lon="-4.02894833">
        <ele>1275.0</ele>
        <time>2018-05-26T09:22:20.136Z</time>
      </trkpt>
      <trkpt lat="40.742505" lon="-4.02894833">
        <ele>1275.0</ele>
        <time>2018-05-26T09:22:21.143Z</time>
      </trkpt>
      <trkpt lat="40.74265" lon="-4.02900167">
        <ele>1276.0</ele>
        <time>2018-05-26T09:22:22.149Z</time>
      </trkpt>
      <trkpt lat="40.74265" lon="-4.02900167">
        <ele>1276.0</ele>
        <time>2018-05-26T09:22:23.155Z</time>
      </trkpt>
      <trkpt lat="40.742755" lon="-4.02908167">
        <ele>1274.0</ele>
        <time>2018-05-26T09:22:24.150Z</time>
      </trkpt>
      <trkpt lat="40.742755" lon="-4.02908167">
        <ele>1274.0</ele>
        <time>2018-05-26T09:22:25.156Z</time>
      </trkpt>
      <trkpt lat="40.74287" lon="-4.02921667">
        <ele>1274.0</ele>
        <time>2018-05-26T09:22:26.167Z</time>
      </trkpt>
      <trkpt lat="40.74287" lon="-4.02921667">
        <ele>1274.0</ele>
        <time>2018-05-26T09:22:27.174Z</time>
      </trkpt>
      <trkpt lat="40.742965" lon="-4.02935167">
        <ele>1274.0</ele>
        <time>2018-05-26T09:22:28.160Z</time>
      </trkpt>
      <trkpt lat="40.742965" lon="-4.02935167">
        <ele>1274.0</ele>
        <time>2018-05-26T09:22:29.166Z</time>
      </trkpt>
      <trkpt lat="40.74304833" lon="-4.02952">
        <ele>1274.0</ele>
        <time>2018-05-26T09:22:30.139Z</time>
      </trkpt>
      <trkpt lat="40.74304833" lon="-4.02952">
        <ele>1274.0</ele>
        <time>2018-05-26T09:22:31.152Z</time>
      </trkpt>
      <trkpt lat="40.743105" lon="-4.02969833">
        <ele>1274.0</ele>
        <time>2018-05-26T09:22:32.149Z</time>
      </trkpt>
      <trkpt lat="40.743105" lon="-4.02969833">
        <ele>1274.0</ele>
        <time>2018-05-26T09:22:33.155Z</time>
      </trkpt>
      <trkpt lat="40.74315167" lon="-4.02988167">
        <ele>1274.0</ele>
        <time>2018-05-26T09:22:34.163Z</time>
      </trkpt>
      <trkpt lat="40.74317333" lon="-4.02997167">
        <ele>1274.0</ele>
        <time>2018-05-26T09:22:35.170Z</time>
      </trkpt>
      <trkpt lat="40.743195" lon="-4.03006">
        <ele>1274.0</ele>
        <time>2018-05-26T09:22:36.140Z</time>
      </trkpt>
      <trkpt lat="40.743195" lon="-4.03006">
        <ele>1274.0</ele>
        <time>2018-05-26T09:22:37.145Z</time>
      </trkpt>
      <trkpt lat="40.74323167" lon="-4.030225">
        <ele>1274.0</ele>
        <time>2018-05-26T09:22:38.154Z</time>
      </trkpt>
      <trkpt lat="40.74323167" lon="-4.030225">
        <ele>1274.0</ele>
        <time>2018-05-26T09:22:39.160Z</time>
      </trkpt>
      <trkpt lat="40.74326333" lon="-4.03037">
        <ele>1275.0</ele>
        <time>2018-05-26T09:22:40.148Z</time>
      </trkpt>
      <trkpt lat="40.74326333" lon="-4.03037">
        <ele>1275.0</ele>
        <time>2018-05-26T09:22:41.155Z</time>
      </trkpt>
      <trkpt lat="40.74329667" lon="-4.03051333">
        <ele>1276.0</ele>
        <time>2018-05-26T09:22:42.147Z</time>
      </trkpt>
      <trkpt lat="40.74333" lon="-4.03058333">
        <ele>1276.0</ele>
        <time>2018-05-26T09:22:43.163Z</time>
      </trkpt>
      <trkpt lat="40.74333" lon="-4.03058333">
        <ele>1276.0</ele>
        <time>2018-05-26T09:22:44.169Z</time>
      </trkpt>
      <trkpt lat="40.74341667" lon="-4.03070833">
        <ele>1276.0</ele>
        <time>2018-05-26T09:22:45.175Z</time>
      </trkpt>
      <trkpt lat="40.74341667" lon="-4.03070833">
        <ele>1276.0</ele>
        <time>2018-05-26T09:22:46.141Z</time>
      </trkpt>
      <trkpt lat="40.743515" lon="-4.03082">
        <ele>1276.0</ele>
        <time>2018-05-26T09:22:47.140Z</time>
      </trkpt>
      <trkpt lat="40.743515" lon="-4.03082">
        <ele>1276.0</ele>
        <time>2018-05-26T09:22:48.145Z</time>
      </trkpt>
      <trkpt lat="40.743615" lon="-4.03093333">
        <ele>1276.0</ele>
        <time>2018-05-26T09:22:49.152Z</time>
      </trkpt>
      <trkpt lat="40.743615" lon="-4.03093333">
        <ele>1276.0</ele>
        <time>2018-05-26T09:22:50.161Z</time>
      </trkpt>
      <trkpt lat="40.74371667" lon="-4.03105">
        <ele>1277.0</ele>
        <time>2018-05-26T09:22:51.165Z</time>
      </trkpt>
      <trkpt lat="40.74371667" lon="-4.03105">
        <ele>1277.0</ele>
        <time>2018-05-26T09:22:52.171Z</time>
      </trkpt>
      <trkpt lat="40.74381833" lon="-4.03116833">
        <ele>1277.0</ele>
        <time>2018-05-26T09:22:53.139Z</time>
      </trkpt>
      <trkpt lat="40.74387167" lon="-4.03122167">
        <ele>1277.0</ele>
        <time>2018-05-26T09:22:54.175Z</time>
      </trkpt>
      <trkpt lat="40.74392333" lon="-4.03127833">
        <ele>1277.0</ele>
        <time>2018-05-26T09:22:55.154Z</time>
      </trkpt>
      <trkpt lat="40.74392333" lon="-4.03127833">
        <ele>1277.0</ele>
        <time>2018-05-26T09:22:56.160Z</time>
      </trkpt>
      <trkpt lat="40.74402833" lon="-4.031385">
        <ele>1278.0</ele>
        <time>2018-05-26T09:22:57.170Z</time>
      </trkpt>
      <trkpt lat="40.74408" lon="-4.03144167">
        <ele>1278.0</ele>
        <time>2018-05-26T09:22:58.136Z</time>
      </trkpt>
      <trkpt lat="40.74408" lon="-4.03144167">
        <ele>1278.0</ele>
        <time>2018-05-26T09:22:59.141Z</time>
      </trkpt>
      <trkpt lat="40.74417667" lon="-4.03154667">
        <ele>1278.0</ele>
        <time>2018-05-26T09:23:00.162Z</time>
      </trkpt>
      <trkpt lat="40.74417667" lon="-4.03154667">
        <ele>1278.0</ele>
        <time>2018-05-26T09:23:01.155Z</time>
      </trkpt>
      <trkpt lat="40.74428" lon="-4.03164833">
        <ele>1278.0</ele>
        <time>2018-05-26T09:23:02.168Z</time>
      </trkpt>
      <trkpt lat="40.74433167" lon="-4.03169167">
        <ele>1278.0</ele>
        <time>2018-05-26T09:23:03.174Z</time>
      </trkpt>
      <trkpt lat="40.74433167" lon="-4.03169167">
        <ele>1278.0</ele>
        <time>2018-05-26T09:23:04.139Z</time>
      </trkpt>
      <trkpt lat="40.744435" lon="-4.03180667">
        <ele>1278.0</ele>
        <time>2018-05-26T09:23:05.160Z</time>
      </trkpt>
      <trkpt lat="40.744435" lon="-4.03180667">
        <ele>1278.0</ele>
        <time>2018-05-26T09:23:06.170Z</time>
      </trkpt>
      <trkpt lat="40.74453333" lon="-4.031925">
        <ele>1279.0</ele>
        <time>2018-05-26T09:23:07.137Z</time>
      </trkpt>
      <trkpt lat="40.74453333" lon="-4.031925">
        <ele>1279.0</ele>
        <time>2018-05-26T09:23:08.143Z</time>
      </trkpt>
      <trkpt lat="40.74464" lon="-4.03203">
        <ele>1279.0</ele>
        <time>2018-05-26T09:23:09.160Z</time>
      </trkpt>
      <trkpt lat="40.74464" lon="-4.03203">
        <ele>1279.0</ele>
        <time>2018-05-26T09:23:10.169Z</time>
      </trkpt>
      <trkpt lat="40.74474333" lon="-4.03214">
        <ele>1279.0</ele>
        <time>2018-05-26T09:23:11.148Z</time>
      </trkpt>
      <trkpt lat="40.74479333" lon="-4.03219333">
        <ele>1280.0</ele>
        <time>2018-05-26T09:23:12.139Z</time>
      </trkpt>
      <trkpt lat="40.74479333" lon="-4.03219333">
        <ele>1280.0</ele>
        <time>2018-05-26T09:23:13.144Z</time>
      </trkpt>
      <trkpt lat="40.74489667" lon="-4.0323">
        <ele>1280.0</ele>
        <time>2018-05-26T09:23:14.151Z</time>
      </trkpt>
      <trkpt lat="40.74489667" lon="-4.0323">
        <ele>1280.0</ele>
        <time>2018-05-26T09:23:15.161Z</time>
      </trkpt>
      <trkpt lat="40.74499667" lon="-4.03240833">
        <ele>1280.0</ele>
        <time>2018-05-26T09:23:16.145Z</time>
      </trkpt>
      <trkpt lat="40.74499667" lon="-4.03240833">
        <ele>1280.0</ele>
        <time>2018-05-26T09:23:17.150Z</time>
      </trkpt>
      <trkpt lat="40.745095" lon="-4.03251167">
        <ele>1281.0</ele>
        <time>2018-05-26T09:23:18.157Z</time>
      </trkpt>
      <trkpt lat="40.745095" lon="-4.03251167">
        <ele>1281.0</ele>
        <time>2018-05-26T09:23:19.166Z</time>
      </trkpt>
      <trkpt lat="40.74519667" lon="-4.03260667">
        <ele>1282.0</ele>
        <time>2018-05-26T09:23:20.173Z</time>
      </trkpt>
      <trkpt lat="40.74519667" lon="-4.03260667">
        <ele>1282.0</ele>
        <time>2018-05-26T09:23:21.139Z</time>
      </trkpt>
      <trkpt lat="40.74530333" lon="-4.03268667">
        <ele>1282.0</ele>
        <time>2018-05-26T09:23:22.150Z</time>
      </trkpt>
      <trkpt lat="40.74535833" lon="-4.03272167">
        <ele>1283.0</ele>
        <time>2018-05-26T09:23:23.138Z</time>
      </trkpt>
      <trkpt lat="40.74535833" lon="-4.03272167">
        <ele>1283.0</ele>
        <time>2018-05-26T09:23:24.144Z</time>
      </trkpt>
      <trkpt lat="40.74547333" lon="-4.03277667">
        <ele>1283.0</ele>
        <time>2018-05-26T09:23:25.161Z</time>
      </trkpt>
      <trkpt lat="40.74553333" lon="-4.03279667">
        <ele>1283.0</ele>
        <time>2018-05-26T09:23:26.169Z</time>
      </trkpt>
      <trkpt lat="40.74553333" lon="-4.03279667">
        <ele>1283.0</ele>
        <time>2018-05-26T09:23:27.174Z</time>
      </trkpt>
      <trkpt lat="40.74565" lon="-4.03282">
        <ele>1284.0</ele>
        <time>2018-05-26T09:23:28.142Z</time>
      </trkpt>
      <trkpt lat="40.74571" lon="-4.032825">
        <ele>1284.0</ele>
        <time>2018-05-26T09:23:29.148Z</time>
      </trkpt>
      <trkpt lat="40.74571" lon="-4.032825">
        <ele>1284.0</ele>
        <time>2018-05-26T09:23:30.172Z</time>
      </trkpt>
      <trkpt lat="40.74582667" lon="-4.03283167">
        <ele>1285.0</ele>
        <time>2018-05-26T09:23:31.159Z</time>
      </trkpt>
      <trkpt lat="40.74582667" lon="-4.03283167">
        <ele>1285.0</ele>
        <time>2018-05-26T09:23:32.165Z</time>
      </trkpt>
      <trkpt lat="40.74594" lon="-4.032845">
        <ele>1284.0</ele>
        <time>2018-05-26T09:23:33.168Z</time>
      </trkpt>
      <trkpt lat="40.74594" lon="-4.032845">
        <ele>1284.0</ele>
        <time>2018-05-26T09:23:34.175Z</time>
      </trkpt>
      <trkpt lat="40.74605833" lon="-4.03286167">
        <ele>1284.0</ele>
        <time>2018-05-26T09:23:35.149Z</time>
      </trkpt>
      <trkpt lat="40.74605833" lon="-4.03286167">
        <ele>1284.0</ele>
        <time>2018-05-26T09:23:36.154Z</time>
      </trkpt>
      <trkpt lat="40.746175" lon="-4.03288833">
        <ele>1284.0</ele>
        <time>2018-05-26T09:23:37.162Z</time>
      </trkpt>
      <trkpt lat="40.746235" lon="-4.032905">
        <ele>1284.0</ele>
        <time>2018-05-26T09:23:38.175Z</time>
      </trkpt>
      <trkpt lat="40.74629333" lon="-4.03292667">
        <ele>1284.0</ele>
        <time>2018-05-26T09:23:39.136Z</time>
      </trkpt>
      <trkpt lat="40.74629333" lon="-4.03292667">
        <ele>1284.0</ele>
        <time>2018-05-26T09:23:40.143Z</time>
      </trkpt>
      <trkpt lat="40.74640667" lon="-4.03297">
        <ele>1284.0</ele>
        <time>2018-05-26T09:23:41.150Z</time>
      </trkpt>
      <trkpt lat="40.74646167" lon="-4.03299333">
        <ele>1285.0</ele>
        <time>2018-05-26T09:23:42.151Z</time>
      </trkpt>
      <trkpt lat="40.746515" lon="-4.03302">
        <ele>1285.0</ele>
        <time>2018-05-26T09:23:43.157Z</time>
      </trkpt>
      <trkpt lat="40.746515" lon="-4.03302">
        <ele>1285.0</ele>
        <time>2018-05-26T09:23:44.172Z</time>
      </trkpt>
      <trkpt lat="40.74661833" lon="-4.03307833">
        <ele>1285.0</ele>
        <time>2018-05-26T09:23:45.159Z</time>
      </trkpt>
      <trkpt lat="40.74661833" lon="-4.03307833">
        <ele>1285.0</ele>
        <time>2018-05-26T09:23:46.171Z</time>
      </trkpt>
      <trkpt lat="40.74671167" lon="-4.03314">
        <ele>1285.0</ele>
        <time>2018-05-26T09:23:47.156Z</time>
      </trkpt>
      <trkpt lat="40.74675667" lon="-4.03316833">
        <ele>1285.0</ele>
        <time>2018-05-26T09:23:48.154Z</time>
      </trkpt>
      <trkpt lat="40.74675667" lon="-4.03316833">
        <ele>1285.0</ele>
        <time>2018-05-26T09:23:49.161Z</time>
      </trkpt>
      <trkpt lat="40.74683833" lon="-4.033225">
        <ele>1285.0</ele>
        <time>2018-05-26T09:23:50.174Z</time>
      </trkpt>
      <trkpt lat="40.74686667" lon="-4.03325167">
        <ele>1285.0</ele>
        <time>2018-05-26T09:23:51.167Z</time>
      </trkpt>
      <trkpt lat="40.74686667" lon="-4.03325167">
        <ele>1285.0</ele>
        <time>2018-05-26T09:23:52.174Z</time>
      </trkpt>
      <trkpt lat="40.74686" lon="-4.03332833">
        <ele>1284.0</ele>
        <time>2018-05-26T09:23:53.143Z</time>
      </trkpt>
      <trkpt lat="40.74683667" lon="-4.03336667">
        <ele>1284.0</ele>
        <time>2018-05-26T09:23:54.166Z</time>
      </trkpt>
      <trkpt lat="40.74683667" lon="-4.03336667">
        <ele>1284.0</ele>
        <time>2018-05-26T09:23:55.172Z</time>
      </trkpt>
      <trkpt lat="40.74673" lon="-4.03339833">
        <ele>1284.0</ele>
        <time>2018-05-26T09:23:56.140Z</time>
      </trkpt>
      <trkpt lat="40.74666667" lon="-4.03340667">
        <ele>1283.0</ele>
        <time>2018-05-26T09:23:57.174Z</time>
      </trkpt>
      <trkpt lat="40.74666667" lon="-4.03340667">
        <ele>1283.0</ele>
        <time>2018-05-26T09:23:58.140Z</time>
      </trkpt>
      <trkpt lat="40.74651667" lon="-4.033435">
        <ele>1281.0</ele>
        <time>2018-05-26T09:23:59.147Z</time>
      </trkpt>
      <trkpt lat="40.74643167" lon="-4.03346333">
        <ele>1280.0</ele>
        <time>2018-05-26T09:24:00.159Z</time>
      </trkpt>
      <trkpt lat="40.74643167" lon="-4.03346333">
        <ele>1280.0</ele>
        <time>2018-05-26T09:24:01.141Z</time>
      </trkpt>
      <trkpt lat="40.74626167" lon="-4.03351833">
        <ele>1279.0</ele>
        <time>2018-05-26T09:24:02.159Z</time>
      </trkpt>
      <trkpt lat="40.74617167" lon="-4.033545">
        <ele>1278.0</ele>
        <time>2018-05-26T09:24:03.170Z</time>
      </trkpt>
      <trkpt lat="40.74617167" lon="-4.033545">
        <ele>1278.0</ele>
        <time>2018-05-26T09:24:04.136Z</time>
      </trkpt>
      <trkpt lat="40.74598833" lon="-4.0336">
        <ele>1276.0</ele>
        <time>2018-05-26T09:24:05.168Z</time>
      </trkpt>
      <trkpt lat="40.745885" lon="-4.033625">
        <ele>1275.0</ele>
        <time>2018-05-26T09:24:06.175Z</time>
      </trkpt>
      <trkpt lat="40.745885" lon="-4.033625">
        <ele>1275.0</ele>
        <time>2018-05-26T09:24:07.141Z</time>
      </trkpt>
      <trkpt lat="40.74566333" lon="-4.03364167">
        <ele>1273.0</ele>
        <time>2018-05-26T09:24:08.168Z</time>
      </trkpt>
      <trkpt lat="40.74566333" lon="-4.03364167">
        <ele>1273.0</ele>
        <time>2018-05-26T09:24:09.175Z</time>
      </trkpt>
      <trkpt lat="40.74545833" lon="-4.03366667">
        <ele>1271.0</ele>
        <time>2018-05-26T09:24:10.151Z</time>
      </trkpt>
      <trkpt lat="40.74537" lon="-4.03368833">
        <ele>1271.0</ele>
        <time>2018-05-26T09:24:11.149Z</time>
      </trkpt>
      <trkpt lat="40.74529667" lon="-4.03373333">
        <ele>1270.0</ele>
        <time>2018-05-26T09:24:12.156Z</time>
      </trkpt>
      <trkpt lat="40.74529667" lon="-4.03373333">
        <ele>1270.0</ele>
        <time>2018-05-26T09:24:13.165Z</time>
      </trkpt>
      <trkpt lat="40.74517667" lon="-4.03388667">
        <ele>1268.0</ele>
        <time>2018-05-26T09:24:14.163Z</time>
      </trkpt>
      <trkpt lat="40.74517667" lon="-4.03388667">
        <ele>1268.0</ele>
        <time>2018-05-26T09:24:15.169Z</time>
      </trkpt>
      <trkpt lat="40.74507167" lon="-4.03409333">
        <ele>1266.0</ele>
        <time>2018-05-26T09:24:16.146Z</time>
      </trkpt>
      <trkpt lat="40.74502" lon="-4.03420833">
        <ele>1265.0</ele>
        <time>2018-05-26T09:24:17.141Z</time>
      </trkpt>
      <trkpt lat="40.74502" lon="-4.03420833">
        <ele>1265.0</ele>
        <time>2018-05-26T09:24:18.147Z</time>
      </trkpt>
      <trkpt lat="40.74491333" lon="-4.03444667">
        <ele>1263.0</ele>
        <time>2018-05-26T09:24:19.154Z</time>
      </trkpt>
      <trkpt lat="40.74491333" lon="-4.03444667">
        <ele>1263.0</ele>
        <time>2018-05-26T09:24:20.162Z</time>
      </trkpt>
      <trkpt lat="40.74480333" lon="-4.03468">
        <ele>1262.0</ele>
        <time>2018-05-26T09:24:21.144Z</time>
      </trkpt>
      <trkpt lat="40.74480333" lon="-4.03468">
        <ele>1262.0</ele>
        <time>2018-05-26T09:24:22.150Z</time>
      </trkpt>
      <trkpt lat="40.74468" lon="-4.034895">
        <ele>1260.0</ele>
        <time>2018-05-26T09:24:23.156Z</time>
      </trkpt>
      <trkpt lat="40.744615" lon="-4.03500333">
        <ele>1259.0</ele>
        <time>2018-05-26T09:24:24.155Z</time>
      </trkpt>
      <trkpt lat="40.744615" lon="-4.03500333">
        <ele>1259.0</ele>
        <time>2018-05-26T09:24:25.161Z</time>
      </trkpt>
      <trkpt lat="40.744485" lon="-4.03521667">
        <ele>1258.0</ele>
        <time>2018-05-26T09:24:26.174Z</time>
      </trkpt>
      <trkpt lat="40.74442" lon="-4.03531833">
        <ele>1257.0</ele>
        <time>2018-05-26T09:24:27.175Z</time>
      </trkpt>
      <trkpt lat="40.74442" lon="-4.03531833">
        <ele>1257.0</ele>
        <time>2018-05-26T09:24:28.141Z</time>
      </trkpt>
      <trkpt lat="40.74427667" lon="-4.03551333">
        <ele>1256.0</ele>
        <time>2018-05-26T09:24:29.152Z</time>
      </trkpt>
      <trkpt lat="40.74419833" lon="-4.035605">
        <ele>1255.0</ele>
        <time>2018-05-26T09:24:30.139Z</time>
      </trkpt>
      <trkpt lat="40.74419833" lon="-4.035605">
        <ele>1255.0</ele>
        <time>2018-05-26T09:24:31.145Z</time>
      </trkpt>
      <trkpt lat="40.74403667" lon="-4.035775">
        <ele>1254.0</ele>
        <time>2018-05-26T09:24:32.163Z</time>
      </trkpt>
      <trkpt lat="40.74395333" lon="-4.03584">
        <ele>1253.0</ele>
        <time>2018-05-26T09:24:33.140Z</time>
      </trkpt>
      <trkpt lat="40.74387" lon="-4.03591667">
        <ele>1253.0</ele>
        <time>2018-05-26T09:24:34.147Z</time>
      </trkpt>
      <trkpt lat="40.74387" lon="-4.03591667">
        <ele>1253.0</ele>
        <time>2018-05-26T09:24:35.154Z</time>
      </trkpt>
      <trkpt lat="40.743735" lon="-4.03608">
        <ele>1251.0</ele>
        <time>2018-05-26T09:24:36.144Z</time>
      </trkpt>
      <trkpt lat="40.743735" lon="-4.03608">
        <ele>1251.0</ele>
        <time>2018-05-26T09:24:37.151Z</time>
      </trkpt>
      <trkpt lat="40.74364833" lon="-4.03623833">
        <ele>1251.0</ele>
        <time>2018-05-26T09:24:38.162Z</time>
      </trkpt>
      <trkpt lat="40.74364833" lon="-4.03623833">
        <ele>1251.0</ele>
        <time>2018-05-26T09:24:39.168Z</time>
      </trkpt>
      <trkpt lat="40.74355833" lon="-4.036415">
        <ele>1250.0</ele>
        <time>2018-05-26T09:24:40.145Z</time>
      </trkpt>
      <trkpt lat="40.74355833" lon="-4.036415">
        <ele>1250.0</ele>
        <time>2018-05-26T09:24:41.150Z</time>
      </trkpt>
      <trkpt lat="40.74343833" lon="-4.036585">
        <ele>1248.0</ele>
        <time>2018-05-26T09:24:42.157Z</time>
      </trkpt>
      <trkpt lat="40.74343833" lon="-4.036585">
        <ele>1248.0</ele>
        <time>2018-05-26T09:24:43.171Z</time>
      </trkpt>
      <trkpt lat="40.743305" lon="-4.03677">
        <ele>1247.0</ele>
        <time>2018-05-26T09:24:44.141Z</time>
      </trkpt>
      <trkpt lat="40.743305" lon="-4.03677">
        <ele>1247.0</ele>
        <time>2018-05-26T09:24:45.160Z</time>
      </trkpt>
      <trkpt lat="40.74315" lon="-4.03690167">
        <ele>1245.0</ele>
        <time>2018-05-26T09:24:46.170Z</time>
      </trkpt>
      <trkpt lat="40.74307167" lon="-4.036945">
        <ele>1244.0</ele>
        <time>2018-05-26T09:24:47.148Z</time>
      </trkpt>
      <trkpt lat="40.743" lon="-4.036995">
        <ele>1244.0</ele>
        <time>2018-05-26T09:24:48.155Z</time>
      </trkpt>
      <trkpt lat="40.743" lon="-4.036995">
        <ele>1244.0</ele>
        <time>2018-05-26T09:24:49.162Z</time>
      </trkpt>
      <trkpt lat="40.742875" lon="-4.03714667">
        <ele>1242.0</ele>
        <time>2018-05-26T09:24:50.158Z</time>
      </trkpt>
      <trkpt lat="40.74281833" lon="-4.03724333">
        <ele>1242.0</ele>
        <time>2018-05-26T09:24:51.157Z</time>
      </trkpt>
      <trkpt lat="40.74281833" lon="-4.03724333">
        <ele>1242.0</ele>
        <time>2018-05-26T09:24:52.173Z</time>
      </trkpt>
      <trkpt lat="40.74269667" lon="-4.03745833">
        <ele>1240.0</ele>
        <time>2018-05-26T09:24:53.143Z</time>
      </trkpt>
      <trkpt lat="40.74263167" lon="-4.03757167">
        <ele>1239.0</ele>
        <time>2018-05-26T09:24:54.141Z</time>
      </trkpt>
      <trkpt lat="40.74263167" lon="-4.03757167">
        <ele>1239.0</ele>
        <time>2018-05-26T09:24:55.147Z</time>
      </trkpt>
      <trkpt lat="40.74251" lon="-4.037825">
        <ele>1236.0</ele>
        <time>2018-05-26T09:24:56.154Z</time>
      </trkpt>
      <trkpt lat="40.74251" lon="-4.037825">
        <ele>1236.0</ele>
        <time>2018-05-26T09:24:57.161Z</time>
      </trkpt>
      <trkpt lat="40.74237" lon="-4.03809">
        <ele>1234.0</ele>
        <time>2018-05-26T09:24:58.155Z</time>
      </trkpt>
      <trkpt lat="40.74237" lon="-4.03809">
        <ele>1234.0</ele>
        <time>2018-05-26T09:24:59.160Z</time>
      </trkpt>
      <trkpt lat="40.74220667" lon="-4.03834167">
        <ele>1232.0</ele>
        <time>2018-05-26T09:25:00.160Z</time>
      </trkpt>
      <trkpt lat="40.74220667" lon="-4.03834167">
        <ele>1232.0</ele>
        <time>2018-05-26T09:25:01.147Z</time>
      </trkpt>
      <trkpt lat="40.74202833" lon="-4.03858167">
        <ele>1231.0</ele>
        <time>2018-05-26T09:25:02.154Z</time>
      </trkpt>
      <trkpt lat="40.74202833" lon="-4.03858167">
        <ele>1231.0</ele>
        <time>2018-05-26T09:25:03.161Z</time>
      </trkpt>
      <trkpt lat="40.74184167" lon="-4.03879333">
        <ele>1229.0</ele>
        <time>2018-05-26T09:25:04.170Z</time>
      </trkpt>
      <trkpt lat="40.74184167" lon="-4.03879333">
        <ele>1229.0</ele>
        <time>2018-05-26T09:25:05.136Z</time>
      </trkpt>
      <trkpt lat="40.74167833" lon="-4.038965">
        <ele>1227.0</ele>
        <time>2018-05-26T09:25:06.149Z</time>
      </trkpt>
      <trkpt lat="40.74167833" lon="-4.038965">
        <ele>1227.0</ele>
        <time>2018-05-26T09:25:07.155Z</time>
      </trkpt>
      <trkpt lat="40.74149167" lon="-4.03907">
        <ele>1224.0</ele>
        <time>2018-05-26T09:25:08.162Z</time>
      </trkpt>
      <trkpt lat="40.74138833" lon="-4.0391">
        <ele>1223.0</ele>
        <time>2018-05-26T09:25:09.142Z</time>
      </trkpt>
      <trkpt lat="40.74128833" lon="-4.039115">
        <ele>1222.0</ele>
        <time>2018-05-26T09:25:10.173Z</time>
      </trkpt>
      <trkpt lat="40.74128833" lon="-4.039115">
        <ele>1222.0</ele>
        <time>2018-05-26T09:25:11.139Z</time>
      </trkpt>
      <trkpt lat="40.74112667" lon="-4.03911333">
        <ele>1220.0</ele>
        <time>2018-05-26T09:25:12.146Z</time>
      </trkpt>
      <trkpt lat="40.74112667" lon="-4.03911333">
        <ele>1220.0</ele>
        <time>2018-05-26T09:25:13.153Z</time>
      </trkpt>
      <trkpt lat="40.74103667" lon="-4.03916333">
        <ele>1218.0</ele>
        <time>2018-05-26T09:25:14.145Z</time>
      </trkpt>
      <trkpt lat="40.74103667" lon="-4.03916333">
        <ele>1218.0</ele>
        <time>2018-05-26T09:25:15.151Z</time>
      </trkpt>
      <trkpt lat="40.74105167" lon="-4.03927167">
        <ele>1216.0</ele>
        <time>2018-05-26T09:25:16.172Z</time>
      </trkpt>
      <trkpt lat="40.741095" lon="-4.03933833">
        <ele>1215.0</ele>
        <time>2018-05-26T09:25:17.160Z</time>
      </trkpt>
      <trkpt lat="40.74115833" lon="-4.03940833">
        <ele>1214.0</ele>
        <time>2018-05-26T09:25:18.167Z</time>
      </trkpt>
      <trkpt lat="40.74115833" lon="-4.03940833">
        <ele>1214.0</ele>
        <time>2018-05-26T09:25:19.173Z</time>
      </trkpt>
      <trkpt lat="40.74129833" lon="-4.03957167">
        <ele>1212.0</ele>
        <time>2018-05-26T09:25:20.161Z</time>
      </trkpt>
      <trkpt lat="40.74129833" lon="-4.03957167">
        <ele>1212.0</ele>
        <time>2018-05-26T09:25:21.168Z</time>
      </trkpt>
      <trkpt lat="40.74145333" lon="-4.03974833">
        <ele>1209.0</ele>
        <time>2018-05-26T09:25:22.138Z</time>
      </trkpt>
      <trkpt lat="40.74153667" lon="-4.03984667">
        <ele>1208.0</ele>
        <time>2018-05-26T09:25:23.146Z</time>
      </trkpt>
      <trkpt lat="40.74153667" lon="-4.03984667">
        <ele>1208.0</ele>
        <time>2018-05-26T09:25:24.151Z</time>
      </trkpt>
      <trkpt lat="40.74171" lon="-4.04005">
        <ele>1206.0</ele>
        <time>2018-05-26T09:25:25.158Z</time>
      </trkpt>
      <trkpt lat="40.74171" lon="-4.04005">
        <ele>1206.0</ele>
        <time>2018-05-26T09:25:26.165Z</time>
      </trkpt>
      <trkpt lat="40.74187" lon="-4.04020667">
        <ele>1204.0</ele>
        <time>2018-05-26T09:25:27.159Z</time>
      </trkpt>
      <trkpt lat="40.74187" lon="-4.04020667">
        <ele>1204.0</ele>
        <time>2018-05-26T09:25:28.169Z</time>
      </trkpt>
      <trkpt lat="40.74203833" lon="-4.04031833">
        <ele>1202.0</ele>
        <time>2018-05-26T09:25:29.136Z</time>
      </trkpt>
      <trkpt lat="40.74211667" lon="-4.04038333">
        <ele>1200.0</ele>
        <time>2018-05-26T09:25:30.166Z</time>
      </trkpt>
      <trkpt lat="40.74211667" lon="-4.04038333">
        <ele>1200.0</ele>
        <time>2018-05-26T09:25:31.173Z</time>
      </trkpt>
      <trkpt lat="40.74223167" lon="-4.04055833">
        <ele>1198.0</ele>
        <time>2018-05-26T09:25:32.140Z</time>
      </trkpt>
      <trkpt lat="40.74226333" lon="-4.04066167">
        <ele>1197.0</ele>
        <time>2018-05-26T09:25:33.172Z</time>
      </trkpt>
      <trkpt lat="40.74226333" lon="-4.04066167">
        <ele>1197.0</ele>
        <time>2018-05-26T09:25:34.138Z</time>
      </trkpt>
      <trkpt lat="40.74226" lon="-4.04085833">
        <ele>1195.0</ele>
        <time>2018-05-26T09:25:35.145Z</time>
      </trkpt>
      <trkpt lat="40.74226" lon="-4.04085833">
        <ele>1195.0</ele>
        <time>2018-05-26T09:25:36.151Z</time>
      </trkpt>
      <trkpt lat="40.74219167" lon="-4.04103833">
        <ele>1194.0</ele>
        <time>2018-05-26T09:25:37.157Z</time>
      </trkpt>
      <trkpt lat="40.74219167" lon="-4.04103833">
        <ele>1194.0</ele>
        <time>2018-05-26T09:25:38.169Z</time>
      </trkpt>
      <trkpt lat="40.74209" lon="-4.04121167">
        <ele>1192.0</ele>
        <time>2018-05-26T09:25:39.151Z</time>
      </trkpt>
      <trkpt lat="40.74209" lon="-4.04121167">
        <ele>1192.0</ele>
        <time>2018-05-26T09:25:40.157Z</time>
      </trkpt>
      <trkpt lat="40.74201667" lon="-4.041395">
        <ele>1191.0</ele>
        <time>2018-05-26T09:25:41.150Z</time>
      </trkpt>
      <trkpt lat="40.742005" lon="-4.04149667">
        <ele>1190.0</ele>
        <time>2018-05-26T09:25:42.157Z</time>
      </trkpt>
      <trkpt lat="40.742005" lon="-4.04149667">
        <ele>1190.0</ele>
        <time>2018-05-26T09:25:43.170Z</time>
      </trkpt>
      <trkpt lat="40.74200333" lon="-4.04171167">
        <ele>1189.0</ele>
        <time>2018-05-26T09:25:44.163Z</time>
      </trkpt>
      <trkpt lat="40.74201333" lon="-4.04183333">
        <ele>1188.0</ele>
        <time>2018-05-26T09:25:45.172Z</time>
      </trkpt>
      <trkpt lat="40.74201333" lon="-4.04183333">
        <ele>1188.0</ele>
        <time>2018-05-26T09:25:46.138Z</time>
      </trkpt>
      <trkpt lat="40.74204833" lon="-4.04207167">
        <ele>1186.0</ele>
        <time>2018-05-26T09:25:47.169Z</time>
      </trkpt>
      <trkpt lat="40.742075" lon="-4.04219167">
        <ele>1185.0</ele>
        <time>2018-05-26T09:25:48.136Z</time>
      </trkpt>
      <trkpt lat="40.742075" lon="-4.04219167">
        <ele>1185.0</ele>
        <time>2018-05-26T09:25:49.142Z</time>
      </trkpt>
      <trkpt lat="40.74214167" lon="-4.042435">
        <ele>1184.0</ele>
        <time>2018-05-26T09:25:50.160Z</time>
      </trkpt>
      <trkpt lat="40.74214167" lon="-4.042435">
        <ele>1184.0</ele>
        <time>2018-05-26T09:25:51.174Z</time>
      </trkpt>
      <trkpt lat="40.7422" lon="-4.042675">
        <ele>1183.0</ele>
        <time>2018-05-26T09:25:52.140Z</time>
      </trkpt>
      <trkpt lat="40.74223667" lon="-4.04278833">
        <ele>1182.0</ele>
        <time>2018-05-26T09:25:53.153Z</time>
      </trkpt>
      <trkpt lat="40.74229167" lon="-4.04288333">
        <ele>1182.0</ele>
        <time>2018-05-26T09:25:54.146Z</time>
      </trkpt>
      <trkpt lat="40.74229167" lon="-4.04288333">
        <ele>1182.0</ele>
        <time>2018-05-26T09:25:55.153Z</time>
      </trkpt>
      <trkpt lat="40.74244167" lon="-4.043035">
        <ele>1180.0</ele>
        <time>2018-05-26T09:25:56.160Z</time>
      </trkpt>
      <trkpt lat="40.742525" lon="-4.04309667">
        <ele>1179.0</ele>
        <time>2018-05-26T09:25:57.170Z</time>
      </trkpt>
      <trkpt lat="40.742525" lon="-4.04309667">
        <ele>1179.0</ele>
        <time>2018-05-26T09:25:58.136Z</time>
      </trkpt>
      <trkpt lat="40.74268833" lon="-4.04322833">
        <ele>1178.0</ele>
        <time>2018-05-26T09:25:59.143Z</time>
      </trkpt>
      <trkpt lat="40.74276" lon="-4.04330667">
        <ele>1177.0</ele>
        <time>2018-05-26T09:26:00.159Z</time>
      </trkpt>
      <trkpt lat="40.74276" lon="-4.04330667">
        <ele>1177.0</ele>
        <time>2018-05-26T09:26:01.169Z</time>
      </trkpt>
      <trkpt lat="40.742875" lon="-4.0435">
        <ele>1176.0</ele>
        <time>2018-05-26T09:26:02.159Z</time>
      </trkpt>
      <trkpt lat="40.742875" lon="-4.0435">
        <ele>1176.0</ele>
        <time>2018-05-26T09:26:03.170Z</time>
      </trkpt>
      <trkpt lat="40.74294" lon="-4.04372833">
        <ele>1175.0</ele>
        <time>2018-05-26T09:26:04.139Z</time>
      </trkpt>
      <trkpt lat="40.74295333" lon="-4.04384167">
        <ele>1174.0</ele>
        <time>2018-05-26T09:26:05.139Z</time>
      </trkpt>
      <trkpt lat="40.74294333" lon="-4.04395">
        <ele>1174.0</ele>
        <time>2018-05-26T09:26:06.145Z</time>
      </trkpt>
      <trkpt lat="40.74294333" lon="-4.04395">
        <ele>1174.0</ele>
        <time>2018-05-26T09:26:07.152Z</time>
      </trkpt>
      <trkpt lat="40.742875" lon="-4.04413667">
        <ele>1172.0</ele>
        <time>2018-05-26T09:26:08.171Z</time>
      </trkpt>
      <trkpt lat="40.74282" lon="-4.04421333">
        <ele>1172.0</ele>
        <time>2018-05-26T09:26:09.144Z</time>
      </trkpt>
      <trkpt lat="40.74282" lon="-4.04421333">
        <ele>1172.0</ele>
        <time>2018-05-26T09:26:10.172Z</time>
      </trkpt>
      <trkpt lat="40.742695" lon="-4.044335">
        <ele>1172.0</ele>
        <time>2018-05-26T09:26:11.163Z</time>
      </trkpt>
      <trkpt lat="40.74263" lon="-4.04438333">
        <ele>1172.0</ele>
        <time>2018-05-26T09:26:12.136Z</time>
      </trkpt>
      <trkpt lat="40.74263" lon="-4.04438333">
        <ele>1172.0</ele>
        <time>2018-05-26T09:26:13.148Z</time>
      </trkpt>
      <trkpt lat="40.74252" lon="-4.044485">
        <ele>1173.0</ele>
        <time>2018-05-26T09:26:14.160Z</time>
      </trkpt>
      <trkpt lat="40.74252" lon="-4.044485">
        <ele>1173.0</ele>
        <time>2018-05-26T09:26:15.169Z</time>
      </trkpt>
      <trkpt lat="40.74241667" lon="-4.04460667">
        <ele>1175.0</ele>
        <time>2018-05-26T09:26:16.136Z</time>
      </trkpt>
      <trkpt lat="40.74236667" lon="-4.04467167">
        <ele>1176.0</ele>
        <time>2018-05-26T09:26:17.167Z</time>
      </trkpt>
      <trkpt lat="40.74236667" lon="-4.04467167">
        <ele>1176.0</ele>
        <time>2018-05-26T09:26:18.174Z</time>
      </trkpt>
      <trkpt lat="40.742285" lon="-4.04478333">
        <ele>1178.0</ele>
        <time>2018-05-26T09:26:19.141Z</time>
      </trkpt>
      <trkpt lat="40.742255" lon="-4.04483833">
        <ele>1179.0</ele>
        <time>2018-05-26T09:26:20.169Z</time>
      </trkpt>
      <trkpt lat="40.742255" lon="-4.04483833">
        <ele>1179.0</ele>
        <time>2018-05-26T09:26:21.175Z</time>
      </trkpt>
      <trkpt lat="40.742205" lon="-4.04495667">
        <ele>1180.0</ele>
        <time>2018-05-26T09:26:22.143Z</time>
      </trkpt>
      <trkpt lat="40.74218167" lon="-4.04501667">
        <ele>1182.0</ele>
        <time>2018-05-26T09:26:23.140Z</time>
      </trkpt>
      <trkpt lat="40.74216333" lon="-4.04507667">
        <ele>1183.0</ele>
        <time>2018-05-26T09:26:24.146Z</time>
      </trkpt>
      <trkpt lat="40.74216333" lon="-4.04507667">
        <ele>1183.0</ele>
        <time>2018-05-26T09:26:25.153Z</time>
      </trkpt>
      <trkpt lat="40.742135" lon="-4.04518667">
        <ele>1184.0</ele>
        <time>2018-05-26T09:26:26.172Z</time>
      </trkpt>
      <trkpt lat="40.742125" lon="-4.04523667">
        <ele>1185.0</ele>
        <time>2018-05-26T09:26:27.139Z</time>
      </trkpt>
      <trkpt lat="40.742125" lon="-4.04523667">
        <ele>1185.0</ele>
        <time>2018-05-26T09:26:28.145Z</time>
      </trkpt>
      <trkpt lat="40.74210667" lon="-4.04533167">
        <ele>1186.0</ele>
        <time>2018-05-26T09:26:29.170Z</time>
      </trkpt>
      <trkpt lat="40.74209833" lon="-4.04537833">
        <ele>1186.0</ele>
        <time>2018-05-26T09:26:30.139Z</time>
      </trkpt>
      <trkpt lat="40.74209833" lon="-4.04537833">
        <ele>1186.0</ele>
        <time>2018-05-26T09:26:31.146Z</time>
      </trkpt>
      <trkpt lat="40.74208167" lon="-4.04547">
        <ele>1187.0</ele>
        <time>2018-05-26T09:26:32.167Z</time>
      </trkpt>
      <trkpt lat="40.74208167" lon="-4.04547">
        <ele>1187.0</ele>
        <time>2018-05-26T09:26:33.174Z</time>
      </trkpt>
      <trkpt lat="40.74206833" lon="-4.04556333">
        <ele>1188.0</ele>
        <time>2018-05-26T09:26:34.143Z</time>
      </trkpt>
      <trkpt lat="40.742065" lon="-4.04561">
        <ele>1188.0</ele>
        <time>2018-05-26T09:26:35.157Z</time>
      </trkpt>
      <trkpt lat="40.74206" lon="-4.04565667">
        <ele>1188.0</ele>
        <time>2018-05-26T09:26:36.139Z</time>
      </trkpt>
      <trkpt lat="40.74206" lon="-4.04565667">
        <ele>1188.0</ele>
        <time>2018-05-26T09:26:37.145Z</time>
      </trkpt>
      <trkpt lat="40.74205167" lon="-4.04574">
        <ele>1189.0</ele>
        <time>2018-05-26T09:26:38.152Z</time>
      </trkpt>
      <trkpt lat="40.74205167" lon="-4.04574">
        <ele>1189.0</ele>
        <time>2018-05-26T09:26:39.158Z</time>
      </trkpt>
      <trkpt lat="40.74204667" lon="-4.04582333">
        <ele>1189.0</ele>
        <time>2018-05-26T09:26:40.155Z</time>
      </trkpt>
      <trkpt lat="40.74204667" lon="-4.04582333">
        <ele>1189.0</ele>
        <time>2018-05-26T09:26:41.160Z</time>
      </trkpt>
      <trkpt lat="40.74204167" lon="-4.04591333">
        <ele>1190.0</ele>
        <time>2018-05-26T09:26:42.151Z</time>
      </trkpt>
      <trkpt lat="40.74204167" lon="-4.04591333">
        <ele>1190.0</ele>
        <time>2018-05-26T09:26:43.150Z</time>
      </trkpt>
      <trkpt lat="40.74203167" lon="-4.046005">
        <ele>1190.0</ele>
        <time>2018-05-26T09:26:44.175Z</time>
      </trkpt>
      <trkpt lat="40.74203167" lon="-4.046005">
        <ele>1190.0</ele>
        <time>2018-05-26T09:26:45.141Z</time>
      </trkpt>
      <trkpt lat="40.74202" lon="-4.04609833">
        <ele>1191.0</ele>
        <time>2018-05-26T09:26:46.155Z</time>
      </trkpt>
      <trkpt lat="40.742015" lon="-4.04614667">
        <ele>1191.0</ele>
        <time>2018-05-26T09:26:47.163Z</time>
      </trkpt>
      <trkpt lat="40.742015" lon="-4.04614667">
        <ele>1191.0</ele>
        <time>2018-05-26T09:26:48.171Z</time>
      </trkpt>
      <trkpt lat="40.74200667" lon="-4.046245">
        <ele>1191.0</ele>
        <time>2018-05-26T09:26:49.139Z</time>
      </trkpt>
      <trkpt lat="40.74200667" lon="-4.046245">
        <ele>1191.0</ele>
        <time>2018-05-26T09:26:50.144Z</time>
      </trkpt>
      <trkpt lat="40.74199667" lon="-4.04634333">
        <ele>1191.0</ele>
        <time>2018-05-26T09:26:51.170Z</time>
      </trkpt>
      <trkpt lat="40.74199667" lon="-4.04634333">
        <ele>1191.0</ele>
        <time>2018-05-26T09:26:52.136Z</time>
      </trkpt>
      <trkpt lat="40.74198667" lon="-4.04644333">
        <ele>1191.0</ele>
        <time>2018-05-26T09:26:53.144Z</time>
      </trkpt>
      <trkpt lat="40.74198667" lon="-4.04644333">
        <ele>1191.0</ele>
        <time>2018-05-26T09:26:54.150Z</time>
      </trkpt>
      <trkpt lat="40.74197833" lon="-4.046545">
        <ele>1191.0</ele>
        <time>2018-05-26T09:26:55.169Z</time>
      </trkpt>
      <trkpt lat="40.74197833" lon="-4.046545">
        <ele>1191.0</ele>
        <time>2018-05-26T09:26:56.174Z</time>
      </trkpt>
      <trkpt lat="40.74196333" lon="-4.04664333">
        <ele>1192.0</ele>
        <time>2018-05-26T09:26:57.141Z</time>
      </trkpt>
      <trkpt lat="40.741955" lon="-4.04669333">
        <ele>1192.0</ele>
        <time>2018-05-26T09:26:58.175Z</time>
      </trkpt>
      <trkpt lat="40.741955" lon="-4.04669333">
        <ele>1192.0</ele>
        <time>2018-05-26T09:26:59.141Z</time>
      </trkpt>
      <trkpt lat="40.74193833" lon="-4.046795">
        <ele>1192.0</ele>
        <time>2018-05-26T09:27:00.154Z</time>
      </trkpt>
      <trkpt lat="40.74193333" lon="-4.04684667">
        <ele>1192.0</ele>
        <time>2018-05-26T09:27:01.154Z</time>
      </trkpt>
      <trkpt lat="40.74193333" lon="-4.04684667">
        <ele>1192.0</ele>
        <time>2018-05-26T09:27:02.161Z</time>
      </trkpt>
      <trkpt lat="40.74191833" lon="-4.04695">
        <ele>1193.0</ele>
        <time>2018-05-26T09:27:03.166Z</time>
      </trkpt>
      <trkpt lat="40.74191833" lon="-4.04695">
        <ele>1193.0</ele>
        <time>2018-05-26T09:27:04.136Z</time>
      </trkpt>
      <trkpt lat="40.7419" lon="-4.04705">
        <ele>1193.0</ele>
        <time>2018-05-26T09:27:05.143Z</time>
      </trkpt>
      <trkpt lat="40.7419" lon="-4.04705">
        <ele>1193.0</ele>
        <time>2018-05-26T09:27:06.149Z</time>
      </trkpt>
      <trkpt lat="40.74188667" lon="-4.04715333">
        <ele>1193.0</ele>
        <time>2018-05-26T09:27:07.167Z</time>
      </trkpt>
      <trkpt lat="40.74188667" lon="-4.04715333">
        <ele>1193.0</ele>
        <time>2018-05-26T09:27:08.172Z</time>
      </trkpt>
      <trkpt lat="40.74186833" lon="-4.04725667">
        <ele>1194.0</ele>
        <time>2018-05-26T09:27:09.140Z</time>
      </trkpt>
      <trkpt lat="40.74186" lon="-4.04730833">
        <ele>1194.0</ele>
        <time>2018-05-26T09:27:10.146Z</time>
      </trkpt>
      <trkpt lat="40.74186" lon="-4.04730833">
        <ele>1194.0</ele>
        <time>2018-05-26T09:27:11.152Z</time>
      </trkpt>
      <trkpt lat="40.741845" lon="-4.04740667">
        <ele>1195.0</ele>
        <time>2018-05-26T09:27:12.160Z</time>
      </trkpt>
      <trkpt lat="40.74183833" lon="-4.047455">
        <ele>1195.0</ele>
        <time>2018-05-26T09:27:13.139Z</time>
      </trkpt>
      <trkpt lat="40.74183833" lon="-4.047455">
        <ele>1195.0</ele>
        <time>2018-05-26T09:27:14.145Z</time>
      </trkpt>
      <trkpt lat="40.74181833" lon="-4.04754167">
        <ele>1195.0</ele>
        <time>2018-05-26T09:27:15.151Z</time>
      </trkpt>
      <trkpt lat="40.74181" lon="-4.04758667">
        <ele>1196.0</ele>
        <time>2018-05-26T09:27:16.166Z</time>
      </trkpt>
      <trkpt lat="40.74181" lon="-4.04758667">
        <ele>1196.0</ele>
        <time>2018-05-26T09:27:17.172Z</time>
      </trkpt>
      <trkpt lat="40.74178667" lon="-4.04768">
        <ele>1196.0</ele>
        <time>2018-05-26T09:27:18.148Z</time>
      </trkpt>
      <trkpt lat="40.74178667" lon="-4.04768">
        <ele>1196.0</ele>
        <time>2018-05-26T09:27:19.138Z</time>
      </trkpt>
      <trkpt lat="40.74175833" lon="-4.04777833">
        <ele>1196.0</ele>
        <time>2018-05-26T09:27:20.160Z</time>
      </trkpt>
      <trkpt lat="40.74175833" lon="-4.04777833">
        <ele>1196.0</ele>
        <time>2018-05-26T09:27:21.169Z</time>
      </trkpt>
      <trkpt lat="40.74172833" lon="-4.04787333">
        <ele>1197.0</ele>
        <time>2018-05-26T09:27:22.139Z</time>
      </trkpt>
      <trkpt lat="40.74172833" lon="-4.04787333">
        <ele>1197.0</ele>
        <time>2018-05-26T09:27:23.144Z</time>
      </trkpt>
      <trkpt lat="40.7417" lon="-4.04796">
        <ele>1198.0</ele>
        <time>2018-05-26T09:27:24.148Z</time>
      </trkpt>
      <trkpt lat="40.7417" lon="-4.04796">
        <ele>1198.0</ele>
        <time>2018-05-26T09:27:25.155Z</time>
      </trkpt>
      <trkpt lat="40.74167" lon="-4.04804833">
        <ele>1199.0</ele>
        <time>2018-05-26T09:27:26.138Z</time>
      </trkpt>
      <trkpt lat="40.74165667" lon="-4.0481">
        <ele>1199.0</ele>
        <time>2018-05-26T09:27:27.139Z</time>
      </trkpt>
      <trkpt lat="40.74165667" lon="-4.0481">
        <ele>1199.0</ele>
        <time>2018-05-26T09:27:28.145Z</time>
      </trkpt>
      <trkpt lat="40.74162667" lon="-4.04819">
        <ele>1200.0</ele>
        <time>2018-05-26T09:27:29.152Z</time>
      </trkpt>
      <trkpt lat="40.74161" lon="-4.04822833">
        <ele>1200.0</ele>
        <time>2018-05-26T09:27:30.139Z</time>
      </trkpt>
      <trkpt lat="40.74161" lon="-4.04822833">
        <ele>1200.0</ele>
        <time>2018-05-26T09:27:31.136Z</time>
      </trkpt>
      <trkpt lat="40.74158333" lon="-4.04832">
        <ele>1201.0</ele>
        <time>2018-05-26T09:27:32.160Z</time>
      </trkpt>
      <trkpt lat="40.74158333" lon="-4.04832">
        <ele>1201.0</ele>
        <time>2018-05-26T09:27:33.171Z</time>
      </trkpt>
      <trkpt lat="40.74155333" lon="-4.04841667">
        <ele>1201.0</ele>
        <time>2018-05-26T09:27:34.160Z</time>
      </trkpt>
      <trkpt lat="40.74155333" lon="-4.04841667">
        <ele>1201.0</ele>
        <time>2018-05-26T09:27:35.174Z</time>
      </trkpt>
      <trkpt lat="40.74152667" lon="-4.04852">
        <ele>1201.0</ele>
        <time>2018-05-26T09:27:36.168Z</time>
      </trkpt>
      <trkpt lat="40.74152667" lon="-4.04852">
        <ele>1201.0</ele>
        <time>2018-05-26T09:27:37.148Z</time>
      </trkpt>
      <trkpt lat="40.74149833" lon="-4.04861667">
        <ele>1201.0</ele>
        <time>2018-05-26T09:27:38.175Z</time>
      </trkpt>
      <trkpt lat="40.74149833" lon="-4.04861667">
        <ele>1201.0</ele>
        <time>2018-05-26T09:27:39.142Z</time>
      </trkpt>
      <trkpt lat="40.74147833" lon="-4.04872">
        <ele>1202.0</ele>
        <time>2018-05-26T09:27:40.145Z</time>
      </trkpt>
      <trkpt lat="40.74147833" lon="-4.04872">
        <ele>1202.0</ele>
        <time>2018-05-26T09:27:41.151Z</time>
      </trkpt>
      <trkpt lat="40.74146" lon="-4.04882667">
        <ele>1201.0</ele>
        <time>2018-05-26T09:27:42.160Z</time>
      </trkpt>
      <trkpt lat="40.74146" lon="-4.04882667">
        <ele>1201.0</ele>
        <time>2018-05-26T09:27:43.170Z</time>
      </trkpt>
      <trkpt lat="40.74144333" lon="-4.04892833">
        <ele>1202.0</ele>
        <time>2018-05-26T09:27:44.162Z</time>
      </trkpt>
      <trkpt lat="40.74144333" lon="-4.04892833">
        <ele>1202.0</ele>
        <time>2018-05-26T09:27:45.169Z</time>
      </trkpt>
      <trkpt lat="40.74144167" lon="-4.04904167">
        <ele>1202.0</ele>
        <time>2018-05-26T09:27:46.157Z</time>
      </trkpt>
      <trkpt lat="40.74144333" lon="-4.04910333">
        <ele>1202.0</ele>
        <time>2018-05-26T09:27:47.149Z</time>
      </trkpt>
      <trkpt lat="40.74144333" lon="-4.04910333">
        <ele>1202.0</ele>
        <time>2018-05-26T09:27:48.155Z</time>
      </trkpt>
      <trkpt lat="40.74145" lon="-4.04923">
        <ele>1202.0</ele>
        <time>2018-05-26T09:27:49.162Z</time>
      </trkpt>
      <trkpt lat="40.74145" lon="-4.04923">
        <ele>1202.0</ele>
        <time>2018-05-26T09:27:50.169Z</time>
      </trkpt>
      <trkpt lat="40.741455" lon="-4.04936">
        <ele>1201.0</ele>
        <time>2018-05-26T09:27:51.155Z</time>
      </trkpt>
      <trkpt lat="40.741455" lon="-4.04936">
        <ele>1201.0</ele>
        <time>2018-05-26T09:27:52.162Z</time>
      </trkpt>
      <trkpt lat="40.741465" lon="-4.04950167">
        <ele>1201.0</ele>
        <time>2018-05-26T09:27:53.169Z</time>
      </trkpt>
      <trkpt lat="40.74147333" lon="-4.04957667">
        <ele>1200.0</ele>
        <time>2018-05-26T09:27:54.160Z</time>
      </trkpt>
      <trkpt lat="40.74147333" lon="-4.04957667">
        <ele>1200.0</ele>
        <time>2018-05-26T09:27:55.167Z</time>
      </trkpt>
      <trkpt lat="40.741505" lon="-4.04974333">
        <ele>1199.0</ele>
        <time>2018-05-26T09:27:56.153Z</time>
      </trkpt>
      <trkpt lat="40.74151833" lon="-4.04982667">
        <ele>1199.0</ele>
        <time>2018-05-26T09:27:57.169Z</time>
      </trkpt>
      <trkpt lat="40.74151833" lon="-4.04982667">
        <ele>1199.0</ele>
        <time>2018-05-26T09:27:58.175Z</time>
      </trkpt>
      <trkpt lat="40.74156" lon="-4.05000833">
        <ele>1197.0</ele>
        <time>2018-05-26T09:27:59.142Z</time>
      </trkpt>
      <trkpt lat="40.741585" lon="-4.05011">
        <ele>1196.0</ele>
        <time>2018-05-26T09:28:00.162Z</time>
      </trkpt>
      <trkpt lat="40.741585" lon="-4.05011">
        <ele>1196.0</ele>
        <time>2018-05-26T09:28:01.138Z</time>
      </trkpt>
      <trkpt lat="40.74163333" lon="-4.05031">
        <ele>1194.0</ele>
        <time>2018-05-26T09:28:02.159Z</time>
      </trkpt>
      <trkpt lat="40.74165667" lon="-4.050415">
        <ele>1193.0</ele>
        <time>2018-05-26T09:28:03.166Z</time>
      </trkpt>
      <trkpt lat="40.74165667" lon="-4.050415">
        <ele>1193.0</ele>
        <time>2018-05-26T09:28:04.173Z</time>
      </trkpt>
      <trkpt lat="40.74171" lon="-4.050635">
        <ele>1192.0</ele>
        <time>2018-05-26T09:28:05.157Z</time>
      </trkpt>
      <trkpt lat="40.74171833" lon="-4.05074167">
        <ele>1191.0</ele>
        <time>2018-05-26T09:28:06.164Z</time>
      </trkpt>
      <trkpt lat="40.74171833" lon="-4.05074167">
        <ele>1191.0</ele>
        <time>2018-05-26T09:28:07.171Z</time>
      </trkpt>
      <trkpt lat="40.74177" lon="-4.050965">
        <ele>1190.0</ele>
        <time>2018-05-26T09:28:08.156Z</time>
      </trkpt>
      <trkpt lat="40.74177" lon="-4.050965">
        <ele>1190.0</ele>
        <time>2018-05-26T09:28:09.162Z</time>
      </trkpt>
      <trkpt lat="40.74181667" lon="-4.051175">
        <ele>1188.0</ele>
        <time>2018-05-26T09:28:10.139Z</time>
      </trkpt>
      <trkpt lat="40.74181667" lon="-4.051175">
        <ele>1188.0</ele>
        <time>2018-05-26T09:28:11.161Z</time>
      </trkpt>
      <trkpt lat="40.74190167" lon="-4.05134333">
        <ele>1186.0</ele>
        <time>2018-05-26T09:28:12.173Z</time>
      </trkpt>
      <trkpt lat="40.74190167" lon="-4.05134333">
        <ele>1186.0</ele>
        <time>2018-05-26T09:28:13.139Z</time>
      </trkpt>
      <trkpt lat="40.74202667" lon="-4.05147">
        <ele>1185.0</ele>
        <time>2018-05-26T09:28:14.146Z</time>
      </trkpt>
      <trkpt lat="40.74202667" lon="-4.05147">
        <ele>1185.0</ele>
        <time>2018-05-26T09:28:15.170Z</time>
      </trkpt>
      <trkpt lat="40.74216833" lon="-4.05158333">
        <ele>1184.0</ele>
        <time>2018-05-26T09:28:16.136Z</time>
      </trkpt>
      <trkpt lat="40.74216833" lon="-4.05158333">
        <ele>1184.0</ele>
        <time>2018-05-26T09:28:17.142Z</time>
      </trkpt>
      <trkpt lat="40.74231" lon="-4.051705">
        <ele>1183.0</ele>
        <time>2018-05-26T09:28:18.149Z</time>
      </trkpt>
      <trkpt lat="40.74231" lon="-4.051705">
        <ele>1183.0</ele>
        <time>2018-05-26T09:28:19.155Z</time>
      </trkpt>
      <trkpt lat="40.742445" lon="-4.05185333">
        <ele>1182.0</ele>
        <time>2018-05-26T09:28:20.149Z</time>
      </trkpt>
      <trkpt lat="40.742445" lon="-4.05185333">
        <ele>1182.0</ele>
        <time>2018-05-26T09:28:21.155Z</time>
      </trkpt>
      <trkpt lat="40.74254667" lon="-4.05202667">
        <ele>1181.0</ele>
        <time>2018-05-26T09:28:22.138Z</time>
      </trkpt>
      <trkpt lat="40.74258667" lon="-4.052125">
        <ele>1181.0</ele>
        <time>2018-05-26T09:28:23.141Z</time>
      </trkpt>
      <trkpt lat="40.74258667" lon="-4.052125">
        <ele>1181.0</ele>
        <time>2018-05-26T09:28:24.147Z</time>
      </trkpt>
      <trkpt lat="40.74265" lon="-4.05233833">
        <ele>1180.0</ele>
        <time>2018-05-26T09:28:25.154Z</time>
      </trkpt>
      <trkpt lat="40.74265" lon="-4.05233833">
        <ele>1180.0</ele>
        <time>2018-05-26T09:28:26.161Z</time>
      </trkpt>
      <trkpt lat="40.74268667" lon="-4.05257">
        <ele>1180.0</ele>
        <time>2018-05-26T09:28:27.173Z</time>
      </trkpt>
      <trkpt lat="40.74268667" lon="-4.05257">
        <ele>1180.0</ele>
        <time>2018-05-26T09:28:28.138Z</time>
      </trkpt>
      <trkpt lat="40.74268333" lon="-4.052815">
        <ele>1180.0</ele>
        <time>2018-05-26T09:28:29.145Z</time>
      </trkpt>
      <trkpt lat="40.74267" lon="-4.05293667">
        <ele>1180.0</ele>
        <time>2018-05-26T09:28:30.146Z</time>
      </trkpt>
      <trkpt lat="40.74267" lon="-4.05293667">
        <ele>1180.0</ele>
        <time>2018-05-26T09:28:31.153Z</time>
      </trkpt>
      <trkpt lat="40.74261667" lon="-4.05316167">
        <ele>1180.0</ele>
        <time>2018-05-26T09:28:32.160Z</time>
      </trkpt>
      <trkpt lat="40.74261667" lon="-4.05316167">
        <ele>1180.0</ele>
        <time>2018-05-26T09:28:33.166Z</time>
      </trkpt>
      <trkpt lat="40.74254667" lon="-4.05336167">
        <ele>1180.0</ele>
        <time>2018-05-26T09:28:34.160Z</time>
      </trkpt>
      <trkpt lat="40.74254667" lon="-4.05336167">
        <ele>1180.0</ele>
        <time>2018-05-26T09:28:35.166Z</time>
      </trkpt>
      <trkpt lat="40.74245833" lon="-4.05352333">
        <ele>1181.0</ele>
        <time>2018-05-26T09:28:36.138Z</time>
      </trkpt>
      <trkpt lat="40.74247167" lon="-4.05359">
        <ele>1181.0</ele>
        <time>2018-05-26T09:28:37.160Z</time>
      </trkpt>
      <trkpt lat="40.74247167" lon="-4.05359">
        <ele>1181.0</ele>
        <time>2018-05-26T09:28:38.167Z</time>
      </trkpt>
      <trkpt lat="40.74242833" lon="-4.05371333">
        <ele>1182.0</ele>
        <time>2018-05-26T09:28:39.136Z</time>
      </trkpt>
      <trkpt lat="40.74242833" lon="-4.05371333">
        <ele>1182.0</ele>
        <time>2018-05-26T09:28:40.143Z</time>
      </trkpt>
      <trkpt lat="40.742345" lon="-4.05381">
        <ele>1183.0</ele>
        <time>2018-05-26T09:28:41.138Z</time>
      </trkpt>
      <trkpt lat="40.74230333" lon="-4.053865">
        <ele>1183.0</ele>
        <time>2018-05-26T09:28:42.145Z</time>
      </trkpt>
      <trkpt lat="40.74230333" lon="-4.053865">
        <ele>1183.0</ele>
        <time>2018-05-26T09:28:43.151Z</time>
      </trkpt>
      <trkpt lat="40.74222833" lon="-4.05398">
        <ele>1184.0</ele>
        <time>2018-05-26T09:28:44.158Z</time>
      </trkpt>
      <trkpt lat="40.74222833" lon="-4.05398">
        <ele>1184.0</ele>
        <time>2018-05-26T09:28:45.143Z</time>
      </trkpt>
      <trkpt lat="40.74215667" lon="-4.05408">
        <ele>1184.0</ele>
        <time>2018-05-26T09:28:46.157Z</time>
      </trkpt>
      <trkpt lat="40.74212" lon="-4.05412167">
        <ele>1185.0</ele>
        <time>2018-05-26T09:28:47.171Z</time>
      </trkpt>
      <trkpt lat="40.74212" lon="-4.05412167">
        <ele>1185.0</ele>
        <time>2018-05-26T09:28:48.137Z</time>
      </trkpt>
      <trkpt lat="40.74204833" lon="-4.054185">
        <ele>1185.0</ele>
        <time>2018-05-26T09:28:49.170Z</time>
      </trkpt>
      <trkpt lat="40.74201167" lon="-4.05421333">
        <ele>1185.0</ele>
        <time>2018-05-26T09:28:50.141Z</time>
      </trkpt>
      <trkpt lat="40.74197833" lon="-4.05423">
        <ele>1186.0</ele>
        <time>2018-05-26T09:28:51.147Z</time>
      </trkpt>
      <trkpt lat="40.74197833" lon="-4.05423">
        <ele>1186.0</ele>
        <time>2018-05-26T09:28:52.154Z</time>
      </trkpt>
      <trkpt lat="40.74191833" lon="-4.054265">
        <ele>1187.0</ele>
        <time>2018-05-26T09:28:53.165Z</time>
      </trkpt>
      <trkpt lat="40.74189667" lon="-4.05428">
        <ele>1187.0</ele>
        <time>2018-05-26T09:28:54.175Z</time>
      </trkpt>
      <trkpt lat="40.74189667" lon="-4.05428">
        <ele>1187.0</ele>
        <time>2018-05-26T09:28:55.141Z</time>
      </trkpt>
      <trkpt lat="40.74183333" lon="-4.05431">
        <ele>1187.0</ele>
        <time>2018-05-26T09:28:56.169Z</time>
      </trkpt>
      <trkpt lat="40.74180333" lon="-4.05429667">
        <ele>1187.0</ele>
        <time>2018-05-26T09:28:57.136Z</time>
      </trkpt>
      <trkpt lat="40.74180333" lon="-4.05429667">
        <ele>1187.0</ele>
        <time>2018-05-26T09:28:58.141Z</time>
      </trkpt>
      <trkpt lat="40.74174667" lon="-4.05421833">
        <ele>1188.0</ele>
        <time>2018-05-26T09:28:59.168Z</time>
      </trkpt>
      <trkpt lat="40.74174667" lon="-4.05421833">
        <ele>1188.0</ele>
        <time>2018-05-26T09:29:00.149Z</time>
      </trkpt>
      <trkpt lat="40.74173167" lon="-4.054115">
        <ele>1189.0</ele>
        <time>2018-05-26T09:29:01.172Z</time>
      </trkpt>
      <trkpt lat="40.741745" lon="-4.054075">
        <ele>1189.0</ele>
        <time>2018-05-26T09:29:02.140Z</time>
      </trkpt>
      <trkpt lat="40.74176333" lon="-4.05403333">
        <ele>1189.0</ele>
        <time>2018-05-26T09:29:03.151Z</time>
      </trkpt>
      <trkpt lat="40.74176333" lon="-4.05403333">
        <ele>1189.0</ele>
        <time>2018-05-26T09:29:04.157Z</time>
      </trkpt>
      <trkpt lat="40.74177333" lon="-4.05394">
        <ele>1189.0</ele>
        <time>2018-05-26T09:29:05.143Z</time>
      </trkpt>
      <trkpt lat="40.74177333" lon="-4.05394">
        <ele>1189.0</ele>
        <time>2018-05-26T09:29:06.149Z</time>
      </trkpt>
      <trkpt lat="40.74173667" lon="-4.05386667">
        <ele>1189.0</ele>
        <time>2018-05-26T09:29:07.138Z</time>
      </trkpt>
      <trkpt lat="40.74173667" lon="-4.05386667">
        <ele>1189.0</ele>
        <time>2018-05-26T09:29:08.145Z</time>
      </trkpt>
      <trkpt lat="40.74169667" lon="-4.05384167">
        <ele>1189.0</ele>
        <time>2018-05-26T09:29:09.153Z</time>
      </trkpt>
      <trkpt lat="40.74169667" lon="-4.05384167">
        <ele>1189.0</ele>
        <time>2018-05-26T09:29:10.162Z</time>
      </trkpt>
      <trkpt lat="40.74167" lon="-4.05386333">
        <ele>1188.0</ele>
        <time>2018-05-26T09:29:11.141Z</time>
      </trkpt>
      <trkpt lat="40.74167" lon="-4.05386333">
        <ele>1188.0</ele>
        <time>2018-05-26T09:29:12.147Z</time>
      </trkpt>
      <trkpt lat="40.74165833" lon="-4.05387">
        <ele>1187.0</ele>
        <time>2018-05-26T09:29:13.154Z</time>
      </trkpt>
      <trkpt lat="40.74165833" lon="-4.05387">
        <ele>1187.0</ele>
        <time>2018-05-26T09:29:14.166Z</time>
      </trkpt>
      <trkpt lat="40.74166833" lon="-4.05379667">
        <ele>1186.0</ele>
        <time>2018-05-26T09:29:15.142Z</time>
      </trkpt>
      <trkpt lat="40.74166833" lon="-4.05379667">
        <ele>1186.0</ele>
        <time>2018-05-26T09:29:16.148Z</time>
      </trkpt>
      <trkpt lat="40.741635" lon="-4.05371833">
        <ele>1187.0</ele>
        <time>2018-05-26T09:29:17.166Z</time>
      </trkpt>
      <trkpt lat="40.741605" lon="-4.05366667">
        <ele>1186.0</ele>
        <time>2018-05-26T09:29:18.143Z</time>
      </trkpt>
      <trkpt lat="40.741605" lon="-4.05366667">
        <ele>1186.0</ele>
        <time>2018-05-26T09:29:19.175Z</time>
      </trkpt>
      <trkpt lat="40.74151833" lon="-4.05365833">
        <ele>1186.0</ele>
        <time>2018-05-26T09:29:20.138Z</time>
      </trkpt>
      <trkpt lat="40.74151833" lon="-4.05365833">
        <ele>1186.0</ele>
        <time>2018-05-26T09:29:21.143Z</time>
      </trkpt>
      <trkpt lat="40.74146833" lon="-4.05372167">
        <ele>1186.0</ele>
        <time>2018-05-26T09:29:22.151Z</time>
      </trkpt>
      <trkpt lat="40.74146833" lon="-4.05372167">
        <ele>1186.0</ele>
        <time>2018-05-26T09:29:23.160Z</time>
      </trkpt>
      <trkpt lat="40.74146167" lon="-4.05375333">
        <ele>1186.0</ele>
        <time>2018-05-26T09:29:24.151Z</time>
      </trkpt>
      <trkpt lat="40.74146167" lon="-4.05375333">
        <ele>1186.0</ele>
        <time>2018-05-26T09:29:25.157Z</time>
      </trkpt>
      <trkpt lat="40.741445" lon="-4.053785">
        <ele>1185.0</ele>
        <time>2018-05-26T09:29:26.167Z</time>
      </trkpt>
      <trkpt lat="40.74143333" lon="-4.05379667">
        <ele>1185.0</ele>
        <time>2018-05-26T09:29:27.154Z</time>
      </trkpt>
      <trkpt lat="40.74143333" lon="-4.05379667">
        <ele>1185.0</ele>
        <time>2018-05-26T09:29:28.161Z</time>
      </trkpt>
      <trkpt lat="40.74142" lon="-4.05380833">
        <ele>1185.0</ele>
        <time>2018-05-26T09:29:29.172Z</time>
      </trkpt>
      <trkpt lat="40.74142167" lon="-4.05381">
        <ele>1185.0</ele>
        <time>2018-05-26T09:29:30.136Z</time>
      </trkpt>
      <trkpt lat="40.74142167" lon="-4.05381">
        <ele>1185.0</ele>
        <time>2018-05-26T09:29:31.142Z</time>
      </trkpt>
      <trkpt lat="40.74141833" lon="-4.05385333">
        <ele>1185.0</ele>
        <time>2018-05-26T09:29:32.152Z</time>
      </trkpt>
      <trkpt lat="40.74141833" lon="-4.05385333">
        <ele>1185.0</ele>
        <time>2018-05-26T09:29:33.151Z</time>
      </trkpt>
      <trkpt lat="40.7414" lon="-4.05386667">
        <ele>1185.0</ele>
        <time>2018-05-26T09:29:34.141Z</time>
      </trkpt>
      <trkpt lat="40.741395" lon="-4.05386667">
        <ele>1185.0</ele>
        <time>2018-05-26T09:29:35.163Z</time>
      </trkpt>
      <trkpt lat="40.741395" lon="-4.05386667">
        <ele>1185.0</ele>
        <time>2018-05-26T09:29:36.170Z</time>
      </trkpt>
      <trkpt lat="40.74138167" lon="-4.053885">
        <ele>1185.0</ele>
        <time>2018-05-26T09:29:37.170Z</time>
      </trkpt>
      <trkpt lat="40.74138167" lon="-4.053885">
        <ele>1185.0</ele>
        <time>2018-05-26T09:29:38.153Z</time>
      </trkpt>
      <trkpt lat="40.74138" lon="-4.053885">
        <ele>1185.0</ele>
        <time>2018-05-26T09:29:39.160Z</time>
      </trkpt>
      <trkpt lat="40.74138" lon="-4.053885">
        <ele>1185.0</ele>
        <time>2018-05-26T09:29:40.155Z</time>
      </trkpt>
      <trkpt lat="40.74139333" lon="-4.05394">
        <ele>1184.0</ele>
        <time>2018-05-26T09:29:41.164Z</time>
      </trkpt>
      <trkpt lat="40.74139333" lon="-4.05394">
        <ele>1184.0</ele>
        <time>2018-05-26T09:29:42.154Z</time>
      </trkpt>
      <trkpt lat="40.74141" lon="-4.053965">
        <ele>1184.0</ele>
        <time>2018-05-26T09:29:43.148Z</time>
      </trkpt>
      <trkpt lat="40.74141" lon="-4.053965">
        <ele>1184.0</ele>
        <time>2018-05-26T09:29:44.153Z</time>
      </trkpt>
      <trkpt lat="40.74142333" lon="-4.05399">
        <ele>1184.0</ele>
        <time>2018-05-26T09:29:45.161Z</time>
      </trkpt>
      <trkpt lat="40.74142333" lon="-4.05399">
        <ele>1184.0</ele>
        <time>2018-05-26T09:29:46.167Z</time>
      </trkpt>
      <trkpt lat="40.74143333" lon="-4.05399833">
        <ele>1184.0</ele>
        <time>2018-05-26T09:29:47.144Z</time>
      </trkpt>
      <trkpt lat="40.74144333" lon="-4.054">
        <ele>1184.0</ele>
        <time>2018-05-26T09:29:48.152Z</time>
      </trkpt>
      <trkpt lat="40.74144333" lon="-4.054">
        <ele>1184.0</ele>
        <time>2018-05-26T09:29:49.157Z</time>
      </trkpt>
      <trkpt lat="40.74146333" lon="-4.05398">
        <ele>1185.0</ele>
        <time>2018-05-26T09:29:50.155Z</time>
      </trkpt>
      <trkpt lat="40.74146333" lon="-4.05398">
        <ele>1185.0</ele>
        <time>2018-05-26T09:29:51.161Z</time>
      </trkpt>
      <trkpt lat="40.741475" lon="-4.05395333">
        <ele>1185.0</ele>
        <time>2018-05-26T09:29:52.168Z</time>
      </trkpt>
      <trkpt lat="40.741475" lon="-4.05395333">
        <ele>1185.0</ele>
        <time>2018-05-26T09:29:53.174Z</time>
      </trkpt>
      <trkpt lat="40.74149333" lon="-4.05393833">
        <ele>1185.0</ele>
        <time>2018-05-26T09:29:54.156Z</time>
      </trkpt>
      <trkpt lat="40.74149333" lon="-4.05393833">
        <ele>1185.0</ele>
        <time>2018-05-26T09:29:55.162Z</time>
      </trkpt>
      <trkpt lat="40.74151667" lon="-4.05393">
        <ele>1185.0</ele>
        <time>2018-05-26T09:29:56.152Z</time>
      </trkpt>
      <trkpt lat="40.74152667" lon="-4.053925">
        <ele>1184.0</ele>
        <time>2018-05-26T09:29:57.150Z</time>
      </trkpt>
      <trkpt lat="40.74152667" lon="-4.053925">
        <ele>1184.0</ele>
        <time>2018-05-26T09:29:58.156Z</time>
      </trkpt>
      <trkpt lat="40.74154667" lon="-4.053915">
        <ele>1184.0</ele>
        <time>2018-05-26T09:29:59.164Z</time>
      </trkpt>
      <trkpt lat="40.74154667" lon="-4.053915">
        <ele>1184.0</ele>
        <time>2018-05-26T09:30:00.161Z</time>
      </trkpt>
      <trkpt lat="40.741565" lon="-4.05390333">
        <ele>1184.0</ele>
        <time>2018-05-26T09:30:01.156Z</time>
      </trkpt>
      <trkpt lat="40.741575" lon="-4.053895">
        <ele>1184.0</ele>
        <time>2018-05-26T09:30:02.167Z</time>
      </trkpt>
      <trkpt lat="40.741575" lon="-4.053895">
        <ele>1184.0</ele>
        <time>2018-05-26T09:30:03.173Z</time>
      </trkpt>
      <trkpt lat="40.74159" lon="-4.05387667">
        <ele>1184.0</ele>
        <time>2018-05-26T09:30:04.176Z</time>
      </trkpt>
      <trkpt lat="40.7416" lon="-4.05387">
        <ele>1184.0</ele>
        <time>2018-05-26T09:30:05.150Z</time>
      </trkpt>
      <trkpt lat="40.7416" lon="-4.05387">
        <ele>1184.0</ele>
        <time>2018-05-26T09:30:06.156Z</time>
      </trkpt>
      <trkpt lat="40.74161667" lon="-4.053875">
        <ele>1184.0</ele>
        <time>2018-05-26T09:30:07.148Z</time>
      </trkpt>
      <trkpt lat="40.74161667" lon="-4.053875">
        <ele>1184.0</ele>
        <time>2018-05-26T09:30:08.154Z</time>
      </trkpt>
      <trkpt lat="40.74163" lon="-4.053895">
        <ele>1184.0</ele>
        <time>2018-05-26T09:30:09.169Z</time>
      </trkpt>
      <trkpt lat="40.74163" lon="-4.053895">
        <ele>1184.0</ele>
        <time>2018-05-26T09:30:10.138Z</time>
      </trkpt>
      <trkpt lat="40.74162833" lon="-4.05390167">
        <ele>1184.0</ele>
        <time>2018-05-26T09:30:11.137Z</time>
      </trkpt>
      <trkpt lat="40.74162833" lon="-4.05390167">
        <ele>1184.0</ele>
        <time>2018-05-26T09:30:12.175Z</time>
      </trkpt>
      <trkpt lat="40.74163667" lon="-4.05391833">
        <ele>1184.0</ele>
        <time>2018-05-26T09:30:13.169Z</time>
      </trkpt>
      <trkpt lat="40.74163667" lon="-4.05391833">
        <ele>1184.0</ele>
        <time>2018-05-26T09:30:14.143Z</time>
      </trkpt>
      <trkpt lat="40.74168167" lon="-4.05392">
        <ele>1182.0</ele>
        <time>2018-05-26T09:30:15.146Z</time>
      </trkpt>
      <trkpt lat="40.74168167" lon="-4.05392">
        <ele>1182.0</ele>
        <time>2018-05-26T09:30:16.141Z</time>
      </trkpt>
      <trkpt lat="40.74168167" lon="-4.05392">
        <ele>1182.0</ele>
        <time>2018-05-26T09:30:17.174Z</time>
      </trkpt>
      <trkpt lat="40.741695" lon="-4.053925">
        <ele>1183.0</ele>
        <time>2018-05-26T09:30:18.168Z</time>
      </trkpt>
      <trkpt lat="40.741695" lon="-4.053925">
        <ele>1183.0</ele>
        <time>2018-05-26T09:30:19.174Z</time>
      </trkpt>
      <trkpt lat="40.74169667" lon="-4.053925">
        <ele>1183.0</ele>
        <time>2018-05-26T09:30:20.153Z</time>
      </trkpt>
      <trkpt lat="40.74169667" lon="-4.053925">
        <ele>1183.0</ele>
        <time>2018-05-26T09:30:21.138Z</time>
      </trkpt>
      <trkpt lat="40.741675" lon="-4.05392">
        <ele>1183.0</ele>
        <time>2018-05-26T09:30:22.173Z</time>
      </trkpt>
      <trkpt lat="40.741675" lon="-4.05392">
        <ele>1183.0</ele>
        <time>2018-05-26T09:30:23.175Z</time>
      </trkpt>
      <trkpt lat="40.74166833" lon="-4.05391667">
        <ele>1183.0</ele>
        <time>2018-05-26T09:30:24.175Z</time>
      </trkpt>
      <trkpt lat="40.74166833" lon="-4.05391667">
        <ele>1183.0</ele>
        <time>2018-05-26T09:30:25.175Z</time>
      </trkpt>
      <trkpt lat="40.74166667" lon="-4.053915">
        <ele>1183.0</ele>
        <time>2018-05-26T09:30:26.161Z</time>
      </trkpt>
      <trkpt lat="40.74166667" lon="-4.053915">
        <ele>1183.0</ele>
        <time>2018-05-26T09:30:27.169Z</time>
      </trkpt>
      <trkpt lat="40.741655" lon="-4.0539">
        <ele>1183.0</ele>
        <time>2018-05-26T09:30:28.141Z</time>
      </trkpt>
      <trkpt lat="40.74164833" lon="-4.05389167">
        <ele>1183.0</ele>
        <time>2018-05-26T09:30:29.173Z</time>
      </trkpt>
      <trkpt lat="40.74164833" lon="-4.05389167">
        <ele>1183.0</ele>
        <time>2018-05-26T09:30:30.138Z</time>
      </trkpt>
      <trkpt lat="40.74163333" lon="-4.05387667">
        <ele>1183.0</ele>
        <time>2018-05-26T09:30:31.145Z</time>
      </trkpt>
      <trkpt lat="40.74162667" lon="-4.05387167">
        <ele>1183.0</ele>
        <time>2018-05-26T09:30:32.145Z</time>
      </trkpt>
      <trkpt lat="40.74162667" lon="-4.05387167">
        <ele>1183.0</ele>
        <time>2018-05-26T09:30:33.150Z</time>
      </trkpt>
      <trkpt lat="40.74162167" lon="-4.05387">
        <ele>1184.0</ele>
        <time>2018-05-26T09:30:34.159Z</time>
      </trkpt>
      <trkpt lat="40.74162167" lon="-4.05387">
        <ele>1184.0</ele>
        <time>2018-05-26T09:30:35.167Z</time>
      </trkpt>
      <trkpt lat="40.74162167" lon="-4.05387">
        <ele>1184.0</ele>
        <time>2018-05-26T09:30:36.172Z</time>
      </trkpt>
      <trkpt lat="40.74162167" lon="-4.05387">
        <ele>1184.0</ele>
        <time>2018-05-26T09:30:37.167Z</time>
      </trkpt>
      <trkpt lat="40.74158667" lon="-4.05388">
        <ele>1184.0</ele>
        <time>2018-05-26T09:30:38.144Z</time>
      </trkpt>
      <trkpt lat="40.74158667" lon="-4.05388">
        <ele>1184.0</ele>
        <time>2018-05-26T09:30:39.175Z</time>
      </trkpt>
      <trkpt lat="40.741575" lon="-4.05389833">
        <ele>1184.0</ele>
        <time>2018-05-26T09:30:40.165Z</time>
      </trkpt>
      <trkpt lat="40.741575" lon="-4.05389833">
        <ele>1184.0</ele>
        <time>2018-05-26T09:30:41.170Z</time>
      </trkpt>
      <trkpt lat="40.74157167" lon="-4.05390833">
        <ele>1184.0</ele>
        <time>2018-05-26T09:30:42.149Z</time>
      </trkpt>
      <trkpt lat="40.74157167" lon="-4.05390833">
        <ele>1184.0</ele>
        <time>2018-05-26T09:30:43.175Z</time>
      </trkpt>
      <trkpt lat="40.741565" lon="-4.05392167">
        <ele>1184.0</ele>
        <time>2018-05-26T09:30:44.166Z</time>
      </trkpt>
      <trkpt lat="40.741565" lon="-4.05392167">
        <ele>1184.0</ele>
        <time>2018-05-26T09:30:45.171Z</time>
      </trkpt>
      <trkpt lat="40.741565" lon="-4.053925">
        <ele>1184.0</ele>
        <time>2018-05-26T09:30:46.138Z</time>
      </trkpt>
      <trkpt lat="40.741565" lon="-4.053925">
        <ele>1184.0</ele>
        <time>2018-05-26T09:30:47.162Z</time>
      </trkpt>
      <trkpt lat="40.741545" lon="-4.05395833">
        <ele>1184.0</ele>
        <time>2018-05-26T09:30:48.145Z</time>
      </trkpt>
      <trkpt lat="40.741545" lon="-4.05395833">
        <ele>1184.0</ele>
        <time>2018-05-26T09:30:49.152Z</time>
      </trkpt>
      <trkpt lat="40.74155333" lon="-4.05399833">
        <ele>1184.0</ele>
        <time>2018-05-26T09:30:50.162Z</time>
      </trkpt>
      <trkpt lat="40.741565" lon="-4.05402">
        <ele>1184.0</ele>
        <time>2018-05-26T09:30:51.171Z</time>
      </trkpt>
      <trkpt lat="40.74156667" lon="-4.05404333">
        <ele>1185.0</ele>
        <time>2018-05-26T09:30:52.149Z</time>
      </trkpt>
      <trkpt lat="40.74156667" lon="-4.05404333">
        <ele>1185.0</ele>
        <time>2018-05-26T09:30:53.155Z</time>
      </trkpt>
      <trkpt lat="40.74153" lon="-4.05409167">
        <ele>1184.0</ele>
        <time>2018-05-26T09:30:54.169Z</time>
      </trkpt>
      <trkpt lat="40.74153" lon="-4.05409167">
        <ele>1184.0</ele>
        <time>2018-05-26T09:30:55.175Z</time>
      </trkpt>
      <trkpt lat="40.74150333" lon="-4.05415333">
        <ele>1184.0</ele>
        <time>2018-05-26T09:30:56.167Z</time>
      </trkpt>
      <trkpt lat="40.74150333" lon="-4.05415333">
        <ele>1184.0</ele>
        <time>2018-05-26T09:30:57.174Z</time>
      </trkpt>
      <trkpt lat="40.74148333" lon="-4.05419">
        <ele>1184.0</ele>
        <time>2018-05-26T09:30:58.173Z</time>
      </trkpt>
      <trkpt lat="40.74147667" lon="-4.05419833">
        <ele>1184.0</ele>
        <time>2018-05-26T09:30:59.138Z</time>
      </trkpt>
      <trkpt lat="40.74147667" lon="-4.05419833">
        <ele>1184.0</ele>
        <time>2018-05-26T09:31:00.138Z</time>
      </trkpt>
      <trkpt lat="40.74147333" lon="-4.0542">
        <ele>1184.0</ele>
        <time>2018-05-26T09:31:01.151Z</time>
      </trkpt>
      <trkpt lat="40.74147333" lon="-4.0542">
        <ele>1184.0</ele>
        <time>2018-05-26T09:31:02.158Z</time>
      </trkpt>
      <trkpt lat="40.74147333" lon="-4.0542">
        <ele>1184.0</ele>
        <time>2018-05-26T09:31:03.137Z</time>
      </trkpt>
      <trkpt lat="40.74146667" lon="-4.05423333">
        <ele>1184.0</ele>
        <time>2018-05-26T09:31:04.170Z</time>
      </trkpt>
      <trkpt lat="40.74146667" lon="-4.05423333">
        <ele>1184.0</ele>
        <time>2018-05-26T09:31:05.155Z</time>
      </trkpt>
      <trkpt lat="40.74147333" lon="-4.05424833">
        <ele>1185.0</ele>
        <time>2018-05-26T09:31:06.151Z</time>
      </trkpt>
      <trkpt lat="40.74147333" lon="-4.05424833">
        <ele>1185.0</ele>
        <time>2018-05-26T09:31:07.146Z</time>
      </trkpt>
      <trkpt lat="40.74147667" lon="-4.05425333">
        <ele>1184.0</ele>
        <time>2018-05-26T09:31:08.152Z</time>
      </trkpt>
      <trkpt lat="40.74154" lon="-4.054295">
        <ele>1184.0</ele>
        <time>2018-05-26T09:31:09.157Z</time>
      </trkpt>
      <trkpt lat="40.74154" lon="-4.054295">
        <ele>1184.0</ele>
        <time>2018-05-26T09:31:10.144Z</time>
      </trkpt>
      <trkpt lat="40.74159" lon="-4.05429833">
        <ele>1184.0</ele>
        <time>2018-05-26T09:31:11.150Z</time>
      </trkpt>
      <trkpt lat="40.74159" lon="-4.05429833">
        <ele>1184.0</ele>
        <time>2018-05-26T09:31:12.143Z</time>
      </trkpt>
      <trkpt lat="40.74160833" lon="-4.05431">
        <ele>1185.0</ele>
        <time>2018-05-26T09:31:13.138Z</time>
      </trkpt>
      <trkpt lat="40.74160833" lon="-4.05431">
        <ele>1185.0</ele>
        <time>2018-05-26T09:31:14.144Z</time>
      </trkpt>
      <trkpt lat="40.741615" lon="-4.05432">
        <ele>1185.0</ele>
        <time>2018-05-26T09:31:15.151Z</time>
      </trkpt>
      <trkpt lat="40.741615" lon="-4.05432">
        <ele>1185.0</ele>
        <time>2018-05-26T09:31:16.157Z</time>
      </trkpt>
      <trkpt lat="40.74164167" lon="-4.05434167">
        <ele>1185.0</ele>
        <time>2018-05-26T09:31:17.153Z</time>
      </trkpt>
      <trkpt lat="40.74164167" lon="-4.05434167">
        <ele>1185.0</ele>
        <time>2018-05-26T09:31:18.159Z</time>
      </trkpt>
      <trkpt lat="40.741655" lon="-4.0544">
        <ele>1186.0</ele>
        <time>2018-05-26T09:31:19.165Z</time>
      </trkpt>
      <trkpt lat="40.74163833" lon="-4.05443833">
        <ele>1186.0</ele>
        <time>2018-05-26T09:31:20.168Z</time>
      </trkpt>
      <trkpt lat="40.741615" lon="-4.05448667">
        <ele>1186.0</ele>
        <time>2018-05-26T09:31:21.175Z</time>
      </trkpt>
      <trkpt lat="40.741615" lon="-4.05448667">
        <ele>1186.0</ele>
        <time>2018-05-26T09:31:22.141Z</time>
      </trkpt>
      <trkpt lat="40.74156833" lon="-4.05458833">
        <ele>1186.0</ele>
        <time>2018-05-26T09:31:23.173Z</time>
      </trkpt>
      <trkpt lat="40.74156833" lon="-4.05458833">
        <ele>1186.0</ele>
        <time>2018-05-26T09:31:24.141Z</time>
      </trkpt>
      <trkpt lat="40.74152333" lon="-4.0547">
        <ele>1186.0</ele>
        <time>2018-05-26T09:31:25.150Z</time>
      </trkpt>
      <trkpt lat="40.74152333" lon="-4.0547">
        <ele>1186.0</ele>
        <time>2018-05-26T09:31:26.155Z</time>
      </trkpt>
      <trkpt lat="40.74148" lon="-4.05481167">
        <ele>1186.0</ele>
        <time>2018-05-26T09:31:27.148Z</time>
      </trkpt>
      <trkpt lat="40.74148" lon="-4.05481167">
        <ele>1186.0</ele>
        <time>2018-05-26T09:31:28.154Z</time>
      </trkpt>
      <trkpt lat="40.74145167" lon="-4.05492667">
        <ele>1186.0</ele>
        <time>2018-05-26T09:31:29.141Z</time>
      </trkpt>
      <trkpt lat="40.74145167" lon="-4.05492667">
        <ele>1186.0</ele>
        <time>2018-05-26T09:31:30.146Z</time>
      </trkpt>
      <trkpt lat="40.74144667" lon="-4.05505333">
        <ele>1186.0</ele>
        <time>2018-05-26T09:31:31.149Z</time>
      </trkpt>
      <trkpt lat="40.74144667" lon="-4.05505333">
        <ele>1186.0</ele>
        <time>2018-05-26T09:31:32.155Z</time>
      </trkpt>
      <trkpt lat="40.741435" lon="-4.055175">
        <ele>1186.0</ele>
        <time>2018-05-26T09:31:33.148Z</time>
      </trkpt>
      <trkpt lat="40.741435" lon="-4.055175">
        <ele>1186.0</ele>
        <time>2018-05-26T09:31:34.154Z</time>
      </trkpt>
      <trkpt lat="40.74141667" lon="-4.05528167">
        <ele>1186.0</ele>
        <time>2018-05-26T09:31:35.162Z</time>
      </trkpt>
      <trkpt lat="40.741415" lon="-4.05532667">
        <ele>1186.0</ele>
        <time>2018-05-26T09:31:36.158Z</time>
      </trkpt>
      <trkpt lat="40.741415" lon="-4.05532667">
        <ele>1186.0</ele>
        <time>2018-05-26T09:31:37.164Z</time>
      </trkpt>
      <trkpt lat="40.74140333" lon="-4.05541167">
        <ele>1185.0</ele>
        <time>2018-05-26T09:31:38.175Z</time>
      </trkpt>
      <trkpt lat="40.74140333" lon="-4.05541167">
        <ele>1185.0</ele>
        <time>2018-05-26T09:31:39.141Z</time>
      </trkpt>
      <trkpt lat="40.741385" lon="-4.055535">
        <ele>1185.0</ele>
        <time>2018-05-26T09:31:40.137Z</time>
      </trkpt>
      <trkpt lat="40.741385" lon="-4.055535">
        <ele>1185.0</ele>
        <time>2018-05-26T09:31:41.143Z</time>
      </trkpt>
      <trkpt lat="40.74136667" lon="-4.055655">
        <ele>1185.0</ele>
        <time>2018-05-26T09:31:42.150Z</time>
      </trkpt>
      <trkpt lat="40.74136667" lon="-4.055655">
        <ele>1185.0</ele>
        <time>2018-05-26T09:31:43.156Z</time>
      </trkpt>
      <trkpt lat="40.74132667" lon="-4.05576667">
        <ele>1185.0</ele>
        <time>2018-05-26T09:31:44.150Z</time>
      </trkpt>
      <trkpt lat="40.74132667" lon="-4.05576667">
        <ele>1185.0</ele>
        <time>2018-05-26T09:31:45.156Z</time>
      </trkpt>
      <trkpt lat="40.74130333" lon="-4.055865">
        <ele>1186.0</ele>
        <time>2018-05-26T09:31:46.168Z</time>
      </trkpt>
      <trkpt lat="40.74130333" lon="-4.055865">
        <ele>1186.0</ele>
        <time>2018-05-26T09:31:47.174Z</time>
      </trkpt>
      <trkpt lat="40.74125333" lon="-4.055965">
        <ele>1186.0</ele>
        <time>2018-05-26T09:31:48.169Z</time>
      </trkpt>
      <trkpt lat="40.74125333" lon="-4.055965">
        <ele>1186.0</ele>
        <time>2018-05-26T09:31:49.175Z</time>
      </trkpt>
      <trkpt lat="40.74121333" lon="-4.05606833">
        <ele>1186.0</ele>
        <time>2018-05-26T09:31:50.150Z</time>
      </trkpt>
      <trkpt lat="40.74121333" lon="-4.05606833">
        <ele>1186.0</ele>
        <time>2018-05-26T09:31:51.156Z</time>
      </trkpt>
      <trkpt lat="40.74116833" lon="-4.05617667">
        <ele>1187.0</ele>
        <time>2018-05-26T09:31:52.151Z</time>
      </trkpt>
      <trkpt lat="40.74116833" lon="-4.05617667">
        <ele>1187.0</ele>
        <time>2018-05-26T09:31:53.158Z</time>
      </trkpt>
      <trkpt lat="40.74112667" lon="-4.05628">
        <ele>1188.0</ele>
        <time>2018-05-26T09:31:54.164Z</time>
      </trkpt>
      <trkpt lat="40.74111333" lon="-4.05632667">
        <ele>1188.0</ele>
        <time>2018-05-26T09:31:55.145Z</time>
      </trkpt>
      <trkpt lat="40.74111333" lon="-4.05632667">
        <ele>1188.0</ele>
        <time>2018-05-26T09:31:56.151Z</time>
      </trkpt>
      <trkpt lat="40.741075" lon="-4.05642333">
        <ele>1189.0</ele>
        <time>2018-05-26T09:31:57.165Z</time>
      </trkpt>
      <trkpt lat="40.741075" lon="-4.05642333">
        <ele>1189.0</ele>
        <time>2018-05-26T09:31:58.155Z</time>
      </trkpt>
      <trkpt lat="40.74103" lon="-4.05648">
        <ele>1189.0</ele>
        <time>2018-05-26T09:31:59.158Z</time>
      </trkpt>
      <trkpt lat="40.74103" lon="-4.05648">
        <ele>1189.0</ele>
        <time>2018-05-26T09:32:00.176Z</time>
      </trkpt>
      <trkpt lat="40.740975" lon="-4.05654167">
        <ele>1189.0</ele>
        <time>2018-05-26T09:32:01.148Z</time>
      </trkpt>
      <trkpt lat="40.740975" lon="-4.05654167">
        <ele>1189.0</ele>
        <time>2018-05-26T09:32:02.154Z</time>
      </trkpt>
      <trkpt lat="40.74091167" lon="-4.056565">
        <ele>1191.0</ele>
        <time>2018-05-26T09:32:03.161Z</time>
      </trkpt>
      <trkpt lat="40.74091167" lon="-4.056565">
        <ele>1191.0</ele>
        <time>2018-05-26T09:32:04.167Z</time>
      </trkpt>
      <trkpt lat="40.74085" lon="-4.05662">
        <ele>1191.0</ele>
        <time>2018-05-26T09:32:05.169Z</time>
      </trkpt>
      <trkpt lat="40.74082167" lon="-4.05665833">
        <ele>1191.0</ele>
        <time>2018-05-26T09:32:06.149Z</time>
      </trkpt>
      <trkpt lat="40.74082167" lon="-4.05665833">
        <ele>1191.0</ele>
        <time>2018-05-26T09:32:07.156Z</time>
      </trkpt>
      <trkpt lat="40.74078167" lon="-4.05675667">
        <ele>1192.0</ele>
        <time>2018-05-26T09:32:08.138Z</time>
      </trkpt>
      <trkpt lat="40.74078167" lon="-4.05675667">
        <ele>1192.0</ele>
        <time>2018-05-26T09:32:09.145Z</time>
      </trkpt>
      <trkpt lat="40.74075167" lon="-4.056875">
        <ele>1192.0</ele>
        <time>2018-05-26T09:32:10.152Z</time>
      </trkpt>
      <trkpt lat="40.74074833" lon="-4.05693667">
        <ele>1192.0</ele>
        <time>2018-05-26T09:32:11.150Z</time>
      </trkpt>
      <trkpt lat="40.74074833" lon="-4.05693667">
        <ele>1192.0</ele>
        <time>2018-05-26T09:32:12.156Z</time>
      </trkpt>
      <trkpt lat="40.74070333" lon="-4.05705333">
        <ele>1192.0</ele>
        <time>2018-05-26T09:32:13.171Z</time>
      </trkpt>
      <trkpt lat="40.740675" lon="-4.057105">
        <ele>1192.0</ele>
        <time>2018-05-26T09:32:14.148Z</time>
      </trkpt>
      <trkpt lat="40.740675" lon="-4.057105">
        <ele>1192.0</ele>
        <time>2018-05-26T09:32:15.154Z</time>
      </trkpt>
      <trkpt lat="40.74062167" lon="-4.057195">
        <ele>1192.0</ele>
        <time>2018-05-26T09:32:16.160Z</time>
      </trkpt>
      <trkpt lat="40.74062167" lon="-4.057195">
        <ele>1192.0</ele>
        <time>2018-05-26T09:32:17.166Z</time>
      </trkpt>
      <trkpt lat="40.74057333" lon="-4.05729667">
        <ele>1192.0</ele>
        <time>2018-05-26T09:32:18.149Z</time>
      </trkpt>
      <trkpt lat="40.74057333" lon="-4.05729667">
        <ele>1192.0</ele>
        <time>2018-05-26T09:32:19.154Z</time>
      </trkpt>
      <trkpt lat="40.74052167" lon="-4.05741167">
        <ele>1192.0</ele>
        <time>2018-05-26T09:32:20.162Z</time>
      </trkpt>
      <trkpt lat="40.74049167" lon="-4.057475">
        <ele>1192.0</ele>
        <time>2018-05-26T09:32:21.147Z</time>
      </trkpt>
      <trkpt lat="40.74049167" lon="-4.057475">
        <ele>1192.0</ele>
        <time>2018-05-26T09:32:22.142Z</time>
      </trkpt>
      <trkpt lat="40.74040667" lon="-4.057605">
        <ele>1192.0</ele>
        <time>2018-05-26T09:32:23.150Z</time>
      </trkpt>
      <trkpt lat="40.74040667" lon="-4.057605">
        <ele>1192.0</ele>
        <time>2018-05-26T09:32:24.157Z</time>
      </trkpt>
      <trkpt lat="40.74031" lon="-4.05774833">
        <ele>1192.0</ele>
        <time>2018-05-26T09:32:25.165Z</time>
      </trkpt>
      <trkpt lat="40.74027" lon="-4.05782333">
        <ele>1192.0</ele>
        <time>2018-05-26T09:32:26.146Z</time>
      </trkpt>
      <trkpt lat="40.74027" lon="-4.05782333">
        <ele>1192.0</ele>
        <time>2018-05-26T09:32:27.152Z</time>
      </trkpt>
      <trkpt lat="40.74018333" lon="-4.05797">
        <ele>1192.0</ele>
        <time>2018-05-26T09:32:28.168Z</time>
      </trkpt>
      <trkpt lat="40.74013833" lon="-4.05804">
        <ele>1192.0</ele>
        <time>2018-05-26T09:32:29.175Z</time>
      </trkpt>
      <trkpt lat="40.74013833" lon="-4.05804">
        <ele>1192.0</ele>
        <time>2018-05-26T09:32:30.142Z</time>
      </trkpt>
      <trkpt lat="40.74003167" lon="-4.05817667">
        <ele>1191.0</ele>
        <time>2018-05-26T09:32:31.150Z</time>
      </trkpt>
      <trkpt lat="40.73998333" lon="-4.05823667">
        <ele>1191.0</ele>
        <time>2018-05-26T09:32:32.172Z</time>
      </trkpt>
      <trkpt lat="40.73994333" lon="-4.05828333">
        <ele>1191.0</ele>
        <time>2018-05-26T09:32:33.146Z</time>
      </trkpt>
      <trkpt lat="40.73994333" lon="-4.05828333">
        <ele>1191.0</ele>
        <time>2018-05-26T09:32:34.153Z</time>
      </trkpt>
      <trkpt lat="40.73985667" lon="-4.05836833">
        <ele>1191.0</ele>
        <time>2018-05-26T09:32:35.159Z</time>
      </trkpt>
      <trkpt lat="40.73985667" lon="-4.05836833">
        <ele>1191.0</ele>
        <time>2018-05-26T09:32:36.165Z</time>
      </trkpt>
      <trkpt lat="40.73976667" lon="-4.05845167">
        <ele>1191.0</ele>
        <time>2018-05-26T09:32:37.161Z</time>
      </trkpt>
      <trkpt lat="40.73971667" lon="-4.05849">
        <ele>1191.0</ele>
        <time>2018-05-26T09:32:38.168Z</time>
      </trkpt>
      <trkpt lat="40.73966833" lon="-4.058525">
        <ele>1192.0</ele>
        <time>2018-05-26T09:32:39.137Z</time>
      </trkpt>
      <trkpt lat="40.73966833" lon="-4.058525">
        <ele>1192.0</ele>
        <time>2018-05-26T09:32:40.143Z</time>
      </trkpt>
      <trkpt lat="40.73958833" lon="-4.05859167">
        <ele>1192.0</ele>
        <time>2018-05-26T09:32:41.151Z</time>
      </trkpt>
      <trkpt lat="40.73953833" lon="-4.05863167">
        <ele>1192.0</ele>
        <time>2018-05-26T09:32:42.146Z</time>
      </trkpt>
      <trkpt lat="40.73953833" lon="-4.05863167">
        <ele>1192.0</ele>
        <time>2018-05-26T09:32:43.153Z</time>
      </trkpt>
      <trkpt lat="40.73943333" lon="-4.05871333">
        <ele>1192.0</ele>
        <time>2018-05-26T09:32:44.159Z</time>
      </trkpt>
      <trkpt lat="40.73937333" lon="-4.05875833">
        <ele>1191.0</ele>
        <time>2018-05-26T09:32:45.148Z</time>
      </trkpt>
      <trkpt lat="40.73937333" lon="-4.05875833">
        <ele>1191.0</ele>
        <time>2018-05-26T09:32:46.155Z</time>
      </trkpt>
      <trkpt lat="40.73925167" lon="-4.05885">
        <ele>1190.0</ele>
        <time>2018-05-26T09:32:47.174Z</time>
      </trkpt>
      <trkpt lat="40.73918833" lon="-4.05889667">
        <ele>1189.0</ele>
        <time>2018-05-26T09:32:48.167Z</time>
      </trkpt>
      <trkpt lat="40.73918833" lon="-4.05889667">
        <ele>1189.0</ele>
        <time>2018-05-26T09:32:49.173Z</time>
      </trkpt>
      <trkpt lat="40.73906833" lon="-4.05899">
        <ele>1189.0</ele>
        <time>2018-05-26T09:32:50.140Z</time>
      </trkpt>
      <trkpt lat="40.73906833" lon="-4.05899">
        <ele>1189.0</ele>
        <time>2018-05-26T09:32:51.146Z</time>
      </trkpt>
      <trkpt lat="40.73895333" lon="-4.05908167">
        <ele>1189.0</ele>
        <time>2018-05-26T09:32:52.170Z</time>
      </trkpt>
      <trkpt lat="40.73895333" lon="-4.05908167">
        <ele>1189.0</ele>
        <time>2018-05-26T09:32:53.140Z</time>
      </trkpt>
      <trkpt lat="40.73887" lon="-4.05920833">
        <ele>1189.0</ele>
        <time>2018-05-26T09:32:54.149Z</time>
      </trkpt>
      <trkpt lat="40.73883333" lon="-4.059285">
        <ele>1189.0</ele>
        <time>2018-05-26T09:32:55.158Z</time>
      </trkpt>
      <trkpt lat="40.73883333" lon="-4.059285">
        <ele>1189.0</ele>
        <time>2018-05-26T09:32:56.163Z</time>
      </trkpt>
      <trkpt lat="40.73879167" lon="-4.05945667">
        <ele>1188.0</ele>
        <time>2018-05-26T09:32:57.174Z</time>
      </trkpt>
      <trkpt lat="40.73879167" lon="-4.05945667">
        <ele>1188.0</ele>
        <time>2018-05-26T09:32:58.140Z</time>
      </trkpt>
      <trkpt lat="40.73877667" lon="-4.05963333">
        <ele>1188.0</ele>
        <time>2018-05-26T09:32:59.158Z</time>
      </trkpt>
      <trkpt lat="40.73877" lon="-4.05972333">
        <ele>1187.0</ele>
        <time>2018-05-26T09:33:00.167Z</time>
      </trkpt>
      <trkpt lat="40.73877" lon="-4.05972333">
        <ele>1187.0</ele>
        <time>2018-05-26T09:33:01.140Z</time>
      </trkpt>
      <trkpt lat="40.738765" lon="-4.0599">
        <ele>1187.0</ele>
        <time>2018-05-26T09:33:02.147Z</time>
      </trkpt>
      <trkpt lat="40.738765" lon="-4.0599">
        <ele>1187.0</ele>
        <time>2018-05-26T09:33:03.153Z</time>
      </trkpt>
      <trkpt lat="40.73875333" lon="-4.06006667">
        <ele>1186.0</ele>
        <time>2018-05-26T09:33:04.168Z</time>
      </trkpt>
      <trkpt lat="40.73875333" lon="-4.06006667">
        <ele>1186.0</ele>
        <time>2018-05-26T09:33:05.159Z</time>
      </trkpt>
      <trkpt lat="40.73873667" lon="-4.06021667">
        <ele>1186.0</ele>
        <time>2018-05-26T09:33:06.158Z</time>
      </trkpt>
      <trkpt lat="40.73873667" lon="-4.06021667">
        <ele>1186.0</ele>
        <time>2018-05-26T09:33:07.164Z</time>
      </trkpt>
      <trkpt lat="40.73871833" lon="-4.06035167">
        <ele>1186.0</ele>
        <time>2018-05-26T09:33:08.136Z</time>
      </trkpt>
      <trkpt lat="40.73870167" lon="-4.06041833">
        <ele>1185.0</ele>
        <time>2018-05-26T09:33:09.149Z</time>
      </trkpt>
      <trkpt lat="40.73870167" lon="-4.06041833">
        <ele>1185.0</ele>
        <time>2018-05-26T09:33:10.156Z</time>
      </trkpt>
      <trkpt lat="40.73865167" lon="-4.06055333">
        <ele>1185.0</ele>
        <time>2018-05-26T09:33:11.163Z</time>
      </trkpt>
      <trkpt lat="40.73865167" lon="-4.06055333">
        <ele>1185.0</ele>
        <time>2018-05-26T09:33:12.170Z</time>
      </trkpt>
      <trkpt lat="40.73859333" lon="-4.06067833">
        <ele>1186.0</ele>
        <time>2018-05-26T09:33:13.172Z</time>
      </trkpt>
      <trkpt lat="40.73857" lon="-4.06074">
        <ele>1187.0</ele>
        <time>2018-05-26T09:33:14.140Z</time>
      </trkpt>
      <trkpt lat="40.73855167" lon="-4.060795">
        <ele>1187.0</ele>
        <time>2018-05-26T09:33:15.147Z</time>
      </trkpt>
      <trkpt lat="40.73855167" lon="-4.060795">
        <ele>1187.0</ele>
        <time>2018-05-26T09:33:16.153Z</time>
      </trkpt>
      <trkpt lat="40.73852667" lon="-4.06091">
        <ele>1187.0</ele>
        <time>2018-05-26T09:33:17.167Z</time>
      </trkpt>
      <trkpt lat="40.73852667" lon="-4.06097333">
        <ele>1187.0</ele>
        <time>2018-05-26T09:33:18.174Z</time>
      </trkpt>
      <trkpt lat="40.73852667" lon="-4.06097333">
        <ele>1187.0</ele>
        <time>2018-05-26T09:33:19.141Z</time>
      </trkpt>
      <trkpt lat="40.73853" lon="-4.06110833">
        <ele>1187.0</ele>
        <time>2018-05-26T09:33:20.147Z</time>
      </trkpt>
      <trkpt lat="40.73853333" lon="-4.06118167">
        <ele>1187.0</ele>
        <time>2018-05-26T09:33:21.168Z</time>
      </trkpt>
      <trkpt lat="40.73853333" lon="-4.06118167">
        <ele>1187.0</ele>
        <time>2018-05-26T09:33:22.175Z</time>
      </trkpt>
      <trkpt lat="40.73853" lon="-4.061345">
        <ele>1186.0</ele>
        <time>2018-05-26T09:33:23.157Z</time>
      </trkpt>
      <trkpt lat="40.738525" lon="-4.06143667">
        <ele>1186.0</ele>
        <time>2018-05-26T09:33:24.175Z</time>
      </trkpt>
      <trkpt lat="40.738525" lon="-4.06143667">
        <ele>1186.0</ele>
        <time>2018-05-26T09:33:25.142Z</time>
      </trkpt>
      <trkpt lat="40.73855167" lon="-4.061655">
        <ele>1186.0</ele>
        <time>2018-05-26T09:33:26.152Z</time>
      </trkpt>
      <trkpt lat="40.73855167" lon="-4.061655">
        <ele>1186.0</ele>
        <time>2018-05-26T09:33:27.158Z</time>
      </trkpt>
      <trkpt lat="40.73856833" lon="-4.06187833">
        <ele>1185.0</ele>
        <time>2018-05-26T09:33:28.139Z</time>
      </trkpt>
      <trkpt lat="40.73856833" lon="-4.06187833">
        <ele>1185.0</ele>
        <time>2018-05-26T09:33:29.145Z</time>
      </trkpt>
      <trkpt lat="40.73860167" lon="-4.062105">
        <ele>1185.0</ele>
        <time>2018-05-26T09:33:30.152Z</time>
      </trkpt>
      <trkpt lat="40.73860167" lon="-4.062105">
        <ele>1185.0</ele>
        <time>2018-05-26T09:33:31.158Z</time>
      </trkpt>
      <trkpt lat="40.73864" lon="-4.06233167">
        <ele>1184.0</ele>
        <time>2018-05-26T09:33:32.167Z</time>
      </trkpt>
      <trkpt lat="40.73864" lon="-4.06233167">
        <ele>1184.0</ele>
        <time>2018-05-26T09:33:33.174Z</time>
      </trkpt>
      <trkpt lat="40.73869167" lon="-4.06256">
        <ele>1183.0</ele>
        <time>2018-05-26T09:33:34.142Z</time>
      </trkpt>
      <trkpt lat="40.73872" lon="-4.06267333">
        <ele>1183.0</ele>
        <time>2018-05-26T09:33:35.149Z</time>
      </trkpt>
      <trkpt lat="40.73875" lon="-4.062785">
        <ele>1183.0</ele>
        <time>2018-05-26T09:33:36.171Z</time>
      </trkpt>
      <trkpt lat="40.73878167" lon="-4.06289333">
        <ele>1183.0</ele>
        <time>2018-05-26T09:33:37.142Z</time>
      </trkpt>
      <trkpt lat="40.73878167" lon="-4.06289333">
        <ele>1183.0</ele>
        <time>2018-05-26T09:33:38.148Z</time>
      </trkpt>
      <trkpt lat="40.738835" lon="-4.06309167">
        <ele>1182.0</ele>
        <time>2018-05-26T09:33:39.170Z</time>
      </trkpt>
      <trkpt lat="40.738835" lon="-4.06309167">
        <ele>1182.0</ele>
        <time>2018-05-26T09:33:40.136Z</time>
      </trkpt>
      <trkpt lat="40.738895" lon="-4.06327667">
        <ele>1182.0</ele>
        <time>2018-05-26T09:33:41.145Z</time>
      </trkpt>
      <trkpt lat="40.73893" lon="-4.06337">
        <ele>1181.0</ele>
        <time>2018-05-26T09:33:42.155Z</time>
      </trkpt>
      <trkpt lat="40.738965" lon="-4.06346667">
        <ele>1181.0</ele>
        <time>2018-05-26T09:33:43.142Z</time>
      </trkpt>
      <trkpt lat="40.738965" lon="-4.06346667">
        <ele>1181.0</ele>
        <time>2018-05-26T09:33:44.148Z</time>
      </trkpt>
      <trkpt lat="40.739025" lon="-4.06364333">
        <ele>1181.0</ele>
        <time>2018-05-26T09:33:45.154Z</time>
      </trkpt>
      <trkpt lat="40.739025" lon="-4.06364333">
        <ele>1181.0</ele>
        <time>2018-05-26T09:33:46.160Z</time>
      </trkpt>
      <trkpt lat="40.739075" lon="-4.063825">
        <ele>1180.0</ele>
        <time>2018-05-26T09:33:47.146Z</time>
      </trkpt>
      <trkpt lat="40.73909667" lon="-4.06392">
        <ele>1180.0</ele>
        <time>2018-05-26T09:33:48.153Z</time>
      </trkpt>
      <trkpt lat="40.73909667" lon="-4.06392">
        <ele>1180.0</ele>
        <time>2018-05-26T09:33:49.160Z</time>
      </trkpt>
      <trkpt lat="40.73912" lon="-4.064115">
        <ele>1180.0</ele>
        <time>2018-05-26T09:33:50.146Z</time>
      </trkpt>
      <trkpt lat="40.73912667" lon="-4.064215">
        <ele>1180.0</ele>
        <time>2018-05-26T09:33:51.153Z</time>
      </trkpt>
      <trkpt lat="40.73912667" lon="-4.064215">
        <ele>1180.0</ele>
        <time>2018-05-26T09:33:52.160Z</time>
      </trkpt>
      <trkpt lat="40.73913667" lon="-4.06441167">
        <ele>1179.0</ele>
        <time>2018-05-26T09:33:53.149Z</time>
      </trkpt>
      <trkpt lat="40.73914333" lon="-4.06451">
        <ele>1179.0</ele>
        <time>2018-05-26T09:33:54.156Z</time>
      </trkpt>
      <trkpt lat="40.73914333" lon="-4.06451">
        <ele>1179.0</ele>
        <time>2018-05-26T09:33:55.163Z</time>
      </trkpt>
      <trkpt lat="40.73916333" lon="-4.06469667">
        <ele>1178.0</ele>
        <time>2018-05-26T09:33:56.148Z</time>
      </trkpt>
      <trkpt lat="40.73917167" lon="-4.06478333">
        <ele>1178.0</ele>
        <time>2018-05-26T09:33:57.164Z</time>
      </trkpt>
      <trkpt lat="40.73917167" lon="-4.06478333">
        <ele>1178.0</ele>
        <time>2018-05-26T09:33:58.175Z</time>
      </trkpt>
      <trkpt lat="40.739195" lon="-4.06499">
        <ele>1178.0</ele>
        <time>2018-05-26T09:33:59.161Z</time>
      </trkpt>
      <trkpt lat="40.739195" lon="-4.06499">
        <ele>1178.0</ele>
        <time>2018-05-26T09:34:00.139Z</time>
      </trkpt>
      <trkpt lat="40.739175" lon="-4.06519833">
        <ele>1177.0</ele>
        <time>2018-05-26T09:34:01.140Z</time>
      </trkpt>
      <trkpt lat="40.73914833" lon="-4.06530333">
        <ele>1177.0</ele>
        <time>2018-05-26T09:34:02.147Z</time>
      </trkpt>
      <trkpt lat="40.73914833" lon="-4.06530333">
        <ele>1177.0</ele>
        <time>2018-05-26T09:34:03.153Z</time>
      </trkpt>
      <trkpt lat="40.739105" lon="-4.06552333">
        <ele>1176.0</ele>
        <time>2018-05-26T09:34:04.149Z</time>
      </trkpt>
      <trkpt lat="40.739105" lon="-4.06552333">
        <ele>1176.0</ele>
        <time>2018-05-26T09:34:05.155Z</time>
      </trkpt>
      <trkpt lat="40.73906667" lon="-4.06575167">
        <ele>1175.0</ele>
        <time>2018-05-26T09:34:06.163Z</time>
      </trkpt>
      <trkpt lat="40.73906667" lon="-4.06575167">
        <ele>1175.0</ele>
        <time>2018-05-26T09:34:07.140Z</time>
      </trkpt>
      <trkpt lat="40.73906833" lon="-4.06598333">
        <ele>1175.0</ele>
        <time>2018-05-26T09:34:08.170Z</time>
      </trkpt>
      <trkpt lat="40.73907" lon="-4.06609833">
        <ele>1174.0</ele>
        <time>2018-05-26T09:34:09.140Z</time>
      </trkpt>
      <trkpt lat="40.73907" lon="-4.06609833">
        <ele>1174.0</ele>
        <time>2018-05-26T09:34:10.146Z</time>
      </trkpt>
      <trkpt lat="40.73912" lon="-4.06632333">
        <ele>1174.0</ele>
        <time>2018-05-26T09:34:11.161Z</time>
      </trkpt>
      <trkpt lat="40.73912" lon="-4.06632333">
        <ele>1174.0</ele>
        <time>2018-05-26T09:34:12.150Z</time>
      </trkpt>
      <trkpt lat="40.73919833" lon="-4.066535">
        <ele>1173.0</ele>
        <time>2018-05-26T09:34:13.152Z</time>
      </trkpt>
      <trkpt lat="40.73919833" lon="-4.066535">
        <ele>1173.0</ele>
        <time>2018-05-26T09:34:14.158Z</time>
      </trkpt>
      <trkpt lat="40.73926333" lon="-4.06670833">
        <ele>1172.0</ele>
        <time>2018-05-26T09:34:15.165Z</time>
      </trkpt>
      <trkpt lat="40.73926333" lon="-4.06670833">
        <ele>1172.0</ele>
        <time>2018-05-26T09:34:16.171Z</time>
      </trkpt>
      <trkpt lat="40.73922667" lon="-4.06685667">
        <ele>1172.0</ele>
        <time>2018-05-26T09:34:17.166Z</time>
      </trkpt>
      <trkpt lat="40.73922667" lon="-4.06685667">
        <ele>1172.0</ele>
        <time>2018-05-26T09:34:18.172Z</time>
      </trkpt>
      <trkpt lat="40.73911" lon="-4.06691167">
        <ele>1171.0</ele>
        <time>2018-05-26T09:34:19.139Z</time>
      </trkpt>
      <trkpt lat="40.73911" lon="-4.06691167">
        <ele>1171.0</ele>
        <time>2018-05-26T09:34:20.144Z</time>
      </trkpt>
      <trkpt lat="40.73897167" lon="-4.06688333">
        <ele>1170.0</ele>
        <time>2018-05-26T09:34:21.151Z</time>
      </trkpt>
      <trkpt lat="40.73897167" lon="-4.06688333">
        <ele>1170.0</ele>
        <time>2018-05-26T09:34:22.156Z</time>
      </trkpt>
      <trkpt lat="40.73882" lon="-4.066825">
        <ele>1169.0</ele>
        <time>2018-05-26T09:34:23.163Z</time>
      </trkpt>
      <trkpt lat="40.73882" lon="-4.066825">
        <ele>1169.0</ele>
        <time>2018-05-26T09:34:24.172Z</time>
      </trkpt>
      <trkpt lat="40.73865833" lon="-4.06675333">
        <ele>1168.0</ele>
        <time>2018-05-26T09:34:25.158Z</time>
      </trkpt>
      <trkpt lat="40.73865833" lon="-4.06675333">
        <ele>1168.0</ele>
        <time>2018-05-26T09:34:26.163Z</time>
      </trkpt>
      <trkpt lat="40.73848833" lon="-4.06666833">
        <ele>1167.0</ele>
        <time>2018-05-26T09:34:27.170Z</time>
      </trkpt>
      <trkpt lat="40.73839667" lon="-4.06662167">
        <ele>1166.0</ele>
        <time>2018-05-26T09:34:28.156Z</time>
      </trkpt>
      <trkpt lat="40.73839667" lon="-4.06662167">
        <ele>1166.0</ele>
        <time>2018-05-26T09:34:29.163Z</time>
      </trkpt>
      <trkpt lat="40.738205" lon="-4.066545">
        <ele>1165.0</ele>
        <time>2018-05-26T09:34:30.170Z</time>
      </trkpt>
      <trkpt lat="40.738205" lon="-4.066545">
        <ele>1165.0</ele>
        <time>2018-05-26T09:34:31.136Z</time>
      </trkpt>
      <trkpt lat="40.738045" lon="-4.06649167">
        <ele>1163.0</ele>
        <time>2018-05-26T09:34:32.154Z</time>
      </trkpt>
      <trkpt lat="40.73796833" lon="-4.06647">
        <ele>1162.0</ele>
        <time>2018-05-26T09:34:33.160Z</time>
      </trkpt>
      <trkpt lat="40.73796833" lon="-4.06647">
        <ele>1162.0</ele>
        <time>2018-05-26T09:34:34.167Z</time>
      </trkpt>
      <trkpt lat="40.73779" lon="-4.06648833">
        <ele>1161.0</ele>
        <time>2018-05-26T09:34:35.152Z</time>
      </trkpt>
      <trkpt lat="40.73779" lon="-4.06648833">
        <ele>1161.0</ele>
        <time>2018-05-26T09:34:36.158Z</time>
      </trkpt>
      <trkpt lat="40.737635" lon="-4.06652667">
        <ele>1159.0</ele>
        <time>2018-05-26T09:34:37.170Z</time>
      </trkpt>
      <trkpt lat="40.737635" lon="-4.06652667">
        <ele>1159.0</ele>
        <time>2018-05-26T09:34:38.159Z</time>
      </trkpt>
      <trkpt lat="40.73754" lon="-4.06668">
        <ele>1157.0</ele>
        <time>2018-05-26T09:34:39.160Z</time>
      </trkpt>
      <trkpt lat="40.73754" lon="-4.06668">
        <ele>1157.0</ele>
        <time>2018-05-26T09:34:40.166Z</time>
      </trkpt>
      <trkpt lat="40.73747" lon="-4.06686333">
        <ele>1156.0</ele>
        <time>2018-05-26T09:34:41.173Z</time>
      </trkpt>
      <trkpt lat="40.73743333" lon="-4.066965">
        <ele>1156.0</ele>
        <time>2018-05-26T09:34:42.140Z</time>
      </trkpt>
      <trkpt lat="40.73739333" lon="-4.06707167">
        <ele>1155.0</ele>
        <time>2018-05-26T09:34:43.168Z</time>
      </trkpt>
      <trkpt lat="40.73739333" lon="-4.06707167">
        <ele>1155.0</ele>
        <time>2018-05-26T09:34:44.139Z</time>
      </trkpt>
      <trkpt lat="40.73731833" lon="-4.06728667">
        <ele>1154.0</ele>
        <time>2018-05-26T09:34:45.147Z</time>
      </trkpt>
      <trkpt lat="40.73731833" lon="-4.06728667">
        <ele>1154.0</ele>
        <time>2018-05-26T09:34:46.153Z</time>
      </trkpt>
      <trkpt lat="40.737235" lon="-4.06746833">
        <ele>1153.0</ele>
        <time>2018-05-26T09:34:47.160Z</time>
      </trkpt>
      <trkpt lat="40.737235" lon="-4.06746833">
        <ele>1153.0</ele>
        <time>2018-05-26T09:34:48.153Z</time>
      </trkpt>
      <trkpt lat="40.73710833" lon="-4.06752667">
        <ele>1152.0</ele>
        <time>2018-05-26T09:34:49.160Z</time>
      </trkpt>
      <trkpt lat="40.73710833" lon="-4.06752667">
        <ele>1152.0</ele>
        <time>2018-05-26T09:34:50.165Z</time>
      </trkpt>
      <trkpt lat="40.73696833" lon="-4.06747">
        <ele>1151.0</ele>
        <time>2018-05-26T09:34:51.172Z</time>
      </trkpt>
      <trkpt lat="40.73696833" lon="-4.06747">
        <ele>1151.0</ele>
        <time>2018-05-26T09:34:52.137Z</time>
      </trkpt>
      <trkpt lat="40.7368" lon="-4.06739333">
        <ele>1151.0</ele>
        <time>2018-05-26T09:34:53.143Z</time>
      </trkpt>
      <trkpt lat="40.73678833" lon="-4.06727333">
        <ele>1150.0</ele>
        <time>2018-05-26T09:34:54.161Z</time>
      </trkpt>
      <trkpt lat="40.73678833" lon="-4.06727333">
        <ele>1150.0</ele>
        <time>2018-05-26T09:34:55.168Z</time>
      </trkpt>
      <trkpt lat="40.73670333" lon="-4.06705167">
        <ele>1149.0</ele>
        <time>2018-05-26T09:34:56.136Z</time>
      </trkpt>
      <trkpt lat="40.73670333" lon="-4.06705167">
        <ele>1149.0</ele>
        <time>2018-05-26T09:34:57.148Z</time>
      </trkpt>
      <trkpt lat="40.73661333" lon="-4.06694167">
        <ele>1148.0</ele>
        <time>2018-05-26T09:34:58.138Z</time>
      </trkpt>
      <trkpt lat="40.73661333" lon="-4.06694167">
        <ele>1148.0</ele>
        <time>2018-05-26T09:34:59.143Z</time>
      </trkpt>
      <trkpt lat="40.73648333" lon="-4.06690833">
        <ele>1147.0</ele>
        <time>2018-05-26T09:35:00.167Z</time>
      </trkpt>
      <trkpt lat="40.73648333" lon="-4.06690833">
        <ele>1147.0</ele>
        <time>2018-05-26T09:35:01.139Z</time>
      </trkpt>
      <trkpt lat="40.736345" lon="-4.06686">
        <ele>1147.0</ele>
        <time>2018-05-26T09:35:02.146Z</time>
      </trkpt>
      <trkpt lat="40.73627667" lon="-4.06682167">
        <ele>1147.0</ele>
        <time>2018-05-26T09:35:03.150Z</time>
      </trkpt>
      <trkpt lat="40.73627667" lon="-4.06682167">
        <ele>1147.0</ele>
        <time>2018-05-26T09:35:04.156Z</time>
      </trkpt>
      <trkpt lat="40.736145" lon="-4.06670167">
        <ele>1146.0</ele>
        <time>2018-05-26T09:35:05.163Z</time>
      </trkpt>
      <trkpt lat="40.73608" lon="-4.06663167">
        <ele>1146.0</ele>
        <time>2018-05-26T09:35:06.170Z</time>
      </trkpt>
      <trkpt lat="40.73601667" lon="-4.06655833">
        <ele>1146.0</ele>
        <time>2018-05-26T09:35:07.141Z</time>
      </trkpt>
      <trkpt lat="40.73601667" lon="-4.06655833">
        <ele>1146.0</ele>
        <time>2018-05-26T09:35:08.147Z</time>
      </trkpt>
      <trkpt lat="40.73587667" lon="-4.06642">
        <ele>1145.0</ele>
        <time>2018-05-26T09:35:09.148Z</time>
      </trkpt>
      <trkpt lat="40.73587667" lon="-4.06642">
        <ele>1145.0</ele>
        <time>2018-05-26T09:35:10.154Z</time>
      </trkpt>
      <trkpt lat="40.73572167" lon="-4.06628333">
        <ele>1144.0</ele>
        <time>2018-05-26T09:35:11.164Z</time>
      </trkpt>
      <trkpt lat="40.73572167" lon="-4.06628333">
        <ele>1144.0</ele>
        <time>2018-05-26T09:35:12.171Z</time>
      </trkpt>
      <trkpt lat="40.73556" lon="-4.066165">
        <ele>1144.0</ele>
        <time>2018-05-26T09:35:13.158Z</time>
      </trkpt>
      <trkpt lat="40.73556" lon="-4.066165">
        <ele>1144.0</ele>
        <time>2018-05-26T09:35:14.165Z</time>
      </trkpt>
      <trkpt lat="40.73538667" lon="-4.066065">
        <ele>1143.0</ele>
        <time>2018-05-26T09:35:15.172Z</time>
      </trkpt>
      <trkpt lat="40.73538667" lon="-4.066065">
        <ele>1143.0</ele>
        <time>2018-05-26T09:35:16.138Z</time>
      </trkpt>
      <trkpt lat="40.73520333" lon="-4.06599">
        <ele>1142.0</ele>
        <time>2018-05-26T09:35:17.165Z</time>
      </trkpt>
      <trkpt lat="40.73520333" lon="-4.06599">
        <ele>1142.0</ele>
        <time>2018-05-26T09:35:18.172Z</time>
      </trkpt>
      <trkpt lat="40.73501333" lon="-4.06604167">
        <ele>1141.0</ele>
        <time>2018-05-26T09:35:19.140Z</time>
      </trkpt>
      <trkpt lat="40.73501333" lon="-4.06604167">
        <ele>1141.0</ele>
        <time>2018-05-26T09:35:20.145Z</time>
      </trkpt>
      <trkpt lat="40.73484" lon="-4.06616667">
        <ele>1140.0</ele>
        <time>2018-05-26T09:35:21.161Z</time>
      </trkpt>
      <trkpt lat="40.73484" lon="-4.06616667">
        <ele>1140.0</ele>
        <time>2018-05-26T09:35:22.170Z</time>
      </trkpt>
      <trkpt lat="40.73468667" lon="-4.06632">
        <ele>1139.0</ele>
        <time>2018-05-26T09:35:23.137Z</time>
      </trkpt>
      <trkpt lat="40.73468667" lon="-4.06632">
        <ele>1139.0</ele>
        <time>2018-05-26T09:35:24.143Z</time>
      </trkpt>
      <trkpt lat="40.73455667" lon="-4.06650667">
        <ele>1139.0</ele>
        <time>2018-05-26T09:35:25.138Z</time>
      </trkpt>
      <trkpt lat="40.73455667" lon="-4.06650667">
        <ele>1139.0</ele>
        <time>2018-05-26T09:35:26.143Z</time>
      </trkpt>
      <trkpt lat="40.73442167" lon="-4.06669333">
        <ele>1139.0</ele>
        <time>2018-05-26T09:35:27.158Z</time>
      </trkpt>
      <trkpt lat="40.73442167" lon="-4.06669333">
        <ele>1139.0</ele>
        <time>2018-05-26T09:35:28.164Z</time>
      </trkpt>
      <trkpt lat="40.73429" lon="-4.06687333">
        <ele>1138.0</ele>
        <time>2018-05-26T09:35:29.139Z</time>
      </trkpt>
      <trkpt lat="40.73429" lon="-4.06687333">
        <ele>1138.0</ele>
        <time>2018-05-26T09:35:30.145Z</time>
      </trkpt>
      <trkpt lat="40.73416" lon="-4.06704167">
        <ele>1137.0</ele>
        <time>2018-05-26T09:35:31.152Z</time>
      </trkpt>
      <trkpt lat="40.734095" lon="-4.06712333">
        <ele>1137.0</ele>
        <time>2018-05-26T09:35:32.175Z</time>
      </trkpt>
      <trkpt lat="40.73402833" lon="-4.06720833">
        <ele>1137.0</ele>
        <time>2018-05-26T09:35:33.147Z</time>
      </trkpt>
      <trkpt lat="40.73402833" lon="-4.06720833">
        <ele>1137.0</ele>
        <time>2018-05-26T09:35:34.152Z</time>
      </trkpt>
      <trkpt lat="40.73390333" lon="-4.06737333">
        <ele>1137.0</ele>
        <time>2018-05-26T09:35:35.164Z</time>
      </trkpt>
      <trkpt lat="40.73383833" lon="-4.06744833">
        <ele>1137.0</ele>
        <time>2018-05-26T09:35:36.175Z</time>
      </trkpt>
      <trkpt lat="40.73383833" lon="-4.06744833">
        <ele>1137.0</ele>
        <time>2018-05-26T09:35:37.141Z</time>
      </trkpt>
      <trkpt lat="40.73369667" lon="-4.067555">
        <ele>1137.0</ele>
        <time>2018-05-26T09:35:38.162Z</time>
      </trkpt>
      <trkpt lat="40.73362167" lon="-4.06758833">
        <ele>1137.0</ele>
        <time>2018-05-26T09:35:39.140Z</time>
      </trkpt>
      <trkpt lat="40.73362167" lon="-4.06758833">
        <ele>1137.0</ele>
        <time>2018-05-26T09:35:40.146Z</time>
      </trkpt>
      <trkpt lat="40.73346333" lon="-4.06761333">
        <ele>1138.0</ele>
        <time>2018-05-26T09:35:41.153Z</time>
      </trkpt>
      <trkpt lat="40.73346333" lon="-4.06761333">
        <ele>1138.0</ele>
        <time>2018-05-26T09:35:42.160Z</time>
      </trkpt>
      <trkpt lat="40.73330333" lon="-4.06763167">
        <ele>1139.0</ele>
        <time>2018-05-26T09:35:43.147Z</time>
      </trkpt>
      <trkpt lat="40.73330333" lon="-4.06763167">
        <ele>1139.0</ele>
        <time>2018-05-26T09:35:44.154Z</time>
      </trkpt>
      <trkpt lat="40.73316833" lon="-4.067645">
        <ele>1140.0</ele>
        <time>2018-05-26T09:35:45.162Z</time>
      </trkpt>
      <trkpt lat="40.73316833" lon="-4.067645">
        <ele>1140.0</ele>
        <time>2018-05-26T09:35:46.173Z</time>
      </trkpt>
      <trkpt lat="40.733055" lon="-4.06765833">
        <ele>1141.0</ele>
        <time>2018-05-26T09:35:47.165Z</time>
      </trkpt>
      <trkpt lat="40.73300333" lon="-4.067665">
        <ele>1142.0</ele>
        <time>2018-05-26T09:35:48.173Z</time>
      </trkpt>
      <trkpt lat="40.73300333" lon="-4.067665">
        <ele>1142.0</ele>
        <time>2018-05-26T09:35:49.139Z</time>
      </trkpt>
      <trkpt lat="40.73291" lon="-4.067675">
        <ele>1143.0</ele>
        <time>2018-05-26T09:35:50.147Z</time>
      </trkpt>
      <trkpt lat="40.73286833" lon="-4.06768">
        <ele>1144.0</ele>
        <time>2018-05-26T09:35:51.154Z</time>
      </trkpt>
      <trkpt lat="40.73286833" lon="-4.06768">
        <ele>1144.0</ele>
        <time>2018-05-26T09:35:52.160Z</time>
      </trkpt>
      <trkpt lat="40.73278833" lon="-4.06769">
        <ele>1145.0</ele>
        <time>2018-05-26T09:35:53.167Z</time>
      </trkpt>
      <trkpt lat="40.73278833" lon="-4.06769">
        <ele>1145.0</ele>
        <time>2018-05-26T09:35:54.172Z</time>
      </trkpt>
      <trkpt lat="40.73271" lon="-4.0677">
        <ele>1146.0</ele>
        <time>2018-05-26T09:35:55.166Z</time>
      </trkpt>
      <trkpt lat="40.73271" lon="-4.0677">
        <ele>1146.0</ele>
        <time>2018-05-26T09:35:56.172Z</time>
      </trkpt>
      <trkpt lat="40.73263333" lon="-4.06771333">
        <ele>1147.0</ele>
        <time>2018-05-26T09:35:57.157Z</time>
      </trkpt>
      <trkpt lat="40.73263333" lon="-4.06771333">
        <ele>1147.0</ele>
        <time>2018-05-26T09:35:58.159Z</time>
      </trkpt>
      <trkpt lat="40.732555" lon="-4.06773833">
        <ele>1147.0</ele>
        <time>2018-05-26T09:35:59.171Z</time>
      </trkpt>
      <trkpt lat="40.732555" lon="-4.06773833">
        <ele>1147.0</ele>
        <time>2018-05-26T09:36:00.162Z</time>
      </trkpt>
      <trkpt lat="40.73249" lon="-4.06775667">
        <ele>1148.0</ele>
        <time>2018-05-26T09:36:01.141Z</time>
      </trkpt>
      <trkpt lat="40.73249" lon="-4.06775667">
        <ele>1148.0</ele>
        <time>2018-05-26T09:36:02.146Z</time>
      </trkpt>
      <trkpt lat="40.73242833" lon="-4.06777833">
        <ele>1148.0</ele>
        <time>2018-05-26T09:36:03.153Z</time>
      </trkpt>
      <trkpt lat="40.73239667" lon="-4.06779">
        <ele>1149.0</ele>
        <time>2018-05-26T09:36:04.141Z</time>
      </trkpt>
      <trkpt lat="40.73239667" lon="-4.06779">
        <ele>1149.0</ele>
        <time>2018-05-26T09:36:05.147Z</time>
      </trkpt>
      <trkpt lat="40.73233333" lon="-4.06782">
        <ele>1149.0</ele>
        <time>2018-05-26T09:36:06.154Z</time>
      </trkpt>
      <trkpt lat="40.73233333" lon="-4.06782">
        <ele>1149.0</ele>
        <time>2018-05-26T09:36:07.161Z</time>
      </trkpt>
      <trkpt lat="40.73227667" lon="-4.06785667">
        <ele>1150.0</ele>
        <time>2018-05-26T09:36:08.171Z</time>
      </trkpt>
      <trkpt lat="40.73227667" lon="-4.06785667">
        <ele>1150.0</ele>
        <time>2018-05-26T09:36:09.138Z</time>
      </trkpt>
      <trkpt lat="40.73220833" lon="-4.06790667">
        <ele>1151.0</ele>
        <time>2018-05-26T09:36:10.146Z</time>
      </trkpt>
      <trkpt lat="40.73220833" lon="-4.06790667">
        <ele>1151.0</ele>
        <time>2018-05-26T09:36:11.152Z</time>
      </trkpt>
      <trkpt lat="40.73214833" lon="-4.06797167">
        <ele>1152.0</ele>
        <time>2018-05-26T09:36:12.162Z</time>
      </trkpt>
      <trkpt lat="40.73214833" lon="-4.06797167">
        <ele>1152.0</ele>
        <time>2018-05-26T09:36:13.169Z</time>
      </trkpt>
      <trkpt lat="40.73207333" lon="-4.06803167">
        <ele>1152.0</ele>
        <time>2018-05-26T09:36:14.137Z</time>
      </trkpt>
      <trkpt lat="40.73204" lon="-4.068065">
        <ele>1152.0</ele>
        <time>2018-05-26T09:36:15.164Z</time>
      </trkpt>
      <trkpt lat="40.73204" lon="-4.068065">
        <ele>1152.0</ele>
        <time>2018-05-26T09:36:16.171Z</time>
      </trkpt>
      <trkpt lat="40.73197167" lon="-4.06812833">
        <ele>1152.0</ele>
        <time>2018-05-26T09:36:17.139Z</time>
      </trkpt>
      <trkpt lat="40.73197167" lon="-4.06812833">
        <ele>1152.0</ele>
        <time>2018-05-26T09:36:18.145Z</time>
      </trkpt>
      <trkpt lat="40.73190333" lon="-4.06818833">
        <ele>1152.0</ele>
        <time>2018-05-26T09:36:19.158Z</time>
      </trkpt>
      <trkpt lat="40.73190333" lon="-4.06818833">
        <ele>1152.0</ele>
        <time>2018-05-26T09:36:20.163Z</time>
      </trkpt>
      <trkpt lat="40.73183167" lon="-4.06825">
        <ele>1153.0</ele>
        <time>2018-05-26T09:36:21.136Z</time>
      </trkpt>
      <trkpt lat="40.73183167" lon="-4.06825">
        <ele>1153.0</ele>
        <time>2018-05-26T09:36:22.142Z</time>
      </trkpt>
      <trkpt lat="40.73175833" lon="-4.068325">
        <ele>1153.0</ele>
        <time>2018-05-26T09:36:23.136Z</time>
      </trkpt>
      <trkpt lat="40.73175833" lon="-4.068325">
        <ele>1153.0</ele>
        <time>2018-05-26T09:36:24.142Z</time>
      </trkpt>
      <trkpt lat="40.731685" lon="-4.0684">
        <ele>1154.0</ele>
        <time>2018-05-26T09:36:25.159Z</time>
      </trkpt>
      <trkpt lat="40.731685" lon="-4.0684">
        <ele>1154.0</ele>
        <time>2018-05-26T09:36:26.165Z</time>
      </trkpt>
      <trkpt lat="40.73161167" lon="-4.068475">
        <ele>1154.0</ele>
        <time>2018-05-26T09:36:27.170Z</time>
      </trkpt>
      <trkpt lat="40.73161167" lon="-4.068475">
        <ele>1154.0</ele>
        <time>2018-05-26T09:36:28.137Z</time>
      </trkpt>
      <trkpt lat="40.731535" lon="-4.06855333">
        <ele>1154.0</ele>
        <time>2018-05-26T09:36:29.148Z</time>
      </trkpt>
      <trkpt lat="40.73149667" lon="-4.068595">
        <ele>1154.0</ele>
        <time>2018-05-26T09:36:30.149Z</time>
      </trkpt>
      <trkpt lat="40.73149667" lon="-4.068595">
        <ele>1154.0</ele>
        <time>2018-05-26T09:36:31.155Z</time>
      </trkpt>
      <trkpt lat="40.73142833" lon="-4.06868167">
        <ele>1155.0</ele>
        <time>2018-05-26T09:36:32.162Z</time>
      </trkpt>
      <trkpt lat="40.731395" lon="-4.068725">
        <ele>1155.0</ele>
        <time>2018-05-26T09:36:33.139Z</time>
      </trkpt>
      <trkpt lat="40.731395" lon="-4.068725">
        <ele>1155.0</ele>
        <time>2018-05-26T09:36:34.145Z</time>
      </trkpt>
      <trkpt lat="40.73132333" lon="-4.06881333">
        <ele>1155.0</ele>
        <time>2018-05-26T09:36:35.154Z</time>
      </trkpt>
      <trkpt lat="40.73132333" lon="-4.06881333">
        <ele>1155.0</ele>
        <time>2018-05-26T09:36:36.160Z</time>
      </trkpt>
      <trkpt lat="40.73125" lon="-4.06891167">
        <ele>1155.0</ele>
        <time>2018-05-26T09:36:37.147Z</time>
      </trkpt>
      <trkpt lat="40.73125" lon="-4.06891167">
        <ele>1155.0</ele>
        <time>2018-05-26T09:36:38.153Z</time>
      </trkpt>
      <trkpt lat="40.73117" lon="-4.069015">
        <ele>1155.0</ele>
        <time>2018-05-26T09:36:39.164Z</time>
      </trkpt>
      <trkpt lat="40.73117" lon="-4.069015">
        <ele>1155.0</ele>
        <time>2018-05-26T09:36:40.172Z</time>
      </trkpt>
      <trkpt lat="40.73109833" lon="-4.06914667">
        <ele>1154.0</ele>
        <time>2018-05-26T09:36:41.159Z</time>
      </trkpt>
      <trkpt lat="40.73109833" lon="-4.06914667">
        <ele>1154.0</ele>
        <time>2018-05-26T09:36:42.165Z</time>
      </trkpt>
      <trkpt lat="40.731045" lon="-4.06928667">
        <ele>1154.0</ele>
        <time>2018-05-26T09:36:43.158Z</time>
      </trkpt>
      <trkpt lat="40.731045" lon="-4.06928667">
        <ele>1154.0</ele>
        <time>2018-05-26T09:36:44.164Z</time>
      </trkpt>
      <trkpt lat="40.730975" lon="-4.06942167">
        <ele>1154.0</ele>
        <time>2018-05-26T09:36:45.171Z</time>
      </trkpt>
      <trkpt lat="40.730975" lon="-4.06942167">
        <ele>1154.0</ele>
        <time>2018-05-26T09:36:46.137Z</time>
      </trkpt>
      <trkpt lat="40.73091" lon="-4.06954167">
        <ele>1153.0</ele>
        <time>2018-05-26T09:36:47.168Z</time>
      </trkpt>
      <trkpt lat="40.73091" lon="-4.06954167">
        <ele>1153.0</ele>
        <time>2018-05-26T09:36:48.176Z</time>
      </trkpt>
      <trkpt lat="40.73082833" lon="-4.06968167">
        <ele>1152.0</ele>
        <time>2018-05-26T09:36:49.163Z</time>
      </trkpt>
      <trkpt lat="40.73078833" lon="-4.06975833">
        <ele>1152.0</ele>
        <time>2018-05-26T09:36:50.140Z</time>
      </trkpt>
      <trkpt lat="40.73075333" lon="-4.069835">
        <ele>1152.0</ele>
        <time>2018-05-26T09:36:51.158Z</time>
      </trkpt>
      <trkpt lat="40.73075333" lon="-4.069835">
        <ele>1152.0</ele>
        <time>2018-05-26T09:36:52.165Z</time>
      </trkpt>
      <trkpt lat="40.730685" lon="-4.06999667">
        <ele>1151.0</ele>
        <time>2018-05-26T09:36:53.172Z</time>
      </trkpt>
      <trkpt lat="40.730685" lon="-4.06999667">
        <ele>1151.0</ele>
        <time>2018-05-26T09:36:54.139Z</time>
      </trkpt>
      <trkpt lat="40.73061667" lon="-4.07016333">
        <ele>1151.0</ele>
        <time>2018-05-26T09:36:55.164Z</time>
      </trkpt>
      <trkpt lat="40.73061667" lon="-4.07016333">
        <ele>1151.0</ele>
        <time>2018-05-26T09:36:56.169Z</time>
      </trkpt>
      <trkpt lat="40.73054667" lon="-4.07032667">
        <ele>1151.0</ele>
        <time>2018-05-26T09:36:57.156Z</time>
      </trkpt>
      <trkpt lat="40.73054667" lon="-4.07032667">
        <ele>1151.0</ele>
        <time>2018-05-26T09:36:58.162Z</time>
      </trkpt>
      <trkpt lat="40.73048833" lon="-4.07049167">
        <ele>1151.0</ele>
        <time>2018-05-26T09:36:59.149Z</time>
      </trkpt>
      <trkpt lat="40.73048833" lon="-4.07049167">
        <ele>1151.0</ele>
        <time>2018-05-26T09:37:00.161Z</time>
      </trkpt>
      <trkpt lat="40.73043333" lon="-4.07066333">
        <ele>1151.0</ele>
        <time>2018-05-26T09:37:01.149Z</time>
      </trkpt>
      <trkpt lat="40.730405" lon="-4.07075">
        <ele>1151.0</ele>
        <time>2018-05-26T09:37:02.155Z</time>
      </trkpt>
      <trkpt lat="40.730375" lon="-4.07084">
        <ele>1151.0</ele>
        <time>2018-05-26T09:37:03.163Z</time>
      </trkpt>
      <trkpt lat="40.730375" lon="-4.07084">
        <ele>1151.0</ele>
        <time>2018-05-26T09:37:04.169Z</time>
      </trkpt>
      <trkpt lat="40.73031833" lon="-4.07102333">
        <ele>1151.0</ele>
        <time>2018-05-26T09:37:05.137Z</time>
      </trkpt>
      <trkpt lat="40.73028833" lon="-4.07111333">
        <ele>1150.0</ele>
        <time>2018-05-26T09:37:06.168Z</time>
      </trkpt>
      <trkpt lat="40.73028833" lon="-4.07111333">
        <ele>1150.0</ele>
        <time>2018-05-26T09:37:07.136Z</time>
      </trkpt>
      <trkpt lat="40.73022" lon="-4.07128167">
        <ele>1149.0</ele>
        <time>2018-05-26T09:37:08.143Z</time>
      </trkpt>
      <trkpt lat="40.73022" lon="-4.07128167">
        <ele>1149.0</ele>
        <time>2018-05-26T09:37:09.149Z</time>
      </trkpt>
      <trkpt lat="40.730175" lon="-4.07144833">
        <ele>1149.0</ele>
        <time>2018-05-26T09:37:10.175Z</time>
      </trkpt>
      <trkpt lat="40.730175" lon="-4.07144833">
        <ele>1149.0</ele>
        <time>2018-05-26T09:37:11.142Z</time>
      </trkpt>
      <trkpt lat="40.73014167" lon="-4.07161333">
        <ele>1148.0</ele>
        <time>2018-05-26T09:37:12.149Z</time>
      </trkpt>
      <trkpt lat="40.73013333" lon="-4.07169667">
        <ele>1148.0</ele>
        <time>2018-05-26T09:37:13.145Z</time>
      </trkpt>
      <trkpt lat="40.73013333" lon="-4.07169667">
        <ele>1148.0</ele>
        <time>2018-05-26T09:37:14.152Z</time>
      </trkpt>
      <trkpt lat="40.73011" lon="-4.07186167">
        <ele>1149.0</ele>
        <time>2018-05-26T09:37:15.159Z</time>
      </trkpt>
      <trkpt lat="40.73011" lon="-4.07186167">
        <ele>1149.0</ele>
        <time>2018-05-26T09:37:16.165Z</time>
      </trkpt>
      <trkpt lat="40.73009" lon="-4.07201833">
        <ele>1149.0</ele>
        <time>2018-05-26T09:37:17.148Z</time>
      </trkpt>
      <trkpt lat="40.73009" lon="-4.07201833">
        <ele>1149.0</ele>
        <time>2018-05-26T09:37:18.154Z</time>
      </trkpt>
      <trkpt lat="40.73006833" lon="-4.07216833">
        <ele>1148.0</ele>
        <time>2018-05-26T09:37:19.166Z</time>
      </trkpt>
      <trkpt lat="40.73006833" lon="-4.07216833">
        <ele>1148.0</ele>
        <time>2018-05-26T09:37:20.172Z</time>
      </trkpt>
      <trkpt lat="40.73003167" lon="-4.07230667">
        <ele>1148.0</ele>
        <time>2018-05-26T09:37:21.153Z</time>
      </trkpt>
      <trkpt lat="40.73001" lon="-4.07237833">
        <ele>1148.0</ele>
        <time>2018-05-26T09:37:22.160Z</time>
      </trkpt>
      <trkpt lat="40.73001" lon="-4.07237833">
        <ele>1148.0</ele>
        <time>2018-05-26T09:37:23.166Z</time>
      </trkpt>
      <trkpt lat="40.72998" lon="-4.07252333">
        <ele>1148.0</ele>
        <time>2018-05-26T09:37:24.145Z</time>
      </trkpt>
      <trkpt lat="40.729965" lon="-4.072595">
        <ele>1148.0</ele>
        <time>2018-05-26T09:37:25.152Z</time>
      </trkpt>
      <trkpt lat="40.729965" lon="-4.072595">
        <ele>1148.0</ele>
        <time>2018-05-26T09:37:26.157Z</time>
      </trkpt>
      <trkpt lat="40.72994" lon="-4.07275167">
        <ele>1148.0</ele>
        <time>2018-05-26T09:37:27.158Z</time>
      </trkpt>
      <trkpt lat="40.72994" lon="-4.07275167">
        <ele>1148.0</ele>
        <time>2018-05-26T09:37:28.164Z</time>
      </trkpt>
      <trkpt lat="40.72992833" lon="-4.07291667">
        <ele>1148.0</ele>
        <time>2018-05-26T09:37:29.144Z</time>
      </trkpt>
      <trkpt lat="40.72992833" lon="-4.07291667">
        <ele>1148.0</ele>
        <time>2018-05-26T09:37:30.138Z</time>
      </trkpt>
      <trkpt lat="40.72992667" lon="-4.073075">
        <ele>1148.0</ele>
        <time>2018-05-26T09:37:31.158Z</time>
      </trkpt>
      <trkpt lat="40.72992667" lon="-4.07314167">
        <ele>1148.0</ele>
        <time>2018-05-26T09:37:32.171Z</time>
      </trkpt>
      <trkpt lat="40.72993167" lon="-4.07321167">
        <ele>1148.0</ele>
        <time>2018-05-26T09:37:33.139Z</time>
      </trkpt>
      <trkpt lat="40.72993167" lon="-4.07321167">
        <ele>1148.0</ele>
        <time>2018-05-26T09:37:34.145Z</time>
      </trkpt>
      <trkpt lat="40.72993667" lon="-4.07337">
        <ele>1149.0</ele>
        <time>2018-05-26T09:37:35.161Z</time>
      </trkpt>
      <trkpt lat="40.72993667" lon="-4.07337">
        <ele>1149.0</ele>
        <time>2018-05-26T09:37:36.173Z</time>
      </trkpt>
      <trkpt lat="40.72992333" lon="-4.07355167">
        <ele>1148.0</ele>
        <time>2018-05-26T09:37:37.158Z</time>
      </trkpt>
      <trkpt lat="40.72992333" lon="-4.07355167">
        <ele>1148.0</ele>
        <time>2018-05-26T09:37:38.165Z</time>
      </trkpt>
      <trkpt lat="40.72989333" lon="-4.07373833">
        <ele>1148.0</ele>
        <time>2018-05-26T09:37:39.148Z</time>
      </trkpt>
      <trkpt lat="40.72989333" lon="-4.07373833">
        <ele>1148.0</ele>
        <time>2018-05-26T09:37:40.146Z</time>
      </trkpt>
      <trkpt lat="40.72985667" lon="-4.07391833">
        <ele>1147.0</ele>
        <time>2018-05-26T09:37:41.148Z</time>
      </trkpt>
      <trkpt lat="40.72985667" lon="-4.07391833">
        <ele>1147.0</ele>
        <time>2018-05-26T09:37:42.155Z</time>
      </trkpt>
      <trkpt lat="40.72982167" lon="-4.07409833">
        <ele>1146.0</ele>
        <time>2018-05-26T09:37:43.163Z</time>
      </trkpt>
      <trkpt lat="40.72980333" lon="-4.07418667">
        <ele>1146.0</ele>
        <time>2018-05-26T09:37:44.148Z</time>
      </trkpt>
      <trkpt lat="40.72980333" lon="-4.07418667">
        <ele>1146.0</ele>
        <time>2018-05-26T09:37:45.154Z</time>
      </trkpt>
      <trkpt lat="40.72976333" lon="-4.07436333">
        <ele>1145.0</ele>
        <time>2018-05-26T09:37:46.161Z</time>
      </trkpt>
      <trkpt lat="40.72974333" lon="-4.07444667">
        <ele>1145.0</ele>
        <time>2018-05-26T09:37:47.158Z</time>
      </trkpt>
      <trkpt lat="40.72974333" lon="-4.07444667">
        <ele>1145.0</ele>
        <time>2018-05-26T09:37:48.164Z</time>
      </trkpt>
      <trkpt lat="40.729705" lon="-4.07460833">
        <ele>1145.0</ele>
        <time>2018-05-26T09:37:49.138Z</time>
      </trkpt>
      <trkpt lat="40.729705" lon="-4.07460833">
        <ele>1145.0</ele>
        <time>2018-05-26T09:37:50.144Z</time>
      </trkpt>
      <trkpt lat="40.729685" lon="-4.07475833">
        <ele>1145.0</ele>
        <time>2018-05-26T09:37:51.143Z</time>
      </trkpt>
      <trkpt lat="40.729685" lon="-4.07475833">
        <ele>1145.0</ele>
        <time>2018-05-26T09:37:52.149Z</time>
      </trkpt>
      <trkpt lat="40.72968" lon="-4.07490333">
        <ele>1145.0</ele>
        <time>2018-05-26T09:37:53.156Z</time>
      </trkpt>
      <trkpt lat="40.72968" lon="-4.07490333">
        <ele>1145.0</ele>
        <time>2018-05-26T09:37:54.162Z</time>
      </trkpt>
      <trkpt lat="40.72968667" lon="-4.07503833">
        <ele>1146.0</ele>
        <time>2018-05-26T09:37:55.158Z</time>
      </trkpt>
      <trkpt lat="40.72968667" lon="-4.07503833">
        <ele>1146.0</ele>
        <time>2018-05-26T09:37:56.163Z</time>
      </trkpt>
      <trkpt lat="40.72969167" lon="-4.07515333">
        <ele>1147.0</ele>
        <time>2018-05-26T09:37:57.170Z</time>
      </trkpt>
      <trkpt lat="40.72969167" lon="-4.07515333">
        <ele>1147.0</ele>
        <time>2018-05-26T09:37:58.138Z</time>
      </trkpt>
      <trkpt lat="40.72969833" lon="-4.075245">
        <ele>1147.0</ele>
        <time>2018-05-26T09:37:59.163Z</time>
      </trkpt>
      <trkpt lat="40.72970667" lon="-4.07529">
        <ele>1147.0</ele>
        <time>2018-05-26T09:38:00.138Z</time>
      </trkpt>
      <trkpt lat="40.72970667" lon="-4.07529">
        <ele>1147.0</ele>
        <time>2018-05-26T09:38:01.149Z</time>
      </trkpt>
      <trkpt lat="40.729715" lon="-4.07537833">
        <ele>1148.0</ele>
        <time>2018-05-26T09:38:02.157Z</time>
      </trkpt>
      <trkpt lat="40.729715" lon="-4.07537833">
        <ele>1148.0</ele>
        <time>2018-05-26T09:38:03.163Z</time>
      </trkpt>
      <trkpt lat="40.729725" lon="-4.075445">
        <ele>1149.0</ele>
        <time>2018-05-26T09:38:04.149Z</time>
      </trkpt>
      <trkpt lat="40.72973" lon="-4.07548">
        <ele>1150.0</ele>
        <time>2018-05-26T09:38:05.155Z</time>
      </trkpt>
      <trkpt lat="40.72973" lon="-4.07548">
        <ele>1150.0</ele>
        <time>2018-05-26T09:38:06.162Z</time>
      </trkpt>
      <trkpt lat="40.72973167" lon="-4.07555667">
        <ele>1151.0</ele>
        <time>2018-05-26T09:38:07.154Z</time>
      </trkpt>
      <trkpt lat="40.72973167" lon="-4.07555667">
        <ele>1151.0</ele>
        <time>2018-05-26T09:38:08.161Z</time>
      </trkpt>
      <trkpt lat="40.72974167" lon="-4.075625">
        <ele>1152.0</ele>
        <time>2018-05-26T09:38:09.168Z</time>
      </trkpt>
      <trkpt lat="40.72974167" lon="-4.075625">
        <ele>1152.0</ele>
        <time>2018-05-26T09:38:10.158Z</time>
      </trkpt>
      <trkpt lat="40.72975333" lon="-4.07569167">
        <ele>1152.0</ele>
        <time>2018-05-26T09:38:11.168Z</time>
      </trkpt>
      <trkpt lat="40.72975333" lon="-4.07569167">
        <ele>1152.0</ele>
        <time>2018-05-26T09:38:12.174Z</time>
      </trkpt>
      <trkpt lat="40.72975667" lon="-4.07576167">
        <ele>1153.0</ele>
        <time>2018-05-26T09:38:13.143Z</time>
      </trkpt>
      <trkpt lat="40.72976" lon="-4.07579833">
        <ele>1153.0</ele>
        <time>2018-05-26T09:38:14.150Z</time>
      </trkpt>
      <trkpt lat="40.72975667" lon="-4.07584333">
        <ele>1154.0</ele>
        <time>2018-05-26T09:38:15.157Z</time>
      </trkpt>
      <trkpt lat="40.72975667" lon="-4.07584333">
        <ele>1154.0</ele>
        <time>2018-05-26T09:38:16.163Z</time>
      </trkpt>
      <trkpt lat="40.72975167" lon="-4.075925">
        <ele>1155.0</ele>
        <time>2018-05-26T09:38:17.171Z</time>
      </trkpt>
      <trkpt lat="40.72975167" lon="-4.075925">
        <ele>1155.0</ele>
        <time>2018-05-26T09:38:18.138Z</time>
      </trkpt>
      <trkpt lat="40.72975167" lon="-4.07598833">
        <ele>1155.0</ele>
        <time>2018-05-26T09:38:19.165Z</time>
      </trkpt>
      <trkpt lat="40.72975167" lon="-4.07598833">
        <ele>1155.0</ele>
        <time>2018-05-26T09:38:20.172Z</time>
      </trkpt>
      <trkpt lat="40.729745" lon="-4.07604667">
        <ele>1156.0</ele>
        <time>2018-05-26T09:38:21.139Z</time>
      </trkpt>
      <trkpt lat="40.729745" lon="-4.07604667">
        <ele>1156.0</ele>
        <time>2018-05-26T09:38:22.144Z</time>
      </trkpt>
      <trkpt lat="40.72975" lon="-4.07611667">
        <ele>1156.0</ele>
        <time>2018-05-26T09:38:23.136Z</time>
      </trkpt>
      <trkpt lat="40.72975667" lon="-4.07615333">
        <ele>1156.0</ele>
        <time>2018-05-26T09:38:24.144Z</time>
      </trkpt>
      <trkpt lat="40.72975667" lon="-4.07615333">
        <ele>1156.0</ele>
        <time>2018-05-26T09:38:25.150Z</time>
      </trkpt>
      <trkpt lat="40.72976333" lon="-4.07622833">
        <ele>1157.0</ele>
        <time>2018-05-26T09:38:26.138Z</time>
      </trkpt>
      <trkpt lat="40.72976833" lon="-4.07626833">
        <ele>1157.0</ele>
        <time>2018-05-26T09:38:27.158Z</time>
      </trkpt>
      <trkpt lat="40.72976833" lon="-4.07626833">
        <ele>1157.0</ele>
        <time>2018-05-26T09:38:28.164Z</time>
      </trkpt>
      <trkpt lat="40.72977333" lon="-4.07635333">
        <ele>1158.0</ele>
        <time>2018-05-26T09:38:29.153Z</time>
      </trkpt>
      <trkpt lat="40.72978" lon="-4.07639333">
        <ele>1158.0</ele>
        <time>2018-05-26T09:38:30.160Z</time>
      </trkpt>
      <trkpt lat="40.72978" lon="-4.07639333">
        <ele>1158.0</ele>
        <time>2018-05-26T09:38:31.166Z</time>
      </trkpt>
      <trkpt lat="40.72978667" lon="-4.07647">
        <ele>1159.0</ele>
        <time>2018-05-26T09:38:32.168Z</time>
      </trkpt>
      <trkpt lat="40.72979333" lon="-4.07650667">
        <ele>1160.0</ele>
        <time>2018-05-26T09:38:33.145Z</time>
      </trkpt>
      <trkpt lat="40.72979833" lon="-4.07654333">
        <ele>1160.0</ele>
        <time>2018-05-26T09:38:34.152Z</time>
      </trkpt>
      <trkpt lat="40.72979833" lon="-4.07654333">
        <ele>1160.0</ele>
        <time>2018-05-26T09:38:35.158Z</time>
      </trkpt>
      <trkpt lat="40.7298" lon="-4.07660833">
        <ele>1160.0</ele>
        <time>2018-05-26T09:38:36.164Z</time>
      </trkpt>
      <trkpt lat="40.7298" lon="-4.07660833">
        <ele>1160.0</ele>
        <time>2018-05-26T09:38:37.138Z</time>
      </trkpt>
      <trkpt lat="40.72980333" lon="-4.07668333">
        <ele>1160.0</ele>
        <time>2018-05-26T09:38:38.169Z</time>
      </trkpt>
      <trkpt lat="40.72980333" lon="-4.07668333">
        <ele>1160.0</ele>
        <time>2018-05-26T09:38:39.138Z</time>
      </trkpt>
      <trkpt lat="40.72980333" lon="-4.07675333">
        <ele>1161.0</ele>
        <time>2018-05-26T09:38:40.144Z</time>
      </trkpt>
      <trkpt lat="40.72980333" lon="-4.07675333">
        <ele>1161.0</ele>
        <time>2018-05-26T09:38:41.150Z</time>
      </trkpt>
      <trkpt lat="40.72980667" lon="-4.07682167">
        <ele>1161.0</ele>
        <time>2018-05-26T09:38:42.168Z</time>
      </trkpt>
      <trkpt lat="40.72981" lon="-4.07685333">
        <ele>1161.0</ele>
        <time>2018-05-26T09:38:43.136Z</time>
      </trkpt>
      <trkpt lat="40.729815" lon="-4.076885">
        <ele>1161.0</ele>
        <time>2018-05-26T09:38:44.145Z</time>
      </trkpt>
      <trkpt lat="40.72982167" lon="-4.07691667">
        <ele>1161.0</ele>
        <time>2018-05-26T09:38:45.152Z</time>
      </trkpt>
      <trkpt lat="40.72982167" lon="-4.07691667">
        <ele>1161.0</ele>
        <time>2018-05-26T09:38:46.159Z</time>
      </trkpt>
      <trkpt lat="40.72982333" lon="-4.07698833">
        <ele>1162.0</ele>
        <time>2018-05-26T09:38:47.147Z</time>
      </trkpt>
      <trkpt lat="40.72982333" lon="-4.07698833">
        <ele>1162.0</ele>
        <time>2018-05-26T09:38:48.154Z</time>
      </trkpt>
      <trkpt lat="40.72982667" lon="-4.07706333">
        <ele>1163.0</ele>
        <time>2018-05-26T09:38:49.161Z</time>
      </trkpt>
      <trkpt lat="40.72982667" lon="-4.07706333">
        <ele>1163.0</ele>
        <time>2018-05-26T09:38:50.172Z</time>
      </trkpt>
      <trkpt lat="40.72983" lon="-4.07714667">
        <ele>1163.0</ele>
        <time>2018-05-26T09:38:51.161Z</time>
      </trkpt>
      <trkpt lat="40.72983" lon="-4.07714667">
        <ele>1163.0</ele>
        <time>2018-05-26T09:38:52.167Z</time>
      </trkpt>
      <trkpt lat="40.72983" lon="-4.07723167">
        <ele>1164.0</ele>
        <time>2018-05-26T09:38:53.175Z</time>
      </trkpt>
      <trkpt lat="40.72983" lon="-4.07723167">
        <ele>1164.0</ele>
        <time>2018-05-26T09:38:54.141Z</time>
      </trkpt>
      <trkpt lat="40.729825" lon="-4.07730833">
        <ele>1164.0</ele>
        <time>2018-05-26T09:38:55.139Z</time>
      </trkpt>
      <trkpt lat="40.729825" lon="-4.07730833">
        <ele>1164.0</ele>
        <time>2018-05-26T09:38:56.145Z</time>
      </trkpt>
      <trkpt lat="40.729815" lon="-4.07738167">
        <ele>1165.0</ele>
        <time>2018-05-26T09:38:57.155Z</time>
      </trkpt>
      <trkpt lat="40.729815" lon="-4.07738167">
        <ele>1165.0</ele>
        <time>2018-05-26T09:38:58.161Z</time>
      </trkpt>
      <trkpt lat="40.72980667" lon="-4.077445">
        <ele>1164.0</ele>
        <time>2018-05-26T09:38:59.138Z</time>
      </trkpt>
      <trkpt lat="40.72980667" lon="-4.077445">
        <ele>1164.0</ele>
        <time>2018-05-26T09:39:00.174Z</time>
      </trkpt>
      <trkpt lat="40.72980167" lon="-4.077505">
        <ele>1164.0</ele>
        <time>2018-05-26T09:39:01.145Z</time>
      </trkpt>
      <trkpt lat="40.72980167" lon="-4.077505">
        <ele>1164.0</ele>
        <time>2018-05-26T09:39:02.152Z</time>
      </trkpt>
      <trkpt lat="40.72980333" lon="-4.077575">
        <ele>1164.0</ele>
        <time>2018-05-26T09:39:03.159Z</time>
      </trkpt>
      <trkpt lat="40.72980333" lon="-4.077575">
        <ele>1164.0</ele>
        <time>2018-05-26T09:39:04.166Z</time>
      </trkpt>
      <trkpt lat="40.729795" lon="-4.07764833">
        <ele>1165.0</ele>
        <time>2018-05-26T09:39:05.144Z</time>
      </trkpt>
      <trkpt lat="40.72979167" lon="-4.077685">
        <ele>1165.0</ele>
        <time>2018-05-26T09:39:06.151Z</time>
      </trkpt>
      <trkpt lat="40.72979167" lon="-4.077685">
        <ele>1165.0</ele>
        <time>2018-05-26T09:39:07.158Z</time>
      </trkpt>
      <trkpt lat="40.72978" lon="-4.077765">
        <ele>1165.0</ele>
        <time>2018-05-26T09:39:08.157Z</time>
      </trkpt>
      <trkpt lat="40.72978" lon="-4.07780667">
        <ele>1165.0</ele>
        <time>2018-05-26T09:39:09.164Z</time>
      </trkpt>
      <trkpt lat="40.72978" lon="-4.07780667">
        <ele>1165.0</ele>
        <time>2018-05-26T09:39:10.171Z</time>
      </trkpt>
      <trkpt lat="40.72977" lon="-4.077885">
        <ele>1166.0</ele>
        <time>2018-05-26T09:39:11.148Z</time>
      </trkpt>
      <trkpt lat="40.729765" lon="-4.077925">
        <ele>1166.0</ele>
        <time>2018-05-26T09:39:12.147Z</time>
      </trkpt>
      <trkpt lat="40.729765" lon="-4.077925">
        <ele>1166.0</ele>
        <time>2018-05-26T09:39:13.153Z</time>
      </trkpt>
      <trkpt lat="40.72975333" lon="-4.078005">
        <ele>1166.0</ele>
        <time>2018-05-26T09:39:14.162Z</time>
      </trkpt>
      <trkpt lat="40.729745" lon="-4.07804667">
        <ele>1166.0</ele>
        <time>2018-05-26T09:39:15.158Z</time>
      </trkpt>
      <trkpt lat="40.729745" lon="-4.07804667">
        <ele>1166.0</ele>
        <time>2018-05-26T09:39:16.165Z</time>
      </trkpt>
      <trkpt lat="40.729725" lon="-4.07813167">
        <ele>1167.0</ele>
        <time>2018-05-26T09:39:17.174Z</time>
      </trkpt>
      <trkpt lat="40.729725" lon="-4.07813167">
        <ele>1167.0</ele>
        <time>2018-05-26T09:39:18.140Z</time>
      </trkpt>
      <trkpt lat="40.72970167" lon="-4.07820167">
        <ele>1167.0</ele>
        <time>2018-05-26T09:39:19.136Z</time>
      </trkpt>
      <trkpt lat="40.72970167" lon="-4.07820167">
        <ele>1167.0</ele>
        <time>2018-05-26T09:39:20.144Z</time>
      </trkpt>
      <trkpt lat="40.72967833" lon="-4.07826833">
        <ele>1167.0</ele>
        <time>2018-05-26T09:39:21.171Z</time>
      </trkpt>
      <trkpt lat="40.72967833" lon="-4.07826833">
        <ele>1167.0</ele>
        <time>2018-05-26T09:39:22.141Z</time>
      </trkpt>
      <trkpt lat="40.729645" lon="-4.07833833">
        <ele>1167.0</ele>
        <time>2018-05-26T09:39:23.166Z</time>
      </trkpt>
      <trkpt lat="40.729645" lon="-4.07833833">
        <ele>1167.0</ele>
        <time>2018-05-26T09:39:24.173Z</time>
      </trkpt>
      <trkpt lat="40.72960833" lon="-4.07840333">
        <ele>1168.0</ele>
        <time>2018-05-26T09:39:25.140Z</time>
      </trkpt>
      <trkpt lat="40.72960833" lon="-4.07840333">
        <ele>1168.0</ele>
        <time>2018-05-26T09:39:26.145Z</time>
      </trkpt>
      <trkpt lat="40.72957667" lon="-4.07846667">
        <ele>1169.0</ele>
        <time>2018-05-26T09:39:27.143Z</time>
      </trkpt>
      <trkpt lat="40.72957667" lon="-4.07846667">
        <ele>1169.0</ele>
        <time>2018-05-26T09:39:28.150Z</time>
      </trkpt>
      <trkpt lat="40.72953667" lon="-4.078545">
        <ele>1170.0</ele>
        <time>2018-05-26T09:39:29.158Z</time>
      </trkpt>
      <trkpt lat="40.72953667" lon="-4.078545">
        <ele>1170.0</ele>
        <time>2018-05-26T09:39:30.164Z</time>
      </trkpt>
      <trkpt lat="40.72950167" lon="-4.07862333">
        <ele>1171.0</ele>
        <time>2018-05-26T09:39:31.158Z</time>
      </trkpt>
      <trkpt lat="40.72948667" lon="-4.07866">
        <ele>1171.0</ele>
        <time>2018-05-26T09:39:32.164Z</time>
      </trkpt>
      <trkpt lat="40.729475" lon="-4.07869667">
        <ele>1171.0</ele>
        <time>2018-05-26T09:39:33.172Z</time>
      </trkpt>
      <trkpt lat="40.729475" lon="-4.07869667">
        <ele>1171.0</ele>
        <time>2018-05-26T09:39:34.141Z</time>
      </trkpt>
      <trkpt lat="40.72944833" lon="-4.078765">
        <ele>1171.0</ele>
        <time>2018-05-26T09:39:35.139Z</time>
      </trkpt>
      <trkpt lat="40.72944833" lon="-4.078765">
        <ele>1171.0</ele>
        <time>2018-05-26T09:39:36.145Z</time>
      </trkpt>
      <trkpt lat="40.72942833" lon="-4.07882833">
        <ele>1172.0</ele>
        <time>2018-05-26T09:39:37.158Z</time>
      </trkpt>
      <trkpt lat="40.72941667" lon="-4.07885833">
        <ele>1172.0</ele>
        <time>2018-05-26T09:39:38.151Z</time>
      </trkpt>
      <trkpt lat="40.72941667" lon="-4.07885833">
        <ele>1172.0</ele>
        <time>2018-05-26T09:39:39.157Z</time>
      </trkpt>
      <trkpt lat="40.72939667" lon="-4.07891833">
        <ele>1173.0</ele>
        <time>2018-05-26T09:39:40.170Z</time>
      </trkpt>
      <trkpt lat="40.72939667" lon="-4.07891833">
        <ele>1173.0</ele>
        <time>2018-05-26T09:39:41.137Z</time>
      </trkpt>
      <trkpt lat="40.72938667" lon="-4.07898167">
        <ele>1174.0</ele>
        <time>2018-05-26T09:39:42.140Z</time>
      </trkpt>
      <trkpt lat="40.72938667" lon="-4.07898167">
        <ele>1174.0</ele>
        <time>2018-05-26T09:39:43.146Z</time>
      </trkpt>
      <trkpt lat="40.72938167" lon="-4.07905">
        <ele>1175.0</ele>
        <time>2018-05-26T09:39:44.154Z</time>
      </trkpt>
      <trkpt lat="40.72937333" lon="-4.07907833">
        <ele>1175.0</ele>
        <time>2018-05-26T09:39:45.143Z</time>
      </trkpt>
      <trkpt lat="40.72937333" lon="-4.07907833">
        <ele>1175.0</ele>
        <time>2018-05-26T09:39:46.150Z</time>
      </trkpt>
      <trkpt lat="40.72935167" lon="-4.07913833">
        <ele>1175.0</ele>
        <time>2018-05-26T09:39:47.157Z</time>
      </trkpt>
      <trkpt lat="40.72935167" lon="-4.07913833">
        <ele>1175.0</ele>
        <time>2018-05-26T09:39:48.163Z</time>
      </trkpt>
      <trkpt lat="40.72932667" lon="-4.07920667">
        <ele>1176.0</ele>
        <time>2018-05-26T09:39:49.148Z</time>
      </trkpt>
      <trkpt lat="40.72932667" lon="-4.07920667">
        <ele>1176.0</ele>
        <time>2018-05-26T09:39:50.154Z</time>
      </trkpt>
      <trkpt lat="40.72930833" lon="-4.07926333">
        <ele>1176.0</ele>
        <time>2018-05-26T09:39:51.161Z</time>
      </trkpt>
      <trkpt lat="40.72930833" lon="-4.07926333">
        <ele>1176.0</ele>
        <time>2018-05-26T09:39:52.166Z</time>
      </trkpt>
      <trkpt lat="40.72929167" lon="-4.07931667">
        <ele>1177.0</ele>
        <time>2018-05-26T09:39:53.159Z</time>
      </trkpt>
      <trkpt lat="40.72928833" lon="-4.07935333">
        <ele>1177.0</ele>
        <time>2018-05-26T09:39:54.149Z</time>
      </trkpt>
      <trkpt lat="40.72928833" lon="-4.07935333">
        <ele>1177.0</ele>
        <time>2018-05-26T09:39:55.155Z</time>
      </trkpt>
      <trkpt lat="40.72929" lon="-4.07942">
        <ele>1177.0</ele>
        <time>2018-05-26T09:39:56.163Z</time>
      </trkpt>
      <trkpt lat="40.72929667" lon="-4.07945333">
        <ele>1177.0</ele>
        <time>2018-05-26T09:39:57.171Z</time>
      </trkpt>
      <trkpt lat="40.72929667" lon="-4.07945333">
        <ele>1177.0</ele>
        <time>2018-05-26T09:39:58.137Z</time>
      </trkpt>
      <trkpt lat="40.729295" lon="-4.079525">
        <ele>1178.0</ele>
        <time>2018-05-26T09:39:59.157Z</time>
      </trkpt>
      <trkpt lat="40.729295" lon="-4.079525">
        <ele>1178.0</ele>
        <time>2018-05-26T09:40:00.165Z</time>
      </trkpt>
      <trkpt lat="40.729275" lon="-4.07959833">
        <ele>1178.0</ele>
        <time>2018-05-26T09:40:01.140Z</time>
      </trkpt>
      <trkpt lat="40.72926333" lon="-4.079635">
        <ele>1178.0</ele>
        <time>2018-05-26T09:40:02.146Z</time>
      </trkpt>
      <trkpt lat="40.72926333" lon="-4.079635">
        <ele>1178.0</ele>
        <time>2018-05-26T09:40:03.153Z</time>
      </trkpt>
      <trkpt lat="40.72923333" lon="-4.07971333">
        <ele>1178.0</ele>
        <time>2018-05-26T09:40:04.156Z</time>
      </trkpt>
      <trkpt lat="40.72923333" lon="-4.07971333">
        <ele>1178.0</ele>
        <time>2018-05-26T09:40:05.163Z</time>
      </trkpt>
      <trkpt lat="40.72919167" lon="-4.07979">
        <ele>1178.0</ele>
        <time>2018-05-26T09:40:06.170Z</time>
      </trkpt>
      <trkpt lat="40.72917" lon="-4.07983167">
        <ele>1178.0</ele>
        <time>2018-05-26T09:40:07.142Z</time>
      </trkpt>
      <trkpt lat="40.72917" lon="-4.07983167">
        <ele>1178.0</ele>
        <time>2018-05-26T09:40:08.153Z</time>
      </trkpt>
      <trkpt lat="40.72913" lon="-4.07992667">
        <ele>1177.0</ele>
        <time>2018-05-26T09:40:09.148Z</time>
      </trkpt>
      <trkpt lat="40.72913" lon="-4.07992667">
        <ele>1177.0</ele>
        <time>2018-05-26T09:40:10.154Z</time>
      </trkpt>
      <trkpt lat="40.72909" lon="-4.08002167">
        <ele>1177.0</ele>
        <time>2018-05-26T09:40:11.161Z</time>
      </trkpt>
      <trkpt lat="40.72907" lon="-4.08006667">
        <ele>1177.0</ele>
        <time>2018-05-26T09:40:12.141Z</time>
      </trkpt>
      <trkpt lat="40.72907" lon="-4.08006667">
        <ele>1177.0</ele>
        <time>2018-05-26T09:40:13.147Z</time>
      </trkpt>
      <trkpt lat="40.72903333" lon="-4.08015">
        <ele>1177.0</ele>
        <time>2018-05-26T09:40:14.154Z</time>
      </trkpt>
      <trkpt lat="40.72903333" lon="-4.08015">
        <ele>1177.0</ele>
        <time>2018-05-26T09:40:15.161Z</time>
      </trkpt>
      <trkpt lat="40.72899833" lon="-4.08024">
        <ele>1177.0</ele>
        <time>2018-05-26T09:40:16.140Z</time>
      </trkpt>
      <trkpt lat="40.72899833" lon="-4.08024">
        <ele>1177.0</ele>
        <time>2018-05-26T09:40:17.146Z</time>
      </trkpt>
      <trkpt lat="40.72895833" lon="-4.080335">
        <ele>1178.0</ele>
        <time>2018-05-26T09:40:18.166Z</time>
      </trkpt>
      <trkpt lat="40.72895833" lon="-4.080335">
        <ele>1178.0</ele>
        <time>2018-05-26T09:40:19.137Z</time>
      </trkpt>
      <trkpt lat="40.72892333" lon="-4.080435">
        <ele>1178.0</ele>
        <time>2018-05-26T09:40:20.147Z</time>
      </trkpt>
      <trkpt lat="40.72891167" lon="-4.080485">
        <ele>1178.0</ele>
        <time>2018-05-26T09:40:21.154Z</time>
      </trkpt>
      <trkpt lat="40.72891167" lon="-4.080485">
        <ele>1178.0</ele>
        <time>2018-05-26T09:40:22.161Z</time>
      </trkpt>
      <trkpt lat="40.72890333" lon="-4.08059333">
        <ele>1178.0</ele>
        <time>2018-05-26T09:40:23.137Z</time>
      </trkpt>
      <trkpt lat="40.728905" lon="-4.080645">
        <ele>1178.0</ele>
        <time>2018-05-26T09:40:24.145Z</time>
      </trkpt>
      <trkpt lat="40.728905" lon="-4.080645">
        <ele>1178.0</ele>
        <time>2018-05-26T09:40:25.152Z</time>
      </trkpt>
      <trkpt lat="40.72891833" lon="-4.08075167">
        <ele>1178.0</ele>
        <time>2018-05-26T09:40:26.159Z</time>
      </trkpt>
      <trkpt lat="40.72892833" lon="-4.08080333">
        <ele>1178.0</ele>
        <time>2018-05-26T09:40:27.166Z</time>
      </trkpt>
      <trkpt lat="40.72892833" lon="-4.08080333">
        <ele>1178.0</ele>
        <time>2018-05-26T09:40:28.173Z</time>
      </trkpt>
      <trkpt lat="40.72893667" lon="-4.0809">
        <ele>1178.0</ele>
        <time>2018-05-26T09:40:29.151Z</time>
      </trkpt>
      <trkpt lat="40.728945" lon="-4.08094667">
        <ele>1178.0</ele>
        <time>2018-05-26T09:40:30.168Z</time>
      </trkpt>
      <trkpt lat="40.728945" lon="-4.08094667">
        <ele>1178.0</ele>
        <time>2018-05-26T09:40:31.136Z</time>
      </trkpt>
      <trkpt lat="40.728965" lon="-4.08103167">
        <ele>1178.0</ele>
        <time>2018-05-26T09:40:32.146Z</time>
      </trkpt>
      <trkpt lat="40.72897167" lon="-4.081065">
        <ele>1178.0</ele>
        <time>2018-05-26T09:40:33.154Z</time>
      </trkpt>
      <trkpt lat="40.72897167" lon="-4.081065">
        <ele>1178.0</ele>
        <time>2018-05-26T09:40:34.161Z</time>
      </trkpt>
      <trkpt lat="40.72898167" lon="-4.08112167">
        <ele>1178.0</ele>
        <time>2018-05-26T09:40:35.147Z</time>
      </trkpt>
      <trkpt lat="40.72898333" lon="-4.08114667">
        <ele>1178.0</ele>
        <time>2018-05-26T09:40:36.154Z</time>
      </trkpt>
      <trkpt lat="40.72898333" lon="-4.08114667">
        <ele>1178.0</ele>
        <time>2018-05-26T09:40:37.160Z</time>
      </trkpt>
      <trkpt lat="40.72898333" lon="-4.08119833">
        <ele>1178.0</ele>
        <time>2018-05-26T09:40:38.136Z</time>
      </trkpt>
      <trkpt lat="40.72898333" lon="-4.08119833">
        <ele>1178.0</ele>
        <time>2018-05-26T09:40:39.143Z</time>
      </trkpt>
      <trkpt lat="40.72897833" lon="-4.08125">
        <ele>1178.0</ele>
        <time>2018-05-26T09:40:40.156Z</time>
      </trkpt>
      <trkpt lat="40.72897833" lon="-4.08125">
        <ele>1178.0</ele>
        <time>2018-05-26T09:40:41.163Z</time>
      </trkpt>
      <trkpt lat="40.728985" lon="-4.0813">
        <ele>1178.0</ele>
        <time>2018-05-26T09:40:42.138Z</time>
      </trkpt>
      <trkpt lat="40.728985" lon="-4.0813">
        <ele>1178.0</ele>
        <time>2018-05-26T09:40:43.144Z</time>
      </trkpt>
      <trkpt lat="40.72898333" lon="-4.08135667">
        <ele>1178.0</ele>
        <time>2018-05-26T09:40:44.152Z</time>
      </trkpt>
      <trkpt lat="40.72898" lon="-4.08137833">
        <ele>1178.0</ele>
        <time>2018-05-26T09:40:45.159Z</time>
      </trkpt>
      <trkpt lat="40.72898" lon="-4.08137833">
        <ele>1178.0</ele>
        <time>2018-05-26T09:40:46.165Z</time>
      </trkpt>
      <trkpt lat="40.72896667" lon="-4.08142833">
        <ele>1179.0</ele>
        <time>2018-05-26T09:40:47.172Z</time>
      </trkpt>
      <trkpt lat="40.72896667" lon="-4.08142833">
        <ele>1179.0</ele>
        <time>2018-05-26T09:40:48.140Z</time>
      </trkpt>
      <trkpt lat="40.72894667" lon="-4.08148333">
        <ele>1180.0</ele>
        <time>2018-05-26T09:40:49.136Z</time>
      </trkpt>
      <trkpt lat="40.72894667" lon="-4.08148333">
        <ele>1180.0</ele>
        <time>2018-05-26T09:40:50.142Z</time>
      </trkpt>
      <trkpt lat="40.72893167" lon="-4.081535">
        <ele>1181.0</ele>
        <time>2018-05-26T09:40:51.149Z</time>
      </trkpt>
      <trkpt lat="40.72893167" lon="-4.081535">
        <ele>1181.0</ele>
        <time>2018-05-26T09:40:52.155Z</time>
      </trkpt>
      <trkpt lat="40.72893833" lon="-4.081585">
        <ele>1182.0</ele>
        <time>2018-05-26T09:40:53.149Z</time>
      </trkpt>
      <trkpt lat="40.72894167" lon="-4.08160833">
        <ele>1182.0</ele>
        <time>2018-05-26T09:40:54.157Z</time>
      </trkpt>
      <trkpt lat="40.72894167" lon="-4.08160833">
        <ele>1182.0</ele>
        <time>2018-05-26T09:40:55.163Z</time>
      </trkpt>
      <trkpt lat="40.728935" lon="-4.081665">
        <ele>1183.0</ele>
        <time>2018-05-26T09:40:56.146Z</time>
      </trkpt>
      <trkpt lat="40.728935" lon="-4.081665">
        <ele>1183.0</ele>
        <time>2018-05-26T09:40:57.154Z</time>
      </trkpt>
      <trkpt lat="40.72894" lon="-4.08171167">
        <ele>1183.0</ele>
        <time>2018-05-26T09:40:58.168Z</time>
      </trkpt>
      <trkpt lat="40.72894" lon="-4.08171167">
        <ele>1183.0</ele>
        <time>2018-05-26T09:40:59.138Z</time>
      </trkpt>
      <trkpt lat="40.72894333" lon="-4.08175833">
        <ele>1183.0</ele>
        <time>2018-05-26T09:41:00.169Z</time>
      </trkpt>
      <trkpt lat="40.72894333" lon="-4.08175833">
        <ele>1183.0</ele>
        <time>2018-05-26T09:41:01.142Z</time>
      </trkpt>
      <trkpt lat="40.72894833" lon="-4.08181167">
        <ele>1184.0</ele>
        <time>2018-05-26T09:41:02.153Z</time>
      </trkpt>
      <trkpt lat="40.72894833" lon="-4.08181167">
        <ele>1184.0</ele>
        <time>2018-05-26T09:41:03.160Z</time>
      </trkpt>
      <trkpt lat="40.72895" lon="-4.08186667">
        <ele>1184.0</ele>
        <time>2018-05-26T09:41:04.168Z</time>
      </trkpt>
      <trkpt lat="40.72895" lon="-4.08186667">
        <ele>1184.0</ele>
        <time>2018-05-26T09:41:05.139Z</time>
      </trkpt>
      <trkpt lat="40.72896167" lon="-4.08192">
        <ele>1185.0</ele>
        <time>2018-05-26T09:41:06.138Z</time>
      </trkpt>
      <trkpt lat="40.72896833" lon="-4.08194333">
        <ele>1184.0</ele>
        <time>2018-05-26T09:41:07.156Z</time>
      </trkpt>
      <trkpt lat="40.72896833" lon="-4.08194333">
        <ele>1184.0</ele>
        <time>2018-05-26T09:41:08.163Z</time>
      </trkpt>
      <trkpt lat="40.72897833" lon="-4.08199167">
        <ele>1185.0</ele>
        <time>2018-05-26T09:41:09.155Z</time>
      </trkpt>
      <trkpt lat="40.72897833" lon="-4.08199167">
        <ele>1185.0</ele>
        <time>2018-05-26T09:41:10.162Z</time>
      </trkpt>
      <trkpt lat="40.72898833" lon="-4.08204">
        <ele>1185.0</ele>
        <time>2018-05-26T09:41:11.169Z</time>
      </trkpt>
      <trkpt lat="40.72899167" lon="-4.082065">
        <ele>1185.0</ele>
        <time>2018-05-26T09:41:12.144Z</time>
      </trkpt>
      <trkpt lat="40.72899167" lon="-4.082065">
        <ele>1185.0</ele>
        <time>2018-05-26T09:41:13.151Z</time>
      </trkpt>
      <trkpt lat="40.72899833" lon="-4.08210833">
        <ele>1186.0</ele>
        <time>2018-05-26T09:41:14.160Z</time>
      </trkpt>
      <trkpt lat="40.72900167" lon="-4.08213167">
        <ele>1186.0</ele>
        <time>2018-05-26T09:41:15.166Z</time>
      </trkpt>
      <trkpt lat="40.72900167" lon="-4.08213167">
        <ele>1186.0</ele>
        <time>2018-05-26T09:41:16.145Z</time>
      </trkpt>
      <trkpt lat="40.72899833" lon="-4.08218333">
        <ele>1187.0</ele>
        <time>2018-05-26T09:41:17.151Z</time>
      </trkpt>
      <trkpt lat="40.728995" lon="-4.08220667">
        <ele>1188.0</ele>
        <time>2018-05-26T09:41:18.158Z</time>
      </trkpt>
      <trkpt lat="40.728995" lon="-4.08220667">
        <ele>1188.0</ele>
        <time>2018-05-26T09:41:19.164Z</time>
      </trkpt>
      <trkpt lat="40.72899167" lon="-4.08225833">
        <ele>1189.0</ele>
        <time>2018-05-26T09:41:20.147Z</time>
      </trkpt>
      <trkpt lat="40.72899333" lon="-4.08228667">
        <ele>1189.0</ele>
        <time>2018-05-26T09:41:21.156Z</time>
      </trkpt>
      <trkpt lat="40.72899667" lon="-4.082315">
        <ele>1190.0</ele>
        <time>2018-05-26T09:41:22.163Z</time>
      </trkpt>
      <trkpt lat="40.72899667" lon="-4.082315">
        <ele>1190.0</ele>
        <time>2018-05-26T09:41:23.168Z</time>
      </trkpt>
      <trkpt lat="40.72900333" lon="-4.08236833">
        <ele>1191.0</ele>
        <time>2018-05-26T09:41:24.140Z</time>
      </trkpt>
      <trkpt lat="40.72900833" lon="-4.08239167">
        <ele>1191.0</ele>
        <time>2018-05-26T09:41:25.146Z</time>
      </trkpt>
      <trkpt lat="40.72900833" lon="-4.08239167">
        <ele>1191.0</ele>
        <time>2018-05-26T09:41:26.152Z</time>
      </trkpt>
      <trkpt lat="40.729005" lon="-4.08244167">
        <ele>1192.0</ele>
        <time>2018-05-26T09:41:27.142Z</time>
      </trkpt>
      <trkpt lat="40.729005" lon="-4.08244167">
        <ele>1192.0</ele>
        <time>2018-05-26T09:41:28.148Z</time>
      </trkpt>
      <trkpt lat="40.72901667" lon="-4.08249">
        <ele>1192.0</ele>
        <time>2018-05-26T09:41:29.156Z</time>
      </trkpt>
      <trkpt lat="40.72902167" lon="-4.08251167">
        <ele>1192.0</ele>
        <time>2018-05-26T09:41:30.152Z</time>
      </trkpt>
      <trkpt lat="40.72902167" lon="-4.08251167">
        <ele>1192.0</ele>
        <time>2018-05-26T09:41:31.169Z</time>
      </trkpt>
      <trkpt lat="40.72902833" lon="-4.08256167">
        <ele>1193.0</ele>
        <time>2018-05-26T09:41:32.140Z</time>
      </trkpt>
      <trkpt lat="40.72903167" lon="-4.08258667">
        <ele>1193.0</ele>
        <time>2018-05-26T09:41:33.150Z</time>
      </trkpt>
      <trkpt lat="40.72903167" lon="-4.08258667">
        <ele>1193.0</ele>
        <time>2018-05-26T09:41:34.156Z</time>
      </trkpt>
      <trkpt lat="40.72904167" lon="-4.08263667">
        <ele>1193.0</ele>
        <time>2018-05-26T09:41:35.162Z</time>
      </trkpt>
      <trkpt lat="40.72904167" lon="-4.08263667">
        <ele>1193.0</ele>
        <time>2018-05-26T09:41:36.137Z</time>
      </trkpt>
      <trkpt lat="40.72905667" lon="-4.08268167">
        <ele>1193.0</ele>
        <time>2018-05-26T09:41:37.154Z</time>
      </trkpt>
      <trkpt lat="40.72906333" lon="-4.08270667">
        <ele>1193.0</ele>
        <time>2018-05-26T09:41:38.170Z</time>
      </trkpt>
      <trkpt lat="40.72906333" lon="-4.08270667">
        <ele>1193.0</ele>
        <time>2018-05-26T09:41:39.140Z</time>
      </trkpt>
      <trkpt lat="40.72907333" lon="-4.08275667">
        <ele>1193.0</ele>
        <time>2018-05-26T09:41:40.175Z</time>
      </trkpt>
      <trkpt lat="40.72907333" lon="-4.08275667">
        <ele>1193.0</ele>
        <time>2018-05-26T09:41:41.141Z</time>
      </trkpt>
      <trkpt lat="40.72908" lon="-4.082805">
        <ele>1194.0</ele>
        <time>2018-05-26T09:41:42.149Z</time>
      </trkpt>
      <trkpt lat="40.72908" lon="-4.082805">
        <ele>1194.0</ele>
        <time>2018-05-26T09:41:43.155Z</time>
      </trkpt>
      <trkpt lat="40.72908667" lon="-4.08285667">
        <ele>1194.0</ele>
        <time>2018-05-26T09:41:44.158Z</time>
      </trkpt>
      <trkpt lat="40.72908667" lon="-4.08285667">
        <ele>1194.0</ele>
        <time>2018-05-26T09:41:45.164Z</time>
      </trkpt>
      <trkpt lat="40.729095" lon="-4.08290833">
        <ele>1195.0</ele>
        <time>2018-05-26T09:41:46.171Z</time>
      </trkpt>
      <trkpt lat="40.729095" lon="-4.08290833">
        <ele>1195.0</ele>
        <time>2018-05-26T09:41:47.141Z</time>
      </trkpt>
      <trkpt lat="40.729105" lon="-4.08295833">
        <ele>1196.0</ele>
        <time>2018-05-26T09:41:48.158Z</time>
      </trkpt>
      <trkpt lat="40.729105" lon="-4.08295833">
        <ele>1196.0</ele>
        <time>2018-05-26T09:41:49.165Z</time>
      </trkpt>
      <trkpt lat="40.72910833" lon="-4.083005">
        <ele>1196.0</ele>
        <time>2018-05-26T09:41:50.172Z</time>
      </trkpt>
      <trkpt lat="40.72910833" lon="-4.08302833">
        <ele>1196.0</ele>
        <time>2018-05-26T09:41:51.152Z</time>
      </trkpt>
      <trkpt lat="40.72910833" lon="-4.08302833">
        <ele>1196.0</ele>
        <time>2018-05-26T09:41:52.158Z</time>
      </trkpt>
      <trkpt lat="40.72911333" lon="-4.08308">
        <ele>1197.0</ele>
        <time>2018-05-26T09:41:53.165Z</time>
      </trkpt>
      <trkpt lat="40.72911333" lon="-4.08308">
        <ele>1197.0</ele>
        <time>2018-05-26T09:41:54.173Z</time>
      </trkpt>
      <trkpt lat="40.729115" lon="-4.08313167">
        <ele>1197.0</ele>
        <time>2018-05-26T09:41:55.160Z</time>
      </trkpt>
      <trkpt lat="40.729115" lon="-4.08313167">
        <ele>1197.0</ele>
        <time>2018-05-26T09:41:56.165Z</time>
      </trkpt>
      <trkpt lat="40.72911" lon="-4.08320167">
        <ele>1198.0</ele>
        <time>2018-05-26T09:41:57.172Z</time>
      </trkpt>
      <trkpt lat="40.72911" lon="-4.08320167">
        <ele>1198.0</ele>
        <time>2018-05-26T09:41:58.163Z</time>
      </trkpt>
      <trkpt lat="40.729105" lon="-4.08327">
        <ele>1198.0</ele>
        <time>2018-05-26T09:41:59.138Z</time>
      </trkpt>
      <trkpt lat="40.729105" lon="-4.08327">
        <ele>1198.0</ele>
        <time>2018-05-26T09:42:00.137Z</time>
      </trkpt>
      <trkpt lat="40.72910667" lon="-4.08332833">
        <ele>1199.0</ele>
        <time>2018-05-26T09:42:01.146Z</time>
      </trkpt>
      <trkpt lat="40.72910667" lon="-4.08332833">
        <ele>1199.0</ele>
        <time>2018-05-26T09:42:02.137Z</time>
      </trkpt>
      <trkpt lat="40.72911" lon="-4.08338167">
        <ele>1200.0</ele>
        <time>2018-05-26T09:42:03.144Z</time>
      </trkpt>
      <trkpt lat="40.72911" lon="-4.08338167">
        <ele>1200.0</ele>
        <time>2018-05-26T09:42:04.151Z</time>
      </trkpt>
      <trkpt lat="40.72910333" lon="-4.08344">
        <ele>1201.0</ele>
        <time>2018-05-26T09:42:05.158Z</time>
      </trkpt>
      <trkpt lat="40.72910333" lon="-4.08344">
        <ele>1201.0</ele>
        <time>2018-05-26T09:42:06.164Z</time>
      </trkpt>
      <trkpt lat="40.72910333" lon="-4.08351667">
        <ele>1201.0</ele>
        <time>2018-05-26T09:42:07.157Z</time>
      </trkpt>
      <trkpt lat="40.72910667" lon="-4.08356167">
        <ele>1201.0</ele>
        <time>2018-05-26T09:42:08.164Z</time>
      </trkpt>
      <trkpt lat="40.72911167" lon="-4.08360667">
        <ele>1200.0</ele>
        <time>2018-05-26T09:42:09.170Z</time>
      </trkpt>
      <trkpt lat="40.72911167" lon="-4.08360667">
        <ele>1200.0</ele>
        <time>2018-05-26T09:42:10.136Z</time>
      </trkpt>
      <trkpt lat="40.72911833" lon="-4.08369333">
        <ele>1200.0</ele>
        <time>2018-05-26T09:42:11.146Z</time>
      </trkpt>
      <trkpt lat="40.72912833" lon="-4.08373">
        <ele>1200.0</ele>
        <time>2018-05-26T09:42:12.153Z</time>
      </trkpt>
      <trkpt lat="40.72912833" lon="-4.08373">
        <ele>1200.0</ele>
        <time>2018-05-26T09:42:13.160Z</time>
      </trkpt>
      <trkpt lat="40.72915667" lon="-4.08381">
        <ele>1200.0</ele>
        <time>2018-05-26T09:42:14.143Z</time>
      </trkpt>
      <trkpt lat="40.72917167" lon="-4.08385667">
        <ele>1200.0</ele>
        <time>2018-05-26T09:42:15.150Z</time>
      </trkpt>
      <trkpt lat="40.72917167" lon="-4.08385667">
        <ele>1200.0</ele>
        <time>2018-05-26T09:42:16.156Z</time>
      </trkpt>
      <trkpt lat="40.72919833" lon="-4.08394167">
        <ele>1200.0</ele>
        <time>2018-05-26T09:42:17.148Z</time>
      </trkpt>
      <trkpt lat="40.72921167" lon="-4.08398">
        <ele>1200.0</ele>
        <time>2018-05-26T09:42:18.152Z</time>
      </trkpt>
      <trkpt lat="40.72921167" lon="-4.08398">
        <ele>1200.0</ele>
        <time>2018-05-26T09:42:19.159Z</time>
      </trkpt>
      <trkpt lat="40.72926333" lon="-4.08403333">
        <ele>1200.0</ele>
        <time>2018-05-26T09:42:20.165Z</time>
      </trkpt>
      <trkpt lat="40.72928833" lon="-4.084055">
        <ele>1200.0</ele>
        <time>2018-05-26T09:42:21.157Z</time>
      </trkpt>
      <trkpt lat="40.72928833" lon="-4.084055">
        <ele>1200.0</ele>
        <time>2018-05-26T09:42:22.145Z</time>
      </trkpt>
      <trkpt lat="40.72932667" lon="-4.08409667">
        <ele>1200.0</ele>
        <time>2018-05-26T09:42:23.168Z</time>
      </trkpt>
      <trkpt lat="40.72932667" lon="-4.08409667">
        <ele>1200.0</ele>
        <time>2018-05-26T09:42:24.174Z</time>
      </trkpt>
      <trkpt lat="40.72933833" lon="-4.08416333">
        <ele>1200.0</ele>
        <time>2018-05-26T09:42:25.143Z</time>
      </trkpt>
      <trkpt lat="40.72934333" lon="-4.08421">
        <ele>1200.0</ele>
        <time>2018-05-26T09:42:26.169Z</time>
      </trkpt>
      <trkpt lat="40.72935667" lon="-4.08425">
        <ele>1199.0</ele>
        <time>2018-05-26T09:42:27.136Z</time>
      </trkpt>
      <trkpt lat="40.72935667" lon="-4.08425">
        <ele>1199.0</ele>
        <time>2018-05-26T09:42:28.143Z</time>
      </trkpt>
      <trkpt lat="40.72938667" lon="-4.08430833">
        <ele>1199.0</ele>
        <time>2018-05-26T09:42:29.165Z</time>
      </trkpt>
      <trkpt lat="40.729395" lon="-4.08434333">
        <ele>1199.0</ele>
        <time>2018-05-26T09:42:30.172Z</time>
      </trkpt>
      <trkpt lat="40.72939833" lon="-4.08438">
        <ele>1200.0</ele>
        <time>2018-05-26T09:42:31.144Z</time>
      </trkpt>
      <trkpt lat="40.72939833" lon="-4.08438">
        <ele>1200.0</ele>
        <time>2018-05-26T09:42:32.151Z</time>
      </trkpt>
      <trkpt lat="40.72939833" lon="-4.08445">
        <ele>1200.0</ele>
        <time>2018-05-26T09:42:33.158Z</time>
      </trkpt>
      <trkpt lat="40.72939833" lon="-4.08445">
        <ele>1200.0</ele>
        <time>2018-05-26T09:42:34.164Z</time>
      </trkpt>
      <trkpt lat="40.72941667" lon="-4.08453">
        <ele>1200.0</ele>
        <time>2018-05-26T09:42:35.142Z</time>
      </trkpt>
      <trkpt lat="40.72941667" lon="-4.08453">
        <ele>1200.0</ele>
        <time>2018-05-26T09:42:36.148Z</time>
      </trkpt>
      <trkpt lat="40.72943167" lon="-4.084605">
        <ele>1200.0</ele>
        <time>2018-05-26T09:42:37.159Z</time>
      </trkpt>
      <trkpt lat="40.72943167" lon="-4.084605">
        <ele>1200.0</ele>
        <time>2018-05-26T09:42:38.166Z</time>
      </trkpt>
      <trkpt lat="40.72946167" lon="-4.08467667">
        <ele>1199.0</ele>
        <time>2018-05-26T09:42:39.173Z</time>
      </trkpt>
      <trkpt lat="40.72946167" lon="-4.08467667">
        <ele>1199.0</ele>
        <time>2018-05-26T09:42:40.140Z</time>
      </trkpt>
      <trkpt lat="40.729475" lon="-4.08476333">
        <ele>1199.0</ele>
        <time>2018-05-26T09:42:41.139Z</time>
      </trkpt>
      <trkpt lat="40.729475" lon="-4.08476333">
        <ele>1199.0</ele>
        <time>2018-05-26T09:42:42.145Z</time>
      </trkpt>
      <trkpt lat="40.72947833" lon="-4.08485333">
        <ele>1199.0</ele>
        <time>2018-05-26T09:42:43.138Z</time>
      </trkpt>
      <trkpt lat="40.72947833" lon="-4.08485333">
        <ele>1199.0</ele>
        <time>2018-05-26T09:42:44.168Z</time>
      </trkpt>
      <trkpt lat="40.72948" lon="-4.084945">
        <ele>1199.0</ele>
        <time>2018-05-26T09:42:45.160Z</time>
      </trkpt>
      <trkpt lat="40.72948" lon="-4.084945">
        <ele>1199.0</ele>
        <time>2018-05-26T09:42:46.167Z</time>
      </trkpt>
      <trkpt lat="40.72949667" lon="-4.08503167">
        <ele>1199.0</ele>
        <time>2018-05-26T09:42:47.174Z</time>
      </trkpt>
      <trkpt lat="40.72949667" lon="-4.08503167">
        <ele>1199.0</ele>
        <time>2018-05-26T09:42:48.139Z</time>
      </trkpt>
      <trkpt lat="40.729515" lon="-4.0851">
        <ele>1199.0</ele>
        <time>2018-05-26T09:42:49.148Z</time>
      </trkpt>
      <trkpt lat="40.72952167" lon="-4.08514">
        <ele>1199.0</ele>
        <time>2018-05-26T09:42:50.159Z</time>
      </trkpt>
      <trkpt lat="40.72953" lon="-4.08517833">
        <ele>1199.0</ele>
        <time>2018-05-26T09:42:51.166Z</time>
      </trkpt>
      <trkpt lat="40.72953" lon="-4.08517833">
        <ele>1199.0</ele>
        <time>2018-05-26T09:42:52.173Z</time>
      </trkpt>
      <trkpt lat="40.72953833" lon="-4.08526">
        <ele>1199.0</ele>
        <time>2018-05-26T09:42:53.167Z</time>
      </trkpt>
      <trkpt lat="40.729545" lon="-4.08530167">
        <ele>1199.0</ele>
        <time>2018-05-26T09:42:54.174Z</time>
      </trkpt>
      <trkpt lat="40.729545" lon="-4.08530167">
        <ele>1199.0</ele>
        <time>2018-05-26T09:42:55.141Z</time>
      </trkpt>
      <trkpt lat="40.72956667" lon="-4.08538667">
        <ele>1199.0</ele>
        <time>2018-05-26T09:42:56.157Z</time>
      </trkpt>
      <trkpt lat="40.72957333" lon="-4.08542667">
        <ele>1199.0</ele>
        <time>2018-05-26T09:42:57.160Z</time>
      </trkpt>
      <trkpt lat="40.72957333" lon="-4.08542667">
        <ele>1199.0</ele>
        <time>2018-05-26T09:42:58.166Z</time>
      </trkpt>
      <trkpt lat="40.72958333" lon="-4.08551833">
        <ele>1199.0</ele>
        <time>2018-05-26T09:42:59.173Z</time>
      </trkpt>
      <trkpt lat="40.72958333" lon="-4.08551833">
        <ele>1199.0</ele>
        <time>2018-05-26T09:43:00.136Z</time>
      </trkpt>
      <trkpt lat="40.72960333" lon="-4.08561">
        <ele>1199.0</ele>
        <time>2018-05-26T09:43:01.151Z</time>
      </trkpt>
      <trkpt lat="40.72961333" lon="-4.085655">
        <ele>1199.0</ele>
        <time>2018-05-26T09:43:02.158Z</time>
      </trkpt>
      <trkpt lat="40.72961333" lon="-4.085655">
        <ele>1199.0</ele>
        <time>2018-05-26T09:43:03.164Z</time>
      </trkpt>
      <trkpt lat="40.72963167" lon="-4.08574167">
        <ele>1199.0</ele>
        <time>2018-05-26T09:43:04.171Z</time>
      </trkpt>
      <trkpt lat="40.72963667" lon="-4.08579">
        <ele>1199.0</ele>
        <time>2018-05-26T09:43:05.168Z</time>
      </trkpt>
      <trkpt lat="40.72963667" lon="-4.08579">
        <ele>1199.0</ele>
        <time>2018-05-26T09:43:06.175Z</time>
      </trkpt>
      <trkpt lat="40.72965333" lon="-4.085895">
        <ele>1199.0</ele>
        <time>2018-05-26T09:43:07.157Z</time>
      </trkpt>
      <trkpt lat="40.72966167" lon="-4.08594833">
        <ele>1199.0</ele>
        <time>2018-05-26T09:43:08.139Z</time>
      </trkpt>
      <trkpt lat="40.72967167" lon="-4.08600167">
        <ele>1199.0</ele>
        <time>2018-05-26T09:43:09.147Z</time>
      </trkpt>
      <trkpt lat="40.72967167" lon="-4.08600167">
        <ele>1199.0</ele>
        <time>2018-05-26T09:43:10.153Z</time>
      </trkpt>
      <trkpt lat="40.72969" lon="-4.08610333">
        <ele>1199.0</ele>
        <time>2018-05-26T09:43:11.159Z</time>
      </trkpt>
      <trkpt lat="40.7297" lon="-4.086155">
        <ele>1199.0</ele>
        <time>2018-05-26T09:43:12.174Z</time>
      </trkpt>
      <trkpt lat="40.7297" lon="-4.086155">
        <ele>1199.0</ele>
        <time>2018-05-26T09:43:13.141Z</time>
      </trkpt>
      <trkpt lat="40.729725" lon="-4.08625">
        <ele>1199.0</ele>
        <time>2018-05-26T09:43:14.165Z</time>
      </trkpt>
      <trkpt lat="40.72974" lon="-4.086295">
        <ele>1199.0</ele>
        <time>2018-05-26T09:43:15.171Z</time>
      </trkpt>
      <trkpt lat="40.72974" lon="-4.086295">
        <ele>1199.0</ele>
        <time>2018-05-26T09:43:16.137Z</time>
      </trkpt>
      <trkpt lat="40.72977" lon="-4.08638333">
        <ele>1199.0</ele>
        <time>2018-05-26T09:43:17.157Z</time>
      </trkpt>
      <trkpt lat="40.72977" lon="-4.08638333">
        <ele>1199.0</ele>
        <time>2018-05-26T09:43:18.146Z</time>
      </trkpt>
      <trkpt lat="40.729805" lon="-4.08647167">
        <ele>1199.0</ele>
        <time>2018-05-26T09:43:19.149Z</time>
      </trkpt>
      <trkpt lat="40.729805" lon="-4.08647167">
        <ele>1199.0</ele>
        <time>2018-05-26T09:43:20.155Z</time>
      </trkpt>
      <trkpt lat="40.72983667" lon="-4.08656167">
        <ele>1199.0</ele>
        <time>2018-05-26T09:43:21.163Z</time>
      </trkpt>
      <trkpt lat="40.72983667" lon="-4.08656167">
        <ele>1199.0</ele>
        <time>2018-05-26T09:43:22.172Z</time>
      </trkpt>
      <trkpt lat="40.72986833" lon="-4.086655">
        <ele>1200.0</ele>
        <time>2018-05-26T09:43:23.140Z</time>
      </trkpt>
      <trkpt lat="40.72988333" lon="-4.08669833">
        <ele>1200.0</ele>
        <time>2018-05-26T09:43:24.148Z</time>
      </trkpt>
      <trkpt lat="40.72988333" lon="-4.08669833">
        <ele>1200.0</ele>
        <time>2018-05-26T09:43:25.155Z</time>
      </trkpt>
      <trkpt lat="40.72991833" lon="-4.08679167">
        <ele>1199.0</ele>
        <time>2018-05-26T09:43:26.141Z</time>
      </trkpt>
      <trkpt lat="40.72993333" lon="-4.08683833">
        <ele>1200.0</ele>
        <time>2018-05-26T09:43:27.158Z</time>
      </trkpt>
      <trkpt lat="40.72993333" lon="-4.08683833">
        <ele>1200.0</ele>
        <time>2018-05-26T09:43:28.165Z</time>
      </trkpt>
      <trkpt lat="40.72996" lon="-4.08692667">
        <ele>1200.0</ele>
        <time>2018-05-26T09:43:29.172Z</time>
      </trkpt>
      <trkpt lat="40.72996" lon="-4.08692667">
        <ele>1200.0</ele>
        <time>2018-05-26T09:43:30.140Z</time>
      </trkpt>
      <trkpt lat="40.72998833" lon="-4.08701833">
        <ele>1200.0</ele>
        <time>2018-05-26T09:43:31.159Z</time>
      </trkpt>
      <trkpt lat="40.72998833" lon="-4.08701833">
        <ele>1200.0</ele>
        <time>2018-05-26T09:43:32.165Z</time>
      </trkpt>
      <trkpt lat="40.730015" lon="-4.08711333">
        <ele>1200.0</ele>
        <time>2018-05-26T09:43:33.137Z</time>
      </trkpt>
      <trkpt lat="40.73003" lon="-4.08716">
        <ele>1200.0</ele>
        <time>2018-05-26T09:43:34.145Z</time>
      </trkpt>
      <trkpt lat="40.73003" lon="-4.08716">
        <ele>1200.0</ele>
        <time>2018-05-26T09:43:35.152Z</time>
      </trkpt>
      <trkpt lat="40.73006167" lon="-4.08724667">
        <ele>1200.0</ele>
        <time>2018-05-26T09:43:36.159Z</time>
      </trkpt>
      <trkpt lat="40.73006167" lon="-4.08724667">
        <ele>1200.0</ele>
        <time>2018-05-26T09:43:37.165Z</time>
      </trkpt>
      <trkpt lat="40.73009" lon="-4.08733333">
        <ele>1200.0</ele>
        <time>2018-05-26T09:43:38.170Z</time>
      </trkpt>
      <trkpt lat="40.73009" lon="-4.08733333">
        <ele>1200.0</ele>
        <time>2018-05-26T09:43:39.136Z</time>
      </trkpt>
      <trkpt lat="40.730105" lon="-4.08742333">
        <ele>1201.0</ele>
        <time>2018-05-26T09:43:40.143Z</time>
      </trkpt>
      <trkpt lat="40.730105" lon="-4.08742333">
        <ele>1201.0</ele>
        <time>2018-05-26T09:43:41.148Z</time>
      </trkpt>
      <trkpt lat="40.730115" lon="-4.08751333">
        <ele>1202.0</ele>
        <time>2018-05-26T09:43:42.149Z</time>
      </trkpt>
      <trkpt lat="40.73012167" lon="-4.08756167">
        <ele>1202.0</ele>
        <time>2018-05-26T09:43:43.155Z</time>
      </trkpt>
      <trkpt lat="40.73013167" lon="-4.08761">
        <ele>1202.0</ele>
        <time>2018-05-26T09:43:44.164Z</time>
      </trkpt>
      <trkpt lat="40.73013167" lon="-4.08761">
        <ele>1202.0</ele>
        <time>2018-05-26T09:43:45.170Z</time>
      </trkpt>
      <trkpt lat="40.73015167" lon="-4.08770667">
        <ele>1202.0</ele>
        <time>2018-05-26T09:43:46.143Z</time>
      </trkpt>
      <trkpt lat="40.73015167" lon="-4.08770667">
        <ele>1202.0</ele>
        <time>2018-05-26T09:43:47.150Z</time>
      </trkpt>
      <trkpt lat="40.730165" lon="-4.08780167">
        <ele>1203.0</ele>
        <time>2018-05-26T09:43:48.172Z</time>
      </trkpt>
      <trkpt lat="40.730165" lon="-4.08780167">
        <ele>1203.0</ele>
        <time>2018-05-26T09:43:49.139Z</time>
      </trkpt>
      <trkpt lat="40.73017833" lon="-4.087895">
        <ele>1203.0</ele>
        <time>2018-05-26T09:43:50.147Z</time>
      </trkpt>
      <trkpt lat="40.73019" lon="-4.08794167">
        <ele>1203.0</ele>
        <time>2018-05-26T09:43:51.168Z</time>
      </trkpt>
      <trkpt lat="40.73019" lon="-4.08794167">
        <ele>1203.0</ele>
        <time>2018-05-26T09:43:52.159Z</time>
      </trkpt>
      <trkpt lat="40.730215" lon="-4.08803333">
        <ele>1203.0</ele>
        <time>2018-05-26T09:43:53.156Z</time>
      </trkpt>
      <trkpt lat="40.730225" lon="-4.08808">
        <ele>1204.0</ele>
        <time>2018-05-26T09:43:54.163Z</time>
      </trkpt>
      <trkpt lat="40.730225" lon="-4.08808">
        <ele>1204.0</ele>
        <time>2018-05-26T09:43:55.169Z</time>
      </trkpt>
      <trkpt lat="40.73023333" lon="-4.08817833">
        <ele>1204.0</ele>
        <time>2018-05-26T09:43:56.146Z</time>
      </trkpt>
      <trkpt lat="40.73023167" lon="-4.08822667">
        <ele>1204.0</ele>
        <time>2018-05-26T09:43:57.157Z</time>
      </trkpt>
      <trkpt lat="40.73023167" lon="-4.08822667">
        <ele>1204.0</ele>
        <time>2018-05-26T09:43:58.163Z</time>
      </trkpt>
      <trkpt lat="40.730225" lon="-4.08831667">
        <ele>1204.0</ele>
        <time>2018-05-26T09:43:59.171Z</time>
      </trkpt>
      <trkpt lat="40.730225" lon="-4.08831667">
        <ele>1204.0</ele>
        <time>2018-05-26T09:44:00.169Z</time>
      </trkpt>
      <trkpt lat="40.73021333" lon="-4.088405">
        <ele>1204.0</ele>
        <time>2018-05-26T09:44:01.150Z</time>
      </trkpt>
      <trkpt lat="40.73021333" lon="-4.088405">
        <ele>1204.0</ele>
        <time>2018-05-26T09:44:02.155Z</time>
      </trkpt>
      <trkpt lat="40.73021" lon="-4.08848833">
        <ele>1204.0</ele>
        <time>2018-05-26T09:44:03.163Z</time>
      </trkpt>
      <trkpt lat="40.73021" lon="-4.08848833">
        <ele>1204.0</ele>
        <time>2018-05-26T09:44:04.168Z</time>
      </trkpt>
      <trkpt lat="40.73020333" lon="-4.08856667">
        <ele>1205.0</ele>
        <time>2018-05-26T09:44:05.141Z</time>
      </trkpt>
      <trkpt lat="40.73020333" lon="-4.08856667">
        <ele>1205.0</ele>
        <time>2018-05-26T09:44:06.148Z</time>
      </trkpt>
      <trkpt lat="40.73018833" lon="-4.08864667">
        <ele>1205.0</ele>
        <time>2018-05-26T09:44:07.158Z</time>
      </trkpt>
      <trkpt lat="40.73018" lon="-4.08869667">
        <ele>1205.0</ele>
        <time>2018-05-26T09:44:08.148Z</time>
      </trkpt>
      <trkpt lat="40.73016833" lon="-4.08873833">
        <ele>1204.0</ele>
        <time>2018-05-26T09:44:09.155Z</time>
      </trkpt>
      <trkpt lat="40.73016833" lon="-4.08873833">
        <ele>1204.0</ele>
        <time>2018-05-26T09:44:10.161Z</time>
      </trkpt>
      <trkpt lat="40.73015" lon="-4.08883833">
        <ele>1204.0</ele>
        <time>2018-05-26T09:44:11.170Z</time>
      </trkpt>
      <trkpt lat="40.73014167" lon="-4.08889167">
        <ele>1203.0</ele>
        <time>2018-05-26T09:44:12.151Z</time>
      </trkpt>
      <trkpt lat="40.73014167" lon="-4.08889167">
        <ele>1203.0</ele>
        <time>2018-05-26T09:44:13.157Z</time>
      </trkpt>
      <trkpt lat="40.73011333" lon="-4.08899333">
        <ele>1202.0</ele>
        <time>2018-05-26T09:44:14.136Z</time>
      </trkpt>
      <trkpt lat="40.73010167" lon="-4.08904833">
        <ele>1202.0</ele>
        <time>2018-05-26T09:44:15.160Z</time>
      </trkpt>
      <trkpt lat="40.73010167" lon="-4.08904833">
        <ele>1202.0</ele>
        <time>2018-05-26T09:44:16.166Z</time>
      </trkpt>
      <trkpt lat="40.73007667" lon="-4.08916333">
        <ele>1201.0</ele>
        <time>2018-05-26T09:44:17.174Z</time>
      </trkpt>
      <trkpt lat="40.73007667" lon="-4.08916333">
        <ele>1201.0</ele>
        <time>2018-05-26T09:44:18.143Z</time>
      </trkpt>
      <trkpt lat="40.73004667" lon="-4.08927833">
        <ele>1200.0</ele>
        <time>2018-05-26T09:44:19.172Z</time>
      </trkpt>
      <trkpt lat="40.73003" lon="-4.08933167">
        <ele>1200.0</ele>
        <time>2018-05-26T09:44:20.138Z</time>
      </trkpt>
      <trkpt lat="40.73003" lon="-4.08933167">
        <ele>1200.0</ele>
        <time>2018-05-26T09:44:21.145Z</time>
      </trkpt>
      <trkpt lat="40.73000833" lon="-4.08942833">
        <ele>1200.0</ele>
        <time>2018-05-26T09:44:22.172Z</time>
      </trkpt>
      <trkpt lat="40.73000333" lon="-4.089475">
        <ele>1200.0</ele>
        <time>2018-05-26T09:44:23.140Z</time>
      </trkpt>
      <trkpt lat="40.73000333" lon="-4.089475">
        <ele>1200.0</ele>
        <time>2018-05-26T09:44:24.145Z</time>
      </trkpt>
      <trkpt lat="40.72999167" lon="-4.08957333">
        <ele>1202.0</ele>
        <time>2018-05-26T09:44:25.170Z</time>
      </trkpt>
      <trkpt lat="40.729985" lon="-4.089615">
        <ele>1202.0</ele>
        <time>2018-05-26T09:44:26.140Z</time>
      </trkpt>
      <trkpt lat="40.72997" lon="-4.08966167">
        <ele>1204.0</ele>
        <time>2018-05-26T09:44:27.158Z</time>
      </trkpt>
      <trkpt lat="40.72997" lon="-4.08966167">
        <ele>1204.0</ele>
        <time>2018-05-26T09:44:28.165Z</time>
      </trkpt>
      <trkpt lat="40.72997" lon="-4.08975">
        <ele>1205.0</ele>
        <time>2018-05-26T09:44:29.172Z</time>
      </trkpt>
      <trkpt lat="40.72997" lon="-4.08975">
        <ele>1205.0</ele>
        <time>2018-05-26T09:44:30.143Z</time>
      </trkpt>
      <trkpt lat="40.72997167" lon="-4.08983">
        <ele>1207.0</ele>
        <time>2018-05-26T09:44:31.160Z</time>
      </trkpt>
      <trkpt lat="40.72997167" lon="-4.08983">
        <ele>1207.0</ele>
        <time>2018-05-26T09:44:32.166Z</time>
      </trkpt>
      <trkpt lat="40.72997167" lon="-4.08988833">
        <ele>1208.0</ele>
        <time>2018-05-26T09:44:33.174Z</time>
      </trkpt>
      <trkpt lat="40.72997167" lon="-4.08988833">
        <ele>1208.0</ele>
        <time>2018-05-26T09:44:34.140Z</time>
      </trkpt>
      <trkpt lat="40.72997833" lon="-4.08994333">
        <ele>1209.0</ele>
        <time>2018-05-26T09:44:35.158Z</time>
      </trkpt>
      <trkpt lat="40.72997833" lon="-4.08994333">
        <ele>1209.0</ele>
        <time>2018-05-26T09:44:36.163Z</time>
      </trkpt>
      <trkpt lat="40.72999333" lon="-4.089995">
        <ele>1209.0</ele>
        <time>2018-05-26T09:44:37.170Z</time>
      </trkpt>
      <trkpt lat="40.729995" lon="-4.09001667">
        <ele>1209.0</ele>
        <time>2018-05-26T09:44:38.150Z</time>
      </trkpt>
      <trkpt lat="40.729995" lon="-4.09004333">
        <ele>1210.0</ele>
        <time>2018-05-26T09:44:39.157Z</time>
      </trkpt>
      <trkpt lat="40.729995" lon="-4.09004333">
        <ele>1210.0</ele>
        <time>2018-05-26T09:44:40.162Z</time>
      </trkpt>
      <trkpt lat="40.729995" lon="-4.090095">
        <ele>1210.0</ele>
        <time>2018-05-26T09:44:41.169Z</time>
      </trkpt>
      <trkpt lat="40.72999667" lon="-4.09012167">
        <ele>1211.0</ele>
        <time>2018-05-26T09:44:42.148Z</time>
      </trkpt>
      <trkpt lat="40.72999833" lon="-4.09014667">
        <ele>1211.0</ele>
        <time>2018-05-26T09:44:43.155Z</time>
      </trkpt>
      <trkpt lat="40.72999833" lon="-4.09014667">
        <ele>1211.0</ele>
        <time>2018-05-26T09:44:44.162Z</time>
      </trkpt>
      <trkpt lat="40.73001" lon="-4.09019">
        <ele>1212.0</ele>
        <time>2018-05-26T09:44:45.169Z</time>
      </trkpt>
      <trkpt lat="40.73001833" lon="-4.09021">
        <ele>1212.0</ele>
        <time>2018-05-26T09:44:46.158Z</time>
      </trkpt>
      <trkpt lat="40.73001833" lon="-4.09021">
        <ele>1212.0</ele>
        <time>2018-05-26T09:44:47.164Z</time>
      </trkpt>
      <trkpt lat="40.73003667" lon="-4.09024833">
        <ele>1212.0</ele>
        <time>2018-05-26T09:44:48.172Z</time>
      </trkpt>
      <trkpt lat="40.73003667" lon="-4.09024833">
        <ele>1212.0</ele>
        <time>2018-05-26T09:44:49.138Z</time>
      </trkpt>
      <trkpt lat="40.73005833" lon="-4.09028">
        <ele>1212.0</ele>
        <time>2018-05-26T09:44:50.157Z</time>
      </trkpt>
      <trkpt lat="40.73005833" lon="-4.09028">
        <ele>1212.0</ele>
        <time>2018-05-26T09:44:51.163Z</time>
      </trkpt>
      <trkpt lat="40.73008333" lon="-4.09031167">
        <ele>1213.0</ele>
        <time>2018-05-26T09:44:52.171Z</time>
      </trkpt>
      <trkpt lat="40.73008333" lon="-4.09031167">
        <ele>1213.0</ele>
        <time>2018-05-26T09:44:53.137Z</time>
      </trkpt>
      <trkpt lat="40.73011167" lon="-4.09034">
        <ele>1213.0</ele>
        <time>2018-05-26T09:44:54.138Z</time>
      </trkpt>
      <trkpt lat="40.73011167" lon="-4.09034">
        <ele>1213.0</ele>
        <time>2018-05-26T09:44:55.143Z</time>
      </trkpt>
      <trkpt lat="40.73013667" lon="-4.09036667">
        <ele>1213.0</ele>
        <time>2018-05-26T09:44:56.152Z</time>
      </trkpt>
      <trkpt lat="40.73015" lon="-4.09037333">
        <ele>1213.0</ele>
        <time>2018-05-26T09:44:57.168Z</time>
      </trkpt>
      <trkpt lat="40.73015" lon="-4.09037333">
        <ele>1213.0</ele>
        <time>2018-05-26T09:44:58.175Z</time>
      </trkpt>
      <trkpt lat="40.73018667" lon="-4.09039833">
        <ele>1214.0</ele>
        <time>2018-05-26T09:44:59.145Z</time>
      </trkpt>
      <trkpt lat="40.73020667" lon="-4.09041">
        <ele>1214.0</ele>
        <time>2018-05-26T09:45:00.170Z</time>
      </trkpt>
      <trkpt lat="40.73020667" lon="-4.09041">
        <ele>1214.0</ele>
        <time>2018-05-26T09:45:01.140Z</time>
      </trkpt>
      <trkpt lat="40.73023167" lon="-4.09043167">
        <ele>1214.0</ele>
        <time>2018-05-26T09:45:02.147Z</time>
      </trkpt>
      <trkpt lat="40.73024" lon="-4.090445">
        <ele>1215.0</ele>
        <time>2018-05-26T09:45:03.153Z</time>
      </trkpt>
      <trkpt lat="40.73024" lon="-4.090445">
        <ele>1215.0</ele>
        <time>2018-05-26T09:45:04.168Z</time>
      </trkpt>
      <trkpt lat="40.73025667" lon="-4.09048">
        <ele>1215.0</ele>
        <time>2018-05-26T09:45:05.148Z</time>
      </trkpt>
      <trkpt lat="40.73026667" lon="-4.09049667">
        <ele>1215.0</ele>
        <time>2018-05-26T09:45:06.155Z</time>
      </trkpt>
      <trkpt lat="40.73026667" lon="-4.09049667">
        <ele>1215.0</ele>
        <time>2018-05-26T09:45:07.162Z</time>
      </trkpt>
      <trkpt lat="40.73028333" lon="-4.09053333">
        <ele>1216.0</ele>
        <time>2018-05-26T09:45:08.150Z</time>
      </trkpt>
      <trkpt lat="40.73029" lon="-4.09054667">
        <ele>1216.0</ele>
        <time>2018-05-26T09:45:09.157Z</time>
      </trkpt>
      <trkpt lat="40.73029" lon="-4.09054667">
        <ele>1216.0</ele>
        <time>2018-05-26T09:45:10.163Z</time>
      </trkpt>
      <trkpt lat="40.73030833" lon="-4.09057333">
        <ele>1217.0</ele>
        <time>2018-05-26T09:45:11.170Z</time>
      </trkpt>
      <trkpt lat="40.73030833" lon="-4.09057333">
        <ele>1217.0</ele>
        <time>2018-05-26T09:45:12.162Z</time>
      </trkpt>
      <trkpt lat="40.73032667" lon="-4.09060167">
        <ele>1217.0</ele>
        <time>2018-05-26T09:45:13.147Z</time>
      </trkpt>
      <trkpt lat="40.73033833" lon="-4.09061">
        <ele>1218.0</ele>
        <time>2018-05-26T09:45:14.154Z</time>
      </trkpt>
      <trkpt lat="40.73033833" lon="-4.09061">
        <ele>1218.0</ele>
        <time>2018-05-26T09:45:15.160Z</time>
      </trkpt>
      <trkpt lat="40.73036333" lon="-4.09063167">
        <ele>1218.0</ele>
        <time>2018-05-26T09:45:16.143Z</time>
      </trkpt>
      <trkpt lat="40.73036333" lon="-4.09063167">
        <ele>1218.0</ele>
        <time>2018-05-26T09:45:17.149Z</time>
      </trkpt>
      <trkpt lat="40.73038667" lon="-4.09065667">
        <ele>1219.0</ele>
        <time>2018-05-26T09:45:18.168Z</time>
      </trkpt>
      <trkpt lat="40.73038667" lon="-4.09065667">
        <ele>1219.0</ele>
        <time>2018-05-26T09:45:19.157Z</time>
      </trkpt>
      <trkpt lat="40.73041333" lon="-4.09067833">
        <ele>1218.0</ele>
        <time>2018-05-26T09:45:20.148Z</time>
      </trkpt>
      <trkpt lat="40.73042667" lon="-4.09069">
        <ele>1218.0</ele>
        <time>2018-05-26T09:45:21.155Z</time>
      </trkpt>
      <trkpt lat="40.73042667" lon="-4.09069">
        <ele>1218.0</ele>
        <time>2018-05-26T09:45:22.161Z</time>
      </trkpt>
      <trkpt lat="40.73044833" lon="-4.09071333">
        <ele>1219.0</ele>
        <time>2018-05-26T09:45:23.170Z</time>
      </trkpt>
      <trkpt lat="40.73046" lon="-4.09072667">
        <ele>1219.0</ele>
        <time>2018-05-26T09:45:24.138Z</time>
      </trkpt>
      <trkpt lat="40.73046" lon="-4.09072667">
        <ele>1219.0</ele>
        <time>2018-05-26T09:45:25.144Z</time>
      </trkpt>
      <trkpt lat="40.73048667" lon="-4.09076333">
        <ele>1219.0</ele>
        <time>2018-05-26T09:45:26.138Z</time>
      </trkpt>
      <trkpt lat="40.73049667" lon="-4.090785">
        <ele>1219.0</ele>
        <time>2018-05-26T09:45:27.148Z</time>
      </trkpt>
      <trkpt lat="40.73049667" lon="-4.090785">
        <ele>1219.0</ele>
        <time>2018-05-26T09:45:28.154Z</time>
      </trkpt>
      <trkpt lat="40.73052333" lon="-4.09082667">
        <ele>1220.0</ele>
        <time>2018-05-26T09:45:29.160Z</time>
      </trkpt>
      <trkpt lat="40.73052333" lon="-4.09082667">
        <ele>1220.0</ele>
        <time>2018-05-26T09:45:30.166Z</time>
      </trkpt>
      <trkpt lat="40.73054" lon="-4.09087167">
        <ele>1221.0</ele>
        <time>2018-05-26T09:45:31.173Z</time>
      </trkpt>
      <trkpt lat="40.730545" lon="-4.09089833">
        <ele>1221.0</ele>
        <time>2018-05-26T09:45:32.162Z</time>
      </trkpt>
      <trkpt lat="40.73055" lon="-4.09092167">
        <ele>1222.0</ele>
        <time>2018-05-26T09:45:33.140Z</time>
      </trkpt>
      <trkpt lat="40.73055" lon="-4.09092167">
        <ele>1222.0</ele>
        <time>2018-05-26T09:45:34.145Z</time>
      </trkpt>
      <trkpt lat="40.730555" lon="-4.09097333">
        <ele>1222.0</ele>
        <time>2018-05-26T09:45:35.153Z</time>
      </trkpt>
      <trkpt lat="40.730555" lon="-4.09097333">
        <ele>1222.0</ele>
        <time>2018-05-26T09:45:36.159Z</time>
      </trkpt>
      <trkpt lat="40.730555" lon="-4.09102167">
        <ele>1223.0</ele>
        <time>2018-05-26T09:45:37.171Z</time>
      </trkpt>
      <trkpt lat="40.730555" lon="-4.09102167">
        <ele>1223.0</ele>
        <time>2018-05-26T09:45:38.148Z</time>
      </trkpt>
      <trkpt lat="40.73055667" lon="-4.09108">
        <ele>1224.0</ele>
        <time>2018-05-26T09:45:39.170Z</time>
      </trkpt>
      <trkpt lat="40.73055667" lon="-4.09108">
        <ele>1224.0</ele>
        <time>2018-05-26T09:45:40.137Z</time>
      </trkpt>
      <trkpt lat="40.73055667" lon="-4.09114667">
        <ele>1225.0</ele>
        <time>2018-05-26T09:45:41.145Z</time>
      </trkpt>
      <trkpt lat="40.73055667" lon="-4.09114667">
        <ele>1225.0</ele>
        <time>2018-05-26T09:45:42.152Z</time>
      </trkpt>
      <trkpt lat="40.73056333" lon="-4.09120833">
        <ele>1225.0</ele>
        <time>2018-05-26T09:45:43.158Z</time>
      </trkpt>
      <trkpt lat="40.73056333" lon="-4.09120833">
        <ele>1225.0</ele>
        <time>2018-05-26T09:45:44.165Z</time>
      </trkpt>
      <trkpt lat="40.73056833" lon="-4.09126833">
        <ele>1226.0</ele>
        <time>2018-05-26T09:45:45.172Z</time>
      </trkpt>
      <trkpt lat="40.73056833" lon="-4.09126833">
        <ele>1226.0</ele>
        <time>2018-05-26T09:45:46.137Z</time>
      </trkpt>
      <trkpt lat="40.73057" lon="-4.09132667">
        <ele>1226.0</ele>
        <time>2018-05-26T09:45:47.169Z</time>
      </trkpt>
      <trkpt lat="40.73057333" lon="-4.09135667">
        <ele>1227.0</ele>
        <time>2018-05-26T09:45:48.136Z</time>
      </trkpt>
      <trkpt lat="40.73057333" lon="-4.09135667">
        <ele>1227.0</ele>
        <time>2018-05-26T09:45:49.143Z</time>
      </trkpt>
      <trkpt lat="40.73058333" lon="-4.09141667">
        <ele>1227.0</ele>
        <time>2018-05-26T09:45:50.150Z</time>
      </trkpt>
      <trkpt lat="40.73058833" lon="-4.09144333">
        <ele>1227.0</ele>
        <time>2018-05-26T09:45:51.154Z</time>
      </trkpt>
      <trkpt lat="40.73058833" lon="-4.09144333">
        <ele>1227.0</ele>
        <time>2018-05-26T09:45:52.160Z</time>
      </trkpt>
      <trkpt lat="40.73059" lon="-4.091505">
        <ele>1228.0</ele>
        <time>2018-05-26T09:45:53.169Z</time>
      </trkpt>
      <trkpt lat="40.730595" lon="-4.09153667">
        <ele>1227.0</ele>
        <time>2018-05-26T09:45:54.148Z</time>
      </trkpt>
      <trkpt lat="40.730595" lon="-4.09153667">
        <ele>1227.0</ele>
        <time>2018-05-26T09:45:55.154Z</time>
      </trkpt>
      <trkpt lat="40.73061167" lon="-4.09159667">
        <ele>1227.0</ele>
        <time>2018-05-26T09:45:56.162Z</time>
      </trkpt>
      <trkpt lat="40.73061833" lon="-4.09163">
        <ele>1227.0</ele>
        <time>2018-05-26T09:45:57.171Z</time>
      </trkpt>
      <trkpt lat="40.73062333" lon="-4.09166333">
        <ele>1228.0</ele>
        <time>2018-05-26T09:45:58.159Z</time>
      </trkpt>
      <trkpt lat="40.73062333" lon="-4.09166333">
        <ele>1228.0</ele>
        <time>2018-05-26T09:45:59.164Z</time>
      </trkpt>
      <trkpt lat="40.73063333" lon="-4.09173167">
        <ele>1228.0</ele>
        <time>2018-05-26T09:46:00.157Z</time>
      </trkpt>
      <trkpt lat="40.73063333" lon="-4.09173167">
        <ele>1228.0</ele>
        <time>2018-05-26T09:46:01.167Z</time>
      </trkpt>
      <trkpt lat="40.73064167" lon="-4.09180333">
        <ele>1228.0</ele>
        <time>2018-05-26T09:46:02.173Z</time>
      </trkpt>
      <trkpt lat="40.73064167" lon="-4.09180333">
        <ele>1228.0</ele>
        <time>2018-05-26T09:46:03.141Z</time>
      </trkpt>
      <trkpt lat="40.73065" lon="-4.09187167">
        <ele>1228.0</ele>
        <time>2018-05-26T09:46:04.168Z</time>
      </trkpt>
      <trkpt lat="40.73065" lon="-4.09187167">
        <ele>1228.0</ele>
        <time>2018-05-26T09:46:05.175Z</time>
      </trkpt>
      <trkpt lat="40.730655" lon="-4.09193">
        <ele>1228.0</ele>
        <time>2018-05-26T09:46:06.168Z</time>
      </trkpt>
      <trkpt lat="40.73065833" lon="-4.09195667">
        <ele>1228.0</ele>
        <time>2018-05-26T09:46:07.140Z</time>
      </trkpt>
      <trkpt lat="40.73065833" lon="-4.09195667">
        <ele>1228.0</ele>
        <time>2018-05-26T09:46:08.146Z</time>
      </trkpt>
      <trkpt lat="40.73067167" lon="-4.09201">
        <ele>1229.0</ele>
        <time>2018-05-26T09:46:09.138Z</time>
      </trkpt>
      <trkpt lat="40.73067167" lon="-4.09201">
        <ele>1229.0</ele>
        <time>2018-05-26T09:46:10.145Z</time>
      </trkpt>
      <trkpt lat="40.73068167" lon="-4.09206667">
        <ele>1228.0</ele>
        <time>2018-05-26T09:46:11.153Z</time>
      </trkpt>
      <trkpt lat="40.73068167" lon="-4.09206667">
        <ele>1228.0</ele>
        <time>2018-05-26T09:46:12.158Z</time>
      </trkpt>
      <trkpt lat="40.73069" lon="-4.09212833">
        <ele>1229.0</ele>
        <time>2018-05-26T09:46:13.151Z</time>
      </trkpt>
      <trkpt lat="40.73069" lon="-4.09212833">
        <ele>1229.0</ele>
        <time>2018-05-26T09:46:14.157Z</time>
      </trkpt>
      <trkpt lat="40.73070167" lon="-4.09219167">
        <ele>1230.0</ele>
        <time>2018-05-26T09:46:15.164Z</time>
      </trkpt>
      <trkpt lat="40.73070167" lon="-4.09219167">
        <ele>1230.0</ele>
        <time>2018-05-26T09:46:16.172Z</time>
      </trkpt>
      <trkpt lat="40.73071" lon="-4.09225667">
        <ele>1230.0</ele>
        <time>2018-05-26T09:46:17.172Z</time>
      </trkpt>
      <trkpt lat="40.73071667" lon="-4.09228833">
        <ele>1230.0</ele>
        <time>2018-05-26T09:46:18.138Z</time>
      </trkpt>
      <trkpt lat="40.730725" lon="-4.09232167">
        <ele>1231.0</ele>
        <time>2018-05-26T09:46:19.144Z</time>
      </trkpt>
      <trkpt lat="40.730725" lon="-4.09232167">
        <ele>1231.0</ele>
        <time>2018-05-26T09:46:20.150Z</time>
      </trkpt>
      <trkpt lat="40.73074" lon="-4.09238333">
        <ele>1231.0</ele>
        <time>2018-05-26T09:46:21.174Z</time>
      </trkpt>
      <trkpt lat="40.73074" lon="-4.09238333">
        <ele>1231.0</ele>
        <time>2018-05-26T09:46:22.143Z</time>
      </trkpt>
      <trkpt lat="40.730755" lon="-4.09244167">
        <ele>1231.0</ele>
        <time>2018-05-26T09:46:23.161Z</time>
      </trkpt>
      <trkpt lat="40.730765" lon="-4.09247">
        <ele>1231.0</ele>
        <time>2018-05-26T09:46:24.158Z</time>
      </trkpt>
      <trkpt lat="40.730765" lon="-4.09247">
        <ele>1231.0</ele>
        <time>2018-05-26T09:46:25.164Z</time>
      </trkpt>
      <trkpt lat="40.730785" lon="-4.09252833">
        <ele>1231.0</ele>
        <time>2018-05-26T09:46:26.173Z</time>
      </trkpt>
      <trkpt lat="40.73079167" lon="-4.09256">
        <ele>1231.0</ele>
        <time>2018-05-26T09:46:27.139Z</time>
      </trkpt>
      <trkpt lat="40.73079167" lon="-4.09256">
        <ele>1231.0</ele>
        <time>2018-05-26T09:46:28.146Z</time>
      </trkpt>
      <trkpt lat="40.73080333" lon="-4.09262833">
        <ele>1231.0</ele>
        <time>2018-05-26T09:46:29.155Z</time>
      </trkpt>
      <trkpt lat="40.73080333" lon="-4.09262833">
        <ele>1231.0</ele>
        <time>2018-05-26T09:46:30.161Z</time>
      </trkpt>
      <trkpt lat="40.73081167" lon="-4.09269667">
        <ele>1232.0</ele>
        <time>2018-05-26T09:46:31.153Z</time>
      </trkpt>
      <trkpt lat="40.73081167" lon="-4.09269667">
        <ele>1232.0</ele>
        <time>2018-05-26T09:46:32.160Z</time>
      </trkpt>
      <trkpt lat="40.73081667" lon="-4.092765">
        <ele>1232.0</ele>
        <time>2018-05-26T09:46:33.167Z</time>
      </trkpt>
      <trkpt lat="40.73081667" lon="-4.092765">
        <ele>1232.0</ele>
        <time>2018-05-26T09:46:34.157Z</time>
      </trkpt>
      <trkpt lat="40.73082333" lon="-4.09283">
        <ele>1232.0</ele>
        <time>2018-05-26T09:46:35.149Z</time>
      </trkpt>
      <trkpt lat="40.73082333" lon="-4.09283">
        <ele>1232.0</ele>
        <time>2018-05-26T09:46:36.155Z</time>
      </trkpt>
      <trkpt lat="40.73082833" lon="-4.092895">
        <ele>1233.0</ele>
        <time>2018-05-26T09:46:37.169Z</time>
      </trkpt>
      <trkpt lat="40.73083" lon="-4.09292833">
        <ele>1233.0</ele>
        <time>2018-05-26T09:46:38.175Z</time>
      </trkpt>
      <trkpt lat="40.73083333" lon="-4.09296167">
        <ele>1233.0</ele>
        <time>2018-05-26T09:46:39.144Z</time>
      </trkpt>
      <trkpt lat="40.73083333" lon="-4.09296167">
        <ele>1233.0</ele>
        <time>2018-05-26T09:46:40.151Z</time>
      </trkpt>
      <trkpt lat="40.73084" lon="-4.09302833">
        <ele>1233.0</ele>
        <time>2018-05-26T09:46:41.169Z</time>
      </trkpt>
      <trkpt lat="40.73084333" lon="-4.09306167">
        <ele>1234.0</ele>
        <time>2018-05-26T09:46:42.136Z</time>
      </trkpt>
      <trkpt lat="40.73085" lon="-4.09309333">
        <ele>1234.0</ele>
        <time>2018-05-26T09:46:43.146Z</time>
      </trkpt>
      <trkpt lat="40.73085" lon="-4.09309333">
        <ele>1234.0</ele>
        <time>2018-05-26T09:46:44.152Z</time>
      </trkpt>
      <trkpt lat="40.73086667" lon="-4.09315667">
        <ele>1234.0</ele>
        <time>2018-05-26T09:46:45.144Z</time>
      </trkpt>
      <trkpt lat="40.73086667" lon="-4.09315667">
        <ele>1234.0</ele>
        <time>2018-05-26T09:46:46.152Z</time>
      </trkpt>
      <trkpt lat="40.73088" lon="-4.09321833">
        <ele>1234.0</ele>
        <time>2018-05-26T09:46:47.169Z</time>
      </trkpt>
      <trkpt lat="40.73089" lon="-4.09324833">
        <ele>1234.0</ele>
        <time>2018-05-26T09:46:48.168Z</time>
      </trkpt>
      <trkpt lat="40.73089" lon="-4.09324833">
        <ele>1234.0</ele>
        <time>2018-05-26T09:46:49.157Z</time>
      </trkpt>
      <trkpt lat="40.73091333" lon="-4.09330833">
        <ele>1235.0</ele>
        <time>2018-05-26T09:46:50.159Z</time>
      </trkpt>
      <trkpt lat="40.730925" lon="-4.09333833">
        <ele>1235.0</ele>
        <time>2018-05-26T09:46:51.165Z</time>
      </trkpt>
      <trkpt lat="40.730925" lon="-4.09333833">
        <ele>1235.0</ele>
        <time>2018-05-26T09:46:52.172Z</time>
      </trkpt>
      <trkpt lat="40.73094667" lon="-4.09339833">
        <ele>1235.0</ele>
        <time>2018-05-26T09:46:53.136Z</time>
      </trkpt>
      <trkpt lat="40.73094667" lon="-4.09339833">
        <ele>1235.0</ele>
        <time>2018-05-26T09:46:54.173Z</time>
      </trkpt>
      <trkpt lat="40.73097" lon="-4.093455">
        <ele>1235.0</ele>
        <time>2018-05-26T09:46:55.139Z</time>
      </trkpt>
      <trkpt lat="40.73098333" lon="-4.09348333">
        <ele>1235.0</ele>
        <time>2018-05-26T09:46:56.138Z</time>
      </trkpt>
      <trkpt lat="40.730995" lon="-4.09351167">
        <ele>1235.0</ele>
        <time>2018-05-26T09:46:57.159Z</time>
      </trkpt>
      <trkpt lat="40.730995" lon="-4.09351167">
        <ele>1235.0</ele>
        <time>2018-05-26T09:46:58.165Z</time>
      </trkpt>
      <trkpt lat="40.73101667" lon="-4.09356167">
        <ele>1236.0</ele>
        <time>2018-05-26T09:46:59.151Z</time>
      </trkpt>
      <trkpt lat="40.73102667" lon="-4.093585">
        <ele>1236.0</ele>
        <time>2018-05-26T09:47:00.136Z</time>
      </trkpt>
      <trkpt lat="40.73102667" lon="-4.093585">
        <ele>1236.0</ele>
        <time>2018-05-26T09:47:01.157Z</time>
      </trkpt>
      <trkpt lat="40.731045" lon="-4.09363">
        <ele>1236.0</ele>
        <time>2018-05-26T09:47:02.169Z</time>
      </trkpt>
      <trkpt lat="40.73105667" lon="-4.09365">
        <ele>1236.0</ele>
        <time>2018-05-26T09:47:03.136Z</time>
      </trkpt>
      <trkpt lat="40.73105667" lon="-4.09365">
        <ele>1236.0</ele>
        <time>2018-05-26T09:47:04.145Z</time>
      </trkpt>
      <trkpt lat="40.731075" lon="-4.09369167">
        <ele>1237.0</ele>
        <time>2018-05-26T09:47:05.153Z</time>
      </trkpt>
      <trkpt lat="40.731075" lon="-4.09369167">
        <ele>1237.0</ele>
        <time>2018-05-26T09:47:06.159Z</time>
      </trkpt>
      <trkpt lat="40.73109333" lon="-4.09372833">
        <ele>1238.0</ele>
        <time>2018-05-26T09:47:07.143Z</time>
      </trkpt>
      <trkpt lat="40.73109333" lon="-4.09372833">
        <ele>1238.0</ele>
        <time>2018-05-26T09:47:08.150Z</time>
      </trkpt>
      <trkpt lat="40.73111833" lon="-4.09376833">
        <ele>1238.0</ele>
        <time>2018-05-26T09:47:09.156Z</time>
      </trkpt>
      <trkpt lat="40.73111833" lon="-4.09376833">
        <ele>1238.0</ele>
        <time>2018-05-26T09:47:10.163Z</time>
      </trkpt>
      <trkpt lat="40.73114333" lon="-4.09379667">
        <ele>1238.0</ele>
        <time>2018-05-26T09:47:11.161Z</time>
      </trkpt>
      <trkpt lat="40.73115833" lon="-4.093815">
        <ele>1238.0</ele>
        <time>2018-05-26T09:47:12.168Z</time>
      </trkpt>
      <trkpt lat="40.73115833" lon="-4.093815">
        <ele>1238.0</ele>
        <time>2018-05-26T09:47:13.136Z</time>
      </trkpt>
      <trkpt lat="40.73118667" lon="-4.09384833">
        <ele>1238.0</ele>
        <time>2018-05-26T09:47:14.163Z</time>
      </trkpt>
      <trkpt lat="40.7312" lon="-4.09386667">
        <ele>1238.0</ele>
        <time>2018-05-26T09:47:15.171Z</time>
      </trkpt>
      <trkpt lat="40.7312" lon="-4.09386667">
        <ele>1238.0</ele>
        <time>2018-05-26T09:47:16.138Z</time>
      </trkpt>
      <trkpt lat="40.731225" lon="-4.09390333">
        <ele>1238.0</ele>
        <time>2018-05-26T09:47:17.168Z</time>
      </trkpt>
      <trkpt lat="40.73124" lon="-4.09391833">
        <ele>1238.0</ele>
        <time>2018-05-26T09:47:18.154Z</time>
      </trkpt>
      <trkpt lat="40.73124" lon="-4.09391833">
        <ele>1238.0</ele>
        <time>2018-05-26T09:47:19.159Z</time>
      </trkpt>
      <trkpt lat="40.73126667" lon="-4.09395167">
        <ele>1239.0</ele>
        <time>2018-05-26T09:47:20.166Z</time>
      </trkpt>
      <trkpt lat="40.73126667" lon="-4.09395167">
        <ele>1239.0</ele>
        <time>2018-05-26T09:47:21.172Z</time>
      </trkpt>
      <trkpt lat="40.73129667" lon="-4.09398333">
        <ele>1238.0</ele>
        <time>2018-05-26T09:47:22.174Z</time>
      </trkpt>
      <trkpt lat="40.73131167" lon="-4.09399333">
        <ele>1239.0</ele>
        <time>2018-05-26T09:47:23.140Z</time>
      </trkpt>
      <trkpt lat="40.73132667" lon="-4.09400667">
        <ele>1240.0</ele>
        <time>2018-05-26T09:47:24.152Z</time>
      </trkpt>
      <trkpt lat="40.73132667" lon="-4.09400667">
        <ele>1240.0</ele>
        <time>2018-05-26T09:47:25.158Z</time>
      </trkpt>
      <trkpt lat="40.73135333" lon="-4.09403">
        <ele>1240.0</ele>
        <time>2018-05-26T09:47:26.165Z</time>
      </trkpt>
      <trkpt lat="40.731365" lon="-4.094045">
        <ele>1240.0</ele>
        <time>2018-05-26T09:47:27.172Z</time>
      </trkpt>
      <trkpt lat="40.731365" lon="-4.094045">
        <ele>1240.0</ele>
        <time>2018-05-26T09:47:28.139Z</time>
      </trkpt>
      <trkpt lat="40.73139333" lon="-4.09407167">
        <ele>1241.0</ele>
        <time>2018-05-26T09:47:29.146Z</time>
      </trkpt>
      <trkpt lat="40.73140833" lon="-4.09408167">
        <ele>1241.0</ele>
        <time>2018-05-26T09:47:30.168Z</time>
      </trkpt>
      <trkpt lat="40.73140833" lon="-4.09408167">
        <ele>1241.0</ele>
        <time>2018-05-26T09:47:31.157Z</time>
      </trkpt>
      <trkpt lat="40.73144" lon="-4.0941">
        <ele>1242.0</ele>
        <time>2018-05-26T09:47:32.159Z</time>
      </trkpt>
      <trkpt lat="40.73144" lon="-4.0941">
        <ele>1242.0</ele>
        <time>2018-05-26T09:47:33.165Z</time>
      </trkpt>
      <trkpt lat="40.73147333" lon="-4.09411333">
        <ele>1242.0</ele>
        <time>2018-05-26T09:47:34.153Z</time>
      </trkpt>
      <trkpt lat="40.73149" lon="-4.09412333">
        <ele>1242.0</ele>
        <time>2018-05-26T09:47:35.168Z</time>
      </trkpt>
      <trkpt lat="40.73149" lon="-4.09412333">
        <ele>1242.0</ele>
        <time>2018-05-26T09:47:36.174Z</time>
      </trkpt>
      <trkpt lat="40.731525" lon="-4.09412833">
        <ele>1243.0</ele>
        <time>2018-05-26T09:47:37.158Z</time>
      </trkpt>
      <trkpt lat="40.731525" lon="-4.09412833">
        <ele>1243.0</ele>
        <time>2018-05-26T09:47:38.164Z</time>
      </trkpt>
      <trkpt lat="40.73155667" lon="-4.09414167">
        <ele>1244.0</ele>
        <time>2018-05-26T09:47:39.138Z</time>
      </trkpt>
      <trkpt lat="40.73157333" lon="-4.094145">
        <ele>1244.0</ele>
        <time>2018-05-26T09:47:40.152Z</time>
      </trkpt>
      <trkpt lat="40.73157333" lon="-4.094145">
        <ele>1244.0</ele>
        <time>2018-05-26T09:47:41.159Z</time>
      </trkpt>
      <trkpt lat="40.73161" lon="-4.09414333">
        <ele>1244.0</ele>
        <time>2018-05-26T09:47:42.144Z</time>
      </trkpt>
      <trkpt lat="40.73161" lon="-4.09414333">
        <ele>1244.0</ele>
        <time>2018-05-26T09:47:43.150Z</time>
      </trkpt>
      <trkpt lat="40.73164667" lon="-4.094135">
        <ele>1244.0</ele>
        <time>2018-05-26T09:47:44.168Z</time>
      </trkpt>
      <trkpt lat="40.73164667" lon="-4.094135">
        <ele>1244.0</ele>
        <time>2018-05-26T09:47:45.156Z</time>
      </trkpt>
      <trkpt lat="40.73168333" lon="-4.09412">
        <ele>1245.0</ele>
        <time>2018-05-26T09:47:46.136Z</time>
      </trkpt>
      <trkpt lat="40.73168333" lon="-4.09412">
        <ele>1245.0</ele>
        <time>2018-05-26T09:47:47.142Z</time>
      </trkpt>
      <trkpt lat="40.73171833" lon="-4.09409833">
        <ele>1245.0</ele>
        <time>2018-05-26T09:47:48.158Z</time>
      </trkpt>
      <trkpt lat="40.73171833" lon="-4.09409833">
        <ele>1245.0</ele>
        <time>2018-05-26T09:47:49.148Z</time>
      </trkpt>
      <trkpt lat="40.73175333" lon="-4.09407167">
        <ele>1245.0</ele>
        <time>2018-05-26T09:47:50.160Z</time>
      </trkpt>
      <trkpt lat="40.73175333" lon="-4.09407167">
        <ele>1245.0</ele>
        <time>2018-05-26T09:47:51.166Z</time>
      </trkpt>
      <trkpt lat="40.731785" lon="-4.09404333">
        <ele>1246.0</ele>
        <time>2018-05-26T09:47:52.174Z</time>
      </trkpt>
      <trkpt lat="40.731785" lon="-4.09404333">
        <ele>1246.0</ele>
        <time>2018-05-26T09:47:53.141Z</time>
      </trkpt>
      <trkpt lat="40.73181333" lon="-4.09401333">
        <ele>1246.0</ele>
        <time>2018-05-26T09:47:54.149Z</time>
      </trkpt>
      <trkpt lat="40.73181333" lon="-4.09401333">
        <ele>1246.0</ele>
        <time>2018-05-26T09:47:55.155Z</time>
      </trkpt>
      <trkpt lat="40.73183833" lon="-4.09398333">
        <ele>1247.0</ele>
        <time>2018-05-26T09:47:56.162Z</time>
      </trkpt>
      <trkpt lat="40.73185" lon="-4.09396333">
        <ele>1247.0</ele>
        <time>2018-05-26T09:47:57.156Z</time>
      </trkpt>
      <trkpt lat="40.73185" lon="-4.09396333">
        <ele>1247.0</ele>
        <time>2018-05-26T09:47:58.162Z</time>
      </trkpt>
      <trkpt lat="40.73188" lon="-4.093935">
        <ele>1248.0</ele>
        <time>2018-05-26T09:47:59.169Z</time>
      </trkpt>
      <trkpt lat="40.73188" lon="-4.093935">
        <ele>1248.0</ele>
        <time>2018-05-26T09:48:00.140Z</time>
      </trkpt>
      <trkpt lat="40.73191167" lon="-4.093905">
        <ele>1248.0</ele>
        <time>2018-05-26T09:48:01.153Z</time>
      </trkpt>
      <trkpt lat="40.73192667" lon="-4.09389167">
        <ele>1248.0</ele>
        <time>2018-05-26T09:48:02.161Z</time>
      </trkpt>
      <trkpt lat="40.73192667" lon="-4.09389167">
        <ele>1248.0</ele>
        <time>2018-05-26T09:48:03.167Z</time>
      </trkpt>
      <trkpt lat="40.73195333" lon="-4.09386167">
        <ele>1249.0</ele>
        <time>2018-05-26T09:48:04.138Z</time>
      </trkpt>
      <trkpt lat="40.73195333" lon="-4.09386167">
        <ele>1249.0</ele>
        <time>2018-05-26T09:48:05.144Z</time>
      </trkpt>
      <trkpt lat="40.73198333" lon="-4.09383333">
        <ele>1249.0</ele>
        <time>2018-05-26T09:48:06.175Z</time>
      </trkpt>
      <trkpt lat="40.73198333" lon="-4.09383333">
        <ele>1249.0</ele>
        <time>2018-05-26T09:48:07.142Z</time>
      </trkpt>
      <trkpt lat="40.732015" lon="-4.09380833">
        <ele>1249.0</ele>
        <time>2018-05-26T09:48:08.149Z</time>
      </trkpt>
      <trkpt lat="40.732015" lon="-4.09380833">
        <ele>1249.0</ele>
        <time>2018-05-26T09:48:09.155Z</time>
      </trkpt>
      <trkpt lat="40.73204833" lon="-4.09378">
        <ele>1249.0</ele>
        <time>2018-05-26T09:48:10.138Z</time>
      </trkpt>
      <trkpt lat="40.73204833" lon="-4.09378">
        <ele>1249.0</ele>
        <time>2018-05-26T09:48:11.145Z</time>
      </trkpt>
      <trkpt lat="40.73208667" lon="-4.09375833">
        <ele>1250.0</ele>
        <time>2018-05-26T09:48:12.153Z</time>
      </trkpt>
      <trkpt lat="40.732105" lon="-4.09374833">
        <ele>1250.0</ele>
        <time>2018-05-26T09:48:13.145Z</time>
      </trkpt>
      <trkpt lat="40.732105" lon="-4.09374833">
        <ele>1250.0</ele>
        <time>2018-05-26T09:48:14.152Z</time>
      </trkpt>
      <trkpt lat="40.73214333" lon="-4.09372833">
        <ele>1250.0</ele>
        <time>2018-05-26T09:48:15.159Z</time>
      </trkpt>
      <trkpt lat="40.73214333" lon="-4.09372833">
        <ele>1250.0</ele>
        <time>2018-05-26T09:48:16.151Z</time>
      </trkpt>
      <trkpt lat="40.73218167" lon="-4.09371333">
        <ele>1250.0</ele>
        <time>2018-05-26T09:48:17.157Z</time>
      </trkpt>
      <trkpt lat="40.73218167" lon="-4.09371333">
        <ele>1250.0</ele>
        <time>2018-05-26T09:48:18.163Z</time>
      </trkpt>
      <trkpt lat="40.73222" lon="-4.09370167">
        <ele>1251.0</ele>
        <time>2018-05-26T09:48:19.170Z</time>
      </trkpt>
      <trkpt lat="40.73223667" lon="-4.09370167">
        <ele>1251.0</ele>
        <time>2018-05-26T09:48:20.149Z</time>
      </trkpt>
      <trkpt lat="40.73225333" lon="-4.09370167">
        <ele>1251.0</ele>
        <time>2018-05-26T09:48:21.156Z</time>
      </trkpt>
      <trkpt lat="40.73225333" lon="-4.09370167">
        <ele>1251.0</ele>
        <time>2018-05-26T09:48:22.163Z</time>
      </trkpt>
      <trkpt lat="40.73228333" lon="-4.09371167">
        <ele>1251.0</ele>
        <time>2018-05-26T09:48:23.170Z</time>
      </trkpt>
      <trkpt lat="40.7323" lon="-4.09371833">
        <ele>1252.0</ele>
        <time>2018-05-26T09:48:24.137Z</time>
      </trkpt>
      <trkpt lat="40.7323" lon="-4.09371833">
        <ele>1252.0</ele>
        <time>2018-05-26T09:48:25.143Z</time>
      </trkpt>
      <trkpt lat="40.73233333" lon="-4.09373167">
        <ele>1252.0</ele>
        <time>2018-05-26T09:48:26.156Z</time>
      </trkpt>
      <trkpt lat="40.73233333" lon="-4.09373167">
        <ele>1252.0</ele>
        <time>2018-05-26T09:48:27.162Z</time>
      </trkpt>
      <trkpt lat="40.73236167" lon="-4.093755">
        <ele>1253.0</ele>
        <time>2018-05-26T09:48:28.171Z</time>
      </trkpt>
      <trkpt lat="40.73236167" lon="-4.093755">
        <ele>1253.0</ele>
        <time>2018-05-26T09:48:29.137Z</time>
      </trkpt>
      <trkpt lat="40.73238" lon="-4.093795">
        <ele>1253.0</ele>
        <time>2018-05-26T09:48:30.158Z</time>
      </trkpt>
      <trkpt lat="40.73238" lon="-4.093795">
        <ele>1253.0</ele>
        <time>2018-05-26T09:48:31.163Z</time>
      </trkpt>
      <trkpt lat="40.73239167" lon="-4.09384">
        <ele>1254.0</ele>
        <time>2018-05-26T09:48:32.171Z</time>
      </trkpt>
      <trkpt lat="40.73239167" lon="-4.09384">
        <ele>1254.0</ele>
        <time>2018-05-26T09:48:33.139Z</time>
      </trkpt>
      <trkpt lat="40.73239667" lon="-4.09388833">
        <ele>1255.0</ele>
        <time>2018-05-26T09:48:34.159Z</time>
      </trkpt>
      <trkpt lat="40.73239667" lon="-4.09388833">
        <ele>1255.0</ele>
        <time>2018-05-26T09:48:35.165Z</time>
      </trkpt>
      <trkpt lat="40.73240167" lon="-4.09393833">
        <ele>1256.0</ele>
        <time>2018-05-26T09:48:36.172Z</time>
      </trkpt>
      <trkpt lat="40.73240167" lon="-4.09393833">
        <ele>1256.0</ele>
        <time>2018-05-26T09:48:37.139Z</time>
      </trkpt>
      <trkpt lat="40.73240833" lon="-4.09398333">
        <ele>1256.0</ele>
        <time>2018-05-26T09:48:38.152Z</time>
      </trkpt>
      <trkpt lat="40.73240833" lon="-4.09398333">
        <ele>1256.0</ele>
        <time>2018-05-26T09:48:39.158Z</time>
      </trkpt>
      <trkpt lat="40.73241333" lon="-4.09403">
        <ele>1257.0</ele>
        <time>2018-05-26T09:48:40.166Z</time>
      </trkpt>
      <trkpt lat="40.73241333" lon="-4.09403">
        <ele>1257.0</ele>
        <time>2018-05-26T09:48:41.172Z</time>
      </trkpt>
      <trkpt lat="40.732415" lon="-4.094075">
        <ele>1258.0</ele>
        <time>2018-05-26T09:48:42.139Z</time>
      </trkpt>
      <trkpt lat="40.73242" lon="-4.09409833">
        <ele>1258.0</ele>
        <time>2018-05-26T09:48:43.172Z</time>
      </trkpt>
      <trkpt lat="40.73242" lon="-4.09409833">
        <ele>1258.0</ele>
        <time>2018-05-26T09:48:44.139Z</time>
      </trkpt>
      <trkpt lat="40.732425" lon="-4.09414667">
        <ele>1259.0</ele>
        <time>2018-05-26T09:48:45.146Z</time>
      </trkpt>
      <trkpt lat="40.732425" lon="-4.09414667">
        <ele>1259.0</ele>
        <time>2018-05-26T09:48:46.152Z</time>
      </trkpt>
      <trkpt lat="40.73242" lon="-4.09419667">
        <ele>1259.0</ele>
        <time>2018-05-26T09:48:47.157Z</time>
      </trkpt>
      <trkpt lat="40.73242" lon="-4.09419667">
        <ele>1259.0</ele>
        <time>2018-05-26T09:48:48.163Z</time>
      </trkpt>
      <trkpt lat="40.732415" lon="-4.09424667">
        <ele>1259.0</ele>
        <time>2018-05-26T09:48:49.171Z</time>
      </trkpt>
      <trkpt lat="40.732415" lon="-4.09424667">
        <ele>1259.0</ele>
        <time>2018-05-26T09:48:50.137Z</time>
      </trkpt>
      <trkpt lat="40.732415" lon="-4.094295">
        <ele>1260.0</ele>
        <time>2018-05-26T09:48:51.146Z</time>
      </trkpt>
      <trkpt lat="40.732415" lon="-4.094295">
        <ele>1260.0</ele>
        <time>2018-05-26T09:48:52.152Z</time>
      </trkpt>
      <trkpt lat="40.732415" lon="-4.09434333">
        <ele>1261.0</ele>
        <time>2018-05-26T09:48:53.168Z</time>
      </trkpt>
      <trkpt lat="40.732415" lon="-4.09434333">
        <ele>1261.0</ele>
        <time>2018-05-26T09:48:54.161Z</time>
      </trkpt>
      <trkpt lat="40.732415" lon="-4.09439333">
        <ele>1261.0</ele>
        <time>2018-05-26T09:48:55.157Z</time>
      </trkpt>
      <trkpt lat="40.732415" lon="-4.09441833">
        <ele>1261.0</ele>
        <time>2018-05-26T09:48:56.173Z</time>
      </trkpt>
      <trkpt lat="40.732415" lon="-4.09441833">
        <ele>1261.0</ele>
        <time>2018-05-26T09:48:57.139Z</time>
      </trkpt>
      <trkpt lat="40.732415" lon="-4.09446667">
        <ele>1262.0</ele>
        <time>2018-05-26T09:48:58.167Z</time>
      </trkpt>
      <trkpt lat="40.732415" lon="-4.09446667">
        <ele>1262.0</ele>
        <time>2018-05-26T09:48:59.174Z</time>
      </trkpt>
      <trkpt lat="40.73241667" lon="-4.09451833">
        <ele>1262.0</ele>
        <time>2018-05-26T09:49:00.141Z</time>
      </trkpt>
      <trkpt lat="40.73242" lon="-4.09454167">
        <ele>1263.0</ele>
        <time>2018-05-26T09:49:01.139Z</time>
      </trkpt>
      <trkpt lat="40.73242167" lon="-4.094565">
        <ele>1263.0</ele>
        <time>2018-05-26T09:49:02.146Z</time>
      </trkpt>
      <trkpt lat="40.73242333" lon="-4.09459">
        <ele>1263.0</ele>
        <time>2018-05-26T09:49:03.138Z</time>
      </trkpt>
      <trkpt lat="40.73242333" lon="-4.09459">
        <ele>1263.0</ele>
        <time>2018-05-26T09:49:04.144Z</time>
      </trkpt>
      <trkpt lat="40.73242667" lon="-4.09463667">
        <ele>1264.0</ele>
        <time>2018-05-26T09:49:05.152Z</time>
      </trkpt>
      <trkpt lat="40.73242667" lon="-4.09465833">
        <ele>1264.0</ele>
        <time>2018-05-26T09:49:06.158Z</time>
      </trkpt>
      <trkpt lat="40.73242667" lon="-4.09465833">
        <ele>1264.0</ele>
        <time>2018-05-26T09:49:07.171Z</time>
      </trkpt>
      <trkpt lat="40.73242833" lon="-4.09470667">
        <ele>1265.0</ele>
        <time>2018-05-26T09:49:08.162Z</time>
      </trkpt>
      <trkpt lat="40.73242833" lon="-4.09470667">
        <ele>1265.0</ele>
        <time>2018-05-26T09:49:09.168Z</time>
      </trkpt>
      <trkpt lat="40.73243167" lon="-4.09475833">
        <ele>1265.0</ele>
        <time>2018-05-26T09:49:10.175Z</time>
      </trkpt>
      <trkpt lat="40.73243167" lon="-4.09475833">
        <ele>1265.0</ele>
        <time>2018-05-26T09:49:11.143Z</time>
      </trkpt>
      <trkpt lat="40.73243667" lon="-4.09480833">
        <ele>1266.0</ele>
        <time>2018-05-26T09:49:12.171Z</time>
      </trkpt>
      <trkpt lat="40.73243667" lon="-4.09480833">
        <ele>1266.0</ele>
        <time>2018-05-26T09:49:13.137Z</time>
      </trkpt>
      <trkpt lat="40.73243667" lon="-4.09485833">
        <ele>1266.0</ele>
        <time>2018-05-26T09:49:14.145Z</time>
      </trkpt>
      <trkpt lat="40.732435" lon="-4.09488333">
        <ele>1267.0</ele>
        <time>2018-05-26T09:49:15.142Z</time>
      </trkpt>
      <trkpt lat="40.732435" lon="-4.09488333">
        <ele>1267.0</ele>
        <time>2018-05-26T09:49:16.148Z</time>
      </trkpt>
      <trkpt lat="40.73243167" lon="-4.09494">
        <ele>1267.0</ele>
        <time>2018-05-26T09:49:17.173Z</time>
      </trkpt>
      <trkpt lat="40.73243" lon="-4.09496667">
        <ele>1267.0</ele>
        <time>2018-05-26T09:49:18.155Z</time>
      </trkpt>
      <trkpt lat="40.73243" lon="-4.09496667">
        <ele>1267.0</ele>
        <time>2018-05-26T09:49:19.161Z</time>
      </trkpt>
      <trkpt lat="40.73243167" lon="-4.09502167">
        <ele>1268.0</ele>
        <time>2018-05-26T09:49:20.168Z</time>
      </trkpt>
      <trkpt lat="40.73243167" lon="-4.09502167">
        <ele>1268.0</ele>
        <time>2018-05-26T09:49:21.174Z</time>
      </trkpt>
      <trkpt lat="40.73243" lon="-4.09507333">
        <ele>1268.0</ele>
        <time>2018-05-26T09:49:22.140Z</time>
      </trkpt>
      <trkpt lat="40.73243" lon="-4.09507333">
        <ele>1268.0</ele>
        <time>2018-05-26T09:49:23.146Z</time>
      </trkpt>
      <trkpt lat="40.73242833" lon="-4.09511833">
        <ele>1269.0</ele>
        <time>2018-05-26T09:49:24.153Z</time>
      </trkpt>
      <trkpt lat="40.73242667" lon="-4.09514167">
        <ele>1269.0</ele>
        <time>2018-05-26T09:49:25.147Z</time>
      </trkpt>
      <trkpt lat="40.73242667" lon="-4.09514167">
        <ele>1269.0</ele>
        <time>2018-05-26T09:49:26.153Z</time>
      </trkpt>
      <trkpt lat="40.73242333" lon="-4.09518833">
        <ele>1270.0</ele>
        <time>2018-05-26T09:49:27.169Z</time>
      </trkpt>
      <trkpt lat="40.73242333" lon="-4.09518833">
        <ele>1270.0</ele>
        <time>2018-05-26T09:49:28.138Z</time>
      </trkpt>
      <trkpt lat="40.73242333" lon="-4.09523333">
        <ele>1270.0</ele>
        <time>2018-05-26T09:49:29.160Z</time>
      </trkpt>
      <trkpt lat="40.73242333" lon="-4.09523333">
        <ele>1270.0</ele>
        <time>2018-05-26T09:49:30.165Z</time>
      </trkpt>
      <trkpt lat="40.73242333" lon="-4.09528">
        <ele>1270.0</ele>
        <time>2018-05-26T09:49:31.173Z</time>
      </trkpt>
      <trkpt lat="40.73242333" lon="-4.09528">
        <ele>1270.0</ele>
        <time>2018-05-26T09:49:32.140Z</time>
      </trkpt>
      <trkpt lat="40.732425" lon="-4.095325">
        <ele>1271.0</ele>
        <time>2018-05-26T09:49:33.156Z</time>
      </trkpt>
      <trkpt lat="40.73242667" lon="-4.09535167">
        <ele>1271.0</ele>
        <time>2018-05-26T09:49:34.175Z</time>
      </trkpt>
      <trkpt lat="40.73242667" lon="-4.09535167">
        <ele>1271.0</ele>
        <time>2018-05-26T09:49:35.143Z</time>
      </trkpt>
      <trkpt lat="40.73242" lon="-4.09539667">
        <ele>1271.0</ele>
        <time>2018-05-26T09:49:36.152Z</time>
      </trkpt>
      <trkpt lat="40.73242" lon="-4.09539667">
        <ele>1271.0</ele>
        <time>2018-05-26T09:49:37.158Z</time>
      </trkpt>
      <trkpt lat="40.732425" lon="-4.09543833">
        <ele>1272.0</ele>
        <time>2018-05-26T09:49:38.166Z</time>
      </trkpt>
      <trkpt lat="40.73243" lon="-4.09546333">
        <ele>1272.0</ele>
        <time>2018-05-26T09:49:39.147Z</time>
      </trkpt>
      <trkpt lat="40.73243" lon="-4.09546333">
        <ele>1272.0</ele>
        <time>2018-05-26T09:49:40.153Z</time>
      </trkpt>
      <trkpt lat="40.73244167" lon="-4.09550667">
        <ele>1272.0</ele>
        <time>2018-05-26T09:49:41.162Z</time>
      </trkpt>
      <trkpt lat="40.73244167" lon="-4.09550667">
        <ele>1272.0</ele>
        <time>2018-05-26T09:49:42.168Z</time>
      </trkpt>
      <trkpt lat="40.73245167" lon="-4.095545">
        <ele>1273.0</ele>
        <time>2018-05-26T09:49:43.146Z</time>
      </trkpt>
      <trkpt lat="40.73245833" lon="-4.09556667">
        <ele>1273.0</ele>
        <time>2018-05-26T09:49:44.153Z</time>
      </trkpt>
      <trkpt lat="40.73247" lon="-4.095585">
        <ele>1274.0</ele>
        <time>2018-05-26T09:49:45.171Z</time>
      </trkpt>
      <trkpt lat="40.73247" lon="-4.095585">
        <ele>1274.0</ele>
        <time>2018-05-26T09:49:46.137Z</time>
      </trkpt>
      <trkpt lat="40.732495" lon="-4.09562333">
        <ele>1274.0</ele>
        <time>2018-05-26T09:49:47.139Z</time>
      </trkpt>
      <trkpt lat="40.732495" lon="-4.09562333">
        <ele>1274.0</ele>
        <time>2018-05-26T09:49:48.145Z</time>
      </trkpt>
      <trkpt lat="40.73251667" lon="-4.09566333">
        <ele>1274.0</ele>
        <time>2018-05-26T09:49:49.152Z</time>
      </trkpt>
      <trkpt lat="40.73251667" lon="-4.09566333">
        <ele>1274.0</ele>
        <time>2018-05-26T09:49:50.158Z</time>
      </trkpt>
      <trkpt lat="40.73254167" lon="-4.095705">
        <ele>1274.0</ele>
        <time>2018-05-26T09:49:51.166Z</time>
      </trkpt>
      <trkpt lat="40.73254167" lon="-4.095705">
        <ele>1274.0</ele>
        <time>2018-05-26T09:49:52.173Z</time>
      </trkpt>
      <trkpt lat="40.73256333" lon="-4.09573833">
        <ele>1275.0</ele>
        <time>2018-05-26T09:49:53.140Z</time>
      </trkpt>
      <trkpt lat="40.73257167" lon="-4.095755">
        <ele>1275.0</ele>
        <time>2018-05-26T09:49:54.158Z</time>
      </trkpt>
      <trkpt lat="40.73257167" lon="-4.095755">
        <ele>1275.0</ele>
        <time>2018-05-26T09:49:55.164Z</time>
      </trkpt>
      <trkpt lat="40.73259667" lon="-4.09578833">
        <ele>1275.0</ele>
        <time>2018-05-26T09:49:56.171Z</time>
      </trkpt>
      <trkpt lat="40.73260667" lon="-4.09580833">
        <ele>1275.0</ele>
        <time>2018-05-26T09:49:57.141Z</time>
      </trkpt>
      <trkpt lat="40.73260667" lon="-4.09580833">
        <ele>1275.0</ele>
        <time>2018-05-26T09:49:58.147Z</time>
      </trkpt>
      <trkpt lat="40.73262333" lon="-4.09584833">
        <ele>1276.0</ele>
        <time>2018-05-26T09:49:59.154Z</time>
      </trkpt>
      <trkpt lat="40.73263167" lon="-4.09586833">
        <ele>1276.0</ele>
        <time>2018-05-26T09:50:00.157Z</time>
      </trkpt>
      <trkpt lat="40.73263167" lon="-4.09586833">
        <ele>1276.0</ele>
        <time>2018-05-26T09:50:01.154Z</time>
      </trkpt>
      <trkpt lat="40.73265" lon="-4.09591167">
        <ele>1276.0</ele>
        <time>2018-05-26T09:50:02.162Z</time>
      </trkpt>
      <trkpt lat="40.73265" lon="-4.09591167">
        <ele>1276.0</ele>
        <time>2018-05-26T09:50:03.168Z</time>
      </trkpt>
      <trkpt lat="40.73266333" lon="-4.09596">
        <ele>1276.0</ele>
        <time>2018-05-26T09:50:04.140Z</time>
      </trkpt>
      <trkpt lat="40.73266333" lon="-4.09596">
        <ele>1276.0</ele>
        <time>2018-05-26T09:50:05.147Z</time>
      </trkpt>
      <trkpt lat="40.732675" lon="-4.09601">
        <ele>1276.0</ele>
        <time>2018-05-26T09:50:06.154Z</time>
      </trkpt>
      <trkpt lat="40.732675" lon="-4.09601">
        <ele>1276.0</ele>
        <time>2018-05-26T09:50:07.161Z</time>
      </trkpt>
      <trkpt lat="40.732685" lon="-4.09606">
        <ele>1276.0</ele>
        <time>2018-05-26T09:50:08.169Z</time>
      </trkpt>
      <trkpt lat="40.732685" lon="-4.09606">
        <ele>1276.0</ele>
        <time>2018-05-26T09:50:09.161Z</time>
      </trkpt>
      <trkpt lat="40.73269667" lon="-4.09611167">
        <ele>1276.0</ele>
        <time>2018-05-26T09:50:10.158Z</time>
      </trkpt>
      <trkpt lat="40.73269667" lon="-4.09611167">
        <ele>1276.0</ele>
        <time>2018-05-26T09:50:11.164Z</time>
      </trkpt>
      <trkpt lat="40.732705" lon="-4.09616333">
        <ele>1276.0</ele>
        <time>2018-05-26T09:50:12.173Z</time>
      </trkpt>
      <trkpt lat="40.732705" lon="-4.09616333">
        <ele>1276.0</ele>
        <time>2018-05-26T09:50:13.140Z</time>
      </trkpt>
      <trkpt lat="40.73271333" lon="-4.09621333">
        <ele>1277.0</ele>
        <time>2018-05-26T09:50:14.139Z</time>
      </trkpt>
      <trkpt lat="40.73271333" lon="-4.09621333">
        <ele>1277.0</ele>
        <time>2018-05-26T09:50:15.146Z</time>
      </trkpt>
      <trkpt lat="40.73271667" lon="-4.096265">
        <ele>1277.0</ele>
        <time>2018-05-26T09:50:16.168Z</time>
      </trkpt>
      <trkpt lat="40.73272" lon="-4.09629">
        <ele>1277.0</ele>
        <time>2018-05-26T09:50:17.152Z</time>
      </trkpt>
      <trkpt lat="40.73272" lon="-4.09629">
        <ele>1277.0</ele>
        <time>2018-05-26T09:50:18.158Z</time>
      </trkpt>
      <trkpt lat="40.73272167" lon="-4.09634">
        <ele>1277.0</ele>
        <time>2018-05-26T09:50:19.137Z</time>
      </trkpt>
      <trkpt lat="40.73272667" lon="-4.096365">
        <ele>1277.0</ele>
        <time>2018-05-26T09:50:20.138Z</time>
      </trkpt>
      <trkpt lat="40.73272667" lon="-4.096365">
        <ele>1277.0</ele>
        <time>2018-05-26T09:50:21.144Z</time>
      </trkpt>
      <trkpt lat="40.73274167" lon="-4.09641">
        <ele>1277.0</ele>
        <time>2018-05-26T09:50:22.152Z</time>
      </trkpt>
      <trkpt lat="40.73274167" lon="-4.09641">
        <ele>1277.0</ele>
        <time>2018-05-26T09:50:23.157Z</time>
      </trkpt>
      <trkpt lat="40.732745" lon="-4.09646167">
        <ele>1278.0</ele>
        <time>2018-05-26T09:50:24.138Z</time>
      </trkpt>
      <trkpt lat="40.73274667" lon="-4.09648833">
        <ele>1278.0</ele>
        <time>2018-05-26T09:50:25.146Z</time>
      </trkpt>
      <trkpt lat="40.73274667" lon="-4.09648833">
        <ele>1278.0</ele>
        <time>2018-05-26T09:50:26.152Z</time>
      </trkpt>
      <trkpt lat="40.73275667" lon="-4.096535">
        <ele>1278.0</ele>
        <time>2018-05-26T09:50:27.157Z</time>
      </trkpt>
      <trkpt lat="40.73275667" lon="-4.096535">
        <ele>1278.0</ele>
        <time>2018-05-26T09:50:28.163Z</time>
      </trkpt>
      <trkpt lat="40.73276667" lon="-4.096575">
        <ele>1279.0</ele>
        <time>2018-05-26T09:50:29.170Z</time>
      </trkpt>
      <trkpt lat="40.73276667" lon="-4.096575">
        <ele>1279.0</ele>
        <time>2018-05-26T09:50:30.158Z</time>
      </trkpt>
      <trkpt lat="40.73278" lon="-4.096615">
        <ele>1279.0</ele>
        <time>2018-05-26T09:50:31.139Z</time>
      </trkpt>
      <trkpt lat="40.73278" lon="-4.096615">
        <ele>1279.0</ele>
        <time>2018-05-26T09:50:32.146Z</time>
      </trkpt>
      <trkpt lat="40.732795" lon="-4.096655">
        <ele>1280.0</ele>
        <time>2018-05-26T09:50:33.137Z</time>
      </trkpt>
      <trkpt lat="40.732795" lon="-4.096655">
        <ele>1280.0</ele>
        <time>2018-05-26T09:50:34.164Z</time>
      </trkpt>
      <trkpt lat="40.73281" lon="-4.09669333">
        <ele>1280.0</ele>
        <time>2018-05-26T09:50:35.171Z</time>
      </trkpt>
      <trkpt lat="40.73281" lon="-4.09669333">
        <ele>1280.0</ele>
        <time>2018-05-26T09:50:36.137Z</time>
      </trkpt>
      <trkpt lat="40.732825" lon="-4.09672667">
        <ele>1281.0</ele>
        <time>2018-05-26T09:50:37.157Z</time>
      </trkpt>
      <trkpt lat="40.73283167" lon="-4.09674333">
        <ele>1281.0</ele>
        <time>2018-05-26T09:50:38.137Z</time>
      </trkpt>
      <trkpt lat="40.73283167" lon="-4.09674333">
        <ele>1281.0</ele>
        <time>2018-05-26T09:50:39.144Z</time>
      </trkpt>
      <trkpt lat="40.73284667" lon="-4.09678">
        <ele>1281.0</ele>
        <time>2018-05-26T09:50:40.151Z</time>
      </trkpt>
      <trkpt lat="40.73285333" lon="-4.09679833">
        <ele>1281.0</ele>
        <time>2018-05-26T09:50:41.157Z</time>
      </trkpt>
      <trkpt lat="40.73286" lon="-4.09681667">
        <ele>1282.0</ele>
        <time>2018-05-26T09:50:42.155Z</time>
      </trkpt>
      <trkpt lat="40.73286" lon="-4.09681667">
        <ele>1282.0</ele>
        <time>2018-05-26T09:50:43.162Z</time>
      </trkpt>
      <trkpt lat="40.732875" lon="-4.096855">
        <ele>1282.0</ele>
        <time>2018-05-26T09:50:44.169Z</time>
      </trkpt>
      <trkpt lat="40.732875" lon="-4.096855">
        <ele>1282.0</ele>
        <time>2018-05-26T09:50:45.175Z</time>
      </trkpt>
      <trkpt lat="40.73289167" lon="-4.09689333">
        <ele>1282.0</ele>
        <time>2018-05-26T09:50:46.168Z</time>
      </trkpt>
      <trkpt lat="40.73289167" lon="-4.09689333">
        <ele>1282.0</ele>
        <time>2018-05-26T09:50:47.174Z</time>
      </trkpt>
      <trkpt lat="40.73290833" lon="-4.09693">
        <ele>1283.0</ele>
        <time>2018-05-26T09:50:48.144Z</time>
      </trkpt>
      <trkpt lat="40.73291667" lon="-4.09694667">
        <ele>1283.0</ele>
        <time>2018-05-26T09:50:49.159Z</time>
      </trkpt>
      <trkpt lat="40.73291667" lon="-4.09694667">
        <ele>1283.0</ele>
        <time>2018-05-26T09:50:50.165Z</time>
      </trkpt>
      <trkpt lat="40.73293333" lon="-4.09698167">
        <ele>1284.0</ele>
        <time>2018-05-26T09:50:51.173Z</time>
      </trkpt>
      <trkpt lat="40.73293333" lon="-4.09698167">
        <ele>1284.0</ele>
        <time>2018-05-26T09:50:52.141Z</time>
      </trkpt>
      <trkpt lat="40.73294833" lon="-4.09702">
        <ele>1284.0</ele>
        <time>2018-05-26T09:50:53.159Z</time>
      </trkpt>
      <trkpt lat="40.73295833" lon="-4.09703667">
        <ele>1285.0</ele>
        <time>2018-05-26T09:50:54.165Z</time>
      </trkpt>
      <trkpt lat="40.73295833" lon="-4.09703667">
        <ele>1285.0</ele>
        <time>2018-05-26T09:50:55.171Z</time>
      </trkpt>
      <trkpt lat="40.732985" lon="-4.097065">
        <ele>1285.0</ele>
        <time>2018-05-26T09:50:56.164Z</time>
      </trkpt>
      <trkpt lat="40.732995" lon="-4.09708333">
        <ele>1285.0</ele>
        <time>2018-05-26T09:50:57.171Z</time>
      </trkpt>
      <trkpt lat="40.732995" lon="-4.09708333">
        <ele>1285.0</ele>
        <time>2018-05-26T09:50:58.140Z</time>
      </trkpt>
      <trkpt lat="40.73301167" lon="-4.09712">
        <ele>1285.0</ele>
        <time>2018-05-26T09:50:59.169Z</time>
      </trkpt>
      <trkpt lat="40.73301167" lon="-4.09712">
        <ele>1285.0</ele>
        <time>2018-05-26T09:51:00.141Z</time>
      </trkpt>
      <trkpt lat="40.73302833" lon="-4.09715833">
        <ele>1286.0</ele>
        <time>2018-05-26T09:51:01.145Z</time>
      </trkpt>
      <trkpt lat="40.73303667" lon="-4.09717833">
        <ele>1286.0</ele>
        <time>2018-05-26T09:51:02.154Z</time>
      </trkpt>
      <trkpt lat="40.73304667" lon="-4.09719667">
        <ele>1286.0</ele>
        <time>2018-05-26T09:51:03.161Z</time>
      </trkpt>
      <trkpt lat="40.73305667" lon="-4.09721333">
        <ele>1286.0</ele>
        <time>2018-05-26T09:51:04.140Z</time>
      </trkpt>
      <trkpt lat="40.73305667" lon="-4.09721333">
        <ele>1286.0</ele>
        <time>2018-05-26T09:51:05.146Z</time>
      </trkpt>
      <trkpt lat="40.73308" lon="-4.097245">
        <ele>1286.0</ele>
        <time>2018-05-26T09:51:06.157Z</time>
      </trkpt>
      <trkpt lat="40.73308" lon="-4.097245">
        <ele>1286.0</ele>
        <time>2018-05-26T09:51:07.168Z</time>
      </trkpt>
      <trkpt lat="40.73310167" lon="-4.09727667">
        <ele>1287.0</ele>
        <time>2018-05-26T09:51:08.140Z</time>
      </trkpt>
      <trkpt lat="40.73311333" lon="-4.09729167">
        <ele>1287.0</ele>
        <time>2018-05-26T09:51:09.147Z</time>
      </trkpt>
      <trkpt lat="40.73311333" lon="-4.09729167">
        <ele>1287.0</ele>
        <time>2018-05-26T09:51:10.153Z</time>
      </trkpt>
      <trkpt lat="40.73313333" lon="-4.09732833">
        <ele>1287.0</ele>
        <time>2018-05-26T09:51:11.160Z</time>
      </trkpt>
      <trkpt lat="40.73313333" lon="-4.09732833">
        <ele>1287.0</ele>
        <time>2018-05-26T09:51:12.165Z</time>
      </trkpt>
      <trkpt lat="40.73315833" lon="-4.09736167">
        <ele>1287.0</ele>
        <time>2018-05-26T09:51:13.138Z</time>
      </trkpt>
      <trkpt lat="40.73316833" lon="-4.09737333">
        <ele>1288.0</ele>
        <time>2018-05-26T09:51:14.146Z</time>
      </trkpt>
      <trkpt lat="40.73316833" lon="-4.09737333">
        <ele>1288.0</ele>
        <time>2018-05-26T09:51:15.153Z</time>
      </trkpt>
      <trkpt lat="40.73319333" lon="-4.09740333">
        <ele>1288.0</ele>
        <time>2018-05-26T09:51:16.157Z</time>
      </trkpt>
      <trkpt lat="40.73320667" lon="-4.09742">
        <ele>1289.0</ele>
        <time>2018-05-26T09:51:17.155Z</time>
      </trkpt>
      <trkpt lat="40.73320667" lon="-4.09742">
        <ele>1289.0</ele>
        <time>2018-05-26T09:51:18.162Z</time>
      </trkpt>
      <trkpt lat="40.73322667" lon="-4.09745167">
        <ele>1289.0</ele>
        <time>2018-05-26T09:51:19.169Z</time>
      </trkpt>
      <trkpt lat="40.73323833" lon="-4.097465">
        <ele>1289.0</ele>
        <time>2018-05-26T09:51:20.168Z</time>
      </trkpt>
      <trkpt lat="40.73323833" lon="-4.097465">
        <ele>1289.0</ele>
        <time>2018-05-26T09:51:21.175Z</time>
      </trkpt>
      <trkpt lat="40.73326" lon="-4.097485">
        <ele>1289.0</ele>
        <time>2018-05-26T09:51:22.142Z</time>
      </trkpt>
      <trkpt lat="40.73327" lon="-4.09749833">
        <ele>1290.0</ele>
        <time>2018-05-26T09:51:23.148Z</time>
      </trkpt>
      <trkpt lat="40.73327" lon="-4.09749833">
        <ele>1290.0</ele>
        <time>2018-05-26T09:51:24.154Z</time>
      </trkpt>
      <trkpt lat="40.73329" lon="-4.09752833">
        <ele>1290.0</ele>
        <time>2018-05-26T09:51:25.162Z</time>
      </trkpt>
      <trkpt lat="40.73329" lon="-4.09752833">
        <ele>1290.0</ele>
        <time>2018-05-26T09:51:26.168Z</time>
      </trkpt>
      <trkpt lat="40.73331167" lon="-4.09756">
        <ele>1290.0</ele>
        <time>2018-05-26T09:51:27.139Z</time>
      </trkpt>
      <trkpt lat="40.73331167" lon="-4.09756">
        <ele>1290.0</ele>
        <time>2018-05-26T09:51:28.144Z</time>
      </trkpt>
      <trkpt lat="40.73333167" lon="-4.09759333">
        <ele>1290.0</ele>
        <time>2018-05-26T09:51:29.152Z</time>
      </trkpt>
      <trkpt lat="40.73334167" lon="-4.09760833">
        <ele>1291.0</ele>
        <time>2018-05-26T09:51:30.159Z</time>
      </trkpt>
      <trkpt lat="40.73334167" lon="-4.09760833">
        <ele>1291.0</ele>
        <time>2018-05-26T09:51:31.165Z</time>
      </trkpt>
      <trkpt lat="40.73336" lon="-4.09764">
        <ele>1291.0</ele>
        <time>2018-05-26T09:51:32.172Z</time>
      </trkpt>
      <trkpt lat="40.73336" lon="-4.09764">
        <ele>1291.0</ele>
        <time>2018-05-26T09:51:33.143Z</time>
      </trkpt>
      <trkpt lat="40.73337833" lon="-4.097675">
        <ele>1292.0</ele>
        <time>2018-05-26T09:51:34.150Z</time>
      </trkpt>
      <trkpt lat="40.73337833" lon="-4.097675">
        <ele>1292.0</ele>
        <time>2018-05-26T09:51:35.156Z</time>
      </trkpt>
      <trkpt lat="40.73339667" lon="-4.09771">
        <ele>1292.0</ele>
        <time>2018-05-26T09:51:36.136Z</time>
      </trkpt>
      <trkpt lat="40.733405" lon="-4.09772833">
        <ele>1292.0</ele>
        <time>2018-05-26T09:51:37.153Z</time>
      </trkpt>
      <trkpt lat="40.733405" lon="-4.09772833">
        <ele>1292.0</ele>
        <time>2018-05-26T09:51:38.160Z</time>
      </trkpt>
      <trkpt lat="40.73342333" lon="-4.097765">
        <ele>1293.0</ele>
        <time>2018-05-26T09:51:39.166Z</time>
      </trkpt>
      <trkpt lat="40.73342333" lon="-4.097765">
        <ele>1293.0</ele>
        <time>2018-05-26T09:51:40.173Z</time>
      </trkpt>
      <trkpt lat="40.73343833" lon="-4.09780333">
        <ele>1293.0</ele>
        <time>2018-05-26T09:51:41.159Z</time>
      </trkpt>
      <trkpt lat="40.73344333" lon="-4.09782167">
        <ele>1293.0</ele>
        <time>2018-05-26T09:51:42.166Z</time>
      </trkpt>
      <trkpt lat="40.73344333" lon="-4.09782167">
        <ele>1293.0</ele>
        <time>2018-05-26T09:51:43.172Z</time>
      </trkpt>
      <trkpt lat="40.733455" lon="-4.09785833">
        <ele>1294.0</ele>
        <time>2018-05-26T09:51:44.159Z</time>
      </trkpt>
      <trkpt lat="40.733455" lon="-4.09785833">
        <ele>1294.0</ele>
        <time>2018-05-26T09:51:45.165Z</time>
      </trkpt>
      <trkpt lat="40.73347" lon="-4.09789667">
        <ele>1294.0</ele>
        <time>2018-05-26T09:51:46.136Z</time>
      </trkpt>
      <trkpt lat="40.73347" lon="-4.09789667">
        <ele>1294.0</ele>
        <time>2018-05-26T09:51:47.142Z</time>
      </trkpt>
      <trkpt lat="40.73348333" lon="-4.09793333">
        <ele>1295.0</ele>
        <time>2018-05-26T09:51:48.166Z</time>
      </trkpt>
      <trkpt lat="40.73348333" lon="-4.09793333">
        <ele>1295.0</ele>
        <time>2018-05-26T09:51:49.173Z</time>
      </trkpt>
      <trkpt lat="40.73349333" lon="-4.097975">
        <ele>1295.0</ele>
        <time>2018-05-26T09:51:50.140Z</time>
      </trkpt>
      <trkpt lat="40.73349333" lon="-4.097975">
        <ele>1295.0</ele>
        <time>2018-05-26T09:51:51.147Z</time>
      </trkpt>
      <trkpt lat="40.73350333" lon="-4.09801333">
        <ele>1296.0</ele>
        <time>2018-05-26T09:51:52.166Z</time>
      </trkpt>
      <trkpt lat="40.73350333" lon="-4.09801333">
        <ele>1296.0</ele>
        <time>2018-05-26T09:51:53.172Z</time>
      </trkpt>
      <trkpt lat="40.73351167" lon="-4.09805">
        <ele>1297.0</ele>
        <time>2018-05-26T09:51:54.139Z</time>
      </trkpt>
      <trkpt lat="40.73351167" lon="-4.09805">
        <ele>1297.0</ele>
        <time>2018-05-26T09:51:55.145Z</time>
      </trkpt>
      <trkpt lat="40.73352333" lon="-4.09808667">
        <ele>1298.0</ele>
        <time>2018-05-26T09:51:56.158Z</time>
      </trkpt>
      <trkpt lat="40.733525" lon="-4.09811">
        <ele>1298.0</ele>
        <time>2018-05-26T09:51:57.166Z</time>
      </trkpt>
      <trkpt lat="40.733525" lon="-4.09811">
        <ele>1298.0</ele>
        <time>2018-05-26T09:51:58.172Z</time>
      </trkpt>
      <trkpt lat="40.733525" lon="-4.09815667">
        <ele>1300.0</ele>
        <time>2018-05-26T09:51:59.168Z</time>
      </trkpt>
      <trkpt lat="40.733525" lon="-4.09815667">
        <ele>1300.0</ele>
        <time>2018-05-26T09:52:00.137Z</time>
      </trkpt>
      <trkpt lat="40.73353" lon="-4.09819667">
        <ele>1300.0</ele>
        <time>2018-05-26T09:52:01.166Z</time>
      </trkpt>
      <trkpt lat="40.73353" lon="-4.09819667">
        <ele>1300.0</ele>
        <time>2018-05-26T09:52:02.174Z</time>
      </trkpt>
      <trkpt lat="40.733545" lon="-4.09823333">
        <ele>1301.0</ele>
        <time>2018-05-26T09:52:03.144Z</time>
      </trkpt>
      <trkpt lat="40.733545" lon="-4.09823333">
        <ele>1301.0</ele>
        <time>2018-05-26T09:52:04.151Z</time>
      </trkpt>
      <trkpt lat="40.73356833" lon="-4.09826167">
        <ele>1301.0</ele>
        <time>2018-05-26T09:52:05.148Z</time>
      </trkpt>
      <trkpt lat="40.73356833" lon="-4.09826167">
        <ele>1301.0</ele>
        <time>2018-05-26T09:52:06.154Z</time>
      </trkpt>
      <trkpt lat="40.73359" lon="-4.09829167">
        <ele>1302.0</ele>
        <time>2018-05-26T09:52:07.167Z</time>
      </trkpt>
      <trkpt lat="40.73360333" lon="-4.09830667">
        <ele>1302.0</ele>
        <time>2018-05-26T09:52:08.150Z</time>
      </trkpt>
      <trkpt lat="40.73360333" lon="-4.09830667">
        <ele>1302.0</ele>
        <time>2018-05-26T09:52:09.156Z</time>
      </trkpt>
      <trkpt lat="40.73361833" lon="-4.09834333">
        <ele>1303.0</ele>
        <time>2018-05-26T09:52:10.163Z</time>
      </trkpt>
      <trkpt lat="40.73361833" lon="-4.09834333">
        <ele>1303.0</ele>
        <time>2018-05-26T09:52:11.173Z</time>
      </trkpt>
      <trkpt lat="40.73363167" lon="-4.09838667">
        <ele>1303.0</ele>
        <time>2018-05-26T09:52:12.154Z</time>
      </trkpt>
      <trkpt lat="40.73363167" lon="-4.09838667">
        <ele>1303.0</ele>
        <time>2018-05-26T09:52:13.160Z</time>
      </trkpt>
      <trkpt lat="40.733645" lon="-4.09843">
        <ele>1304.0</ele>
        <time>2018-05-26T09:52:14.167Z</time>
      </trkpt>
      <trkpt lat="40.73364833" lon="-4.09845167">
        <ele>1304.0</ele>
        <time>2018-05-26T09:52:15.159Z</time>
      </trkpt>
      <trkpt lat="40.73364833" lon="-4.09845167">
        <ele>1304.0</ele>
        <time>2018-05-26T09:52:16.165Z</time>
      </trkpt>
      <trkpt lat="40.73365333" lon="-4.09849667">
        <ele>1304.0</ele>
        <time>2018-05-26T09:52:17.138Z</time>
      </trkpt>
      <trkpt lat="40.73365333" lon="-4.09849667">
        <ele>1304.0</ele>
        <time>2018-05-26T09:52:18.167Z</time>
      </trkpt>
      <trkpt lat="40.733655" lon="-4.09854167">
        <ele>1305.0</ele>
        <time>2018-05-26T09:52:19.159Z</time>
      </trkpt>
      <trkpt lat="40.733655" lon="-4.09854167">
        <ele>1305.0</ele>
        <time>2018-05-26T09:52:20.165Z</time>
      </trkpt>
      <trkpt lat="40.73365667" lon="-4.09858667">
        <ele>1305.0</ele>
        <time>2018-05-26T09:52:21.172Z</time>
      </trkpt>
      <trkpt lat="40.73365667" lon="-4.09858667">
        <ele>1305.0</ele>
        <time>2018-05-26T09:52:22.139Z</time>
      </trkpt>
      <trkpt lat="40.73366333" lon="-4.09862833">
        <ele>1305.0</ele>
        <time>2018-05-26T09:52:23.147Z</time>
      </trkpt>
      <trkpt lat="40.73366333" lon="-4.09862833">
        <ele>1305.0</ele>
        <time>2018-05-26T09:52:24.153Z</time>
      </trkpt>
      <trkpt lat="40.73368333" lon="-4.09866833">
        <ele>1305.0</ele>
        <time>2018-05-26T09:52:25.160Z</time>
      </trkpt>
      <trkpt lat="40.73368333" lon="-4.09866833">
        <ele>1305.0</ele>
        <time>2018-05-26T09:52:26.167Z</time>
      </trkpt>
      <trkpt lat="40.73370333" lon="-4.098705">
        <ele>1306.0</ele>
        <time>2018-05-26T09:52:27.159Z</time>
      </trkpt>
      <trkpt lat="40.73370333" lon="-4.098705">
        <ele>1306.0</ele>
        <time>2018-05-26T09:52:28.164Z</time>
      </trkpt>
      <trkpt lat="40.733725" lon="-4.098735">
        <ele>1306.0</ele>
        <time>2018-05-26T09:52:29.172Z</time>
      </trkpt>
      <trkpt lat="40.733725" lon="-4.098735">
        <ele>1306.0</ele>
        <time>2018-05-26T09:52:30.139Z</time>
      </trkpt>
      <trkpt lat="40.73375333" lon="-4.09875667">
        <ele>1306.0</ele>
        <time>2018-05-26T09:52:31.169Z</time>
      </trkpt>
      <trkpt lat="40.73375333" lon="-4.09875667">
        <ele>1306.0</ele>
        <time>2018-05-26T09:52:32.136Z</time>
      </trkpt>
      <trkpt lat="40.73378667" lon="-4.09877">
        <ele>1307.0</ele>
        <time>2018-05-26T09:52:33.138Z</time>
      </trkpt>
      <trkpt lat="40.73378667" lon="-4.09877">
        <ele>1307.0</ele>
        <time>2018-05-26T09:52:34.144Z</time>
      </trkpt>
      <trkpt lat="40.73381667" lon="-4.098775">
        <ele>1307.0</ele>
        <time>2018-05-26T09:52:35.145Z</time>
      </trkpt>
      <trkpt lat="40.73381667" lon="-4.098775">
        <ele>1307.0</ele>
        <time>2018-05-26T09:52:36.151Z</time>
      </trkpt>
      <trkpt lat="40.73384333" lon="-4.09875667">
        <ele>1308.0</ele>
        <time>2018-05-26T09:52:37.168Z</time>
      </trkpt>
      <trkpt lat="40.73384333" lon="-4.09875667">
        <ele>1308.0</ele>
        <time>2018-05-26T09:52:38.175Z</time>
      </trkpt>
      <trkpt lat="40.73387167" lon="-4.09872667">
        <ele>1308.0</ele>
        <time>2018-05-26T09:52:39.144Z</time>
      </trkpt>
      <trkpt lat="40.73387167" lon="-4.09872667">
        <ele>1308.0</ele>
        <time>2018-05-26T09:52:40.157Z</time>
      </trkpt>
      <trkpt lat="40.73389" lon="-4.09869">
        <ele>1309.0</ele>
        <time>2018-05-26T09:52:41.158Z</time>
      </trkpt>
      <trkpt lat="40.7339" lon="-4.09867">
        <ele>1309.0</ele>
        <time>2018-05-26T09:52:42.169Z</time>
      </trkpt>
      <trkpt lat="40.7339" lon="-4.09867">
        <ele>1309.0</ele>
        <time>2018-05-26T09:52:43.136Z</time>
      </trkpt>
      <trkpt lat="40.73391667" lon="-4.09862333">
        <ele>1310.0</ele>
        <time>2018-05-26T09:52:44.159Z</time>
      </trkpt>
      <trkpt lat="40.73392333" lon="-4.0986">
        <ele>1310.0</ele>
        <time>2018-05-26T09:52:45.166Z</time>
      </trkpt>
      <trkpt lat="40.73392333" lon="-4.0986">
        <ele>1310.0</ele>
        <time>2018-05-26T09:52:46.173Z</time>
      </trkpt>
      <trkpt lat="40.73394167" lon="-4.09856">
        <ele>1310.0</ele>
        <time>2018-05-26T09:52:47.156Z</time>
      </trkpt>
      <trkpt lat="40.73394167" lon="-4.09856">
        <ele>1310.0</ele>
        <time>2018-05-26T09:52:48.162Z</time>
      </trkpt>
      <trkpt lat="40.73395833" lon="-4.098515">
        <ele>1311.0</ele>
        <time>2018-05-26T09:52:49.170Z</time>
      </trkpt>
      <trkpt lat="40.73395833" lon="-4.098515">
        <ele>1311.0</ele>
        <time>2018-05-26T09:52:50.137Z</time>
      </trkpt>
      <trkpt lat="40.73397667" lon="-4.09847167">
        <ele>1311.0</ele>
        <time>2018-05-26T09:52:51.136Z</time>
      </trkpt>
      <trkpt lat="40.73397667" lon="-4.09847167">
        <ele>1311.0</ele>
        <time>2018-05-26T09:52:52.143Z</time>
      </trkpt>
      <trkpt lat="40.73399833" lon="-4.09842833">
        <ele>1311.0</ele>
        <time>2018-05-26T09:52:53.152Z</time>
      </trkpt>
      <trkpt lat="40.73400833" lon="-4.09840667">
        <ele>1311.0</ele>
        <time>2018-05-26T09:52:54.145Z</time>
      </trkpt>
      <trkpt lat="40.73400833" lon="-4.09840667">
        <ele>1311.0</ele>
        <time>2018-05-26T09:52:55.151Z</time>
      </trkpt>
      <trkpt lat="40.73403167" lon="-4.09837167">
        <ele>1312.0</ele>
        <time>2018-05-26T09:52:56.158Z</time>
      </trkpt>
      <trkpt lat="40.734045" lon="-4.098355">
        <ele>1312.0</ele>
        <time>2018-05-26T09:52:57.155Z</time>
      </trkpt>
      <trkpt lat="40.734045" lon="-4.098355">
        <ele>1312.0</ele>
        <time>2018-05-26T09:52:58.161Z</time>
      </trkpt>
      <trkpt lat="40.73406667" lon="-4.09832">
        <ele>1312.0</ele>
        <time>2018-05-26T09:52:59.168Z</time>
      </trkpt>
      <trkpt lat="40.73406667" lon="-4.09832">
        <ele>1312.0</ele>
        <time>2018-05-26T09:53:00.139Z</time>
      </trkpt>
      <trkpt lat="40.73409" lon="-4.098285">
        <ele>1312.0</ele>
        <time>2018-05-26T09:53:01.142Z</time>
      </trkpt>
      <trkpt lat="40.73410333" lon="-4.09826833">
        <ele>1313.0</ele>
        <time>2018-05-26T09:53:02.150Z</time>
      </trkpt>
      <trkpt lat="40.734115" lon="-4.098255">
        <ele>1313.0</ele>
        <time>2018-05-26T09:53:03.157Z</time>
      </trkpt>
      <trkpt lat="40.734115" lon="-4.098255">
        <ele>1313.0</ele>
        <time>2018-05-26T09:53:04.164Z</time>
      </trkpt>
      <trkpt lat="40.73413833" lon="-4.09822667">
        <ele>1313.0</ele>
        <time>2018-05-26T09:53:05.172Z</time>
      </trkpt>
      <trkpt lat="40.73413833" lon="-4.09822667">
        <ele>1313.0</ele>
        <time>2018-05-26T09:53:06.139Z</time>
      </trkpt>
      <trkpt lat="40.73416167" lon="-4.098195">
        <ele>1314.0</ele>
        <time>2018-05-26T09:53:07.150Z</time>
      </trkpt>
      <trkpt lat="40.734175" lon="-4.09818">
        <ele>1314.0</ele>
        <time>2018-05-26T09:53:08.156Z</time>
      </trkpt>
      <trkpt lat="40.734175" lon="-4.09818">
        <ele>1314.0</ele>
        <time>2018-05-26T09:53:09.163Z</time>
      </trkpt>
      <trkpt lat="40.7342" lon="-4.09815333">
        <ele>1314.0</ele>
        <time>2018-05-26T09:53:10.172Z</time>
      </trkpt>
      <trkpt lat="40.73421333" lon="-4.09814">
        <ele>1314.0</ele>
        <time>2018-05-26T09:53:11.148Z</time>
      </trkpt>
      <trkpt lat="40.73421333" lon="-4.09814">
        <ele>1314.0</ele>
        <time>2018-05-26T09:53:12.155Z</time>
      </trkpt>
      <trkpt lat="40.73423833" lon="-4.09811333">
        <ele>1315.0</ele>
        <time>2018-05-26T09:53:13.162Z</time>
      </trkpt>
      <trkpt lat="40.73423833" lon="-4.09811333">
        <ele>1315.0</ele>
        <time>2018-05-26T09:53:14.168Z</time>
      </trkpt>
      <trkpt lat="40.73426833" lon="-4.0981">
        <ele>1316.0</ele>
        <time>2018-05-26T09:53:15.156Z</time>
      </trkpt>
      <trkpt lat="40.73426833" lon="-4.0981">
        <ele>1316.0</ele>
        <time>2018-05-26T09:53:16.163Z</time>
      </trkpt>
      <trkpt lat="40.73430333" lon="-4.0981">
        <ele>1316.0</ele>
        <time>2018-05-26T09:53:17.172Z</time>
      </trkpt>
      <trkpt lat="40.73432" lon="-4.098095">
        <ele>1316.0</ele>
        <time>2018-05-26T09:53:18.159Z</time>
      </trkpt>
      <trkpt lat="40.73432" lon="-4.098095">
        <ele>1316.0</ele>
        <time>2018-05-26T09:53:19.166Z</time>
      </trkpt>
      <trkpt lat="40.73435167" lon="-4.09808">
        <ele>1317.0</ele>
        <time>2018-05-26T09:53:20.173Z</time>
      </trkpt>
      <trkpt lat="40.73436833" lon="-4.09807167">
        <ele>1317.0</ele>
        <time>2018-05-26T09:53:21.139Z</time>
      </trkpt>
      <trkpt lat="40.73436833" lon="-4.09807167">
        <ele>1317.0</ele>
        <time>2018-05-26T09:53:22.173Z</time>
      </trkpt>
      <trkpt lat="40.7344" lon="-4.09805333">
        <ele>1317.0</ele>
        <time>2018-05-26T09:53:23.157Z</time>
      </trkpt>
      <trkpt lat="40.73441833" lon="-4.09804667">
        <ele>1317.0</ele>
        <time>2018-05-26T09:53:24.164Z</time>
      </trkpt>
      <trkpt lat="40.73441833" lon="-4.09804667">
        <ele>1317.0</ele>
        <time>2018-05-26T09:53:25.170Z</time>
      </trkpt>
      <trkpt lat="40.73445667" lon="-4.098035">
        <ele>1318.0</ele>
        <time>2018-05-26T09:53:26.141Z</time>
      </trkpt>
      <trkpt lat="40.73445667" lon="-4.098035">
        <ele>1318.0</ele>
        <time>2018-05-26T09:53:27.152Z</time>
      </trkpt>
      <trkpt lat="40.73449167" lon="-4.098025">
        <ele>1318.0</ele>
        <time>2018-05-26T09:53:28.160Z</time>
      </trkpt>
      <trkpt lat="40.73449167" lon="-4.098025">
        <ele>1318.0</ele>
        <time>2018-05-26T09:53:29.166Z</time>
      </trkpt>
      <trkpt lat="40.73452333" lon="-4.09801167">
        <ele>1319.0</ele>
        <time>2018-05-26T09:53:30.172Z</time>
      </trkpt>
      <trkpt lat="40.73452333" lon="-4.09801167">
        <ele>1319.0</ele>
        <time>2018-05-26T09:53:31.139Z</time>
      </trkpt>
      <trkpt lat="40.73454833" lon="-4.09797833">
        <ele>1319.0</ele>
        <time>2018-05-26T09:53:32.152Z</time>
      </trkpt>
      <trkpt lat="40.73454833" lon="-4.09797833">
        <ele>1319.0</ele>
        <time>2018-05-26T09:53:33.158Z</time>
      </trkpt>
      <trkpt lat="40.73456833" lon="-4.09794">
        <ele>1319.0</ele>
        <time>2018-05-26T09:53:34.165Z</time>
      </trkpt>
      <trkpt lat="40.73456833" lon="-4.09794">
        <ele>1319.0</ele>
        <time>2018-05-26T09:53:35.172Z</time>
      </trkpt>
      <trkpt lat="40.73459" lon="-4.09789667">
        <ele>1320.0</ele>
        <time>2018-05-26T09:53:36.158Z</time>
      </trkpt>
      <trkpt lat="40.73459" lon="-4.09789667">
        <ele>1320.0</ele>
        <time>2018-05-26T09:53:37.165Z</time>
      </trkpt>
      <trkpt lat="40.73461" lon="-4.09786333">
        <ele>1320.0</ele>
        <time>2018-05-26T09:53:38.147Z</time>
      </trkpt>
      <trkpt lat="40.73462" lon="-4.09784833">
        <ele>1320.0</ele>
        <time>2018-05-26T09:53:39.147Z</time>
      </trkpt>
      <trkpt lat="40.73462" lon="-4.09784833">
        <ele>1320.0</ele>
        <time>2018-05-26T09:53:40.154Z</time>
      </trkpt>
      <trkpt lat="40.734635" lon="-4.097805">
        <ele>1320.0</ele>
        <time>2018-05-26T09:53:41.161Z</time>
      </trkpt>
      <trkpt lat="40.734635" lon="-4.097805">
        <ele>1320.0</ele>
        <time>2018-05-26T09:53:42.167Z</time>
      </trkpt>
      <trkpt lat="40.73464667" lon="-4.09775167">
        <ele>1320.0</ele>
        <time>2018-05-26T09:53:43.139Z</time>
      </trkpt>
      <trkpt lat="40.73464667" lon="-4.09775167">
        <ele>1320.0</ele>
        <time>2018-05-26T09:53:44.146Z</time>
      </trkpt>
      <trkpt lat="40.73465667" lon="-4.09769167">
        <ele>1320.0</ele>
        <time>2018-05-26T09:53:45.153Z</time>
      </trkpt>
      <trkpt lat="40.73465667" lon="-4.09769167">
        <ele>1320.0</ele>
        <time>2018-05-26T09:53:46.160Z</time>
      </trkpt>
      <trkpt lat="40.73466667" lon="-4.09763167">
        <ele>1320.0</ele>
        <time>2018-05-26T09:53:47.157Z</time>
      </trkpt>
      <trkpt lat="40.73467333" lon="-4.09760667">
        <ele>1321.0</ele>
        <time>2018-05-26T09:53:48.165Z</time>
      </trkpt>
      <trkpt lat="40.73467333" lon="-4.09760667">
        <ele>1321.0</ele>
        <time>2018-05-26T09:53:49.171Z</time>
      </trkpt>
      <trkpt lat="40.73468667" lon="-4.09754833">
        <ele>1321.0</ele>
        <time>2018-05-26T09:53:50.146Z</time>
      </trkpt>
      <trkpt lat="40.73468667" lon="-4.09754833">
        <ele>1321.0</ele>
        <time>2018-05-26T09:53:51.152Z</time>
      </trkpt>
      <trkpt lat="40.73469833" lon="-4.097495">
        <ele>1321.0</ele>
        <time>2018-05-26T09:53:52.159Z</time>
      </trkpt>
      <trkpt lat="40.734705" lon="-4.09746333">
        <ele>1321.0</ele>
        <time>2018-05-26T09:53:53.139Z</time>
      </trkpt>
      <trkpt lat="40.734705" lon="-4.09746333">
        <ele>1321.0</ele>
        <time>2018-05-26T09:53:54.146Z</time>
      </trkpt>
      <trkpt lat="40.73471833" lon="-4.09740333">
        <ele>1321.0</ele>
        <time>2018-05-26T09:53:55.160Z</time>
      </trkpt>
      <trkpt lat="40.73471833" lon="-4.09740333">
        <ele>1321.0</ele>
        <time>2018-05-26T09:53:56.165Z</time>
      </trkpt>
      <trkpt lat="40.73473333" lon="-4.09734667">
        <ele>1321.0</ele>
        <time>2018-05-26T09:53:57.164Z</time>
      </trkpt>
      <trkpt lat="40.73473333" lon="-4.09734667">
        <ele>1321.0</ele>
        <time>2018-05-26T09:53:58.170Z</time>
      </trkpt>
      <trkpt lat="40.73474" lon="-4.09728667">
        <ele>1321.0</ele>
        <time>2018-05-26T09:53:59.141Z</time>
      </trkpt>
      <trkpt lat="40.73474667" lon="-4.09725667">
        <ele>1322.0</ele>
        <time>2018-05-26T09:54:00.156Z</time>
      </trkpt>
      <trkpt lat="40.73474667" lon="-4.09725667">
        <ele>1322.0</ele>
        <time>2018-05-26T09:54:01.152Z</time>
      </trkpt>
      <trkpt lat="40.73476167" lon="-4.09720833">
        <ele>1322.0</ele>
        <time>2018-05-26T09:54:02.159Z</time>
      </trkpt>
      <trkpt lat="40.73476167" lon="-4.09720833">
        <ele>1322.0</ele>
        <time>2018-05-26T09:54:03.166Z</time>
      </trkpt>
      <trkpt lat="40.73477333" lon="-4.097155">
        <ele>1322.0</ele>
        <time>2018-05-26T09:54:04.173Z</time>
      </trkpt>
      <trkpt lat="40.73477333" lon="-4.097155">
        <ele>1322.0</ele>
        <time>2018-05-26T09:54:05.142Z</time>
      </trkpt>
      <trkpt lat="40.734785" lon="-4.0971">
        <ele>1323.0</ele>
        <time>2018-05-26T09:54:06.136Z</time>
      </trkpt>
      <trkpt lat="40.734785" lon="-4.0971">
        <ele>1323.0</ele>
        <time>2018-05-26T09:54:07.143Z</time>
      </trkpt>
      <trkpt lat="40.73479667" lon="-4.09704667">
        <ele>1323.0</ele>
        <time>2018-05-26T09:54:08.157Z</time>
      </trkpt>
      <trkpt lat="40.7348" lon="-4.09702167">
        <ele>1323.0</ele>
        <time>2018-05-26T09:54:09.139Z</time>
      </trkpt>
      <trkpt lat="40.7348" lon="-4.09702167">
        <ele>1323.0</ele>
        <time>2018-05-26T09:54:10.146Z</time>
      </trkpt>
      <trkpt lat="40.73480833" lon="-4.09696833">
        <ele>1323.0</ele>
        <time>2018-05-26T09:54:11.153Z</time>
      </trkpt>
      <trkpt lat="40.73480833" lon="-4.09696833">
        <ele>1323.0</ele>
        <time>2018-05-26T09:54:12.159Z</time>
      </trkpt>
      <trkpt lat="40.73481833" lon="-4.096915">
        <ele>1323.0</ele>
        <time>2018-05-26T09:54:13.165Z</time>
      </trkpt>
      <trkpt lat="40.73482333" lon="-4.09688833">
        <ele>1324.0</ele>
        <time>2018-05-26T09:54:14.172Z</time>
      </trkpt>
      <trkpt lat="40.73482333" lon="-4.09688833">
        <ele>1324.0</ele>
        <time>2018-05-26T09:54:15.139Z</time>
      </trkpt>
      <trkpt lat="40.73483167" lon="-4.09683833">
        <ele>1324.0</ele>
        <time>2018-05-26T09:54:16.147Z</time>
      </trkpt>
      <trkpt lat="40.73483667" lon="-4.09681333">
        <ele>1324.0</ele>
        <time>2018-05-26T09:54:17.155Z</time>
      </trkpt>
      <trkpt lat="40.73483667" lon="-4.09681333">
        <ele>1324.0</ele>
        <time>2018-05-26T09:54:18.162Z</time>
      </trkpt>
      <trkpt lat="40.73484667" lon="-4.09676167">
        <ele>1324.0</ele>
        <time>2018-05-26T09:54:19.169Z</time>
      </trkpt>
      <trkpt lat="40.73485" lon="-4.09673667">
        <ele>1325.0</ele>
        <time>2018-05-26T09:54:20.159Z</time>
      </trkpt>
      <trkpt lat="40.73485" lon="-4.09671">
        <ele>1325.0</ele>
        <time>2018-05-26T09:54:21.166Z</time>
      </trkpt>
      <trkpt lat="40.73485" lon="-4.09671">
        <ele>1325.0</ele>
        <time>2018-05-26T09:54:22.172Z</time>
      </trkpt>
      <trkpt lat="40.73485667" lon="-4.096655">
        <ele>1325.0</ele>
        <time>2018-05-26T09:54:23.158Z</time>
      </trkpt>
      <trkpt lat="40.73486167" lon="-4.09662833">
        <ele>1325.0</ele>
        <time>2018-05-26T09:54:24.164Z</time>
      </trkpt>
      <trkpt lat="40.73486167" lon="-4.09662833">
        <ele>1325.0</ele>
        <time>2018-05-26T09:54:25.171Z</time>
      </trkpt>
      <trkpt lat="40.73487" lon="-4.096575">
        <ele>1326.0</ele>
        <time>2018-05-26T09:54:26.141Z</time>
      </trkpt>
      <trkpt lat="40.73487" lon="-4.096575">
        <ele>1326.0</ele>
        <time>2018-05-26T09:54:27.173Z</time>
      </trkpt>
      <trkpt lat="40.734885" lon="-4.09652333">
        <ele>1326.0</ele>
        <time>2018-05-26T09:54:28.162Z</time>
      </trkpt>
      <trkpt lat="40.734885" lon="-4.09652333">
        <ele>1326.0</ele>
        <time>2018-05-26T09:54:29.168Z</time>
      </trkpt>
      <trkpt lat="40.73489333" lon="-4.09647">
        <ele>1326.0</ele>
        <time>2018-05-26T09:54:30.174Z</time>
      </trkpt>
      <trkpt lat="40.73489333" lon="-4.09647">
        <ele>1326.0</ele>
        <time>2018-05-26T09:54:31.144Z</time>
      </trkpt>
      <trkpt lat="40.73490167" lon="-4.09641333">
        <ele>1327.0</ele>
        <time>2018-05-26T09:54:32.165Z</time>
      </trkpt>
      <trkpt lat="40.734905" lon="-4.09638667">
        <ele>1327.0</ele>
        <time>2018-05-26T09:54:33.155Z</time>
      </trkpt>
      <trkpt lat="40.734905" lon="-4.09638667">
        <ele>1327.0</ele>
        <time>2018-05-26T09:54:34.162Z</time>
      </trkpt>
      <trkpt lat="40.73491667" lon="-4.09633167">
        <ele>1327.0</ele>
        <time>2018-05-26T09:54:35.136Z</time>
      </trkpt>
      <trkpt lat="40.73491667" lon="-4.09633167">
        <ele>1327.0</ele>
        <time>2018-05-26T09:54:36.143Z</time>
      </trkpt>
      <trkpt lat="40.73493" lon="-4.09627667">
        <ele>1327.0</ele>
        <time>2018-05-26T09:54:37.161Z</time>
      </trkpt>
      <trkpt lat="40.73493833" lon="-4.09625167">
        <ele>1328.0</ele>
        <time>2018-05-26T09:54:38.159Z</time>
      </trkpt>
      <trkpt lat="40.73493833" lon="-4.09625167">
        <ele>1328.0</ele>
        <time>2018-05-26T09:54:39.150Z</time>
      </trkpt>
      <trkpt lat="40.73495167" lon="-4.09620167">
        <ele>1328.0</ele>
        <time>2018-05-26T09:54:40.139Z</time>
      </trkpt>
      <trkpt lat="40.73495667" lon="-4.09617833">
        <ele>1328.0</ele>
        <time>2018-05-26T09:54:41.146Z</time>
      </trkpt>
      <trkpt lat="40.73495667" lon="-4.09617833">
        <ele>1328.0</ele>
        <time>2018-05-26T09:54:42.152Z</time>
      </trkpt>
      <trkpt lat="40.73497167" lon="-4.09612833">
        <ele>1328.0</ele>
        <time>2018-05-26T09:54:43.172Z</time>
      </trkpt>
      <trkpt lat="40.73497167" lon="-4.09612833">
        <ele>1328.0</ele>
        <time>2018-05-26T09:54:44.138Z</time>
      </trkpt>
      <trkpt lat="40.73498833" lon="-4.09608167">
        <ele>1328.0</ele>
        <time>2018-05-26T09:54:45.145Z</time>
      </trkpt>
      <trkpt lat="40.73498833" lon="-4.09608167">
        <ele>1328.0</ele>
        <time>2018-05-26T09:54:46.151Z</time>
      </trkpt>
      <trkpt lat="40.73500167" lon="-4.09603667">
        <ele>1329.0</ele>
        <time>2018-05-26T09:54:47.151Z</time>
      </trkpt>
      <trkpt lat="40.73500167" lon="-4.09603667">
        <ele>1329.0</ele>
        <time>2018-05-26T09:54:48.158Z</time>
      </trkpt>
      <trkpt lat="40.73501833" lon="-4.09599167">
        <ele>1329.0</ele>
        <time>2018-05-26T09:54:49.144Z</time>
      </trkpt>
      <trkpt lat="40.73502667" lon="-4.09597">
        <ele>1329.0</ele>
        <time>2018-05-26T09:54:50.157Z</time>
      </trkpt>
      <trkpt lat="40.73502667" lon="-4.09597">
        <ele>1329.0</ele>
        <time>2018-05-26T09:54:51.163Z</time>
      </trkpt>
      <trkpt lat="40.73504833" lon="-4.09593">
        <ele>1330.0</ele>
        <time>2018-05-26T09:54:52.138Z</time>
      </trkpt>
      <trkpt lat="40.73504833" lon="-4.09593">
        <ele>1330.0</ele>
        <time>2018-05-26T09:54:53.144Z</time>
      </trkpt>
      <trkpt lat="40.73506833" lon="-4.09588833">
        <ele>1330.0</ele>
        <time>2018-05-26T09:54:54.158Z</time>
      </trkpt>
      <trkpt lat="40.73506833" lon="-4.09588833">
        <ele>1330.0</ele>
        <time>2018-05-26T09:54:55.165Z</time>
      </trkpt>
      <trkpt lat="40.73509" lon="-4.09584833">
        <ele>1330.0</ele>
        <time>2018-05-26T09:54:56.172Z</time>
      </trkpt>
      <trkpt lat="40.735105" lon="-4.09582833">
        <ele>1330.0</ele>
        <time>2018-05-26T09:54:57.150Z</time>
      </trkpt>
      <trkpt lat="40.735105" lon="-4.09582833">
        <ele>1330.0</ele>
        <time>2018-05-26T09:54:58.156Z</time>
      </trkpt>
      <trkpt lat="40.73512667" lon="-4.09578833">
        <ele>1330.0</ele>
        <time>2018-05-26T09:54:59.172Z</time>
      </trkpt>
      <trkpt lat="40.73514" lon="-4.09576833">
        <ele>1330.0</ele>
        <time>2018-05-26T09:55:00.157Z</time>
      </trkpt>
      <trkpt lat="40.73514" lon="-4.09576833">
        <ele>1330.0</ele>
        <time>2018-05-26T09:55:01.145Z</time>
      </trkpt>
      <trkpt lat="40.73517" lon="-4.09573667">
        <ele>1331.0</ele>
        <time>2018-05-26T09:55:02.153Z</time>
      </trkpt>
      <trkpt lat="40.73517" lon="-4.09573667">
        <ele>1331.0</ele>
        <time>2018-05-26T09:55:03.160Z</time>
      </trkpt>
      <trkpt lat="40.7352" lon="-4.09570833">
        <ele>1331.0</ele>
        <time>2018-05-26T09:55:04.167Z</time>
      </trkpt>
      <trkpt lat="40.7352" lon="-4.09570833">
        <ele>1331.0</ele>
        <time>2018-05-26T09:55:05.174Z</time>
      </trkpt>
      <trkpt lat="40.73522333" lon="-4.09567667">
        <ele>1332.0</ele>
        <time>2018-05-26T09:55:06.169Z</time>
      </trkpt>
      <trkpt lat="40.73523333" lon="-4.09566">
        <ele>1332.0</ele>
        <time>2018-05-26T09:55:07.140Z</time>
      </trkpt>
      <trkpt lat="40.73523333" lon="-4.09566">
        <ele>1332.0</ele>
        <time>2018-05-26T09:55:08.147Z</time>
      </trkpt>
      <trkpt lat="40.73526" lon="-4.09564">
        <ele>1332.0</ele>
        <time>2018-05-26T09:55:09.148Z</time>
      </trkpt>
      <trkpt lat="40.73526" lon="-4.09564">
        <ele>1332.0</ele>
        <time>2018-05-26T09:55:10.155Z</time>
      </trkpt>
      <trkpt lat="40.73529167" lon="-4.09561667">
        <ele>1333.0</ele>
        <time>2018-05-26T09:55:11.167Z</time>
      </trkpt>
      <trkpt lat="40.73529167" lon="-4.09561667">
        <ele>1333.0</ele>
        <time>2018-05-26T09:55:12.174Z</time>
      </trkpt>
      <trkpt lat="40.73532167" lon="-4.09559333">
        <ele>1333.0</ele>
        <time>2018-05-26T09:55:13.138Z</time>
      </trkpt>
      <trkpt lat="40.73532167" lon="-4.09559333">
        <ele>1333.0</ele>
        <time>2018-05-26T09:55:14.145Z</time>
      </trkpt>
      <trkpt lat="40.73535" lon="-4.09557167">
        <ele>1334.0</ele>
        <time>2018-05-26T09:55:15.153Z</time>
      </trkpt>
      <trkpt lat="40.73535" lon="-4.09557167">
        <ele>1334.0</ele>
        <time>2018-05-26T09:55:16.160Z</time>
      </trkpt>
      <trkpt lat="40.73538" lon="-4.09556">
        <ele>1335.0</ele>
        <time>2018-05-26T09:55:17.158Z</time>
      </trkpt>
      <trkpt lat="40.73538" lon="-4.09556">
        <ele>1335.0</ele>
        <time>2018-05-26T09:55:18.164Z</time>
      </trkpt>
      <trkpt lat="40.73540833" lon="-4.09556167">
        <ele>1335.0</ele>
        <time>2018-05-26T09:55:19.171Z</time>
      </trkpt>
      <trkpt lat="40.73542167" lon="-4.09556667">
        <ele>1336.0</ele>
        <time>2018-05-26T09:55:20.157Z</time>
      </trkpt>
      <trkpt lat="40.73542167" lon="-4.09556667">
        <ele>1336.0</ele>
        <time>2018-05-26T09:55:21.163Z</time>
      </trkpt>
      <trkpt lat="40.73544833" lon="-4.09558667">
        <ele>1336.0</ele>
        <time>2018-05-26T09:55:22.172Z</time>
      </trkpt>
      <trkpt lat="40.73544833" lon="-4.09558667">
        <ele>1336.0</ele>
        <time>2018-05-26T09:55:23.142Z</time>
      </trkpt>
      <trkpt lat="40.73546833" lon="-4.09560667">
        <ele>1337.0</ele>
        <time>2018-05-26T09:55:24.137Z</time>
      </trkpt>
      <trkpt lat="40.73546833" lon="-4.09560667">
        <ele>1337.0</ele>
        <time>2018-05-26T09:55:25.144Z</time>
      </trkpt>
      <trkpt lat="40.73548667" lon="-4.09563167">
        <ele>1337.0</ele>
        <time>2018-05-26T09:55:26.151Z</time>
      </trkpt>
      <trkpt lat="40.73549333" lon="-4.09564667">
        <ele>1337.0</ele>
        <time>2018-05-26T09:55:27.138Z</time>
      </trkpt>
      <trkpt lat="40.73549333" lon="-4.09564667">
        <ele>1337.0</ele>
        <time>2018-05-26T09:55:28.144Z</time>
      </trkpt>
      <trkpt lat="40.73551" lon="-4.09567833">
        <ele>1338.0</ele>
        <time>2018-05-26T09:55:29.153Z</time>
      </trkpt>
      <trkpt lat="40.73551" lon="-4.09567833">
        <ele>1338.0</ele>
        <time>2018-05-26T09:55:30.158Z</time>
      </trkpt>
      <trkpt lat="40.73552667" lon="-4.09571">
        <ele>1338.0</ele>
        <time>2018-05-26T09:55:31.138Z</time>
      </trkpt>
      <trkpt lat="40.73552667" lon="-4.09571">
        <ele>1338.0</ele>
        <time>2018-05-26T09:55:32.150Z</time>
      </trkpt>
      <trkpt lat="40.73554333" lon="-4.09574333">
        <ele>1339.0</ele>
        <time>2018-05-26T09:55:33.159Z</time>
      </trkpt>
      <trkpt lat="40.73554333" lon="-4.09574333">
        <ele>1339.0</ele>
        <time>2018-05-26T09:55:34.151Z</time>
      </trkpt>
      <trkpt lat="40.73555833" lon="-4.09577833">
        <ele>1340.0</ele>
        <time>2018-05-26T09:55:35.160Z</time>
      </trkpt>
      <trkpt lat="40.73555833" lon="-4.09577833">
        <ele>1340.0</ele>
        <time>2018-05-26T09:55:36.166Z</time>
      </trkpt>
      <trkpt lat="40.73556833" lon="-4.09581667">
        <ele>1340.0</ele>
        <time>2018-05-26T09:55:37.174Z</time>
      </trkpt>
      <trkpt lat="40.73556833" lon="-4.09581667">
        <ele>1340.0</ele>
        <time>2018-05-26T09:55:38.142Z</time>
      </trkpt>
      <trkpt lat="40.73557667" lon="-4.09585833">
        <ele>1341.0</ele>
        <time>2018-05-26T09:55:39.148Z</time>
      </trkpt>
      <trkpt lat="40.73557667" lon="-4.09585833">
        <ele>1341.0</ele>
        <time>2018-05-26T09:55:40.155Z</time>
      </trkpt>
      <trkpt lat="40.73558167" lon="-4.09590333">
        <ele>1341.0</ele>
        <time>2018-05-26T09:55:41.162Z</time>
      </trkpt>
      <trkpt lat="40.73558167" lon="-4.09590333">
        <ele>1341.0</ele>
        <time>2018-05-26T09:55:42.174Z</time>
      </trkpt>
      <trkpt lat="40.73559167" lon="-4.09594333">
        <ele>1342.0</ele>
        <time>2018-05-26T09:55:43.143Z</time>
      </trkpt>
      <trkpt lat="40.73559667" lon="-4.09596333">
        <ele>1342.0</ele>
        <time>2018-05-26T09:55:44.153Z</time>
      </trkpt>
      <trkpt lat="40.73559667" lon="-4.09596333">
        <ele>1342.0</ele>
        <time>2018-05-26T09:55:45.159Z</time>
      </trkpt>
      <trkpt lat="40.735605" lon="-4.09600167">
        <ele>1343.0</ele>
        <time>2018-05-26T09:55:46.168Z</time>
      </trkpt>
      <trkpt lat="40.73561" lon="-4.09602167">
        <ele>1343.0</ele>
        <time>2018-05-26T09:55:47.142Z</time>
      </trkpt>
      <trkpt lat="40.73561" lon="-4.09602167">
        <ele>1343.0</ele>
        <time>2018-05-26T09:55:48.148Z</time>
      </trkpt>
      <trkpt lat="40.73562833" lon="-4.09606333">
        <ele>1343.0</ele>
        <time>2018-05-26T09:55:49.140Z</time>
      </trkpt>
      <trkpt lat="40.73562833" lon="-4.09606333">
        <ele>1343.0</ele>
        <time>2018-05-26T09:55:50.147Z</time>
      </trkpt>
      <trkpt lat="40.73564" lon="-4.09610167">
        <ele>1344.0</ele>
        <time>2018-05-26T09:55:51.155Z</time>
      </trkpt>
      <trkpt lat="40.73564" lon="-4.09610167">
        <ele>1344.0</ele>
        <time>2018-05-26T09:55:52.164Z</time>
      </trkpt>
      <trkpt lat="40.73565333" lon="-4.09613667">
        <ele>1344.0</ele>
        <time>2018-05-26T09:55:53.169Z</time>
      </trkpt>
      <trkpt lat="40.73565333" lon="-4.09613667">
        <ele>1344.0</ele>
        <time>2018-05-26T09:55:54.137Z</time>
      </trkpt>
      <trkpt lat="40.735665" lon="-4.09617333">
        <ele>1344.0</ele>
        <time>2018-05-26T09:55:55.148Z</time>
      </trkpt>
      <trkpt lat="40.735665" lon="-4.09617333">
        <ele>1344.0</ele>
        <time>2018-05-26T09:55:56.139Z</time>
      </trkpt>
      <trkpt lat="40.73567833" lon="-4.09621167">
        <ele>1345.0</ele>
        <time>2018-05-26T09:55:57.138Z</time>
      </trkpt>
      <trkpt lat="40.73567833" lon="-4.09621167">
        <ele>1345.0</ele>
        <time>2018-05-26T09:55:58.146Z</time>
      </trkpt>
      <trkpt lat="40.73569167" lon="-4.09625">
        <ele>1345.0</ele>
        <time>2018-05-26T09:55:59.153Z</time>
      </trkpt>
      <trkpt lat="40.73569167" lon="-4.09625">
        <ele>1345.0</ele>
        <time>2018-05-26T09:56:00.143Z</time>
      </trkpt>
      <trkpt lat="40.73570333" lon="-4.09628333">
        <ele>1345.0</ele>
        <time>2018-05-26T09:56:01.163Z</time>
      </trkpt>
      <trkpt lat="40.73570333" lon="-4.09628333">
        <ele>1345.0</ele>
        <time>2018-05-26T09:56:02.162Z</time>
      </trkpt>
      <trkpt lat="40.73571667" lon="-4.096315">
        <ele>1346.0</ele>
        <time>2018-05-26T09:56:03.174Z</time>
      </trkpt>
      <trkpt lat="40.73572" lon="-4.09633167">
        <ele>1346.0</ele>
        <time>2018-05-26T09:56:04.148Z</time>
      </trkpt>
      <trkpt lat="40.73572" lon="-4.09633167">
        <ele>1346.0</ele>
        <time>2018-05-26T09:56:05.160Z</time>
      </trkpt>
      <trkpt lat="40.73572667" lon="-4.09636667">
        <ele>1347.0</ele>
        <time>2018-05-26T09:56:06.172Z</time>
      </trkpt>
      <trkpt lat="40.73573333" lon="-4.096385">
        <ele>1347.0</ele>
        <time>2018-05-26T09:56:07.138Z</time>
      </trkpt>
      <trkpt lat="40.73573833" lon="-4.09640333">
        <ele>1347.0</ele>
        <time>2018-05-26T09:56:08.149Z</time>
      </trkpt>
      <trkpt lat="40.73573833" lon="-4.09640333">
        <ele>1347.0</ele>
        <time>2018-05-26T09:56:09.159Z</time>
      </trkpt>
      <trkpt lat="40.73574667" lon="-4.09644333">
        <ele>1348.0</ele>
        <time>2018-05-26T09:56:10.137Z</time>
      </trkpt>
      <trkpt lat="40.73574667" lon="-4.09644333">
        <ele>1348.0</ele>
        <time>2018-05-26T09:56:11.146Z</time>
      </trkpt>
      <trkpt lat="40.73575667" lon="-4.09648167">
        <ele>1348.0</ele>
        <time>2018-05-26T09:56:12.166Z</time>
      </trkpt>
      <trkpt lat="40.73576167" lon="-4.0965">
        <ele>1348.0</ele>
        <time>2018-05-26T09:56:13.168Z</time>
      </trkpt>
      <trkpt lat="40.73576167" lon="-4.0965">
        <ele>1348.0</ele>
        <time>2018-05-26T09:56:14.145Z</time>
      </trkpt>
      <trkpt lat="40.73577667" lon="-4.09653833">
        <ele>1349.0</ele>
        <time>2018-05-26T09:56:15.154Z</time>
      </trkpt>
      <trkpt lat="40.73577667" lon="-4.09653833">
        <ele>1349.0</ele>
        <time>2018-05-26T09:56:16.161Z</time>
      </trkpt>
      <trkpt lat="40.735785" lon="-4.09658">
        <ele>1349.0</ele>
        <time>2018-05-26T09:56:17.153Z</time>
      </trkpt>
      <trkpt lat="40.735785" lon="-4.09658">
        <ele>1349.0</ele>
        <time>2018-05-26T09:56:18.162Z</time>
      </trkpt>
      <trkpt lat="40.73579667" lon="-4.09661833">
        <ele>1350.0</ele>
        <time>2018-05-26T09:56:19.174Z</time>
      </trkpt>
      <trkpt lat="40.73579667" lon="-4.09661833">
        <ele>1350.0</ele>
        <time>2018-05-26T09:56:20.174Z</time>
      </trkpt>
      <trkpt lat="40.73580667" lon="-4.09666167">
        <ele>1350.0</ele>
        <time>2018-05-26T09:56:21.158Z</time>
      </trkpt>
      <trkpt lat="40.73580667" lon="-4.09666167">
        <ele>1350.0</ele>
        <time>2018-05-26T09:56:22.169Z</time>
      </trkpt>
      <trkpt lat="40.73582" lon="-4.096705">
        <ele>1351.0</ele>
        <time>2018-05-26T09:56:23.139Z</time>
      </trkpt>
      <trkpt lat="40.73582" lon="-4.096705">
        <ele>1351.0</ele>
        <time>2018-05-26T09:56:24.147Z</time>
      </trkpt>
      <trkpt lat="40.73582833" lon="-4.09674833">
        <ele>1351.0</ele>
        <time>2018-05-26T09:56:25.156Z</time>
      </trkpt>
      <trkpt lat="40.73583167" lon="-4.09676833">
        <ele>1351.0</ele>
        <time>2018-05-26T09:56:26.158Z</time>
      </trkpt>
      <trkpt lat="40.73583833" lon="-4.09679">
        <ele>1351.0</ele>
        <time>2018-05-26T09:56:27.169Z</time>
      </trkpt>
      <trkpt lat="40.73584333" lon="-4.09681">
        <ele>1351.0</ele>
        <time>2018-05-26T09:56:28.147Z</time>
      </trkpt>
      <trkpt lat="40.73584833" lon="-4.09683">
        <ele>1352.0</ele>
        <time>2018-05-26T09:56:29.148Z</time>
      </trkpt>
      <trkpt lat="40.73584833" lon="-4.09683">
        <ele>1352.0</ele>
        <time>2018-05-26T09:56:30.156Z</time>
      </trkpt>
      <trkpt lat="40.73586" lon="-4.09687">
        <ele>1352.0</ele>
        <time>2018-05-26T09:56:31.165Z</time>
      </trkpt>
      <trkpt lat="40.73586" lon="-4.09687">
        <ele>1352.0</ele>
        <time>2018-05-26T09:56:32.173Z</time>
      </trkpt>
      <trkpt lat="40.73587333" lon="-4.09691">
        <ele>1352.0</ele>
        <time>2018-05-26T09:56:33.148Z</time>
      </trkpt>
      <trkpt lat="40.73587333" lon="-4.09691">
        <ele>1352.0</ele>
        <time>2018-05-26T09:56:34.158Z</time>
      </trkpt>
      <trkpt lat="40.73588333" lon="-4.09695">
        <ele>1353.0</ele>
        <time>2018-05-26T09:56:35.165Z</time>
      </trkpt>
      <trkpt lat="40.73589" lon="-4.09696833">
        <ele>1353.0</ele>
        <time>2018-05-26T09:56:36.160Z</time>
      </trkpt>
      <trkpt lat="40.73589" lon="-4.09696833">
        <ele>1353.0</ele>
        <time>2018-05-26T09:56:37.171Z</time>
      </trkpt>
      <trkpt lat="40.73589833" lon="-4.097005">
        <ele>1353.0</ele>
        <time>2018-05-26T09:56:38.151Z</time>
      </trkpt>
      <trkpt lat="40.73589833" lon="-4.097005">
        <ele>1353.0</ele>
        <time>2018-05-26T09:56:39.166Z</time>
      </trkpt>
      <trkpt lat="40.73590833" lon="-4.09704167">
        <ele>1354.0</ele>
        <time>2018-05-26T09:56:40.150Z</time>
      </trkpt>
      <trkpt lat="40.73591333" lon="-4.09706167">
        <ele>1354.0</ele>
        <time>2018-05-26T09:56:41.157Z</time>
      </trkpt>
      <trkpt lat="40.73591833" lon="-4.09708167">
        <ele>1354.0</ele>
        <time>2018-05-26T09:56:42.167Z</time>
      </trkpt>
      <trkpt lat="40.73591833" lon="-4.09708167">
        <ele>1354.0</ele>
        <time>2018-05-26T09:56:43.175Z</time>
      </trkpt>
      <trkpt lat="40.73592833" lon="-4.09712">
        <ele>1355.0</ele>
        <time>2018-05-26T09:56:44.165Z</time>
      </trkpt>
      <trkpt lat="40.73593167" lon="-4.09713667">
        <ele>1355.0</ele>
        <time>2018-05-26T09:56:45.143Z</time>
      </trkpt>
      <trkpt lat="40.73593167" lon="-4.09713667">
        <ele>1355.0</ele>
        <time>2018-05-26T09:56:46.151Z</time>
      </trkpt>
      <trkpt lat="40.73594" lon="-4.09717">
        <ele>1356.0</ele>
        <time>2018-05-26T09:56:47.163Z</time>
      </trkpt>
      <trkpt lat="40.73594" lon="-4.09717">
        <ele>1356.0</ele>
        <time>2018-05-26T09:56:48.136Z</time>
      </trkpt>
      <trkpt lat="40.73594833" lon="-4.097205">
        <ele>1356.0</ele>
        <time>2018-05-26T09:56:49.153Z</time>
      </trkpt>
      <trkpt lat="40.73594833" lon="-4.097205">
        <ele>1356.0</ele>
        <time>2018-05-26T09:56:50.163Z</time>
      </trkpt>
      <trkpt lat="40.73595667" lon="-4.09724">
        <ele>1357.0</ele>
        <time>2018-05-26T09:56:51.173Z</time>
      </trkpt>
      <trkpt lat="40.73595667" lon="-4.09724">
        <ele>1357.0</ele>
        <time>2018-05-26T09:56:52.147Z</time>
      </trkpt>
      <trkpt lat="40.735965" lon="-4.09727833">
        <ele>1358.0</ele>
        <time>2018-05-26T09:56:53.137Z</time>
      </trkpt>
      <trkpt lat="40.73596833" lon="-4.09729833">
        <ele>1358.0</ele>
        <time>2018-05-26T09:56:54.146Z</time>
      </trkpt>
      <trkpt lat="40.73596833" lon="-4.09729833">
        <ele>1358.0</ele>
        <time>2018-05-26T09:56:55.154Z</time>
      </trkpt>
      <trkpt lat="40.735975" lon="-4.097335">
        <ele>1358.0</ele>
        <time>2018-05-26T09:56:56.170Z</time>
      </trkpt>
      <trkpt lat="40.735975" lon="-4.097335">
        <ele>1358.0</ele>
        <time>2018-05-26T09:56:57.147Z</time>
      </trkpt>
      <trkpt lat="40.73598667" lon="-4.09737333">
        <ele>1359.0</ele>
        <time>2018-05-26T09:56:58.156Z</time>
      </trkpt>
      <trkpt lat="40.73598667" lon="-4.09737333">
        <ele>1359.0</ele>
        <time>2018-05-26T09:56:59.163Z</time>
      </trkpt>
      <trkpt lat="40.736" lon="-4.09741667">
        <ele>1359.0</ele>
        <time>2018-05-26T09:57:00.143Z</time>
      </trkpt>
      <trkpt lat="40.736" lon="-4.09741667">
        <ele>1359.0</ele>
        <time>2018-05-26T09:57:01.146Z</time>
      </trkpt>
      <trkpt lat="40.73601" lon="-4.097455">
        <ele>1359.0</ele>
        <time>2018-05-26T09:57:02.155Z</time>
      </trkpt>
      <trkpt lat="40.73601333" lon="-4.09747333">
        <ele>1360.0</ele>
        <time>2018-05-26T09:57:03.164Z</time>
      </trkpt>
      <trkpt lat="40.73601333" lon="-4.09747333">
        <ele>1360.0</ele>
        <time>2018-05-26T09:57:04.175Z</time>
      </trkpt>
      <trkpt lat="40.73602167" lon="-4.09750833">
        <ele>1360.0</ele>
        <time>2018-05-26T09:57:05.152Z</time>
      </trkpt>
      <trkpt lat="40.73602167" lon="-4.09750833">
        <ele>1360.0</ele>
        <time>2018-05-26T09:57:06.161Z</time>
      </trkpt>
      <trkpt lat="40.73602833" lon="-4.09754667">
        <ele>1360.0</ele>
        <time>2018-05-26T09:57:07.172Z</time>
      </trkpt>
      <trkpt lat="40.73603167" lon="-4.09756167">
        <ele>1360.0</ele>
        <time>2018-05-26T09:57:08.174Z</time>
      </trkpt>
      <trkpt lat="40.73603167" lon="-4.09756167">
        <ele>1360.0</ele>
        <time>2018-05-26T09:57:09.144Z</time>
      </trkpt>
      <trkpt lat="40.73603833" lon="-4.097595">
        <ele>1360.0</ele>
        <time>2018-05-26T09:57:10.152Z</time>
      </trkpt>
      <trkpt lat="40.73604333" lon="-4.09761333">
        <ele>1360.0</ele>
        <time>2018-05-26T09:57:11.169Z</time>
      </trkpt>
      <trkpt lat="40.73604333" lon="-4.09761333">
        <ele>1360.0</ele>
        <time>2018-05-26T09:57:12.141Z</time>
      </trkpt>
      <trkpt lat="40.73605667" lon="-4.09765">
        <ele>1361.0</ele>
        <time>2018-05-26T09:57:13.143Z</time>
      </trkpt>
      <trkpt lat="40.73605667" lon="-4.09765">
        <ele>1361.0</ele>
        <time>2018-05-26T09:57:14.152Z</time>
      </trkpt>
      <trkpt lat="40.73606167" lon="-4.09769167">
        <ele>1361.0</ele>
        <time>2018-05-26T09:57:15.162Z</time>
      </trkpt>
      <trkpt lat="40.736065" lon="-4.09771167">
        <ele>1361.0</ele>
        <time>2018-05-26T09:57:16.147Z</time>
      </trkpt>
      <trkpt lat="40.736065" lon="-4.09771167">
        <ele>1361.0</ele>
        <time>2018-05-26T09:57:17.155Z</time>
      </trkpt>
      <trkpt lat="40.736075" lon="-4.097755">
        <ele>1362.0</ele>
        <time>2018-05-26T09:57:18.143Z</time>
      </trkpt>
      <trkpt lat="40.736075" lon="-4.097755">
        <ele>1362.0</ele>
        <time>2018-05-26T09:57:19.140Z</time>
      </trkpt>
      <trkpt lat="40.73608333" lon="-4.09779667">
        <ele>1362.0</ele>
        <time>2018-05-26T09:57:20.143Z</time>
      </trkpt>
      <trkpt lat="40.73608667" lon="-4.09781833">
        <ele>1362.0</ele>
        <time>2018-05-26T09:57:21.153Z</time>
      </trkpt>
      <trkpt lat="40.73608667" lon="-4.09781833">
        <ele>1362.0</ele>
        <time>2018-05-26T09:57:22.160Z</time>
      </trkpt>
      <trkpt lat="40.73609167" lon="-4.09786667">
        <ele>1362.0</ele>
        <time>2018-05-26T09:57:23.158Z</time>
      </trkpt>
      <trkpt lat="40.73609167" lon="-4.09786667">
        <ele>1362.0</ele>
        <time>2018-05-26T09:57:24.166Z</time>
      </trkpt>
      <trkpt lat="40.736095" lon="-4.097915">
        <ele>1362.0</ele>
        <time>2018-05-26T09:57:25.140Z</time>
      </trkpt>
      <trkpt lat="40.736095" lon="-4.09794">
        <ele>1362.0</ele>
        <time>2018-05-26T09:57:26.138Z</time>
      </trkpt>
      <trkpt lat="40.736095" lon="-4.097965">
        <ele>1363.0</ele>
        <time>2018-05-26T09:57:27.147Z</time>
      </trkpt>
      <trkpt lat="40.736095" lon="-4.097965">
        <ele>1363.0</ele>
        <time>2018-05-26T09:57:28.154Z</time>
      </trkpt>
      <trkpt lat="40.73609333" lon="-4.098015">
        <ele>1363.0</ele>
        <time>2018-05-26T09:57:29.146Z</time>
      </trkpt>
      <trkpt lat="40.73609333" lon="-4.098015">
        <ele>1363.0</ele>
        <time>2018-05-26T09:57:30.153Z</time>
      </trkpt>
      <trkpt lat="40.736095" lon="-4.098065">
        <ele>1363.0</ele>
        <time>2018-05-26T09:57:31.161Z</time>
      </trkpt>
      <trkpt lat="40.736095" lon="-4.098065">
        <ele>1363.0</ele>
        <time>2018-05-26T09:57:32.168Z</time>
      </trkpt>
      <trkpt lat="40.73609667" lon="-4.09811">
        <ele>1364.0</ele>
        <time>2018-05-26T09:57:33.141Z</time>
      </trkpt>
      <trkpt lat="40.73609667" lon="-4.09813667">
        <ele>1364.0</ele>
        <time>2018-05-26T09:57:34.148Z</time>
      </trkpt>
      <trkpt lat="40.73609667" lon="-4.09813667">
        <ele>1364.0</ele>
        <time>2018-05-26T09:57:35.156Z</time>
      </trkpt>
      <trkpt lat="40.736095" lon="-4.098185">
        <ele>1365.0</ele>
        <time>2018-05-26T09:57:36.149Z</time>
      </trkpt>
      <trkpt lat="40.736095" lon="-4.098185">
        <ele>1365.0</ele>
        <time>2018-05-26T09:57:37.156Z</time>
      </trkpt>
      <trkpt lat="40.73610167" lon="-4.098235">
        <ele>1365.0</ele>
        <time>2018-05-26T09:57:38.168Z</time>
      </trkpt>
      <trkpt lat="40.73610333" lon="-4.09826">
        <ele>1365.0</ele>
        <time>2018-05-26T09:57:39.155Z</time>
      </trkpt>
      <trkpt lat="40.73610333" lon="-4.09826">
        <ele>1365.0</ele>
        <time>2018-05-26T09:57:40.162Z</time>
      </trkpt>
      <trkpt lat="40.73610833" lon="-4.09831167">
        <ele>1366.0</ele>
        <time>2018-05-26T09:57:41.170Z</time>
      </trkpt>
      <trkpt lat="40.73610833" lon="-4.09831167">
        <ele>1366.0</ele>
        <time>2018-05-26T09:57:42.139Z</time>
      </trkpt>
      <trkpt lat="40.73611167" lon="-4.09836333">
        <ele>1367.0</ele>
        <time>2018-05-26T09:57:43.147Z</time>
      </trkpt>
      <trkpt lat="40.73611167" lon="-4.09836333">
        <ele>1367.0</ele>
        <time>2018-05-26T09:57:44.154Z</time>
      </trkpt>
      <trkpt lat="40.73611333" lon="-4.09841167">
        <ele>1367.0</ele>
        <time>2018-05-26T09:57:45.161Z</time>
      </trkpt>
      <trkpt lat="40.73611333" lon="-4.09841167">
        <ele>1367.0</ele>
        <time>2018-05-26T09:57:46.168Z</time>
      </trkpt>
      <trkpt lat="40.73611833" lon="-4.09846333">
        <ele>1368.0</ele>
        <time>2018-05-26T09:57:47.172Z</time>
      </trkpt>
      <trkpt lat="40.73611833" lon="-4.09846333">
        <ele>1368.0</ele>
        <time>2018-05-26T09:57:48.140Z</time>
      </trkpt>
      <trkpt lat="40.73612333" lon="-4.09851167">
        <ele>1368.0</ele>
        <time>2018-05-26T09:57:49.136Z</time>
      </trkpt>
      <trkpt lat="40.736125" lon="-4.09853667">
        <ele>1369.0</ele>
        <time>2018-05-26T09:57:50.158Z</time>
      </trkpt>
      <trkpt lat="40.736125" lon="-4.09853667">
        <ele>1369.0</ele>
        <time>2018-05-26T09:57:51.163Z</time>
      </trkpt>
      <trkpt lat="40.73612667" lon="-4.09859333">
        <ele>1369.0</ele>
        <time>2018-05-26T09:57:52.173Z</time>
      </trkpt>
      <trkpt lat="40.73612667" lon="-4.09862">
        <ele>1369.0</ele>
        <time>2018-05-26T09:57:53.167Z</time>
      </trkpt>
      <trkpt lat="40.73612667" lon="-4.09862">
        <ele>1369.0</ele>
        <time>2018-05-26T09:57:54.174Z</time>
      </trkpt>
      <trkpt lat="40.73612667" lon="-4.09867">
        <ele>1369.0</ele>
        <time>2018-05-26T09:57:55.144Z</time>
      </trkpt>
      <trkpt lat="40.73612667" lon="-4.09867">
        <ele>1369.0</ele>
        <time>2018-05-26T09:57:56.151Z</time>
      </trkpt>
      <trkpt lat="40.73612833" lon="-4.09871333">
        <ele>1370.0</ele>
        <time>2018-05-26T09:57:57.138Z</time>
      </trkpt>
      <trkpt lat="40.73612833" lon="-4.09871333">
        <ele>1370.0</ele>
        <time>2018-05-26T09:57:58.144Z</time>
      </trkpt>
      <trkpt lat="40.73612833" lon="-4.09876">
        <ele>1370.0</ele>
        <time>2018-05-26T09:57:59.153Z</time>
      </trkpt>
      <trkpt lat="40.73612833" lon="-4.09876">
        <ele>1370.0</ele>
        <time>2018-05-26T09:58:00.144Z</time>
      </trkpt>
      <trkpt lat="40.73612667" lon="-4.098805">
        <ele>1371.0</ele>
        <time>2018-05-26T09:58:01.153Z</time>
      </trkpt>
      <trkpt lat="40.73612667" lon="-4.09882667">
        <ele>1371.0</ele>
        <time>2018-05-26T09:58:02.160Z</time>
      </trkpt>
      <trkpt lat="40.736125" lon="-4.09884833">
        <ele>1372.0</ele>
        <time>2018-05-26T09:58:03.167Z</time>
      </trkpt>
      <trkpt lat="40.736125" lon="-4.09884833">
        <ele>1372.0</ele>
        <time>2018-05-26T09:58:04.174Z</time>
      </trkpt>
      <trkpt lat="40.73612667" lon="-4.098895">
        <ele>1372.0</ele>
        <time>2018-05-26T09:58:05.164Z</time>
      </trkpt>
      <trkpt lat="40.73612667" lon="-4.098895">
        <ele>1372.0</ele>
        <time>2018-05-26T09:58:06.171Z</time>
      </trkpt>
      <trkpt lat="40.73613" lon="-4.09894333">
        <ele>1372.0</ele>
        <time>2018-05-26T09:58:07.146Z</time>
      </trkpt>
      <trkpt lat="40.73613" lon="-4.09894333">
        <ele>1372.0</ele>
        <time>2018-05-26T09:58:08.159Z</time>
      </trkpt>
      <trkpt lat="40.73612667" lon="-4.09898833">
        <ele>1372.0</ele>
        <time>2018-05-26T09:58:09.169Z</time>
      </trkpt>
      <trkpt lat="40.73612667" lon="-4.09901333">
        <ele>1372.0</ele>
        <time>2018-05-26T09:58:10.142Z</time>
      </trkpt>
      <trkpt lat="40.73612667" lon="-4.09901333">
        <ele>1372.0</ele>
        <time>2018-05-26T09:58:11.149Z</time>
      </trkpt>
      <trkpt lat="40.73613167" lon="-4.09906">
        <ele>1373.0</ele>
        <time>2018-05-26T09:58:12.175Z</time>
      </trkpt>
      <trkpt lat="40.73613167" lon="-4.09906">
        <ele>1373.0</ele>
        <time>2018-05-26T09:58:13.144Z</time>
      </trkpt>
      <trkpt lat="40.736135" lon="-4.099105">
        <ele>1374.0</ele>
        <time>2018-05-26T09:58:14.167Z</time>
      </trkpt>
      <trkpt lat="40.73613667" lon="-4.09912833">
        <ele>1374.0</ele>
        <time>2018-05-26T09:58:15.159Z</time>
      </trkpt>
      <trkpt lat="40.73613667" lon="-4.09912833">
        <ele>1374.0</ele>
        <time>2018-05-26T09:58:16.165Z</time>
      </trkpt>
      <trkpt lat="40.73614667" lon="-4.099175">
        <ele>1374.0</ele>
        <time>2018-05-26T09:58:17.174Z</time>
      </trkpt>
      <trkpt lat="40.73615" lon="-4.0992">
        <ele>1374.0</ele>
        <time>2018-05-26T09:58:18.140Z</time>
      </trkpt>
      <trkpt lat="40.73615" lon="-4.0992">
        <ele>1374.0</ele>
        <time>2018-05-26T09:58:19.146Z</time>
      </trkpt>
      <trkpt lat="40.73616" lon="-4.09924833">
        <ele>1375.0</ele>
        <time>2018-05-26T09:58:20.153Z</time>
      </trkpt>
      <trkpt lat="40.736165" lon="-4.09927167">
        <ele>1375.0</ele>
        <time>2018-05-26T09:58:21.172Z</time>
      </trkpt>
      <trkpt lat="40.736165" lon="-4.09927167">
        <ele>1375.0</ele>
        <time>2018-05-26T09:58:22.140Z</time>
      </trkpt>
      <trkpt lat="40.73618167" lon="-4.09931833">
        <ele>1376.0</ele>
        <time>2018-05-26T09:58:23.149Z</time>
      </trkpt>
      <trkpt lat="40.73619" lon="-4.09933833">
        <ele>1376.0</ele>
        <time>2018-05-26T09:58:24.153Z</time>
      </trkpt>
      <trkpt lat="40.73619" lon="-4.09933833">
        <ele>1376.0</ele>
        <time>2018-05-26T09:58:25.160Z</time>
      </trkpt>
      <trkpt lat="40.73620667" lon="-4.09938333">
        <ele>1376.0</ele>
        <time>2018-05-26T09:58:26.171Z</time>
      </trkpt>
      <trkpt lat="40.736215" lon="-4.099405">
        <ele>1377.0</ele>
        <time>2018-05-26T09:58:27.164Z</time>
      </trkpt>
      <trkpt lat="40.736215" lon="-4.099405">
        <ele>1377.0</ele>
        <time>2018-05-26T09:58:28.171Z</time>
      </trkpt>
      <trkpt lat="40.736235" lon="-4.09944833">
        <ele>1377.0</ele>
        <time>2018-05-26T09:58:29.148Z</time>
      </trkpt>
      <trkpt lat="40.736235" lon="-4.09944833">
        <ele>1377.0</ele>
        <time>2018-05-26T09:58:30.153Z</time>
      </trkpt>
      <trkpt lat="40.73625167" lon="-4.09949167">
        <ele>1377.0</ele>
        <time>2018-05-26T09:58:31.166Z</time>
      </trkpt>
      <trkpt lat="40.73625167" lon="-4.09949167">
        <ele>1377.0</ele>
        <time>2018-05-26T09:58:32.173Z</time>
      </trkpt>
      <trkpt lat="40.73626833" lon="-4.09953333">
        <ele>1377.0</ele>
        <time>2018-05-26T09:58:33.157Z</time>
      </trkpt>
      <trkpt lat="40.73626833" lon="-4.09953333">
        <ele>1377.0</ele>
        <time>2018-05-26T09:58:34.164Z</time>
      </trkpt>
      <trkpt lat="40.73628333" lon="-4.09957667">
        <ele>1378.0</ele>
        <time>2018-05-26T09:58:35.162Z</time>
      </trkpt>
      <trkpt lat="40.73628333" lon="-4.09957667">
        <ele>1378.0</ele>
        <time>2018-05-26T09:58:36.168Z</time>
      </trkpt>
      <trkpt lat="40.7363" lon="-4.09961667">
        <ele>1378.0</ele>
        <time>2018-05-26T09:58:37.137Z</time>
      </trkpt>
      <trkpt lat="40.73630667" lon="-4.09963833">
        <ele>1378.0</ele>
        <time>2018-05-26T09:58:38.158Z</time>
      </trkpt>
      <trkpt lat="40.736315" lon="-4.09966167">
        <ele>1378.0</ele>
        <time>2018-05-26T09:58:39.165Z</time>
      </trkpt>
      <trkpt lat="40.736315" lon="-4.09966167">
        <ele>1378.0</ele>
        <time>2018-05-26T09:58:40.172Z</time>
      </trkpt>
      <trkpt lat="40.73633167" lon="-4.099705">
        <ele>1379.0</ele>
        <time>2018-05-26T09:58:41.169Z</time>
      </trkpt>
      <trkpt lat="40.73633833" lon="-4.09972667">
        <ele>1379.0</ele>
        <time>2018-05-26T09:58:42.136Z</time>
      </trkpt>
      <trkpt lat="40.73633833" lon="-4.09972667">
        <ele>1379.0</ele>
        <time>2018-05-26T09:58:43.145Z</time>
      </trkpt>
      <trkpt lat="40.73635333" lon="-4.09977333">
        <ele>1379.0</ele>
        <time>2018-05-26T09:58:44.137Z</time>
      </trkpt>
      <trkpt lat="40.73636" lon="-4.09979667">
        <ele>1379.0</ele>
        <time>2018-05-26T09:58:45.145Z</time>
      </trkpt>
      <trkpt lat="40.73636833" lon="-4.09981833">
        <ele>1379.0</ele>
        <time>2018-05-26T09:58:46.153Z</time>
      </trkpt>
      <trkpt lat="40.73636833" lon="-4.09981833">
        <ele>1379.0</ele>
        <time>2018-05-26T09:58:47.160Z</time>
      </trkpt>
      <trkpt lat="40.73637667" lon="-4.09986333">
        <ele>1380.0</ele>
        <time>2018-05-26T09:58:48.167Z</time>
      </trkpt>
      <trkpt lat="40.73637667" lon="-4.09986333">
        <ele>1380.0</ele>
        <time>2018-05-26T09:58:49.164Z</time>
      </trkpt>
      <trkpt lat="40.736385" lon="-4.099905">
        <ele>1380.0</ele>
        <time>2018-05-26T09:58:50.171Z</time>
      </trkpt>
      <trkpt lat="40.73638833" lon="-4.09993167">
        <ele>1381.0</ele>
        <time>2018-05-26T09:58:51.140Z</time>
      </trkpt>
      <trkpt lat="40.73638833" lon="-4.09993167">
        <ele>1381.0</ele>
        <time>2018-05-26T09:58:52.147Z</time>
      </trkpt>
      <trkpt lat="40.7364" lon="-4.09998167">
        <ele>1381.0</ele>
        <time>2018-05-26T09:58:53.167Z</time>
      </trkpt>
      <trkpt lat="40.736405" lon="-4.100005">
        <ele>1381.0</ele>
        <time>2018-05-26T09:58:54.175Z</time>
      </trkpt>
      <trkpt lat="40.736405" lon="-4.100005">
        <ele>1381.0</ele>
        <time>2018-05-26T09:58:55.143Z</time>
      </trkpt>
      <trkpt lat="40.736415" lon="-4.10005333">
        <ele>1382.0</ele>
        <time>2018-05-26T09:58:56.168Z</time>
      </trkpt>
      <trkpt lat="40.736425" lon="-4.10008">
        <ele>1382.0</ele>
        <time>2018-05-26T09:58:57.148Z</time>
      </trkpt>
      <trkpt lat="40.736425" lon="-4.10008">
        <ele>1382.0</ele>
        <time>2018-05-26T09:58:58.154Z</time>
      </trkpt>
      <trkpt lat="40.73645167" lon="-4.10012667">
        <ele>1382.0</ele>
        <time>2018-05-26T09:58:59.162Z</time>
      </trkpt>
      <trkpt lat="40.73645167" lon="-4.10012667">
        <ele>1382.0</ele>
        <time>2018-05-26T09:59:00.144Z</time>
      </trkpt>
      <trkpt lat="40.73648167" lon="-4.10017333">
        <ele>1383.0</ele>
        <time>2018-05-26T09:59:01.136Z</time>
      </trkpt>
      <trkpt lat="40.73649833" lon="-4.10019833">
        <ele>1383.0</ele>
        <time>2018-05-26T09:59:02.165Z</time>
      </trkpt>
      <trkpt lat="40.73649833" lon="-4.10019833">
        <ele>1383.0</ele>
        <time>2018-05-26T09:59:03.172Z</time>
      </trkpt>
      <trkpt lat="40.73653167" lon="-4.10023833">
        <ele>1383.0</ele>
        <time>2018-05-26T09:59:04.141Z</time>
      </trkpt>
      <trkpt lat="40.73653167" lon="-4.10023833">
        <ele>1383.0</ele>
        <time>2018-05-26T09:59:05.148Z</time>
      </trkpt>
      <trkpt lat="40.73655833" lon="-4.10028167">
        <ele>1384.0</ele>
        <time>2018-05-26T09:59:06.142Z</time>
      </trkpt>
      <trkpt lat="40.73655833" lon="-4.10028167">
        <ele>1384.0</ele>
        <time>2018-05-26T09:59:07.149Z</time>
      </trkpt>
      <trkpt lat="40.73659" lon="-4.100325">
        <ele>1384.0</ele>
        <time>2018-05-26T09:59:08.156Z</time>
      </trkpt>
      <trkpt lat="40.73660333" lon="-4.100345">
        <ele>1385.0</ele>
        <time>2018-05-26T09:59:09.174Z</time>
      </trkpt>
      <trkpt lat="40.73660333" lon="-4.100345">
        <ele>1385.0</ele>
        <time>2018-05-26T09:59:10.140Z</time>
      </trkpt>
      <trkpt lat="40.73663" lon="-4.10039">
        <ele>1385.0</ele>
        <time>2018-05-26T09:59:11.156Z</time>
      </trkpt>
      <trkpt lat="40.73664833" lon="-4.10041">
        <ele>1385.0</ele>
        <time>2018-05-26T09:59:12.171Z</time>
      </trkpt>
      <trkpt lat="40.73664833" lon="-4.10041">
        <ele>1385.0</ele>
        <time>2018-05-26T09:59:13.137Z</time>
      </trkpt>
      <trkpt lat="40.736685" lon="-4.100445">
        <ele>1385.0</ele>
        <time>2018-05-26T09:59:14.148Z</time>
      </trkpt>
      <trkpt lat="40.73670167" lon="-4.10046167">
        <ele>1386.0</ele>
        <time>2018-05-26T09:59:15.155Z</time>
      </trkpt>
      <trkpt lat="40.73670167" lon="-4.10046167">
        <ele>1386.0</ele>
        <time>2018-05-26T09:59:16.162Z</time>
      </trkpt>
      <trkpt lat="40.73673333" lon="-4.1005">
        <ele>1386.0</ele>
        <time>2018-05-26T09:59:17.147Z</time>
      </trkpt>
      <trkpt lat="40.73675167" lon="-4.10052167">
        <ele>1386.0</ele>
        <time>2018-05-26T09:59:18.156Z</time>
      </trkpt>
      <trkpt lat="40.73675167" lon="-4.10052167">
        <ele>1386.0</ele>
        <time>2018-05-26T09:59:19.163Z</time>
      </trkpt>
      <trkpt lat="40.736785" lon="-4.10055833">
        <ele>1386.0</ele>
        <time>2018-05-26T09:59:20.162Z</time>
      </trkpt>
      <trkpt lat="40.73680333" lon="-4.100575">
        <ele>1387.0</ele>
        <time>2018-05-26T09:59:21.169Z</time>
      </trkpt>
      <trkpt lat="40.73680333" lon="-4.100575">
        <ele>1387.0</ele>
        <time>2018-05-26T09:59:22.176Z</time>
      </trkpt>
      <trkpt lat="40.73683167" lon="-4.10060833">
        <ele>1387.0</ele>
        <time>2018-05-26T09:59:23.159Z</time>
      </trkpt>
      <trkpt lat="40.73683167" lon="-4.10060833">
        <ele>1387.0</ele>
        <time>2018-05-26T09:59:24.165Z</time>
      </trkpt>
      <trkpt lat="40.73686167" lon="-4.10063333">
        <ele>1387.0</ele>
        <time>2018-05-26T09:59:25.173Z</time>
      </trkpt>
      <trkpt lat="40.73686167" lon="-4.10063333">
        <ele>1387.0</ele>
        <time>2018-05-26T09:59:26.141Z</time>
      </trkpt>
      <trkpt lat="40.73689167" lon="-4.10066">
        <ele>1387.0</ele>
        <time>2018-05-26T09:59:27.159Z</time>
      </trkpt>
      <trkpt lat="40.736905" lon="-4.100675">
        <ele>1388.0</ele>
        <time>2018-05-26T09:59:28.166Z</time>
      </trkpt>
      <trkpt lat="40.736905" lon="-4.100675">
        <ele>1388.0</ele>
        <time>2018-05-26T09:59:29.173Z</time>
      </trkpt>
      <trkpt lat="40.73693333" lon="-4.10070833">
        <ele>1388.0</ele>
        <time>2018-05-26T09:59:30.173Z</time>
      </trkpt>
      <trkpt lat="40.73693333" lon="-4.10070833">
        <ele>1388.0</ele>
        <time>2018-05-26T09:59:31.140Z</time>
      </trkpt>
      <trkpt lat="40.736965" lon="-4.10073833">
        <ele>1388.0</ele>
        <time>2018-05-26T09:59:32.150Z</time>
      </trkpt>
      <trkpt lat="40.73698167" lon="-4.10075333">
        <ele>1388.0</ele>
        <time>2018-05-26T09:59:33.158Z</time>
      </trkpt>
      <trkpt lat="40.73698167" lon="-4.10075333">
        <ele>1388.0</ele>
        <time>2018-05-26T09:59:34.164Z</time>
      </trkpt>
      <trkpt lat="40.73701167" lon="-4.10078167">
        <ele>1389.0</ele>
        <time>2018-05-26T09:59:35.142Z</time>
      </trkpt>
      <trkpt lat="40.73702833" lon="-4.100795">
        <ele>1389.0</ele>
        <time>2018-05-26T09:59:36.151Z</time>
      </trkpt>
      <trkpt lat="40.737045" lon="-4.10080667">
        <ele>1389.0</ele>
        <time>2018-05-26T09:59:37.158Z</time>
      </trkpt>
      <trkpt lat="40.737045" lon="-4.10080667">
        <ele>1389.0</ele>
        <time>2018-05-26T09:59:38.166Z</time>
      </trkpt>
      <trkpt lat="40.73708167" lon="-4.10083333">
        <ele>1390.0</ele>
        <time>2018-05-26T09:59:39.174Z</time>
      </trkpt>
      <trkpt lat="40.73708167" lon="-4.10083333">
        <ele>1390.0</ele>
        <time>2018-05-26T09:59:40.140Z</time>
      </trkpt>
      <trkpt lat="40.73712333" lon="-4.10085667">
        <ele>1390.0</ele>
        <time>2018-05-26T09:59:41.139Z</time>
      </trkpt>
      <trkpt lat="40.73712333" lon="-4.10085667">
        <ele>1390.0</ele>
        <time>2018-05-26T09:59:42.145Z</time>
      </trkpt>
      <trkpt lat="40.73716" lon="-4.10087833">
        <ele>1390.0</ele>
        <time>2018-05-26T09:59:43.144Z</time>
      </trkpt>
      <trkpt lat="40.73716" lon="-4.10087833">
        <ele>1390.0</ele>
        <time>2018-05-26T09:59:44.151Z</time>
      </trkpt>
      <trkpt lat="40.73720167" lon="-4.1009">
        <ele>1390.0</ele>
        <time>2018-05-26T09:59:45.158Z</time>
      </trkpt>
      <trkpt lat="40.73720167" lon="-4.1009">
        <ele>1390.0</ele>
        <time>2018-05-26T09:59:46.164Z</time>
      </trkpt>
      <trkpt lat="40.73724667" lon="-4.10092167">
        <ele>1390.0</ele>
        <time>2018-05-26T09:59:47.162Z</time>
      </trkpt>
      <trkpt lat="40.73727167" lon="-4.10093333">
        <ele>1390.0</ele>
        <time>2018-05-26T09:59:48.169Z</time>
      </trkpt>
      <trkpt lat="40.73727167" lon="-4.10093333">
        <ele>1390.0</ele>
        <time>2018-05-26T09:59:49.136Z</time>
      </trkpt>
      <trkpt lat="40.73732167" lon="-4.10095167">
        <ele>1390.0</ele>
        <time>2018-05-26T09:59:50.157Z</time>
      </trkpt>
      <trkpt lat="40.73732167" lon="-4.10095167">
        <ele>1390.0</ele>
        <time>2018-05-26T09:59:51.164Z</time>
      </trkpt>
      <trkpt lat="40.73736667" lon="-4.10097167">
        <ele>1391.0</ele>
        <time>2018-05-26T09:59:52.172Z</time>
      </trkpt>
      <trkpt lat="40.73738833" lon="-4.10098333">
        <ele>1391.0</ele>
        <time>2018-05-26T09:59:53.150Z</time>
      </trkpt>
      <trkpt lat="40.73738833" lon="-4.10098333">
        <ele>1391.0</ele>
        <time>2018-05-26T09:59:54.157Z</time>
      </trkpt>
      <trkpt lat="40.73742833" lon="-4.10101167">
        <ele>1391.0</ele>
        <time>2018-05-26T09:59:55.164Z</time>
      </trkpt>
      <trkpt lat="40.73742833" lon="-4.10101167">
        <ele>1391.0</ele>
        <time>2018-05-26T09:59:56.172Z</time>
      </trkpt>
      <trkpt lat="40.73746667" lon="-4.10103667">
        <ele>1392.0</ele>
        <time>2018-05-26T09:59:57.137Z</time>
      </trkpt>
      <trkpt lat="40.737485" lon="-4.10105">
        <ele>1392.0</ele>
        <time>2018-05-26T09:59:58.148Z</time>
      </trkpt>
      <trkpt lat="40.737485" lon="-4.10105">
        <ele>1392.0</ele>
        <time>2018-05-26T09:59:59.155Z</time>
      </trkpt>
      <trkpt lat="40.737525" lon="-4.10107">
        <ele>1392.0</ele>
        <time>2018-05-26T10:00:00.167Z</time>
      </trkpt>
      <trkpt lat="40.737525" lon="-4.10107">
        <ele>1392.0</ele>
        <time>2018-05-26T10:00:01.167Z</time>
      </trkpt>
      <trkpt lat="40.73756667" lon="-4.10109">
        <ele>1393.0</ele>
        <time>2018-05-26T10:00:02.140Z</time>
      </trkpt>
      <trkpt lat="40.73758667" lon="-4.10110333">
        <ele>1393.0</ele>
        <time>2018-05-26T10:00:03.147Z</time>
      </trkpt>
      <trkpt lat="40.73758667" lon="-4.10110333">
        <ele>1393.0</ele>
        <time>2018-05-26T10:00:04.154Z</time>
      </trkpt>
      <trkpt lat="40.73762667" lon="-4.10113">
        <ele>1393.0</ele>
        <time>2018-05-26T10:00:05.144Z</time>
      </trkpt>
      <trkpt lat="40.73762667" lon="-4.10113">
        <ele>1393.0</ele>
        <time>2018-05-26T10:00:06.151Z</time>
      </trkpt>
      <trkpt lat="40.73766333" lon="-4.10115333">
        <ele>1393.0</ele>
        <time>2018-05-26T10:00:07.159Z</time>
      </trkpt>
      <trkpt lat="40.73768167" lon="-4.10116667">
        <ele>1393.0</ele>
        <time>2018-05-26T10:00:08.156Z</time>
      </trkpt>
      <trkpt lat="40.73768167" lon="-4.10116667">
        <ele>1393.0</ele>
        <time>2018-05-26T10:00:09.163Z</time>
      </trkpt>
      <trkpt lat="40.73772" lon="-4.10119667">
        <ele>1394.0</ele>
        <time>2018-05-26T10:00:10.170Z</time>
      </trkpt>
      <trkpt lat="40.73772" lon="-4.10119667">
        <ele>1394.0</ele>
        <time>2018-05-26T10:00:11.136Z</time>
      </trkpt>
      <trkpt lat="40.73775667" lon="-4.101225">
        <ele>1394.0</ele>
        <time>2018-05-26T10:00:12.155Z</time>
      </trkpt>
      <trkpt lat="40.73775667" lon="-4.101225">
        <ele>1394.0</ele>
        <time>2018-05-26T10:00:13.162Z</time>
      </trkpt>
      <trkpt lat="40.73779333" lon="-4.10125333">
        <ele>1394.0</ele>
        <time>2018-05-26T10:00:14.169Z</time>
      </trkpt>
      <trkpt lat="40.73781167" lon="-4.10126833">
        <ele>1394.0</ele>
        <time>2018-05-26T10:00:15.166Z</time>
      </trkpt>
      <trkpt lat="40.73781167" lon="-4.10126833">
        <ele>1394.0</ele>
        <time>2018-05-26T10:00:16.172Z</time>
      </trkpt>
      <trkpt lat="40.737845" lon="-4.10129833">
        <ele>1395.0</ele>
        <time>2018-05-26T10:00:17.140Z</time>
      </trkpt>
      <trkpt lat="40.737845" lon="-4.10129833">
        <ele>1395.0</ele>
        <time>2018-05-26T10:00:18.145Z</time>
      </trkpt>
      <trkpt lat="40.73788" lon="-4.10133167">
        <ele>1395.0</ele>
        <time>2018-05-26T10:00:19.148Z</time>
      </trkpt>
      <trkpt lat="40.73788" lon="-4.10133167">
        <ele>1395.0</ele>
        <time>2018-05-26T10:00:20.155Z</time>
      </trkpt>
      <trkpt lat="40.73791667" lon="-4.10136833">
        <ele>1395.0</ele>
        <time>2018-05-26T10:00:21.141Z</time>
      </trkpt>
      <trkpt lat="40.73791667" lon="-4.10136833">
        <ele>1395.0</ele>
        <time>2018-05-26T10:00:22.147Z</time>
      </trkpt>
      <trkpt lat="40.737955" lon="-4.10140333">
        <ele>1396.0</ele>
        <time>2018-05-26T10:00:23.165Z</time>
      </trkpt>
      <trkpt lat="40.737955" lon="-4.10140333">
        <ele>1396.0</ele>
        <time>2018-05-26T10:00:24.172Z</time>
      </trkpt>
      <trkpt lat="40.73799333" lon="-4.10143667">
        <ele>1396.0</ele>
        <time>2018-05-26T10:00:25.139Z</time>
      </trkpt>
      <trkpt lat="40.73801333" lon="-4.10145333">
        <ele>1396.0</ele>
        <time>2018-05-26T10:00:26.146Z</time>
      </trkpt>
      <trkpt lat="40.73803333" lon="-4.10147">
        <ele>1396.0</ele>
        <time>2018-05-26T10:00:27.168Z</time>
      </trkpt>
      <trkpt lat="40.73803333" lon="-4.10147">
        <ele>1396.0</ele>
        <time>2018-05-26T10:00:28.175Z</time>
      </trkpt>
      <trkpt lat="40.73807" lon="-4.101505">
        <ele>1396.0</ele>
        <time>2018-05-26T10:00:29.142Z</time>
      </trkpt>
      <trkpt lat="40.73807" lon="-4.101505">
        <ele>1396.0</ele>
        <time>2018-05-26T10:00:30.148Z</time>
      </trkpt>
      <trkpt lat="40.738105" lon="-4.10154">
        <ele>1397.0</ele>
        <time>2018-05-26T10:00:31.147Z</time>
      </trkpt>
      <trkpt lat="40.73812333" lon="-4.10155667">
        <ele>1397.0</ele>
        <time>2018-05-26T10:00:32.154Z</time>
      </trkpt>
      <trkpt lat="40.73812333" lon="-4.10155667">
        <ele>1397.0</ele>
        <time>2018-05-26T10:00:33.165Z</time>
      </trkpt>
      <trkpt lat="40.73816" lon="-4.10159333">
        <ele>1397.0</ele>
        <time>2018-05-26T10:00:34.153Z</time>
      </trkpt>
      <trkpt lat="40.73816" lon="-4.10159333">
        <ele>1397.0</ele>
        <time>2018-05-26T10:00:35.160Z</time>
      </trkpt>
      <trkpt lat="40.7382" lon="-4.10162667">
        <ele>1398.0</ele>
        <time>2018-05-26T10:00:36.167Z</time>
      </trkpt>
      <trkpt lat="40.7382" lon="-4.10162667">
        <ele>1398.0</ele>
        <time>2018-05-26T10:00:37.174Z</time>
      </trkpt>
      <trkpt lat="40.73823833" lon="-4.10166333">
        <ele>1398.0</ele>
        <time>2018-05-26T10:00:38.150Z</time>
      </trkpt>
      <trkpt lat="40.73825667" lon="-4.10168333">
        <ele>1398.0</ele>
        <time>2018-05-26T10:00:39.156Z</time>
      </trkpt>
      <trkpt lat="40.73825667" lon="-4.10168333">
        <ele>1398.0</ele>
        <time>2018-05-26T10:00:40.163Z</time>
      </trkpt>
      <trkpt lat="40.73829333" lon="-4.101725">
        <ele>1398.0</ele>
        <time>2018-05-26T10:00:41.143Z</time>
      </trkpt>
      <trkpt lat="40.73831333" lon="-4.10174667">
        <ele>1398.0</ele>
        <time>2018-05-26T10:00:42.152Z</time>
      </trkpt>
      <trkpt lat="40.73831333" lon="-4.10174667">
        <ele>1398.0</ele>
        <time>2018-05-26T10:00:43.158Z</time>
      </trkpt>
      <trkpt lat="40.73834833" lon="-4.101785">
        <ele>1398.0</ele>
        <time>2018-05-26T10:00:44.149Z</time>
      </trkpt>
      <trkpt lat="40.73836333" lon="-4.10180667">
        <ele>1399.0</ele>
        <time>2018-05-26T10:00:45.157Z</time>
      </trkpt>
      <trkpt lat="40.73836333" lon="-4.10180667">
        <ele>1399.0</ele>
        <time>2018-05-26T10:00:46.164Z</time>
      </trkpt>
      <trkpt lat="40.738395" lon="-4.10185">
        <ele>1399.0</ele>
        <time>2018-05-26T10:00:47.157Z</time>
      </trkpt>
      <trkpt lat="40.73841167" lon="-4.10187">
        <ele>1399.0</ele>
        <time>2018-05-26T10:00:48.158Z</time>
      </trkpt>
      <trkpt lat="40.73841167" lon="-4.10187">
        <ele>1399.0</ele>
        <time>2018-05-26T10:00:49.166Z</time>
      </trkpt>
      <trkpt lat="40.73845" lon="-4.10190833">
        <ele>1399.0</ele>
        <time>2018-05-26T10:00:50.140Z</time>
      </trkpt>
      <trkpt lat="40.73846833" lon="-4.10192667">
        <ele>1399.0</ele>
        <time>2018-05-26T10:00:51.167Z</time>
      </trkpt>
      <trkpt lat="40.73846833" lon="-4.10192667">
        <ele>1399.0</ele>
        <time>2018-05-26T10:00:52.174Z</time>
      </trkpt>
      <trkpt lat="40.738505" lon="-4.10197">
        <ele>1399.0</ele>
        <time>2018-05-26T10:00:53.144Z</time>
      </trkpt>
      <trkpt lat="40.738505" lon="-4.10197">
        <ele>1399.0</ele>
        <time>2018-05-26T10:00:54.151Z</time>
      </trkpt>
      <trkpt lat="40.738545" lon="-4.10201167">
        <ele>1400.0</ele>
        <time>2018-05-26T10:00:55.170Z</time>
      </trkpt>
      <trkpt lat="40.738545" lon="-4.10201167">
        <ele>1400.0</ele>
        <time>2018-05-26T10:00:56.136Z</time>
      </trkpt>
      <trkpt lat="40.73858333" lon="-4.10205167">
        <ele>1400.0</ele>
        <time>2018-05-26T10:00:57.147Z</time>
      </trkpt>
      <trkpt lat="40.73858333" lon="-4.10205167">
        <ele>1400.0</ele>
        <time>2018-05-26T10:00:58.154Z</time>
      </trkpt>
      <trkpt lat="40.73862167" lon="-4.10209">
        <ele>1400.0</ele>
        <time>2018-05-26T10:00:59.138Z</time>
      </trkpt>
      <trkpt lat="40.73862167" lon="-4.10209">
        <ele>1400.0</ele>
        <time>2018-05-26T10:01:00.143Z</time>
      </trkpt>
      <trkpt lat="40.73866" lon="-4.10213">
        <ele>1401.0</ele>
        <time>2018-05-26T10:01:01.136Z</time>
      </trkpt>
      <trkpt lat="40.73866" lon="-4.10213">
        <ele>1401.0</ele>
        <time>2018-05-26T10:01:02.155Z</time>
      </trkpt>
      <trkpt lat="40.73869667" lon="-4.10217333">
        <ele>1401.0</ele>
        <time>2018-05-26T10:01:03.150Z</time>
      </trkpt>
      <trkpt lat="40.73869667" lon="-4.10217333">
        <ele>1401.0</ele>
        <time>2018-05-26T10:01:04.156Z</time>
      </trkpt>
      <trkpt lat="40.738735" lon="-4.10221333">
        <ele>1401.0</ele>
        <time>2018-05-26T10:01:05.165Z</time>
      </trkpt>
      <trkpt lat="40.738735" lon="-4.10221333">
        <ele>1401.0</ele>
        <time>2018-05-26T10:01:06.174Z</time>
      </trkpt>
      <trkpt lat="40.73876667" lon="-4.10226333">
        <ele>1402.0</ele>
        <time>2018-05-26T10:01:07.148Z</time>
      </trkpt>
      <trkpt lat="40.73876667" lon="-4.10226333">
        <ele>1402.0</ele>
        <time>2018-05-26T10:01:08.154Z</time>
      </trkpt>
      <trkpt lat="40.73879333" lon="-4.102315">
        <ele>1402.0</ele>
        <time>2018-05-26T10:01:09.161Z</time>
      </trkpt>
      <trkpt lat="40.73879333" lon="-4.102315">
        <ele>1402.0</ele>
        <time>2018-05-26T10:01:10.168Z</time>
      </trkpt>
      <trkpt lat="40.73882667" lon="-4.10235333">
        <ele>1402.0</ele>
        <time>2018-05-26T10:01:11.139Z</time>
      </trkpt>
      <trkpt lat="40.738845" lon="-4.10236833">
        <ele>1402.0</ele>
        <time>2018-05-26T10:01:12.147Z</time>
      </trkpt>
      <trkpt lat="40.738845" lon="-4.10236833">
        <ele>1402.0</ele>
        <time>2018-05-26T10:01:13.153Z</time>
      </trkpt>
      <trkpt lat="40.73888667" lon="-4.102405">
        <ele>1402.0</ele>
        <time>2018-05-26T10:01:14.154Z</time>
      </trkpt>
      <trkpt lat="40.73888667" lon="-4.102405">
        <ele>1402.0</ele>
        <time>2018-05-26T10:01:15.160Z</time>
      </trkpt>
      <trkpt lat="40.73892167" lon="-4.10244333">
        <ele>1402.0</ele>
        <time>2018-05-26T10:01:16.168Z</time>
      </trkpt>
      <trkpt lat="40.73892167" lon="-4.10244333">
        <ele>1402.0</ele>
        <time>2018-05-26T10:01:17.174Z</time>
      </trkpt>
      <trkpt lat="40.73894333" lon="-4.10250333">
        <ele>1402.0</ele>
        <time>2018-05-26T10:01:18.159Z</time>
      </trkpt>
      <trkpt lat="40.73894333" lon="-4.10250333">
        <ele>1402.0</ele>
        <time>2018-05-26T10:01:19.165Z</time>
      </trkpt>
      <trkpt lat="40.73893667" lon="-4.10257333">
        <ele>1403.0</ele>
        <time>2018-05-26T10:01:20.173Z</time>
      </trkpt>
      <trkpt lat="40.73893667" lon="-4.10257333">
        <ele>1403.0</ele>
        <time>2018-05-26T10:01:21.144Z</time>
      </trkpt>
      <trkpt lat="40.73891" lon="-4.10264833">
        <ele>1403.0</ele>
        <time>2018-05-26T10:01:22.154Z</time>
      </trkpt>
      <trkpt lat="40.73891" lon="-4.10264833">
        <ele>1403.0</ele>
        <time>2018-05-26T10:01:23.161Z</time>
      </trkpt>
      <trkpt lat="40.73886833" lon="-4.10270667">
        <ele>1403.0</ele>
        <time>2018-05-26T10:01:24.168Z</time>
      </trkpt>
      <trkpt lat="40.73886833" lon="-4.10270667">
        <ele>1403.0</ele>
        <time>2018-05-26T10:01:25.174Z</time>
      </trkpt>
      <trkpt lat="40.73883" lon="-4.102765">
        <ele>1403.0</ele>
        <time>2018-05-26T10:01:26.158Z</time>
      </trkpt>
      <trkpt lat="40.73881" lon="-4.10279167">
        <ele>1403.0</ele>
        <time>2018-05-26T10:01:27.167Z</time>
      </trkpt>
      <trkpt lat="40.73881" lon="-4.10279167">
        <ele>1403.0</ele>
        <time>2018-05-26T10:01:28.173Z</time>
      </trkpt>
      <trkpt lat="40.73877" lon="-4.102845">
        <ele>1404.0</ele>
        <time>2018-05-26T10:01:29.153Z</time>
      </trkpt>
      <trkpt lat="40.73877" lon="-4.102845">
        <ele>1404.0</ele>
        <time>2018-05-26T10:01:30.159Z</time>
      </trkpt>
      <trkpt lat="40.73872833" lon="-4.102905">
        <ele>1404.0</ele>
        <time>2018-05-26T10:01:31.169Z</time>
      </trkpt>
      <trkpt lat="40.73871" lon="-4.10293333">
        <ele>1404.0</ele>
        <time>2018-05-26T10:01:32.136Z</time>
      </trkpt>
      <trkpt lat="40.738695" lon="-4.10296167">
        <ele>1404.0</ele>
        <time>2018-05-26T10:01:33.149Z</time>
      </trkpt>
      <trkpt lat="40.738695" lon="-4.10296167">
        <ele>1404.0</ele>
        <time>2018-05-26T10:01:34.155Z</time>
      </trkpt>
      <trkpt lat="40.73865833" lon="-4.10302167">
        <ele>1404.0</ele>
        <time>2018-05-26T10:01:35.158Z</time>
      </trkpt>
      <trkpt lat="40.73865833" lon="-4.10302167">
        <ele>1404.0</ele>
        <time>2018-05-26T10:01:36.164Z</time>
      </trkpt>
      <trkpt lat="40.73861833" lon="-4.10308667">
        <ele>1404.0</ele>
        <time>2018-05-26T10:01:37.174Z</time>
      </trkpt>
      <trkpt lat="40.73861833" lon="-4.10308667">
        <ele>1404.0</ele>
        <time>2018-05-26T10:01:38.144Z</time>
      </trkpt>
      <trkpt lat="40.73858" lon="-4.10315">
        <ele>1404.0</ele>
        <time>2018-05-26T10:01:39.156Z</time>
      </trkpt>
      <trkpt lat="40.73858" lon="-4.10315">
        <ele>1404.0</ele>
        <time>2018-05-26T10:01:40.162Z</time>
      </trkpt>
      <trkpt lat="40.73854667" lon="-4.10321">
        <ele>1404.0</ele>
        <time>2018-05-26T10:01:41.163Z</time>
      </trkpt>
      <trkpt lat="40.738525" lon="-4.10324">
        <ele>1405.0</ele>
        <time>2018-05-26T10:01:42.171Z</time>
      </trkpt>
      <trkpt lat="40.738525" lon="-4.10324">
        <ele>1405.0</ele>
        <time>2018-05-26T10:01:43.138Z</time>
      </trkpt>
      <trkpt lat="40.73847667" lon="-4.10331">
        <ele>1405.0</ele>
        <time>2018-05-26T10:01:44.159Z</time>
      </trkpt>
      <trkpt lat="40.73845333" lon="-4.10334833">
        <ele>1405.0</ele>
        <time>2018-05-26T10:01:45.165Z</time>
      </trkpt>
      <trkpt lat="40.73845333" lon="-4.10334833">
        <ele>1405.0</ele>
        <time>2018-05-26T10:01:46.170Z</time>
      </trkpt>
      <trkpt lat="40.73840333" lon="-4.10343">
        <ele>1405.0</ele>
        <time>2018-05-26T10:01:47.168Z</time>
      </trkpt>
      <trkpt lat="40.73840333" lon="-4.10343">
        <ele>1405.0</ele>
        <time>2018-05-26T10:01:48.174Z</time>
      </trkpt>
      <trkpt lat="40.73836" lon="-4.10352667">
        <ele>1404.0</ele>
        <time>2018-05-26T10:01:49.143Z</time>
      </trkpt>
      <trkpt lat="40.73836" lon="-4.10352667">
        <ele>1404.0</ele>
        <time>2018-05-26T10:01:50.149Z</time>
      </trkpt>
      <trkpt lat="40.738325" lon="-4.103635">
        <ele>1404.0</ele>
        <time>2018-05-26T10:01:51.138Z</time>
      </trkpt>
      <trkpt lat="40.738305" lon="-4.10369167">
        <ele>1403.0</ele>
        <time>2018-05-26T10:01:52.146Z</time>
      </trkpt>
      <trkpt lat="40.738305" lon="-4.10369167">
        <ele>1403.0</ele>
        <time>2018-05-26T10:01:53.153Z</time>
      </trkpt>
      <trkpt lat="40.738235" lon="-4.10378333">
        <ele>1402.0</ele>
        <time>2018-05-26T10:01:54.145Z</time>
      </trkpt>
      <trkpt lat="40.738235" lon="-4.10378333">
        <ele>1402.0</ele>
        <time>2018-05-26T10:01:55.151Z</time>
      </trkpt>
      <trkpt lat="40.73814333" lon="-4.10387667">
        <ele>1402.0</ele>
        <time>2018-05-26T10:01:56.168Z</time>
      </trkpt>
      <trkpt lat="40.73814333" lon="-4.10387667">
        <ele>1402.0</ele>
        <time>2018-05-26T10:01:57.136Z</time>
      </trkpt>
      <trkpt lat="40.73804" lon="-4.10397833">
        <ele>1402.0</ele>
        <time>2018-05-26T10:01:58.170Z</time>
      </trkpt>
      <trkpt lat="40.73799" lon="-4.10403333">
        <ele>1401.0</ele>
        <time>2018-05-26T10:01:59.142Z</time>
      </trkpt>
      <trkpt lat="40.73799" lon="-4.10403333">
        <ele>1401.0</ele>
        <time>2018-05-26T10:02:00.140Z</time>
      </trkpt>
      <trkpt lat="40.7379" lon="-4.104165">
        <ele>1401.0</ele>
        <time>2018-05-26T10:02:01.150Z</time>
      </trkpt>
      <trkpt lat="40.73786333" lon="-4.104245">
        <ele>1401.0</ele>
        <time>2018-05-26T10:02:02.158Z</time>
      </trkpt>
      <trkpt lat="40.73783" lon="-4.104325">
        <ele>1401.0</ele>
        <time>2018-05-26T10:02:03.170Z</time>
      </trkpt>
      <trkpt lat="40.73783" lon="-4.104325">
        <ele>1401.0</ele>
        <time>2018-05-26T10:02:04.139Z</time>
      </trkpt>
      <trkpt lat="40.73775667" lon="-4.10447667">
        <ele>1400.0</ele>
        <time>2018-05-26T10:02:05.164Z</time>
      </trkpt>
      <trkpt lat="40.73771833" lon="-4.104555">
        <ele>1399.0</ele>
        <time>2018-05-26T10:02:06.173Z</time>
      </trkpt>
      <trkpt lat="40.73771833" lon="-4.104555">
        <ele>1399.0</ele>
        <time>2018-05-26T10:02:07.141Z</time>
      </trkpt>
      <trkpt lat="40.73761" lon="-4.10467833">
        <ele>1398.0</ele>
        <time>2018-05-26T10:02:08.169Z</time>
      </trkpt>
      <trkpt lat="40.73761" lon="-4.10467833">
        <ele>1398.0</ele>
        <time>2018-05-26T10:02:09.136Z</time>
      </trkpt>
      <trkpt lat="40.73749833" lon="-4.10478167">
        <ele>1398.0</ele>
        <time>2018-05-26T10:02:10.151Z</time>
      </trkpt>
      <trkpt lat="40.73749833" lon="-4.10478167">
        <ele>1398.0</ele>
        <time>2018-05-26T10:02:11.158Z</time>
      </trkpt>
      <trkpt lat="40.73739833" lon="-4.1049">
        <ele>1398.0</ele>
        <time>2018-05-26T10:02:12.138Z</time>
      </trkpt>
      <trkpt lat="40.73734167" lon="-4.10495167">
        <ele>1397.0</ele>
        <time>2018-05-26T10:02:13.145Z</time>
      </trkpt>
      <trkpt lat="40.73728167" lon="-4.10499667">
        <ele>1397.0</ele>
        <time>2018-05-26T10:02:14.152Z</time>
      </trkpt>
      <trkpt lat="40.73728167" lon="-4.10499667">
        <ele>1397.0</ele>
        <time>2018-05-26T10:02:15.158Z</time>
      </trkpt>
      <trkpt lat="40.73715833" lon="-4.10507667">
        <ele>1396.0</ele>
        <time>2018-05-26T10:02:16.166Z</time>
      </trkpt>
      <trkpt lat="40.73715833" lon="-4.10507667">
        <ele>1396.0</ele>
        <time>2018-05-26T10:02:17.172Z</time>
      </trkpt>
      <trkpt lat="40.73703" lon="-4.105135">
        <ele>1396.0</ele>
        <time>2018-05-26T10:02:18.152Z</time>
      </trkpt>
      <trkpt lat="40.73696" lon="-4.10515167">
        <ele>1396.0</ele>
        <time>2018-05-26T10:02:19.159Z</time>
      </trkpt>
      <trkpt lat="40.73696" lon="-4.10515167">
        <ele>1396.0</ele>
        <time>2018-05-26T10:02:20.166Z</time>
      </trkpt>
      <trkpt lat="40.73681167" lon="-4.10514">
        <ele>1396.0</ele>
        <time>2018-05-26T10:02:21.169Z</time>
      </trkpt>
      <trkpt lat="40.73681167" lon="-4.10514">
        <ele>1396.0</ele>
        <time>2018-05-26T10:02:22.159Z</time>
      </trkpt>
      <trkpt lat="40.73665667" lon="-4.10510167">
        <ele>1396.0</ele>
        <time>2018-05-26T10:02:23.168Z</time>
      </trkpt>
      <trkpt lat="40.73665667" lon="-4.10510167">
        <ele>1396.0</ele>
        <time>2018-05-26T10:02:24.175Z</time>
      </trkpt>
      <trkpt lat="40.73649667" lon="-4.105115">
        <ele>1395.0</ele>
        <time>2018-05-26T10:02:25.169Z</time>
      </trkpt>
      <trkpt lat="40.73649667" lon="-4.105115">
        <ele>1395.0</ele>
        <time>2018-05-26T10:02:26.175Z</time>
      </trkpt>
      <trkpt lat="40.736335" lon="-4.10516333">
        <ele>1394.0</ele>
        <time>2018-05-26T10:02:27.143Z</time>
      </trkpt>
      <trkpt lat="40.73625333" lon="-4.10518667">
        <ele>1393.0</ele>
        <time>2018-05-26T10:02:28.165Z</time>
      </trkpt>
      <trkpt lat="40.73625333" lon="-4.10518667">
        <ele>1393.0</ele>
        <time>2018-05-26T10:02:29.171Z</time>
      </trkpt>
      <trkpt lat="40.73609" lon="-4.105215">
        <ele>1392.0</ele>
        <time>2018-05-26T10:02:30.140Z</time>
      </trkpt>
      <trkpt lat="40.73609" lon="-4.105215">
        <ele>1392.0</ele>
        <time>2018-05-26T10:02:31.146Z</time>
      </trkpt>
      <trkpt lat="40.735915" lon="-4.10520667">
        <ele>1392.0</ele>
        <time>2018-05-26T10:02:32.168Z</time>
      </trkpt>
      <trkpt lat="40.735915" lon="-4.10520667">
        <ele>1392.0</ele>
        <time>2018-05-26T10:02:33.174Z</time>
      </trkpt>
      <trkpt lat="40.73575833" lon="-4.105215">
        <ele>1390.0</ele>
        <time>2018-05-26T10:02:34.151Z</time>
      </trkpt>
      <trkpt lat="40.73575833" lon="-4.105215">
        <ele>1390.0</ele>
        <time>2018-05-26T10:02:35.156Z</time>
      </trkpt>
      <trkpt lat="40.735615" lon="-4.105295">
        <ele>1389.0</ele>
        <time>2018-05-26T10:02:36.144Z</time>
      </trkpt>
      <trkpt lat="40.735615" lon="-4.105295">
        <ele>1389.0</ele>
        <time>2018-05-26T10:02:37.151Z</time>
      </trkpt>
      <trkpt lat="40.73549667" lon="-4.10543833">
        <ele>1388.0</ele>
        <time>2018-05-26T10:02:38.162Z</time>
      </trkpt>
      <trkpt lat="40.73545167" lon="-4.105525">
        <ele>1388.0</ele>
        <time>2018-05-26T10:02:39.145Z</time>
      </trkpt>
      <trkpt lat="40.73545167" lon="-4.105525">
        <ele>1388.0</ele>
        <time>2018-05-26T10:02:40.151Z</time>
      </trkpt>
      <trkpt lat="40.73536667" lon="-4.10571167">
        <ele>1387.0</ele>
        <time>2018-05-26T10:02:41.158Z</time>
      </trkpt>
      <trkpt lat="40.73536667" lon="-4.10571167">
        <ele>1387.0</ele>
        <time>2018-05-26T10:02:42.165Z</time>
      </trkpt>
      <trkpt lat="40.73528667" lon="-4.10589667">
        <ele>1387.0</ele>
        <time>2018-05-26T10:02:43.160Z</time>
      </trkpt>
      <trkpt lat="40.73528667" lon="-4.10589667">
        <ele>1387.0</ele>
        <time>2018-05-26T10:02:44.166Z</time>
      </trkpt>
      <trkpt lat="40.735205" lon="-4.10607833">
        <ele>1386.0</ele>
        <time>2018-05-26T10:02:45.174Z</time>
      </trkpt>
      <trkpt lat="40.735205" lon="-4.10607833">
        <ele>1386.0</ele>
        <time>2018-05-26T10:02:46.141Z</time>
      </trkpt>
      <trkpt lat="40.73512833" lon="-4.10626667">
        <ele>1386.0</ele>
        <time>2018-05-26T10:02:47.156Z</time>
      </trkpt>
      <trkpt lat="40.73512833" lon="-4.10626667">
        <ele>1386.0</ele>
        <time>2018-05-26T10:02:48.163Z</time>
      </trkpt>
      <trkpt lat="40.73505" lon="-4.10644667">
        <ele>1385.0</ele>
        <time>2018-05-26T10:02:49.169Z</time>
      </trkpt>
      <trkpt lat="40.73505" lon="-4.10644667">
        <ele>1385.0</ele>
        <time>2018-05-26T10:02:50.138Z</time>
      </trkpt>
      <trkpt lat="40.73496" lon="-4.10662167">
        <ele>1385.0</ele>
        <time>2018-05-26T10:02:51.140Z</time>
      </trkpt>
      <trkpt lat="40.73496" lon="-4.10662167">
        <ele>1385.0</ele>
        <time>2018-05-26T10:02:52.145Z</time>
      </trkpt>
      <trkpt lat="40.73486667" lon="-4.106795">
        <ele>1385.0</ele>
        <time>2018-05-26T10:02:53.153Z</time>
      </trkpt>
      <trkpt lat="40.73486667" lon="-4.106795">
        <ele>1385.0</ele>
        <time>2018-05-26T10:02:54.159Z</time>
      </trkpt>
      <trkpt lat="40.73477333" lon="-4.10696833">
        <ele>1385.0</ele>
        <time>2018-05-26T10:02:55.168Z</time>
      </trkpt>
      <trkpt lat="40.73477333" lon="-4.10696833">
        <ele>1385.0</ele>
        <time>2018-05-26T10:02:56.175Z</time>
      </trkpt>
      <trkpt lat="40.734665" lon="-4.10712">
        <ele>1385.0</ele>
        <time>2018-05-26T10:02:57.142Z</time>
      </trkpt>
      <trkpt lat="40.734665" lon="-4.10712">
        <ele>1385.0</ele>
        <time>2018-05-26T10:02:58.149Z</time>
      </trkpt>
      <trkpt lat="40.73451" lon="-4.10720167">
        <ele>1384.0</ele>
        <time>2018-05-26T10:02:59.158Z</time>
      </trkpt>
      <trkpt lat="40.73451" lon="-4.10720167">
        <ele>1384.0</ele>
        <time>2018-05-26T10:03:00.143Z</time>
      </trkpt>
      <trkpt lat="40.73435833" lon="-4.10732">
        <ele>1382.0</ele>
        <time>2018-05-26T10:03:01.168Z</time>
      </trkpt>
      <trkpt lat="40.73429167" lon="-4.107395">
        <ele>1381.0</ele>
        <time>2018-05-26T10:03:02.138Z</time>
      </trkpt>
      <trkpt lat="40.73429167" lon="-4.107395">
        <ele>1381.0</ele>
        <time>2018-05-26T10:03:03.145Z</time>
      </trkpt>
      <trkpt lat="40.73413833" lon="-4.10753">
        <ele>1380.0</ele>
        <time>2018-05-26T10:03:04.153Z</time>
      </trkpt>
      <trkpt lat="40.73413833" lon="-4.10753">
        <ele>1380.0</ele>
        <time>2018-05-26T10:03:05.159Z</time>
      </trkpt>
      <trkpt lat="40.73396667" lon="-4.10764167">
        <ele>1379.0</ele>
        <time>2018-05-26T10:03:06.169Z</time>
      </trkpt>
      <trkpt lat="40.73396667" lon="-4.10764167">
        <ele>1379.0</ele>
        <time>2018-05-26T10:03:07.136Z</time>
      </trkpt>
      <trkpt lat="40.733775" lon="-4.10771333">
        <ele>1378.0</ele>
        <time>2018-05-26T10:03:08.158Z</time>
      </trkpt>
      <trkpt lat="40.73367833" lon="-4.10775667">
        <ele>1378.0</ele>
        <time>2018-05-26T10:03:09.165Z</time>
      </trkpt>
      <trkpt lat="40.73367833" lon="-4.10775667">
        <ele>1378.0</ele>
        <time>2018-05-26T10:03:10.172Z</time>
      </trkpt>
      <trkpt lat="40.73349667" lon="-4.10787833">
        <ele>1377.0</ele>
        <time>2018-05-26T10:03:11.145Z</time>
      </trkpt>
      <trkpt lat="40.73349667" lon="-4.10787833">
        <ele>1377.0</ele>
        <time>2018-05-26T10:03:12.158Z</time>
      </trkpt>
      <trkpt lat="40.733325" lon="-4.10802167">
        <ele>1376.0</ele>
        <time>2018-05-26T10:03:13.158Z</time>
      </trkpt>
      <trkpt lat="40.733325" lon="-4.10802167">
        <ele>1376.0</ele>
        <time>2018-05-26T10:03:14.164Z</time>
      </trkpt>
      <trkpt lat="40.73315333" lon="-4.10816">
        <ele>1374.0</ele>
        <time>2018-05-26T10:03:15.173Z</time>
      </trkpt>
      <trkpt lat="40.73315333" lon="-4.10816">
        <ele>1374.0</ele>
        <time>2018-05-26T10:03:16.139Z</time>
      </trkpt>
      <trkpt lat="40.733005" lon="-4.108305">
        <ele>1373.0</ele>
        <time>2018-05-26T10:03:17.170Z</time>
      </trkpt>
      <trkpt lat="40.733005" lon="-4.108305">
        <ele>1373.0</ele>
        <time>2018-05-26T10:03:18.138Z</time>
      </trkpt>
      <trkpt lat="40.732885" lon="-4.10845833">
        <ele>1372.0</ele>
        <time>2018-05-26T10:03:19.146Z</time>
      </trkpt>
      <trkpt lat="40.732885" lon="-4.10845833">
        <ele>1372.0</ele>
        <time>2018-05-26T10:03:20.152Z</time>
      </trkpt>
      <trkpt lat="40.73278167" lon="-4.108565">
        <ele>1371.0</ele>
        <time>2018-05-26T10:03:21.163Z</time>
      </trkpt>
      <trkpt lat="40.73278167" lon="-4.108565">
        <ele>1371.0</ele>
        <time>2018-05-26T10:03:22.169Z</time>
      </trkpt>
      <trkpt lat="40.73265" lon="-4.10857167">
        <ele>1370.0</ele>
        <time>2018-05-26T10:03:23.136Z</time>
      </trkpt>
      <trkpt lat="40.73257667" lon="-4.10856833">
        <ele>1370.0</ele>
        <time>2018-05-26T10:03:24.137Z</time>
      </trkpt>
      <trkpt lat="40.73257667" lon="-4.10856833">
        <ele>1370.0</ele>
        <time>2018-05-26T10:03:25.144Z</time>
      </trkpt>
      <trkpt lat="40.732435" lon="-4.10860333">
        <ele>1370.0</ele>
        <time>2018-05-26T10:03:26.153Z</time>
      </trkpt>
      <trkpt lat="40.73236333" lon="-4.10863333">
        <ele>1369.0</ele>
        <time>2018-05-26T10:03:27.161Z</time>
      </trkpt>
      <trkpt lat="40.73228833" lon="-4.10864667">
        <ele>1369.0</ele>
        <time>2018-05-26T10:03:28.169Z</time>
      </trkpt>
      <trkpt lat="40.73228833" lon="-4.10864667">
        <ele>1369.0</ele>
        <time>2018-05-26T10:03:29.175Z</time>
      </trkpt>
      <trkpt lat="40.73212333" lon="-4.10860667">
        <ele>1368.0</ele>
        <time>2018-05-26T10:03:30.142Z</time>
      </trkpt>
      <trkpt lat="40.73212333" lon="-4.10860667">
        <ele>1368.0</ele>
        <time>2018-05-26T10:03:31.149Z</time>
      </trkpt>
      <trkpt lat="40.73196167" lon="-4.108535">
        <ele>1367.0</ele>
        <time>2018-05-26T10:03:32.160Z</time>
      </trkpt>
      <trkpt lat="40.73187667" lon="-4.10851333">
        <ele>1367.0</ele>
        <time>2018-05-26T10:03:33.166Z</time>
      </trkpt>
      <trkpt lat="40.73187667" lon="-4.10851333">
        <ele>1367.0</ele>
        <time>2018-05-26T10:03:34.173Z</time>
      </trkpt>
      <trkpt lat="40.731705" lon="-4.10849">
        <ele>1366.0</ele>
        <time>2018-05-26T10:03:35.171Z</time>
      </trkpt>
      <trkpt lat="40.73161833" lon="-4.10846833">
        <ele>1366.0</ele>
        <time>2018-05-26T10:03:36.140Z</time>
      </trkpt>
      <trkpt lat="40.73161833" lon="-4.10846833">
        <ele>1366.0</ele>
        <time>2018-05-26T10:03:37.146Z</time>
      </trkpt>
      <trkpt lat="40.73144167" lon="-4.10839667">
        <ele>1365.0</ele>
        <time>2018-05-26T10:03:38.175Z</time>
      </trkpt>
      <trkpt lat="40.73135" lon="-4.10835667">
        <ele>1365.0</ele>
        <time>2018-05-26T10:03:39.142Z</time>
      </trkpt>
      <trkpt lat="40.73135" lon="-4.10835667">
        <ele>1365.0</ele>
        <time>2018-05-26T10:03:40.148Z</time>
      </trkpt>
      <trkpt lat="40.73116667" lon="-4.10831667">
        <ele>1364.0</ele>
        <time>2018-05-26T10:03:41.157Z</time>
      </trkpt>
      <trkpt lat="40.73107667" lon="-4.10833667">
        <ele>1364.0</ele>
        <time>2018-05-26T10:03:42.141Z</time>
      </trkpt>
      <trkpt lat="40.73107667" lon="-4.10833667">
        <ele>1364.0</ele>
        <time>2018-05-26T10:03:43.147Z</time>
      </trkpt>
      <trkpt lat="40.73091833" lon="-4.10843833">
        <ele>1363.0</ele>
        <time>2018-05-26T10:03:44.154Z</time>
      </trkpt>
      <trkpt lat="40.73084333" lon="-4.10849">
        <ele>1363.0</ele>
        <time>2018-05-26T10:03:45.138Z</time>
      </trkpt>
      <trkpt lat="40.73084333" lon="-4.10849">
        <ele>1363.0</ele>
        <time>2018-05-26T10:03:46.145Z</time>
      </trkpt>
      <trkpt lat="40.730675" lon="-4.10858833">
        <ele>1362.0</ele>
        <time>2018-05-26T10:03:47.162Z</time>
      </trkpt>
      <trkpt lat="40.73059667" lon="-4.10865167">
        <ele>1361.0</ele>
        <time>2018-05-26T10:03:48.144Z</time>
      </trkpt>
      <trkpt lat="40.73059667" lon="-4.10865167">
        <ele>1361.0</ele>
        <time>2018-05-26T10:03:49.151Z</time>
      </trkpt>
      <trkpt lat="40.73046833" lon="-4.10880167">
        <ele>1360.0</ele>
        <time>2018-05-26T10:03:50.157Z</time>
      </trkpt>
      <trkpt lat="40.73040667" lon="-4.10886333">
        <ele>1360.0</ele>
        <time>2018-05-26T10:03:51.158Z</time>
      </trkpt>
      <trkpt lat="40.73033167" lon="-4.10889">
        <ele>1359.0</ele>
        <time>2018-05-26T10:03:52.165Z</time>
      </trkpt>
      <trkpt lat="40.73033167" lon="-4.10889">
        <ele>1359.0</ele>
        <time>2018-05-26T10:03:53.171Z</time>
      </trkpt>
      <trkpt lat="40.73016833" lon="-4.10886167">
        <ele>1359.0</ele>
        <time>2018-05-26T10:03:54.171Z</time>
      </trkpt>
      <trkpt lat="40.73016833" lon="-4.10886167">
        <ele>1359.0</ele>
        <time>2018-05-26T10:03:55.139Z</time>
      </trkpt>
      <trkpt lat="40.73000333" lon="-4.1088">
        <ele>1358.0</ele>
        <time>2018-05-26T10:03:56.147Z</time>
      </trkpt>
      <trkpt lat="40.73000333" lon="-4.1088">
        <ele>1358.0</ele>
        <time>2018-05-26T10:03:57.153Z</time>
      </trkpt>
      <trkpt lat="40.72983167" lon="-4.10878667">
        <ele>1358.0</ele>
        <time>2018-05-26T10:03:58.158Z</time>
      </trkpt>
      <trkpt lat="40.72983167" lon="-4.10878667">
        <ele>1358.0</ele>
        <time>2018-05-26T10:03:59.165Z</time>
      </trkpt>
      <trkpt lat="40.72965167" lon="-4.10882333">
        <ele>1358.0</ele>
        <time>2018-05-26T10:04:00.147Z</time>
      </trkpt>
      <trkpt lat="40.72955667" lon="-4.10883833">
        <ele>1358.0</ele>
        <time>2018-05-26T10:04:01.158Z</time>
      </trkpt>
      <trkpt lat="40.72955667" lon="-4.10883833">
        <ele>1358.0</ele>
        <time>2018-05-26T10:04:02.164Z</time>
      </trkpt>
      <trkpt lat="40.72937167" lon="-4.10884333">
        <ele>1357.0</ele>
        <time>2018-05-26T10:04:03.149Z</time>
      </trkpt>
      <trkpt lat="40.72937167" lon="-4.10884333">
        <ele>1357.0</ele>
        <time>2018-05-26T10:04:04.155Z</time>
      </trkpt>
      <trkpt lat="40.72919833" lon="-4.1089">
        <ele>1357.0</ele>
        <time>2018-05-26T10:04:05.163Z</time>
      </trkpt>
      <trkpt lat="40.72919833" lon="-4.1089">
        <ele>1357.0</ele>
        <time>2018-05-26T10:04:06.169Z</time>
      </trkpt>
      <trkpt lat="40.72905" lon="-4.10903833">
        <ele>1356.0</ele>
        <time>2018-05-26T10:04:07.159Z</time>
      </trkpt>
      <trkpt lat="40.72905" lon="-4.10903833">
        <ele>1356.0</ele>
        <time>2018-05-26T10:04:08.165Z</time>
      </trkpt>
      <trkpt lat="40.72892167" lon="-4.10918833">
        <ele>1356.0</ele>
        <time>2018-05-26T10:04:09.139Z</time>
      </trkpt>
      <trkpt lat="40.72892167" lon="-4.10918833">
        <ele>1356.0</ele>
        <time>2018-05-26T10:04:10.145Z</time>
      </trkpt>
      <trkpt lat="40.728785" lon="-4.10930833">
        <ele>1355.0</ele>
        <time>2018-05-26T10:04:11.157Z</time>
      </trkpt>
      <trkpt lat="40.728785" lon="-4.10930833">
        <ele>1355.0</ele>
        <time>2018-05-26T10:04:12.164Z</time>
      </trkpt>
      <trkpt lat="40.72863" lon="-4.10939667">
        <ele>1355.0</ele>
        <time>2018-05-26T10:04:13.136Z</time>
      </trkpt>
      <trkpt lat="40.72855" lon="-4.10944333">
        <ele>1354.0</ele>
        <time>2018-05-26T10:04:14.167Z</time>
      </trkpt>
      <trkpt lat="40.72855" lon="-4.10944333">
        <ele>1354.0</ele>
        <time>2018-05-26T10:04:15.175Z</time>
      </trkpt>
      <trkpt lat="40.72838667" lon="-4.10954333">
        <ele>1354.0</ele>
        <time>2018-05-26T10:04:16.143Z</time>
      </trkpt>
      <trkpt lat="40.72830667" lon="-4.10959167">
        <ele>1353.0</ele>
        <time>2018-05-26T10:04:17.148Z</time>
      </trkpt>
      <trkpt lat="40.72830667" lon="-4.10959167">
        <ele>1353.0</ele>
        <time>2018-05-26T10:04:18.154Z</time>
      </trkpt>
      <trkpt lat="40.72815" lon="-4.10970667">
        <ele>1352.0</ele>
        <time>2018-05-26T10:04:19.139Z</time>
      </trkpt>
      <trkpt lat="40.72815" lon="-4.10970667">
        <ele>1352.0</ele>
        <time>2018-05-26T10:04:20.147Z</time>
      </trkpt>
      <trkpt lat="40.72803167" lon="-4.109885">
        <ele>1351.0</ele>
        <time>2018-05-26T10:04:21.136Z</time>
      </trkpt>
      <trkpt lat="40.72803167" lon="-4.109885">
        <ele>1351.0</ele>
        <time>2018-05-26T10:04:22.142Z</time>
      </trkpt>
      <trkpt lat="40.72793667" lon="-4.11009">
        <ele>1350.0</ele>
        <time>2018-05-26T10:04:23.169Z</time>
      </trkpt>
      <trkpt lat="40.72789667" lon="-4.11019833">
        <ele>1350.0</ele>
        <time>2018-05-26T10:04:24.136Z</time>
      </trkpt>
      <trkpt lat="40.727865" lon="-4.11031">
        <ele>1349.0</ele>
        <time>2018-05-26T10:04:25.144Z</time>
      </trkpt>
      <trkpt lat="40.727865" lon="-4.11031">
        <ele>1349.0</ele>
        <time>2018-05-26T10:04:26.149Z</time>
      </trkpt>
      <trkpt lat="40.72781833" lon="-4.11053">
        <ele>1348.0</ele>
        <time>2018-05-26T10:04:27.159Z</time>
      </trkpt>
      <trkpt lat="40.72781833" lon="-4.11053">
        <ele>1348.0</ele>
        <time>2018-05-26T10:04:28.150Z</time>
      </trkpt>
      <trkpt lat="40.72778833" lon="-4.11075167">
        <ele>1347.0</ele>
        <time>2018-05-26T10:04:29.148Z</time>
      </trkpt>
      <trkpt lat="40.72778833" lon="-4.11075167">
        <ele>1347.0</ele>
        <time>2018-05-26T10:04:30.155Z</time>
      </trkpt>
      <trkpt lat="40.727755" lon="-4.11094667">
        <ele>1345.0</ele>
        <time>2018-05-26T10:04:31.162Z</time>
      </trkpt>
      <trkpt lat="40.727755" lon="-4.11094667">
        <ele>1345.0</ele>
        <time>2018-05-26T10:04:32.167Z</time>
      </trkpt>
      <trkpt lat="40.72774167" lon="-4.11113667">
        <ele>1344.0</ele>
        <time>2018-05-26T10:04:33.158Z</time>
      </trkpt>
      <trkpt lat="40.72774167" lon="-4.11113667">
        <ele>1344.0</ele>
        <time>2018-05-26T10:04:34.163Z</time>
      </trkpt>
      <trkpt lat="40.72771833" lon="-4.11128">
        <ele>1344.0</ele>
        <time>2018-05-26T10:04:35.171Z</time>
      </trkpt>
      <trkpt lat="40.72771833" lon="-4.11128">
        <ele>1344.0</ele>
        <time>2018-05-26T10:04:36.142Z</time>
      </trkpt>
      <trkpt lat="40.727705" lon="-4.111395">
        <ele>1343.0</ele>
        <time>2018-05-26T10:04:37.168Z</time>
      </trkpt>
      <trkpt lat="40.727705" lon="-4.111395">
        <ele>1343.0</ele>
        <time>2018-05-26T10:04:38.175Z</time>
      </trkpt>
      <trkpt lat="40.727705" lon="-4.11149667">
        <ele>1342.0</ele>
        <time>2018-05-26T10:04:39.146Z</time>
      </trkpt>
      <trkpt lat="40.727705" lon="-4.11149667">
        <ele>1342.0</ele>
        <time>2018-05-26T10:04:40.152Z</time>
      </trkpt>
      <trkpt lat="40.72769667" lon="-4.11158667">
        <ele>1342.0</ele>
        <time>2018-05-26T10:04:41.139Z</time>
      </trkpt>
      <trkpt lat="40.72769667" lon="-4.11158667">
        <ele>1342.0</ele>
        <time>2018-05-26T10:04:42.145Z</time>
      </trkpt>
      <trkpt lat="40.72769167" lon="-4.11166667">
        <ele>1341.0</ele>
        <time>2018-05-26T10:04:43.161Z</time>
      </trkpt>
      <trkpt lat="40.72769167" lon="-4.11166667">
        <ele>1341.0</ele>
        <time>2018-05-26T10:04:44.168Z</time>
      </trkpt>
      <trkpt lat="40.72769" lon="-4.11174667">
        <ele>1341.0</ele>
        <time>2018-05-26T10:04:45.154Z</time>
      </trkpt>
      <trkpt lat="40.72769" lon="-4.11174667">
        <ele>1341.0</ele>
        <time>2018-05-26T10:04:46.161Z</time>
      </trkpt>
      <trkpt lat="40.72769" lon="-4.11181167">
        <ele>1340.0</ele>
        <time>2018-05-26T10:04:47.168Z</time>
      </trkpt>
      <trkpt lat="40.72769" lon="-4.11181167">
        <ele>1340.0</ele>
        <time>2018-05-26T10:04:48.136Z</time>
      </trkpt>
      <trkpt lat="40.72769333" lon="-4.11188333">
        <ele>1340.0</ele>
        <time>2018-05-26T10:04:49.158Z</time>
      </trkpt>
      <trkpt lat="40.72769333" lon="-4.11188333">
        <ele>1340.0</ele>
        <time>2018-05-26T10:04:50.164Z</time>
      </trkpt>
      <trkpt lat="40.72769" lon="-4.11195">
        <ele>1339.0</ele>
        <time>2018-05-26T10:04:51.171Z</time>
      </trkpt>
      <trkpt lat="40.72769" lon="-4.11195">
        <ele>1339.0</ele>
        <time>2018-05-26T10:04:52.137Z</time>
      </trkpt>
      <trkpt lat="40.72768667" lon="-4.112015">
        <ele>1338.0</ele>
        <time>2018-05-26T10:04:53.146Z</time>
      </trkpt>
      <trkpt lat="40.72768667" lon="-4.112015">
        <ele>1338.0</ele>
        <time>2018-05-26T10:04:54.153Z</time>
      </trkpt>
      <trkpt lat="40.727685" lon="-4.11207833">
        <ele>1338.0</ele>
        <time>2018-05-26T10:04:55.160Z</time>
      </trkpt>
      <trkpt lat="40.727685" lon="-4.11207833">
        <ele>1338.0</ele>
        <time>2018-05-26T10:04:56.166Z</time>
      </trkpt>
      <trkpt lat="40.727685" lon="-4.11214333">
        <ele>1338.0</ele>
        <time>2018-05-26T10:04:57.158Z</time>
      </trkpt>
      <trkpt lat="40.727685" lon="-4.11214333">
        <ele>1338.0</ele>
        <time>2018-05-26T10:04:58.164Z</time>
      </trkpt>
      <trkpt lat="40.72768" lon="-4.11221167">
        <ele>1337.0</ele>
        <time>2018-05-26T10:04:59.172Z</time>
      </trkpt>
      <trkpt lat="40.727675" lon="-4.11224667">
        <ele>1337.0</ele>
        <time>2018-05-26T10:05:00.147Z</time>
      </trkpt>
      <trkpt lat="40.727675" lon="-4.11224667">
        <ele>1337.0</ele>
        <time>2018-05-26T10:05:01.136Z</time>
      </trkpt>
      <trkpt lat="40.727655" lon="-4.11231167">
        <ele>1337.0</ele>
        <time>2018-05-26T10:05:02.147Z</time>
      </trkpt>
      <trkpt lat="40.727645" lon="-4.11234333">
        <ele>1337.0</ele>
        <time>2018-05-26T10:05:03.162Z</time>
      </trkpt>
      <trkpt lat="40.727645" lon="-4.11234333">
        <ele>1337.0</ele>
        <time>2018-05-26T10:05:04.169Z</time>
      </trkpt>
      <trkpt lat="40.72763333" lon="-4.11240667">
        <ele>1337.0</ele>
        <time>2018-05-26T10:05:05.169Z</time>
      </trkpt>
      <trkpt lat="40.72762833" lon="-4.11244">
        <ele>1337.0</ele>
        <time>2018-05-26T10:05:06.136Z</time>
      </trkpt>
      <trkpt lat="40.72762833" lon="-4.11244">
        <ele>1337.0</ele>
        <time>2018-05-26T10:05:07.143Z</time>
      </trkpt>
      <trkpt lat="40.727605" lon="-4.112505">
        <ele>1338.0</ele>
        <time>2018-05-26T10:05:08.148Z</time>
      </trkpt>
      <trkpt lat="40.72759833" lon="-4.11253167">
        <ele>1338.0</ele>
        <time>2018-05-26T10:05:09.155Z</time>
      </trkpt>
      <trkpt lat="40.72759167" lon="-4.112565">
        <ele>1338.0</ele>
        <time>2018-05-26T10:05:10.163Z</time>
      </trkpt>
      <trkpt lat="40.72759167" lon="-4.112565">
        <ele>1338.0</ele>
        <time>2018-05-26T10:05:11.169Z</time>
      </trkpt>
      <trkpt lat="40.72757167" lon="-4.112635">
        <ele>1338.0</ele>
        <time>2018-05-26T10:05:12.136Z</time>
      </trkpt>
      <trkpt lat="40.72756" lon="-4.11266833">
        <ele>1338.0</ele>
        <time>2018-05-26T10:05:13.146Z</time>
      </trkpt>
      <trkpt lat="40.72756" lon="-4.11266833">
        <ele>1338.0</ele>
        <time>2018-05-26T10:05:14.152Z</time>
      </trkpt>
      <trkpt lat="40.72753833" lon="-4.11273333">
        <ele>1339.0</ele>
        <time>2018-05-26T10:05:15.160Z</time>
      </trkpt>
      <trkpt lat="40.72753833" lon="-4.11273333">
        <ele>1339.0</ele>
        <time>2018-05-26T10:05:16.166Z</time>
      </trkpt>
      <trkpt lat="40.727515" lon="-4.112795">
        <ele>1339.0</ele>
        <time>2018-05-26T10:05:17.159Z</time>
      </trkpt>
      <trkpt lat="40.727515" lon="-4.112795">
        <ele>1339.0</ele>
        <time>2018-05-26T10:05:18.166Z</time>
      </trkpt>
      <trkpt lat="40.72748833" lon="-4.11285333">
        <ele>1340.0</ele>
        <time>2018-05-26T10:05:19.173Z</time>
      </trkpt>
      <trkpt lat="40.727475" lon="-4.11288333">
        <ele>1340.0</ele>
        <time>2018-05-26T10:05:20.149Z</time>
      </trkpt>
      <trkpt lat="40.72746" lon="-4.11291333">
        <ele>1340.0</ele>
        <time>2018-05-26T10:05:21.156Z</time>
      </trkpt>
      <trkpt lat="40.72746" lon="-4.11291333">
        <ele>1340.0</ele>
        <time>2018-05-26T10:05:22.163Z</time>
      </trkpt>
      <trkpt lat="40.72743333" lon="-4.112975">
        <ele>1340.0</ele>
        <time>2018-05-26T10:05:23.174Z</time>
      </trkpt>
      <trkpt lat="40.72742167" lon="-4.11300833">
        <ele>1341.0</ele>
        <time>2018-05-26T10:05:24.145Z</time>
      </trkpt>
      <trkpt lat="40.72742167" lon="-4.11300833">
        <ele>1341.0</ele>
        <time>2018-05-26T10:05:25.152Z</time>
      </trkpt>
      <trkpt lat="40.727405" lon="-4.11307167">
        <ele>1342.0</ele>
        <time>2018-05-26T10:05:26.163Z</time>
      </trkpt>
      <trkpt lat="40.727395" lon="-4.11310333">
        <ele>1342.0</ele>
        <time>2018-05-26T10:05:27.146Z</time>
      </trkpt>
      <trkpt lat="40.727395" lon="-4.11310333">
        <ele>1342.0</ele>
        <time>2018-05-26T10:05:28.152Z</time>
      </trkpt>
      <trkpt lat="40.72737667" lon="-4.11316167">
        <ele>1343.0</ele>
        <time>2018-05-26T10:05:29.159Z</time>
      </trkpt>
      <trkpt lat="40.72737" lon="-4.11319">
        <ele>1343.0</ele>
        <time>2018-05-26T10:05:30.174Z</time>
      </trkpt>
      <trkpt lat="40.72737" lon="-4.11319">
        <ele>1343.0</ele>
        <time>2018-05-26T10:05:31.140Z</time>
      </trkpt>
      <trkpt lat="40.72735833" lon="-4.11325333">
        <ele>1344.0</ele>
        <time>2018-05-26T10:05:32.148Z</time>
      </trkpt>
      <trkpt lat="40.72735" lon="-4.113285">
        <ele>1344.0</ele>
        <time>2018-05-26T10:05:33.138Z</time>
      </trkpt>
      <trkpt lat="40.72735" lon="-4.113285">
        <ele>1344.0</ele>
        <time>2018-05-26T10:05:34.145Z</time>
      </trkpt>
      <trkpt lat="40.72732667" lon="-4.113345">
        <ele>1345.0</ele>
        <time>2018-05-26T10:05:35.152Z</time>
      </trkpt>
      <trkpt lat="40.72731333" lon="-4.11337833">
        <ele>1346.0</ele>
        <time>2018-05-26T10:05:36.143Z</time>
      </trkpt>
      <trkpt lat="40.72731333" lon="-4.11337833">
        <ele>1346.0</ele>
        <time>2018-05-26T10:05:37.150Z</time>
      </trkpt>
      <trkpt lat="40.72729667" lon="-4.113445">
        <ele>1348.0</ele>
        <time>2018-05-26T10:05:38.160Z</time>
      </trkpt>
      <trkpt lat="40.72728667" lon="-4.11348">
        <ele>1349.0</ele>
        <time>2018-05-26T10:05:39.158Z</time>
      </trkpt>
      <trkpt lat="40.72728667" lon="-4.11348">
        <ele>1349.0</ele>
        <time>2018-05-26T10:05:40.164Z</time>
      </trkpt>
      <trkpt lat="40.72727333" lon="-4.11354667">
        <ele>1350.0</ele>
        <time>2018-05-26T10:05:41.172Z</time>
      </trkpt>
      <trkpt lat="40.72727333" lon="-4.11354667">
        <ele>1350.0</ele>
        <time>2018-05-26T10:05:42.139Z</time>
      </trkpt>
      <trkpt lat="40.72726333" lon="-4.11361333">
        <ele>1352.0</ele>
        <time>2018-05-26T10:05:43.166Z</time>
      </trkpt>
      <trkpt lat="40.72726333" lon="-4.11361333">
        <ele>1352.0</ele>
        <time>2018-05-26T10:05:44.173Z</time>
      </trkpt>
      <trkpt lat="40.72725833" lon="-4.11368">
        <ele>1353.0</ele>
        <time>2018-05-26T10:05:45.143Z</time>
      </trkpt>
      <trkpt lat="40.72725833" lon="-4.11368">
        <ele>1353.0</ele>
        <time>2018-05-26T10:05:46.149Z</time>
      </trkpt>
      <trkpt lat="40.72725667" lon="-4.11374167">
        <ele>1354.0</ele>
        <time>2018-05-26T10:05:47.168Z</time>
      </trkpt>
      <trkpt lat="40.72725833" lon="-4.11377333">
        <ele>1354.0</ele>
        <time>2018-05-26T10:05:48.176Z</time>
      </trkpt>
      <trkpt lat="40.72725833" lon="-4.11377333">
        <ele>1354.0</ele>
        <time>2018-05-26T10:05:49.141Z</time>
      </trkpt>
      <trkpt lat="40.72726" lon="-4.11383667">
        <ele>1355.0</ele>
        <time>2018-05-26T10:05:50.153Z</time>
      </trkpt>
      <trkpt lat="40.72726" lon="-4.11383667">
        <ele>1355.0</ele>
        <time>2018-05-26T10:05:51.159Z</time>
      </trkpt>
      <trkpt lat="40.72726333" lon="-4.113905">
        <ele>1356.0</ele>
        <time>2018-05-26T10:05:52.165Z</time>
      </trkpt>
      <trkpt lat="40.72726333" lon="-4.113905">
        <ele>1356.0</ele>
        <time>2018-05-26T10:05:53.174Z</time>
      </trkpt>
      <trkpt lat="40.72726" lon="-4.11397833">
        <ele>1356.0</ele>
        <time>2018-05-26T10:05:54.148Z</time>
      </trkpt>
      <trkpt lat="40.72726" lon="-4.11397833">
        <ele>1356.0</ele>
        <time>2018-05-26T10:05:55.155Z</time>
      </trkpt>
      <trkpt lat="40.72725333" lon="-4.11405667">
        <ele>1357.0</ele>
        <time>2018-05-26T10:05:56.163Z</time>
      </trkpt>
      <trkpt lat="40.72724" lon="-4.11409833">
        <ele>1356.0</ele>
        <time>2018-05-26T10:05:57.158Z</time>
      </trkpt>
      <trkpt lat="40.72724" lon="-4.11409833">
        <ele>1356.0</ele>
        <time>2018-05-26T10:05:58.165Z</time>
      </trkpt>
      <trkpt lat="40.72719833" lon="-4.11416833">
        <ele>1357.0</ele>
        <time>2018-05-26T10:05:59.173Z</time>
      </trkpt>
      <trkpt lat="40.72717833" lon="-4.11419833">
        <ele>1357.0</ele>
        <time>2018-05-26T10:06:00.167Z</time>
      </trkpt>
      <trkpt lat="40.72717833" lon="-4.11419833">
        <ele>1357.0</ele>
        <time>2018-05-26T10:06:01.159Z</time>
      </trkpt>
      <trkpt lat="40.727135" lon="-4.11424667">
        <ele>1358.0</ele>
        <time>2018-05-26T10:06:02.166Z</time>
      </trkpt>
      <trkpt lat="40.72711167" lon="-4.11427667">
        <ele>1358.0</ele>
        <time>2018-05-26T10:06:03.174Z</time>
      </trkpt>
      <trkpt lat="40.72711167" lon="-4.11427667">
        <ele>1358.0</ele>
        <time>2018-05-26T10:06:04.158Z</time>
      </trkpt>
      <trkpt lat="40.72706667" lon="-4.11432833">
        <ele>1359.0</ele>
        <time>2018-05-26T10:06:05.165Z</time>
      </trkpt>
      <trkpt lat="40.72704833" lon="-4.11435333">
        <ele>1359.0</ele>
        <time>2018-05-26T10:06:06.165Z</time>
      </trkpt>
      <trkpt lat="40.72704833" lon="-4.11435333">
        <ele>1359.0</ele>
        <time>2018-05-26T10:06:07.171Z</time>
      </trkpt>
      <trkpt lat="40.72700333" lon="-4.114405">
        <ele>1361.0</ele>
        <time>2018-05-26T10:06:08.141Z</time>
      </trkpt>
      <trkpt lat="40.72698333" lon="-4.11443333">
        <ele>1361.0</ele>
        <time>2018-05-26T10:06:09.137Z</time>
      </trkpt>
      <trkpt lat="40.72698333" lon="-4.11443333">
        <ele>1361.0</ele>
        <time>2018-05-26T10:06:10.144Z</time>
      </trkpt>
      <trkpt lat="40.72694167" lon="-4.114485">
        <ele>1361.0</ele>
        <time>2018-05-26T10:06:11.152Z</time>
      </trkpt>
      <trkpt lat="40.72694167" lon="-4.114485">
        <ele>1361.0</ele>
        <time>2018-05-26T10:06:12.158Z</time>
      </trkpt>
      <trkpt lat="40.72689833" lon="-4.114535">
        <ele>1361.0</ele>
        <time>2018-05-26T10:06:13.142Z</time>
      </trkpt>
      <trkpt lat="40.72689833" lon="-4.114535">
        <ele>1361.0</ele>
        <time>2018-05-26T10:06:14.149Z</time>
      </trkpt>
      <trkpt lat="40.72685333" lon="-4.114585">
        <ele>1361.0</ele>
        <time>2018-05-26T10:06:15.156Z</time>
      </trkpt>
      <trkpt lat="40.72685333" lon="-4.114585">
        <ele>1361.0</ele>
        <time>2018-05-26T10:06:16.146Z</time>
      </trkpt>
      <trkpt lat="40.72680667" lon="-4.11462833">
        <ele>1361.0</ele>
        <time>2018-05-26T10:06:17.148Z</time>
      </trkpt>
      <trkpt lat="40.72680667" lon="-4.11462833">
        <ele>1361.0</ele>
        <time>2018-05-26T10:06:18.154Z</time>
      </trkpt>
      <trkpt lat="40.72675" lon="-4.11466167">
        <ele>1362.0</ele>
        <time>2018-05-26T10:06:19.163Z</time>
      </trkpt>
      <trkpt lat="40.72675" lon="-4.11466167">
        <ele>1362.0</ele>
        <time>2018-05-26T10:06:20.169Z</time>
      </trkpt>
      <trkpt lat="40.7267" lon="-4.11468833">
        <ele>1363.0</ele>
        <time>2018-05-26T10:06:21.159Z</time>
      </trkpt>
      <trkpt lat="40.7267" lon="-4.11468833">
        <ele>1363.0</ele>
        <time>2018-05-26T10:06:22.165Z</time>
      </trkpt>
      <trkpt lat="40.726645" lon="-4.11472667">
        <ele>1362.0</ele>
        <time>2018-05-26T10:06:23.173Z</time>
      </trkpt>
      <trkpt lat="40.726645" lon="-4.11472667">
        <ele>1362.0</ele>
        <time>2018-05-26T10:06:24.139Z</time>
      </trkpt>
      <trkpt lat="40.72659167" lon="-4.11476833">
        <ele>1365.0</ele>
        <time>2018-05-26T10:06:25.147Z</time>
      </trkpt>
      <trkpt lat="40.72659167" lon="-4.11476833">
        <ele>1365.0</ele>
        <time>2018-05-26T10:06:26.153Z</time>
      </trkpt>
      <trkpt lat="40.72654667" lon="-4.11481">
        <ele>1365.0</ele>
        <time>2018-05-26T10:06:27.167Z</time>
      </trkpt>
      <trkpt lat="40.72654667" lon="-4.11481">
        <ele>1365.0</ele>
        <time>2018-05-26T10:06:28.174Z</time>
      </trkpt>
      <trkpt lat="40.72649833" lon="-4.11485667">
        <ele>1366.0</ele>
        <time>2018-05-26T10:06:29.168Z</time>
      </trkpt>
      <trkpt lat="40.72649833" lon="-4.11485667">
        <ele>1366.0</ele>
        <time>2018-05-26T10:06:30.173Z</time>
      </trkpt>
      <trkpt lat="40.72644833" lon="-4.11490167">
        <ele>1366.0</ele>
        <time>2018-05-26T10:06:31.142Z</time>
      </trkpt>
      <trkpt lat="40.72644833" lon="-4.11490167">
        <ele>1366.0</ele>
        <time>2018-05-26T10:06:32.148Z</time>
      </trkpt>
      <trkpt lat="40.726405" lon="-4.11495">
        <ele>1367.0</ele>
        <time>2018-05-26T10:06:33.143Z</time>
      </trkpt>
      <trkpt lat="40.726405" lon="-4.11495">
        <ele>1367.0</ele>
        <time>2018-05-26T10:06:34.150Z</time>
      </trkpt>
      <trkpt lat="40.726355" lon="-4.11499">
        <ele>1368.0</ele>
        <time>2018-05-26T10:06:35.158Z</time>
      </trkpt>
      <trkpt lat="40.726355" lon="-4.11499">
        <ele>1368.0</ele>
        <time>2018-05-26T10:06:36.163Z</time>
      </trkpt>
      <trkpt lat="40.726305" lon="-4.11502667">
        <ele>1369.0</ele>
        <time>2018-05-26T10:06:37.148Z</time>
      </trkpt>
      <trkpt lat="40.726305" lon="-4.11502667">
        <ele>1369.0</ele>
        <time>2018-05-26T10:06:38.154Z</time>
      </trkpt>
      <trkpt lat="40.726255" lon="-4.11506167">
        <ele>1369.0</ele>
        <time>2018-05-26T10:06:39.148Z</time>
      </trkpt>
      <trkpt lat="40.726255" lon="-4.11506167">
        <ele>1369.0</ele>
        <time>2018-05-26T10:06:40.154Z</time>
      </trkpt>
      <trkpt lat="40.72620333" lon="-4.11509833">
        <ele>1370.0</ele>
        <time>2018-05-26T10:06:41.162Z</time>
      </trkpt>
      <trkpt lat="40.72620333" lon="-4.11509833">
        <ele>1370.0</ele>
        <time>2018-05-26T10:06:42.169Z</time>
      </trkpt>
      <trkpt lat="40.72615333" lon="-4.11513">
        <ele>1371.0</ele>
        <time>2018-05-26T10:06:43.141Z</time>
      </trkpt>
      <trkpt lat="40.72615333" lon="-4.11513">
        <ele>1371.0</ele>
        <time>2018-05-26T10:06:44.147Z</time>
      </trkpt>
      <trkpt lat="40.72610333" lon="-4.11516833">
        <ele>1371.0</ele>
        <time>2018-05-26T10:06:45.154Z</time>
      </trkpt>
      <trkpt lat="40.72610333" lon="-4.11516833">
        <ele>1371.0</ele>
        <time>2018-05-26T10:06:46.159Z</time>
      </trkpt>
      <trkpt lat="40.72604667" lon="-4.11520167">
        <ele>1373.0</ele>
        <time>2018-05-26T10:06:47.148Z</time>
      </trkpt>
      <trkpt lat="40.72604667" lon="-4.11520167">
        <ele>1373.0</ele>
        <time>2018-05-26T10:06:48.155Z</time>
      </trkpt>
      <trkpt lat="40.72599" lon="-4.11524667">
        <ele>1374.0</ele>
        <time>2018-05-26T10:06:49.163Z</time>
      </trkpt>
      <trkpt lat="40.72599" lon="-4.11524667">
        <ele>1374.0</ele>
        <time>2018-05-26T10:06:50.169Z</time>
      </trkpt>
      <trkpt lat="40.72593167" lon="-4.11529667">
        <ele>1374.0</ele>
        <time>2018-05-26T10:06:51.148Z</time>
      </trkpt>
      <trkpt lat="40.72593167" lon="-4.11529667">
        <ele>1374.0</ele>
        <time>2018-05-26T10:06:52.154Z</time>
      </trkpt>
      <trkpt lat="40.72586667" lon="-4.115325">
        <ele>1374.0</ele>
        <time>2018-05-26T10:06:53.161Z</time>
      </trkpt>
      <trkpt lat="40.72586667" lon="-4.115325">
        <ele>1374.0</ele>
        <time>2018-05-26T10:06:54.166Z</time>
      </trkpt>
      <trkpt lat="40.72579833" lon="-4.11535667">
        <ele>1374.0</ele>
        <time>2018-05-26T10:06:55.137Z</time>
      </trkpt>
      <trkpt lat="40.72579833" lon="-4.11535667">
        <ele>1374.0</ele>
        <time>2018-05-26T10:06:56.144Z</time>
      </trkpt>
      <trkpt lat="40.72573667" lon="-4.11539167">
        <ele>1374.0</ele>
        <time>2018-05-26T10:06:57.158Z</time>
      </trkpt>
      <trkpt lat="40.72573667" lon="-4.11539167">
        <ele>1374.0</ele>
        <time>2018-05-26T10:06:58.151Z</time>
      </trkpt>
      <trkpt lat="40.72568" lon="-4.115435">
        <ele>1374.0</ele>
        <time>2018-05-26T10:06:59.136Z</time>
      </trkpt>
      <trkpt lat="40.72565667" lon="-4.11546667">
        <ele>1374.0</ele>
        <time>2018-05-26T10:07:00.146Z</time>
      </trkpt>
      <trkpt lat="40.72565667" lon="-4.11546667">
        <ele>1374.0</ele>
        <time>2018-05-26T10:07:01.168Z</time>
      </trkpt>
      <trkpt lat="40.72560833" lon="-4.11554167">
        <ele>1375.0</ele>
        <time>2018-05-26T10:07:02.175Z</time>
      </trkpt>
      <trkpt lat="40.725585" lon="-4.115585">
        <ele>1375.0</ele>
        <time>2018-05-26T10:07:03.144Z</time>
      </trkpt>
      <trkpt lat="40.72556333" lon="-4.11562667">
        <ele>1375.0</ele>
        <time>2018-05-26T10:07:04.166Z</time>
      </trkpt>
      <trkpt lat="40.72556333" lon="-4.11562667">
        <ele>1375.0</ele>
        <time>2018-05-26T10:07:05.173Z</time>
      </trkpt>
      <trkpt lat="40.72553167" lon="-4.11572167">
        <ele>1377.0</ele>
        <time>2018-05-26T10:07:06.141Z</time>
      </trkpt>
      <trkpt lat="40.72553167" lon="-4.11572167">
        <ele>1377.0</ele>
        <time>2018-05-26T10:07:07.147Z</time>
      </trkpt>
      <trkpt lat="40.72549" lon="-4.11579833">
        <ele>1377.0</ele>
        <time>2018-05-26T10:07:08.160Z</time>
      </trkpt>
      <trkpt lat="40.72549" lon="-4.11579833">
        <ele>1377.0</ele>
        <time>2018-05-26T10:07:09.166Z</time>
      </trkpt>
      <trkpt lat="40.72542667" lon="-4.11584333">
        <ele>1377.0</ele>
        <time>2018-05-26T10:07:10.174Z</time>
      </trkpt>
      <trkpt lat="40.72542667" lon="-4.11584333">
        <ele>1377.0</ele>
        <time>2018-05-26T10:07:11.141Z</time>
      </trkpt>
      <trkpt lat="40.72535833" lon="-4.11587333">
        <ele>1378.0</ele>
        <time>2018-05-26T10:07:12.159Z</time>
      </trkpt>
      <trkpt lat="40.72535833" lon="-4.11587333">
        <ele>1378.0</ele>
        <time>2018-05-26T10:07:13.165Z</time>
      </trkpt>
      <trkpt lat="40.72529" lon="-4.1159">
        <ele>1379.0</ele>
        <time>2018-05-26T10:07:14.139Z</time>
      </trkpt>
      <trkpt lat="40.725255" lon="-4.11590667">
        <ele>1379.0</ele>
        <time>2018-05-26T10:07:15.159Z</time>
      </trkpt>
      <trkpt lat="40.725255" lon="-4.11590667">
        <ele>1379.0</ele>
        <time>2018-05-26T10:07:16.165Z</time>
      </trkpt>
      <trkpt lat="40.72518167" lon="-4.11592333">
        <ele>1379.0</ele>
        <time>2018-05-26T10:07:17.175Z</time>
      </trkpt>
      <trkpt lat="40.725145" lon="-4.11593833">
        <ele>1379.0</ele>
        <time>2018-05-26T10:07:18.150Z</time>
      </trkpt>
      <trkpt lat="40.725145" lon="-4.11593833">
        <ele>1379.0</ele>
        <time>2018-05-26T10:07:19.157Z</time>
      </trkpt>
      <trkpt lat="40.72507167" lon="-4.11596667">
        <ele>1379.0</ele>
        <time>2018-05-26T10:07:20.164Z</time>
      </trkpt>
      <trkpt lat="40.72507167" lon="-4.11596667">
        <ele>1379.0</ele>
        <time>2018-05-26T10:07:21.173Z</time>
      </trkpt>
      <trkpt lat="40.72498667" lon="-4.11599167">
        <ele>1379.0</ele>
        <time>2018-05-26T10:07:22.161Z</time>
      </trkpt>
      <trkpt lat="40.72493833" lon="-4.11600833">
        <ele>1378.0</ele>
        <time>2018-05-26T10:07:23.167Z</time>
      </trkpt>
      <trkpt lat="40.72489333" lon="-4.11602667">
        <ele>1378.0</ele>
        <time>2018-05-26T10:07:24.149Z</time>
      </trkpt>
      <trkpt lat="40.72489333" lon="-4.11602667">
        <ele>1378.0</ele>
        <time>2018-05-26T10:07:25.156Z</time>
      </trkpt>
      <trkpt lat="40.72480167" lon="-4.11607167">
        <ele>1378.0</ele>
        <time>2018-05-26T10:07:26.164Z</time>
      </trkpt>
      <trkpt lat="40.72476167" lon="-4.11609667">
        <ele>1378.0</ele>
        <time>2018-05-26T10:07:27.143Z</time>
      </trkpt>
      <trkpt lat="40.72476167" lon="-4.11609667">
        <ele>1378.0</ele>
        <time>2018-05-26T10:07:28.149Z</time>
      </trkpt>
      <trkpt lat="40.72467333" lon="-4.11614333">
        <ele>1378.0</ele>
        <time>2018-05-26T10:07:29.136Z</time>
      </trkpt>
      <trkpt lat="40.72462" lon="-4.11617">
        <ele>1378.0</ele>
        <time>2018-05-26T10:07:30.147Z</time>
      </trkpt>
      <trkpt lat="40.72462" lon="-4.11617">
        <ele>1378.0</ele>
        <time>2018-05-26T10:07:31.153Z</time>
      </trkpt>
      <trkpt lat="40.72452167" lon="-4.11622667">
        <ele>1379.0</ele>
        <time>2018-05-26T10:07:32.171Z</time>
      </trkpt>
      <trkpt lat="40.72447833" lon="-4.116265">
        <ele>1379.0</ele>
        <time>2018-05-26T10:07:33.154Z</time>
      </trkpt>
      <trkpt lat="40.72447833" lon="-4.116265">
        <ele>1379.0</ele>
        <time>2018-05-26T10:07:34.159Z</time>
      </trkpt>
      <trkpt lat="40.72441167" lon="-4.11634167">
        <ele>1378.0</ele>
        <time>2018-05-26T10:07:35.167Z</time>
      </trkpt>
      <trkpt lat="40.724385" lon="-4.11638333">
        <ele>1378.0</ele>
        <time>2018-05-26T10:07:36.174Z</time>
      </trkpt>
      <trkpt lat="40.724385" lon="-4.11638333">
        <ele>1378.0</ele>
        <time>2018-05-26T10:07:37.141Z</time>
      </trkpt>
      <trkpt lat="40.72432833" lon="-4.11646667">
        <ele>1378.0</ele>
        <time>2018-05-26T10:07:38.170Z</time>
      </trkpt>
      <trkpt lat="40.72429833" lon="-4.11651333">
        <ele>1378.0</ele>
        <time>2018-05-26T10:07:39.136Z</time>
      </trkpt>
      <trkpt lat="40.72429833" lon="-4.11651333">
        <ele>1378.0</ele>
        <time>2018-05-26T10:07:40.143Z</time>
      </trkpt>
      <trkpt lat="40.724225" lon="-4.11659167">
        <ele>1378.0</ele>
        <time>2018-05-26T10:07:41.150Z</time>
      </trkpt>
      <trkpt lat="40.72419" lon="-4.116625">
        <ele>1378.0</ele>
        <time>2018-05-26T10:07:42.169Z</time>
      </trkpt>
      <trkpt lat="40.72419" lon="-4.116625">
        <ele>1378.0</ele>
        <time>2018-05-26T10:07:43.175Z</time>
      </trkpt>
      <trkpt lat="40.72411833" lon="-4.1167">
        <ele>1377.0</ele>
        <time>2018-05-26T10:07:44.143Z</time>
      </trkpt>
      <trkpt lat="40.72407333" lon="-4.11673333">
        <ele>1377.0</ele>
        <time>2018-05-26T10:07:45.147Z</time>
      </trkpt>
      <trkpt lat="40.72407333" lon="-4.11673333">
        <ele>1377.0</ele>
        <time>2018-05-26T10:07:46.154Z</time>
      </trkpt>
      <trkpt lat="40.72398667" lon="-4.11680833">
        <ele>1376.0</ele>
        <time>2018-05-26T10:07:47.168Z</time>
      </trkpt>
      <trkpt lat="40.72398667" lon="-4.11680833">
        <ele>1376.0</ele>
        <time>2018-05-26T10:07:48.175Z</time>
      </trkpt>
      <trkpt lat="40.7239" lon="-4.1169">
        <ele>1376.0</ele>
        <time>2018-05-26T10:07:49.175Z</time>
      </trkpt>
      <trkpt lat="40.7239" lon="-4.1169">
        <ele>1376.0</ele>
        <time>2018-05-26T10:07:50.143Z</time>
      </trkpt>
      <trkpt lat="40.723815" lon="-4.117">
        <ele>1376.0</ele>
        <time>2018-05-26T10:07:51.154Z</time>
      </trkpt>
      <trkpt lat="40.723815" lon="-4.117">
        <ele>1376.0</ele>
        <time>2018-05-26T10:07:52.161Z</time>
      </trkpt>
      <trkpt lat="40.723735" lon="-4.117115">
        <ele>1375.0</ele>
        <time>2018-05-26T10:07:53.162Z</time>
      </trkpt>
      <trkpt lat="40.72369333" lon="-4.117175">
        <ele>1375.0</ele>
        <time>2018-05-26T10:07:54.174Z</time>
      </trkpt>
      <trkpt lat="40.72369333" lon="-4.117175">
        <ele>1375.0</ele>
        <time>2018-05-26T10:07:55.142Z</time>
      </trkpt>
      <trkpt lat="40.72361167" lon="-4.11728667">
        <ele>1375.0</ele>
        <time>2018-05-26T10:07:56.165Z</time>
      </trkpt>
      <trkpt lat="40.72356667" lon="-4.117335">
        <ele>1375.0</ele>
        <time>2018-05-26T10:07:57.175Z</time>
      </trkpt>
      <trkpt lat="40.72356667" lon="-4.117335">
        <ele>1375.0</ele>
        <time>2018-05-26T10:07:58.142Z</time>
      </trkpt>
      <trkpt lat="40.723455" lon="-4.11739">
        <ele>1374.0</ele>
        <time>2018-05-26T10:07:59.166Z</time>
      </trkpt>
      <trkpt lat="40.723455" lon="-4.11739">
        <ele>1374.0</ele>
        <time>2018-05-26T10:08:00.147Z</time>
      </trkpt>
      <trkpt lat="40.72334167" lon="-4.11744167">
        <ele>1373.0</ele>
        <time>2018-05-26T10:08:01.170Z</time>
      </trkpt>
      <trkpt lat="40.72328333" lon="-4.11748167">
        <ele>1374.0</ele>
        <time>2018-05-26T10:08:02.136Z</time>
      </trkpt>
      <trkpt lat="40.72323167" lon="-4.11752833">
        <ele>1373.0</ele>
        <time>2018-05-26T10:08:03.147Z</time>
      </trkpt>
      <trkpt lat="40.72323167" lon="-4.11752833">
        <ele>1373.0</ele>
        <time>2018-05-26T10:08:04.153Z</time>
      </trkpt>
      <trkpt lat="40.72313667" lon="-4.117635">
        <ele>1373.0</ele>
        <time>2018-05-26T10:08:05.164Z</time>
      </trkpt>
      <trkpt lat="40.72313667" lon="-4.117635">
        <ele>1373.0</ele>
        <time>2018-05-26T10:08:06.171Z</time>
      </trkpt>
      <trkpt lat="40.72305333" lon="-4.11774667">
        <ele>1374.0</ele>
        <time>2018-05-26T10:08:07.160Z</time>
      </trkpt>
      <trkpt lat="40.72305333" lon="-4.11774667">
        <ele>1374.0</ele>
        <time>2018-05-26T10:08:08.167Z</time>
      </trkpt>
      <trkpt lat="40.72298" lon="-4.11788167">
        <ele>1373.0</ele>
        <time>2018-05-26T10:08:09.165Z</time>
      </trkpt>
      <trkpt lat="40.72298" lon="-4.11788167">
        <ele>1373.0</ele>
        <time>2018-05-26T10:08:10.172Z</time>
      </trkpt>
      <trkpt lat="40.72291333" lon="-4.11800833">
        <ele>1374.0</ele>
        <time>2018-05-26T10:08:11.149Z</time>
      </trkpt>
      <trkpt lat="40.72288667" lon="-4.11807">
        <ele>1374.0</ele>
        <time>2018-05-26T10:08:12.156Z</time>
      </trkpt>
      <trkpt lat="40.722865" lon="-4.118135">
        <ele>1374.0</ele>
        <time>2018-05-26T10:08:13.150Z</time>
      </trkpt>
      <trkpt lat="40.722865" lon="-4.118135">
        <ele>1374.0</ele>
        <time>2018-05-26T10:08:14.156Z</time>
      </trkpt>
      <trkpt lat="40.722825" lon="-4.11825667">
        <ele>1375.0</ele>
        <time>2018-05-26T10:08:15.164Z</time>
      </trkpt>
      <trkpt lat="40.722825" lon="-4.11825667">
        <ele>1375.0</ele>
        <time>2018-05-26T10:08:16.169Z</time>
      </trkpt>
      <trkpt lat="40.72278" lon="-4.11836">
        <ele>1376.0</ele>
        <time>2018-05-26T10:08:17.173Z</time>
      </trkpt>
      <trkpt lat="40.72278" lon="-4.11836">
        <ele>1376.0</ele>
        <time>2018-05-26T10:08:18.140Z</time>
      </trkpt>
      <trkpt lat="40.72273333" lon="-4.11844333">
        <ele>1376.0</ele>
        <time>2018-05-26T10:08:19.148Z</time>
      </trkpt>
      <trkpt lat="40.72273333" lon="-4.11844333">
        <ele>1376.0</ele>
        <time>2018-05-26T10:08:20.154Z</time>
      </trkpt>
      <trkpt lat="40.72269333" lon="-4.11852">
        <ele>1376.0</ele>
        <time>2018-05-26T10:08:21.148Z</time>
      </trkpt>
      <trkpt lat="40.72269333" lon="-4.11852">
        <ele>1376.0</ele>
        <time>2018-05-26T10:08:22.154Z</time>
      </trkpt>
      <trkpt lat="40.72267" lon="-4.118595">
        <ele>1376.0</ele>
        <time>2018-05-26T10:08:23.144Z</time>
      </trkpt>
      <trkpt lat="40.72267" lon="-4.118595">
        <ele>1376.0</ele>
        <time>2018-05-26T10:08:24.151Z</time>
      </trkpt>
      <trkpt lat="40.72264333" lon="-4.11867667">
        <ele>1377.0</ele>
        <time>2018-05-26T10:08:25.140Z</time>
      </trkpt>
      <trkpt lat="40.72264333" lon="-4.11867667">
        <ele>1377.0</ele>
        <time>2018-05-26T10:08:26.146Z</time>
      </trkpt>
      <trkpt lat="40.72262833" lon="-4.11876333">
        <ele>1378.0</ele>
        <time>2018-05-26T10:08:27.159Z</time>
      </trkpt>
      <trkpt lat="40.72262833" lon="-4.11876333">
        <ele>1378.0</ele>
        <time>2018-05-26T10:08:28.165Z</time>
      </trkpt>
      <trkpt lat="40.72261" lon="-4.118845">
        <ele>1378.0</ele>
        <time>2018-05-26T10:08:29.173Z</time>
      </trkpt>
      <trkpt lat="40.72259667" lon="-4.11888833">
        <ele>1378.0</ele>
        <time>2018-05-26T10:08:30.168Z</time>
      </trkpt>
      <trkpt lat="40.72259667" lon="-4.11888833">
        <ele>1378.0</ele>
        <time>2018-05-26T10:08:31.157Z</time>
      </trkpt>
      <trkpt lat="40.72256333" lon="-4.11898167">
        <ele>1379.0</ele>
        <time>2018-05-26T10:08:32.148Z</time>
      </trkpt>
      <trkpt lat="40.72256333" lon="-4.11898167">
        <ele>1379.0</ele>
        <time>2018-05-26T10:08:33.154Z</time>
      </trkpt>
      <trkpt lat="40.72253167" lon="-4.11907333">
        <ele>1379.0</ele>
        <time>2018-05-26T10:08:34.173Z</time>
      </trkpt>
      <trkpt lat="40.72253167" lon="-4.11907333">
        <ele>1379.0</ele>
        <time>2018-05-26T10:08:35.165Z</time>
      </trkpt>
      <trkpt lat="40.7225" lon="-4.11916333">
        <ele>1380.0</ele>
        <time>2018-05-26T10:08:36.148Z</time>
      </trkpt>
      <trkpt lat="40.7225" lon="-4.11916333">
        <ele>1380.0</ele>
        <time>2018-05-26T10:08:37.156Z</time>
      </trkpt>
      <trkpt lat="40.72247167" lon="-4.11924833">
        <ele>1380.0</ele>
        <time>2018-05-26T10:08:38.166Z</time>
      </trkpt>
      <trkpt lat="40.72245667" lon="-4.11929333">
        <ele>1380.0</ele>
        <time>2018-05-26T10:08:39.163Z</time>
      </trkpt>
      <trkpt lat="40.72245667" lon="-4.11929333">
        <ele>1380.0</ele>
        <time>2018-05-26T10:08:40.168Z</time>
      </trkpt>
      <trkpt lat="40.72243167" lon="-4.11938167">
        <ele>1381.0</ele>
        <time>2018-05-26T10:08:41.138Z</time>
      </trkpt>
      <trkpt lat="40.72241833" lon="-4.11942333">
        <ele>1381.0</ele>
        <time>2018-05-26T10:08:42.148Z</time>
      </trkpt>
      <trkpt lat="40.722405" lon="-4.11946667">
        <ele>1381.0</ele>
        <time>2018-05-26T10:08:43.167Z</time>
      </trkpt>
      <trkpt lat="40.722405" lon="-4.11946667">
        <ele>1381.0</ele>
        <time>2018-05-26T10:08:44.173Z</time>
      </trkpt>
      <trkpt lat="40.72237833" lon="-4.11955833">
        <ele>1382.0</ele>
        <time>2018-05-26T10:08:45.142Z</time>
      </trkpt>
      <trkpt lat="40.72237833" lon="-4.11955833">
        <ele>1382.0</ele>
        <time>2018-05-26T10:08:46.148Z</time>
      </trkpt>
      <trkpt lat="40.72235667" lon="-4.11965167">
        <ele>1382.0</ele>
        <time>2018-05-26T10:08:47.153Z</time>
      </trkpt>
      <trkpt lat="40.72235667" lon="-4.11965167">
        <ele>1382.0</ele>
        <time>2018-05-26T10:08:48.160Z</time>
      </trkpt>
      <trkpt lat="40.72233833" lon="-4.11974">
        <ele>1382.0</ele>
        <time>2018-05-26T10:08:49.167Z</time>
      </trkpt>
      <trkpt lat="40.72233833" lon="-4.11974">
        <ele>1382.0</ele>
        <time>2018-05-26T10:08:50.173Z</time>
      </trkpt>
      <trkpt lat="40.72231833" lon="-4.11982">
        <ele>1382.0</ele>
        <time>2018-05-26T10:08:51.156Z</time>
      </trkpt>
      <trkpt lat="40.72231833" lon="-4.11982">
        <ele>1382.0</ele>
        <time>2018-05-26T10:08:52.164Z</time>
      </trkpt>
      <trkpt lat="40.72230333" lon="-4.11990833">
        <ele>1383.0</ele>
        <time>2018-05-26T10:08:53.171Z</time>
      </trkpt>
      <trkpt lat="40.72230333" lon="-4.11990833">
        <ele>1383.0</ele>
        <time>2018-05-26T10:08:54.136Z</time>
      </trkpt>
      <trkpt lat="40.72229333" lon="-4.12000833">
        <ele>1383.0</ele>
        <time>2018-05-26T10:08:55.138Z</time>
      </trkpt>
      <trkpt lat="40.72229333" lon="-4.12000833">
        <ele>1383.0</ele>
        <time>2018-05-26T10:08:56.144Z</time>
      </trkpt>
      <trkpt lat="40.72227667" lon="-4.12009667">
        <ele>1383.0</ele>
        <time>2018-05-26T10:08:57.162Z</time>
      </trkpt>
      <trkpt lat="40.72227667" lon="-4.12009667">
        <ele>1383.0</ele>
        <time>2018-05-26T10:08:58.168Z</time>
      </trkpt>
      <trkpt lat="40.72226" lon="-4.120185">
        <ele>1383.0</ele>
        <time>2018-05-26T10:08:59.175Z</time>
      </trkpt>
      <trkpt lat="40.72226" lon="-4.120185">
        <ele>1383.0</ele>
        <time>2018-05-26T10:09:00.142Z</time>
      </trkpt>
      <trkpt lat="40.72224" lon="-4.12027333">
        <ele>1383.0</ele>
        <time>2018-05-26T10:09:01.139Z</time>
      </trkpt>
      <trkpt lat="40.72224" lon="-4.12027333">
        <ele>1383.0</ele>
        <time>2018-05-26T10:09:02.145Z</time>
      </trkpt>
      <trkpt lat="40.722215" lon="-4.12035333">
        <ele>1383.0</ele>
        <time>2018-05-26T10:09:03.156Z</time>
      </trkpt>
      <trkpt lat="40.722215" lon="-4.12035333">
        <ele>1383.0</ele>
        <time>2018-05-26T10:09:04.161Z</time>
      </trkpt>
      <trkpt lat="40.72219333" lon="-4.12043333">
        <ele>1384.0</ele>
        <time>2018-05-26T10:09:05.147Z</time>
      </trkpt>
      <trkpt lat="40.72219333" lon="-4.12043333">
        <ele>1384.0</ele>
        <time>2018-05-26T10:09:06.153Z</time>
      </trkpt>
      <trkpt lat="40.722165" lon="-4.12052167">
        <ele>1384.0</ele>
        <time>2018-05-26T10:09:07.164Z</time>
      </trkpt>
      <trkpt lat="40.72214833" lon="-4.12056833">
        <ele>1384.0</ele>
        <time>2018-05-26T10:09:08.149Z</time>
      </trkpt>
      <trkpt lat="40.72214833" lon="-4.12056833">
        <ele>1384.0</ele>
        <time>2018-05-26T10:09:09.155Z</time>
      </trkpt>
      <trkpt lat="40.722115" lon="-4.12065667">
        <ele>1384.0</ele>
        <time>2018-05-26T10:09:10.163Z</time>
      </trkpt>
      <trkpt lat="40.722115" lon="-4.12065667">
        <ele>1384.0</ele>
        <time>2018-05-26T10:09:11.168Z</time>
      </trkpt>
      <trkpt lat="40.722085" lon="-4.120745">
        <ele>1384.0</ele>
        <time>2018-05-26T10:09:12.152Z</time>
      </trkpt>
      <trkpt lat="40.72207333" lon="-4.12078833">
        <ele>1384.0</ele>
        <time>2018-05-26T10:09:13.160Z</time>
      </trkpt>
      <trkpt lat="40.72207333" lon="-4.12078833">
        <ele>1384.0</ele>
        <time>2018-05-26T10:09:14.166Z</time>
      </trkpt>
      <trkpt lat="40.72205" lon="-4.12087667">
        <ele>1385.0</ele>
        <time>2018-05-26T10:09:15.168Z</time>
      </trkpt>
      <trkpt lat="40.72205" lon="-4.12087667">
        <ele>1385.0</ele>
        <time>2018-05-26T10:09:16.157Z</time>
      </trkpt>
      <trkpt lat="40.722025" lon="-4.12097833">
        <ele>1385.0</ele>
        <time>2018-05-26T10:09:17.154Z</time>
      </trkpt>
      <trkpt lat="40.722025" lon="-4.12097833">
        <ele>1385.0</ele>
        <time>2018-05-26T10:09:18.161Z</time>
      </trkpt>
      <trkpt lat="40.721995" lon="-4.12107167">
        <ele>1385.0</ele>
        <time>2018-05-26T10:09:19.137Z</time>
      </trkpt>
      <trkpt lat="40.721995" lon="-4.12107167">
        <ele>1385.0</ele>
        <time>2018-05-26T10:09:20.167Z</time>
      </trkpt>
      <trkpt lat="40.72196667" lon="-4.12115">
        <ele>1385.0</ele>
        <time>2018-05-26T10:09:21.148Z</time>
      </trkpt>
      <trkpt lat="40.72196667" lon="-4.12115">
        <ele>1385.0</ele>
        <time>2018-05-26T10:09:22.154Z</time>
      </trkpt>
      <trkpt lat="40.72193833" lon="-4.12122167">
        <ele>1385.0</ele>
        <time>2018-05-26T10:09:23.161Z</time>
      </trkpt>
      <trkpt lat="40.72193833" lon="-4.12122167">
        <ele>1385.0</ele>
        <time>2018-05-26T10:09:24.168Z</time>
      </trkpt>
      <trkpt lat="40.72191" lon="-4.121305">
        <ele>1385.0</ele>
        <time>2018-05-26T10:09:25.144Z</time>
      </trkpt>
      <trkpt lat="40.72191" lon="-4.121305">
        <ele>1385.0</ele>
        <time>2018-05-26T10:09:26.151Z</time>
      </trkpt>
      <trkpt lat="40.72189333" lon="-4.12139833">
        <ele>1386.0</ele>
        <time>2018-05-26T10:09:27.162Z</time>
      </trkpt>
      <trkpt lat="40.72189333" lon="-4.12139833">
        <ele>1386.0</ele>
        <time>2018-05-26T10:09:28.168Z</time>
      </trkpt>
      <trkpt lat="40.72188" lon="-4.12148833">
        <ele>1387.0</ele>
        <time>2018-05-26T10:09:29.145Z</time>
      </trkpt>
      <trkpt lat="40.72188" lon="-4.12148833">
        <ele>1387.0</ele>
        <time>2018-05-26T10:09:30.152Z</time>
      </trkpt>
      <trkpt lat="40.72188167" lon="-4.12157">
        <ele>1387.0</ele>
        <time>2018-05-26T10:09:31.159Z</time>
      </trkpt>
      <trkpt lat="40.72188167" lon="-4.12157">
        <ele>1387.0</ele>
        <time>2018-05-26T10:09:32.164Z</time>
      </trkpt>
      <trkpt lat="40.721885" lon="-4.12164333">
        <ele>1387.0</ele>
        <time>2018-05-26T10:09:33.162Z</time>
      </trkpt>
      <trkpt lat="40.721885" lon="-4.12164333">
        <ele>1387.0</ele>
        <time>2018-05-26T10:09:34.169Z</time>
      </trkpt>
      <trkpt lat="40.72187667" lon="-4.12171833">
        <ele>1388.0</ele>
        <time>2018-05-26T10:09:35.175Z</time>
      </trkpt>
      <trkpt lat="40.72187333" lon="-4.12175667">
        <ele>1388.0</ele>
        <time>2018-05-26T10:09:36.159Z</time>
      </trkpt>
      <trkpt lat="40.72187333" lon="-4.12175667">
        <ele>1388.0</ele>
        <time>2018-05-26T10:09:37.166Z</time>
      </trkpt>
      <trkpt lat="40.72187333" lon="-4.12183">
        <ele>1388.0</ele>
        <time>2018-05-26T10:09:38.174Z</time>
      </trkpt>
      <trkpt lat="40.72187167" lon="-4.12186">
        <ele>1388.0</ele>
        <time>2018-05-26T10:09:39.139Z</time>
      </trkpt>
      <trkpt lat="40.72187167" lon="-4.12186">
        <ele>1388.0</ele>
        <time>2018-05-26T10:09:40.145Z</time>
      </trkpt>
      <trkpt lat="40.72187333" lon="-4.12193333">
        <ele>1388.0</ele>
        <time>2018-05-26T10:09:41.153Z</time>
      </trkpt>
      <trkpt lat="40.72187333" lon="-4.12193333">
        <ele>1388.0</ele>
        <time>2018-05-26T10:09:42.158Z</time>
      </trkpt>
      <trkpt lat="40.72184667" lon="-4.12202333">
        <ele>1388.0</ele>
        <time>2018-05-26T10:09:43.148Z</time>
      </trkpt>
      <trkpt lat="40.72182167" lon="-4.12205667">
        <ele>1387.0</ele>
        <time>2018-05-26T10:09:44.156Z</time>
      </trkpt>
      <trkpt lat="40.72182167" lon="-4.12205667">
        <ele>1387.0</ele>
        <time>2018-05-26T10:09:45.162Z</time>
      </trkpt>
      <trkpt lat="40.72175833" lon="-4.12209333">
        <ele>1387.0</ele>
        <time>2018-05-26T10:09:46.161Z</time>
      </trkpt>
      <trkpt lat="40.72175833" lon="-4.12209333">
        <ele>1387.0</ele>
        <time>2018-05-26T10:09:47.167Z</time>
      </trkpt>
      <trkpt lat="40.72169833" lon="-4.12214">
        <ele>1387.0</ele>
        <time>2018-05-26T10:09:48.175Z</time>
      </trkpt>
      <trkpt lat="40.72169833" lon="-4.12214">
        <ele>1387.0</ele>
        <time>2018-05-26T10:09:49.142Z</time>
      </trkpt>
      <trkpt lat="40.72165" lon="-4.1222">
        <ele>1388.0</ele>
        <time>2018-05-26T10:09:50.149Z</time>
      </trkpt>
      <trkpt lat="40.72165" lon="-4.1222">
        <ele>1388.0</ele>
        <time>2018-05-26T10:09:51.155Z</time>
      </trkpt>
      <trkpt lat="40.72159167" lon="-4.12226333">
        <ele>1387.0</ele>
        <time>2018-05-26T10:09:52.163Z</time>
      </trkpt>
      <trkpt lat="40.72159167" lon="-4.12226333">
        <ele>1387.0</ele>
        <time>2018-05-26T10:09:53.169Z</time>
      </trkpt>
      <trkpt lat="40.72153" lon="-4.12233167">
        <ele>1387.0</ele>
        <time>2018-05-26T10:09:54.148Z</time>
      </trkpt>
      <trkpt lat="40.72153" lon="-4.12233167">
        <ele>1387.0</ele>
        <time>2018-05-26T10:09:55.155Z</time>
      </trkpt>
      <trkpt lat="40.721475" lon="-4.12240667">
        <ele>1387.0</ele>
        <time>2018-05-26T10:09:56.167Z</time>
      </trkpt>
      <trkpt lat="40.721455" lon="-4.12244833">
        <ele>1387.0</ele>
        <time>2018-05-26T10:09:57.140Z</time>
      </trkpt>
      <trkpt lat="40.721455" lon="-4.12244833">
        <ele>1387.0</ele>
        <time>2018-05-26T10:09:58.146Z</time>
      </trkpt>
      <trkpt lat="40.72142167" lon="-4.122545">
        <ele>1388.0</ele>
        <time>2018-05-26T10:09:59.167Z</time>
      </trkpt>
      <trkpt lat="40.72142167" lon="-4.122545">
        <ele>1388.0</ele>
        <time>2018-05-26T10:10:00.146Z</time>
      </trkpt>
      <trkpt lat="40.72139" lon="-4.12263">
        <ele>1388.0</ele>
        <time>2018-05-26T10:10:01.142Z</time>
      </trkpt>
      <trkpt lat="40.72139" lon="-4.12263">
        <ele>1388.0</ele>
        <time>2018-05-26T10:10:02.147Z</time>
      </trkpt>
      <trkpt lat="40.72136833" lon="-4.12269833">
        <ele>1388.0</ele>
        <time>2018-05-26T10:10:03.149Z</time>
      </trkpt>
      <trkpt lat="40.72136833" lon="-4.12269833">
        <ele>1388.0</ele>
        <time>2018-05-26T10:10:04.154Z</time>
      </trkpt>
      <trkpt lat="40.72134833" lon="-4.12276333">
        <ele>1389.0</ele>
        <time>2018-05-26T10:10:05.162Z</time>
      </trkpt>
      <trkpt lat="40.72134833" lon="-4.12276333">
        <ele>1389.0</ele>
        <time>2018-05-26T10:10:06.169Z</time>
      </trkpt>
      <trkpt lat="40.72133833" lon="-4.12282833">
        <ele>1390.0</ele>
        <time>2018-05-26T10:10:07.159Z</time>
      </trkpt>
      <trkpt lat="40.72133833" lon="-4.12282833">
        <ele>1390.0</ele>
        <time>2018-05-26T10:10:08.166Z</time>
      </trkpt>
      <trkpt lat="40.72131333" lon="-4.1229">
        <ele>1391.0</ele>
        <time>2018-05-26T10:10:09.173Z</time>
      </trkpt>
      <trkpt lat="40.72131333" lon="-4.1229">
        <ele>1391.0</ele>
        <time>2018-05-26T10:10:10.145Z</time>
      </trkpt>
      <trkpt lat="40.72129" lon="-4.12295833">
        <ele>1392.0</ele>
        <time>2018-05-26T10:10:11.148Z</time>
      </trkpt>
      <trkpt lat="40.72129" lon="-4.12295833">
        <ele>1392.0</ele>
        <time>2018-05-26T10:10:12.155Z</time>
      </trkpt>
      <trkpt lat="40.72129167" lon="-4.12302167">
        <ele>1392.0</ele>
        <time>2018-05-26T10:10:13.162Z</time>
      </trkpt>
      <trkpt lat="40.72129167" lon="-4.12302167">
        <ele>1392.0</ele>
        <time>2018-05-26T10:10:14.158Z</time>
      </trkpt>
      <trkpt lat="40.72128667" lon="-4.12307833">
        <ele>1392.0</ele>
        <time>2018-05-26T10:10:15.174Z</time>
      </trkpt>
      <trkpt lat="40.72128667" lon="-4.12307833">
        <ele>1392.0</ele>
        <time>2018-05-26T10:10:16.140Z</time>
      </trkpt>
      <trkpt lat="40.72126667" lon="-4.12313333">
        <ele>1392.0</ele>
        <time>2018-05-26T10:10:17.148Z</time>
      </trkpt>
      <trkpt lat="40.721255" lon="-4.12316">
        <ele>1392.0</ele>
        <time>2018-05-26T10:10:18.154Z</time>
      </trkpt>
      <trkpt lat="40.721255" lon="-4.12316">
        <ele>1392.0</ele>
        <time>2018-05-26T10:10:19.161Z</time>
      </trkpt>
      <trkpt lat="40.72123" lon="-4.123225">
        <ele>1392.0</ele>
        <time>2018-05-26T10:10:20.167Z</time>
      </trkpt>
      <trkpt lat="40.721215" lon="-4.12325667">
        <ele>1392.0</ele>
        <time>2018-05-26T10:10:21.151Z</time>
      </trkpt>
      <trkpt lat="40.7212" lon="-4.12328667">
        <ele>1393.0</ele>
        <time>2018-05-26T10:10:22.158Z</time>
      </trkpt>
      <trkpt lat="40.7212" lon="-4.12328667">
        <ele>1393.0</ele>
        <time>2018-05-26T10:10:23.165Z</time>
      </trkpt>
      <trkpt lat="40.72117833" lon="-4.12335">
        <ele>1393.0</ele>
        <time>2018-05-26T10:10:24.172Z</time>
      </trkpt>
      <trkpt lat="40.72117333" lon="-4.12338333">
        <ele>1393.0</ele>
        <time>2018-05-26T10:10:25.140Z</time>
      </trkpt>
      <trkpt lat="40.72117333" lon="-4.12338333">
        <ele>1393.0</ele>
        <time>2018-05-26T10:10:26.155Z</time>
      </trkpt>
      <trkpt lat="40.721165" lon="-4.12345">
        <ele>1394.0</ele>
        <time>2018-05-26T10:10:27.139Z</time>
      </trkpt>
      <trkpt lat="40.721165" lon="-4.12345">
        <ele>1394.0</ele>
        <time>2018-05-26T10:10:28.146Z</time>
      </trkpt>
      <trkpt lat="40.72115833" lon="-4.12352">
        <ele>1394.0</ele>
        <time>2018-05-26T10:10:29.155Z</time>
      </trkpt>
      <trkpt lat="40.721155" lon="-4.123555">
        <ele>1394.0</ele>
        <time>2018-05-26T10:10:30.138Z</time>
      </trkpt>
      <trkpt lat="40.721155" lon="-4.123555">
        <ele>1394.0</ele>
        <time>2018-05-26T10:10:31.144Z</time>
      </trkpt>
      <trkpt lat="40.72114" lon="-4.12362667">
        <ele>1394.0</ele>
        <time>2018-05-26T10:10:32.151Z</time>
      </trkpt>
      <trkpt lat="40.72113" lon="-4.12365833">
        <ele>1394.0</ele>
        <time>2018-05-26T10:10:33.150Z</time>
      </trkpt>
      <trkpt lat="40.72113" lon="-4.12365833">
        <ele>1394.0</ele>
        <time>2018-05-26T10:10:34.156Z</time>
      </trkpt>
      <trkpt lat="40.72110833" lon="-4.12372333">
        <ele>1394.0</ele>
        <time>2018-05-26T10:10:35.163Z</time>
      </trkpt>
      <trkpt lat="40.72110833" lon="-4.12372333">
        <ele>1394.0</ele>
        <time>2018-05-26T10:10:36.168Z</time>
      </trkpt>
      <trkpt lat="40.72109167" lon="-4.12378333">
        <ele>1394.0</ele>
        <time>2018-05-26T10:10:37.157Z</time>
      </trkpt>
      <trkpt lat="40.72109167" lon="-4.12378333">
        <ele>1394.0</ele>
        <time>2018-05-26T10:10:38.164Z</time>
      </trkpt>
      <trkpt lat="40.72107833" lon="-4.12385167">
        <ele>1394.0</ele>
        <time>2018-05-26T10:10:39.148Z</time>
      </trkpt>
      <trkpt lat="40.72107833" lon="-4.12385167">
        <ele>1394.0</ele>
        <time>2018-05-26T10:10:40.154Z</time>
      </trkpt>
      <trkpt lat="40.72108167" lon="-4.12391167">
        <ele>1394.0</ele>
        <time>2018-05-26T10:10:41.161Z</time>
      </trkpt>
      <trkpt lat="40.72108167" lon="-4.12391167">
        <ele>1394.0</ele>
        <time>2018-05-26T10:10:42.167Z</time>
      </trkpt>
      <trkpt lat="40.72105667" lon="-4.123965">
        <ele>1394.0</ele>
        <time>2018-05-26T10:10:43.175Z</time>
      </trkpt>
      <trkpt lat="40.72105667" lon="-4.123965">
        <ele>1394.0</ele>
        <time>2018-05-26T10:10:44.143Z</time>
      </trkpt>
      <trkpt lat="40.72103667" lon="-4.124045">
        <ele>1394.0</ele>
        <time>2018-05-26T10:10:45.151Z</time>
      </trkpt>
      <trkpt lat="40.72103667" lon="-4.124045">
        <ele>1394.0</ele>
        <time>2018-05-26T10:10:46.156Z</time>
      </trkpt>
      <trkpt lat="40.72100167" lon="-4.12410667">
        <ele>1395.0</ele>
        <time>2018-05-26T10:10:47.148Z</time>
      </trkpt>
      <trkpt lat="40.72099" lon="-4.12414333">
        <ele>1395.0</ele>
        <time>2018-05-26T10:10:48.155Z</time>
      </trkpt>
      <trkpt lat="40.72098333" lon="-4.12417667">
        <ele>1395.0</ele>
        <time>2018-05-26T10:10:49.162Z</time>
      </trkpt>
      <trkpt lat="40.72098333" lon="-4.12417667">
        <ele>1395.0</ele>
        <time>2018-05-26T10:10:50.168Z</time>
      </trkpt>
      <trkpt lat="40.72096667" lon="-4.12424">
        <ele>1395.0</ele>
        <time>2018-05-26T10:10:51.175Z</time>
      </trkpt>
      <trkpt lat="40.72096667" lon="-4.12424">
        <ele>1395.0</ele>
        <time>2018-05-26T10:10:52.144Z</time>
      </trkpt>
      <trkpt lat="40.72095167" lon="-4.124305">
        <ele>1395.0</ele>
        <time>2018-05-26T10:10:53.148Z</time>
      </trkpt>
      <trkpt lat="40.72095167" lon="-4.124305">
        <ele>1395.0</ele>
        <time>2018-05-26T10:10:54.153Z</time>
      </trkpt>
      <trkpt lat="40.720935" lon="-4.12436833">
        <ele>1395.0</ele>
        <time>2018-05-26T10:10:55.160Z</time>
      </trkpt>
      <trkpt lat="40.720935" lon="-4.12436833">
        <ele>1395.0</ele>
        <time>2018-05-26T10:10:56.166Z</time>
      </trkpt>
      <trkpt lat="40.720915" lon="-4.12444">
        <ele>1396.0</ele>
        <time>2018-05-26T10:10:57.148Z</time>
      </trkpt>
      <trkpt lat="40.720915" lon="-4.12444">
        <ele>1396.0</ele>
        <time>2018-05-26T10:10:58.155Z</time>
      </trkpt>
      <trkpt lat="40.72089167" lon="-4.124515">
        <ele>1396.0</ele>
        <time>2018-05-26T10:10:59.140Z</time>
      </trkpt>
      <trkpt lat="40.720875" lon="-4.12455">
        <ele>1396.0</ele>
        <time>2018-05-26T10:11:00.156Z</time>
      </trkpt>
      <trkpt lat="40.720875" lon="-4.12455">
        <ele>1396.0</ele>
        <time>2018-05-26T10:11:01.163Z</time>
      </trkpt>
      <trkpt lat="40.720845" lon="-4.12461333">
        <ele>1396.0</ele>
        <time>2018-05-26T10:11:02.169Z</time>
      </trkpt>
      <trkpt lat="40.72083167" lon="-4.124645">
        <ele>1396.0</ele>
        <time>2018-05-26T10:11:03.136Z</time>
      </trkpt>
      <trkpt lat="40.72083167" lon="-4.124645">
        <ele>1396.0</ele>
        <time>2018-05-26T10:11:04.143Z</time>
      </trkpt>
      <trkpt lat="40.72081667" lon="-4.12470833">
        <ele>1396.0</ele>
        <time>2018-05-26T10:11:05.149Z</time>
      </trkpt>
      <trkpt lat="40.72080833" lon="-4.12474333">
        <ele>1396.0</ele>
        <time>2018-05-26T10:11:06.157Z</time>
      </trkpt>
      <trkpt lat="40.72080833" lon="-4.12474333">
        <ele>1396.0</ele>
        <time>2018-05-26T10:11:07.163Z</time>
      </trkpt>
      <trkpt lat="40.72079667" lon="-4.12480833">
        <ele>1397.0</ele>
        <time>2018-05-26T10:11:08.146Z</time>
      </trkpt>
      <trkpt lat="40.72078833" lon="-4.12484">
        <ele>1398.0</ele>
        <time>2018-05-26T10:11:09.165Z</time>
      </trkpt>
      <trkpt lat="40.72078833" lon="-4.12484">
        <ele>1398.0</ele>
        <time>2018-05-26T10:11:10.171Z</time>
      </trkpt>
      <trkpt lat="40.72077167" lon="-4.12490833">
        <ele>1398.0</ele>
        <time>2018-05-26T10:11:11.140Z</time>
      </trkpt>
      <trkpt lat="40.72077167" lon="-4.12490833">
        <ele>1398.0</ele>
        <time>2018-05-26T10:11:12.145Z</time>
      </trkpt>
      <trkpt lat="40.72075" lon="-4.12498">
        <ele>1399.0</ele>
        <time>2018-05-26T10:11:13.158Z</time>
      </trkpt>
      <trkpt lat="40.72075" lon="-4.12498">
        <ele>1399.0</ele>
        <time>2018-05-26T10:11:14.164Z</time>
      </trkpt>
      <trkpt lat="40.72074167" lon="-4.12506167">
        <ele>1399.0</ele>
        <time>2018-05-26T10:11:15.172Z</time>
      </trkpt>
      <trkpt lat="40.72074167" lon="-4.12506167">
        <ele>1399.0</ele>
        <time>2018-05-26T10:11:16.139Z</time>
      </trkpt>
      <trkpt lat="40.72074" lon="-4.12513333">
        <ele>1399.0</ele>
        <time>2018-05-26T10:11:17.160Z</time>
      </trkpt>
      <trkpt lat="40.72074333" lon="-4.12516833">
        <ele>1399.0</ele>
        <time>2018-05-26T10:11:18.140Z</time>
      </trkpt>
      <trkpt lat="40.72074333" lon="-4.12516833">
        <ele>1399.0</ele>
        <time>2018-05-26T10:11:19.145Z</time>
      </trkpt>
      <trkpt lat="40.72074833" lon="-4.12523833">
        <ele>1400.0</ele>
        <time>2018-05-26T10:11:20.137Z</time>
      </trkpt>
      <trkpt lat="40.72074833" lon="-4.12527333">
        <ele>1401.0</ele>
        <time>2018-05-26T10:11:21.144Z</time>
      </trkpt>
      <trkpt lat="40.72074833" lon="-4.12527333">
        <ele>1401.0</ele>
        <time>2018-05-26T10:11:22.150Z</time>
      </trkpt>
      <trkpt lat="40.720745" lon="-4.125345">
        <ele>1401.0</ele>
        <time>2018-05-26T10:11:23.138Z</time>
      </trkpt>
      <trkpt lat="40.720745" lon="-4.125345">
        <ele>1401.0</ele>
        <time>2018-05-26T10:11:24.145Z</time>
      </trkpt>
      <trkpt lat="40.72073" lon="-4.12541667">
        <ele>1401.0</ele>
        <time>2018-05-26T10:11:25.154Z</time>
      </trkpt>
      <trkpt lat="40.72073" lon="-4.12541667">
        <ele>1401.0</ele>
        <time>2018-05-26T10:11:26.159Z</time>
      </trkpt>
      <trkpt lat="40.720695" lon="-4.12547667">
        <ele>1402.0</ele>
        <time>2018-05-26T10:11:27.160Z</time>
      </trkpt>
      <trkpt lat="40.720695" lon="-4.12547667">
        <ele>1402.0</ele>
        <time>2018-05-26T10:11:28.166Z</time>
      </trkpt>
      <trkpt lat="40.72063667" lon="-4.12550333">
        <ele>1402.0</ele>
        <time>2018-05-26T10:11:29.138Z</time>
      </trkpt>
      <trkpt lat="40.72060833" lon="-4.12550333">
        <ele>1403.0</ele>
        <time>2018-05-26T10:11:30.167Z</time>
      </trkpt>
      <trkpt lat="40.72060833" lon="-4.12550333">
        <ele>1403.0</ele>
        <time>2018-05-26T10:11:31.173Z</time>
      </trkpt>
      <trkpt lat="40.72054667" lon="-4.12551333">
        <ele>1403.0</ele>
        <time>2018-05-26T10:11:32.141Z</time>
      </trkpt>
      <trkpt lat="40.72054667" lon="-4.12551333">
        <ele>1403.0</ele>
        <time>2018-05-26T10:11:33.147Z</time>
      </trkpt>
      <trkpt lat="40.72049" lon="-4.12552833">
        <ele>1404.0</ele>
        <time>2018-05-26T10:11:34.146Z</time>
      </trkpt>
      <trkpt lat="40.72049" lon="-4.12552833">
        <ele>1404.0</ele>
        <time>2018-05-26T10:11:35.152Z</time>
      </trkpt>
      <trkpt lat="40.72043" lon="-4.12553667">
        <ele>1404.0</ele>
        <time>2018-05-26T10:11:36.159Z</time>
      </trkpt>
      <trkpt lat="40.72040167" lon="-4.12554333">
        <ele>1405.0</ele>
        <time>2018-05-26T10:11:37.157Z</time>
      </trkpt>
      <trkpt lat="40.72040167" lon="-4.12554333">
        <ele>1405.0</ele>
        <time>2018-05-26T10:11:38.163Z</time>
      </trkpt>
      <trkpt lat="40.72034167" lon="-4.12555">
        <ele>1405.0</ele>
        <time>2018-05-26T10:11:39.138Z</time>
      </trkpt>
      <trkpt lat="40.72034167" lon="-4.12555">
        <ele>1405.0</ele>
        <time>2018-05-26T10:11:40.155Z</time>
      </trkpt>
      <trkpt lat="40.72027333" lon="-4.12556167">
        <ele>1405.0</ele>
        <time>2018-05-26T10:11:41.158Z</time>
      </trkpt>
      <trkpt lat="40.72027333" lon="-4.12556167">
        <ele>1405.0</ele>
        <time>2018-05-26T10:11:42.165Z</time>
      </trkpt>
      <trkpt lat="40.72021333" lon="-4.12557">
        <ele>1405.0</ele>
        <time>2018-05-26T10:11:43.172Z</time>
      </trkpt>
      <trkpt lat="40.72021333" lon="-4.12557">
        <ele>1405.0</ele>
        <time>2018-05-26T10:11:44.162Z</time>
      </trkpt>
      <trkpt lat="40.72016667" lon="-4.12558667">
        <ele>1405.0</ele>
        <time>2018-05-26T10:11:45.141Z</time>
      </trkpt>
      <trkpt lat="40.72016667" lon="-4.12558667">
        <ele>1405.0</ele>
        <time>2018-05-26T10:11:46.148Z</time>
      </trkpt>
      <trkpt lat="40.72011" lon="-4.12559667">
        <ele>1406.0</ele>
        <time>2018-05-26T10:11:47.158Z</time>
      </trkpt>
      <trkpt lat="40.72008167" lon="-4.125605">
        <ele>1406.0</ele>
        <time>2018-05-26T10:11:48.167Z</time>
      </trkpt>
      <trkpt lat="40.72008167" lon="-4.125605">
        <ele>1406.0</ele>
        <time>2018-05-26T10:11:49.173Z</time>
      </trkpt>
      <trkpt lat="40.72003" lon="-4.12562667">
        <ele>1407.0</ele>
        <time>2018-05-26T10:11:50.140Z</time>
      </trkpt>
      <trkpt lat="40.72000667" lon="-4.12564833">
        <ele>1407.0</ele>
        <time>2018-05-26T10:11:51.148Z</time>
      </trkpt>
      <trkpt lat="40.72000667" lon="-4.12564833">
        <ele>1407.0</ele>
        <time>2018-05-26T10:11:52.156Z</time>
      </trkpt>
      <trkpt lat="40.71997333" lon="-4.12569333">
        <ele>1408.0</ele>
        <time>2018-05-26T10:11:53.165Z</time>
      </trkpt>
      <trkpt lat="40.71997333" lon="-4.12569333">
        <ele>1408.0</ele>
        <time>2018-05-26T10:11:54.172Z</time>
      </trkpt>
      <trkpt lat="40.71993833" lon="-4.12574">
        <ele>1408.0</ele>
        <time>2018-05-26T10:11:55.142Z</time>
      </trkpt>
      <trkpt lat="40.71991833" lon="-4.12576167">
        <ele>1408.0</ele>
        <time>2018-05-26T10:11:56.174Z</time>
      </trkpt>
      <trkpt lat="40.71989" lon="-4.12578167">
        <ele>1408.0</ele>
        <time>2018-05-26T10:11:57.139Z</time>
      </trkpt>
      <trkpt lat="40.71989" lon="-4.12578167">
        <ele>1408.0</ele>
        <time>2018-05-26T10:11:58.146Z</time>
      </trkpt>
      <trkpt lat="40.71985" lon="-4.12583667">
        <ele>1409.0</ele>
        <time>2018-05-26T10:11:59.139Z</time>
      </trkpt>
      <trkpt lat="40.71985" lon="-4.12583667">
        <ele>1409.0</ele>
        <time>2018-05-26T10:12:00.147Z</time>
      </trkpt>
      <trkpt lat="40.71982333" lon="-4.12589333">
        <ele>1409.0</ele>
        <time>2018-05-26T10:12:01.137Z</time>
      </trkpt>
      <trkpt lat="40.71982333" lon="-4.12589333">
        <ele>1409.0</ele>
        <time>2018-05-26T10:12:02.142Z</time>
      </trkpt>
      <trkpt lat="40.71979333" lon="-4.12595">
        <ele>1409.0</ele>
        <time>2018-05-26T10:12:03.149Z</time>
      </trkpt>
      <trkpt lat="40.71979333" lon="-4.12595">
        <ele>1409.0</ele>
        <time>2018-05-26T10:12:04.155Z</time>
      </trkpt>
      <trkpt lat="40.719765" lon="-4.12598833">
        <ele>1410.0</ele>
        <time>2018-05-26T10:12:05.141Z</time>
      </trkpt>
      <trkpt lat="40.719765" lon="-4.12598833">
        <ele>1410.0</ele>
        <time>2018-05-26T10:12:06.147Z</time>
      </trkpt>
      <trkpt lat="40.719735" lon="-4.12603">
        <ele>1410.0</ele>
        <time>2018-05-26T10:12:07.147Z</time>
      </trkpt>
      <trkpt lat="40.71972" lon="-4.12605">
        <ele>1410.0</ele>
        <time>2018-05-26T10:12:08.141Z</time>
      </trkpt>
      <trkpt lat="40.71970667" lon="-4.12607">
        <ele>1410.0</ele>
        <time>2018-05-26T10:12:09.148Z</time>
      </trkpt>
      <trkpt lat="40.71970667" lon="-4.12607">
        <ele>1410.0</ele>
        <time>2018-05-26T10:12:10.154Z</time>
      </trkpt>
      <trkpt lat="40.71967667" lon="-4.12610833">
        <ele>1410.0</ele>
        <time>2018-05-26T10:12:11.161Z</time>
      </trkpt>
      <trkpt lat="40.71966333" lon="-4.12612667">
        <ele>1410.0</ele>
        <time>2018-05-26T10:12:12.151Z</time>
      </trkpt>
      <trkpt lat="40.71966333" lon="-4.12612667">
        <ele>1410.0</ele>
        <time>2018-05-26T10:12:13.158Z</time>
      </trkpt>
      <trkpt lat="40.71963833" lon="-4.12618667">
        <ele>1410.0</ele>
        <time>2018-05-26T10:12:14.165Z</time>
      </trkpt>
      <trkpt lat="40.71962667" lon="-4.126215">
        <ele>1410.0</ele>
        <time>2018-05-26T10:12:15.172Z</time>
      </trkpt>
      <trkpt lat="40.71962667" lon="-4.126215">
        <ele>1410.0</ele>
        <time>2018-05-26T10:12:16.162Z</time>
      </trkpt>
      <trkpt lat="40.71960167" lon="-4.12626667">
        <ele>1410.0</ele>
        <time>2018-05-26T10:12:17.149Z</time>
      </trkpt>
      <trkpt lat="40.71959167" lon="-4.12628833">
        <ele>1410.0</ele>
        <time>2018-05-26T10:12:18.156Z</time>
      </trkpt>
      <trkpt lat="40.719585" lon="-4.12631">
        <ele>1411.0</ele>
        <time>2018-05-26T10:12:19.154Z</time>
      </trkpt>
      <trkpt lat="40.719585" lon="-4.126335">
        <ele>1411.0</ele>
        <time>2018-05-26T10:12:20.160Z</time>
      </trkpt>
      <trkpt lat="40.71958167" lon="-4.12636167">
        <ele>1411.0</ele>
        <time>2018-05-26T10:12:21.166Z</time>
      </trkpt>
      <trkpt lat="40.71958167" lon="-4.12636167">
        <ele>1411.0</ele>
        <time>2018-05-26T10:12:22.173Z</time>
      </trkpt>
      <trkpt lat="40.71957333" lon="-4.12641333">
        <ele>1412.0</ele>
        <time>2018-05-26T10:12:23.175Z</time>
      </trkpt>
      <trkpt lat="40.719575" lon="-4.12643167">
        <ele>1412.0</ele>
        <time>2018-05-26T10:12:24.142Z</time>
      </trkpt>
      <trkpt lat="40.719575" lon="-4.12643167">
        <ele>1412.0</ele>
        <time>2018-05-26T10:12:25.149Z</time>
      </trkpt>
      <trkpt lat="40.71956833" lon="-4.12647167">
        <ele>1412.0</ele>
        <time>2018-05-26T10:12:26.173Z</time>
      </trkpt>
      <trkpt lat="40.71956833" lon="-4.12649333">
        <ele>1413.0</ele>
        <time>2018-05-26T10:12:27.144Z</time>
      </trkpt>
      <trkpt lat="40.71956833" lon="-4.12649333">
        <ele>1413.0</ele>
        <time>2018-05-26T10:12:28.151Z</time>
      </trkpt>
      <trkpt lat="40.71955833" lon="-4.12653833">
        <ele>1413.0</ele>
        <time>2018-05-26T10:12:29.159Z</time>
      </trkpt>
      <trkpt lat="40.71955833" lon="-4.12653833">
        <ele>1413.0</ele>
        <time>2018-05-26T10:12:30.165Z</time>
      </trkpt>
      <trkpt lat="40.719535" lon="-4.126575">
        <ele>1413.0</ele>
        <time>2018-05-26T10:12:31.173Z</time>
      </trkpt>
      <trkpt lat="40.719535" lon="-4.126575">
        <ele>1413.0</ele>
        <time>2018-05-26T10:12:32.139Z</time>
      </trkpt>
      <trkpt lat="40.71950833" lon="-4.12661167">
        <ele>1414.0</ele>
        <time>2018-05-26T10:12:33.168Z</time>
      </trkpt>
      <trkpt lat="40.71950833" lon="-4.12661167">
        <ele>1414.0</ele>
        <time>2018-05-26T10:12:34.174Z</time>
      </trkpt>
      <trkpt lat="40.719495" lon="-4.12665833">
        <ele>1414.0</ele>
        <time>2018-05-26T10:12:35.145Z</time>
      </trkpt>
      <trkpt lat="40.71948" lon="-4.12669167">
        <ele>1414.0</ele>
        <time>2018-05-26T10:12:36.140Z</time>
      </trkpt>
      <trkpt lat="40.71948" lon="-4.12669167">
        <ele>1414.0</ele>
        <time>2018-05-26T10:12:37.147Z</time>
      </trkpt>
      <trkpt lat="40.71946" lon="-4.12675333">
        <ele>1414.0</ele>
        <time>2018-05-26T10:12:38.157Z</time>
      </trkpt>
      <trkpt lat="40.71944167" lon="-4.126785">
        <ele>1414.0</ele>
        <time>2018-05-26T10:12:39.153Z</time>
      </trkpt>
      <trkpt lat="40.71942167" lon="-4.12681667">
        <ele>1414.0</ele>
        <time>2018-05-26T10:12:40.168Z</time>
      </trkpt>
      <trkpt lat="40.71942167" lon="-4.12681667">
        <ele>1414.0</ele>
        <time>2018-05-26T10:12:41.174Z</time>
      </trkpt>
      <trkpt lat="40.71938167" lon="-4.12690667">
        <ele>1415.0</ele>
        <time>2018-05-26T10:12:42.171Z</time>
      </trkpt>
      <trkpt lat="40.71938167" lon="-4.12690667">
        <ele>1415.0</ele>
        <time>2018-05-26T10:12:43.139Z</time>
      </trkpt>
      <trkpt lat="40.719325" lon="-4.126975">
        <ele>1415.0</ele>
        <time>2018-05-26T10:12:44.150Z</time>
      </trkpt>
      <trkpt lat="40.7193" lon="-4.12699833">
        <ele>1416.0</ele>
        <time>2018-05-26T10:12:45.157Z</time>
      </trkpt>
      <trkpt lat="40.7193" lon="-4.12699833">
        <ele>1416.0</ele>
        <time>2018-05-26T10:12:46.163Z</time>
      </trkpt>
      <trkpt lat="40.71925167" lon="-4.12705">
        <ele>1416.0</ele>
        <time>2018-05-26T10:12:47.149Z</time>
      </trkpt>
      <trkpt lat="40.71925167" lon="-4.12705">
        <ele>1416.0</ele>
        <time>2018-05-26T10:12:48.155Z</time>
      </trkpt>
      <trkpt lat="40.71921333" lon="-4.12709333">
        <ele>1416.0</ele>
        <time>2018-05-26T10:12:49.162Z</time>
      </trkpt>
      <trkpt lat="40.71921333" lon="-4.12709333">
        <ele>1416.0</ele>
        <time>2018-05-26T10:12:50.152Z</time>
      </trkpt>
      <trkpt lat="40.71918333" lon="-4.12715167">
        <ele>1417.0</ele>
        <time>2018-05-26T10:12:51.166Z</time>
      </trkpt>
      <trkpt lat="40.71918333" lon="-4.12715167">
        <ele>1417.0</ele>
        <time>2018-05-26T10:12:52.173Z</time>
      </trkpt>
      <trkpt lat="40.71916333" lon="-4.12722667">
        <ele>1417.0</ele>
        <time>2018-05-26T10:12:53.140Z</time>
      </trkpt>
      <trkpt lat="40.71916333" lon="-4.12722667">
        <ele>1417.0</ele>
        <time>2018-05-26T10:12:54.145Z</time>
      </trkpt>
      <trkpt lat="40.71914833" lon="-4.12730167">
        <ele>1417.0</ele>
        <time>2018-05-26T10:12:55.169Z</time>
      </trkpt>
      <trkpt lat="40.71914833" lon="-4.12730167">
        <ele>1417.0</ele>
        <time>2018-05-26T10:12:56.136Z</time>
      </trkpt>
      <trkpt lat="40.71912" lon="-4.12734833">
        <ele>1418.0</ele>
        <time>2018-05-26T10:12:57.147Z</time>
      </trkpt>
      <trkpt lat="40.71912" lon="-4.12734833">
        <ele>1418.0</ele>
        <time>2018-05-26T10:12:58.153Z</time>
      </trkpt>
      <trkpt lat="40.71910667" lon="-4.12741">
        <ele>1418.0</ele>
        <time>2018-05-26T10:12:59.159Z</time>
      </trkpt>
      <trkpt lat="40.71910667" lon="-4.12741">
        <ele>1418.0</ele>
        <time>2018-05-26T10:13:00.157Z</time>
      </trkpt>
      <trkpt lat="40.71910167" lon="-4.12748667">
        <ele>1418.0</ele>
        <time>2018-05-26T10:13:01.148Z</time>
      </trkpt>
      <trkpt lat="40.71910333" lon="-4.12752167">
        <ele>1418.0</ele>
        <time>2018-05-26T10:13:02.155Z</time>
      </trkpt>
      <trkpt lat="40.719105" lon="-4.127555">
        <ele>1418.0</ele>
        <time>2018-05-26T10:13:03.162Z</time>
      </trkpt>
      <trkpt lat="40.719105" lon="-4.127555">
        <ele>1418.0</ele>
        <time>2018-05-26T10:13:04.170Z</time>
      </trkpt>
      <trkpt lat="40.71909667" lon="-4.12763333">
        <ele>1418.0</ele>
        <time>2018-05-26T10:13:05.136Z</time>
      </trkpt>
      <trkpt lat="40.71909667" lon="-4.12763333">
        <ele>1418.0</ele>
        <time>2018-05-26T10:13:06.144Z</time>
      </trkpt>
      <trkpt lat="40.71908167" lon="-4.12770833">
        <ele>1419.0</ele>
        <time>2018-05-26T10:13:07.159Z</time>
      </trkpt>
      <trkpt lat="40.71907" lon="-4.12775333">
        <ele>1419.0</ele>
        <time>2018-05-26T10:13:08.166Z</time>
      </trkpt>
      <trkpt lat="40.719065" lon="-4.12779333">
        <ele>1419.0</ele>
        <time>2018-05-26T10:13:09.174Z</time>
      </trkpt>
      <trkpt lat="40.719065" lon="-4.12779333">
        <ele>1419.0</ele>
        <time>2018-05-26T10:13:10.140Z</time>
      </trkpt>
      <trkpt lat="40.719055" lon="-4.127855">
        <ele>1419.0</ele>
        <time>2018-05-26T10:13:11.149Z</time>
      </trkpt>
      <trkpt lat="40.719055" lon="-4.127855">
        <ele>1419.0</ele>
        <time>2018-05-26T10:13:12.155Z</time>
      </trkpt>
      <trkpt lat="40.71903167" lon="-4.12791833">
        <ele>1419.0</ele>
        <time>2018-05-26T10:13:13.165Z</time>
      </trkpt>
      <trkpt lat="40.71903167" lon="-4.12791833">
        <ele>1419.0</ele>
        <time>2018-05-26T10:13:14.172Z</time>
      </trkpt>
      <trkpt lat="40.71900833" lon="-4.12799667">
        <ele>1419.0</ele>
        <time>2018-05-26T10:13:15.139Z</time>
      </trkpt>
      <trkpt lat="40.71900833" lon="-4.12799667">
        <ele>1419.0</ele>
        <time>2018-05-26T10:13:16.146Z</time>
      </trkpt>
      <trkpt lat="40.71899167" lon="-4.128045">
        <ele>1420.0</ele>
        <time>2018-05-26T10:13:17.161Z</time>
      </trkpt>
      <trkpt lat="40.71898" lon="-4.12808">
        <ele>1420.0</ele>
        <time>2018-05-26T10:13:18.168Z</time>
      </trkpt>
      <trkpt lat="40.71898" lon="-4.12808">
        <ele>1420.0</ele>
        <time>2018-05-26T10:13:19.175Z</time>
      </trkpt>
      <trkpt lat="40.71895333" lon="-4.12814667">
        <ele>1420.0</ele>
        <time>2018-05-26T10:13:20.166Z</time>
      </trkpt>
      <trkpt lat="40.71893667" lon="-4.12818167">
        <ele>1420.0</ele>
        <time>2018-05-26T10:13:21.174Z</time>
      </trkpt>
      <trkpt lat="40.71893667" lon="-4.12818167">
        <ele>1420.0</ele>
        <time>2018-05-26T10:13:22.141Z</time>
      </trkpt>
      <trkpt lat="40.71890833" lon="-4.12824333">
        <ele>1421.0</ele>
        <time>2018-05-26T10:13:23.156Z</time>
      </trkpt>
      <trkpt lat="40.71890833" lon="-4.12824333">
        <ele>1421.0</ele>
        <time>2018-05-26T10:13:24.163Z</time>
      </trkpt>
      <trkpt lat="40.71888" lon="-4.12832667">
        <ele>1421.0</ele>
        <time>2018-05-26T10:13:25.170Z</time>
      </trkpt>
      <trkpt lat="40.71888" lon="-4.12832667">
        <ele>1421.0</ele>
        <time>2018-05-26T10:13:26.136Z</time>
      </trkpt>
      <trkpt lat="40.71884" lon="-4.12840167">
        <ele>1422.0</ele>
        <time>2018-05-26T10:13:27.147Z</time>
      </trkpt>
      <trkpt lat="40.71884" lon="-4.12840167">
        <ele>1422.0</ele>
        <time>2018-05-26T10:13:28.154Z</time>
      </trkpt>
      <trkpt lat="40.71881333" lon="-4.12847333">
        <ele>1422.0</ele>
        <time>2018-05-26T10:13:29.160Z</time>
      </trkpt>
      <trkpt lat="40.71881333" lon="-4.12847333">
        <ele>1422.0</ele>
        <time>2018-05-26T10:13:30.152Z</time>
      </trkpt>
      <trkpt lat="40.71878" lon="-4.12853833">
        <ele>1422.0</ele>
        <time>2018-05-26T10:13:31.172Z</time>
      </trkpt>
      <trkpt lat="40.71878" lon="-4.12853833">
        <ele>1422.0</ele>
        <time>2018-05-26T10:13:32.140Z</time>
      </trkpt>
      <trkpt lat="40.71875667" lon="-4.128605">
        <ele>1422.0</ele>
        <time>2018-05-26T10:13:33.150Z</time>
      </trkpt>
      <trkpt lat="40.71875667" lon="-4.128605">
        <ele>1422.0</ele>
        <time>2018-05-26T10:13:34.143Z</time>
      </trkpt>
      <trkpt lat="40.71872167" lon="-4.12868">
        <ele>1422.0</ele>
        <time>2018-05-26T10:13:35.148Z</time>
      </trkpt>
      <trkpt lat="40.71871" lon="-4.128715">
        <ele>1422.0</ele>
        <time>2018-05-26T10:13:36.155Z</time>
      </trkpt>
      <trkpt lat="40.71871" lon="-4.128715">
        <ele>1422.0</ele>
        <time>2018-05-26T10:13:37.162Z</time>
      </trkpt>
      <trkpt lat="40.718695" lon="-4.12879">
        <ele>1422.0</ele>
        <time>2018-05-26T10:13:38.148Z</time>
      </trkpt>
      <trkpt lat="40.718685" lon="-4.12882333">
        <ele>1422.0</ele>
        <time>2018-05-26T10:13:39.155Z</time>
      </trkpt>
      <trkpt lat="40.718685" lon="-4.12882333">
        <ele>1422.0</ele>
        <time>2018-05-26T10:13:40.162Z</time>
      </trkpt>
      <trkpt lat="40.71867333" lon="-4.128895">
        <ele>1422.0</ele>
        <time>2018-05-26T10:13:41.149Z</time>
      </trkpt>
      <trkpt lat="40.71867" lon="-4.12893">
        <ele>1422.0</ele>
        <time>2018-05-26T10:13:42.156Z</time>
      </trkpt>
      <trkpt lat="40.71867" lon="-4.12893">
        <ele>1422.0</ele>
        <time>2018-05-26T10:13:43.163Z</time>
      </trkpt>
      <trkpt lat="40.71866833" lon="-4.12899">
        <ele>1423.0</ele>
        <time>2018-05-26T10:13:44.155Z</time>
      </trkpt>
      <trkpt lat="40.71867333" lon="-4.12902">
        <ele>1423.0</ele>
        <time>2018-05-26T10:13:45.163Z</time>
      </trkpt>
      <trkpt lat="40.71867333" lon="-4.12902">
        <ele>1423.0</ele>
        <time>2018-05-26T10:13:46.170Z</time>
      </trkpt>
      <trkpt lat="40.718625" lon="-4.12914">
        <ele>1423.0</ele>
        <time>2018-05-26T10:13:47.168Z</time>
      </trkpt>
      <trkpt lat="40.718625" lon="-4.12914">
        <ele>1423.0</ele>
        <time>2018-05-26T10:13:48.174Z</time>
      </trkpt>
      <trkpt lat="40.71858167" lon="-4.12921667">
        <ele>1423.0</ele>
        <time>2018-05-26T10:13:49.141Z</time>
      </trkpt>
      <trkpt lat="40.71855833" lon="-4.12926167">
        <ele>1424.0</ele>
        <time>2018-05-26T10:13:50.157Z</time>
      </trkpt>
      <trkpt lat="40.71854667" lon="-4.12930167">
        <ele>1424.0</ele>
        <time>2018-05-26T10:13:51.164Z</time>
      </trkpt>
      <trkpt lat="40.71854667" lon="-4.12930167">
        <ele>1424.0</ele>
        <time>2018-05-26T10:13:52.171Z</time>
      </trkpt>
      <trkpt lat="40.71852833" lon="-4.129365">
        <ele>1424.0</ele>
        <time>2018-05-26T10:13:53.155Z</time>
      </trkpt>
      <trkpt lat="40.71852833" lon="-4.129365">
        <ele>1424.0</ele>
        <time>2018-05-26T10:13:54.162Z</time>
      </trkpt>
      <trkpt lat="40.718485" lon="-4.12942833">
        <ele>1425.0</ele>
        <time>2018-05-26T10:13:55.168Z</time>
      </trkpt>
      <trkpt lat="40.71847167" lon="-4.12946">
        <ele>1425.0</ele>
        <time>2018-05-26T10:13:56.146Z</time>
      </trkpt>
      <trkpt lat="40.71847167" lon="-4.12946">
        <ele>1425.0</ele>
        <time>2018-05-26T10:13:57.154Z</time>
      </trkpt>
      <trkpt lat="40.71842667" lon="-4.12952">
        <ele>1425.0</ele>
        <time>2018-05-26T10:13:58.166Z</time>
      </trkpt>
      <trkpt lat="40.71841833" lon="-4.12955667">
        <ele>1425.0</ele>
        <time>2018-05-26T10:13:59.166Z</time>
      </trkpt>
      <trkpt lat="40.71841833" lon="-4.12955667">
        <ele>1425.0</ele>
        <time>2018-05-26T10:14:00.148Z</time>
      </trkpt>
      <trkpt lat="40.718395" lon="-4.12963667">
        <ele>1425.0</ele>
        <time>2018-05-26T10:14:01.148Z</time>
      </trkpt>
      <trkpt lat="40.718395" lon="-4.12963667">
        <ele>1425.0</ele>
        <time>2018-05-26T10:14:02.163Z</time>
      </trkpt>
      <trkpt lat="40.71837167" lon="-4.129745">
        <ele>1425.0</ele>
        <time>2018-05-26T10:14:03.148Z</time>
      </trkpt>
      <trkpt lat="40.71837167" lon="-4.129745">
        <ele>1425.0</ele>
        <time>2018-05-26T10:14:04.153Z</time>
      </trkpt>
      <trkpt lat="40.71833333" lon="-4.12983833">
        <ele>1425.0</ele>
        <time>2018-05-26T10:14:05.160Z</time>
      </trkpt>
      <trkpt lat="40.718315" lon="-4.12988833">
        <ele>1426.0</ele>
        <time>2018-05-26T10:14:06.168Z</time>
      </trkpt>
      <trkpt lat="40.718315" lon="-4.12988833">
        <ele>1426.0</ele>
        <time>2018-05-26T10:14:07.144Z</time>
      </trkpt>
      <trkpt lat="40.718285" lon="-4.12998">
        <ele>1426.0</ele>
        <time>2018-05-26T10:14:08.139Z</time>
      </trkpt>
      <trkpt lat="40.71826667" lon="-4.130025">
        <ele>1426.0</ele>
        <time>2018-05-26T10:14:09.148Z</time>
      </trkpt>
      <trkpt lat="40.71826667" lon="-4.130025">
        <ele>1426.0</ele>
        <time>2018-05-26T10:14:10.155Z</time>
      </trkpt>
      <trkpt lat="40.71823" lon="-4.13010667">
        <ele>1426.0</ele>
        <time>2018-05-26T10:14:11.149Z</time>
      </trkpt>
      <trkpt lat="40.71820833" lon="-4.13014">
        <ele>1426.0</ele>
        <time>2018-05-26T10:14:12.163Z</time>
      </trkpt>
      <trkpt lat="40.71820833" lon="-4.13014">
        <ele>1426.0</ele>
        <time>2018-05-26T10:14:13.169Z</time>
      </trkpt>
      <trkpt lat="40.71816333" lon="-4.130205">
        <ele>1426.0</ele>
        <time>2018-05-26T10:14:14.149Z</time>
      </trkpt>
      <trkpt lat="40.71816333" lon="-4.130205">
        <ele>1426.0</ele>
        <time>2018-05-26T10:14:15.155Z</time>
      </trkpt>
      <trkpt lat="40.71810667" lon="-4.13027333">
        <ele>1427.0</ele>
        <time>2018-05-26T10:14:16.169Z</time>
      </trkpt>
      <trkpt lat="40.71810667" lon="-4.13027333">
        <ele>1427.0</ele>
        <time>2018-05-26T10:14:17.175Z</time>
      </trkpt>
      <trkpt lat="40.71806833" lon="-4.13036333">
        <ele>1427.0</ele>
        <time>2018-05-26T10:14:18.156Z</time>
      </trkpt>
      <trkpt lat="40.71804" lon="-4.130405">
        <ele>1427.0</ele>
        <time>2018-05-26T10:14:19.162Z</time>
      </trkpt>
      <trkpt lat="40.71804" lon="-4.130405">
        <ele>1427.0</ele>
        <time>2018-05-26T10:14:20.168Z</time>
      </trkpt>
      <trkpt lat="40.71797667" lon="-4.13048">
        <ele>1427.0</ele>
        <time>2018-05-26T10:14:21.158Z</time>
      </trkpt>
      <trkpt lat="40.71797667" lon="-4.13048">
        <ele>1427.0</ele>
        <time>2018-05-26T10:14:22.164Z</time>
      </trkpt>
      <trkpt lat="40.717925" lon="-4.13056833">
        <ele>1428.0</ele>
        <time>2018-05-26T10:14:23.171Z</time>
      </trkpt>
      <trkpt lat="40.717925" lon="-4.13056833">
        <ele>1428.0</ele>
        <time>2018-05-26T10:14:24.142Z</time>
      </trkpt>
      <trkpt lat="40.71787167" lon="-4.130655">
        <ele>1428.0</ele>
        <time>2018-05-26T10:14:25.171Z</time>
      </trkpt>
      <trkpt lat="40.71787167" lon="-4.130655">
        <ele>1428.0</ele>
        <time>2018-05-26T10:14:26.138Z</time>
      </trkpt>
      <trkpt lat="40.71781667" lon="-4.13074167">
        <ele>1429.0</ele>
        <time>2018-05-26T10:14:27.148Z</time>
      </trkpt>
      <trkpt lat="40.71781667" lon="-4.13074167">
        <ele>1429.0</ele>
        <time>2018-05-26T10:14:28.161Z</time>
      </trkpt>
      <trkpt lat="40.71776167" lon="-4.13082333">
        <ele>1430.0</ele>
        <time>2018-05-26T10:14:29.139Z</time>
      </trkpt>
      <trkpt lat="40.71776167" lon="-4.13082333">
        <ele>1430.0</ele>
        <time>2018-05-26T10:14:30.146Z</time>
      </trkpt>
      <trkpt lat="40.717715" lon="-4.13089333">
        <ele>1430.0</ele>
        <time>2018-05-26T10:14:31.154Z</time>
      </trkpt>
      <trkpt lat="40.717715" lon="-4.13089333">
        <ele>1430.0</ele>
        <time>2018-05-26T10:14:32.159Z</time>
      </trkpt>
      <trkpt lat="40.71764" lon="-4.13096167">
        <ele>1431.0</ele>
        <time>2018-05-26T10:14:33.166Z</time>
      </trkpt>
      <trkpt lat="40.71764" lon="-4.13096167">
        <ele>1431.0</ele>
        <time>2018-05-26T10:14:34.173Z</time>
      </trkpt>
      <trkpt lat="40.71758167" lon="-4.13102167">
        <ele>1432.0</ele>
        <time>2018-05-26T10:14:35.142Z</time>
      </trkpt>
      <trkpt lat="40.71755833" lon="-4.13105167">
        <ele>1432.0</ele>
        <time>2018-05-26T10:14:36.139Z</time>
      </trkpt>
      <trkpt lat="40.71755833" lon="-4.13105167">
        <ele>1432.0</ele>
        <time>2018-05-26T10:14:37.146Z</time>
      </trkpt>
      <trkpt lat="40.71751667" lon="-4.13110167">
        <ele>1432.0</ele>
        <time>2018-05-26T10:14:38.167Z</time>
      </trkpt>
      <trkpt lat="40.71749667" lon="-4.13112167">
        <ele>1433.0</ele>
        <time>2018-05-26T10:14:39.167Z</time>
      </trkpt>
      <trkpt lat="40.71749667" lon="-4.13112167">
        <ele>1433.0</ele>
        <time>2018-05-26T10:14:40.174Z</time>
      </trkpt>
      <trkpt lat="40.71744" lon="-4.13117167">
        <ele>1433.0</ele>
        <time>2018-05-26T10:14:41.155Z</time>
      </trkpt>
      <trkpt lat="40.71739667" lon="-4.131205">
        <ele>1433.0</ele>
        <time>2018-05-26T10:14:42.151Z</time>
      </trkpt>
      <trkpt lat="40.71739667" lon="-4.131205">
        <ele>1433.0</ele>
        <time>2018-05-26T10:14:43.158Z</time>
      </trkpt>
      <trkpt lat="40.71732333" lon="-4.13125833">
        <ele>1433.0</ele>
        <time>2018-05-26T10:14:44.165Z</time>
      </trkpt>
      <trkpt lat="40.71729167" lon="-4.13129667">
        <ele>1433.0</ele>
        <time>2018-05-26T10:14:45.147Z</time>
      </trkpt>
      <trkpt lat="40.71729167" lon="-4.13129667">
        <ele>1433.0</ele>
        <time>2018-05-26T10:14:46.155Z</time>
      </trkpt>
      <trkpt lat="40.71722167" lon="-4.13138167">
        <ele>1432.0</ele>
        <time>2018-05-26T10:14:47.168Z</time>
      </trkpt>
      <trkpt lat="40.71722167" lon="-4.13138167">
        <ele>1432.0</ele>
        <time>2018-05-26T10:14:48.175Z</time>
      </trkpt>
      <trkpt lat="40.71713333" lon="-4.13148167">
        <ele>1432.0</ele>
        <time>2018-05-26T10:14:49.165Z</time>
      </trkpt>
      <trkpt lat="40.717095" lon="-4.13151833">
        <ele>1432.0</ele>
        <time>2018-05-26T10:14:50.172Z</time>
      </trkpt>
      <trkpt lat="40.717095" lon="-4.13151833">
        <ele>1432.0</ele>
        <time>2018-05-26T10:14:51.139Z</time>
      </trkpt>
      <trkpt lat="40.71702333" lon="-4.13157667">
        <ele>1432.0</ele>
        <time>2018-05-26T10:14:52.155Z</time>
      </trkpt>
      <trkpt lat="40.71698667" lon="-4.13159667">
        <ele>1432.0</ele>
        <time>2018-05-26T10:14:53.163Z</time>
      </trkpt>
      <trkpt lat="40.71698667" lon="-4.13159667">
        <ele>1432.0</ele>
        <time>2018-05-26T10:14:54.170Z</time>
      </trkpt>
      <trkpt lat="40.71691667" lon="-4.13162833">
        <ele>1433.0</ele>
        <time>2018-05-26T10:14:55.137Z</time>
      </trkpt>
      <trkpt lat="40.71691667" lon="-4.13162833">
        <ele>1433.0</ele>
        <time>2018-05-26T10:14:56.144Z</time>
      </trkpt>
      <trkpt lat="40.71684167" lon="-4.13165167">
        <ele>1433.0</ele>
        <time>2018-05-26T10:14:57.154Z</time>
      </trkpt>
      <trkpt lat="40.71684167" lon="-4.13165167">
        <ele>1433.0</ele>
        <time>2018-05-26T10:14:58.160Z</time>
      </trkpt>
      <trkpt lat="40.716765" lon="-4.13165167">
        <ele>1434.0</ele>
        <time>2018-05-26T10:14:59.168Z</time>
      </trkpt>
      <trkpt lat="40.71672833" lon="-4.13166">
        <ele>1434.0</ele>
        <time>2018-05-26T10:15:00.167Z</time>
      </trkpt>
      <trkpt lat="40.71672833" lon="-4.13166">
        <ele>1434.0</ele>
        <time>2018-05-26T10:15:01.169Z</time>
      </trkpt>
      <trkpt lat="40.71666" lon="-4.13170333">
        <ele>1434.0</ele>
        <time>2018-05-26T10:15:02.140Z</time>
      </trkpt>
      <trkpt lat="40.716625" lon="-4.13172833">
        <ele>1435.0</ele>
        <time>2018-05-26T10:15:03.148Z</time>
      </trkpt>
      <trkpt lat="40.716625" lon="-4.13172833">
        <ele>1435.0</ele>
        <time>2018-05-26T10:15:04.154Z</time>
      </trkpt>
      <trkpt lat="40.716565" lon="-4.13177667">
        <ele>1435.0</ele>
        <time>2018-05-26T10:15:05.150Z</time>
      </trkpt>
      <trkpt lat="40.716565" lon="-4.13177667">
        <ele>1435.0</ele>
        <time>2018-05-26T10:15:06.157Z</time>
      </trkpt>
      <trkpt lat="40.71650333" lon="-4.13181667">
        <ele>1435.0</ele>
        <time>2018-05-26T10:15:07.137Z</time>
      </trkpt>
      <trkpt lat="40.71650333" lon="-4.13181667">
        <ele>1435.0</ele>
        <time>2018-05-26T10:15:08.162Z</time>
      </trkpt>
      <trkpt lat="40.71645" lon="-4.131865">
        <ele>1435.0</ele>
        <time>2018-05-26T10:15:09.138Z</time>
      </trkpt>
      <trkpt lat="40.71645" lon="-4.131865">
        <ele>1435.0</ele>
        <time>2018-05-26T10:15:10.146Z</time>
      </trkpt>
      <trkpt lat="40.71639833" lon="-4.13191833">
        <ele>1435.0</ele>
        <time>2018-05-26T10:15:11.153Z</time>
      </trkpt>
      <trkpt lat="40.71639833" lon="-4.13191833">
        <ele>1435.0</ele>
        <time>2018-05-26T10:15:12.159Z</time>
      </trkpt>
      <trkpt lat="40.71634333" lon="-4.13196833">
        <ele>1435.0</ele>
        <time>2018-05-26T10:15:13.157Z</time>
      </trkpt>
      <trkpt lat="40.71634333" lon="-4.13196833">
        <ele>1435.0</ele>
        <time>2018-05-26T10:15:14.164Z</time>
      </trkpt>
      <trkpt lat="40.71628667" lon="-4.13201333">
        <ele>1435.0</ele>
        <time>2018-05-26T10:15:15.171Z</time>
      </trkpt>
      <trkpt lat="40.71628667" lon="-4.13201333">
        <ele>1435.0</ele>
        <time>2018-05-26T10:15:16.140Z</time>
      </trkpt>
      <trkpt lat="40.71622" lon="-4.13202667">
        <ele>1437.0</ele>
        <time>2018-05-26T10:15:17.137Z</time>
      </trkpt>
      <trkpt lat="40.71618167" lon="-4.13203167">
        <ele>1437.0</ele>
        <time>2018-05-26T10:15:18.145Z</time>
      </trkpt>
      <trkpt lat="40.71618167" lon="-4.13203167">
        <ele>1437.0</ele>
        <time>2018-05-26T10:15:19.151Z</time>
      </trkpt>
      <trkpt lat="40.71611" lon="-4.132035">
        <ele>1438.0</ele>
        <time>2018-05-26T10:15:20.174Z</time>
      </trkpt>
      <trkpt lat="40.71608" lon="-4.13203833">
        <ele>1438.0</ele>
        <time>2018-05-26T10:15:21.142Z</time>
      </trkpt>
      <trkpt lat="40.71608" lon="-4.13203833">
        <ele>1438.0</ele>
        <time>2018-05-26T10:15:22.148Z</time>
      </trkpt>
      <trkpt lat="40.71601833" lon="-4.13203667">
        <ele>1438.0</ele>
        <time>2018-05-26T10:15:23.148Z</time>
      </trkpt>
      <trkpt lat="40.71598833" lon="-4.13203333">
        <ele>1438.0</ele>
        <time>2018-05-26T10:15:24.156Z</time>
      </trkpt>
      <trkpt lat="40.71598833" lon="-4.13203333">
        <ele>1438.0</ele>
        <time>2018-05-26T10:15:25.163Z</time>
      </trkpt>
      <trkpt lat="40.71592" lon="-4.13203667">
        <ele>1438.0</ele>
        <time>2018-05-26T10:15:26.170Z</time>
      </trkpt>
      <trkpt lat="40.71588833" lon="-4.13204">
        <ele>1438.0</ele>
        <time>2018-05-26T10:15:27.168Z</time>
      </trkpt>
      <trkpt lat="40.71588833" lon="-4.13204">
        <ele>1438.0</ele>
        <time>2018-05-26T10:15:28.175Z</time>
      </trkpt>
      <trkpt lat="40.71582667" lon="-4.13205">
        <ele>1438.0</ele>
        <time>2018-05-26T10:15:29.165Z</time>
      </trkpt>
      <trkpt lat="40.71579167" lon="-4.13206">
        <ele>1438.0</ele>
        <time>2018-05-26T10:15:30.154Z</time>
      </trkpt>
      <trkpt lat="40.71579167" lon="-4.13206">
        <ele>1438.0</ele>
        <time>2018-05-26T10:15:31.160Z</time>
      </trkpt>
      <trkpt lat="40.71572167" lon="-4.13208">
        <ele>1438.0</ele>
        <time>2018-05-26T10:15:32.167Z</time>
      </trkpt>
      <trkpt lat="40.715685" lon="-4.13208167">
        <ele>1439.0</ele>
        <time>2018-05-26T10:15:33.140Z</time>
      </trkpt>
      <trkpt lat="40.715685" lon="-4.13208167">
        <ele>1439.0</ele>
        <time>2018-05-26T10:15:34.145Z</time>
      </trkpt>
      <trkpt lat="40.71563167" lon="-4.13207667">
        <ele>1438.0</ele>
        <time>2018-05-26T10:15:35.153Z</time>
      </trkpt>
      <trkpt lat="40.71563167" lon="-4.13207667">
        <ele>1438.0</ele>
        <time>2018-05-26T10:15:36.159Z</time>
      </trkpt>
      <trkpt lat="40.71558167" lon="-4.13208">
        <ele>1439.0</ele>
        <time>2018-05-26T10:15:37.168Z</time>
      </trkpt>
      <trkpt lat="40.71558167" lon="-4.13208">
        <ele>1439.0</ele>
        <time>2018-05-26T10:15:38.174Z</time>
      </trkpt>
      <trkpt lat="40.71553833" lon="-4.13207">
        <ele>1440.0</ele>
        <time>2018-05-26T10:15:39.146Z</time>
      </trkpt>
      <trkpt lat="40.71553833" lon="-4.13207">
        <ele>1440.0</ele>
        <time>2018-05-26T10:15:40.153Z</time>
      </trkpt>
      <trkpt lat="40.715475" lon="-4.132055">
        <ele>1440.0</ele>
        <time>2018-05-26T10:15:41.155Z</time>
      </trkpt>
      <trkpt lat="40.715475" lon="-4.132055">
        <ele>1440.0</ele>
        <time>2018-05-26T10:15:42.161Z</time>
      </trkpt>
      <trkpt lat="40.71541333" lon="-4.13204833">
        <ele>1440.0</ele>
        <time>2018-05-26T10:15:43.168Z</time>
      </trkpt>
      <trkpt lat="40.71541333" lon="-4.13204833">
        <ele>1440.0</ele>
        <time>2018-05-26T10:15:44.174Z</time>
      </trkpt>
      <trkpt lat="40.71532833" lon="-4.13200833">
        <ele>1441.0</ele>
        <time>2018-05-26T10:15:45.165Z</time>
      </trkpt>
      <trkpt lat="40.71532833" lon="-4.13200833">
        <ele>1441.0</ele>
        <time>2018-05-26T10:15:46.171Z</time>
      </trkpt>
      <trkpt lat="40.71526333" lon="-4.13198833">
        <ele>1441.0</ele>
        <time>2018-05-26T10:15:47.140Z</time>
      </trkpt>
      <trkpt lat="40.71522667" lon="-4.13197667">
        <ele>1441.0</ele>
        <time>2018-05-26T10:15:48.163Z</time>
      </trkpt>
      <trkpt lat="40.71522667" lon="-4.13197667">
        <ele>1441.0</ele>
        <time>2018-05-26T10:15:49.148Z</time>
      </trkpt>
      <trkpt lat="40.71514" lon="-4.13195">
        <ele>1441.0</ele>
        <time>2018-05-26T10:15:50.163Z</time>
      </trkpt>
      <trkpt lat="40.71510167" lon="-4.13194333">
        <ele>1441.0</ele>
        <time>2018-05-26T10:15:51.163Z</time>
      </trkpt>
      <trkpt lat="40.71510167" lon="-4.13194333">
        <ele>1441.0</ele>
        <time>2018-05-26T10:15:52.169Z</time>
      </trkpt>
      <trkpt lat="40.71504333" lon="-4.13195833">
        <ele>1441.0</ele>
        <time>2018-05-26T10:15:53.136Z</time>
      </trkpt>
      <trkpt lat="40.71504333" lon="-4.13195833">
        <ele>1441.0</ele>
        <time>2018-05-26T10:15:54.145Z</time>
      </trkpt>
      <trkpt lat="40.71500833" lon="-4.13197667">
        <ele>1441.0</ele>
        <time>2018-05-26T10:15:55.139Z</time>
      </trkpt>
      <trkpt lat="40.71500833" lon="-4.13197667">
        <ele>1441.0</ele>
        <time>2018-05-26T10:15:56.146Z</time>
      </trkpt>
      <trkpt lat="40.71497833" lon="-4.13200833">
        <ele>1441.0</ele>
        <time>2018-05-26T10:15:57.158Z</time>
      </trkpt>
      <trkpt lat="40.71497833" lon="-4.13200833">
        <ele>1441.0</ele>
        <time>2018-05-26T10:15:58.163Z</time>
      </trkpt>
      <trkpt lat="40.71497167" lon="-4.13204833">
        <ele>1442.0</ele>
        <time>2018-05-26T10:15:59.158Z</time>
      </trkpt>
      <trkpt lat="40.71496833" lon="-4.132065">
        <ele>1443.0</ele>
        <time>2018-05-26T10:16:00.151Z</time>
      </trkpt>
      <trkpt lat="40.71496833" lon="-4.132065">
        <ele>1443.0</ele>
        <time>2018-05-26T10:16:01.136Z</time>
      </trkpt>
      <trkpt lat="40.71496833" lon="-4.13209667">
        <ele>1444.0</ele>
        <time>2018-05-26T10:16:02.145Z</time>
      </trkpt>
      <trkpt lat="40.71497167" lon="-4.13211167">
        <ele>1445.0</ele>
        <time>2018-05-26T10:16:03.154Z</time>
      </trkpt>
      <trkpt lat="40.71497167" lon="-4.13211167">
        <ele>1445.0</ele>
        <time>2018-05-26T10:16:04.160Z</time>
      </trkpt>
      <trkpt lat="40.71497167" lon="-4.132145">
        <ele>1446.0</ele>
        <time>2018-05-26T10:16:05.156Z</time>
      </trkpt>
      <trkpt lat="40.71497167" lon="-4.132145">
        <ele>1446.0</ele>
        <time>2018-05-26T10:16:06.163Z</time>
      </trkpt>
      <trkpt lat="40.714985" lon="-4.13217667">
        <ele>1446.0</ele>
        <time>2018-05-26T10:16:07.137Z</time>
      </trkpt>
      <trkpt lat="40.714985" lon="-4.13217667">
        <ele>1446.0</ele>
        <time>2018-05-26T10:16:08.146Z</time>
      </trkpt>
      <trkpt lat="40.71499667" lon="-4.13221167">
        <ele>1447.0</ele>
        <time>2018-05-26T10:16:09.163Z</time>
      </trkpt>
      <trkpt lat="40.71499667" lon="-4.13221167">
        <ele>1447.0</ele>
        <time>2018-05-26T10:16:10.170Z</time>
      </trkpt>
      <trkpt lat="40.71500333" lon="-4.13224">
        <ele>1448.0</ele>
        <time>2018-05-26T10:16:11.137Z</time>
      </trkpt>
      <trkpt lat="40.71500333" lon="-4.13224">
        <ele>1448.0</ele>
        <time>2018-05-26T10:16:12.146Z</time>
      </trkpt>
      <trkpt lat="40.715015" lon="-4.13226333">
        <ele>1449.0</ele>
        <time>2018-05-26T10:16:13.138Z</time>
      </trkpt>
      <trkpt lat="40.71502333" lon="-4.13227333">
        <ele>1449.0</ele>
        <time>2018-05-26T10:16:14.147Z</time>
      </trkpt>
      <trkpt lat="40.71502333" lon="-4.13227333">
        <ele>1449.0</ele>
        <time>2018-05-26T10:16:15.153Z</time>
      </trkpt>
      <trkpt lat="40.71503" lon="-4.13228">
        <ele>1450.0</ele>
        <time>2018-05-26T10:16:16.154Z</time>
      </trkpt>
      <trkpt lat="40.71503" lon="-4.13228">
        <ele>1450.0</ele>
        <time>2018-05-26T10:16:17.139Z</time>
      </trkpt>
      <trkpt lat="40.71502667" lon="-4.13232333">
        <ele>1452.0</ele>
        <time>2018-05-26T10:16:18.170Z</time>
      </trkpt>
      <trkpt lat="40.71502667" lon="-4.13232333">
        <ele>1452.0</ele>
        <time>2018-05-26T10:16:19.165Z</time>
      </trkpt>
      <trkpt lat="40.71503167" lon="-4.13234333">
        <ele>1453.0</ele>
        <time>2018-05-26T10:16:20.173Z</time>
      </trkpt>
      <trkpt lat="40.71503167" lon="-4.13234333">
        <ele>1453.0</ele>
        <time>2018-05-26T10:16:21.139Z</time>
      </trkpt>
      <trkpt lat="40.715035" lon="-4.13236">
        <ele>1454.0</ele>
        <time>2018-05-26T10:16:22.173Z</time>
      </trkpt>
      <trkpt lat="40.715035" lon="-4.13236">
        <ele>1454.0</ele>
        <time>2018-05-26T10:16:23.151Z</time>
      </trkpt>
      <trkpt lat="40.71503667" lon="-4.13237667">
        <ele>1454.0</ele>
        <time>2018-05-26T10:16:24.161Z</time>
      </trkpt>
      <trkpt lat="40.71504" lon="-4.13238333">
        <ele>1455.0</ele>
        <time>2018-05-26T10:16:25.165Z</time>
      </trkpt>
      <trkpt lat="40.71504" lon="-4.13238333">
        <ele>1455.0</ele>
        <time>2018-05-26T10:16:26.150Z</time>
      </trkpt>
      <trkpt lat="40.71504667" lon="-4.13239833">
        <ele>1455.0</ele>
        <time>2018-05-26T10:16:27.162Z</time>
      </trkpt>
      <trkpt lat="40.71505333" lon="-4.13240667">
        <ele>1455.0</ele>
        <time>2018-05-26T10:16:28.151Z</time>
      </trkpt>
      <trkpt lat="40.71505333" lon="-4.13240667">
        <ele>1455.0</ele>
        <time>2018-05-26T10:16:29.138Z</time>
      </trkpt>
      <trkpt lat="40.71506" lon="-4.13242333">
        <ele>1456.0</ele>
        <time>2018-05-26T10:16:30.164Z</time>
      </trkpt>
      <trkpt lat="40.71506167" lon="-4.13242833">
        <ele>1456.0</ele>
        <time>2018-05-26T10:16:31.149Z</time>
      </trkpt>
      <trkpt lat="40.71506167" lon="-4.13242833">
        <ele>1456.0</ele>
        <time>2018-05-26T10:16:32.160Z</time>
      </trkpt>
      <trkpt lat="40.71506833" lon="-4.13244333">
        <ele>1456.0</ele>
        <time>2018-05-26T10:16:33.168Z</time>
      </trkpt>
      <trkpt lat="40.715075" lon="-4.132455">
        <ele>1456.0</ele>
        <time>2018-05-26T10:16:34.156Z</time>
      </trkpt>
      <trkpt lat="40.715075" lon="-4.132455">
        <ele>1456.0</ele>
        <time>2018-05-26T10:16:35.173Z</time>
      </trkpt>
      <trkpt lat="40.71508333" lon="-4.13247">
        <ele>1456.0</ele>
        <time>2018-05-26T10:16:36.152Z</time>
      </trkpt>
      <trkpt lat="40.71508333" lon="-4.13247">
        <ele>1456.0</ele>
        <time>2018-05-26T10:16:37.168Z</time>
      </trkpt>
      <trkpt lat="40.71509167" lon="-4.13248833">
        <ele>1457.0</ele>
        <time>2018-05-26T10:16:38.175Z</time>
      </trkpt>
      <trkpt lat="40.71509167" lon="-4.13248833">
        <ele>1457.0</ele>
        <time>2018-05-26T10:16:39.162Z</time>
      </trkpt>
      <trkpt lat="40.715105" lon="-4.13251167">
        <ele>1457.0</ele>
        <time>2018-05-26T10:16:40.172Z</time>
      </trkpt>
      <trkpt lat="40.715105" lon="-4.13251167">
        <ele>1457.0</ele>
        <time>2018-05-26T10:16:41.141Z</time>
      </trkpt>
      <trkpt lat="40.71511167" lon="-4.13252833">
        <ele>1457.0</ele>
        <time>2018-05-26T10:16:42.148Z</time>
      </trkpt>
      <trkpt lat="40.71511667" lon="-4.13253667">
        <ele>1457.0</ele>
        <time>2018-05-26T10:16:43.138Z</time>
      </trkpt>
      <trkpt lat="40.71511667" lon="-4.13253667">
        <ele>1457.0</ele>
        <time>2018-05-26T10:16:44.163Z</time>
      </trkpt>
      <trkpt lat="40.71512333" lon="-4.13254833">
        <ele>1457.0</ele>
        <time>2018-05-26T10:16:45.172Z</time>
      </trkpt>
      <trkpt lat="40.71512667" lon="-4.13255167">
        <ele>1457.0</ele>
        <time>2018-05-26T10:16:46.163Z</time>
      </trkpt>
      <trkpt lat="40.71512667" lon="-4.13255167">
        <ele>1457.0</ele>
        <time>2018-05-26T10:16:47.143Z</time>
      </trkpt>
      <trkpt lat="40.71513" lon="-4.13255167">
        <ele>1457.0</ele>
        <time>2018-05-26T10:16:48.151Z</time>
      </trkpt>
      <trkpt lat="40.715165" lon="-4.1326">
        <ele>1456.0</ele>
        <time>2018-05-26T10:16:49.171Z</time>
      </trkpt>
      <trkpt lat="40.715165" lon="-4.1326">
        <ele>1456.0</ele>
        <time>2018-05-26T10:16:50.138Z</time>
      </trkpt>
      <trkpt lat="40.71518667" lon="-4.13264">
        <ele>1456.0</ele>
        <time>2018-05-26T10:16:51.167Z</time>
      </trkpt>
      <trkpt lat="40.71518667" lon="-4.13264">
        <ele>1456.0</ele>
        <time>2018-05-26T10:16:52.160Z</time>
      </trkpt>
      <trkpt lat="40.71520667" lon="-4.13267833">
        <ele>1456.0</ele>
        <time>2018-05-26T10:16:53.165Z</time>
      </trkpt>
      <trkpt lat="40.71520667" lon="-4.13267833">
        <ele>1456.0</ele>
        <time>2018-05-26T10:16:54.138Z</time>
      </trkpt>
      <trkpt lat="40.71522667" lon="-4.13272167">
        <ele>1456.0</ele>
        <time>2018-05-26T10:16:55.145Z</time>
      </trkpt>
      <trkpt lat="40.71523667" lon="-4.13274333">
        <ele>1456.0</ele>
        <time>2018-05-26T10:16:56.138Z</time>
      </trkpt>
      <trkpt lat="40.71523667" lon="-4.13274333">
        <ele>1456.0</ele>
        <time>2018-05-26T10:16:57.161Z</time>
      </trkpt>
      <trkpt lat="40.715255" lon="-4.13278167">
        <ele>1456.0</ele>
        <time>2018-05-26T10:16:58.169Z</time>
      </trkpt>
      <trkpt lat="40.715255" lon="-4.13278167">
        <ele>1456.0</ele>
        <time>2018-05-26T10:16:59.160Z</time>
      </trkpt>
      <trkpt lat="40.71527667" lon="-4.13281667">
        <ele>1456.0</ele>
        <time>2018-05-26T10:17:00.162Z</time>
      </trkpt>
      <trkpt lat="40.71529" lon="-4.132835">
        <ele>1456.0</ele>
        <time>2018-05-26T10:17:01.157Z</time>
      </trkpt>
      <trkpt lat="40.71529" lon="-4.132835">
        <ele>1456.0</ele>
        <time>2018-05-26T10:17:02.145Z</time>
      </trkpt>
      <trkpt lat="40.71530833" lon="-4.132875">
        <ele>1456.0</ele>
        <time>2018-05-26T10:17:03.153Z</time>
      </trkpt>
      <trkpt lat="40.71530833" lon="-4.132875">
        <ele>1456.0</ele>
        <time>2018-05-26T10:17:04.161Z</time>
      </trkpt>
      <trkpt lat="40.71532" lon="-4.13291667">
        <ele>1458.0</ele>
        <time>2018-05-26T10:17:05.144Z</time>
      </trkpt>
      <trkpt lat="40.71532" lon="-4.13291667">
        <ele>1458.0</ele>
        <time>2018-05-26T10:17:06.139Z</time>
      </trkpt>
      <trkpt lat="40.71532833" lon="-4.13295333">
        <ele>1458.0</ele>
        <time>2018-05-26T10:17:07.147Z</time>
      </trkpt>
      <trkpt lat="40.71532833" lon="-4.13295333">
        <ele>1458.0</ele>
        <time>2018-05-26T10:17:08.175Z</time>
      </trkpt>
      <trkpt lat="40.71533667" lon="-4.13298833">
        <ele>1459.0</ele>
        <time>2018-05-26T10:17:09.163Z</time>
      </trkpt>
      <trkpt lat="40.71533667" lon="-4.13298833">
        <ele>1459.0</ele>
        <time>2018-05-26T10:17:10.163Z</time>
      </trkpt>
      <trkpt lat="40.71535167" lon="-4.13301167">
        <ele>1459.0</ele>
        <time>2018-05-26T10:17:11.170Z</time>
      </trkpt>
      <trkpt lat="40.71535833" lon="-4.13302167">
        <ele>1460.0</ele>
        <time>2018-05-26T10:17:12.138Z</time>
      </trkpt>
      <trkpt lat="40.71536667" lon="-4.13303333">
        <ele>1460.0</ele>
        <time>2018-05-26T10:17:13.164Z</time>
      </trkpt>
      <trkpt lat="40.71536667" lon="-4.13303333">
        <ele>1460.0</ele>
        <time>2018-05-26T10:17:14.155Z</time>
      </trkpt>
      <trkpt lat="40.71539" lon="-4.13305833">
        <ele>1460.0</ele>
        <time>2018-05-26T10:17:15.147Z</time>
      </trkpt>
      <trkpt lat="40.71539" lon="-4.13305833">
        <ele>1460.0</ele>
        <time>2018-05-26T10:17:16.172Z</time>
      </trkpt>
      <trkpt lat="40.71540833" lon="-4.13307333">
        <ele>1460.0</ele>
        <time>2018-05-26T10:17:17.139Z</time>
      </trkpt>
      <trkpt lat="40.71542167" lon="-4.13307833">
        <ele>1460.0</ele>
        <time>2018-05-26T10:17:18.153Z</time>
      </trkpt>
      <trkpt lat="40.71542167" lon="-4.13307833">
        <ele>1460.0</ele>
        <time>2018-05-26T10:17:19.141Z</time>
      </trkpt>
      <trkpt lat="40.71545" lon="-4.13308833">
        <ele>1461.0</ele>
        <time>2018-05-26T10:17:20.157Z</time>
      </trkpt>
      <trkpt lat="40.71545" lon="-4.13308833">
        <ele>1461.0</ele>
        <time>2018-05-26T10:17:21.144Z</time>
      </trkpt>
      <trkpt lat="40.71548167" lon="-4.13309667">
        <ele>1461.0</ele>
        <time>2018-05-26T10:17:22.171Z</time>
      </trkpt>
      <trkpt lat="40.71549667" lon="-4.13310167">
        <ele>1461.0</ele>
        <time>2018-05-26T10:17:23.165Z</time>
      </trkpt>
      <trkpt lat="40.71549667" lon="-4.13310167">
        <ele>1461.0</ele>
        <time>2018-05-26T10:17:24.160Z</time>
      </trkpt>
      <trkpt lat="40.71552667" lon="-4.13311333">
        <ele>1462.0</ele>
        <time>2018-05-26T10:17:25.167Z</time>
      </trkpt>
      <trkpt lat="40.71552667" lon="-4.13311333">
        <ele>1462.0</ele>
        <time>2018-05-26T10:17:26.154Z</time>
      </trkpt>
      <trkpt lat="40.71555167" lon="-4.13312167">
        <ele>1462.0</ele>
        <time>2018-05-26T10:17:27.171Z</time>
      </trkpt>
      <trkpt lat="40.71555167" lon="-4.13312167">
        <ele>1462.0</ele>
        <time>2018-05-26T10:17:28.155Z</time>
      </trkpt>
      <trkpt lat="40.71557833" lon="-4.13313667">
        <ele>1462.0</ele>
        <time>2018-05-26T10:17:29.138Z</time>
      </trkpt>
      <trkpt lat="40.71559167" lon="-4.13314667">
        <ele>1462.0</ele>
        <time>2018-05-26T10:17:30.160Z</time>
      </trkpt>
      <trkpt lat="40.715605" lon="-4.13315833">
        <ele>1463.0</ele>
        <time>2018-05-26T10:17:31.148Z</time>
      </trkpt>
      <trkpt lat="40.715605" lon="-4.13315833">
        <ele>1463.0</ele>
        <time>2018-05-26T10:17:32.136Z</time>
      </trkpt>
      <trkpt lat="40.71563333" lon="-4.13318167">
        <ele>1463.0</ele>
        <time>2018-05-26T10:17:33.144Z</time>
      </trkpt>
      <trkpt lat="40.71564833" lon="-4.13319">
        <ele>1463.0</ele>
        <time>2018-05-26T10:17:34.167Z</time>
      </trkpt>
      <trkpt lat="40.71564833" lon="-4.13319">
        <ele>1463.0</ele>
        <time>2018-05-26T10:17:35.140Z</time>
      </trkpt>
      <trkpt lat="40.71567667" lon="-4.13320167">
        <ele>1463.0</ele>
        <time>2018-05-26T10:17:36.155Z</time>
      </trkpt>
      <trkpt lat="40.71569167" lon="-4.13321">
        <ele>1463.0</ele>
        <time>2018-05-26T10:17:37.143Z</time>
      </trkpt>
      <trkpt lat="40.715705" lon="-4.13322167">
        <ele>1463.0</ele>
        <time>2018-05-26T10:17:38.168Z</time>
      </trkpt>
      <trkpt lat="40.715705" lon="-4.13322167">
        <ele>1463.0</ele>
        <time>2018-05-26T10:17:39.146Z</time>
      </trkpt>
      <trkpt lat="40.71572667" lon="-4.13324167">
        <ele>1464.0</ele>
        <time>2018-05-26T10:17:40.152Z</time>
      </trkpt>
      <trkpt lat="40.71572667" lon="-4.13324167">
        <ele>1464.0</ele>
        <time>2018-05-26T10:17:41.170Z</time>
      </trkpt>
      <trkpt lat="40.71574833" lon="-4.13326333">
        <ele>1464.0</ele>
        <time>2018-05-26T10:17:42.168Z</time>
      </trkpt>
      <trkpt lat="40.71574833" lon="-4.13326333">
        <ele>1464.0</ele>
        <time>2018-05-26T10:17:43.152Z</time>
      </trkpt>
      <trkpt lat="40.71577" lon="-4.13328167">
        <ele>1465.0</ele>
        <time>2018-05-26T10:17:44.159Z</time>
      </trkpt>
      <trkpt lat="40.71578" lon="-4.13328833">
        <ele>1465.0</ele>
        <time>2018-05-26T10:17:45.166Z</time>
      </trkpt>
      <trkpt lat="40.71578" lon="-4.13328833">
        <ele>1465.0</ele>
        <time>2018-05-26T10:17:46.142Z</time>
      </trkpt>
      <trkpt lat="40.71579833" lon="-4.13330667">
        <ele>1465.0</ele>
        <time>2018-05-26T10:17:47.150Z</time>
      </trkpt>
      <trkpt lat="40.71581" lon="-4.13332167">
        <ele>1465.0</ele>
        <time>2018-05-26T10:17:48.154Z</time>
      </trkpt>
      <trkpt lat="40.71581" lon="-4.13332167">
        <ele>1465.0</ele>
        <time>2018-05-26T10:17:49.164Z</time>
      </trkpt>
      <trkpt lat="40.71583667" lon="-4.13334833">
        <ele>1465.0</ele>
        <time>2018-05-26T10:17:50.171Z</time>
      </trkpt>
      <trkpt lat="40.71583667" lon="-4.13334833">
        <ele>1465.0</ele>
        <time>2018-05-26T10:17:51.157Z</time>
      </trkpt>
      <trkpt lat="40.71587333" lon="-4.133365">
        <ele>1465.0</ele>
        <time>2018-05-26T10:17:52.156Z</time>
      </trkpt>
      <trkpt lat="40.71587333" lon="-4.133365">
        <ele>1465.0</ele>
        <time>2018-05-26T10:17:53.174Z</time>
      </trkpt>
      <trkpt lat="40.7159" lon="-4.13338167">
        <ele>1466.0</ele>
        <time>2018-05-26T10:17:54.140Z</time>
      </trkpt>
      <trkpt lat="40.71591167" lon="-4.13339167">
        <ele>1466.0</ele>
        <time>2018-05-26T10:17:55.148Z</time>
      </trkpt>
      <trkpt lat="40.71591167" lon="-4.13339167">
        <ele>1466.0</ele>
        <time>2018-05-26T10:17:56.153Z</time>
      </trkpt>
      <trkpt lat="40.71593" lon="-4.13342333">
        <ele>1467.0</ele>
        <time>2018-05-26T10:17:57.160Z</time>
      </trkpt>
      <trkpt lat="40.71594" lon="-4.13343833">
        <ele>1467.0</ele>
        <time>2018-05-26T10:17:58.153Z</time>
      </trkpt>
      <trkpt lat="40.71594" lon="-4.13343833">
        <ele>1467.0</ele>
        <time>2018-05-26T10:17:59.167Z</time>
      </trkpt>
      <trkpt lat="40.71596167" lon="-4.13346">
        <ele>1467.0</ele>
        <time>2018-05-26T10:18:00.160Z</time>
      </trkpt>
      <trkpt lat="40.71597167" lon="-4.13346667">
        <ele>1467.0</ele>
        <time>2018-05-26T10:18:01.155Z</time>
      </trkpt>
      <trkpt lat="40.71597167" lon="-4.13346667">
        <ele>1467.0</ele>
        <time>2018-05-26T10:18:02.143Z</time>
      </trkpt>
      <trkpt lat="40.71599167" lon="-4.13348167">
        <ele>1468.0</ele>
        <time>2018-05-26T10:18:03.150Z</time>
      </trkpt>
      <trkpt lat="40.71600167" lon="-4.13349167">
        <ele>1468.0</ele>
        <time>2018-05-26T10:18:04.158Z</time>
      </trkpt>
      <trkpt lat="40.71601" lon="-4.13350667">
        <ele>1468.0</ele>
        <time>2018-05-26T10:18:05.150Z</time>
      </trkpt>
      <trkpt lat="40.71601" lon="-4.13350667">
        <ele>1468.0</ele>
        <time>2018-05-26T10:18:06.139Z</time>
      </trkpt>
      <trkpt lat="40.71603167" lon="-4.13352">
        <ele>1468.0</ele>
        <time>2018-05-26T10:18:07.150Z</time>
      </trkpt>
      <trkpt lat="40.71603167" lon="-4.13352">
        <ele>1468.0</ele>
        <time>2018-05-26T10:18:08.162Z</time>
      </trkpt>
      <trkpt lat="40.71605" lon="-4.13354">
        <ele>1468.0</ele>
        <time>2018-05-26T10:18:09.158Z</time>
      </trkpt>
      <trkpt lat="40.71605" lon="-4.13354">
        <ele>1468.0</ele>
        <time>2018-05-26T10:18:10.173Z</time>
      </trkpt>
      <trkpt lat="40.71606" lon="-4.13357167">
        <ele>1469.0</ele>
        <time>2018-05-26T10:18:11.139Z</time>
      </trkpt>
      <trkpt lat="40.71606" lon="-4.13357167">
        <ele>1469.0</ele>
        <time>2018-05-26T10:18:12.164Z</time>
      </trkpt>
      <trkpt lat="40.716065" lon="-4.13361">
        <ele>1469.0</ele>
        <time>2018-05-26T10:18:13.171Z</time>
      </trkpt>
      <trkpt lat="40.716065" lon="-4.13361">
        <ele>1469.0</ele>
        <time>2018-05-26T10:18:14.142Z</time>
      </trkpt>
      <trkpt lat="40.71608" lon="-4.13364">
        <ele>1470.0</ele>
        <time>2018-05-26T10:18:15.157Z</time>
      </trkpt>
      <trkpt lat="40.71608833" lon="-4.133655">
        <ele>1470.0</ele>
        <time>2018-05-26T10:18:16.165Z</time>
      </trkpt>
      <trkpt lat="40.71608833" lon="-4.133655">
        <ele>1470.0</ele>
        <time>2018-05-26T10:18:17.158Z</time>
      </trkpt>
      <trkpt lat="40.71611333" lon="-4.13367333">
        <ele>1471.0</ele>
        <time>2018-05-26T10:18:18.166Z</time>
      </trkpt>
      <trkpt lat="40.71612333" lon="-4.13368167">
        <ele>1471.0</ele>
        <time>2018-05-26T10:18:19.146Z</time>
      </trkpt>
      <trkpt lat="40.71612333" lon="-4.13368167">
        <ele>1471.0</ele>
        <time>2018-05-26T10:18:20.140Z</time>
      </trkpt>
      <trkpt lat="40.71614333" lon="-4.133715">
        <ele>1471.0</ele>
        <time>2018-05-26T10:18:21.147Z</time>
      </trkpt>
      <trkpt lat="40.71614333" lon="-4.133715">
        <ele>1471.0</ele>
        <time>2018-05-26T10:18:22.173Z</time>
      </trkpt>
      <trkpt lat="40.71615333" lon="-4.13375833">
        <ele>1471.0</ele>
        <time>2018-05-26T10:18:23.174Z</time>
      </trkpt>
      <trkpt lat="40.71616167" lon="-4.13378167">
        <ele>1471.0</ele>
        <time>2018-05-26T10:18:24.158Z</time>
      </trkpt>
      <trkpt lat="40.71616167" lon="-4.13378167">
        <ele>1471.0</ele>
        <time>2018-05-26T10:18:25.143Z</time>
      </trkpt>
      <trkpt lat="40.71618167" lon="-4.13382">
        <ele>1471.0</ele>
        <time>2018-05-26T10:18:26.173Z</time>
      </trkpt>
      <trkpt lat="40.71618167" lon="-4.13382">
        <ele>1471.0</ele>
        <time>2018-05-26T10:18:27.157Z</time>
      </trkpt>
      <trkpt lat="40.71619667" lon="-4.13382667">
        <ele>1472.0</ele>
        <time>2018-05-26T10:18:28.164Z</time>
      </trkpt>
      <trkpt lat="40.716195" lon="-4.13382833">
        <ele>1471.0</ele>
        <time>2018-05-26T10:18:29.155Z</time>
      </trkpt>
      <trkpt lat="40.71619667" lon="-4.133835">
        <ele>1471.0</ele>
        <time>2018-05-26T10:18:30.145Z</time>
      </trkpt>
      <trkpt lat="40.71619667" lon="-4.133835">
        <ele>1471.0</ele>
        <time>2018-05-26T10:18:31.170Z</time>
      </trkpt>
      <trkpt lat="40.71617667" lon="-4.13392833">
        <ele>1472.0</ele>
        <time>2018-05-26T10:18:32.167Z</time>
      </trkpt>
      <trkpt lat="40.71617667" lon="-4.13392833">
        <ele>1472.0</ele>
        <time>2018-05-26T10:18:33.159Z</time>
      </trkpt>
      <trkpt lat="40.716175" lon="-4.13395">
        <ele>1472.0</ele>
        <time>2018-05-26T10:18:34.150Z</time>
      </trkpt>
      <trkpt lat="40.716175" lon="-4.13395">
        <ele>1472.0</ele>
        <time>2018-05-26T10:18:35.142Z</time>
      </trkpt>
      <trkpt lat="40.716175" lon="-4.133965">
        <ele>1473.0</ele>
        <time>2018-05-26T10:18:36.149Z</time>
      </trkpt>
      <trkpt lat="40.71617333" lon="-4.13397167">
        <ele>1473.0</ele>
        <time>2018-05-26T10:18:37.140Z</time>
      </trkpt>
      <trkpt lat="40.71617333" lon="-4.13397167">
        <ele>1473.0</ele>
        <time>2018-05-26T10:18:38.137Z</time>
      </trkpt>
      <trkpt lat="40.71617167" lon="-4.13398833">
        <ele>1473.0</ele>
        <time>2018-05-26T10:18:39.148Z</time>
      </trkpt>
      <trkpt lat="40.71617167" lon="-4.134">
        <ele>1473.0</ele>
        <time>2018-05-26T10:18:40.150Z</time>
      </trkpt>
      <trkpt lat="40.71617" lon="-4.13401167">
        <ele>1473.0</ele>
        <time>2018-05-26T10:18:41.147Z</time>
      </trkpt>
      <trkpt lat="40.71617" lon="-4.13401167">
        <ele>1473.0</ele>
        <time>2018-05-26T10:18:42.173Z</time>
      </trkpt>
      <trkpt lat="40.71616833" lon="-4.13404167">
        <ele>1473.0</ele>
        <time>2018-05-26T10:18:43.139Z</time>
      </trkpt>
      <trkpt lat="40.71616833" lon="-4.13404167">
        <ele>1473.0</ele>
        <time>2018-05-26T10:18:44.166Z</time>
      </trkpt>
      <trkpt lat="40.71617" lon="-4.13407">
        <ele>1474.0</ele>
        <time>2018-05-26T10:18:45.170Z</time>
      </trkpt>
      <trkpt lat="40.71617167" lon="-4.13408">
        <ele>1474.0</ele>
        <time>2018-05-26T10:18:46.154Z</time>
      </trkpt>
      <trkpt lat="40.71617167" lon="-4.13408">
        <ele>1474.0</ele>
        <time>2018-05-26T10:18:47.144Z</time>
      </trkpt>
      <trkpt lat="40.71616833" lon="-4.134105">
        <ele>1474.0</ele>
        <time>2018-05-26T10:18:48.170Z</time>
      </trkpt>
      <trkpt lat="40.71616833" lon="-4.134105">
        <ele>1474.0</ele>
        <time>2018-05-26T10:18:49.155Z</time>
      </trkpt>
      <trkpt lat="40.71615667" lon="-4.13412667">
        <ele>1475.0</ele>
        <time>2018-05-26T10:18:50.162Z</time>
      </trkpt>
      <trkpt lat="40.71615333" lon="-4.13413667">
        <ele>1475.0</ele>
        <time>2018-05-26T10:18:51.160Z</time>
      </trkpt>
      <trkpt lat="40.71615333" lon="-4.13413667">
        <ele>1475.0</ele>
        <time>2018-05-26T10:18:52.164Z</time>
      </trkpt>
      <trkpt lat="40.71615333" lon="-4.13416333">
        <ele>1476.0</ele>
        <time>2018-05-26T10:18:53.170Z</time>
      </trkpt>
      <trkpt lat="40.71615333" lon="-4.13416333">
        <ele>1476.0</ele>
        <time>2018-05-26T10:18:54.156Z</time>
      </trkpt>
      <trkpt lat="40.71616" lon="-4.134185">
        <ele>1477.0</ele>
        <time>2018-05-26T10:18:55.150Z</time>
      </trkpt>
      <trkpt lat="40.71616" lon="-4.134185">
        <ele>1477.0</ele>
        <time>2018-05-26T10:18:56.143Z</time>
      </trkpt>
      <trkpt lat="40.71616167" lon="-4.13420833">
        <ele>1479.0</ele>
        <time>2018-05-26T10:18:57.165Z</time>
      </trkpt>
      <trkpt lat="40.71616333" lon="-4.13422333">
        <ele>1479.0</ele>
        <time>2018-05-26T10:18:58.160Z</time>
      </trkpt>
      <trkpt lat="40.71616333" lon="-4.13422333">
        <ele>1479.0</ele>
        <time>2018-05-26T10:18:59.148Z</time>
      </trkpt>
      <trkpt lat="40.71617333" lon="-4.13424833">
        <ele>1479.0</ele>
        <time>2018-05-26T10:19:00.167Z</time>
      </trkpt>
      <trkpt lat="40.71618167" lon="-4.13425667">
        <ele>1479.0</ele>
        <time>2018-05-26T10:19:01.176Z</time>
      </trkpt>
      <trkpt lat="40.71618833" lon="-4.13425833">
        <ele>1479.0</ele>
        <time>2018-05-26T10:19:02.162Z</time>
      </trkpt>
      <trkpt lat="40.71618833" lon="-4.13425833">
        <ele>1479.0</ele>
        <time>2018-05-26T10:19:03.150Z</time>
      </trkpt>
      <trkpt lat="40.71619667" lon="-4.13425333">
        <ele>1480.0</ele>
        <time>2018-05-26T10:19:04.162Z</time>
      </trkpt>
      <trkpt lat="40.71619667" lon="-4.13425333">
        <ele>1480.0</ele>
        <time>2018-05-26T10:19:05.169Z</time>
      </trkpt>
      <trkpt lat="40.716215" lon="-4.134245">
        <ele>1480.0</ele>
        <time>2018-05-26T10:19:06.150Z</time>
      </trkpt>
      <trkpt lat="40.716215" lon="-4.134245">
        <ele>1480.0</ele>
        <time>2018-05-26T10:19:07.166Z</time>
      </trkpt>
      <trkpt lat="40.71623" lon="-4.13425333">
        <ele>1480.0</ele>
        <time>2018-05-26T10:19:08.173Z</time>
      </trkpt>
      <trkpt lat="40.71623" lon="-4.13425333">
        <ele>1480.0</ele>
        <time>2018-05-26T10:19:09.161Z</time>
      </trkpt>
      <trkpt lat="40.71624833" lon="-4.13427333">
        <ele>1481.0</ele>
        <time>2018-05-26T10:19:10.156Z</time>
      </trkpt>
      <trkpt lat="40.71624833" lon="-4.13427333">
        <ele>1481.0</ele>
        <time>2018-05-26T10:19:11.156Z</time>
      </trkpt>
      <trkpt lat="40.71626833" lon="-4.13431167">
        <ele>1481.0</ele>
        <time>2018-05-26T10:19:12.163Z</time>
      </trkpt>
      <trkpt lat="40.71628" lon="-4.13433167">
        <ele>1481.0</ele>
        <time>2018-05-26T10:19:13.150Z</time>
      </trkpt>
      <trkpt lat="40.71628" lon="-4.13433167">
        <ele>1481.0</ele>
        <time>2018-05-26T10:19:14.145Z</time>
      </trkpt>
      <trkpt lat="40.71631167" lon="-4.13437167">
        <ele>1481.0</ele>
        <time>2018-05-26T10:19:15.158Z</time>
      </trkpt>
      <trkpt lat="40.71632833" lon="-4.13439167">
        <ele>1481.0</ele>
        <time>2018-05-26T10:19:16.152Z</time>
      </trkpt>
      <trkpt lat="40.71632833" lon="-4.13439167">
        <ele>1481.0</ele>
        <time>2018-05-26T10:19:17.166Z</time>
      </trkpt>
      <trkpt lat="40.71636" lon="-4.13443">
        <ele>1482.0</ele>
        <time>2018-05-26T10:19:18.141Z</time>
      </trkpt>
      <trkpt lat="40.71636" lon="-4.13443">
        <ele>1482.0</ele>
        <time>2018-05-26T10:19:19.165Z</time>
      </trkpt>
      <trkpt lat="40.71639" lon="-4.13446833">
        <ele>1482.0</ele>
        <time>2018-05-26T10:19:20.150Z</time>
      </trkpt>
      <trkpt lat="40.71639" lon="-4.13446833">
        <ele>1482.0</ele>
        <time>2018-05-26T10:19:21.137Z</time>
      </trkpt>
      <trkpt lat="40.71641833" lon="-4.134505">
        <ele>1482.0</ele>
        <time>2018-05-26T10:19:22.146Z</time>
      </trkpt>
      <trkpt lat="40.71641833" lon="-4.134505">
        <ele>1482.0</ele>
        <time>2018-05-26T10:19:23.171Z</time>
      </trkpt>
      <trkpt lat="40.71644833" lon="-4.13454333">
        <ele>1483.0</ele>
        <time>2018-05-26T10:19:24.156Z</time>
      </trkpt>
      <trkpt lat="40.71644833" lon="-4.13454333">
        <ele>1483.0</ele>
        <time>2018-05-26T10:19:25.147Z</time>
      </trkpt>
      <trkpt lat="40.71648" lon="-4.13457667">
        <ele>1483.0</ele>
        <time>2018-05-26T10:19:26.153Z</time>
      </trkpt>
      <trkpt lat="40.71649667" lon="-4.13459167">
        <ele>1483.0</ele>
        <time>2018-05-26T10:19:27.139Z</time>
      </trkpt>
      <trkpt lat="40.71649667" lon="-4.13459167">
        <ele>1483.0</ele>
        <time>2018-05-26T10:19:28.162Z</time>
      </trkpt>
      <trkpt lat="40.71653167" lon="-4.13462333">
        <ele>1482.0</ele>
        <time>2018-05-26T10:19:29.140Z</time>
      </trkpt>
      <trkpt lat="40.71653167" lon="-4.13462333">
        <ele>1482.0</ele>
        <time>2018-05-26T10:19:30.153Z</time>
      </trkpt>
      <trkpt lat="40.71656167" lon="-4.134665">
        <ele>1482.0</ele>
        <time>2018-05-26T10:19:31.142Z</time>
      </trkpt>
      <trkpt lat="40.71657667" lon="-4.13468667">
        <ele>1482.0</ele>
        <time>2018-05-26T10:19:32.150Z</time>
      </trkpt>
      <trkpt lat="40.71657667" lon="-4.13468667">
        <ele>1482.0</ele>
        <time>2018-05-26T10:19:33.175Z</time>
      </trkpt>
      <trkpt lat="40.71660833" lon="-4.134725">
        <ele>1482.0</ele>
        <time>2018-05-26T10:19:34.151Z</time>
      </trkpt>
      <trkpt lat="40.71662167" lon="-4.13474167">
        <ele>1483.0</ele>
        <time>2018-05-26T10:19:35.160Z</time>
      </trkpt>
      <trkpt lat="40.71662167" lon="-4.13474167">
        <ele>1483.0</ele>
        <time>2018-05-26T10:19:36.167Z</time>
      </trkpt>
      <trkpt lat="40.71664833" lon="-4.134775">
        <ele>1483.0</ele>
        <time>2018-05-26T10:19:37.175Z</time>
      </trkpt>
      <trkpt lat="40.71666333" lon="-4.13478833">
        <ele>1483.0</ele>
        <time>2018-05-26T10:19:38.150Z</time>
      </trkpt>
      <trkpt lat="40.71666333" lon="-4.13478833">
        <ele>1483.0</ele>
        <time>2018-05-26T10:19:39.136Z</time>
      </trkpt>
      <trkpt lat="40.71669833" lon="-4.134815">
        <ele>1483.0</ele>
        <time>2018-05-26T10:19:40.149Z</time>
      </trkpt>
      <trkpt lat="40.716715" lon="-4.13482667">
        <ele>1483.0</ele>
        <time>2018-05-26T10:19:41.173Z</time>
      </trkpt>
      <trkpt lat="40.716715" lon="-4.13482667">
        <ele>1483.0</ele>
        <time>2018-05-26T10:19:42.142Z</time>
      </trkpt>
      <trkpt lat="40.71675333" lon="-4.13485">
        <ele>1483.0</ele>
        <time>2018-05-26T10:19:43.151Z</time>
      </trkpt>
      <trkpt lat="40.71675333" lon="-4.13485">
        <ele>1483.0</ele>
        <time>2018-05-26T10:19:44.159Z</time>
      </trkpt>
      <trkpt lat="40.71678667" lon="-4.13488167">
        <ele>1483.0</ele>
        <time>2018-05-26T10:19:45.137Z</time>
      </trkpt>
      <trkpt lat="40.71678667" lon="-4.13488167">
        <ele>1483.0</ele>
        <time>2018-05-26T10:19:46.162Z</time>
      </trkpt>
      <trkpt lat="40.71682167" lon="-4.13490167">
        <ele>1483.0</ele>
        <time>2018-05-26T10:19:47.171Z</time>
      </trkpt>
      <trkpt lat="40.71682167" lon="-4.13490167">
        <ele>1483.0</ele>
        <time>2018-05-26T10:19:48.163Z</time>
      </trkpt>
      <trkpt lat="40.71685833" lon="-4.13492333">
        <ele>1484.0</ele>
        <time>2018-05-26T10:19:49.145Z</time>
      </trkpt>
      <trkpt lat="40.71685833" lon="-4.13492333">
        <ele>1484.0</ele>
        <time>2018-05-26T10:19:50.165Z</time>
      </trkpt>
      <trkpt lat="40.71690167" lon="-4.13493667">
        <ele>1484.0</ele>
        <time>2018-05-26T10:19:51.172Z</time>
      </trkpt>
      <trkpt lat="40.71692167" lon="-4.13494167">
        <ele>1485.0</ele>
        <time>2018-05-26T10:19:52.160Z</time>
      </trkpt>
      <trkpt lat="40.71694167" lon="-4.13494333">
        <ele>1485.0</ele>
        <time>2018-05-26T10:19:53.150Z</time>
      </trkpt>
      <trkpt lat="40.71694167" lon="-4.13494333">
        <ele>1485.0</ele>
        <time>2018-05-26T10:19:54.174Z</time>
      </trkpt>
      <trkpt lat="40.71698667" lon="-4.134935">
        <ele>1486.0</ele>
        <time>2018-05-26T10:19:55.160Z</time>
      </trkpt>
      <trkpt lat="40.71698667" lon="-4.134935">
        <ele>1486.0</ele>
        <time>2018-05-26T10:19:56.151Z</time>
      </trkpt>
      <trkpt lat="40.71703333" lon="-4.13493">
        <ele>1487.0</ele>
        <time>2018-05-26T10:19:57.158Z</time>
      </trkpt>
      <trkpt lat="40.717055" lon="-4.13493">
        <ele>1487.0</ele>
        <time>2018-05-26T10:19:58.179Z</time>
      </trkpt>
      <trkpt lat="40.717055" lon="-4.13493">
        <ele>1487.0</ele>
        <time>2018-05-26T10:19:59.148Z</time>
      </trkpt>
      <trkpt lat="40.71709667" lon="-4.13492833">
        <ele>1488.0</ele>
        <time>2018-05-26T10:20:00.139Z</time>
      </trkpt>
      <trkpt lat="40.71709667" lon="-4.13492833">
        <ele>1488.0</ele>
        <time>2018-05-26T10:20:01.145Z</time>
      </trkpt>
      <trkpt lat="40.71713667" lon="-4.134925">
        <ele>1490.0</ele>
        <time>2018-05-26T10:20:02.155Z</time>
      </trkpt>
      <trkpt lat="40.71715833" lon="-4.13492667">
        <ele>1491.0</ele>
        <time>2018-05-26T10:20:03.149Z</time>
      </trkpt>
      <trkpt lat="40.71718" lon="-4.13492833">
        <ele>1491.0</ele>
        <time>2018-05-26T10:20:04.139Z</time>
      </trkpt>
      <trkpt lat="40.71718" lon="-4.13492833">
        <ele>1491.0</ele>
        <time>2018-05-26T10:20:05.165Z</time>
      </trkpt>
      <trkpt lat="40.71722833" lon="-4.134925">
        <ele>1493.0</ele>
        <time>2018-05-26T10:20:06.172Z</time>
      </trkpt>
      <trkpt lat="40.71722833" lon="-4.134925">
        <ele>1493.0</ele>
        <time>2018-05-26T10:20:07.160Z</time>
      </trkpt>
      <trkpt lat="40.71729833" lon="-4.134925">
        <ele>1495.0</ele>
        <time>2018-05-26T10:20:08.162Z</time>
      </trkpt>
      <trkpt lat="40.71732333" lon="-4.13493">
        <ele>1496.0</ele>
        <time>2018-05-26T10:20:09.169Z</time>
      </trkpt>
      <trkpt lat="40.71735167" lon="-4.13493167">
        <ele>1497.0</ele>
        <time>2018-05-26T10:20:10.158Z</time>
      </trkpt>
      <trkpt lat="40.71735167" lon="-4.13493167">
        <ele>1497.0</ele>
        <time>2018-05-26T10:20:11.144Z</time>
      </trkpt>
      <trkpt lat="40.71740333" lon="-4.13495167">
        <ele>1500.0</ele>
        <time>2018-05-26T10:20:12.153Z</time>
      </trkpt>
      <trkpt lat="40.71742667" lon="-4.13496667">
        <ele>1500.0</ele>
        <time>2018-05-26T10:20:13.171Z</time>
      </trkpt>
      <trkpt lat="40.717455" lon="-4.134975">
        <ele>1500.0</ele>
        <time>2018-05-26T10:20:14.150Z</time>
      </trkpt>
      <trkpt lat="40.717455" lon="-4.134975">
        <ele>1500.0</ele>
        <time>2018-05-26T10:20:15.164Z</time>
      </trkpt>
      <trkpt lat="40.71751667" lon="-4.13498333">
        <ele>1502.0</ele>
        <time>2018-05-26T10:20:16.171Z</time>
      </trkpt>
      <trkpt lat="40.71755" lon="-4.13498">
        <ele>1502.0</ele>
        <time>2018-05-26T10:20:17.140Z</time>
      </trkpt>
      <trkpt lat="40.71755" lon="-4.13498">
        <ele>1502.0</ele>
        <time>2018-05-26T10:20:18.163Z</time>
      </trkpt>
      <trkpt lat="40.71762167" lon="-4.13496">
        <ele>1502.0</ele>
        <time>2018-05-26T10:20:19.175Z</time>
      </trkpt>
      <trkpt lat="40.71765333" lon="-4.134955">
        <ele>1503.0</ele>
        <time>2018-05-26T10:20:20.166Z</time>
      </trkpt>
      <trkpt lat="40.71765333" lon="-4.134955">
        <ele>1503.0</ele>
        <time>2018-05-26T10:20:21.150Z</time>
      </trkpt>
      <trkpt lat="40.71772" lon="-4.13495">
        <ele>1504.0</ele>
        <time>2018-05-26T10:20:22.159Z</time>
      </trkpt>
      <trkpt lat="40.71772" lon="-4.13495">
        <ele>1504.0</ele>
        <time>2018-05-26T10:20:23.147Z</time>
      </trkpt>
      <trkpt lat="40.717795" lon="-4.134935">
        <ele>1505.0</ele>
        <time>2018-05-26T10:20:24.159Z</time>
      </trkpt>
      <trkpt lat="40.717795" lon="-4.134935">
        <ele>1505.0</ele>
        <time>2018-05-26T10:20:25.141Z</time>
      </trkpt>
      <trkpt lat="40.71787667" lon="-4.13487833">
        <ele>1505.0</ele>
        <time>2018-05-26T10:20:26.151Z</time>
      </trkpt>
      <trkpt lat="40.71787667" lon="-4.13487833">
        <ele>1505.0</ele>
        <time>2018-05-26T10:20:27.141Z</time>
      </trkpt>
      <trkpt lat="40.71797667" lon="-4.13484333">
        <ele>1506.0</ele>
        <time>2018-05-26T10:20:28.161Z</time>
      </trkpt>
      <trkpt lat="40.71797667" lon="-4.13484333">
        <ele>1506.0</ele>
        <time>2018-05-26T10:20:29.153Z</time>
      </trkpt>
      <trkpt lat="40.718075" lon="-4.134825">
        <ele>1506.0</ele>
        <time>2018-05-26T10:20:30.160Z</time>
      </trkpt>
      <trkpt lat="40.71812167" lon="-4.13480333">
        <ele>1506.0</ele>
        <time>2018-05-26T10:20:31.166Z</time>
      </trkpt>
      <trkpt lat="40.71812167" lon="-4.13480333">
        <ele>1506.0</ele>
        <time>2018-05-26T10:20:32.168Z</time>
      </trkpt>
      <trkpt lat="40.71821" lon="-4.13472833">
        <ele>1505.0</ele>
        <time>2018-05-26T10:20:33.175Z</time>
      </trkpt>
      <trkpt lat="40.71823833" lon="-4.13468167">
        <ele>1505.0</ele>
        <time>2018-05-26T10:20:34.160Z</time>
      </trkpt>
      <trkpt lat="40.71823833" lon="-4.13468167">
        <ele>1505.0</ele>
        <time>2018-05-26T10:20:35.155Z</time>
      </trkpt>
      <trkpt lat="40.71828" lon="-4.13460667">
        <ele>1504.0</ele>
        <time>2018-05-26T10:20:36.161Z</time>
      </trkpt>
      <trkpt lat="40.71828" lon="-4.13460667">
        <ele>1504.0</ele>
        <time>2018-05-26T10:20:37.156Z</time>
      </trkpt>
      <trkpt lat="40.71833833" lon="-4.1346">
        <ele>1503.0</ele>
        <time>2018-05-26T10:20:38.163Z</time>
      </trkpt>
      <trkpt lat="40.71833833" lon="-4.1346">
        <ele>1503.0</ele>
        <time>2018-05-26T10:20:39.166Z</time>
      </trkpt>
      <trkpt lat="40.71840167" lon="-4.13461">
        <ele>1503.0</ele>
        <time>2018-05-26T10:20:40.175Z</time>
      </trkpt>
      <trkpt lat="40.71840167" lon="-4.13461">
        <ele>1503.0</ele>
        <time>2018-05-26T10:20:41.163Z</time>
      </trkpt>
      <trkpt lat="40.718455" lon="-4.134585">
        <ele>1502.0</ele>
        <time>2018-05-26T10:20:42.169Z</time>
      </trkpt>
      <trkpt lat="40.718455" lon="-4.134585">
        <ele>1502.0</ele>
        <time>2018-05-26T10:20:43.157Z</time>
      </trkpt>
      <trkpt lat="40.71851" lon="-4.13454833">
        <ele>1503.0</ele>
        <time>2018-05-26T10:20:44.164Z</time>
      </trkpt>
      <trkpt lat="40.71851" lon="-4.13454833">
        <ele>1503.0</ele>
        <time>2018-05-26T10:20:45.147Z</time>
      </trkpt>
      <trkpt lat="40.71857" lon="-4.13452333">
        <ele>1502.0</ele>
        <time>2018-05-26T10:20:46.154Z</time>
      </trkpt>
      <trkpt lat="40.71859833" lon="-4.13450833">
        <ele>1502.0</ele>
        <time>2018-05-26T10:20:47.160Z</time>
      </trkpt>
      <trkpt lat="40.71859833" lon="-4.13450833">
        <ele>1502.0</ele>
        <time>2018-05-26T10:20:48.173Z</time>
      </trkpt>
      <trkpt lat="40.71865" lon="-4.13449333">
        <ele>1503.0</ele>
        <time>2018-05-26T10:20:49.148Z</time>
      </trkpt>
      <trkpt lat="40.718675" lon="-4.13449833">
        <ele>1503.0</ele>
        <time>2018-05-26T10:20:50.139Z</time>
      </trkpt>
      <trkpt lat="40.718675" lon="-4.13449833">
        <ele>1503.0</ele>
        <time>2018-05-26T10:20:51.145Z</time>
      </trkpt>
      <trkpt lat="40.71873" lon="-4.13448833">
        <ele>1503.0</ele>
        <time>2018-05-26T10:20:52.152Z</time>
      </trkpt>
      <trkpt lat="40.71873" lon="-4.13448833">
        <ele>1503.0</ele>
        <time>2018-05-26T10:20:53.145Z</time>
      </trkpt>
      <trkpt lat="40.71877" lon="-4.13445">
        <ele>1502.0</ele>
        <time>2018-05-26T10:20:54.164Z</time>
      </trkpt>
      <trkpt lat="40.71877" lon="-4.13445">
        <ele>1502.0</ele>
        <time>2018-05-26T10:20:55.162Z</time>
      </trkpt>
      <trkpt lat="40.71880833" lon="-4.13441333">
        <ele>1502.0</ele>
        <time>2018-05-26T10:20:56.169Z</time>
      </trkpt>
      <trkpt lat="40.71883167" lon="-4.13440333">
        <ele>1502.0</ele>
        <time>2018-05-26T10:20:57.173Z</time>
      </trkpt>
      <trkpt lat="40.71883167" lon="-4.13440333">
        <ele>1502.0</ele>
        <time>2018-05-26T10:20:58.158Z</time>
      </trkpt>
      <trkpt lat="40.71887833" lon="-4.134385">
        <ele>1502.0</ele>
        <time>2018-05-26T10:20:59.166Z</time>
      </trkpt>
      <trkpt lat="40.71887833" lon="-4.134385">
        <ele>1502.0</ele>
        <time>2018-05-26T10:21:00.156Z</time>
      </trkpt>
      <trkpt lat="40.718925" lon="-4.13436">
        <ele>1501.0</ele>
        <time>2018-05-26T10:21:01.141Z</time>
      </trkpt>
      <trkpt lat="40.718925" lon="-4.13436">
        <ele>1501.0</ele>
        <time>2018-05-26T10:21:02.166Z</time>
      </trkpt>
      <trkpt lat="40.71897167" lon="-4.13433333">
        <ele>1501.0</ele>
        <time>2018-05-26T10:21:03.173Z</time>
      </trkpt>
      <trkpt lat="40.71899" lon="-4.134325">
        <ele>1501.0</ele>
        <time>2018-05-26T10:21:04.167Z</time>
      </trkpt>
      <trkpt lat="40.71899" lon="-4.134325">
        <ele>1501.0</ele>
        <time>2018-05-26T10:21:05.172Z</time>
      </trkpt>
      <trkpt lat="40.71903167" lon="-4.13431">
        <ele>1501.0</ele>
        <time>2018-05-26T10:21:06.140Z</time>
      </trkpt>
      <trkpt lat="40.71903167" lon="-4.13431">
        <ele>1501.0</ele>
        <time>2018-05-26T10:21:07.155Z</time>
      </trkpt>
      <trkpt lat="40.719085" lon="-4.13428667">
        <ele>1501.0</ele>
        <time>2018-05-26T10:21:08.160Z</time>
      </trkpt>
      <trkpt lat="40.719085" lon="-4.13428667">
        <ele>1501.0</ele>
        <time>2018-05-26T10:21:09.167Z</time>
      </trkpt>
      <trkpt lat="40.71914" lon="-4.13425">
        <ele>1501.0</ele>
        <time>2018-05-26T10:21:10.140Z</time>
      </trkpt>
      <trkpt lat="40.71914" lon="-4.13425">
        <ele>1501.0</ele>
        <time>2018-05-26T10:21:11.149Z</time>
      </trkpt>
      <trkpt lat="40.719195" lon="-4.13423167">
        <ele>1501.0</ele>
        <time>2018-05-26T10:21:12.157Z</time>
      </trkpt>
      <trkpt lat="40.719195" lon="-4.13423167">
        <ele>1501.0</ele>
        <time>2018-05-26T10:21:13.147Z</time>
      </trkpt>
      <trkpt lat="40.71925833" lon="-4.134235">
        <ele>1501.0</ele>
        <time>2018-05-26T10:21:14.162Z</time>
      </trkpt>
      <trkpt lat="40.71925833" lon="-4.134235">
        <ele>1501.0</ele>
        <time>2018-05-26T10:21:15.167Z</time>
      </trkpt>
      <trkpt lat="40.71932167" lon="-4.13424667">
        <ele>1501.0</ele>
        <time>2018-05-26T10:21:16.180Z</time>
      </trkpt>
      <trkpt lat="40.71932167" lon="-4.13424667">
        <ele>1501.0</ele>
        <time>2018-05-26T10:21:17.148Z</time>
      </trkpt>
      <trkpt lat="40.719385" lon="-4.134235">
        <ele>1500.0</ele>
        <time>2018-05-26T10:21:18.155Z</time>
      </trkpt>
      <trkpt lat="40.719385" lon="-4.134235">
        <ele>1500.0</ele>
        <time>2018-05-26T10:21:19.146Z</time>
      </trkpt>
      <trkpt lat="40.71945333" lon="-4.13422667">
        <ele>1500.0</ele>
        <time>2018-05-26T10:21:20.160Z</time>
      </trkpt>
      <trkpt lat="40.71945333" lon="-4.13422667">
        <ele>1500.0</ele>
        <time>2018-05-26T10:21:21.138Z</time>
      </trkpt>
      <trkpt lat="40.719515" lon="-4.13421333">
        <ele>1500.0</ele>
        <time>2018-05-26T10:21:22.151Z</time>
      </trkpt>
      <trkpt lat="40.719515" lon="-4.13421333">
        <ele>1500.0</ele>
        <time>2018-05-26T10:21:23.137Z</time>
      </trkpt>
      <trkpt lat="40.71957667" lon="-4.13421">
        <ele>1499.0</ele>
        <time>2018-05-26T10:21:24.166Z</time>
      </trkpt>
      <trkpt lat="40.71957667" lon="-4.13421">
        <ele>1499.0</ele>
        <time>2018-05-26T10:21:25.147Z</time>
      </trkpt>
      <trkpt lat="40.71963667" lon="-4.134205">
        <ele>1499.0</ele>
        <time>2018-05-26T10:21:26.158Z</time>
      </trkpt>
      <trkpt lat="40.71966" lon="-4.13420167">
        <ele>1499.0</ele>
        <time>2018-05-26T10:21:27.160Z</time>
      </trkpt>
      <trkpt lat="40.71968" lon="-4.134195">
        <ele>1499.0</ele>
        <time>2018-05-26T10:21:28.169Z</time>
      </trkpt>
      <trkpt lat="40.71969333" lon="-4.13417667">
        <ele>1499.0</ele>
        <time>2018-05-26T10:21:29.170Z</time>
      </trkpt>
      <trkpt lat="40.71969333" lon="-4.13417667">
        <ele>1499.0</ele>
        <time>2018-05-26T10:21:30.156Z</time>
      </trkpt>
      <trkpt lat="40.71972667" lon="-4.13413333">
        <ele>1499.0</ele>
        <time>2018-05-26T10:21:31.163Z</time>
      </trkpt>
      <trkpt lat="40.71974667" lon="-4.13411333">
        <ele>1499.0</ele>
        <time>2018-05-26T10:21:32.164Z</time>
      </trkpt>
      <trkpt lat="40.71974667" lon="-4.13411333">
        <ele>1499.0</ele>
        <time>2018-05-26T10:21:33.150Z</time>
      </trkpt>
      <trkpt lat="40.719795" lon="-4.13406333">
        <ele>1499.0</ele>
        <time>2018-05-26T10:21:34.170Z</time>
      </trkpt>
      <trkpt lat="40.719795" lon="-4.13406333">
        <ele>1499.0</ele>
        <time>2018-05-26T10:21:35.175Z</time>
      </trkpt>
      <trkpt lat="40.71986333" lon="-4.13401833">
        <ele>1498.0</ele>
        <time>2018-05-26T10:21:36.156Z</time>
      </trkpt>
      <trkpt lat="40.71986333" lon="-4.13401833">
        <ele>1498.0</ele>
        <time>2018-05-26T10:21:37.157Z</time>
      </trkpt>
      <trkpt lat="40.71993667" lon="-4.13400667">
        <ele>1498.0</ele>
        <time>2018-05-26T10:21:38.165Z</time>
      </trkpt>
      <trkpt lat="40.71993667" lon="-4.13400667">
        <ele>1498.0</ele>
        <time>2018-05-26T10:21:39.152Z</time>
      </trkpt>
      <trkpt lat="40.72000167" lon="-4.13398833">
        <ele>1498.0</ele>
        <time>2018-05-26T10:21:40.151Z</time>
      </trkpt>
      <trkpt lat="40.72000167" lon="-4.13398833">
        <ele>1498.0</ele>
        <time>2018-05-26T10:21:41.157Z</time>
      </trkpt>
      <trkpt lat="40.72005333" lon="-4.13397167">
        <ele>1498.0</ele>
        <time>2018-05-26T10:21:42.164Z</time>
      </trkpt>
      <trkpt lat="40.72005333" lon="-4.13397167">
        <ele>1498.0</ele>
        <time>2018-05-26T10:21:43.151Z</time>
      </trkpt>
      <trkpt lat="40.720095" lon="-4.133965">
        <ele>1498.0</ele>
        <time>2018-05-26T10:21:44.166Z</time>
      </trkpt>
      <trkpt lat="40.720095" lon="-4.133965">
        <ele>1498.0</ele>
        <time>2018-05-26T10:21:45.145Z</time>
      </trkpt>
      <trkpt lat="40.72014" lon="-4.13396333">
        <ele>1497.0</ele>
        <time>2018-05-26T10:21:46.158Z</time>
      </trkpt>
      <trkpt lat="40.72014" lon="-4.13396333">
        <ele>1497.0</ele>
        <time>2018-05-26T10:21:47.148Z</time>
      </trkpt>
      <trkpt lat="40.72018833" lon="-4.133945">
        <ele>1497.0</ele>
        <time>2018-05-26T10:21:48.160Z</time>
      </trkpt>
      <trkpt lat="40.72018833" lon="-4.133945">
        <ele>1497.0</ele>
        <time>2018-05-26T10:21:49.153Z</time>
      </trkpt>
      <trkpt lat="40.72024167" lon="-4.13393167">
        <ele>1496.0</ele>
        <time>2018-05-26T10:21:50.160Z</time>
      </trkpt>
      <trkpt lat="40.720265" lon="-4.13393">
        <ele>1496.0</ele>
        <time>2018-05-26T10:21:51.153Z</time>
      </trkpt>
      <trkpt lat="40.720265" lon="-4.13393">
        <ele>1496.0</ele>
        <time>2018-05-26T10:21:52.140Z</time>
      </trkpt>
      <trkpt lat="40.72029" lon="-4.13392333">
        <ele>1496.0</ele>
        <time>2018-05-26T10:21:53.148Z</time>
      </trkpt>
      <trkpt lat="40.72029" lon="-4.13392333">
        <ele>1496.0</ele>
        <time>2018-05-26T10:21:54.136Z</time>
      </trkpt>
      <trkpt lat="40.720335" lon="-4.13392167">
        <ele>1496.0</ele>
        <time>2018-05-26T10:21:55.148Z</time>
      </trkpt>
      <trkpt lat="40.72035667" lon="-4.13391667">
        <ele>1496.0</ele>
        <time>2018-05-26T10:21:56.146Z</time>
      </trkpt>
      <trkpt lat="40.72035667" lon="-4.13391667">
        <ele>1496.0</ele>
        <time>2018-05-26T10:21:57.163Z</time>
      </trkpt>
      <trkpt lat="40.720395" lon="-4.13389833">
        <ele>1495.0</ele>
        <time>2018-05-26T10:21:58.170Z</time>
      </trkpt>
      <trkpt lat="40.720395" lon="-4.13389833">
        <ele>1495.0</ele>
        <time>2018-05-26T10:21:59.157Z</time>
      </trkpt>
      <trkpt lat="40.720425" lon="-4.13388333">
        <ele>1495.0</ele>
        <time>2018-05-26T10:22:00.169Z</time>
      </trkpt>
      <trkpt lat="40.72766167" lon="-4.13425167">
        <ele>1440.0</ele>
        <time>2018-05-26T10:48:32.692Z</time>
      </trkpt>
      <trkpt lat="40.727695" lon="-4.13424333">
        <ele>1439.0</ele>
        <time>2018-05-26T10:48:33.701Z</time>
      </trkpt>
      <trkpt lat="40.727695" lon="-4.13424333">
        <ele>1439.0</ele>
        <time>2018-05-26T10:48:34.711Z</time>
      </trkpt>
      <trkpt lat="40.72774" lon="-4.13420833">
        <ele>1439.0</ele>
        <time>2018-05-26T10:48:35.713Z</time>
      </trkpt>
      <trkpt lat="40.727765" lon="-4.13419167">
        <ele>1439.0</ele>
        <time>2018-05-26T10:48:36.683Z</time>
      </trkpt>
      <trkpt lat="40.727765" lon="-4.13419167">
        <ele>1439.0</ele>
        <time>2018-05-26T10:48:37.675Z</time>
      </trkpt>
      <trkpt lat="40.72782333" lon="-4.13415833">
        <ele>1439.0</ele>
        <time>2018-05-26T10:48:38.691Z</time>
      </trkpt>
      <trkpt lat="40.72785333" lon="-4.13414333">
        <ele>1439.0</ele>
        <time>2018-05-26T10:48:39.684Z</time>
      </trkpt>
      <trkpt lat="40.72785333" lon="-4.13414333">
        <ele>1439.0</ele>
        <time>2018-05-26T10:48:40.680Z</time>
      </trkpt>
      <trkpt lat="40.72789833" lon="-4.134105">
        <ele>1439.0</ele>
        <time>2018-05-26T10:48:41.675Z</time>
      </trkpt>
      <trkpt lat="40.72789833" lon="-4.134105">
        <ele>1439.0</ele>
        <time>2018-05-26T10:48:42.709Z</time>
      </trkpt>
      <trkpt lat="40.72793" lon="-4.13407">
        <ele>1439.0</ele>
        <time>2018-05-26T10:48:43.710Z</time>
      </trkpt>
      <trkpt lat="40.72793" lon="-4.13407">
        <ele>1439.0</ele>
        <time>2018-05-26T10:48:44.709Z</time>
      </trkpt>
      <trkpt lat="40.72796667" lon="-4.13402333">
        <ele>1439.0</ele>
        <time>2018-05-26T10:48:45.711Z</time>
      </trkpt>
      <trkpt lat="40.72796667" lon="-4.13402333">
        <ele>1439.0</ele>
        <time>2018-05-26T10:48:46.709Z</time>
      </trkpt>
      <trkpt lat="40.727995" lon="-4.133995">
        <ele>1439.0</ele>
        <time>2018-05-26T10:48:47.712Z</time>
      </trkpt>
      <trkpt lat="40.727995" lon="-4.133995">
        <ele>1439.0</ele>
        <time>2018-05-26T10:48:48.707Z</time>
      </trkpt>
      <trkpt lat="40.72803333" lon="-4.13397667">
        <ele>1440.0</ele>
        <time>2018-05-26T10:48:49.679Z</time>
      </trkpt>
      <trkpt lat="40.72803333" lon="-4.13397667">
        <ele>1440.0</ele>
        <time>2018-05-26T10:48:50.683Z</time>
      </trkpt>
      <trkpt lat="40.72807333" lon="-4.13394167">
        <ele>1440.0</ele>
        <time>2018-05-26T10:48:51.677Z</time>
      </trkpt>
      <trkpt lat="40.72807333" lon="-4.13394167">
        <ele>1440.0</ele>
        <time>2018-05-26T10:48:52.709Z</time>
      </trkpt>
      <trkpt lat="40.72810667" lon="-4.13394167">
        <ele>1441.0</ele>
        <time>2018-05-26T10:48:53.711Z</time>
      </trkpt>
      <trkpt lat="40.72810667" lon="-4.13394167">
        <ele>1441.0</ele>
        <time>2018-05-26T10:48:54.708Z</time>
      </trkpt>
      <trkpt lat="40.72816167" lon="-4.13394">
        <ele>1442.0</ele>
        <time>2018-05-26T10:48:55.712Z</time>
      </trkpt>
      <trkpt lat="40.72816167" lon="-4.13394">
        <ele>1442.0</ele>
        <time>2018-05-26T10:48:56.707Z</time>
      </trkpt>
      <trkpt lat="40.72819333" lon="-4.13393833">
        <ele>1442.0</ele>
        <time>2018-05-26T10:48:57.711Z</time>
      </trkpt>
      <trkpt lat="40.72819333" lon="-4.13393833">
        <ele>1442.0</ele>
        <time>2018-05-26T10:48:58.683Z</time>
      </trkpt>
      <trkpt lat="40.72823" lon="-4.13395667">
        <ele>1443.0</ele>
        <time>2018-05-26T10:48:59.678Z</time>
      </trkpt>
      <trkpt lat="40.72825333" lon="-4.13397667">
        <ele>1443.0</ele>
        <time>2018-05-26T10:49:00.714Z</time>
      </trkpt>
      <trkpt lat="40.72825333" lon="-4.13397667">
        <ele>1443.0</ele>
        <time>2018-05-26T10:49:01.710Z</time>
      </trkpt>
      <trkpt lat="40.72832" lon="-4.13400667">
        <ele>1444.0</ele>
        <time>2018-05-26T10:49:02.711Z</time>
      </trkpt>
      <trkpt lat="40.72832" lon="-4.13400667">
        <ele>1444.0</ele>
        <time>2018-05-26T10:49:03.713Z</time>
      </trkpt>
      <trkpt lat="40.72836833" lon="-4.13403333">
        <ele>1444.0</ele>
        <time>2018-05-26T10:49:04.712Z</time>
      </trkpt>
      <trkpt lat="40.72836833" lon="-4.13403333">
        <ele>1444.0</ele>
        <time>2018-05-26T10:49:05.709Z</time>
      </trkpt>
      <trkpt lat="40.72842333" lon="-4.13404167">
        <ele>1444.0</ele>
        <time>2018-05-26T10:49:06.712Z</time>
      </trkpt>
      <trkpt lat="40.72845333" lon="-4.13405">
        <ele>1445.0</ele>
        <time>2018-05-26T10:49:07.714Z</time>
      </trkpt>
      <trkpt lat="40.72848333" lon="-4.134055">
        <ele>1445.0</ele>
        <time>2018-05-26T10:49:08.712Z</time>
      </trkpt>
      <trkpt lat="40.72848333" lon="-4.134055">
        <ele>1445.0</ele>
        <time>2018-05-26T10:49:09.709Z</time>
      </trkpt>
      <trkpt lat="40.72854" lon="-4.13408">
        <ele>1446.0</ele>
        <time>2018-05-26T10:49:10.710Z</time>
      </trkpt>
      <trkpt lat="40.72854" lon="-4.13408">
        <ele>1446.0</ele>
        <time>2018-05-26T10:49:11.707Z</time>
      </trkpt>
      <trkpt lat="40.72859333" lon="-4.13413333">
        <ele>1446.0</ele>
        <time>2018-05-26T10:49:12.708Z</time>
      </trkpt>
      <trkpt lat="40.72861167" lon="-4.13414833">
        <ele>1446.0</ele>
        <time>2018-05-26T10:49:13.712Z</time>
      </trkpt>
      <trkpt lat="40.72861167" lon="-4.13414833">
        <ele>1446.0</ele>
        <time>2018-05-26T10:49:14.708Z</time>
      </trkpt>
      <trkpt lat="40.72865667" lon="-4.13419167">
        <ele>1446.0</ele>
        <time>2018-05-26T10:49:15.712Z</time>
      </trkpt>
      <trkpt lat="40.72865667" lon="-4.13419167">
        <ele>1446.0</ele>
        <time>2018-05-26T10:49:16.709Z</time>
      </trkpt>
      <trkpt lat="40.728705" lon="-4.13421">
        <ele>1447.0</ele>
        <time>2018-05-26T10:49:17.711Z</time>
      </trkpt>
      <trkpt lat="40.728735" lon="-4.13422333">
        <ele>1447.0</ele>
        <time>2018-05-26T10:49:18.675Z</time>
      </trkpt>
      <trkpt lat="40.728735" lon="-4.13422333">
        <ele>1447.0</ele>
        <time>2018-05-26T10:49:19.710Z</time>
      </trkpt>
      <trkpt lat="40.72877333" lon="-4.13425667">
        <ele>1447.0</ele>
        <time>2018-05-26T10:49:20.710Z</time>
      </trkpt>
      <trkpt lat="40.728795" lon="-4.13429">
        <ele>1448.0</ele>
        <time>2018-05-26T10:49:21.712Z</time>
      </trkpt>
      <trkpt lat="40.728795" lon="-4.13429">
        <ele>1448.0</ele>
        <time>2018-05-26T10:49:22.708Z</time>
      </trkpt>
      <trkpt lat="40.72883333" lon="-4.13433667">
        <ele>1448.0</ele>
        <time>2018-05-26T10:49:23.710Z</time>
      </trkpt>
      <trkpt lat="40.72883333" lon="-4.13433667">
        <ele>1448.0</ele>
        <time>2018-05-26T10:49:24.708Z</time>
      </trkpt>
      <trkpt lat="40.72886333" lon="-4.13436333">
        <ele>1448.0</ele>
        <time>2018-05-26T10:49:25.679Z</time>
      </trkpt>
      <trkpt lat="40.72886333" lon="-4.13436333">
        <ele>1448.0</ele>
        <time>2018-05-26T10:49:26.710Z</time>
      </trkpt>
      <trkpt lat="40.728925" lon="-4.13439667">
        <ele>1449.0</ele>
        <time>2018-05-26T10:49:27.710Z</time>
      </trkpt>
      <trkpt lat="40.728925" lon="-4.13439667">
        <ele>1449.0</ele>
        <time>2018-05-26T10:49:28.710Z</time>
      </trkpt>
      <trkpt lat="40.72900167" lon="-4.134445">
        <ele>1449.0</ele>
        <time>2018-05-26T10:49:29.710Z</time>
      </trkpt>
      <trkpt lat="40.72900167" lon="-4.134445">
        <ele>1449.0</ele>
        <time>2018-05-26T10:49:30.693Z</time>
      </trkpt>
      <trkpt lat="40.72908667" lon="-4.1345">
        <ele>1449.0</ele>
        <time>2018-05-26T10:49:31.713Z</time>
      </trkpt>
      <trkpt lat="40.72908667" lon="-4.1345">
        <ele>1449.0</ele>
        <time>2018-05-26T10:49:32.703Z</time>
      </trkpt>
      <trkpt lat="40.72916333" lon="-4.13453333">
        <ele>1449.0</ele>
        <time>2018-05-26T10:49:33.710Z</time>
      </trkpt>
      <trkpt lat="40.72916333" lon="-4.13453333">
        <ele>1449.0</ele>
        <time>2018-05-26T10:49:34.709Z</time>
      </trkpt>
      <trkpt lat="40.72924667" lon="-4.13454833">
        <ele>1449.0</ele>
        <time>2018-05-26T10:49:35.712Z</time>
      </trkpt>
      <trkpt lat="40.72924667" lon="-4.13454833">
        <ele>1449.0</ele>
        <time>2018-05-26T10:49:36.705Z</time>
      </trkpt>
      <trkpt lat="40.72933667" lon="-4.13458667">
        <ele>1449.0</ele>
        <time>2018-05-26T10:49:37.713Z</time>
      </trkpt>
      <trkpt lat="40.72933667" lon="-4.13458667">
        <ele>1449.0</ele>
        <time>2018-05-26T10:49:38.710Z</time>
      </trkpt>
      <trkpt lat="40.729425" lon="-4.13466">
        <ele>1449.0</ele>
        <time>2018-05-26T10:49:39.681Z</time>
      </trkpt>
      <trkpt lat="40.729425" lon="-4.13466">
        <ele>1449.0</ele>
        <time>2018-05-26T10:49:40.708Z</time>
      </trkpt>
      <trkpt lat="40.72951667" lon="-4.13474667">
        <ele>1448.0</ele>
        <time>2018-05-26T10:49:41.711Z</time>
      </trkpt>
      <trkpt lat="40.72960167" lon="-4.13481167">
        <ele>1447.0</ele>
        <time>2018-05-26T10:49:42.712Z</time>
      </trkpt>
      <trkpt lat="40.72960167" lon="-4.13481167">
        <ele>1447.0</ele>
        <time>2018-05-26T10:49:43.710Z</time>
      </trkpt>
      <trkpt lat="40.72974167" lon="-4.13487167">
        <ele>1446.0</ele>
        <time>2018-05-26T10:49:44.709Z</time>
      </trkpt>
      <trkpt lat="40.72979333" lon="-4.13489833">
        <ele>1445.0</ele>
        <time>2018-05-26T10:49:45.712Z</time>
      </trkpt>
      <trkpt lat="40.72979333" lon="-4.13489833">
        <ele>1445.0</ele>
        <time>2018-05-26T10:49:46.709Z</time>
      </trkpt>
      <trkpt lat="40.72988167" lon="-4.13493">
        <ele>1444.0</ele>
        <time>2018-05-26T10:49:47.712Z</time>
      </trkpt>
      <trkpt lat="40.72988167" lon="-4.13493">
        <ele>1444.0</ele>
        <time>2018-05-26T10:49:48.709Z</time>
      </trkpt>
      <trkpt lat="40.72997" lon="-4.13494833">
        <ele>1443.0</ele>
        <time>2018-05-26T10:49:49.678Z</time>
      </trkpt>
      <trkpt lat="40.72997" lon="-4.13494833">
        <ele>1443.0</ele>
        <time>2018-05-26T10:49:50.709Z</time>
      </trkpt>
      <trkpt lat="40.73005333" lon="-4.13497">
        <ele>1442.0</ele>
        <time>2018-05-26T10:49:51.704Z</time>
      </trkpt>
      <trkpt lat="40.73009167" lon="-4.13497167">
        <ele>1442.0</ele>
        <time>2018-05-26T10:49:52.712Z</time>
      </trkpt>
      <trkpt lat="40.73009167" lon="-4.13497167">
        <ele>1442.0</ele>
        <time>2018-05-26T10:49:53.708Z</time>
      </trkpt>
      <trkpt lat="40.73019667" lon="-4.13497667">
        <ele>1442.0</ele>
        <time>2018-05-26T10:49:54.710Z</time>
      </trkpt>
      <trkpt lat="40.73025" lon="-4.13497">
        <ele>1442.0</ele>
        <time>2018-05-26T10:49:55.712Z</time>
      </trkpt>
      <trkpt lat="40.73025" lon="-4.13497">
        <ele>1442.0</ele>
        <time>2018-05-26T10:49:56.706Z</time>
      </trkpt>
      <trkpt lat="40.73035167" lon="-4.13496833">
        <ele>1442.0</ele>
        <time>2018-05-26T10:49:57.712Z</time>
      </trkpt>
      <trkpt lat="40.73035167" lon="-4.13496833">
        <ele>1442.0</ele>
        <time>2018-05-26T10:49:58.684Z</time>
      </trkpt>
      <trkpt lat="40.73046333" lon="-4.13497">
        <ele>1442.0</ele>
        <time>2018-05-26T10:49:59.678Z</time>
      </trkpt>
      <trkpt lat="40.73046333" lon="-4.13497">
        <ele>1442.0</ele>
        <time>2018-05-26T10:50:00.677Z</time>
      </trkpt>
      <trkpt lat="40.730565" lon="-4.13499333">
        <ele>1442.0</ele>
        <time>2018-05-26T10:50:01.683Z</time>
      </trkpt>
      <trkpt lat="40.730565" lon="-4.13499333">
        <ele>1442.0</ele>
        <time>2018-05-26T10:50:02.714Z</time>
      </trkpt>
      <trkpt lat="40.73067833" lon="-4.13498">
        <ele>1442.0</ele>
        <time>2018-05-26T10:50:03.680Z</time>
      </trkpt>
      <trkpt lat="40.73067833" lon="-4.13498">
        <ele>1442.0</ele>
        <time>2018-05-26T10:50:04.711Z</time>
      </trkpt>
      <trkpt lat="40.73080167" lon="-4.13495167">
        <ele>1440.0</ele>
        <time>2018-05-26T10:50:05.711Z</time>
      </trkpt>
      <trkpt lat="40.73080167" lon="-4.13495167">
        <ele>1440.0</ele>
        <time>2018-05-26T10:50:06.705Z</time>
      </trkpt>
      <trkpt lat="40.73089833" lon="-4.13491">
        <ele>1439.0</ele>
        <time>2018-05-26T10:50:07.713Z</time>
      </trkpt>
      <trkpt lat="40.73089833" lon="-4.13491">
        <ele>1439.0</ele>
        <time>2018-05-26T10:50:08.709Z</time>
      </trkpt>
      <trkpt lat="40.73099167" lon="-4.13489333">
        <ele>1439.0</ele>
        <time>2018-05-26T10:50:09.709Z</time>
      </trkpt>
      <trkpt lat="40.73099167" lon="-4.13489333">
        <ele>1439.0</ele>
        <time>2018-05-26T10:50:10.704Z</time>
      </trkpt>
      <trkpt lat="40.73107" lon="-4.13493">
        <ele>1439.0</ele>
        <time>2018-05-26T10:50:11.712Z</time>
      </trkpt>
      <trkpt lat="40.73111167" lon="-4.13495333">
        <ele>1439.0</ele>
        <time>2018-05-26T10:50:12.712Z</time>
      </trkpt>
      <trkpt lat="40.73118167" lon="-4.13497">
        <ele>1439.0</ele>
        <time>2018-05-26T10:50:13.713Z</time>
      </trkpt>
      <trkpt lat="40.73118167" lon="-4.13497">
        <ele>1439.0</ele>
        <time>2018-05-26T10:50:14.709Z</time>
      </trkpt>
      <trkpt lat="40.731275" lon="-4.13507">
        <ele>1439.0</ele>
        <time>2018-05-26T10:50:15.711Z</time>
      </trkpt>
      <trkpt lat="40.731275" lon="-4.13507">
        <ele>1439.0</ele>
        <time>2018-05-26T10:50:16.710Z</time>
      </trkpt>
      <trkpt lat="40.73135333" lon="-4.13516">
        <ele>1438.0</ele>
        <time>2018-05-26T10:50:17.712Z</time>
      </trkpt>
      <trkpt lat="40.73135333" lon="-4.13516">
        <ele>1438.0</ele>
        <time>2018-05-26T10:50:18.709Z</time>
      </trkpt>
      <trkpt lat="40.73140167" lon="-4.13524">
        <ele>1437.0</ele>
        <time>2018-05-26T10:50:19.681Z</time>
      </trkpt>
      <trkpt lat="40.73140167" lon="-4.13524">
        <ele>1437.0</ele>
        <time>2018-05-26T10:50:20.711Z</time>
      </trkpt>
      <trkpt lat="40.73145667" lon="-4.13531667">
        <ele>1437.0</ele>
        <time>2018-05-26T10:50:21.709Z</time>
      </trkpt>
      <trkpt lat="40.73145667" lon="-4.13531667">
        <ele>1437.0</ele>
        <time>2018-05-26T10:50:22.707Z</time>
      </trkpt>
      <trkpt lat="40.73151833" lon="-4.13539667">
        <ele>1436.0</ele>
        <time>2018-05-26T10:50:23.709Z</time>
      </trkpt>
      <trkpt lat="40.73151833" lon="-4.13539667">
        <ele>1436.0</ele>
        <time>2018-05-26T10:50:24.706Z</time>
      </trkpt>
      <trkpt lat="40.73160167" lon="-4.13551333">
        <ele>1434.0</ele>
        <time>2018-05-26T10:50:25.712Z</time>
      </trkpt>
      <trkpt lat="40.73160167" lon="-4.13551333">
        <ele>1434.0</ele>
        <time>2018-05-26T10:50:26.710Z</time>
      </trkpt>
      <trkpt lat="40.73168833" lon="-4.13563167">
        <ele>1432.0</ele>
        <time>2018-05-26T10:50:27.712Z</time>
      </trkpt>
      <trkpt lat="40.73168833" lon="-4.13563167">
        <ele>1432.0</ele>
        <time>2018-05-26T10:50:28.709Z</time>
      </trkpt>
      <trkpt lat="40.73175167" lon="-4.13574">
        <ele>1430.0</ele>
        <time>2018-05-26T10:50:29.679Z</time>
      </trkpt>
      <trkpt lat="40.73176" lon="-4.13578667">
        <ele>1429.0</ele>
        <time>2018-05-26T10:50:30.681Z</time>
      </trkpt>
      <trkpt lat="40.73176" lon="-4.13578667">
        <ele>1429.0</ele>
        <time>2018-05-26T10:50:31.709Z</time>
      </trkpt>
      <trkpt lat="40.73176333" lon="-4.13584167">
        <ele>1429.0</ele>
        <time>2018-05-26T10:50:32.687Z</time>
      </trkpt>
      <trkpt lat="40.73176333" lon="-4.13584167">
        <ele>1429.0</ele>
        <time>2018-05-26T10:50:33.679Z</time>
      </trkpt>
      <trkpt lat="40.73175667" lon="-4.135885">
        <ele>1428.0</ele>
        <time>2018-05-26T10:50:34.713Z</time>
      </trkpt>
      <trkpt lat="40.73175667" lon="-4.135885">
        <ele>1428.0</ele>
        <time>2018-05-26T10:50:35.709Z</time>
      </trkpt>
      <trkpt lat="40.731745" lon="-4.13597">
        <ele>1427.0</ele>
        <time>2018-05-26T10:50:36.712Z</time>
      </trkpt>
      <trkpt lat="40.73175" lon="-4.13602167">
        <ele>1427.0</ele>
        <time>2018-05-26T10:50:37.676Z</time>
      </trkpt>
      <trkpt lat="40.73175" lon="-4.13602167">
        <ele>1427.0</ele>
        <time>2018-05-26T10:50:38.707Z</time>
      </trkpt>
      <trkpt lat="40.73176" lon="-4.13612167">
        <ele>1426.0</ele>
        <time>2018-05-26T10:50:39.710Z</time>
      </trkpt>
      <trkpt lat="40.73176" lon="-4.13612167">
        <ele>1426.0</ele>
        <time>2018-05-26T10:50:40.710Z</time>
      </trkpt>
      <trkpt lat="40.73181167" lon="-4.13623667">
        <ele>1425.0</ele>
        <time>2018-05-26T10:50:41.711Z</time>
      </trkpt>
      <trkpt lat="40.731845" lon="-4.136285">
        <ele>1424.0</ele>
        <time>2018-05-26T10:50:42.711Z</time>
      </trkpt>
      <trkpt lat="40.731845" lon="-4.136285">
        <ele>1424.0</ele>
        <time>2018-05-26T10:50:43.711Z</time>
      </trkpt>
      <trkpt lat="40.73190833" lon="-4.13644">
        <ele>1424.0</ele>
        <time>2018-05-26T10:50:44.712Z</time>
      </trkpt>
      <trkpt lat="40.73194" lon="-4.13650167">
        <ele>1423.0</ele>
        <time>2018-05-26T10:50:45.712Z</time>
      </trkpt>
      <trkpt lat="40.73194" lon="-4.13650167">
        <ele>1423.0</ele>
        <time>2018-05-26T10:50:46.710Z</time>
      </trkpt>
      <trkpt lat="40.73202167" lon="-4.13663667">
        <ele>1423.0</ele>
        <time>2018-05-26T10:50:47.711Z</time>
      </trkpt>
      <trkpt lat="40.73202167" lon="-4.13663667">
        <ele>1423.0</ele>
        <time>2018-05-26T10:50:48.707Z</time>
      </trkpt>
      <trkpt lat="40.7321" lon="-4.13675333">
        <ele>1423.0</ele>
        <time>2018-05-26T10:50:49.679Z</time>
      </trkpt>
      <trkpt lat="40.7321" lon="-4.13675333">
        <ele>1423.0</ele>
        <time>2018-05-26T10:50:50.711Z</time>
      </trkpt>
      <trkpt lat="40.73219333" lon="-4.136885">
        <ele>1422.0</ele>
        <time>2018-05-26T10:50:51.711Z</time>
      </trkpt>
      <trkpt lat="40.73219333" lon="-4.136885">
        <ele>1422.0</ele>
        <time>2018-05-26T10:50:52.708Z</time>
      </trkpt>
      <trkpt lat="40.73229" lon="-4.13700833">
        <ele>1420.0</ele>
        <time>2018-05-26T10:50:53.712Z</time>
      </trkpt>
      <trkpt lat="40.73229" lon="-4.13700833">
        <ele>1420.0</ele>
        <time>2018-05-26T10:50:54.709Z</time>
      </trkpt>
      <trkpt lat="40.73238167" lon="-4.13712167">
        <ele>1419.0</ele>
        <time>2018-05-26T10:50:55.714Z</time>
      </trkpt>
      <trkpt lat="40.73238167" lon="-4.13712167">
        <ele>1419.0</ele>
        <time>2018-05-26T10:50:56.710Z</time>
      </trkpt>
      <trkpt lat="40.73248667" lon="-4.13721667">
        <ele>1418.0</ele>
        <time>2018-05-26T10:50:57.711Z</time>
      </trkpt>
      <trkpt lat="40.73248667" lon="-4.13721667">
        <ele>1418.0</ele>
        <time>2018-05-26T10:50:58.703Z</time>
      </trkpt>
      <trkpt lat="40.73260833" lon="-4.13731167">
        <ele>1416.0</ele>
        <time>2018-05-26T10:50:59.681Z</time>
      </trkpt>
      <trkpt lat="40.73260833" lon="-4.13731167">
        <ele>1416.0</ele>
        <time>2018-05-26T10:51:00.713Z</time>
      </trkpt>
      <trkpt lat="40.73271667" lon="-4.13737333">
        <ele>1415.0</ele>
        <time>2018-05-26T10:51:01.710Z</time>
      </trkpt>
      <trkpt lat="40.73271667" lon="-4.13737333">
        <ele>1415.0</ele>
        <time>2018-05-26T10:51:02.706Z</time>
      </trkpt>
      <trkpt lat="40.73282" lon="-4.13743333">
        <ele>1414.0</ele>
        <time>2018-05-26T10:51:03.713Z</time>
      </trkpt>
      <trkpt lat="40.73282" lon="-4.13743333">
        <ele>1414.0</ele>
        <time>2018-05-26T10:51:04.706Z</time>
      </trkpt>
      <trkpt lat="40.73295167" lon="-4.137515">
        <ele>1414.0</ele>
        <time>2018-05-26T10:51:05.712Z</time>
      </trkpt>
      <trkpt lat="40.73295167" lon="-4.137515">
        <ele>1414.0</ele>
        <time>2018-05-26T10:51:06.710Z</time>
      </trkpt>
      <trkpt lat="40.73306167" lon="-4.13756333">
        <ele>1413.0</ele>
        <time>2018-05-26T10:51:07.715Z</time>
      </trkpt>
      <trkpt lat="40.73306167" lon="-4.13756333">
        <ele>1413.0</ele>
        <time>2018-05-26T10:51:08.708Z</time>
      </trkpt>
      <trkpt lat="40.73319333" lon="-4.13759">
        <ele>1412.0</ele>
        <time>2018-05-26T10:51:09.677Z</time>
      </trkpt>
      <trkpt lat="40.73319333" lon="-4.13759">
        <ele>1412.0</ele>
        <time>2018-05-26T10:51:10.709Z</time>
      </trkpt>
      <trkpt lat="40.73331667" lon="-4.13766">
        <ele>1411.0</ele>
        <time>2018-05-26T10:51:11.707Z</time>
      </trkpt>
      <trkpt lat="40.73337167" lon="-4.137715">
        <ele>1410.0</ele>
        <time>2018-05-26T10:51:12.712Z</time>
      </trkpt>
      <trkpt lat="40.73337167" lon="-4.137715">
        <ele>1410.0</ele>
        <time>2018-05-26T10:51:13.710Z</time>
      </trkpt>
      <trkpt lat="40.733455" lon="-4.13784">
        <ele>1409.0</ele>
        <time>2018-05-26T10:51:14.712Z</time>
      </trkpt>
      <trkpt lat="40.73349667" lon="-4.13789833">
        <ele>1408.0</ele>
        <time>2018-05-26T10:51:15.712Z</time>
      </trkpt>
      <trkpt lat="40.73349667" lon="-4.13789833">
        <ele>1408.0</ele>
        <time>2018-05-26T10:51:16.706Z</time>
      </trkpt>
      <trkpt lat="40.73362333" lon="-4.13797833">
        <ele>1407.0</ele>
        <time>2018-05-26T10:51:17.711Z</time>
      </trkpt>
      <trkpt lat="40.73362333" lon="-4.13797833">
        <ele>1407.0</ele>
        <time>2018-05-26T10:51:18.709Z</time>
      </trkpt>
      <trkpt lat="40.73374" lon="-4.13801">
        <ele>1406.0</ele>
        <time>2018-05-26T10:51:19.690Z</time>
      </trkpt>
      <trkpt lat="40.73374" lon="-4.13801">
        <ele>1406.0</ele>
        <time>2018-05-26T10:51:20.680Z</time>
      </trkpt>
      <trkpt lat="40.73384667" lon="-4.13799">
        <ele>1405.0</ele>
        <time>2018-05-26T10:51:21.712Z</time>
      </trkpt>
      <trkpt lat="40.73384667" lon="-4.13799">
        <ele>1405.0</ele>
        <time>2018-05-26T10:51:22.683Z</time>
      </trkpt>
      <trkpt lat="40.733955" lon="-4.137955">
        <ele>1404.0</ele>
        <time>2018-05-26T10:51:23.715Z</time>
      </trkpt>
      <trkpt lat="40.73402333" lon="-4.13793833">
        <ele>1403.0</ele>
        <time>2018-05-26T10:51:24.686Z</time>
      </trkpt>
      <trkpt lat="40.73402333" lon="-4.13793833">
        <ele>1403.0</ele>
        <time>2018-05-26T10:51:25.677Z</time>
      </trkpt>
      <trkpt lat="40.73417333" lon="-4.13791333">
        <ele>1403.0</ele>
        <time>2018-05-26T10:51:26.710Z</time>
      </trkpt>
      <trkpt lat="40.734245" lon="-4.1379">
        <ele>1402.0</ele>
        <time>2018-05-26T10:51:27.712Z</time>
      </trkpt>
      <trkpt lat="40.734245" lon="-4.1379">
        <ele>1402.0</ele>
        <time>2018-05-26T10:51:28.706Z</time>
      </trkpt>
      <trkpt lat="40.73440667" lon="-4.13787833">
        <ele>1401.0</ele>
        <time>2018-05-26T10:51:29.682Z</time>
      </trkpt>
      <trkpt lat="40.73440667" lon="-4.13787833">
        <ele>1401.0</ele>
        <time>2018-05-26T10:51:30.675Z</time>
      </trkpt>
      <trkpt lat="40.73456833" lon="-4.13786167">
        <ele>1400.0</ele>
        <time>2018-05-26T10:51:31.712Z</time>
      </trkpt>
      <trkpt lat="40.73456833" lon="-4.13786167">
        <ele>1400.0</ele>
        <time>2018-05-26T10:51:32.704Z</time>
      </trkpt>
      <trkpt lat="40.73473167" lon="-4.13784167">
        <ele>1400.0</ele>
        <time>2018-05-26T10:51:33.712Z</time>
      </trkpt>
      <trkpt lat="40.73473167" lon="-4.13784167">
        <ele>1400.0</ele>
        <time>2018-05-26T10:51:34.709Z</time>
      </trkpt>
      <trkpt lat="40.73486833" lon="-4.13777167">
        <ele>1398.0</ele>
        <time>2018-05-26T10:51:35.710Z</time>
      </trkpt>
      <trkpt lat="40.734925" lon="-4.13772833">
        <ele>1397.0</ele>
        <time>2018-05-26T10:51:36.712Z</time>
      </trkpt>
      <trkpt lat="40.73497333" lon="-4.13768333">
        <ele>1396.0</ele>
        <time>2018-05-26T10:51:37.707Z</time>
      </trkpt>
      <trkpt lat="40.73497333" lon="-4.13768333">
        <ele>1396.0</ele>
        <time>2018-05-26T10:51:38.707Z</time>
      </trkpt>
      <trkpt lat="40.73506" lon="-4.13756">
        <ele>1396.0</ele>
        <time>2018-05-26T10:51:39.680Z</time>
      </trkpt>
      <trkpt lat="40.73506" lon="-4.13756">
        <ele>1396.0</ele>
        <time>2018-05-26T10:51:40.683Z</time>
      </trkpt>
      <trkpt lat="40.735125" lon="-4.13742833">
        <ele>1396.0</ele>
        <time>2018-05-26T10:51:41.714Z</time>
      </trkpt>
      <trkpt lat="40.735125" lon="-4.13742833">
        <ele>1396.0</ele>
        <time>2018-05-26T10:51:42.707Z</time>
      </trkpt>
      <trkpt lat="40.73517167" lon="-4.13729833">
        <ele>1396.0</ele>
        <time>2018-05-26T10:51:43.713Z</time>
      </trkpt>
      <trkpt lat="40.73517167" lon="-4.13729833">
        <ele>1396.0</ele>
        <time>2018-05-26T10:51:44.708Z</time>
      </trkpt>
      <trkpt lat="40.73521667" lon="-4.137175">
        <ele>1395.0</ele>
        <time>2018-05-26T10:51:45.713Z</time>
      </trkpt>
      <trkpt lat="40.73521667" lon="-4.137175">
        <ele>1395.0</ele>
        <time>2018-05-26T10:51:46.708Z</time>
      </trkpt>
      <trkpt lat="40.73528667" lon="-4.13703833">
        <ele>1393.0</ele>
        <time>2018-05-26T10:51:47.711Z</time>
      </trkpt>
      <trkpt lat="40.73528667" lon="-4.13703833">
        <ele>1393.0</ele>
        <time>2018-05-26T10:51:48.708Z</time>
      </trkpt>
      <trkpt lat="40.73537167" lon="-4.13691667">
        <ele>1393.0</ele>
        <time>2018-05-26T10:51:49.686Z</time>
      </trkpt>
      <trkpt lat="40.73537167" lon="-4.13691667">
        <ele>1393.0</ele>
        <time>2018-05-26T10:51:50.714Z</time>
      </trkpt>
      <trkpt lat="40.73548833" lon="-4.13679667">
        <ele>1393.0</ele>
        <time>2018-05-26T10:51:51.710Z</time>
      </trkpt>
      <trkpt lat="40.73548833" lon="-4.13679667">
        <ele>1393.0</ele>
        <time>2018-05-26T10:51:52.709Z</time>
      </trkpt>
      <trkpt lat="40.73558167" lon="-4.136615">
        <ele>1394.0</ele>
        <time>2018-05-26T10:51:53.712Z</time>
      </trkpt>
      <trkpt lat="40.73558167" lon="-4.136615">
        <ele>1394.0</ele>
        <time>2018-05-26T10:51:54.713Z</time>
      </trkpt>
      <trkpt lat="40.735625" lon="-4.136405">
        <ele>1393.0</ele>
        <time>2018-05-26T10:51:55.714Z</time>
      </trkpt>
      <trkpt lat="40.735625" lon="-4.136405">
        <ele>1393.0</ele>
        <time>2018-05-26T10:51:56.704Z</time>
      </trkpt>
      <trkpt lat="40.73564" lon="-4.13622">
        <ele>1391.0</ele>
        <time>2018-05-26T10:51:57.713Z</time>
      </trkpt>
      <trkpt lat="40.73564" lon="-4.13622">
        <ele>1391.0</ele>
        <time>2018-05-26T10:51:58.703Z</time>
      </trkpt>
      <trkpt lat="40.73563833" lon="-4.13605">
        <ele>1390.0</ele>
        <time>2018-05-26T10:51:59.684Z</time>
      </trkpt>
      <trkpt lat="40.735635" lon="-4.13598">
        <ele>1390.0</ele>
        <time>2018-05-26T10:52:00.679Z</time>
      </trkpt>
      <trkpt lat="40.735635" lon="-4.13598">
        <ele>1390.0</ele>
        <time>2018-05-26T10:52:01.710Z</time>
      </trkpt>
      <trkpt lat="40.73565333" lon="-4.13584667">
        <ele>1390.0</ele>
        <time>2018-05-26T10:52:02.710Z</time>
      </trkpt>
      <trkpt lat="40.73567167" lon="-4.13578667">
        <ele>1390.0</ele>
        <time>2018-05-26T10:52:03.713Z</time>
      </trkpt>
      <trkpt lat="40.73567167" lon="-4.13578667">
        <ele>1390.0</ele>
        <time>2018-05-26T10:52:04.709Z</time>
      </trkpt>
      <trkpt lat="40.73573833" lon="-4.13572833">
        <ele>1391.0</ele>
        <time>2018-05-26T10:52:05.711Z</time>
      </trkpt>
      <trkpt lat="40.73573833" lon="-4.13572833">
        <ele>1391.0</ele>
        <time>2018-05-26T10:52:06.704Z</time>
      </trkpt>
      <trkpt lat="40.73580667" lon="-4.13574167">
        <ele>1391.0</ele>
        <time>2018-05-26T10:52:07.712Z</time>
      </trkpt>
      <trkpt lat="40.73580667" lon="-4.13574167">
        <ele>1391.0</ele>
        <time>2018-05-26T10:52:08.708Z</time>
      </trkpt>
      <trkpt lat="40.73585" lon="-4.13580333">
        <ele>1391.0</ele>
        <time>2018-05-26T10:52:09.710Z</time>
      </trkpt>
      <trkpt lat="40.73585" lon="-4.13580333">
        <ele>1391.0</ele>
        <time>2018-05-26T10:52:10.707Z</time>
      </trkpt>
      <trkpt lat="40.73586833" lon="-4.13587667">
        <ele>1391.0</ele>
        <time>2018-05-26T10:52:11.711Z</time>
      </trkpt>
      <trkpt lat="40.73586833" lon="-4.13587667">
        <ele>1391.0</ele>
        <time>2018-05-26T10:52:12.709Z</time>
      </trkpt>
      <trkpt lat="40.73588167" lon="-4.13597">
        <ele>1390.0</ele>
        <time>2018-05-26T10:52:13.714Z</time>
      </trkpt>
      <trkpt lat="40.73588167" lon="-4.13597">
        <ele>1390.0</ele>
        <time>2018-05-26T10:52:14.709Z</time>
      </trkpt>
      <trkpt lat="40.73588833" lon="-4.13609833">
        <ele>1391.0</ele>
        <time>2018-05-26T10:52:15.712Z</time>
      </trkpt>
      <trkpt lat="40.73588833" lon="-4.13615833">
        <ele>1391.0</ele>
        <time>2018-05-26T10:52:16.712Z</time>
      </trkpt>
      <trkpt lat="40.73588833" lon="-4.13615833">
        <ele>1391.0</ele>
        <time>2018-05-26T10:52:17.710Z</time>
      </trkpt>
      <trkpt lat="40.73589" lon="-4.13628667">
        <ele>1392.0</ele>
        <time>2018-05-26T10:52:18.710Z</time>
      </trkpt>
      <trkpt lat="40.73589167" lon="-4.136375">
        <ele>1392.0</ele>
        <time>2018-05-26T10:52:19.680Z</time>
      </trkpt>
      <trkpt lat="40.73589167" lon="-4.136375">
        <ele>1392.0</ele>
        <time>2018-05-26T10:52:20.711Z</time>
      </trkpt>
      <trkpt lat="40.73588333" lon="-4.13655167">
        <ele>1392.0</ele>
        <time>2018-05-26T10:52:21.714Z</time>
      </trkpt>
      <trkpt lat="40.73588333" lon="-4.13655167">
        <ele>1392.0</ele>
        <time>2018-05-26T10:52:22.709Z</time>
      </trkpt>
      <trkpt lat="40.73587833" lon="-4.13671333">
        <ele>1392.0</ele>
        <time>2018-05-26T10:52:23.712Z</time>
      </trkpt>
      <trkpt lat="40.73587833" lon="-4.13671333">
        <ele>1392.0</ele>
        <time>2018-05-26T10:52:24.709Z</time>
      </trkpt>
      <trkpt lat="40.73585833" lon="-4.13687667">
        <ele>1392.0</ele>
        <time>2018-05-26T10:52:25.691Z</time>
      </trkpt>
      <trkpt lat="40.73585833" lon="-4.13687667">
        <ele>1392.0</ele>
        <time>2018-05-26T10:52:26.680Z</time>
      </trkpt>
      <trkpt lat="40.73585833" lon="-4.13703333">
        <ele>1391.0</ele>
        <time>2018-05-26T10:52:27.714Z</time>
      </trkpt>
      <trkpt lat="40.73585833" lon="-4.13703333">
        <ele>1391.0</ele>
        <time>2018-05-26T10:52:28.704Z</time>
      </trkpt>
      <trkpt lat="40.73585667" lon="-4.137185">
        <ele>1391.0</ele>
        <time>2018-05-26T10:52:29.712Z</time>
      </trkpt>
      <trkpt lat="40.73585667" lon="-4.137185">
        <ele>1391.0</ele>
        <time>2018-05-26T10:52:30.692Z</time>
      </trkpt>
      <trkpt lat="40.73583833" lon="-4.13739667">
        <ele>1391.0</ele>
        <time>2018-05-26T10:52:31.681Z</time>
      </trkpt>
      <trkpt lat="40.73583833" lon="-4.13739667">
        <ele>1391.0</ele>
        <time>2018-05-26T10:52:32.709Z</time>
      </trkpt>
      <trkpt lat="40.73583333" lon="-4.13763667">
        <ele>1391.0</ele>
        <time>2018-05-26T10:52:33.713Z</time>
      </trkpt>
      <trkpt lat="40.73583333" lon="-4.13763667">
        <ele>1391.0</ele>
        <time>2018-05-26T10:52:34.707Z</time>
      </trkpt>
      <trkpt lat="40.73585167" lon="-4.13786">
        <ele>1391.0</ele>
        <time>2018-05-26T10:52:35.713Z</time>
      </trkpt>
      <trkpt lat="40.73585167" lon="-4.13786">
        <ele>1391.0</ele>
        <time>2018-05-26T10:52:36.709Z</time>
      </trkpt>
      <trkpt lat="40.73591167" lon="-4.138085">
        <ele>1390.0</ele>
        <time>2018-05-26T10:52:37.713Z</time>
      </trkpt>
      <trkpt lat="40.73591167" lon="-4.138085">
        <ele>1390.0</ele>
        <time>2018-05-26T10:52:38.709Z</time>
      </trkpt>
      <trkpt lat="40.73598" lon="-4.13829667">
        <ele>1390.0</ele>
        <time>2018-05-26T10:52:39.682Z</time>
      </trkpt>
      <trkpt lat="40.73598" lon="-4.13829667">
        <ele>1390.0</ele>
        <time>2018-05-26T10:52:40.713Z</time>
      </trkpt>
      <trkpt lat="40.73606833" lon="-4.13849167">
        <ele>1389.0</ele>
        <time>2018-05-26T10:52:41.712Z</time>
      </trkpt>
      <trkpt lat="40.73611167" lon="-4.13859333">
        <ele>1388.0</ele>
        <time>2018-05-26T10:52:42.711Z</time>
      </trkpt>
      <trkpt lat="40.736155" lon="-4.13868833">
        <ele>1387.0</ele>
        <time>2018-05-26T10:52:43.713Z</time>
      </trkpt>
      <trkpt lat="40.736155" lon="-4.13868833">
        <ele>1387.0</ele>
        <time>2018-05-26T10:52:44.680Z</time>
      </trkpt>
      <trkpt lat="40.73627" lon="-4.13886">
        <ele>1386.0</ele>
        <time>2018-05-26T10:52:45.712Z</time>
      </trkpt>
      <trkpt lat="40.73627" lon="-4.13886">
        <ele>1386.0</ele>
        <time>2018-05-26T10:52:46.708Z</time>
      </trkpt>
      <trkpt lat="40.736395" lon="-4.13899667">
        <ele>1386.0</ele>
        <time>2018-05-26T10:52:47.712Z</time>
      </trkpt>
      <trkpt lat="40.736395" lon="-4.13899667">
        <ele>1386.0</ele>
        <time>2018-05-26T10:52:48.709Z</time>
      </trkpt>
      <trkpt lat="40.73654333" lon="-4.13912167">
        <ele>1385.0</ele>
        <time>2018-05-26T10:52:49.676Z</time>
      </trkpt>
      <trkpt lat="40.73654333" lon="-4.13912167">
        <ele>1385.0</ele>
        <time>2018-05-26T10:52:50.709Z</time>
      </trkpt>
      <trkpt lat="40.736715" lon="-4.13923833">
        <ele>1385.0</ele>
        <time>2018-05-26T10:52:51.712Z</time>
      </trkpt>
      <trkpt lat="40.736715" lon="-4.13923833">
        <ele>1385.0</ele>
        <time>2018-05-26T10:52:52.709Z</time>
      </trkpt>
      <trkpt lat="40.73689167" lon="-4.139335">
        <ele>1385.0</ele>
        <time>2018-05-26T10:52:53.711Z</time>
      </trkpt>
      <trkpt lat="40.73689167" lon="-4.139335">
        <ele>1385.0</ele>
        <time>2018-05-26T10:52:54.708Z</time>
      </trkpt>
      <trkpt lat="40.73706" lon="-4.13942167">
        <ele>1384.0</ele>
        <time>2018-05-26T10:52:55.713Z</time>
      </trkpt>
      <trkpt lat="40.73706" lon="-4.13942167">
        <ele>1384.0</ele>
        <time>2018-05-26T10:52:56.703Z</time>
      </trkpt>
      <trkpt lat="40.737225" lon="-4.13949667">
        <ele>1383.0</ele>
        <time>2018-05-26T10:52:57.713Z</time>
      </trkpt>
      <trkpt lat="40.737225" lon="-4.13949667">
        <ele>1383.0</ele>
        <time>2018-05-26T10:52:58.683Z</time>
      </trkpt>
      <trkpt lat="40.73739167" lon="-4.13957">
        <ele>1382.0</ele>
        <time>2018-05-26T10:52:59.682Z</time>
      </trkpt>
      <trkpt lat="40.73739167" lon="-4.13957">
        <ele>1382.0</ele>
        <time>2018-05-26T10:53:00.681Z</time>
      </trkpt>
      <trkpt lat="40.73755" lon="-4.139645">
        <ele>1381.0</ele>
        <time>2018-05-26T10:53:01.714Z</time>
      </trkpt>
      <trkpt lat="40.73755" lon="-4.139645">
        <ele>1381.0</ele>
        <time>2018-05-26T10:53:02.707Z</time>
      </trkpt>
      <trkpt lat="40.737705" lon="-4.13971333">
        <ele>1380.0</ele>
        <time>2018-05-26T10:53:03.683Z</time>
      </trkpt>
      <trkpt lat="40.737705" lon="-4.13971333">
        <ele>1380.0</ele>
        <time>2018-05-26T10:53:04.682Z</time>
      </trkpt>
      <trkpt lat="40.73786667" lon="-4.13977667">
        <ele>1380.0</ele>
        <time>2018-05-26T10:53:05.675Z</time>
      </trkpt>
      <trkpt lat="40.73786667" lon="-4.13977667">
        <ele>1380.0</ele>
        <time>2018-05-26T10:53:06.709Z</time>
      </trkpt>
      <trkpt lat="40.738025" lon="-4.13983833">
        <ele>1380.0</ele>
        <time>2018-05-26T10:53:07.713Z</time>
      </trkpt>
      <trkpt lat="40.738025" lon="-4.13983833">
        <ele>1380.0</ele>
        <time>2018-05-26T10:53:08.709Z</time>
      </trkpt>
      <trkpt lat="40.73817333" lon="-4.13989667">
        <ele>1381.0</ele>
        <time>2018-05-26T10:53:09.678Z</time>
      </trkpt>
      <trkpt lat="40.73817333" lon="-4.13989667">
        <ele>1381.0</ele>
        <time>2018-05-26T10:53:10.709Z</time>
      </trkpt>
      <trkpt lat="40.73832" lon="-4.139955">
        <ele>1381.0</ele>
        <time>2018-05-26T10:53:11.712Z</time>
      </trkpt>
      <trkpt lat="40.73832" lon="-4.139955">
        <ele>1381.0</ele>
        <time>2018-05-26T10:53:12.709Z</time>
      </trkpt>
      <trkpt lat="40.73846" lon="-4.14001833">
        <ele>1382.0</ele>
        <time>2018-05-26T10:53:13.706Z</time>
      </trkpt>
      <trkpt lat="40.73853" lon="-4.14005333">
        <ele>1382.0</ele>
        <time>2018-05-26T10:53:14.712Z</time>
      </trkpt>
      <trkpt lat="40.73860167" lon="-4.14008833">
        <ele>1382.0</ele>
        <time>2018-05-26T10:53:15.712Z</time>
      </trkpt>
      <trkpt lat="40.73860167" lon="-4.14008833">
        <ele>1382.0</ele>
        <time>2018-05-26T10:53:16.709Z</time>
      </trkpt>
      <trkpt lat="40.73873833" lon="-4.14014667">
        <ele>1382.0</ele>
        <time>2018-05-26T10:53:17.711Z</time>
      </trkpt>
      <trkpt lat="40.73873833" lon="-4.14014667">
        <ele>1382.0</ele>
        <time>2018-05-26T10:53:18.709Z</time>
      </trkpt>
      <trkpt lat="40.73887167" lon="-4.14021667">
        <ele>1382.0</ele>
        <time>2018-05-26T10:53:19.680Z</time>
      </trkpt>
      <trkpt lat="40.73887167" lon="-4.14021667">
        <ele>1382.0</ele>
        <time>2018-05-26T10:53:20.710Z</time>
      </trkpt>
      <trkpt lat="40.73900167" lon="-4.14028667">
        <ele>1381.0</ele>
        <time>2018-05-26T10:53:21.713Z</time>
      </trkpt>
      <trkpt lat="40.73900167" lon="-4.14028667">
        <ele>1381.0</ele>
        <time>2018-05-26T10:53:22.708Z</time>
      </trkpt>
      <trkpt lat="40.73911667" lon="-4.14033">
        <ele>1382.0</ele>
        <time>2018-05-26T10:53:23.712Z</time>
      </trkpt>
      <trkpt lat="40.739185" lon="-4.14037">
        <ele>1381.0</ele>
        <time>2018-05-26T10:53:24.712Z</time>
      </trkpt>
      <trkpt lat="40.73925" lon="-4.14040667">
        <ele>1380.0</ele>
        <time>2018-05-26T10:53:25.713Z</time>
      </trkpt>
      <trkpt lat="40.73925" lon="-4.14040667">
        <ele>1380.0</ele>
        <time>2018-05-26T10:53:26.709Z</time>
      </trkpt>
      <trkpt lat="40.73937833" lon="-4.14047333">
        <ele>1379.0</ele>
        <time>2018-05-26T10:53:27.713Z</time>
      </trkpt>
      <trkpt lat="40.73937833" lon="-4.14047333">
        <ele>1379.0</ele>
        <time>2018-05-26T10:53:28.709Z</time>
      </trkpt>
      <trkpt lat="40.739495" lon="-4.140545">
        <ele>1377.0</ele>
        <time>2018-05-26T10:53:29.711Z</time>
      </trkpt>
      <trkpt lat="40.73955333" lon="-4.14057667">
        <ele>1376.0</ele>
        <time>2018-05-26T10:53:30.693Z</time>
      </trkpt>
      <trkpt lat="40.73955333" lon="-4.14057667">
        <ele>1376.0</ele>
        <time>2018-05-26T10:53:31.684Z</time>
      </trkpt>
      <trkpt lat="40.739665" lon="-4.140645">
        <ele>1375.0</ele>
        <time>2018-05-26T10:53:32.713Z</time>
      </trkpt>
      <trkpt lat="40.73972167" lon="-4.14067333">
        <ele>1374.0</ele>
        <time>2018-05-26T10:53:33.711Z</time>
      </trkpt>
      <trkpt lat="40.73978" lon="-4.14069667">
        <ele>1374.0</ele>
        <time>2018-05-26T10:53:34.695Z</time>
      </trkpt>
      <trkpt lat="40.73978" lon="-4.14069667">
        <ele>1374.0</ele>
        <time>2018-05-26T10:53:35.693Z</time>
      </trkpt>
      <trkpt lat="40.739905" lon="-4.140705">
        <ele>1373.0</ele>
        <time>2018-05-26T10:53:36.683Z</time>
      </trkpt>
      <trkpt lat="40.73996833" lon="-4.14069333">
        <ele>1372.0</ele>
        <time>2018-05-26T10:53:37.714Z</time>
      </trkpt>
      <trkpt lat="40.73996833" lon="-4.14069333">
        <ele>1372.0</ele>
        <time>2018-05-26T10:53:38.709Z</time>
      </trkpt>
      <trkpt lat="40.74009167" lon="-4.14065167">
        <ele>1372.0</ele>
        <time>2018-05-26T10:53:39.682Z</time>
      </trkpt>
      <trkpt lat="40.74009167" lon="-4.14065167">
        <ele>1372.0</ele>
        <time>2018-05-26T10:53:40.712Z</time>
      </trkpt>
      <trkpt lat="40.74021667" lon="-4.140595">
        <ele>1372.0</ele>
        <time>2018-05-26T10:53:41.710Z</time>
      </trkpt>
      <trkpt lat="40.74021667" lon="-4.140595">
        <ele>1372.0</ele>
        <time>2018-05-26T10:53:42.706Z</time>
      </trkpt>
      <trkpt lat="40.74033833" lon="-4.14055">
        <ele>1371.0</ele>
        <time>2018-05-26T10:53:43.713Z</time>
      </trkpt>
      <trkpt lat="40.74033833" lon="-4.14055">
        <ele>1371.0</ele>
        <time>2018-05-26T10:53:44.710Z</time>
      </trkpt>
      <trkpt lat="40.74045167" lon="-4.14050333">
        <ele>1370.0</ele>
        <time>2018-05-26T10:53:45.709Z</time>
      </trkpt>
      <trkpt lat="40.74045167" lon="-4.14050333">
        <ele>1370.0</ele>
        <time>2018-05-26T10:53:46.708Z</time>
      </trkpt>
      <trkpt lat="40.740565" lon="-4.14045333">
        <ele>1369.0</ele>
        <time>2018-05-26T10:53:47.711Z</time>
      </trkpt>
      <trkpt lat="40.740565" lon="-4.14045333">
        <ele>1369.0</ele>
        <time>2018-05-26T10:53:48.709Z</time>
      </trkpt>
      <trkpt lat="40.74067833" lon="-4.14040167">
        <ele>1368.0</ele>
        <time>2018-05-26T10:53:49.677Z</time>
      </trkpt>
      <trkpt lat="40.74067833" lon="-4.14040167">
        <ele>1368.0</ele>
        <time>2018-05-26T10:53:50.709Z</time>
      </trkpt>
      <trkpt lat="40.74079333" lon="-4.14034333">
        <ele>1367.0</ele>
        <time>2018-05-26T10:53:51.711Z</time>
      </trkpt>
      <trkpt lat="40.74079333" lon="-4.14034333">
        <ele>1367.0</ele>
        <time>2018-05-26T10:53:52.709Z</time>
      </trkpt>
      <trkpt lat="40.74089667" lon="-4.140295">
        <ele>1367.0</ele>
        <time>2018-05-26T10:53:53.710Z</time>
      </trkpt>
      <trkpt lat="40.74089667" lon="-4.140295">
        <ele>1367.0</ele>
        <time>2018-05-26T10:53:54.708Z</time>
      </trkpt>
      <trkpt lat="40.741" lon="-4.14025">
        <ele>1368.0</ele>
        <time>2018-05-26T10:53:55.713Z</time>
      </trkpt>
      <trkpt lat="40.741" lon="-4.14025">
        <ele>1368.0</ele>
        <time>2018-05-26T10:53:56.709Z</time>
      </trkpt>
      <trkpt lat="40.741105" lon="-4.140205">
        <ele>1368.0</ele>
        <time>2018-05-26T10:53:57.712Z</time>
      </trkpt>
      <trkpt lat="40.741105" lon="-4.140205">
        <ele>1368.0</ele>
        <time>2018-05-26T10:53:58.683Z</time>
      </trkpt>
      <trkpt lat="40.741205" lon="-4.140155">
        <ele>1369.0</ele>
        <time>2018-05-26T10:53:59.681Z</time>
      </trkpt>
      <trkpt lat="40.741205" lon="-4.140155">
        <ele>1369.0</ele>
        <time>2018-05-26T10:54:00.677Z</time>
      </trkpt>
      <trkpt lat="40.74129833" lon="-4.14011333">
        <ele>1369.0</ele>
        <time>2018-05-26T10:54:01.713Z</time>
      </trkpt>
      <trkpt lat="40.74129833" lon="-4.14011333">
        <ele>1369.0</ele>
        <time>2018-05-26T10:54:02.707Z</time>
      </trkpt>
      <trkpt lat="40.74137667" lon="-4.14007667">
        <ele>1369.0</ele>
        <time>2018-05-26T10:54:03.681Z</time>
      </trkpt>
      <trkpt lat="40.74137667" lon="-4.14007667">
        <ele>1369.0</ele>
        <time>2018-05-26T10:54:04.711Z</time>
      </trkpt>
      <trkpt lat="40.74144167" lon="-4.14004667">
        <ele>1370.0</ele>
        <time>2018-05-26T10:54:05.712Z</time>
      </trkpt>
      <trkpt lat="40.74144167" lon="-4.14004667">
        <ele>1370.0</ele>
        <time>2018-05-26T10:54:06.709Z</time>
      </trkpt>
      <trkpt lat="40.741495" lon="-4.14001333">
        <ele>1370.0</ele>
        <time>2018-05-26T10:54:07.713Z</time>
      </trkpt>
      <trkpt lat="40.741495" lon="-4.14001333">
        <ele>1370.0</ele>
        <time>2018-05-26T10:54:08.712Z</time>
      </trkpt>
      <trkpt lat="40.74152333" lon="-4.14001167">
        <ele>1370.0</ele>
        <time>2018-05-26T10:54:09.678Z</time>
      </trkpt>
      <trkpt lat="40.74152333" lon="-4.14001167">
        <ele>1370.0</ele>
        <time>2018-05-26T10:54:10.710Z</time>
      </trkpt>
      <trkpt lat="40.74152833" lon="-4.14001167">
        <ele>1370.0</ele>
        <time>2018-05-26T10:54:11.711Z</time>
      </trkpt>
      <trkpt lat="40.74152833" lon="-4.14001167">
        <ele>1370.0</ele>
        <time>2018-05-26T10:54:12.692Z</time>
      </trkpt>
      <trkpt lat="40.74156333" lon="-4.14001667">
        <ele>1370.0</ele>
        <time>2018-05-26T10:54:13.695Z</time>
      </trkpt>
      <trkpt lat="40.74156333" lon="-4.14001667">
        <ele>1370.0</ele>
        <time>2018-05-26T10:54:14.699Z</time>
      </trkpt>
      <trkpt lat="40.74156667" lon="-4.14001167">
        <ele>1370.0</ele>
        <time>2018-05-26T10:54:15.679Z</time>
      </trkpt>
      <trkpt lat="40.741515" lon="-4.13995167">
        <ele>1368.0</ele>
        <time>2018-05-26T10:54:16.680Z</time>
      </trkpt>
      <trkpt lat="40.741515" lon="-4.13995167">
        <ele>1368.0</ele>
        <time>2018-05-26T10:54:17.680Z</time>
      </trkpt>
      <trkpt lat="40.741505" lon="-4.139985">
        <ele>1368.0</ele>
        <time>2018-05-26T10:54:18.682Z</time>
      </trkpt>
      <trkpt lat="40.74149833" lon="-4.14000333">
        <ele>1368.0</ele>
        <time>2018-05-26T10:54:19.680Z</time>
      </trkpt>
      <trkpt lat="40.74149833" lon="-4.14000333">
        <ele>1368.0</ele>
        <time>2018-05-26T10:54:20.681Z</time>
      </trkpt>
      <trkpt lat="40.741485" lon="-4.14009333">
        <ele>1368.0</ele>
        <time>2018-05-26T10:54:21.682Z</time>
      </trkpt>
      <trkpt lat="40.74147" lon="-4.14014833">
        <ele>1369.0</ele>
        <time>2018-05-26T10:54:22.682Z</time>
      </trkpt>
      <trkpt lat="40.74147" lon="-4.14014833">
        <ele>1369.0</ele>
        <time>2018-05-26T10:54:23.677Z</time>
      </trkpt>
      <trkpt lat="40.74145" lon="-4.140315">
        <ele>1369.0</ele>
        <time>2018-05-26T10:54:24.682Z</time>
      </trkpt>
      <trkpt lat="40.74145" lon="-4.140315">
        <ele>1369.0</ele>
        <time>2018-05-26T10:54:25.693Z</time>
      </trkpt>
      <trkpt lat="40.74142333" lon="-4.140485">
        <ele>1369.0</ele>
        <time>2018-05-26T10:54:26.683Z</time>
      </trkpt>
      <trkpt lat="40.74142333" lon="-4.140485">
        <ele>1369.0</ele>
        <time>2018-05-26T10:54:27.679Z</time>
      </trkpt>
      <trkpt lat="40.7414" lon="-4.14063167">
        <ele>1370.0</ele>
        <time>2018-05-26T10:54:28.683Z</time>
      </trkpt>
      <trkpt lat="40.7414" lon="-4.14063167">
        <ele>1370.0</ele>
        <time>2018-05-26T10:54:29.679Z</time>
      </trkpt>
      <trkpt lat="40.74139667" lon="-4.14079167">
        <ele>1370.0</ele>
        <time>2018-05-26T10:54:30.682Z</time>
      </trkpt>
      <trkpt lat="40.74140833" lon="-4.140875">
        <ele>1370.0</ele>
        <time>2018-05-26T10:54:31.682Z</time>
      </trkpt>
      <trkpt lat="40.74143" lon="-4.14096167">
        <ele>1370.0</ele>
        <time>2018-05-26T10:54:32.700Z</time>
      </trkpt>
      <trkpt lat="40.74145" lon="-4.141045">
        <ele>1370.0</ele>
        <time>2018-05-26T10:54:33.690Z</time>
      </trkpt>
      <trkpt lat="40.74145" lon="-4.141045">
        <ele>1370.0</ele>
        <time>2018-05-26T10:54:34.679Z</time>
      </trkpt>
      <trkpt lat="40.741505" lon="-4.14120833">
        <ele>1369.0</ele>
        <time>2018-05-26T10:54:35.682Z</time>
      </trkpt>
      <trkpt lat="40.74153833" lon="-4.14128667">
        <ele>1369.0</ele>
        <time>2018-05-26T10:54:36.682Z</time>
      </trkpt>
      <trkpt lat="40.74153833" lon="-4.14128667">
        <ele>1369.0</ele>
        <time>2018-05-26T10:54:37.677Z</time>
      </trkpt>
      <trkpt lat="40.74160833" lon="-4.14145667">
        <ele>1368.0</ele>
        <time>2018-05-26T10:54:38.683Z</time>
      </trkpt>
      <trkpt lat="40.74160833" lon="-4.14145667">
        <ele>1368.0</ele>
        <time>2018-05-26T10:54:39.679Z</time>
      </trkpt>
      <trkpt lat="40.741685" lon="-4.14164167">
        <ele>1367.0</ele>
        <time>2018-05-26T10:54:40.681Z</time>
      </trkpt>
      <trkpt lat="40.74172333" lon="-4.14173167">
        <ele>1366.0</ele>
        <time>2018-05-26T10:54:41.682Z</time>
      </trkpt>
      <trkpt lat="40.74172333" lon="-4.14173167">
        <ele>1366.0</ele>
        <time>2018-05-26T10:54:42.677Z</time>
      </trkpt>
      <trkpt lat="40.74181333" lon="-4.14191333">
        <ele>1366.0</ele>
        <time>2018-05-26T10:54:43.682Z</time>
      </trkpt>
      <trkpt lat="40.74181333" lon="-4.14191333">
        <ele>1366.0</ele>
        <time>2018-05-26T10:54:44.682Z</time>
      </trkpt>
      <trkpt lat="40.74190333" lon="-4.1421">
        <ele>1365.0</ele>
        <time>2018-05-26T10:54:45.682Z</time>
      </trkpt>
      <trkpt lat="40.74193833" lon="-4.14219833">
        <ele>1364.0</ele>
        <time>2018-05-26T10:54:46.680Z</time>
      </trkpt>
      <trkpt lat="40.74193833" lon="-4.14219833">
        <ele>1364.0</ele>
        <time>2018-05-26T10:54:47.679Z</time>
      </trkpt>
      <trkpt lat="40.742005" lon="-4.14240167">
        <ele>1364.0</ele>
        <time>2018-05-26T10:54:48.708Z</time>
      </trkpt>
      <trkpt lat="40.742005" lon="-4.14240167">
        <ele>1364.0</ele>
        <time>2018-05-26T10:54:49.680Z</time>
      </trkpt>
      <trkpt lat="40.74207" lon="-4.14260167">
        <ele>1363.0</ele>
        <time>2018-05-26T10:54:50.680Z</time>
      </trkpt>
      <trkpt lat="40.74210667" lon="-4.14270333">
        <ele>1363.0</ele>
        <time>2018-05-26T10:54:51.682Z</time>
      </trkpt>
      <trkpt lat="40.74214667" lon="-4.14279333">
        <ele>1362.0</ele>
        <time>2018-05-26T10:54:52.682Z</time>
      </trkpt>
      <trkpt lat="40.74214667" lon="-4.14279333">
        <ele>1362.0</ele>
        <time>2018-05-26T10:54:53.679Z</time>
      </trkpt>
      <trkpt lat="40.74222167" lon="-4.142965">
        <ele>1361.0</ele>
        <time>2018-05-26T10:54:54.682Z</time>
      </trkpt>
      <trkpt lat="40.74222167" lon="-4.142965">
        <ele>1361.0</ele>
        <time>2018-05-26T10:54:55.677Z</time>
      </trkpt>
      <trkpt lat="40.74231" lon="-4.14313667">
        <ele>1360.0</ele>
        <time>2018-05-26T10:54:56.683Z</time>
      </trkpt>
      <trkpt lat="40.74231" lon="-4.14313667">
        <ele>1360.0</ele>
        <time>2018-05-26T10:54:57.679Z</time>
      </trkpt>
      <trkpt lat="40.742405" lon="-4.14331">
        <ele>1359.0</ele>
        <time>2018-05-26T10:54:58.682Z</time>
      </trkpt>
      <trkpt lat="40.742405" lon="-4.14331">
        <ele>1359.0</ele>
        <time>2018-05-26T10:54:59.679Z</time>
      </trkpt>
      <trkpt lat="40.74248667" lon="-4.14347">
        <ele>1358.0</ele>
        <time>2018-05-26T10:55:00.679Z</time>
      </trkpt>
      <trkpt lat="40.74254333" lon="-4.143535">
        <ele>1357.0</ele>
        <time>2018-05-26T10:55:01.682Z</time>
      </trkpt>
      <trkpt lat="40.74259667" lon="-4.14360833">
        <ele>1356.0</ele>
        <time>2018-05-26T10:55:02.684Z</time>
      </trkpt>
      <trkpt lat="40.74259667" lon="-4.14360833">
        <ele>1356.0</ele>
        <time>2018-05-26T10:55:03.680Z</time>
      </trkpt>
      <trkpt lat="40.74271" lon="-4.14372667">
        <ele>1355.0</ele>
        <time>2018-05-26T10:55:04.680Z</time>
      </trkpt>
      <trkpt lat="40.74271" lon="-4.14372667">
        <ele>1355.0</ele>
        <time>2018-05-26T10:55:05.677Z</time>
      </trkpt>
      <trkpt lat="40.74280833" lon="-4.14380833">
        <ele>1353.0</ele>
        <time>2018-05-26T10:55:06.681Z</time>
      </trkpt>
      <trkpt lat="40.74284667" lon="-4.143835">
        <ele>1352.0</ele>
        <time>2018-05-26T10:55:07.682Z</time>
      </trkpt>
      <trkpt lat="40.74286667" lon="-4.14384667">
        <ele>1352.0</ele>
        <time>2018-05-26T10:55:08.697Z</time>
      </trkpt>
      <trkpt lat="40.74286667" lon="-4.14384667">
        <ele>1352.0</ele>
        <time>2018-05-26T10:55:09.694Z</time>
      </trkpt>
      <trkpt lat="40.74290667" lon="-4.14388833">
        <ele>1350.0</ele>
        <time>2018-05-26T10:55:10.684Z</time>
      </trkpt>
      <trkpt lat="40.74293333" lon="-4.14391">
        <ele>1349.0</ele>
        <time>2018-05-26T10:55:11.682Z</time>
      </trkpt>
      <trkpt lat="40.74293333" lon="-4.14391">
        <ele>1349.0</ele>
        <time>2018-05-26T10:55:12.680Z</time>
      </trkpt>
      <trkpt lat="40.74302667" lon="-4.14396833">
        <ele>1348.0</ele>
        <time>2018-05-26T10:55:13.688Z</time>
      </trkpt>
      <trkpt lat="40.74307" lon="-4.14400167">
        <ele>1347.0</ele>
        <time>2018-05-26T10:55:14.697Z</time>
      </trkpt>
      <trkpt lat="40.74307" lon="-4.14400167">
        <ele>1347.0</ele>
        <time>2018-05-26T10:55:15.694Z</time>
      </trkpt>
      <trkpt lat="40.74315667" lon="-4.14406833">
        <ele>1346.0</ele>
        <time>2018-05-26T10:55:16.686Z</time>
      </trkpt>
      <trkpt lat="40.74315667" lon="-4.14406833">
        <ele>1346.0</ele>
        <time>2018-05-26T10:55:17.679Z</time>
      </trkpt>
      <trkpt lat="40.74325333" lon="-4.14413167">
        <ele>1344.0</ele>
        <time>2018-05-26T10:55:18.682Z</time>
      </trkpt>
      <trkpt lat="40.74325333" lon="-4.14413167">
        <ele>1344.0</ele>
        <time>2018-05-26T10:55:19.679Z</time>
      </trkpt>
      <trkpt lat="40.74336833" lon="-4.14420167">
        <ele>1343.0</ele>
        <time>2018-05-26T10:55:20.684Z</time>
      </trkpt>
      <trkpt lat="40.74336833" lon="-4.14420167">
        <ele>1343.0</ele>
        <time>2018-05-26T10:55:21.679Z</time>
      </trkpt>
      <trkpt lat="40.74346167" lon="-4.14425333">
        <ele>1341.0</ele>
        <time>2018-05-26T10:55:22.680Z</time>
      </trkpt>
      <trkpt lat="40.74346167" lon="-4.14425333">
        <ele>1341.0</ele>
        <time>2018-05-26T10:55:23.679Z</time>
      </trkpt>
      <trkpt lat="40.74360167" lon="-4.14433">
        <ele>1340.0</ele>
        <time>2018-05-26T10:55:24.683Z</time>
      </trkpt>
      <trkpt lat="40.74367" lon="-4.14438667">
        <ele>1339.0</ele>
        <time>2018-05-26T10:55:25.683Z</time>
      </trkpt>
      <trkpt lat="40.74374167" lon="-4.14444167">
        <ele>1338.0</ele>
        <time>2018-05-26T10:55:26.683Z</time>
      </trkpt>
      <trkpt lat="40.74374167" lon="-4.14444167">
        <ele>1338.0</ele>
        <time>2018-05-26T10:55:27.680Z</time>
      </trkpt>
      <trkpt lat="40.74386833" lon="-4.14454167">
        <ele>1336.0</ele>
        <time>2018-05-26T10:55:28.682Z</time>
      </trkpt>
      <trkpt lat="40.74386833" lon="-4.14454167">
        <ele>1336.0</ele>
        <time>2018-05-26T10:55:29.677Z</time>
      </trkpt>
      <trkpt lat="40.743975" lon="-4.14463167">
        <ele>1335.0</ele>
        <time>2018-05-26T10:55:30.682Z</time>
      </trkpt>
      <trkpt lat="40.74402667" lon="-4.14467">
        <ele>1334.0</ele>
        <time>2018-05-26T10:55:31.683Z</time>
      </trkpt>
      <trkpt lat="40.74407833" lon="-4.14471">
        <ele>1333.0</ele>
        <time>2018-05-26T10:55:32.683Z</time>
      </trkpt>
      <trkpt lat="40.74407833" lon="-4.14471">
        <ele>1333.0</ele>
        <time>2018-05-26T10:55:33.677Z</time>
      </trkpt>
      <trkpt lat="40.74418667" lon="-4.14476833">
        <ele>1331.0</ele>
        <time>2018-05-26T10:55:34.680Z</time>
      </trkpt>
      <trkpt lat="40.74418667" lon="-4.14476833">
        <ele>1331.0</ele>
        <time>2018-05-26T10:55:35.679Z</time>
      </trkpt>
      <trkpt lat="40.74429667" lon="-4.14483667">
        <ele>1330.0</ele>
        <time>2018-05-26T10:55:36.682Z</time>
      </trkpt>
      <trkpt lat="40.74435667" lon="-4.14488167">
        <ele>1329.0</ele>
        <time>2018-05-26T10:55:37.680Z</time>
      </trkpt>
      <trkpt lat="40.74435667" lon="-4.14488167">
        <ele>1329.0</ele>
        <time>2018-05-26T10:55:38.681Z</time>
      </trkpt>
      <trkpt lat="40.74448667" lon="-4.14496333">
        <ele>1327.0</ele>
        <time>2018-05-26T10:55:39.682Z</time>
      </trkpt>
      <trkpt lat="40.74454833" lon="-4.14499833">
        <ele>1326.0</ele>
        <time>2018-05-26T10:55:40.682Z</time>
      </trkpt>
      <trkpt lat="40.74454833" lon="-4.14499833">
        <ele>1326.0</ele>
        <time>2018-05-26T10:55:41.684Z</time>
      </trkpt>
      <trkpt lat="40.74462" lon="-4.14503833">
        <ele>1325.0</ele>
        <time>2018-05-26T10:55:42.682Z</time>
      </trkpt>
      <trkpt lat="40.74462" lon="-4.14503833">
        <ele>1325.0</ele>
        <time>2018-05-26T10:55:43.680Z</time>
      </trkpt>
      <trkpt lat="40.74469667" lon="-4.145095">
        <ele>1323.0</ele>
        <time>2018-05-26T10:55:44.683Z</time>
      </trkpt>
      <trkpt lat="40.74469667" lon="-4.145095">
        <ele>1323.0</ele>
        <time>2018-05-26T10:55:45.679Z</time>
      </trkpt>
      <trkpt lat="40.74481" lon="-4.145185">
        <ele>1321.0</ele>
        <time>2018-05-26T10:55:46.679Z</time>
      </trkpt>
      <trkpt lat="40.74481" lon="-4.145185">
        <ele>1321.0</ele>
        <time>2018-05-26T10:55:47.679Z</time>
      </trkpt>
      <trkpt lat="40.74493167" lon="-4.14527333">
        <ele>1319.0</ele>
        <time>2018-05-26T10:55:48.682Z</time>
      </trkpt>
      <trkpt lat="40.74493167" lon="-4.14527333">
        <ele>1319.0</ele>
        <time>2018-05-26T10:55:49.679Z</time>
      </trkpt>
      <trkpt lat="40.74504833" lon="-4.14535833">
        <ele>1317.0</ele>
        <time>2018-05-26T10:55:50.683Z</time>
      </trkpt>
      <trkpt lat="40.74504833" lon="-4.14535833">
        <ele>1317.0</ele>
        <time>2018-05-26T10:55:51.680Z</time>
      </trkpt>
      <trkpt lat="40.74515333" lon="-4.145435">
        <ele>1315.0</ele>
        <time>2018-05-26T10:55:52.707Z</time>
      </trkpt>
      <trkpt lat="40.74515333" lon="-4.145435">
        <ele>1315.0</ele>
        <time>2018-05-26T10:55:53.698Z</time>
      </trkpt>
      <trkpt lat="40.74524" lon="-4.145505">
        <ele>1313.0</ele>
        <time>2018-05-26T10:55:54.687Z</time>
      </trkpt>
      <trkpt lat="40.74524" lon="-4.145505">
        <ele>1313.0</ele>
        <time>2018-05-26T10:55:55.678Z</time>
      </trkpt>
      <trkpt lat="40.74534167" lon="-4.14560333">
        <ele>1310.0</ele>
        <time>2018-05-26T10:55:56.683Z</time>
      </trkpt>
      <trkpt lat="40.74534167" lon="-4.14560333">
        <ele>1310.0</ele>
        <time>2018-05-26T10:55:57.683Z</time>
      </trkpt>
      <trkpt lat="40.74543333" lon="-4.14571333">
        <ele>1308.0</ele>
        <time>2018-05-26T10:55:58.680Z</time>
      </trkpt>
      <trkpt lat="40.74543333" lon="-4.14571333">
        <ele>1308.0</ele>
        <time>2018-05-26T10:55:59.677Z</time>
      </trkpt>
      <trkpt lat="40.745545" lon="-4.14581167">
        <ele>1306.0</ele>
        <time>2018-05-26T10:56:00.682Z</time>
      </trkpt>
      <trkpt lat="40.74560667" lon="-4.14587667">
        <ele>1305.0</ele>
        <time>2018-05-26T10:56:01.682Z</time>
      </trkpt>
      <trkpt lat="40.74567" lon="-4.145955">
        <ele>1304.0</ele>
        <time>2018-05-26T10:56:02.683Z</time>
      </trkpt>
      <trkpt lat="40.74567" lon="-4.145955">
        <ele>1304.0</ele>
        <time>2018-05-26T10:56:03.680Z</time>
      </trkpt>
      <trkpt lat="40.74580333" lon="-4.14611">
        <ele>1301.0</ele>
        <time>2018-05-26T10:56:04.680Z</time>
      </trkpt>
      <trkpt lat="40.74580333" lon="-4.14611">
        <ele>1301.0</ele>
        <time>2018-05-26T10:56:05.680Z</time>
      </trkpt>
      <trkpt lat="40.74594" lon="-4.14622833">
        <ele>1299.0</ele>
        <time>2018-05-26T10:56:06.682Z</time>
      </trkpt>
      <trkpt lat="40.74594" lon="-4.14622833">
        <ele>1299.0</ele>
        <time>2018-05-26T10:56:07.679Z</time>
      </trkpt>
      <trkpt lat="40.74610667" lon="-4.14633333">
        <ele>1296.0</ele>
        <time>2018-05-26T10:56:08.695Z</time>
      </trkpt>
      <trkpt lat="40.74618" lon="-4.14638333">
        <ele>1294.0</ele>
        <time>2018-05-26T10:56:09.694Z</time>
      </trkpt>
      <trkpt lat="40.74618" lon="-4.14638333">
        <ele>1294.0</ele>
        <time>2018-05-26T10:56:10.684Z</time>
      </trkpt>
      <trkpt lat="40.746315" lon="-4.14649">
        <ele>1292.0</ele>
        <time>2018-05-26T10:56:11.682Z</time>
      </trkpt>
      <trkpt lat="40.746315" lon="-4.14649">
        <ele>1292.0</ele>
        <time>2018-05-26T10:56:12.680Z</time>
      </trkpt>
      <trkpt lat="40.74642833" lon="-4.146615">
        <ele>1290.0</ele>
        <time>2018-05-26T10:56:13.682Z</time>
      </trkpt>
      <trkpt lat="40.74648833" lon="-4.14667">
        <ele>1289.0</ele>
        <time>2018-05-26T10:56:14.687Z</time>
      </trkpt>
      <trkpt lat="40.74648833" lon="-4.14667">
        <ele>1289.0</ele>
        <time>2018-05-26T10:56:15.694Z</time>
      </trkpt>
      <trkpt lat="40.74655333" lon="-4.14677833">
        <ele>1286.0</ele>
        <time>2018-05-26T10:56:16.684Z</time>
      </trkpt>
      <trkpt lat="40.74655333" lon="-4.14677833">
        <ele>1286.0</ele>
        <time>2018-05-26T10:56:17.679Z</time>
      </trkpt>
      <trkpt lat="40.74656833" lon="-4.14691">
        <ele>1284.0</ele>
        <time>2018-05-26T10:56:18.682Z</time>
      </trkpt>
      <trkpt lat="40.74657167" lon="-4.14697167">
        <ele>1284.0</ele>
        <time>2018-05-26T10:56:19.682Z</time>
      </trkpt>
      <trkpt lat="40.74657333" lon="-4.14703">
        <ele>1283.0</ele>
        <time>2018-05-26T10:56:20.684Z</time>
      </trkpt>
      <trkpt lat="40.74657333" lon="-4.14703">
        <ele>1283.0</ele>
        <time>2018-05-26T10:56:21.680Z</time>
      </trkpt>
      <trkpt lat="40.74661333" lon="-4.14713833">
        <ele>1281.0</ele>
        <time>2018-05-26T10:56:22.679Z</time>
      </trkpt>
      <trkpt lat="40.74661333" lon="-4.14713833">
        <ele>1281.0</ele>
        <time>2018-05-26T10:56:23.679Z</time>
      </trkpt>
      <trkpt lat="40.74669833" lon="-4.147245">
        <ele>1279.0</ele>
        <time>2018-05-26T10:56:24.682Z</time>
      </trkpt>
      <trkpt lat="40.74669833" lon="-4.147245">
        <ele>1279.0</ele>
        <time>2018-05-26T10:56:25.686Z</time>
      </trkpt>
      <trkpt lat="40.746805" lon="-4.14736">
        <ele>1276.0</ele>
        <time>2018-05-26T10:56:26.683Z</time>
      </trkpt>
      <trkpt lat="40.746805" lon="-4.14736">
        <ele>1276.0</ele>
        <time>2018-05-26T10:56:27.679Z</time>
      </trkpt>
      <trkpt lat="40.746935" lon="-4.14747167">
        <ele>1275.0</ele>
        <time>2018-05-26T10:56:28.682Z</time>
      </trkpt>
      <trkpt lat="40.746935" lon="-4.14747167">
        <ele>1275.0</ele>
        <time>2018-05-26T10:56:29.677Z</time>
      </trkpt>
      <trkpt lat="40.74707167" lon="-4.14757167">
        <ele>1273.0</ele>
        <time>2018-05-26T10:56:30.682Z</time>
      </trkpt>
      <trkpt lat="40.74713667" lon="-4.14760667">
        <ele>1273.0</ele>
        <time>2018-05-26T10:56:31.682Z</time>
      </trkpt>
      <trkpt lat="40.74720167" lon="-4.147625">
        <ele>1272.0</ele>
        <time>2018-05-26T10:56:32.684Z</time>
      </trkpt>
      <trkpt lat="40.74720167" lon="-4.147625">
        <ele>1272.0</ele>
        <time>2018-05-26T10:56:33.679Z</time>
      </trkpt>
      <trkpt lat="40.747315" lon="-4.14762">
        <ele>1271.0</ele>
        <time>2018-05-26T10:56:34.680Z</time>
      </trkpt>
      <trkpt lat="40.747315" lon="-4.14762">
        <ele>1271.0</ele>
        <time>2018-05-26T10:56:35.694Z</time>
      </trkpt>
      <trkpt lat="40.747385" lon="-4.14756333">
        <ele>1270.0</ele>
        <time>2018-05-26T10:56:36.686Z</time>
      </trkpt>
      <trkpt lat="40.747385" lon="-4.14756333">
        <ele>1270.0</ele>
        <time>2018-05-26T10:56:37.680Z</time>
      </trkpt>
      <trkpt lat="40.74739167" lon="-4.14748167">
        <ele>1269.0</ele>
        <time>2018-05-26T10:56:38.684Z</time>
      </trkpt>
      <trkpt lat="40.74739167" lon="-4.14748167">
        <ele>1269.0</ele>
        <time>2018-05-26T10:56:39.680Z</time>
      </trkpt>
      <trkpt lat="40.74736" lon="-4.14738833">
        <ele>1268.0</ele>
        <time>2018-05-26T10:56:40.681Z</time>
      </trkpt>
      <trkpt lat="40.74736" lon="-4.14738833">
        <ele>1268.0</ele>
        <time>2018-05-26T10:56:41.714Z</time>
      </trkpt>
      <trkpt lat="40.74732667" lon="-4.14729">
        <ele>1267.0</ele>
        <time>2018-05-26T10:56:42.683Z</time>
      </trkpt>
      <trkpt lat="40.747315" lon="-4.14724">
        <ele>1267.0</ele>
        <time>2018-05-26T10:56:43.683Z</time>
      </trkpt>
      <trkpt lat="40.747315" lon="-4.14724">
        <ele>1267.0</ele>
        <time>2018-05-26T10:56:44.681Z</time>
      </trkpt>
      <trkpt lat="40.74728667" lon="-4.147125">
        <ele>1267.0</ele>
        <time>2018-05-26T10:56:45.683Z</time>
      </trkpt>
      <trkpt lat="40.74728333" lon="-4.14706833">
        <ele>1266.0</ele>
        <time>2018-05-26T10:56:46.684Z</time>
      </trkpt>
      <trkpt lat="40.74728333" lon="-4.14706833">
        <ele>1266.0</ele>
        <time>2018-05-26T10:56:47.678Z</time>
      </trkpt>
      <trkpt lat="40.74727333" lon="-4.14695333">
        <ele>1266.0</ele>
        <time>2018-05-26T10:56:48.682Z</time>
      </trkpt>
      <trkpt lat="40.74727333" lon="-4.14695333">
        <ele>1266.0</ele>
        <time>2018-05-26T10:56:49.680Z</time>
      </trkpt>
      <trkpt lat="40.747255" lon="-4.14685">
        <ele>1265.0</ele>
        <time>2018-05-26T10:56:50.684Z</time>
      </trkpt>
      <trkpt lat="40.747255" lon="-4.14685">
        <ele>1265.0</ele>
        <time>2018-05-26T10:56:51.715Z</time>
      </trkpt>
      <trkpt lat="40.74725333" lon="-4.14671833">
        <ele>1265.0</ele>
        <time>2018-05-26T10:56:52.683Z</time>
      </trkpt>
      <trkpt lat="40.74725333" lon="-4.14671833">
        <ele>1265.0</ele>
        <time>2018-05-26T10:56:53.680Z</time>
      </trkpt>
      <trkpt lat="40.74722667" lon="-4.14658">
        <ele>1265.0</ele>
        <time>2018-05-26T10:56:54.682Z</time>
      </trkpt>
      <trkpt lat="40.74722667" lon="-4.14658">
        <ele>1265.0</ele>
        <time>2018-05-26T10:56:55.679Z</time>
      </trkpt>
      <trkpt lat="40.74718833" lon="-4.14642333">
        <ele>1265.0</ele>
        <time>2018-05-26T10:56:56.684Z</time>
      </trkpt>
      <trkpt lat="40.74718833" lon="-4.14642333">
        <ele>1265.0</ele>
        <time>2018-05-26T10:56:57.680Z</time>
      </trkpt>
      <trkpt lat="40.74718333" lon="-4.14626667">
        <ele>1265.0</ele>
        <time>2018-05-26T10:56:58.683Z</time>
      </trkpt>
      <trkpt lat="40.74718333" lon="-4.14626667">
        <ele>1265.0</ele>
        <time>2018-05-26T10:56:59.680Z</time>
      </trkpt>
      <trkpt lat="40.74719333" lon="-4.14612167">
        <ele>1264.0</ele>
        <time>2018-05-26T10:57:00.682Z</time>
      </trkpt>
      <trkpt lat="40.74719333" lon="-4.14612167">
        <ele>1264.0</ele>
        <time>2018-05-26T10:57:01.691Z</time>
      </trkpt>
      <trkpt lat="40.74721833" lon="-4.14596167">
        <ele>1264.0</ele>
        <time>2018-05-26T10:57:02.683Z</time>
      </trkpt>
      <trkpt lat="40.74721833" lon="-4.14596167">
        <ele>1264.0</ele>
        <time>2018-05-26T10:57:03.680Z</time>
      </trkpt>
      <trkpt lat="40.747255" lon="-4.145805">
        <ele>1264.0</ele>
        <time>2018-05-26T10:57:04.683Z</time>
      </trkpt>
      <trkpt lat="40.747255" lon="-4.145805">
        <ele>1264.0</ele>
        <time>2018-05-26T10:57:05.680Z</time>
      </trkpt>
      <trkpt lat="40.747295" lon="-4.145655">
        <ele>1264.0</ele>
        <time>2018-05-26T10:57:06.683Z</time>
      </trkpt>
      <trkpt lat="40.747295" lon="-4.145655">
        <ele>1264.0</ele>
        <time>2018-05-26T10:57:07.680Z</time>
      </trkpt>
      <trkpt lat="40.74734667" lon="-4.14553167">
        <ele>1264.0</ele>
        <time>2018-05-26T10:57:08.694Z</time>
      </trkpt>
      <trkpt lat="40.74736667" lon="-4.14546333">
        <ele>1264.0</ele>
        <time>2018-05-26T10:57:09.686Z</time>
      </trkpt>
      <trkpt lat="40.74738833" lon="-4.14539333">
        <ele>1264.0</ele>
        <time>2018-05-26T10:57:10.684Z</time>
      </trkpt>
      <trkpt lat="40.74738833" lon="-4.14539333">
        <ele>1264.0</ele>
        <time>2018-05-26T10:57:11.680Z</time>
      </trkpt>
      <trkpt lat="40.74746167" lon="-4.145275">
        <ele>1265.0</ele>
        <time>2018-05-26T10:57:12.682Z</time>
      </trkpt>
      <trkpt lat="40.74746167" lon="-4.145275">
        <ele>1265.0</ele>
        <time>2018-05-26T10:57:13.678Z</time>
      </trkpt>
      <trkpt lat="40.74754" lon="-4.14517333">
        <ele>1265.0</ele>
        <time>2018-05-26T10:57:14.683Z</time>
      </trkpt>
      <trkpt lat="40.74754" lon="-4.14517333">
        <ele>1265.0</ele>
        <time>2018-05-26T10:57:15.680Z</time>
      </trkpt>
      <trkpt lat="40.74762167" lon="-4.145075">
        <ele>1265.0</ele>
        <time>2018-05-26T10:57:16.683Z</time>
      </trkpt>
      <trkpt lat="40.74762167" lon="-4.145075">
        <ele>1265.0</ele>
        <time>2018-05-26T10:57:17.678Z</time>
      </trkpt>
      <trkpt lat="40.74771833" lon="-4.14498833">
        <ele>1265.0</ele>
        <time>2018-05-26T10:57:18.680Z</time>
      </trkpt>
      <trkpt lat="40.74771833" lon="-4.14498833">
        <ele>1265.0</ele>
        <time>2018-05-26T10:57:19.680Z</time>
      </trkpt>
      <trkpt lat="40.74779167" lon="-4.14492167">
        <ele>1265.0</ele>
        <time>2018-05-26T10:57:20.683Z</time>
      </trkpt>
      <trkpt lat="40.74779167" lon="-4.14492167">
        <ele>1265.0</ele>
        <time>2018-05-26T10:57:21.680Z</time>
      </trkpt>
      <trkpt lat="40.74786667" lon="-4.14486833">
        <ele>1265.0</ele>
        <time>2018-05-26T10:57:22.681Z</time>
      </trkpt>
      <trkpt lat="40.74786667" lon="-4.14486833">
        <ele>1265.0</ele>
        <time>2018-05-26T10:57:23.680Z</time>
      </trkpt>
      <trkpt lat="40.747945" lon="-4.14482833">
        <ele>1265.0</ele>
        <time>2018-05-26T10:57:24.682Z</time>
      </trkpt>
      <trkpt lat="40.747945" lon="-4.14482833">
        <ele>1265.0</ele>
        <time>2018-05-26T10:57:25.686Z</time>
      </trkpt>
      <trkpt lat="40.74802167" lon="-4.14481667">
        <ele>1266.0</ele>
        <time>2018-05-26T10:57:26.683Z</time>
      </trkpt>
      <trkpt lat="40.74802167" lon="-4.14481667">
        <ele>1266.0</ele>
        <time>2018-05-26T10:57:27.680Z</time>
      </trkpt>
      <trkpt lat="40.748085" lon="-4.14482">
        <ele>1267.0</ele>
        <time>2018-05-26T10:57:28.683Z</time>
      </trkpt>
      <trkpt lat="40.748085" lon="-4.14482">
        <ele>1267.0</ele>
        <time>2018-05-26T10:57:29.678Z</time>
      </trkpt>
      <trkpt lat="40.74815167" lon="-4.144885">
        <ele>1268.0</ele>
        <time>2018-05-26T10:57:30.682Z</time>
      </trkpt>
      <trkpt lat="40.74815167" lon="-4.144885">
        <ele>1268.0</ele>
        <time>2018-05-26T10:57:31.680Z</time>
      </trkpt>
      <trkpt lat="40.74814333" lon="-4.145">
        <ele>1269.0</ele>
        <time>2018-05-26T10:57:32.693Z</time>
      </trkpt>
      <trkpt lat="40.74814333" lon="-4.145">
        <ele>1269.0</ele>
        <time>2018-05-26T10:57:33.678Z</time>
      </trkpt>
      <trkpt lat="40.74808" lon="-4.14507833">
        <ele>1270.0</ele>
        <time>2018-05-26T10:57:34.680Z</time>
      </trkpt>
      <trkpt lat="40.74808" lon="-4.14507833">
        <ele>1270.0</ele>
        <time>2018-05-26T10:57:35.702Z</time>
      </trkpt>
      <trkpt lat="40.74802167" lon="-4.14515">
        <ele>1271.0</ele>
        <time>2018-05-26T10:57:36.693Z</time>
      </trkpt>
      <trkpt lat="40.74802167" lon="-4.14515">
        <ele>1271.0</ele>
        <time>2018-05-26T10:57:37.677Z</time>
      </trkpt>
      <trkpt lat="40.74795667" lon="-4.14522667">
        <ele>1271.0</ele>
        <time>2018-05-26T10:57:38.684Z</time>
      </trkpt>
      <trkpt lat="40.74795667" lon="-4.14522667">
        <ele>1271.0</ele>
        <time>2018-05-26T10:57:39.680Z</time>
      </trkpt>
      <trkpt lat="40.74791833" lon="-4.145335">
        <ele>1272.0</ele>
        <time>2018-05-26T10:57:40.689Z</time>
      </trkpt>
      <trkpt lat="40.74791833" lon="-4.145335">
        <ele>1272.0</ele>
        <time>2018-05-26T10:57:41.684Z</time>
      </trkpt>
      <trkpt lat="40.74791" lon="-4.14546667">
        <ele>1271.0</ele>
        <time>2018-05-26T10:57:42.683Z</time>
      </trkpt>
      <trkpt lat="40.74791" lon="-4.14546667">
        <ele>1271.0</ele>
        <time>2018-05-26T10:57:43.680Z</time>
      </trkpt>
      <trkpt lat="40.74792667" lon="-4.145625">
        <ele>1272.0</ele>
        <time>2018-05-26T10:57:44.683Z</time>
      </trkpt>
      <trkpt lat="40.74792667" lon="-4.145625">
        <ele>1272.0</ele>
        <time>2018-05-26T10:57:45.677Z</time>
      </trkpt>
      <trkpt lat="40.74794833" lon="-4.14577333">
        <ele>1272.0</ele>
        <time>2018-05-26T10:57:46.684Z</time>
      </trkpt>
      <trkpt lat="40.74794833" lon="-4.14577333">
        <ele>1272.0</ele>
        <time>2018-05-26T10:57:47.680Z</time>
      </trkpt>
      <trkpt lat="40.74797333" lon="-4.14591667">
        <ele>1272.0</ele>
        <time>2018-05-26T10:57:48.683Z</time>
      </trkpt>
      <trkpt lat="40.747985" lon="-4.14598333">
        <ele>1272.0</ele>
        <time>2018-05-26T10:57:49.683Z</time>
      </trkpt>
      <trkpt lat="40.747985" lon="-4.14598333">
        <ele>1272.0</ele>
        <time>2018-05-26T10:57:50.679Z</time>
      </trkpt>
      <trkpt lat="40.74801167" lon="-4.146125">
        <ele>1273.0</ele>
        <time>2018-05-26T10:57:51.682Z</time>
      </trkpt>
      <trkpt lat="40.748025" lon="-4.14619833">
        <ele>1273.0</ele>
        <time>2018-05-26T10:57:52.683Z</time>
      </trkpt>
      <trkpt lat="40.748025" lon="-4.14619833">
        <ele>1273.0</ele>
        <time>2018-05-26T10:57:53.680Z</time>
      </trkpt>
      <trkpt lat="40.74805333" lon="-4.14635333">
        <ele>1273.0</ele>
        <time>2018-05-26T10:57:54.688Z</time>
      </trkpt>
      <trkpt lat="40.74806333" lon="-4.14642667">
        <ele>1274.0</ele>
        <time>2018-05-26T10:57:55.680Z</time>
      </trkpt>
      <trkpt lat="40.74806333" lon="-4.14642667">
        <ele>1274.0</ele>
        <time>2018-05-26T10:57:56.681Z</time>
      </trkpt>
      <trkpt lat="40.748095" lon="-4.14658333">
        <ele>1274.0</ele>
        <time>2018-05-26T10:57:57.682Z</time>
      </trkpt>
      <trkpt lat="40.74811167" lon="-4.146665">
        <ele>1274.0</ele>
        <time>2018-05-26T10:57:58.683Z</time>
      </trkpt>
      <trkpt lat="40.74811167" lon="-4.146665">
        <ele>1274.0</ele>
        <time>2018-05-26T10:57:59.677Z</time>
      </trkpt>
      <trkpt lat="40.74815167" lon="-4.146835">
        <ele>1275.0</ele>
        <time>2018-05-26T10:58:00.682Z</time>
      </trkpt>
      <trkpt lat="40.74815167" lon="-4.146835">
        <ele>1275.0</ele>
        <time>2018-05-26T10:58:01.680Z</time>
      </trkpt>
      <trkpt lat="40.748195" lon="-4.146995">
        <ele>1274.0</ele>
        <time>2018-05-26T10:58:02.683Z</time>
      </trkpt>
      <trkpt lat="40.748195" lon="-4.146995">
        <ele>1274.0</ele>
        <time>2018-05-26T10:58:03.677Z</time>
      </trkpt>
      <trkpt lat="40.74824833" lon="-4.14715333">
        <ele>1274.0</ele>
        <time>2018-05-26T10:58:04.683Z</time>
      </trkpt>
      <trkpt lat="40.74824833" lon="-4.14715333">
        <ele>1274.0</ele>
        <time>2018-05-26T10:58:05.680Z</time>
      </trkpt>
      <trkpt lat="40.74830667" lon="-4.14731167">
        <ele>1274.0</ele>
        <time>2018-05-26T10:58:06.682Z</time>
      </trkpt>
      <trkpt lat="40.74830667" lon="-4.14731167">
        <ele>1274.0</ele>
        <time>2018-05-26T10:58:07.680Z</time>
      </trkpt>
      <trkpt lat="40.74837" lon="-4.147465">
        <ele>1273.0</ele>
        <time>2018-05-26T10:58:08.694Z</time>
      </trkpt>
      <trkpt lat="40.74837" lon="-4.147465">
        <ele>1273.0</ele>
        <time>2018-05-26T10:58:09.694Z</time>
      </trkpt>
      <trkpt lat="40.74843333" lon="-4.14761167">
        <ele>1273.0</ele>
        <time>2018-05-26T10:58:10.694Z</time>
      </trkpt>
      <trkpt lat="40.74843333" lon="-4.14761167">
        <ele>1273.0</ele>
        <time>2018-05-26T10:58:11.686Z</time>
      </trkpt>
      <trkpt lat="40.74849833" lon="-4.14776167">
        <ele>1272.0</ele>
        <time>2018-05-26T10:58:12.682Z</time>
      </trkpt>
      <trkpt lat="40.748525" lon="-4.14783833">
        <ele>1272.0</ele>
        <time>2018-05-26T10:58:13.683Z</time>
      </trkpt>
      <trkpt lat="40.74854667" lon="-4.147925">
        <ele>1272.0</ele>
        <time>2018-05-26T10:58:14.683Z</time>
      </trkpt>
      <trkpt lat="40.74854667" lon="-4.147925">
        <ele>1272.0</ele>
        <time>2018-05-26T10:58:15.680Z</time>
      </trkpt>
      <trkpt lat="40.74858167" lon="-4.148105">
        <ele>1272.0</ele>
        <time>2018-05-26T10:58:16.683Z</time>
      </trkpt>
      <trkpt lat="40.74858167" lon="-4.148105">
        <ele>1272.0</ele>
        <time>2018-05-26T10:58:17.679Z</time>
      </trkpt>
      <trkpt lat="40.748605" lon="-4.14828667">
        <ele>1272.0</ele>
        <time>2018-05-26T10:58:18.682Z</time>
      </trkpt>
      <trkpt lat="40.748605" lon="-4.14828667">
        <ele>1272.0</ele>
        <time>2018-05-26T10:58:19.680Z</time>
      </trkpt>
      <trkpt lat="40.748625" lon="-4.14846833">
        <ele>1272.0</ele>
        <time>2018-05-26T10:58:20.684Z</time>
      </trkpt>
      <trkpt lat="40.748625" lon="-4.14846833">
        <ele>1272.0</ele>
        <time>2018-05-26T10:58:21.680Z</time>
      </trkpt>
      <trkpt lat="40.74864333" lon="-4.148655">
        <ele>1272.0</ele>
        <time>2018-05-26T10:58:22.679Z</time>
      </trkpt>
      <trkpt lat="40.748655" lon="-4.14875">
        <ele>1272.0</ele>
        <time>2018-05-26T10:58:23.682Z</time>
      </trkpt>
      <trkpt lat="40.748655" lon="-4.14875">
        <ele>1272.0</ele>
        <time>2018-05-26T10:58:24.680Z</time>
      </trkpt>
      <trkpt lat="40.74868333" lon="-4.14893667">
        <ele>1272.0</ele>
        <time>2018-05-26T10:58:25.703Z</time>
      </trkpt>
      <trkpt lat="40.7487" lon="-4.14903167">
        <ele>1272.0</ele>
        <time>2018-05-26T10:58:26.692Z</time>
      </trkpt>
      <trkpt lat="40.7487" lon="-4.14903167">
        <ele>1272.0</ele>
        <time>2018-05-26T10:58:27.693Z</time>
      </trkpt>
      <trkpt lat="40.74874333" lon="-4.14923">
        <ele>1271.0</ele>
        <time>2018-05-26T10:58:28.683Z</time>
      </trkpt>
      <trkpt lat="40.74874333" lon="-4.14923">
        <ele>1271.0</ele>
        <time>2018-05-26T10:58:29.680Z</time>
      </trkpt>
      <trkpt lat="40.74880167" lon="-4.14944">
        <ele>1271.0</ele>
        <time>2018-05-26T10:58:30.682Z</time>
      </trkpt>
      <trkpt lat="40.74880167" lon="-4.14944">
        <ele>1271.0</ele>
        <time>2018-05-26T10:58:31.680Z</time>
      </trkpt>
      <trkpt lat="40.74886" lon="-4.14966333">
        <ele>1270.0</ele>
        <time>2018-05-26T10:58:32.682Z</time>
      </trkpt>
      <trkpt lat="40.74889167" lon="-4.14977833">
        <ele>1270.0</ele>
        <time>2018-05-26T10:58:33.682Z</time>
      </trkpt>
      <trkpt lat="40.74889167" lon="-4.14977833">
        <ele>1270.0</ele>
        <time>2018-05-26T10:58:34.680Z</time>
      </trkpt>
      <trkpt lat="40.74895" lon="-4.150005">
        <ele>1269.0</ele>
        <time>2018-05-26T10:58:35.675Z</time>
      </trkpt>
      <trkpt lat="40.748975" lon="-4.15011">
        <ele>1270.0</ele>
        <time>2018-05-26T10:58:36.699Z</time>
      </trkpt>
      <trkpt lat="40.748975" lon="-4.15011">
        <ele>1270.0</ele>
        <time>2018-05-26T10:58:37.682Z</time>
      </trkpt>
      <trkpt lat="40.749035" lon="-4.150325">
        <ele>1270.0</ele>
        <time>2018-05-26T10:58:38.684Z</time>
      </trkpt>
      <trkpt lat="40.749035" lon="-4.150325">
        <ele>1270.0</ele>
        <time>2018-05-26T10:58:39.681Z</time>
      </trkpt>
      <trkpt lat="40.749105" lon="-4.15052833">
        <ele>1269.0</ele>
        <time>2018-05-26T10:58:40.688Z</time>
      </trkpt>
      <trkpt lat="40.74913667" lon="-4.15063167">
        <ele>1269.0</ele>
        <time>2018-05-26T10:58:41.684Z</time>
      </trkpt>
      <trkpt lat="40.74913667" lon="-4.15063167">
        <ele>1269.0</ele>
        <time>2018-05-26T10:58:42.714Z</time>
      </trkpt>
      <trkpt lat="40.749205" lon="-4.150845">
        <ele>1269.0</ele>
        <time>2018-05-26T10:58:43.682Z</time>
      </trkpt>
      <trkpt lat="40.749205" lon="-4.150845">
        <ele>1269.0</ele>
        <time>2018-05-26T10:58:44.682Z</time>
      </trkpt>
      <trkpt lat="40.74927" lon="-4.15105667">
        <ele>1268.0</ele>
        <time>2018-05-26T10:58:45.683Z</time>
      </trkpt>
      <trkpt lat="40.74930167" lon="-4.15116667">
        <ele>1268.0</ele>
        <time>2018-05-26T10:58:46.684Z</time>
      </trkpt>
      <trkpt lat="40.74930167" lon="-4.15116667">
        <ele>1268.0</ele>
        <time>2018-05-26T10:58:47.680Z</time>
      </trkpt>
      <trkpt lat="40.74936833" lon="-4.15137667">
        <ele>1267.0</ele>
        <time>2018-05-26T10:58:48.682Z</time>
      </trkpt>
      <trkpt lat="40.74936833" lon="-4.15137667">
        <ele>1267.0</ele>
        <time>2018-05-26T10:58:49.681Z</time>
      </trkpt>
      <trkpt lat="40.74943667" lon="-4.15158167">
        <ele>1267.0</ele>
        <time>2018-05-26T10:58:50.684Z</time>
      </trkpt>
      <trkpt lat="40.74947" lon="-4.15168833">
        <ele>1266.0</ele>
        <time>2018-05-26T10:58:51.681Z</time>
      </trkpt>
      <trkpt lat="40.74947" lon="-4.15168833">
        <ele>1266.0</ele>
        <time>2018-05-26T10:58:52.687Z</time>
      </trkpt>
      <trkpt lat="40.749535" lon="-4.151905">
        <ele>1265.0</ele>
        <time>2018-05-26T10:58:53.683Z</time>
      </trkpt>
      <trkpt lat="40.749535" lon="-4.151905">
        <ele>1265.0</ele>
        <time>2018-05-26T10:58:54.680Z</time>
      </trkpt>
      <trkpt lat="40.74960167" lon="-4.15211333">
        <ele>1264.0</ele>
        <time>2018-05-26T10:58:55.683Z</time>
      </trkpt>
      <trkpt lat="40.74960167" lon="-4.15211333">
        <ele>1264.0</ele>
        <time>2018-05-26T10:58:56.681Z</time>
      </trkpt>
      <trkpt lat="40.74969" lon="-4.15230833">
        <ele>1263.0</ele>
        <time>2018-05-26T10:58:57.683Z</time>
      </trkpt>
      <trkpt lat="40.74974833" lon="-4.15239333">
        <ele>1263.0</ele>
        <time>2018-05-26T10:58:58.683Z</time>
      </trkpt>
      <trkpt lat="40.74974833" lon="-4.15239333">
        <ele>1263.0</ele>
        <time>2018-05-26T10:58:59.679Z</time>
      </trkpt>
      <trkpt lat="40.74989667" lon="-4.15253667">
        <ele>1262.0</ele>
        <time>2018-05-26T10:59:00.682Z</time>
      </trkpt>
      <trkpt lat="40.74989667" lon="-4.15253667">
        <ele>1262.0</ele>
        <time>2018-05-26T10:59:01.681Z</time>
      </trkpt>
      <trkpt lat="40.75006" lon="-4.15267667">
        <ele>1260.0</ele>
        <time>2018-05-26T10:59:02.684Z</time>
      </trkpt>
      <trkpt lat="40.75006" lon="-4.15267667">
        <ele>1260.0</ele>
        <time>2018-05-26T10:59:03.680Z</time>
      </trkpt>
      <trkpt lat="40.75023" lon="-4.152825">
        <ele>1258.0</ele>
        <time>2018-05-26T10:59:04.683Z</time>
      </trkpt>
      <trkpt lat="40.75023" lon="-4.152825">
        <ele>1258.0</ele>
        <time>2018-05-26T10:59:05.681Z</time>
      </trkpt>
      <trkpt lat="40.75040167" lon="-4.15298167">
        <ele>1257.0</ele>
        <time>2018-05-26T10:59:06.683Z</time>
      </trkpt>
      <trkpt lat="40.75040167" lon="-4.15298167">
        <ele>1257.0</ele>
        <time>2018-05-26T10:59:07.681Z</time>
      </trkpt>
      <trkpt lat="40.75057667" lon="-4.15314333">
        <ele>1255.0</ele>
        <time>2018-05-26T10:59:08.697Z</time>
      </trkpt>
      <trkpt lat="40.75057667" lon="-4.15314333">
        <ele>1255.0</ele>
        <time>2018-05-26T10:59:09.688Z</time>
      </trkpt>
      <trkpt lat="40.750745" lon="-4.15332833">
        <ele>1253.0</ele>
        <time>2018-05-26T10:59:10.684Z</time>
      </trkpt>
      <trkpt lat="40.75081167" lon="-4.15344167">
        <ele>1252.0</ele>
        <time>2018-05-26T10:59:11.683Z</time>
      </trkpt>
      <trkpt lat="40.75086167" lon="-4.15356833">
        <ele>1252.0</ele>
        <time>2018-05-26T10:59:12.685Z</time>
      </trkpt>
      <trkpt lat="40.75086167" lon="-4.15356833">
        <ele>1252.0</ele>
        <time>2018-05-26T10:59:13.705Z</time>
      </trkpt>
      <trkpt lat="40.75091" lon="-4.15383833">
        <ele>1250.0</ele>
        <time>2018-05-26T10:59:14.698Z</time>
      </trkpt>
      <trkpt lat="40.75091" lon="-4.15383833">
        <ele>1250.0</ele>
        <time>2018-05-26T10:59:15.695Z</time>
      </trkpt>
      <trkpt lat="40.75092333" lon="-4.15412">
        <ele>1249.0</ele>
        <time>2018-05-26T10:59:16.685Z</time>
      </trkpt>
      <trkpt lat="40.75092333" lon="-4.15412">
        <ele>1249.0</ele>
        <time>2018-05-26T10:59:17.677Z</time>
      </trkpt>
      <trkpt lat="40.75091667" lon="-4.15440167">
        <ele>1249.0</ele>
        <time>2018-05-26T10:59:18.683Z</time>
      </trkpt>
      <trkpt lat="40.75091667" lon="-4.15440167">
        <ele>1249.0</ele>
        <time>2018-05-26T10:59:19.681Z</time>
      </trkpt>
      <trkpt lat="40.750905" lon="-4.15467667">
        <ele>1249.0</ele>
        <time>2018-05-26T10:59:20.684Z</time>
      </trkpt>
      <trkpt lat="40.750905" lon="-4.15467667">
        <ele>1249.0</ele>
        <time>2018-05-26T10:59:21.678Z</time>
      </trkpt>
      <trkpt lat="40.75090167" lon="-4.15494167">
        <ele>1249.0</ele>
        <time>2018-05-26T10:59:22.682Z</time>
      </trkpt>
      <trkpt lat="40.75090167" lon="-4.15494167">
        <ele>1249.0</ele>
        <time>2018-05-26T10:59:23.679Z</time>
      </trkpt>
      <trkpt lat="40.75088167" lon="-4.155195">
        <ele>1249.0</ele>
        <time>2018-05-26T10:59:24.683Z</time>
      </trkpt>
      <trkpt lat="40.75088167" lon="-4.155195">
        <ele>1249.0</ele>
        <time>2018-05-26T10:59:25.680Z</time>
      </trkpt>
      <trkpt lat="40.75082" lon="-4.15542833">
        <ele>1248.0</ele>
        <time>2018-05-26T10:59:26.701Z</time>
      </trkpt>
      <trkpt lat="40.75082" lon="-4.15542833">
        <ele>1248.0</ele>
        <time>2018-05-26T10:59:27.692Z</time>
      </trkpt>
      <trkpt lat="40.75072" lon="-4.155635">
        <ele>1248.0</ele>
        <time>2018-05-26T10:59:28.681Z</time>
      </trkpt>
      <trkpt lat="40.75072" lon="-4.155635">
        <ele>1248.0</ele>
        <time>2018-05-26T10:59:29.680Z</time>
      </trkpt>
      <trkpt lat="40.7506" lon="-4.15582167">
        <ele>1248.0</ele>
        <time>2018-05-26T10:59:30.693Z</time>
      </trkpt>
      <trkpt lat="40.7506" lon="-4.15582167">
        <ele>1248.0</ele>
        <time>2018-05-26T10:59:31.685Z</time>
      </trkpt>
      <trkpt lat="40.75047833" lon="-4.156015">
        <ele>1247.0</ele>
        <time>2018-05-26T10:59:32.694Z</time>
      </trkpt>
      <trkpt lat="40.75047833" lon="-4.156015">
        <ele>1247.0</ele>
        <time>2018-05-26T10:59:33.684Z</time>
      </trkpt>
      <trkpt lat="40.75035667" lon="-4.15619">
        <ele>1247.0</ele>
        <time>2018-05-26T10:59:34.684Z</time>
      </trkpt>
      <trkpt lat="40.75035667" lon="-4.15619">
        <ele>1247.0</ele>
        <time>2018-05-26T10:59:35.693Z</time>
      </trkpt>
      <trkpt lat="40.75024333" lon="-4.15636667">
        <ele>1247.0</ele>
        <time>2018-05-26T10:59:36.683Z</time>
      </trkpt>
      <trkpt lat="40.75024333" lon="-4.15636667">
        <ele>1247.0</ele>
        <time>2018-05-26T10:59:37.680Z</time>
      </trkpt>
      <trkpt lat="40.75015167" lon="-4.156565">
        <ele>1247.0</ele>
        <time>2018-05-26T10:59:38.684Z</time>
      </trkpt>
      <trkpt lat="40.75015167" lon="-4.156565">
        <ele>1247.0</ele>
        <time>2018-05-26T10:59:39.681Z</time>
      </trkpt>
      <trkpt lat="40.75011" lon="-4.15679667">
        <ele>1247.0</ele>
        <time>2018-05-26T10:59:40.686Z</time>
      </trkpt>
      <trkpt lat="40.75011" lon="-4.15679667">
        <ele>1247.0</ele>
        <time>2018-05-26T10:59:41.678Z</time>
      </trkpt>
      <trkpt lat="40.750115" lon="-4.15703333">
        <ele>1247.0</ele>
        <time>2018-05-26T10:59:42.683Z</time>
      </trkpt>
      <trkpt lat="40.750115" lon="-4.15703333">
        <ele>1247.0</ele>
        <time>2018-05-26T10:59:43.681Z</time>
      </trkpt>
      <trkpt lat="40.750145" lon="-4.15726167">
        <ele>1247.0</ele>
        <time>2018-05-26T10:59:44.682Z</time>
      </trkpt>
      <trkpt lat="40.750145" lon="-4.15726167">
        <ele>1247.0</ele>
        <time>2018-05-26T10:59:45.679Z</time>
      </trkpt>
      <trkpt lat="40.750195" lon="-4.15747667">
        <ele>1247.0</ele>
        <time>2018-05-26T10:59:46.684Z</time>
      </trkpt>
      <trkpt lat="40.750195" lon="-4.15747667">
        <ele>1247.0</ele>
        <time>2018-05-26T10:59:47.681Z</time>
      </trkpt>
      <trkpt lat="40.75022833" lon="-4.157695">
        <ele>1247.0</ele>
        <time>2018-05-26T10:59:48.683Z</time>
      </trkpt>
      <trkpt lat="40.75022833" lon="-4.157695">
        <ele>1247.0</ele>
        <time>2018-05-26T10:59:49.702Z</time>
      </trkpt>
      <trkpt lat="40.75024667" lon="-4.15791667">
        <ele>1247.0</ele>
        <time>2018-05-26T10:59:50.686Z</time>
      </trkpt>
      <trkpt lat="40.75024667" lon="-4.15791667">
        <ele>1247.0</ele>
        <time>2018-05-26T10:59:51.681Z</time>
      </trkpt>
      <trkpt lat="40.75024667" lon="-4.15813167">
        <ele>1247.0</ele>
        <time>2018-05-26T10:59:52.685Z</time>
      </trkpt>
      <trkpt lat="40.75024667" lon="-4.15813167">
        <ele>1247.0</ele>
        <time>2018-05-26T10:59:53.680Z</time>
      </trkpt>
      <trkpt lat="40.75023333" lon="-4.158345">
        <ele>1247.0</ele>
        <time>2018-05-26T10:59:54.683Z</time>
      </trkpt>
      <trkpt lat="40.75022667" lon="-4.15845333">
        <ele>1247.0</ele>
        <time>2018-05-26T10:59:55.683Z</time>
      </trkpt>
      <trkpt lat="40.75022167" lon="-4.15856">
        <ele>1247.0</ele>
        <time>2018-05-26T10:59:56.682Z</time>
      </trkpt>
      <trkpt lat="40.75022167" lon="-4.15856">
        <ele>1247.0</ele>
        <time>2018-05-26T10:59:57.681Z</time>
      </trkpt>
      <trkpt lat="40.75021167" lon="-4.15877">
        <ele>1247.0</ele>
        <time>2018-05-26T10:59:58.683Z</time>
      </trkpt>
      <trkpt lat="40.75020667" lon="-4.15887667">
        <ele>1247.0</ele>
        <time>2018-05-26T10:59:59.685Z</time>
      </trkpt>
      <trkpt lat="40.75020667" lon="-4.15887667">
        <ele>1247.0</ele>
        <time>2018-05-26T11:00:00.680Z</time>
      </trkpt>
      <trkpt lat="40.75019333" lon="-4.15908667">
        <ele>1247.0</ele>
        <time>2018-05-26T11:00:01.682Z</time>
      </trkpt>
      <trkpt lat="40.750185" lon="-4.15918833">
        <ele>1247.0</ele>
        <time>2018-05-26T11:00:02.684Z</time>
      </trkpt>
      <trkpt lat="40.750185" lon="-4.15918833">
        <ele>1247.0</ele>
        <time>2018-05-26T11:00:03.679Z</time>
      </trkpt>
      <trkpt lat="40.75016667" lon="-4.15939167">
        <ele>1247.0</ele>
        <time>2018-05-26T11:00:04.685Z</time>
      </trkpt>
      <trkpt lat="40.75016667" lon="-4.15939167">
        <ele>1247.0</ele>
        <time>2018-05-26T11:00:05.681Z</time>
      </trkpt>
      <trkpt lat="40.75014167" lon="-4.159585">
        <ele>1247.0</ele>
        <time>2018-05-26T11:00:06.683Z</time>
      </trkpt>
      <trkpt lat="40.75014167" lon="-4.159585">
        <ele>1247.0</ele>
        <time>2018-05-26T11:00:07.680Z</time>
      </trkpt>
      <trkpt lat="40.75012667" lon="-4.15976333">
        <ele>1247.0</ele>
        <time>2018-05-26T11:00:08.700Z</time>
      </trkpt>
      <trkpt lat="40.75012667" lon="-4.15976333">
        <ele>1247.0</ele>
        <time>2018-05-26T11:00:09.683Z</time>
      </trkpt>
      <trkpt lat="40.75014" lon="-4.15992667">
        <ele>1248.0</ele>
        <time>2018-05-26T11:00:10.684Z</time>
      </trkpt>
      <trkpt lat="40.75014" lon="-4.15992667">
        <ele>1248.0</ele>
        <time>2018-05-26T11:00:11.681Z</time>
      </trkpt>
      <trkpt lat="40.75017833" lon="-4.16007167">
        <ele>1249.0</ele>
        <time>2018-05-26T11:00:12.684Z</time>
      </trkpt>
      <trkpt lat="40.75017833" lon="-4.16007167">
        <ele>1249.0</ele>
        <time>2018-05-26T11:00:13.678Z</time>
      </trkpt>
      <trkpt lat="40.75020167" lon="-4.16018">
        <ele>1249.0</ele>
        <time>2018-05-26T11:00:14.682Z</time>
      </trkpt>
      <trkpt lat="40.75020167" lon="-4.16018">
        <ele>1249.0</ele>
        <time>2018-05-26T11:00:15.681Z</time>
      </trkpt>
      <trkpt lat="40.750215" lon="-4.160265">
        <ele>1250.0</ele>
        <time>2018-05-26T11:00:16.684Z</time>
      </trkpt>
      <trkpt lat="40.750215" lon="-4.160265">
        <ele>1250.0</ele>
        <time>2018-05-26T11:00:17.680Z</time>
      </trkpt>
      <trkpt lat="40.75022333" lon="-4.16032667">
        <ele>1251.0</ele>
        <time>2018-05-26T11:00:18.682Z</time>
      </trkpt>
      <trkpt lat="40.75022833" lon="-4.16036167">
        <ele>1251.0</ele>
        <time>2018-05-26T11:00:19.684Z</time>
      </trkpt>
      <trkpt lat="40.75023333" lon="-4.16040333">
        <ele>1251.0</ele>
        <time>2018-05-26T11:00:20.682Z</time>
      </trkpt>
      <trkpt lat="40.75023333" lon="-4.16040333">
        <ele>1251.0</ele>
        <time>2018-05-26T11:00:21.679Z</time>
      </trkpt>
      <trkpt lat="40.750235" lon="-4.16049333">
        <ele>1251.0</ele>
        <time>2018-05-26T11:00:22.684Z</time>
      </trkpt>
      <trkpt lat="40.750235" lon="-4.16049333">
        <ele>1251.0</ele>
        <time>2018-05-26T11:00:23.676Z</time>
      </trkpt>
      <trkpt lat="40.75022667" lon="-4.16058">
        <ele>1252.0</ele>
        <time>2018-05-26T11:00:24.683Z</time>
      </trkpt>
      <trkpt lat="40.75022667" lon="-4.16058">
        <ele>1252.0</ele>
        <time>2018-05-26T11:00:25.683Z</time>
      </trkpt>
      <trkpt lat="40.75020833" lon="-4.16066833">
        <ele>1252.0</ele>
        <time>2018-05-26T11:00:26.682Z</time>
      </trkpt>
      <trkpt lat="40.75020833" lon="-4.16066833">
        <ele>1252.0</ele>
        <time>2018-05-26T11:00:27.681Z</time>
      </trkpt>
      <trkpt lat="40.750195" lon="-4.160755">
        <ele>1253.0</ele>
        <time>2018-05-26T11:00:28.697Z</time>
      </trkpt>
      <trkpt lat="40.750195" lon="-4.160755">
        <ele>1253.0</ele>
        <time>2018-05-26T11:00:29.680Z</time>
      </trkpt>
      <trkpt lat="40.75018167" lon="-4.16084">
        <ele>1253.0</ele>
        <time>2018-05-26T11:00:30.683Z</time>
      </trkpt>
      <trkpt lat="40.75017667" lon="-4.16088333">
        <ele>1253.0</ele>
        <time>2018-05-26T11:00:31.683Z</time>
      </trkpt>
      <trkpt lat="40.75017333" lon="-4.16093">
        <ele>1253.0</ele>
        <time>2018-05-26T11:00:32.699Z</time>
      </trkpt>
      <trkpt lat="40.75017333" lon="-4.16093">
        <ele>1253.0</ele>
        <time>2018-05-26T11:00:33.691Z</time>
      </trkpt>
      <trkpt lat="40.75016667" lon="-4.16103">
        <ele>1254.0</ele>
        <time>2018-05-26T11:00:34.683Z</time>
      </trkpt>
      <trkpt lat="40.75016333" lon="-4.16108667">
        <ele>1254.0</ele>
        <time>2018-05-26T11:00:35.682Z</time>
      </trkpt>
      <trkpt lat="40.75015833" lon="-4.16114333">
        <ele>1254.0</ele>
        <time>2018-05-26T11:00:36.695Z</time>
      </trkpt>
      <trkpt lat="40.75015833" lon="-4.16114333">
        <ele>1254.0</ele>
        <time>2018-05-26T11:00:37.680Z</time>
      </trkpt>
      <trkpt lat="40.75014333" lon="-4.16124167">
        <ele>1254.0</ele>
        <time>2018-05-26T11:00:38.684Z</time>
      </trkpt>
      <trkpt lat="40.75014333" lon="-4.16124167">
        <ele>1254.0</ele>
        <time>2018-05-26T11:00:39.681Z</time>
      </trkpt>
      <trkpt lat="40.75012" lon="-4.161335">
        <ele>1254.0</ele>
        <time>2018-05-26T11:00:40.684Z</time>
      </trkpt>
      <trkpt lat="40.75012" lon="-4.161335">
        <ele>1254.0</ele>
        <time>2018-05-26T11:00:41.683Z</time>
      </trkpt>
      <trkpt lat="40.75010167" lon="-4.16142333">
        <ele>1255.0</ele>
        <time>2018-05-26T11:00:42.682Z</time>
      </trkpt>
      <trkpt lat="40.75010167" lon="-4.16142333">
        <ele>1255.0</ele>
        <time>2018-05-26T11:00:43.681Z</time>
      </trkpt>
      <trkpt lat="40.75009667" lon="-4.16151667">
        <ele>1255.0</ele>
        <time>2018-05-26T11:00:44.682Z</time>
      </trkpt>
      <trkpt lat="40.75009667" lon="-4.16151667">
        <ele>1255.0</ele>
        <time>2018-05-26T11:00:45.712Z</time>
      </trkpt>
      <trkpt lat="40.75008833" lon="-4.161605">
        <ele>1256.0</ele>
        <time>2018-05-26T11:00:46.684Z</time>
      </trkpt>
      <trkpt lat="40.75008833" lon="-4.161605">
        <ele>1256.0</ele>
        <time>2018-05-26T11:00:47.681Z</time>
      </trkpt>
      <trkpt lat="40.750075" lon="-4.16169">
        <ele>1256.0</ele>
        <time>2018-05-26T11:00:48.682Z</time>
      </trkpt>
      <trkpt lat="40.750075" lon="-4.16169">
        <ele>1256.0</ele>
        <time>2018-05-26T11:00:49.681Z</time>
      </trkpt>
      <trkpt lat="40.750065" lon="-4.16176833">
        <ele>1256.0</ele>
        <time>2018-05-26T11:00:50.684Z</time>
      </trkpt>
      <trkpt lat="40.75006167" lon="-4.16180833">
        <ele>1256.0</ele>
        <time>2018-05-26T11:00:51.683Z</time>
      </trkpt>
      <trkpt lat="40.75005667" lon="-4.16184667">
        <ele>1256.0</ele>
        <time>2018-05-26T11:00:52.681Z</time>
      </trkpt>
      <trkpt lat="40.75005667" lon="-4.16184667">
        <ele>1256.0</ele>
        <time>2018-05-26T11:00:53.680Z</time>
      </trkpt>
      <trkpt lat="40.75004833" lon="-4.16191333">
        <ele>1257.0</ele>
        <time>2018-05-26T11:00:54.680Z</time>
      </trkpt>
      <trkpt lat="40.75004833" lon="-4.16191333">
        <ele>1257.0</ele>
        <time>2018-05-26T11:00:55.678Z</time>
      </trkpt>
      <trkpt lat="40.75004" lon="-4.16196667">
        <ele>1257.0</ele>
        <time>2018-05-26T11:00:56.684Z</time>
      </trkpt>
      <trkpt lat="40.75004" lon="-4.16196667">
        <ele>1257.0</ele>
        <time>2018-05-26T11:00:57.681Z</time>
      </trkpt>
      <trkpt lat="40.75003333" lon="-4.16202667">
        <ele>1258.0</ele>
        <time>2018-05-26T11:00:58.684Z</time>
      </trkpt>
      <trkpt lat="40.75003333" lon="-4.16202667">
        <ele>1258.0</ele>
        <time>2018-05-26T11:00:59.678Z</time>
      </trkpt>
      <trkpt lat="40.75002" lon="-4.16209333">
        <ele>1258.0</ele>
        <time>2018-05-26T11:01:00.682Z</time>
      </trkpt>
      <trkpt lat="40.75002" lon="-4.16209333">
        <ele>1258.0</ele>
        <time>2018-05-26T11:01:01.681Z</time>
      </trkpt>
      <trkpt lat="40.75001" lon="-4.16216167">
        <ele>1259.0</ele>
        <time>2018-05-26T11:01:02.682Z</time>
      </trkpt>
      <trkpt lat="40.75001" lon="-4.16216167">
        <ele>1259.0</ele>
        <time>2018-05-26T11:01:03.680Z</time>
      </trkpt>
      <trkpt lat="40.75000167" lon="-4.16222833">
        <ele>1259.0</ele>
        <time>2018-05-26T11:01:04.684Z</time>
      </trkpt>
      <trkpt lat="40.75000167" lon="-4.16222833">
        <ele>1259.0</ele>
        <time>2018-05-26T11:01:05.680Z</time>
      </trkpt>
      <trkpt lat="40.74999833" lon="-4.16229">
        <ele>1260.0</ele>
        <time>2018-05-26T11:01:06.683Z</time>
      </trkpt>
      <trkpt lat="40.74999833" lon="-4.16229">
        <ele>1260.0</ele>
        <time>2018-05-26T11:01:07.681Z</time>
      </trkpt>
      <trkpt lat="40.74998667" lon="-4.16235">
        <ele>1260.0</ele>
        <time>2018-05-26T11:01:08.685Z</time>
      </trkpt>
      <trkpt lat="40.74998667" lon="-4.16235">
        <ele>1260.0</ele>
        <time>2018-05-26T11:01:09.688Z</time>
      </trkpt>
      <trkpt lat="40.749975" lon="-4.16240833">
        <ele>1260.0</ele>
        <time>2018-05-26T11:01:10.681Z</time>
      </trkpt>
      <trkpt lat="40.749975" lon="-4.16240833">
        <ele>1260.0</ele>
        <time>2018-05-26T11:01:11.681Z</time>
      </trkpt>
      <trkpt lat="40.74996667" lon="-4.16245833">
        <ele>1261.0</ele>
        <time>2018-05-26T11:01:12.683Z</time>
      </trkpt>
      <trkpt lat="40.74996167" lon="-4.16248333">
        <ele>1261.0</ele>
        <time>2018-05-26T11:01:13.684Z</time>
      </trkpt>
      <trkpt lat="40.74995833" lon="-4.16250667">
        <ele>1262.0</ele>
        <time>2018-05-26T11:01:14.685Z</time>
      </trkpt>
      <trkpt lat="40.74995833" lon="-4.16250667">
        <ele>1262.0</ele>
        <time>2018-05-26T11:01:15.681Z</time>
      </trkpt>
      <trkpt lat="40.74994833" lon="-4.16255">
        <ele>1262.0</ele>
        <time>2018-05-26T11:01:16.684Z</time>
      </trkpt>
      <trkpt lat="40.74994833" lon="-4.16255">
        <ele>1262.0</ele>
        <time>2018-05-26T11:01:17.679Z</time>
      </trkpt>
      <trkpt lat="40.749945" lon="-4.16259167">
        <ele>1262.0</ele>
        <time>2018-05-26T11:01:18.682Z</time>
      </trkpt>
      <trkpt lat="40.749945" lon="-4.16259167">
        <ele>1262.0</ele>
        <time>2018-05-26T11:01:19.681Z</time>
      </trkpt>
      <trkpt lat="40.74993833" lon="-4.16263333">
        <ele>1263.0</ele>
        <time>2018-05-26T11:01:20.683Z</time>
      </trkpt>
      <trkpt lat="40.74993833" lon="-4.16263333">
        <ele>1263.0</ele>
        <time>2018-05-26T11:01:21.680Z</time>
      </trkpt>
      <trkpt lat="40.74993167" lon="-4.16267333">
        <ele>1263.0</ele>
        <time>2018-05-26T11:01:22.683Z</time>
      </trkpt>
      <trkpt lat="40.74993167" lon="-4.16267333">
        <ele>1263.0</ele>
        <time>2018-05-26T11:01:23.681Z</time>
      </trkpt>
      <trkpt lat="40.74993" lon="-4.16271">
        <ele>1263.0</ele>
        <time>2018-05-26T11:01:24.684Z</time>
      </trkpt>
      <trkpt lat="40.74993" lon="-4.16271">
        <ele>1263.0</ele>
        <time>2018-05-26T11:01:25.683Z</time>
      </trkpt>
      <trkpt lat="40.74992333" lon="-4.16274333">
        <ele>1264.0</ele>
        <time>2018-05-26T11:01:26.685Z</time>
      </trkpt>
      <trkpt lat="40.74992333" lon="-4.16274333">
        <ele>1264.0</ele>
        <time>2018-05-26T11:01:27.681Z</time>
      </trkpt>
      <trkpt lat="40.74992167" lon="-4.16275">
        <ele>1264.0</ele>
        <time>2018-05-26T11:01:28.683Z</time>
      </trkpt>
      <trkpt lat="40.74992167" lon="-4.16275">
        <ele>1264.0</ele>
        <time>2018-05-26T11:01:29.682Z</time>
      </trkpt>
      <trkpt lat="40.74992167" lon="-4.16275">
        <ele>1264.0</ele>
        <time>2018-05-26T11:01:30.675Z</time>
      </trkpt>
      <trkpt lat="40.74992167" lon="-4.16275">
        <ele>1264.0</ele>
        <time>2018-05-26T11:01:31.710Z</time>
      </trkpt>
      <trkpt lat="40.74990333" lon="-4.16286167">
        <ele>1264.0</ele>
        <time>2018-05-26T11:01:32.676Z</time>
      </trkpt>
      <trkpt lat="40.7499" lon="-4.16289">
        <ele>1264.0</ele>
        <time>2018-05-26T11:01:33.709Z</time>
      </trkpt>
      <trkpt lat="40.74989833" lon="-4.16291667">
        <ele>1264.0</ele>
        <time>2018-05-26T11:01:34.676Z</time>
      </trkpt>
      <trkpt lat="40.74989833" lon="-4.16291667">
        <ele>1264.0</ele>
        <time>2018-05-26T11:01:35.706Z</time>
      </trkpt>
      <trkpt lat="40.74988833" lon="-4.162975">
        <ele>1264.0</ele>
        <time>2018-05-26T11:01:36.706Z</time>
      </trkpt>
      <trkpt lat="40.74988833" lon="-4.162975">
        <ele>1264.0</ele>
        <time>2018-05-26T11:01:37.705Z</time>
      </trkpt>
      <trkpt lat="40.74988" lon="-4.16303333">
        <ele>1264.0</ele>
        <time>2018-05-26T11:01:38.704Z</time>
      </trkpt>
      <trkpt lat="40.74988" lon="-4.16303333">
        <ele>1264.0</ele>
        <time>2018-05-26T11:01:39.698Z</time>
      </trkpt>
      <trkpt lat="40.74987" lon="-4.16309667">
        <ele>1264.0</ele>
        <time>2018-05-26T11:01:40.686Z</time>
      </trkpt>
      <trkpt lat="40.74987" lon="-4.16309667">
        <ele>1264.0</ele>
        <time>2018-05-26T11:01:41.676Z</time>
      </trkpt>
      <trkpt lat="40.74986167" lon="-4.16316167">
        <ele>1264.0</ele>
        <time>2018-05-26T11:01:42.708Z</time>
      </trkpt>
      <trkpt lat="40.74986167" lon="-4.16316167">
        <ele>1264.0</ele>
        <time>2018-05-26T11:01:43.702Z</time>
      </trkpt>
      <trkpt lat="40.74985167" lon="-4.16322667">
        <ele>1265.0</ele>
        <time>2018-05-26T11:01:44.705Z</time>
      </trkpt>
      <trkpt lat="40.74985167" lon="-4.16322667">
        <ele>1265.0</ele>
        <time>2018-05-26T11:01:45.704Z</time>
      </trkpt>
      <trkpt lat="40.74984" lon="-4.16329333">
        <ele>1265.0</ele>
        <time>2018-05-26T11:01:46.706Z</time>
      </trkpt>
      <trkpt lat="40.74984" lon="-4.16329333">
        <ele>1265.0</ele>
        <time>2018-05-26T11:01:47.704Z</time>
      </trkpt>
      <trkpt lat="40.74983" lon="-4.16336">
        <ele>1266.0</ele>
        <time>2018-05-26T11:01:48.707Z</time>
      </trkpt>
      <trkpt lat="40.74983" lon="-4.16336">
        <ele>1266.0</ele>
        <time>2018-05-26T11:01:49.703Z</time>
      </trkpt>
      <trkpt lat="40.74981667" lon="-4.16342833">
        <ele>1266.0</ele>
        <time>2018-05-26T11:01:50.708Z</time>
      </trkpt>
      <trkpt lat="40.74981" lon="-4.16346333">
        <ele>1266.0</ele>
        <time>2018-05-26T11:01:51.707Z</time>
      </trkpt>
      <trkpt lat="40.74980167" lon="-4.16350167">
        <ele>1266.0</ele>
        <time>2018-05-26T11:01:52.709Z</time>
      </trkpt>
      <trkpt lat="40.74980167" lon="-4.16350167">
        <ele>1266.0</ele>
        <time>2018-05-26T11:01:53.704Z</time>
      </trkpt>
      <trkpt lat="40.74978667" lon="-4.163575">
        <ele>1266.0</ele>
        <time>2018-05-26T11:01:54.707Z</time>
      </trkpt>
      <trkpt lat="40.74978667" lon="-4.163575">
        <ele>1266.0</ele>
        <time>2018-05-26T11:01:55.704Z</time>
      </trkpt>
      <trkpt lat="40.74976667" lon="-4.16365167">
        <ele>1266.0</ele>
        <time>2018-05-26T11:01:56.707Z</time>
      </trkpt>
      <trkpt lat="40.74976667" lon="-4.16365167">
        <ele>1266.0</ele>
        <time>2018-05-26T11:01:57.702Z</time>
      </trkpt>
      <trkpt lat="40.74974667" lon="-4.16372">
        <ele>1266.0</ele>
        <time>2018-05-26T11:01:58.705Z</time>
      </trkpt>
      <trkpt lat="40.74974667" lon="-4.16372">
        <ele>1266.0</ele>
        <time>2018-05-26T11:01:59.703Z</time>
      </trkpt>
      <trkpt lat="40.74972833" lon="-4.16379667">
        <ele>1266.0</ele>
        <time>2018-05-26T11:02:00.683Z</time>
      </trkpt>
      <trkpt lat="40.74971833" lon="-4.16383167">
        <ele>1266.0</ele>
        <time>2018-05-26T11:02:01.677Z</time>
      </trkpt>
      <trkpt lat="40.74971833" lon="-4.16383167">
        <ele>1266.0</ele>
        <time>2018-05-26T11:02:02.713Z</time>
      </trkpt>
      <trkpt lat="40.74970667" lon="-4.16390167">
        <ele>1267.0</ele>
        <time>2018-05-26T11:02:03.706Z</time>
      </trkpt>
      <trkpt lat="40.74970167" lon="-4.16393833">
        <ele>1267.0</ele>
        <time>2018-05-26T11:02:04.708Z</time>
      </trkpt>
      <trkpt lat="40.74970167" lon="-4.16393833">
        <ele>1267.0</ele>
        <time>2018-05-26T11:02:05.702Z</time>
      </trkpt>
      <trkpt lat="40.74968667" lon="-4.16400833">
        <ele>1268.0</ele>
        <time>2018-05-26T11:02:06.709Z</time>
      </trkpt>
      <trkpt lat="40.74968667" lon="-4.16400833">
        <ele>1268.0</ele>
        <time>2018-05-26T11:02:07.704Z</time>
      </trkpt>
      <trkpt lat="40.74967167" lon="-4.16407333">
        <ele>1268.0</ele>
        <time>2018-05-26T11:02:08.707Z</time>
      </trkpt>
      <trkpt lat="40.749665" lon="-4.16411">
        <ele>1268.0</ele>
        <time>2018-05-26T11:02:09.704Z</time>
      </trkpt>
      <trkpt lat="40.749665" lon="-4.16411">
        <ele>1268.0</ele>
        <time>2018-05-26T11:02:10.676Z</time>
      </trkpt>
      <trkpt lat="40.74965167" lon="-4.16417833">
        <ele>1268.0</ele>
        <time>2018-05-26T11:02:11.708Z</time>
      </trkpt>
      <trkpt lat="40.749645" lon="-4.16421333">
        <ele>1269.0</ele>
        <time>2018-05-26T11:02:12.708Z</time>
      </trkpt>
      <trkpt lat="40.749645" lon="-4.16421333">
        <ele>1269.0</ele>
        <time>2018-05-26T11:02:13.703Z</time>
      </trkpt>
      <trkpt lat="40.74963667" lon="-4.16427833">
        <ele>1269.0</ele>
        <time>2018-05-26T11:02:14.707Z</time>
      </trkpt>
      <trkpt lat="40.74963667" lon="-4.16427833">
        <ele>1269.0</ele>
        <time>2018-05-26T11:02:15.704Z</time>
      </trkpt>
      <trkpt lat="40.74963333" lon="-4.16433833">
        <ele>1270.0</ele>
        <time>2018-05-26T11:02:16.707Z</time>
      </trkpt>
      <trkpt lat="40.74963333" lon="-4.16433833">
        <ele>1270.0</ele>
        <time>2018-05-26T11:02:17.704Z</time>
      </trkpt>
      <trkpt lat="40.749625" lon="-4.16439667">
        <ele>1270.0</ele>
        <time>2018-05-26T11:02:18.707Z</time>
      </trkpt>
      <trkpt lat="40.749625" lon="-4.16439667">
        <ele>1270.0</ele>
        <time>2018-05-26T11:02:19.703Z</time>
      </trkpt>
      <trkpt lat="40.749615" lon="-4.16445333">
        <ele>1270.0</ele>
        <time>2018-05-26T11:02:20.714Z</time>
      </trkpt>
      <trkpt lat="40.74960833" lon="-4.16447833">
        <ele>1270.0</ele>
        <time>2018-05-26T11:02:21.710Z</time>
      </trkpt>
      <trkpt lat="40.74960833" lon="-4.16447833">
        <ele>1270.0</ele>
        <time>2018-05-26T11:02:22.704Z</time>
      </trkpt>
      <trkpt lat="40.74959333" lon="-4.16453333">
        <ele>1271.0</ele>
        <time>2018-05-26T11:02:23.707Z</time>
      </trkpt>
      <trkpt lat="40.74959" lon="-4.16456167">
        <ele>1271.0</ele>
        <time>2018-05-26T11:02:24.708Z</time>
      </trkpt>
      <trkpt lat="40.74959" lon="-4.16456167">
        <ele>1271.0</ele>
        <time>2018-05-26T11:02:25.704Z</time>
      </trkpt>
      <trkpt lat="40.74957833" lon="-4.164625">
        <ele>1271.0</ele>
        <time>2018-05-26T11:02:26.705Z</time>
      </trkpt>
      <trkpt lat="40.74957833" lon="-4.164625">
        <ele>1271.0</ele>
        <time>2018-05-26T11:02:27.702Z</time>
      </trkpt>
      <trkpt lat="40.74956667" lon="-4.16469">
        <ele>1272.0</ele>
        <time>2018-05-26T11:02:28.705Z</time>
      </trkpt>
      <trkpt lat="40.74956667" lon="-4.16469">
        <ele>1272.0</ele>
        <time>2018-05-26T11:02:29.704Z</time>
      </trkpt>
      <trkpt lat="40.74956333" lon="-4.16476333">
        <ele>1272.0</ele>
        <time>2018-05-26T11:02:30.675Z</time>
      </trkpt>
      <trkpt lat="40.74956333" lon="-4.16480167">
        <ele>1272.0</ele>
        <time>2018-05-26T11:02:31.707Z</time>
      </trkpt>
      <trkpt lat="40.74956333" lon="-4.16484">
        <ele>1272.0</ele>
        <time>2018-05-26T11:02:32.677Z</time>
      </trkpt>
      <trkpt lat="40.74956333" lon="-4.16484">
        <ele>1272.0</ele>
        <time>2018-05-26T11:02:33.706Z</time>
      </trkpt>
      <trkpt lat="40.74956667" lon="-4.16491833">
        <ele>1273.0</ele>
        <time>2018-05-26T11:02:34.701Z</time>
      </trkpt>
      <trkpt lat="40.74956667" lon="-4.16491833">
        <ele>1273.0</ele>
        <time>2018-05-26T11:02:35.703Z</time>
      </trkpt>
      <trkpt lat="40.749575" lon="-4.16499667">
        <ele>1273.0</ele>
        <time>2018-05-26T11:02:36.707Z</time>
      </trkpt>
      <trkpt lat="40.749575" lon="-4.16499667">
        <ele>1273.0</ele>
        <time>2018-05-26T11:02:37.705Z</time>
      </trkpt>
      <trkpt lat="40.74958667" lon="-4.16506833">
        <ele>1273.0</ele>
        <time>2018-05-26T11:02:38.706Z</time>
      </trkpt>
      <trkpt lat="40.74958667" lon="-4.16506833">
        <ele>1273.0</ele>
        <time>2018-05-26T11:02:39.704Z</time>
      </trkpt>
      <trkpt lat="40.74960333" lon="-4.165145">
        <ele>1273.0</ele>
        <time>2018-05-26T11:02:40.714Z</time>
      </trkpt>
      <trkpt lat="40.74960333" lon="-4.165145">
        <ele>1273.0</ele>
        <time>2018-05-26T11:02:41.705Z</time>
      </trkpt>
      <trkpt lat="40.74962167" lon="-4.16521667">
        <ele>1274.0</ele>
        <time>2018-05-26T11:02:42.708Z</time>
      </trkpt>
      <trkpt lat="40.74962167" lon="-4.16521667">
        <ele>1274.0</ele>
        <time>2018-05-26T11:02:43.698Z</time>
      </trkpt>
      <trkpt lat="40.74964" lon="-4.16529333">
        <ele>1274.0</ele>
        <time>2018-05-26T11:02:44.680Z</time>
      </trkpt>
      <trkpt lat="40.74964" lon="-4.16529333">
        <ele>1274.0</ele>
        <time>2018-05-26T11:02:45.708Z</time>
      </trkpt>
      <trkpt lat="40.74965333" lon="-4.16537167">
        <ele>1274.0</ele>
        <time>2018-05-26T11:02:46.706Z</time>
      </trkpt>
      <trkpt lat="40.74965333" lon="-4.16537167">
        <ele>1274.0</ele>
        <time>2018-05-26T11:02:47.704Z</time>
      </trkpt>
      <trkpt lat="40.74966333" lon="-4.16545">
        <ele>1274.0</ele>
        <time>2018-05-26T11:02:48.708Z</time>
      </trkpt>
      <trkpt lat="40.74966333" lon="-4.16545">
        <ele>1274.0</ele>
        <time>2018-05-26T11:02:49.703Z</time>
      </trkpt>
      <trkpt lat="40.74967833" lon="-4.16553333">
        <ele>1274.0</ele>
        <time>2018-05-26T11:02:50.706Z</time>
      </trkpt>
      <trkpt lat="40.74967833" lon="-4.16553333">
        <ele>1274.0</ele>
        <time>2018-05-26T11:02:51.704Z</time>
      </trkpt>
      <trkpt lat="40.74968833" lon="-4.16562333">
        <ele>1274.0</ele>
        <time>2018-05-26T11:02:52.709Z</time>
      </trkpt>
      <trkpt lat="40.74968833" lon="-4.16562333">
        <ele>1274.0</ele>
        <time>2018-05-26T11:02:53.703Z</time>
      </trkpt>
      <trkpt lat="40.74968833" lon="-4.16571167">
        <ele>1275.0</ele>
        <time>2018-05-26T11:02:54.708Z</time>
      </trkpt>
      <trkpt lat="40.74968833" lon="-4.16571167">
        <ele>1275.0</ele>
        <time>2018-05-26T11:02:55.705Z</time>
      </trkpt>
      <trkpt lat="40.74969" lon="-4.16579833">
        <ele>1275.0</ele>
        <time>2018-05-26T11:02:56.704Z</time>
      </trkpt>
      <trkpt lat="40.74969167" lon="-4.16584167">
        <ele>1275.0</ele>
        <time>2018-05-26T11:02:57.708Z</time>
      </trkpt>
      <trkpt lat="40.74969167" lon="-4.16584167">
        <ele>1275.0</ele>
        <time>2018-05-26T11:02:58.705Z</time>
      </trkpt>
      <trkpt lat="40.749695" lon="-4.16592">
        <ele>1275.0</ele>
        <time>2018-05-26T11:02:59.706Z</time>
      </trkpt>
      <trkpt lat="40.7497" lon="-4.16596">
        <ele>1275.0</ele>
        <time>2018-05-26T11:03:00.708Z</time>
      </trkpt>
      <trkpt lat="40.7497" lon="-4.16596">
        <ele>1275.0</ele>
        <time>2018-05-26T11:03:01.701Z</time>
      </trkpt>
      <trkpt lat="40.74970833" lon="-4.16604833">
        <ele>1275.0</ele>
        <time>2018-05-26T11:03:02.707Z</time>
      </trkpt>
      <trkpt lat="40.74971333" lon="-4.16609667">
        <ele>1275.0</ele>
        <time>2018-05-26T11:03:03.706Z</time>
      </trkpt>
      <trkpt lat="40.74971833" lon="-4.16614667">
        <ele>1275.0</ele>
        <time>2018-05-26T11:03:04.706Z</time>
      </trkpt>
      <trkpt lat="40.74971833" lon="-4.16614667">
        <ele>1275.0</ele>
        <time>2018-05-26T11:03:05.705Z</time>
      </trkpt>
      <trkpt lat="40.74972333" lon="-4.166255">
        <ele>1275.0</ele>
        <time>2018-05-26T11:03:06.706Z</time>
      </trkpt>
      <trkpt lat="40.74972333" lon="-4.166255">
        <ele>1275.0</ele>
        <time>2018-05-26T11:03:07.707Z</time>
      </trkpt>
      <trkpt lat="40.74972667" lon="-4.16636833">
        <ele>1274.0</ele>
        <time>2018-05-26T11:03:08.707Z</time>
      </trkpt>
      <trkpt lat="40.74972667" lon="-4.16636833">
        <ele>1274.0</ele>
        <time>2018-05-26T11:03:09.705Z</time>
      </trkpt>
      <trkpt lat="40.749735" lon="-4.16648">
        <ele>1274.0</ele>
        <time>2018-05-26T11:03:10.675Z</time>
      </trkpt>
      <trkpt lat="40.749735" lon="-4.16648">
        <ele>1274.0</ele>
        <time>2018-05-26T11:03:11.705Z</time>
      </trkpt>
      <trkpt lat="40.74974667" lon="-4.16659333">
        <ele>1274.0</ele>
        <time>2018-05-26T11:03:12.709Z</time>
      </trkpt>
      <trkpt lat="40.74974667" lon="-4.16659333">
        <ele>1274.0</ele>
        <time>2018-05-26T11:03:13.702Z</time>
      </trkpt>
      <trkpt lat="40.74973333" lon="-4.16670667">
        <ele>1273.0</ele>
        <time>2018-05-26T11:03:14.707Z</time>
      </trkpt>
      <trkpt lat="40.74973333" lon="-4.16670667">
        <ele>1273.0</ele>
        <time>2018-05-26T11:03:15.707Z</time>
      </trkpt>
      <trkpt lat="40.74968333" lon="-4.16679">
        <ele>1273.0</ele>
        <time>2018-05-26T11:03:16.706Z</time>
      </trkpt>
      <trkpt lat="40.74968333" lon="-4.16679">
        <ele>1273.0</ele>
        <time>2018-05-26T11:03:17.705Z</time>
      </trkpt>
      <trkpt lat="40.74961667" lon="-4.16682167">
        <ele>1273.0</ele>
        <time>2018-05-26T11:03:18.708Z</time>
      </trkpt>
      <trkpt lat="40.74961667" lon="-4.16682167">
        <ele>1273.0</ele>
        <time>2018-05-26T11:03:19.703Z</time>
      </trkpt>
      <trkpt lat="40.74954333" lon="-4.16683833">
        <ele>1272.0</ele>
        <time>2018-05-26T11:03:20.706Z</time>
      </trkpt>
      <trkpt lat="40.74954333" lon="-4.16683833">
        <ele>1272.0</ele>
        <time>2018-05-26T11:03:21.709Z</time>
      </trkpt>
      <trkpt lat="40.74946167" lon="-4.16686">
        <ele>1271.0</ele>
        <time>2018-05-26T11:03:22.708Z</time>
      </trkpt>
      <trkpt lat="40.74946167" lon="-4.16686">
        <ele>1271.0</ele>
        <time>2018-05-26T11:03:23.704Z</time>
      </trkpt>
      <trkpt lat="40.74937" lon="-4.166885">
        <ele>1270.0</ele>
        <time>2018-05-26T11:03:24.708Z</time>
      </trkpt>
      <trkpt lat="40.74937" lon="-4.166885">
        <ele>1270.0</ele>
        <time>2018-05-26T11:03:25.703Z</time>
      </trkpt>
      <trkpt lat="40.74928667" lon="-4.16689333">
        <ele>1269.0</ele>
        <time>2018-05-26T11:03:26.706Z</time>
      </trkpt>
      <trkpt lat="40.74928667" lon="-4.16689333">
        <ele>1269.0</ele>
        <time>2018-05-26T11:03:27.704Z</time>
      </trkpt>
      <trkpt lat="40.74921" lon="-4.16687667">
        <ele>1268.0</ele>
        <time>2018-05-26T11:03:28.706Z</time>
      </trkpt>
      <trkpt lat="40.74921" lon="-4.16687667">
        <ele>1268.0</ele>
        <time>2018-05-26T11:03:29.702Z</time>
      </trkpt>
      <trkpt lat="40.74914333" lon="-4.16684667">
        <ele>1268.0</ele>
        <time>2018-05-26T11:03:30.708Z</time>
      </trkpt>
      <trkpt lat="40.74914333" lon="-4.16684667">
        <ele>1268.0</ele>
        <time>2018-05-26T11:03:31.703Z</time>
      </trkpt>
      <trkpt lat="40.749075" lon="-4.166825">
        <ele>1268.0</ele>
        <time>2018-05-26T11:03:32.706Z</time>
      </trkpt>
      <trkpt lat="40.74903667" lon="-4.16682167">
        <ele>1268.0</ele>
        <time>2018-05-26T11:03:33.704Z</time>
      </trkpt>
      <trkpt lat="40.749" lon="-4.16681333">
        <ele>1268.0</ele>
        <time>2018-05-26T11:03:34.695Z</time>
      </trkpt>
      <trkpt lat="40.749" lon="-4.16681333">
        <ele>1268.0</ele>
        <time>2018-05-26T11:03:35.677Z</time>
      </trkpt>
      <trkpt lat="40.74893167" lon="-4.1668">
        <ele>1268.0</ele>
        <time>2018-05-26T11:03:36.708Z</time>
      </trkpt>
      <trkpt lat="40.74893167" lon="-4.1668">
        <ele>1268.0</ele>
        <time>2018-05-26T11:03:37.705Z</time>
      </trkpt>
      <trkpt lat="40.74886333" lon="-4.16679833">
        <ele>1268.0</ele>
        <time>2018-05-26T11:03:38.707Z</time>
      </trkpt>
      <trkpt lat="40.74883333" lon="-4.166805">
        <ele>1267.0</ele>
        <time>2018-05-26T11:03:39.713Z</time>
      </trkpt>
      <trkpt lat="40.74883333" lon="-4.166805">
        <ele>1267.0</ele>
        <time>2018-05-26T11:03:40.706Z</time>
      </trkpt>
      <trkpt lat="40.74877" lon="-4.16682833">
        <ele>1267.0</ele>
        <time>2018-05-26T11:03:41.676Z</time>
      </trkpt>
      <trkpt lat="40.74873667" lon="-4.16684667">
        <ele>1267.0</ele>
        <time>2018-05-26T11:03:42.708Z</time>
      </trkpt>
      <trkpt lat="40.74873667" lon="-4.16684667">
        <ele>1267.0</ele>
        <time>2018-05-26T11:03:43.703Z</time>
      </trkpt>
      <trkpt lat="40.748675" lon="-4.16689333">
        <ele>1267.0</ele>
        <time>2018-05-26T11:03:44.707Z</time>
      </trkpt>
      <trkpt lat="40.748675" lon="-4.16689333">
        <ele>1267.0</ele>
        <time>2018-05-26T11:03:45.704Z</time>
      </trkpt>
      <trkpt lat="40.74862167" lon="-4.16696">
        <ele>1267.0</ele>
        <time>2018-05-26T11:03:46.705Z</time>
      </trkpt>
      <trkpt lat="40.74862167" lon="-4.16696">
        <ele>1267.0</ele>
        <time>2018-05-26T11:03:47.702Z</time>
      </trkpt>
      <trkpt lat="40.74858" lon="-4.16703333">
        <ele>1268.0</ele>
        <time>2018-05-26T11:03:48.708Z</time>
      </trkpt>
      <trkpt lat="40.74858" lon="-4.16703333">
        <ele>1268.0</ele>
        <time>2018-05-26T11:03:49.703Z</time>
      </trkpt>
      <trkpt lat="40.748535" lon="-4.16712167">
        <ele>1268.0</ele>
        <time>2018-05-26T11:03:50.706Z</time>
      </trkpt>
      <trkpt lat="40.748535" lon="-4.16712167">
        <ele>1268.0</ele>
        <time>2018-05-26T11:03:51.697Z</time>
      </trkpt>
      <trkpt lat="40.74848333" lon="-4.16717833">
        <ele>1268.0</ele>
        <time>2018-05-26T11:03:52.709Z</time>
      </trkpt>
      <trkpt lat="40.74848333" lon="-4.16717833">
        <ele>1268.0</ele>
        <time>2018-05-26T11:03:53.704Z</time>
      </trkpt>
      <trkpt lat="40.748435" lon="-4.167265">
        <ele>1269.0</ele>
        <time>2018-05-26T11:03:54.708Z</time>
      </trkpt>
      <trkpt lat="40.748435" lon="-4.167265">
        <ele>1269.0</ele>
        <time>2018-05-26T11:03:55.706Z</time>
      </trkpt>
      <trkpt lat="40.748375" lon="-4.16733667">
        <ele>1269.0</ele>
        <time>2018-05-26T11:03:56.705Z</time>
      </trkpt>
      <trkpt lat="40.748375" lon="-4.16733667">
        <ele>1269.0</ele>
        <time>2018-05-26T11:03:57.702Z</time>
      </trkpt>
      <trkpt lat="40.748315" lon="-4.16740833">
        <ele>1270.0</ele>
        <time>2018-05-26T11:03:58.676Z</time>
      </trkpt>
      <trkpt lat="40.748315" lon="-4.16740833">
        <ele>1270.0</ele>
        <time>2018-05-26T11:03:59.706Z</time>
      </trkpt>
      <trkpt lat="40.748255" lon="-4.167475">
        <ele>1271.0</ele>
        <time>2018-05-26T11:04:00.709Z</time>
      </trkpt>
      <trkpt lat="40.748255" lon="-4.167475">
        <ele>1271.0</ele>
        <time>2018-05-26T11:04:01.699Z</time>
      </trkpt>
      <trkpt lat="40.74818" lon="-4.16756333">
        <ele>1271.0</ele>
        <time>2018-05-26T11:04:02.707Z</time>
      </trkpt>
      <trkpt lat="40.74818" lon="-4.16756333">
        <ele>1271.0</ele>
        <time>2018-05-26T11:04:03.704Z</time>
      </trkpt>
      <trkpt lat="40.74810667" lon="-4.16765833">
        <ele>1272.0</ele>
        <time>2018-05-26T11:04:04.706Z</time>
      </trkpt>
      <trkpt lat="40.74810667" lon="-4.16765833">
        <ele>1272.0</ele>
        <time>2018-05-26T11:04:05.705Z</time>
      </trkpt>
      <trkpt lat="40.74803" lon="-4.16777333">
        <ele>1272.0</ele>
        <time>2018-05-26T11:04:06.708Z</time>
      </trkpt>
      <trkpt lat="40.74803" lon="-4.16777333">
        <ele>1272.0</ele>
        <time>2018-05-26T11:04:07.684Z</time>
      </trkpt>
      <trkpt lat="40.74794833" lon="-4.16790833">
        <ele>1272.0</ele>
        <time>2018-05-26T11:04:08.707Z</time>
      </trkpt>
      <trkpt lat="40.74794833" lon="-4.16790833">
        <ele>1272.0</ele>
        <time>2018-05-26T11:04:09.705Z</time>
      </trkpt>
      <trkpt lat="40.74786667" lon="-4.168045">
        <ele>1272.0</ele>
        <time>2018-05-26T11:04:10.676Z</time>
      </trkpt>
      <trkpt lat="40.74786667" lon="-4.168045">
        <ele>1272.0</ele>
        <time>2018-05-26T11:04:11.705Z</time>
      </trkpt>
      <trkpt lat="40.74779167" lon="-4.168195">
        <ele>1273.0</ele>
        <time>2018-05-26T11:04:12.712Z</time>
      </trkpt>
      <trkpt lat="40.74779167" lon="-4.168195">
        <ele>1273.0</ele>
        <time>2018-05-26T11:04:13.705Z</time>
      </trkpt>
      <trkpt lat="40.74773167" lon="-4.16837167">
        <ele>1273.0</ele>
        <time>2018-05-26T11:04:14.707Z</time>
      </trkpt>
      <trkpt lat="40.74773167" lon="-4.16837167">
        <ele>1273.0</ele>
        <time>2018-05-26T11:04:15.703Z</time>
      </trkpt>
      <trkpt lat="40.74769167" lon="-4.16856">
        <ele>1273.0</ele>
        <time>2018-05-26T11:04:16.708Z</time>
      </trkpt>
      <trkpt lat="40.74769167" lon="-4.16856">
        <ele>1273.0</ele>
        <time>2018-05-26T11:04:17.704Z</time>
      </trkpt>
      <trkpt lat="40.747655" lon="-4.16875">
        <ele>1273.0</ele>
        <time>2018-05-26T11:04:18.707Z</time>
      </trkpt>
      <trkpt lat="40.747655" lon="-4.16875">
        <ele>1273.0</ele>
        <time>2018-05-26T11:04:19.702Z</time>
      </trkpt>
      <trkpt lat="40.74763833" lon="-4.16894">
        <ele>1273.0</ele>
        <time>2018-05-26T11:04:20.680Z</time>
      </trkpt>
      <trkpt lat="40.74763833" lon="-4.16894">
        <ele>1273.0</ele>
        <time>2018-05-26T11:04:21.710Z</time>
      </trkpt>
      <trkpt lat="40.74762333" lon="-4.16914">
        <ele>1273.0</ele>
        <time>2018-05-26T11:04:22.707Z</time>
      </trkpt>
      <trkpt lat="40.74762333" lon="-4.16914">
        <ele>1273.0</ele>
        <time>2018-05-26T11:04:23.705Z</time>
      </trkpt>
      <trkpt lat="40.74759667" lon="-4.16933667">
        <ele>1273.0</ele>
        <time>2018-05-26T11:04:24.708Z</time>
      </trkpt>
      <trkpt lat="40.74759667" lon="-4.16933667">
        <ele>1273.0</ele>
        <time>2018-05-26T11:04:25.702Z</time>
      </trkpt>
      <trkpt lat="40.74754833" lon="-4.16953">
        <ele>1273.0</ele>
        <time>2018-05-26T11:04:26.707Z</time>
      </trkpt>
      <trkpt lat="40.74754833" lon="-4.16953">
        <ele>1273.0</ele>
        <time>2018-05-26T11:04:27.704Z</time>
      </trkpt>
      <trkpt lat="40.74746167" lon="-4.16973167">
        <ele>1272.0</ele>
        <time>2018-05-26T11:04:28.707Z</time>
      </trkpt>
      <trkpt lat="40.74746167" lon="-4.16973167">
        <ele>1272.0</ele>
        <time>2018-05-26T11:04:29.704Z</time>
      </trkpt>
      <trkpt lat="40.74737333" lon="-4.16992833">
        <ele>1271.0</ele>
        <time>2018-05-26T11:04:30.675Z</time>
      </trkpt>
      <trkpt lat="40.74737333" lon="-4.16992833">
        <ele>1271.0</ele>
        <time>2018-05-26T11:04:31.704Z</time>
      </trkpt>
      <trkpt lat="40.747295" lon="-4.17014833">
        <ele>1270.0</ele>
        <time>2018-05-26T11:04:32.713Z</time>
      </trkpt>
      <trkpt lat="40.747295" lon="-4.17014833">
        <ele>1270.0</ele>
        <time>2018-05-26T11:04:33.704Z</time>
      </trkpt>
      <trkpt lat="40.74725667" lon="-4.17037">
        <ele>1269.0</ele>
        <time>2018-05-26T11:04:34.710Z</time>
      </trkpt>
      <trkpt lat="40.74725667" lon="-4.17037">
        <ele>1269.0</ele>
        <time>2018-05-26T11:04:35.704Z</time>
      </trkpt>
      <trkpt lat="40.74723333" lon="-4.17057667">
        <ele>1268.0</ele>
        <time>2018-05-26T11:04:36.708Z</time>
      </trkpt>
      <trkpt lat="40.74723333" lon="-4.17057667">
        <ele>1268.0</ele>
        <time>2018-05-26T11:04:37.702Z</time>
      </trkpt>
      <trkpt lat="40.74723833" lon="-4.170765">
        <ele>1266.0</ele>
        <time>2018-05-26T11:04:38.708Z</time>
      </trkpt>
      <trkpt lat="40.74723833" lon="-4.170765">
        <ele>1266.0</ele>
        <time>2018-05-26T11:04:39.704Z</time>
      </trkpt>
      <trkpt lat="40.747255" lon="-4.17091833">
        <ele>1266.0</ele>
        <time>2018-05-26T11:04:40.707Z</time>
      </trkpt>
      <trkpt lat="40.747255" lon="-4.17091833">
        <ele>1266.0</ele>
        <time>2018-05-26T11:04:41.704Z</time>
      </trkpt>
      <trkpt lat="40.74725167" lon="-4.17105833">
        <ele>1266.0</ele>
        <time>2018-05-26T11:04:42.708Z</time>
      </trkpt>
      <trkpt lat="40.74725167" lon="-4.17105833">
        <ele>1266.0</ele>
        <time>2018-05-26T11:04:43.704Z</time>
      </trkpt>
      <trkpt lat="40.74723667" lon="-4.17119167">
        <ele>1265.0</ele>
        <time>2018-05-26T11:04:44.707Z</time>
      </trkpt>
      <trkpt lat="40.74723667" lon="-4.17119167">
        <ele>1265.0</ele>
        <time>2018-05-26T11:04:45.705Z</time>
      </trkpt>
      <trkpt lat="40.74723667" lon="-4.17132667">
        <ele>1264.0</ele>
        <time>2018-05-26T11:04:46.709Z</time>
      </trkpt>
      <trkpt lat="40.74723667" lon="-4.17132667">
        <ele>1264.0</ele>
        <time>2018-05-26T11:04:47.703Z</time>
      </trkpt>
      <trkpt lat="40.74725667" lon="-4.17146833">
        <ele>1264.0</ele>
        <time>2018-05-26T11:04:48.705Z</time>
      </trkpt>
      <trkpt lat="40.74725667" lon="-4.17146833">
        <ele>1264.0</ele>
        <time>2018-05-26T11:04:49.704Z</time>
      </trkpt>
      <trkpt lat="40.74729" lon="-4.17162">
        <ele>1263.0</ele>
        <time>2018-05-26T11:04:50.707Z</time>
      </trkpt>
      <trkpt lat="40.74729" lon="-4.17162">
        <ele>1263.0</ele>
        <time>2018-05-26T11:04:51.702Z</time>
      </trkpt>
      <trkpt lat="40.74732833" lon="-4.17176">
        <ele>1261.0</ele>
        <time>2018-05-26T11:04:52.707Z</time>
      </trkpt>
      <trkpt lat="40.74732833" lon="-4.17176">
        <ele>1261.0</ele>
        <time>2018-05-26T11:04:53.704Z</time>
      </trkpt>
      <trkpt lat="40.74736667" lon="-4.17189667">
        <ele>1261.0</ele>
        <time>2018-05-26T11:04:54.706Z</time>
      </trkpt>
      <trkpt lat="40.74738333" lon="-4.17196833">
        <ele>1260.0</ele>
        <time>2018-05-26T11:04:55.704Z</time>
      </trkpt>
      <trkpt lat="40.74738333" lon="-4.17196833">
        <ele>1260.0</ele>
        <time>2018-05-26T11:04:56.702Z</time>
      </trkpt>
      <trkpt lat="40.74739667" lon="-4.17209833">
        <ele>1260.0</ele>
        <time>2018-05-26T11:04:57.706Z</time>
      </trkpt>
      <trkpt lat="40.74739667" lon="-4.17209833">
        <ele>1260.0</ele>
        <time>2018-05-26T11:04:58.705Z</time>
      </trkpt>
      <trkpt lat="40.74738833" lon="-4.17219">
        <ele>1259.0</ele>
        <time>2018-05-26T11:04:59.707Z</time>
      </trkpt>
      <trkpt lat="40.74738833" lon="-4.17219">
        <ele>1259.0</ele>
        <time>2018-05-26T11:05:00.704Z</time>
      </trkpt>
      <trkpt lat="40.74738167" lon="-4.17229">
        <ele>1259.0</ele>
        <time>2018-05-26T11:05:01.705Z</time>
      </trkpt>
      <trkpt lat="40.74738167" lon="-4.17229">
        <ele>1259.0</ele>
        <time>2018-05-26T11:05:02.704Z</time>
      </trkpt>
      <trkpt lat="40.74739" lon="-4.17239333">
        <ele>1258.0</ele>
        <time>2018-05-26T11:05:03.706Z</time>
      </trkpt>
      <trkpt lat="40.74739667" lon="-4.17244333">
        <ele>1258.0</ele>
        <time>2018-05-26T11:05:04.709Z</time>
      </trkpt>
      <trkpt lat="40.74739667" lon="-4.17244333">
        <ele>1258.0</ele>
        <time>2018-05-26T11:05:05.704Z</time>
      </trkpt>
      <trkpt lat="40.74741" lon="-4.17253667">
        <ele>1258.0</ele>
        <time>2018-05-26T11:05:06.705Z</time>
      </trkpt>
      <trkpt lat="40.74741" lon="-4.17253667">
        <ele>1258.0</ele>
        <time>2018-05-26T11:05:07.704Z</time>
      </trkpt>
      <trkpt lat="40.747425" lon="-4.172635">
        <ele>1258.0</ele>
        <time>2018-05-26T11:05:08.680Z</time>
      </trkpt>
      <trkpt lat="40.747425" lon="-4.172635">
        <ele>1258.0</ele>
        <time>2018-05-26T11:05:09.708Z</time>
      </trkpt>
      <trkpt lat="40.74744" lon="-4.17273667">
        <ele>1258.0</ele>
        <time>2018-05-26T11:05:10.675Z</time>
      </trkpt>
      <trkpt lat="40.74744" lon="-4.17273667">
        <ele>1258.0</ele>
        <time>2018-05-26T11:05:11.706Z</time>
      </trkpt>
      <trkpt lat="40.74745667" lon="-4.17283">
        <ele>1258.0</ele>
        <time>2018-05-26T11:05:12.708Z</time>
      </trkpt>
      <trkpt lat="40.74745667" lon="-4.17283">
        <ele>1258.0</ele>
        <time>2018-05-26T11:05:13.703Z</time>
      </trkpt>
      <trkpt lat="40.747475" lon="-4.17292">
        <ele>1258.0</ele>
        <time>2018-05-26T11:05:14.707Z</time>
      </trkpt>
      <trkpt lat="40.747485" lon="-4.17296333">
        <ele>1259.0</ele>
        <time>2018-05-26T11:05:15.707Z</time>
      </trkpt>
      <trkpt lat="40.74749667" lon="-4.17300167">
        <ele>1259.0</ele>
        <time>2018-05-26T11:05:16.706Z</time>
      </trkpt>
      <trkpt lat="40.74749667" lon="-4.17300167">
        <ele>1259.0</ele>
        <time>2018-05-26T11:05:17.705Z</time>
      </trkpt>
      <trkpt lat="40.74751833" lon="-4.17307667">
        <ele>1259.0</ele>
        <time>2018-05-26T11:05:18.707Z</time>
      </trkpt>
      <trkpt lat="40.74753" lon="-4.17311333">
        <ele>1259.0</ele>
        <time>2018-05-26T11:05:19.706Z</time>
      </trkpt>
      <trkpt lat="40.74753" lon="-4.17311333">
        <ele>1259.0</ele>
        <time>2018-05-26T11:05:20.704Z</time>
      </trkpt>
      <trkpt lat="40.74756" lon="-4.173185">
        <ele>1259.0</ele>
        <time>2018-05-26T11:05:21.708Z</time>
      </trkpt>
      <trkpt lat="40.74756" lon="-4.173185">
        <ele>1259.0</ele>
        <time>2018-05-26T11:05:22.706Z</time>
      </trkpt>
      <trkpt lat="40.74760167" lon="-4.17325667">
        <ele>1260.0</ele>
        <time>2018-05-26T11:05:23.707Z</time>
      </trkpt>
      <trkpt lat="40.74761833" lon="-4.17329">
        <ele>1260.0</ele>
        <time>2018-05-26T11:05:24.708Z</time>
      </trkpt>
      <trkpt lat="40.74761833" lon="-4.17329">
        <ele>1260.0</ele>
        <time>2018-05-26T11:05:25.705Z</time>
      </trkpt>
      <trkpt lat="40.74765" lon="-4.17335167">
        <ele>1260.0</ele>
        <time>2018-05-26T11:05:26.707Z</time>
      </trkpt>
      <trkpt lat="40.74765" lon="-4.17335167">
        <ele>1260.0</ele>
        <time>2018-05-26T11:05:27.704Z</time>
      </trkpt>
      <trkpt lat="40.74767667" lon="-4.173415">
        <ele>1260.0</ele>
        <time>2018-05-26T11:05:28.706Z</time>
      </trkpt>
      <trkpt lat="40.74767667" lon="-4.173415">
        <ele>1260.0</ele>
        <time>2018-05-26T11:05:29.703Z</time>
      </trkpt>
      <trkpt lat="40.74771167" lon="-4.17349333">
        <ele>1260.0</ele>
        <time>2018-05-26T11:05:30.708Z</time>
      </trkpt>
      <trkpt lat="40.74771167" lon="-4.17349333">
        <ele>1260.0</ele>
        <time>2018-05-26T11:05:31.698Z</time>
      </trkpt>
      <trkpt lat="40.74774333" lon="-4.17356667">
        <ele>1260.0</ele>
        <time>2018-05-26T11:05:32.711Z</time>
      </trkpt>
      <trkpt lat="40.74774333" lon="-4.17356667">
        <ele>1260.0</ele>
        <time>2018-05-26T11:05:33.704Z</time>
      </trkpt>
      <trkpt lat="40.74776833" lon="-4.17363667">
        <ele>1260.0</ele>
        <time>2018-05-26T11:05:34.709Z</time>
      </trkpt>
      <trkpt lat="40.74776833" lon="-4.17363667">
        <ele>1260.0</ele>
        <time>2018-05-26T11:05:35.698Z</time>
      </trkpt>
      <trkpt lat="40.74779333" lon="-4.17371833">
        <ele>1260.0</ele>
        <time>2018-05-26T11:05:36.682Z</time>
      </trkpt>
      <trkpt lat="40.74780333" lon="-4.17376167">
        <ele>1260.0</ele>
        <time>2018-05-26T11:05:37.714Z</time>
      </trkpt>
      <trkpt lat="40.74780333" lon="-4.17376167">
        <ele>1260.0</ele>
        <time>2018-05-26T11:05:38.704Z</time>
      </trkpt>
      <trkpt lat="40.74782833" lon="-4.17384167">
        <ele>1260.0</ele>
        <time>2018-05-26T11:05:39.706Z</time>
      </trkpt>
      <trkpt lat="40.74784333" lon="-4.17388">
        <ele>1260.0</ele>
        <time>2018-05-26T11:05:40.709Z</time>
      </trkpt>
      <trkpt lat="40.74784333" lon="-4.17388">
        <ele>1260.0</ele>
        <time>2018-05-26T11:05:41.714Z</time>
      </trkpt>
      <trkpt lat="40.747875" lon="-4.17395167">
        <ele>1260.0</ele>
        <time>2018-05-26T11:05:42.706Z</time>
      </trkpt>
      <trkpt lat="40.74789167" lon="-4.173985">
        <ele>1260.0</ele>
        <time>2018-05-26T11:05:43.708Z</time>
      </trkpt>
      <trkpt lat="40.74789167" lon="-4.173985">
        <ele>1260.0</ele>
        <time>2018-05-26T11:05:44.704Z</time>
      </trkpt>
      <trkpt lat="40.74792667" lon="-4.174045">
        <ele>1260.0</ele>
        <time>2018-05-26T11:05:45.707Z</time>
      </trkpt>
      <trkpt lat="40.74794667" lon="-4.174065">
        <ele>1260.0</ele>
        <time>2018-05-26T11:05:46.705Z</time>
      </trkpt>
      <trkpt lat="40.74794667" lon="-4.174065">
        <ele>1260.0</ele>
        <time>2018-05-26T11:05:47.702Z</time>
      </trkpt>
      <trkpt lat="40.74797667" lon="-4.17409333">
        <ele>1259.0</ele>
        <time>2018-05-26T11:05:48.709Z</time>
      </trkpt>
      <trkpt lat="40.74797667" lon="-4.17409333">
        <ele>1259.0</ele>
        <time>2018-05-26T11:05:49.705Z</time>
      </trkpt>
      <trkpt lat="40.74797667" lon="-4.17409833">
        <ele>1259.0</ele>
        <time>2018-05-26T11:05:50.675Z</time>
      </trkpt>
      <trkpt lat="40.74797667" lon="-4.17409833">
        <ele>1259.0</ele>
        <time>2018-05-26T11:05:51.706Z</time>
      </trkpt>
      <trkpt lat="40.74797667" lon="-4.17409833">
        <ele>1259.0</ele>
        <time>2018-05-26T11:05:52.713Z</time>
      </trkpt>
      <trkpt lat="40.74797667" lon="-4.17409833">
        <ele>1259.0</ele>
        <time>2018-05-26T11:05:53.687Z</time>
      </trkpt>
      <trkpt lat="40.74797667" lon="-4.17409833">
        <ele>1259.0</ele>
        <time>2018-05-26T11:05:54.700Z</time>
      </trkpt>
      <trkpt lat="40.74797667" lon="-4.17409833">
        <ele>1259.0</ele>
        <time>2018-05-26T11:05:55.711Z</time>
      </trkpt>
      <trkpt lat="40.74797667" lon="-4.17409833">
        <ele>1259.0</ele>
        <time>2018-05-26T11:05:56.707Z</time>
      </trkpt>
      <trkpt lat="40.74797667" lon="-4.17409833">
        <ele>1259.0</ele>
        <time>2018-05-26T11:05:57.675Z</time>
      </trkpt>
      <trkpt lat="40.74797667" lon="-4.17409833">
        <ele>1259.0</ele>
        <time>2018-05-26T11:05:58.699Z</time>
      </trkpt>
      <trkpt lat="40.74797667" lon="-4.17409833">
        <ele>1259.0</ele>
        <time>2018-05-26T11:05:59.708Z</time>
      </trkpt>
      <trkpt lat="40.74797667" lon="-4.17409833">
        <ele>1259.0</ele>
        <time>2018-05-26T11:06:00.706Z</time>
      </trkpt>
      <trkpt lat="40.74797667" lon="-4.17409833">
        <ele>1259.0</ele>
        <time>2018-05-26T11:06:01.713Z</time>
      </trkpt>
      <trkpt lat="40.74797667" lon="-4.17409833">
        <ele>1259.0</ele>
        <time>2018-05-26T11:06:02.681Z</time>
      </trkpt>
      <trkpt lat="40.74797667" lon="-4.17409833">
        <ele>1259.0</ele>
        <time>2018-05-26T11:06:03.702Z</time>
      </trkpt>
      <trkpt lat="40.74797667" lon="-4.17409833">
        <ele>1259.0</ele>
        <time>2018-05-26T11:06:04.692Z</time>
      </trkpt>
      <trkpt lat="40.74797667" lon="-4.17409833">
        <ele>1259.0</ele>
        <time>2018-05-26T11:06:05.678Z</time>
      </trkpt>
      <trkpt lat="40.74797667" lon="-4.17409833">
        <ele>1259.0</ele>
        <time>2018-05-26T11:06:06.695Z</time>
      </trkpt>
      <trkpt lat="40.74797667" lon="-4.17409833">
        <ele>1259.0</ele>
        <time>2018-05-26T11:06:07.711Z</time>
      </trkpt>
      <trkpt lat="40.74797667" lon="-4.17409833">
        <ele>1259.0</ele>
        <time>2018-05-26T11:06:08.699Z</time>
      </trkpt>
      <trkpt lat="40.74797667" lon="-4.17409833">
        <ele>1259.0</ele>
        <time>2018-05-26T11:06:09.693Z</time>
      </trkpt>
      <trkpt lat="40.74797667" lon="-4.17409833">
        <ele>1259.0</ele>
        <time>2018-05-26T11:06:10.676Z</time>
      </trkpt>
      <trkpt lat="40.74797667" lon="-4.17409833">
        <ele>1259.0</ele>
        <time>2018-05-26T11:06:11.682Z</time>
      </trkpt>
      <trkpt lat="40.74797667" lon="-4.17409833">
        <ele>1259.0</ele>
        <time>2018-05-26T11:06:12.692Z</time>
      </trkpt>
      <trkpt lat="40.74797667" lon="-4.17409833">
        <ele>1259.0</ele>
        <time>2018-05-26T11:06:13.680Z</time>
      </trkpt>
      <trkpt lat="40.74797667" lon="-4.17409833">
        <ele>1259.0</ele>
        <time>2018-05-26T11:06:14.691Z</time>
      </trkpt>
      <trkpt lat="40.74797667" lon="-4.17409833">
        <ele>1259.0</ele>
        <time>2018-05-26T11:06:15.685Z</time>
      </trkpt>
      <trkpt lat="40.74797667" lon="-4.17409833">
        <ele>1259.0</ele>
        <time>2018-05-26T11:06:16.676Z</time>
      </trkpt>
      <trkpt lat="40.74797667" lon="-4.17409833">
        <ele>1259.0</ele>
        <time>2018-05-26T11:06:17.683Z</time>
      </trkpt>
      <trkpt lat="40.74797667" lon="-4.17409833">
        <ele>1259.0</ele>
        <time>2018-05-26T11:06:18.715Z</time>
      </trkpt>
      <trkpt lat="40.74797667" lon="-4.17409833">
        <ele>1259.0</ele>
        <time>2018-05-26T11:06:19.677Z</time>
      </trkpt>
      <trkpt lat="40.74797667" lon="-4.17409833">
        <ele>1259.0</ele>
        <time>2018-05-26T11:06:20.676Z</time>
      </trkpt>
      <trkpt lat="40.74797667" lon="-4.17409833">
        <ele>1259.0</ele>
        <time>2018-05-26T11:06:21.676Z</time>
      </trkpt>
      <trkpt lat="40.74797667" lon="-4.17409833">
        <ele>1259.0</ele>
        <time>2018-05-26T11:06:22.678Z</time>
      </trkpt>
      <trkpt lat="40.74797667" lon="-4.17409833">
        <ele>1259.0</ele>
        <time>2018-05-26T11:06:23.677Z</time>
      </trkpt>
      <trkpt lat="40.748" lon="-4.17415833">
        <ele>1259.0</ele>
        <time>2018-05-26T11:06:24.677Z</time>
      </trkpt>
      <trkpt lat="40.74800833" lon="-4.17418167">
        <ele>1259.0</ele>
        <time>2018-05-26T11:06:25.689Z</time>
      </trkpt>
      <trkpt lat="40.74800833" lon="-4.17418167">
        <ele>1259.0</ele>
        <time>2018-05-26T11:06:26.713Z</time>
      </trkpt>
      <trkpt lat="40.748035" lon="-4.17423333">
        <ele>1259.0</ele>
        <time>2018-05-26T11:06:27.680Z</time>
      </trkpt>
      <trkpt lat="40.748035" lon="-4.17423333">
        <ele>1259.0</ele>
        <time>2018-05-26T11:06:28.684Z</time>
      </trkpt>
      <trkpt lat="40.74805667" lon="-4.17428">
        <ele>1260.0</ele>
        <time>2018-05-26T11:06:29.684Z</time>
      </trkpt>
      <trkpt lat="40.74806167" lon="-4.17430167">
        <ele>1260.0</ele>
        <time>2018-05-26T11:06:30.697Z</time>
      </trkpt>
      <trkpt lat="40.74806167" lon="-4.17430167">
        <ele>1260.0</ele>
        <time>2018-05-26T11:06:31.675Z</time>
      </trkpt>
      <trkpt lat="40.74807" lon="-4.174345">
        <ele>1260.0</ele>
        <time>2018-05-26T11:06:32.685Z</time>
      </trkpt>
      <trkpt lat="40.74807667" lon="-4.17436667">
        <ele>1260.0</ele>
        <time>2018-05-26T11:06:33.702Z</time>
      </trkpt>
      <trkpt lat="40.74807667" lon="-4.17436667">
        <ele>1260.0</ele>
        <time>2018-05-26T11:06:34.710Z</time>
      </trkpt>
      <trkpt lat="40.74809167" lon="-4.17440667">
        <ele>1260.0</ele>
        <time>2018-05-26T11:06:35.684Z</time>
      </trkpt>
      <trkpt lat="40.74809167" lon="-4.17440667">
        <ele>1260.0</ele>
        <time>2018-05-26T11:06:36.675Z</time>
      </trkpt>
      <trkpt lat="40.74811167" lon="-4.17445">
        <ele>1260.0</ele>
        <time>2018-05-26T11:06:37.696Z</time>
      </trkpt>
      <trkpt lat="40.74811167" lon="-4.17445">
        <ele>1260.0</ele>
        <time>2018-05-26T11:06:38.713Z</time>
      </trkpt>
      <trkpt lat="40.748135" lon="-4.17450167">
        <ele>1260.0</ele>
        <time>2018-05-26T11:06:39.684Z</time>
      </trkpt>
      <trkpt lat="40.748135" lon="-4.17450167">
        <ele>1260.0</ele>
        <time>2018-05-26T11:06:40.688Z</time>
      </trkpt>
      <trkpt lat="40.74815667" lon="-4.17455167">
        <ele>1260.0</ele>
        <time>2018-05-26T11:06:41.687Z</time>
      </trkpt>
      <trkpt lat="40.74815667" lon="-4.17455167">
        <ele>1260.0</ele>
        <time>2018-05-26T11:06:42.714Z</time>
      </trkpt>
      <trkpt lat="40.74818" lon="-4.174605">
        <ele>1259.0</ele>
        <time>2018-05-26T11:06:43.686Z</time>
      </trkpt>
      <trkpt lat="40.74818" lon="-4.174605">
        <ele>1259.0</ele>
        <time>2018-05-26T11:06:44.715Z</time>
      </trkpt>
      <trkpt lat="40.74820667" lon="-4.17466333">
        <ele>1259.0</ele>
        <time>2018-05-26T11:06:45.685Z</time>
      </trkpt>
      <trkpt lat="40.74820667" lon="-4.17466333">
        <ele>1259.0</ele>
        <time>2018-05-26T11:06:46.690Z</time>
      </trkpt>
      <trkpt lat="40.748235" lon="-4.17472667">
        <ele>1260.0</ele>
        <time>2018-05-26T11:06:47.688Z</time>
      </trkpt>
      <trkpt lat="40.748235" lon="-4.17472667">
        <ele>1260.0</ele>
        <time>2018-05-26T11:06:48.714Z</time>
      </trkpt>
      <trkpt lat="40.74826167" lon="-4.17479833">
        <ele>1260.0</ele>
        <time>2018-05-26T11:06:49.685Z</time>
      </trkpt>
      <trkpt lat="40.74826167" lon="-4.17479833">
        <ele>1260.0</ele>
        <time>2018-05-26T11:06:50.713Z</time>
      </trkpt>
      <trkpt lat="40.748295" lon="-4.17488167">
        <ele>1260.0</ele>
        <time>2018-05-26T11:06:51.688Z</time>
      </trkpt>
      <trkpt lat="40.748295" lon="-4.17488167">
        <ele>1260.0</ele>
        <time>2018-05-26T11:06:52.714Z</time>
      </trkpt>
      <trkpt lat="40.748335" lon="-4.174975">
        <ele>1259.0</ele>
        <time>2018-05-26T11:06:53.686Z</time>
      </trkpt>
      <trkpt lat="40.748335" lon="-4.174975">
        <ele>1259.0</ele>
        <time>2018-05-26T11:06:54.712Z</time>
      </trkpt>
      <trkpt lat="40.74838" lon="-4.17508">
        <ele>1259.0</ele>
        <time>2018-05-26T11:06:55.679Z</time>
      </trkpt>
      <trkpt lat="40.74838" lon="-4.17508">
        <ele>1259.0</ele>
        <time>2018-05-26T11:06:56.715Z</time>
      </trkpt>
      <trkpt lat="40.74843833" lon="-4.175175">
        <ele>1258.0</ele>
        <time>2018-05-26T11:06:57.684Z</time>
      </trkpt>
      <trkpt lat="40.74843833" lon="-4.175175">
        <ele>1258.0</ele>
        <time>2018-05-26T11:06:58.713Z</time>
      </trkpt>
      <trkpt lat="40.748505" lon="-4.17527333">
        <ele>1258.0</ele>
        <time>2018-05-26T11:06:59.690Z</time>
      </trkpt>
      <trkpt lat="40.74853667" lon="-4.17532167">
        <ele>1258.0</ele>
        <time>2018-05-26T11:07:00.684Z</time>
      </trkpt>
      <trkpt lat="40.74853667" lon="-4.17532167">
        <ele>1258.0</ele>
        <time>2018-05-26T11:07:01.676Z</time>
      </trkpt>
      <trkpt lat="40.7486" lon="-4.175405">
        <ele>1258.0</ele>
        <time>2018-05-26T11:07:02.677Z</time>
      </trkpt>
      <trkpt lat="40.748635" lon="-4.17544333">
        <ele>1258.0</ele>
        <time>2018-05-26T11:07:03.688Z</time>
      </trkpt>
      <trkpt lat="40.748635" lon="-4.17544333">
        <ele>1258.0</ele>
        <time>2018-05-26T11:07:04.711Z</time>
      </trkpt>
      <trkpt lat="40.748705" lon="-4.17551833">
        <ele>1258.0</ele>
        <time>2018-05-26T11:07:05.683Z</time>
      </trkpt>
      <trkpt lat="40.748705" lon="-4.17551833">
        <ele>1258.0</ele>
        <time>2018-05-26T11:07:06.713Z</time>
      </trkpt>
      <trkpt lat="40.74877" lon="-4.17559167">
        <ele>1258.0</ele>
        <time>2018-05-26T11:07:07.701Z</time>
      </trkpt>
      <trkpt lat="40.74877" lon="-4.17559167">
        <ele>1258.0</ele>
        <time>2018-05-26T11:07:08.688Z</time>
      </trkpt>
      <trkpt lat="40.74883" lon="-4.17565667">
        <ele>1258.0</ele>
        <time>2018-05-26T11:07:09.684Z</time>
      </trkpt>
      <trkpt lat="40.74883" lon="-4.17565667">
        <ele>1258.0</ele>
        <time>2018-05-26T11:07:10.706Z</time>
      </trkpt>
      <trkpt lat="40.74888667" lon="-4.17573">
        <ele>1258.0</ele>
        <time>2018-05-26T11:07:11.688Z</time>
      </trkpt>
      <trkpt lat="40.74888667" lon="-4.17573">
        <ele>1258.0</ele>
        <time>2018-05-26T11:07:12.711Z</time>
      </trkpt>
      <trkpt lat="40.74894333" lon="-4.17580333">
        <ele>1258.0</ele>
        <time>2018-05-26T11:07:13.688Z</time>
      </trkpt>
      <trkpt lat="40.74894333" lon="-4.17580333">
        <ele>1258.0</ele>
        <time>2018-05-26T11:07:14.711Z</time>
      </trkpt>
      <trkpt lat="40.749005" lon="-4.17588667">
        <ele>1258.0</ele>
        <time>2018-05-26T11:07:15.683Z</time>
      </trkpt>
      <trkpt lat="40.749005" lon="-4.17588667">
        <ele>1258.0</ele>
        <time>2018-05-26T11:07:16.712Z</time>
      </trkpt>
      <trkpt lat="40.74906833" lon="-4.175975">
        <ele>1258.0</ele>
        <time>2018-05-26T11:07:17.684Z</time>
      </trkpt>
      <trkpt lat="40.74909833" lon="-4.17602">
        <ele>1258.0</ele>
        <time>2018-05-26T11:07:18.721Z</time>
      </trkpt>
      <trkpt lat="40.74909833" lon="-4.17602">
        <ele>1258.0</ele>
        <time>2018-05-26T11:07:19.706Z</time>
      </trkpt>
      <trkpt lat="40.74915667" lon="-4.17611167">
        <ele>1258.0</ele>
        <time>2018-05-26T11:07:20.675Z</time>
      </trkpt>
      <trkpt lat="40.74918333" lon="-4.17615833">
        <ele>1258.0</ele>
        <time>2018-05-26T11:07:21.681Z</time>
      </trkpt>
      <trkpt lat="40.74920833" lon="-4.176205">
        <ele>1258.0</ele>
        <time>2018-05-26T11:07:22.683Z</time>
      </trkpt>
      <trkpt lat="40.74920833" lon="-4.176205">
        <ele>1258.0</ele>
        <time>2018-05-26T11:07:23.712Z</time>
      </trkpt>
      <trkpt lat="40.74925667" lon="-4.1763">
        <ele>1258.0</ele>
        <time>2018-05-26T11:07:24.685Z</time>
      </trkpt>
      <trkpt lat="40.74925667" lon="-4.1763">
        <ele>1258.0</ele>
        <time>2018-05-26T11:07:25.683Z</time>
      </trkpt>
      <trkpt lat="40.74930833" lon="-4.17638167">
        <ele>1259.0</ele>
        <time>2018-05-26T11:07:26.684Z</time>
      </trkpt>
      <trkpt lat="40.74930833" lon="-4.17638167">
        <ele>1259.0</ele>
        <time>2018-05-26T11:07:27.711Z</time>
      </trkpt>
      <trkpt lat="40.749355" lon="-4.17645667">
        <ele>1259.0</ele>
        <time>2018-05-26T11:07:28.688Z</time>
      </trkpt>
      <trkpt lat="40.749355" lon="-4.17645667">
        <ele>1259.0</ele>
        <time>2018-05-26T11:07:29.712Z</time>
      </trkpt>
      <trkpt lat="40.74940667" lon="-4.17652667">
        <ele>1259.0</ele>
        <time>2018-05-26T11:07:30.677Z</time>
      </trkpt>
      <trkpt lat="40.74940667" lon="-4.17652667">
        <ele>1259.0</ele>
        <time>2018-05-26T11:07:31.691Z</time>
      </trkpt>
      <trkpt lat="40.74946333" lon="-4.1766">
        <ele>1259.0</ele>
        <time>2018-05-26T11:07:32.688Z</time>
      </trkpt>
      <trkpt lat="40.74949667" lon="-4.17664167">
        <ele>1259.0</ele>
        <time>2018-05-26T11:07:33.688Z</time>
      </trkpt>
      <trkpt lat="40.74949667" lon="-4.17664167">
        <ele>1259.0</ele>
        <time>2018-05-26T11:07:34.713Z</time>
      </trkpt>
      <trkpt lat="40.749565" lon="-4.17674167">
        <ele>1259.0</ele>
        <time>2018-05-26T11:07:35.684Z</time>
      </trkpt>
      <trkpt lat="40.749565" lon="-4.17674167">
        <ele>1259.0</ele>
        <time>2018-05-26T11:07:36.710Z</time>
      </trkpt>
      <trkpt lat="40.74964" lon="-4.17685">
        <ele>1258.0</ele>
        <time>2018-05-26T11:07:37.684Z</time>
      </trkpt>
      <trkpt lat="40.74964" lon="-4.17685">
        <ele>1258.0</ele>
        <time>2018-05-26T11:07:38.681Z</time>
      </trkpt>
      <trkpt lat="40.74971333" lon="-4.17696833">
        <ele>1258.0</ele>
        <time>2018-05-26T11:07:39.684Z</time>
      </trkpt>
      <trkpt lat="40.74975" lon="-4.17702833">
        <ele>1258.0</ele>
        <time>2018-05-26T11:07:40.694Z</time>
      </trkpt>
      <trkpt lat="40.74975" lon="-4.17702833">
        <ele>1258.0</ele>
        <time>2018-05-26T11:07:41.683Z</time>
      </trkpt>
      <trkpt lat="40.749825" lon="-4.177155">
        <ele>1257.0</ele>
        <time>2018-05-26T11:07:42.692Z</time>
      </trkpt>
      <trkpt lat="40.74986333" lon="-4.17722">
        <ele>1257.0</ele>
        <time>2018-05-26T11:07:43.716Z</time>
      </trkpt>
      <trkpt lat="40.74989833" lon="-4.17728">
        <ele>1257.0</ele>
        <time>2018-05-26T11:07:44.688Z</time>
      </trkpt>
      <trkpt lat="40.749935" lon="-4.17734">
        <ele>1257.0</ele>
        <time>2018-05-26T11:07:45.681Z</time>
      </trkpt>
      <trkpt lat="40.749935" lon="-4.17734">
        <ele>1257.0</ele>
        <time>2018-05-26T11:07:46.712Z</time>
      </trkpt>
      <trkpt lat="40.75001167" lon="-4.17746167">
        <ele>1257.0</ele>
        <time>2018-05-26T11:07:47.684Z</time>
      </trkpt>
      <trkpt lat="40.75001167" lon="-4.17746167">
        <ele>1257.0</ele>
        <time>2018-05-26T11:07:48.684Z</time>
      </trkpt>
      <trkpt lat="40.75008833" lon="-4.17758333">
        <ele>1258.0</ele>
        <time>2018-05-26T11:07:49.678Z</time>
      </trkpt>
      <trkpt lat="40.75008833" lon="-4.17758333">
        <ele>1258.0</ele>
        <time>2018-05-26T11:07:50.676Z</time>
      </trkpt>
      <trkpt lat="40.75016333" lon="-4.17770833">
        <ele>1258.0</ele>
        <time>2018-05-26T11:07:51.684Z</time>
      </trkpt>
      <trkpt lat="40.75016333" lon="-4.17770833">
        <ele>1258.0</ele>
        <time>2018-05-26T11:07:52.711Z</time>
      </trkpt>
      <trkpt lat="40.75022667" lon="-4.17783167">
        <ele>1258.0</ele>
        <time>2018-05-26T11:07:53.689Z</time>
      </trkpt>
      <trkpt lat="40.75022667" lon="-4.17783167">
        <ele>1258.0</ele>
        <time>2018-05-26T11:07:54.712Z</time>
      </trkpt>
      <trkpt lat="40.75028667" lon="-4.17795333">
        <ele>1258.0</ele>
        <time>2018-05-26T11:07:55.686Z</time>
      </trkpt>
      <trkpt lat="40.75028667" lon="-4.17795333">
        <ele>1258.0</ele>
        <time>2018-05-26T11:07:56.713Z</time>
      </trkpt>
      <trkpt lat="40.75034667" lon="-4.17807">
        <ele>1258.0</ele>
        <time>2018-05-26T11:07:57.684Z</time>
      </trkpt>
      <trkpt lat="40.75034667" lon="-4.17807">
        <ele>1258.0</ele>
        <time>2018-05-26T11:07:58.712Z</time>
      </trkpt>
      <trkpt lat="40.750405" lon="-4.17818333">
        <ele>1259.0</ele>
        <time>2018-05-26T11:07:59.678Z</time>
      </trkpt>
      <trkpt lat="40.750405" lon="-4.17818333">
        <ele>1259.0</ele>
        <time>2018-05-26T11:08:00.713Z</time>
      </trkpt>
      <trkpt lat="40.75046" lon="-4.178285">
        <ele>1258.0</ele>
        <time>2018-05-26T11:08:01.688Z</time>
      </trkpt>
      <trkpt lat="40.75046" lon="-4.178285">
        <ele>1258.0</ele>
        <time>2018-05-26T11:08:02.710Z</time>
      </trkpt>
      <trkpt lat="40.750515" lon="-4.17838167">
        <ele>1258.0</ele>
        <time>2018-05-26T11:08:03.689Z</time>
      </trkpt>
      <trkpt lat="40.750515" lon="-4.17838167">
        <ele>1258.0</ele>
        <time>2018-05-26T11:08:04.712Z</time>
      </trkpt>
      <trkpt lat="40.75056167" lon="-4.178465">
        <ele>1258.0</ele>
        <time>2018-05-26T11:08:05.686Z</time>
      </trkpt>
      <trkpt lat="40.75056167" lon="-4.178465">
        <ele>1258.0</ele>
        <time>2018-05-26T11:08:06.686Z</time>
      </trkpt>
      <trkpt lat="40.75060833" lon="-4.17853">
        <ele>1258.0</ele>
        <time>2018-05-26T11:08:07.693Z</time>
      </trkpt>
      <trkpt lat="40.75060833" lon="-4.17853">
        <ele>1258.0</ele>
        <time>2018-05-26T11:08:08.709Z</time>
      </trkpt>
      <trkpt lat="40.75066667" lon="-4.17859167">
        <ele>1258.0</ele>
        <time>2018-05-26T11:08:09.701Z</time>
      </trkpt>
      <trkpt lat="40.75066667" lon="-4.17859167">
        <ele>1258.0</ele>
        <time>2018-05-26T11:08:10.712Z</time>
      </trkpt>
      <trkpt lat="40.75071833" lon="-4.17866667">
        <ele>1257.0</ele>
        <time>2018-05-26T11:08:11.688Z</time>
      </trkpt>
      <trkpt lat="40.75071833" lon="-4.17866667">
        <ele>1257.0</ele>
        <time>2018-05-26T11:08:12.680Z</time>
      </trkpt>
      <trkpt lat="40.75077167" lon="-4.17875667">
        <ele>1257.0</ele>
        <time>2018-05-26T11:08:13.689Z</time>
      </trkpt>
      <trkpt lat="40.75077167" lon="-4.17875667">
        <ele>1257.0</ele>
        <time>2018-05-26T11:08:14.712Z</time>
      </trkpt>
      <trkpt lat="40.75081833" lon="-4.17883667">
        <ele>1258.0</ele>
        <time>2018-05-26T11:08:15.687Z</time>
      </trkpt>
      <trkpt lat="40.75081833" lon="-4.17883667">
        <ele>1258.0</ele>
        <time>2018-05-26T11:08:16.713Z</time>
      </trkpt>
      <trkpt lat="40.75085833" lon="-4.17890333">
        <ele>1258.0</ele>
        <time>2018-05-26T11:08:17.677Z</time>
      </trkpt>
      <trkpt lat="40.75085833" lon="-4.17890333">
        <ele>1258.0</ele>
        <time>2018-05-26T11:08:18.677Z</time>
      </trkpt>
      <trkpt lat="40.7509" lon="-4.17896333">
        <ele>1258.0</ele>
        <time>2018-05-26T11:08:19.714Z</time>
      </trkpt>
      <trkpt lat="40.7509" lon="-4.17896333">
        <ele>1258.0</ele>
        <time>2018-05-26T11:08:20.682Z</time>
      </trkpt>
      <trkpt lat="40.75094833" lon="-4.17902333">
        <ele>1259.0</ele>
        <time>2018-05-26T11:08:21.687Z</time>
      </trkpt>
      <trkpt lat="40.75094833" lon="-4.17902333">
        <ele>1259.0</ele>
        <time>2018-05-26T11:08:22.713Z</time>
      </trkpt>
      <trkpt lat="40.751" lon="-4.17907667">
        <ele>1259.0</ele>
        <time>2018-05-26T11:08:23.684Z</time>
      </trkpt>
      <trkpt lat="40.75103" lon="-4.179105">
        <ele>1260.0</ele>
        <time>2018-05-26T11:08:24.696Z</time>
      </trkpt>
      <trkpt lat="40.75103" lon="-4.179105">
        <ele>1260.0</ele>
        <time>2018-05-26T11:08:25.681Z</time>
      </trkpt>
      <trkpt lat="40.75109" lon="-4.17915333">
        <ele>1260.0</ele>
        <time>2018-05-26T11:08:26.687Z</time>
      </trkpt>
      <trkpt lat="40.75112" lon="-4.17917833">
        <ele>1260.0</ele>
        <time>2018-05-26T11:08:27.685Z</time>
      </trkpt>
      <trkpt lat="40.75112" lon="-4.17917833">
        <ele>1260.0</ele>
        <time>2018-05-26T11:08:28.711Z</time>
      </trkpt>
      <trkpt lat="40.75118333" lon="-4.17923">
        <ele>1261.0</ele>
        <time>2018-05-26T11:08:29.684Z</time>
      </trkpt>
      <trkpt lat="40.75118333" lon="-4.17923">
        <ele>1261.0</ele>
        <time>2018-05-26T11:08:30.692Z</time>
      </trkpt>
      <trkpt lat="40.75125" lon="-4.17928833">
        <ele>1262.0</ele>
        <time>2018-05-26T11:08:31.716Z</time>
      </trkpt>
      <trkpt lat="40.75125" lon="-4.17928833">
        <ele>1262.0</ele>
        <time>2018-05-26T11:08:32.696Z</time>
      </trkpt>
      <trkpt lat="40.751315" lon="-4.179345">
        <ele>1262.0</ele>
        <time>2018-05-26T11:08:33.705Z</time>
      </trkpt>
      <trkpt lat="40.751315" lon="-4.179345">
        <ele>1262.0</ele>
        <time>2018-05-26T11:08:34.688Z</time>
      </trkpt>
      <trkpt lat="40.75138" lon="-4.17940667">
        <ele>1262.0</ele>
        <time>2018-05-26T11:08:35.703Z</time>
      </trkpt>
      <trkpt lat="40.75138" lon="-4.17940667">
        <ele>1262.0</ele>
        <time>2018-05-26T11:08:36.679Z</time>
      </trkpt>
      <trkpt lat="40.75145833" lon="-4.179465">
        <ele>1263.0</ele>
        <time>2018-05-26T11:08:37.685Z</time>
      </trkpt>
      <trkpt lat="40.75145833" lon="-4.179465">
        <ele>1263.0</ele>
        <time>2018-05-26T11:08:38.710Z</time>
      </trkpt>
      <trkpt lat="40.75154167" lon="-4.17951">
        <ele>1263.0</ele>
        <time>2018-05-26T11:08:39.691Z</time>
      </trkpt>
      <trkpt lat="40.75154167" lon="-4.17951">
        <ele>1263.0</ele>
        <time>2018-05-26T11:08:40.698Z</time>
      </trkpt>
      <trkpt lat="40.75162333" lon="-4.17955833">
        <ele>1263.0</ele>
        <time>2018-05-26T11:08:41.703Z</time>
      </trkpt>
      <trkpt lat="40.75166" lon="-4.179595">
        <ele>1263.0</ele>
        <time>2018-05-26T11:08:42.703Z</time>
      </trkpt>
      <trkpt lat="40.75166" lon="-4.179595">
        <ele>1263.0</ele>
        <time>2018-05-26T11:08:43.683Z</time>
      </trkpt>
      <trkpt lat="40.75173833" lon="-4.17968833">
        <ele>1263.0</ele>
        <time>2018-05-26T11:08:44.684Z</time>
      </trkpt>
      <trkpt lat="40.75177833" lon="-4.17973333">
        <ele>1263.0</ele>
        <time>2018-05-26T11:08:45.704Z</time>
      </trkpt>
      <trkpt lat="40.75177833" lon="-4.17973333">
        <ele>1263.0</ele>
        <time>2018-05-26T11:08:46.698Z</time>
      </trkpt>
      <trkpt lat="40.75186167" lon="-4.17979833">
        <ele>1262.0</ele>
        <time>2018-05-26T11:08:47.702Z</time>
      </trkpt>
      <trkpt lat="40.75186167" lon="-4.17979833">
        <ele>1262.0</ele>
        <time>2018-05-26T11:08:48.686Z</time>
      </trkpt>
      <trkpt lat="40.75195667" lon="-4.17983833">
        <ele>1262.0</ele>
        <time>2018-05-26T11:08:49.684Z</time>
      </trkpt>
      <trkpt lat="40.75195667" lon="-4.17983833">
        <ele>1262.0</ele>
        <time>2018-05-26T11:08:50.713Z</time>
      </trkpt>
      <trkpt lat="40.75205167" lon="-4.17990667">
        <ele>1262.0</ele>
        <time>2018-05-26T11:08:51.682Z</time>
      </trkpt>
      <trkpt lat="40.75210167" lon="-4.17993667">
        <ele>1262.0</ele>
        <time>2018-05-26T11:08:52.683Z</time>
      </trkpt>
      <trkpt lat="40.752155" lon="-4.179965">
        <ele>1262.0</ele>
        <time>2018-05-26T11:08:53.684Z</time>
      </trkpt>
      <trkpt lat="40.752155" lon="-4.179965">
        <ele>1262.0</ele>
        <time>2018-05-26T11:08:54.678Z</time>
      </trkpt>
      <trkpt lat="40.75226" lon="-4.18003333">
        <ele>1262.0</ele>
        <time>2018-05-26T11:08:55.688Z</time>
      </trkpt>
      <trkpt lat="40.75226" lon="-4.18003333">
        <ele>1262.0</ele>
        <time>2018-05-26T11:08:56.712Z</time>
      </trkpt>
      <trkpt lat="40.75236833" lon="-4.1801">
        <ele>1261.0</ele>
        <time>2018-05-26T11:08:57.691Z</time>
      </trkpt>
      <trkpt lat="40.75236833" lon="-4.1801">
        <ele>1261.0</ele>
        <time>2018-05-26T11:08:58.676Z</time>
      </trkpt>
      <trkpt lat="40.75248" lon="-4.18017167">
        <ele>1261.0</ele>
        <time>2018-05-26T11:08:59.684Z</time>
      </trkpt>
      <trkpt lat="40.75248" lon="-4.18017167">
        <ele>1261.0</ele>
        <time>2018-05-26T11:09:00.710Z</time>
      </trkpt>
      <trkpt lat="40.7526" lon="-4.18024833">
        <ele>1261.0</ele>
        <time>2018-05-26T11:09:01.677Z</time>
      </trkpt>
      <trkpt lat="40.75266333" lon="-4.180285">
        <ele>1261.0</ele>
        <time>2018-05-26T11:09:02.688Z</time>
      </trkpt>
      <trkpt lat="40.75266333" lon="-4.180285">
        <ele>1261.0</ele>
        <time>2018-05-26T11:09:03.713Z</time>
      </trkpt>
      <trkpt lat="40.75278833" lon="-4.180365">
        <ele>1260.0</ele>
        <time>2018-05-26T11:09:04.684Z</time>
      </trkpt>
      <trkpt lat="40.75278833" lon="-4.180365">
        <ele>1260.0</ele>
        <time>2018-05-26T11:09:05.676Z</time>
      </trkpt>
      <trkpt lat="40.75291333" lon="-4.18045333">
        <ele>1259.0</ele>
        <time>2018-05-26T11:09:06.682Z</time>
      </trkpt>
      <trkpt lat="40.75291333" lon="-4.18045333">
        <ele>1259.0</ele>
        <time>2018-05-26T11:09:07.713Z</time>
      </trkpt>
      <trkpt lat="40.75303667" lon="-4.18054">
        <ele>1259.0</ele>
        <time>2018-05-26T11:09:08.687Z</time>
      </trkpt>
      <trkpt lat="40.75309833" lon="-4.18058">
        <ele>1258.0</ele>
        <time>2018-05-26T11:09:09.684Z</time>
      </trkpt>
      <trkpt lat="40.75309833" lon="-4.18058">
        <ele>1258.0</ele>
        <time>2018-05-26T11:09:10.713Z</time>
      </trkpt>
      <trkpt lat="40.75322333" lon="-4.18063667">
        <ele>1258.0</ele>
        <time>2018-05-26T11:09:11.704Z</time>
      </trkpt>
      <trkpt lat="40.75328167" lon="-4.18066833">
        <ele>1258.0</ele>
        <time>2018-05-26T11:09:12.687Z</time>
      </trkpt>
      <trkpt lat="40.75328167" lon="-4.18066833">
        <ele>1258.0</ele>
        <time>2018-05-26T11:09:13.715Z</time>
      </trkpt>
      <trkpt lat="40.75337667" lon="-4.18076333">
        <ele>1257.0</ele>
        <time>2018-05-26T11:09:14.694Z</time>
      </trkpt>
      <trkpt lat="40.75342167" lon="-4.18082167">
        <ele>1257.0</ele>
        <time>2018-05-26T11:09:15.684Z</time>
      </trkpt>
      <trkpt lat="40.75342167" lon="-4.18082167">
        <ele>1257.0</ele>
        <time>2018-05-26T11:09:16.691Z</time>
      </trkpt>
      <trkpt lat="40.75352667" lon="-4.18093667">
        <ele>1255.0</ele>
        <time>2018-05-26T11:09:17.708Z</time>
      </trkpt>
      <trkpt lat="40.75359" lon="-4.18099167">
        <ele>1255.0</ele>
        <time>2018-05-26T11:09:18.710Z</time>
      </trkpt>
      <trkpt lat="40.75366" lon="-4.181045">
        <ele>1254.0</ele>
        <time>2018-05-26T11:09:19.710Z</time>
      </trkpt>
      <trkpt lat="40.75366" lon="-4.181045">
        <ele>1254.0</ele>
        <time>2018-05-26T11:09:20.694Z</time>
      </trkpt>
      <trkpt lat="40.75379167" lon="-4.181135">
        <ele>1253.0</ele>
        <time>2018-05-26T11:09:21.708Z</time>
      </trkpt>
      <trkpt lat="40.75379167" lon="-4.181135">
        <ele>1253.0</ele>
        <time>2018-05-26T11:09:22.712Z</time>
      </trkpt>
      <trkpt lat="40.75391" lon="-4.18119167">
        <ele>1252.0</ele>
        <time>2018-05-26T11:09:23.683Z</time>
      </trkpt>
      <trkpt lat="40.75391" lon="-4.18119167">
        <ele>1252.0</ele>
        <time>2018-05-26T11:09:24.712Z</time>
      </trkpt>
      <trkpt lat="40.754" lon="-4.18121667">
        <ele>1252.0</ele>
        <time>2018-05-26T11:09:25.688Z</time>
      </trkpt>
      <trkpt lat="40.754" lon="-4.18121667">
        <ele>1252.0</ele>
        <time>2018-05-26T11:09:26.713Z</time>
      </trkpt>
      <trkpt lat="40.75408667" lon="-4.18125833">
        <ele>1250.0</ele>
        <time>2018-05-26T11:09:27.684Z</time>
      </trkpt>
      <trkpt lat="40.75408667" lon="-4.18125833">
        <ele>1250.0</ele>
        <time>2018-05-26T11:09:28.711Z</time>
      </trkpt>
      <trkpt lat="40.75417833" lon="-4.18129667">
        <ele>1249.0</ele>
        <time>2018-05-26T11:09:29.681Z</time>
      </trkpt>
      <trkpt lat="40.75417833" lon="-4.18129667">
        <ele>1249.0</ele>
        <time>2018-05-26T11:09:30.712Z</time>
      </trkpt>
      <trkpt lat="40.75428667" lon="-4.181325">
        <ele>1248.0</ele>
        <time>2018-05-26T11:09:31.675Z</time>
      </trkpt>
      <trkpt lat="40.75428667" lon="-4.181325">
        <ele>1248.0</ele>
        <time>2018-05-26T11:09:32.705Z</time>
      </trkpt>
      <trkpt lat="40.75442" lon="-4.18136">
        <ele>1246.0</ele>
        <time>2018-05-26T11:09:33.713Z</time>
      </trkpt>
      <trkpt lat="40.754485" lon="-4.181375">
        <ele>1245.0</ele>
        <time>2018-05-26T11:09:34.702Z</time>
      </trkpt>
      <trkpt lat="40.754485" lon="-4.181375">
        <ele>1245.0</ele>
        <time>2018-05-26T11:09:35.686Z</time>
      </trkpt>
      <trkpt lat="40.75459167" lon="-4.18143167">
        <ele>1243.0</ele>
        <time>2018-05-26T11:09:36.712Z</time>
      </trkpt>
      <trkpt lat="40.75459167" lon="-4.18143167">
        <ele>1243.0</ele>
        <time>2018-05-26T11:09:37.685Z</time>
      </trkpt>
      <trkpt lat="40.75467833" lon="-4.18152833">
        <ele>1242.0</ele>
        <time>2018-05-26T11:09:38.698Z</time>
      </trkpt>
      <trkpt lat="40.75472833" lon="-4.18158333">
        <ele>1242.0</ele>
        <time>2018-05-26T11:09:39.688Z</time>
      </trkpt>
      <trkpt lat="40.75472833" lon="-4.18158333">
        <ele>1242.0</ele>
        <time>2018-05-26T11:09:40.714Z</time>
      </trkpt>
      <trkpt lat="40.75484333" lon="-4.18168667">
        <ele>1241.0</ele>
        <time>2018-05-26T11:09:41.686Z</time>
      </trkpt>
      <trkpt lat="40.75484333" lon="-4.18168667">
        <ele>1241.0</ele>
        <time>2018-05-26T11:09:42.678Z</time>
      </trkpt>
      <trkpt lat="40.75495" lon="-4.181775">
        <ele>1238.0</ele>
        <time>2018-05-26T11:09:43.690Z</time>
      </trkpt>
      <trkpt lat="40.75495" lon="-4.181775">
        <ele>1238.0</ele>
        <time>2018-05-26T11:09:44.713Z</time>
      </trkpt>
      <trkpt lat="40.75502833" lon="-4.18187833">
        <ele>1237.0</ele>
        <time>2018-05-26T11:09:45.688Z</time>
      </trkpt>
      <trkpt lat="40.75502833" lon="-4.18187833">
        <ele>1237.0</ele>
        <time>2018-05-26T11:09:46.712Z</time>
      </trkpt>
      <trkpt lat="40.75506833" lon="-4.18200667">
        <ele>1235.0</ele>
        <time>2018-05-26T11:09:47.687Z</time>
      </trkpt>
      <trkpt lat="40.75506833" lon="-4.18200667">
        <ele>1235.0</ele>
        <time>2018-05-26T11:09:48.687Z</time>
      </trkpt>
      <trkpt lat="40.75507333" lon="-4.18216667">
        <ele>1233.0</ele>
        <time>2018-05-26T11:09:49.688Z</time>
      </trkpt>
      <trkpt lat="40.75507333" lon="-4.18216667">
        <ele>1233.0</ele>
        <time>2018-05-26T11:09:50.713Z</time>
      </trkpt>
      <trkpt lat="40.75510167" lon="-4.18233333">
        <ele>1230.0</ele>
        <time>2018-05-26T11:09:51.714Z</time>
      </trkpt>
      <trkpt lat="40.75510167" lon="-4.18233333">
        <ele>1230.0</ele>
        <time>2018-05-26T11:09:52.691Z</time>
      </trkpt>
      <trkpt lat="40.75519667" lon="-4.18246167">
        <ele>1229.0</ele>
        <time>2018-05-26T11:09:53.702Z</time>
      </trkpt>
      <trkpt lat="40.75524833" lon="-4.18252333">
        <ele>1228.0</ele>
        <time>2018-05-26T11:09:54.715Z</time>
      </trkpt>
      <trkpt lat="40.75524833" lon="-4.18252333">
        <ele>1228.0</ele>
        <time>2018-05-26T11:09:55.686Z</time>
      </trkpt>
      <trkpt lat="40.75532333" lon="-4.18264167">
        <ele>1226.0</ele>
        <time>2018-05-26T11:09:56.684Z</time>
      </trkpt>
      <trkpt lat="40.75534667" lon="-4.18270667">
        <ele>1225.0</ele>
        <time>2018-05-26T11:09:57.684Z</time>
      </trkpt>
      <trkpt lat="40.75534667" lon="-4.18270667">
        <ele>1225.0</ele>
        <time>2018-05-26T11:09:58.677Z</time>
      </trkpt>
      <trkpt lat="40.75539" lon="-4.182835">
        <ele>1224.0</ele>
        <time>2018-05-26T11:09:59.689Z</time>
      </trkpt>
      <trkpt lat="40.75539" lon="-4.182835">
        <ele>1224.0</ele>
        <time>2018-05-26T11:10:00.713Z</time>
      </trkpt>
      <trkpt lat="40.75542833" lon="-4.18294167">
        <ele>1222.0</ele>
        <time>2018-05-26T11:10:01.684Z</time>
      </trkpt>
      <trkpt lat="40.75542833" lon="-4.18294167">
        <ele>1222.0</ele>
        <time>2018-05-26T11:10:02.695Z</time>
      </trkpt>
      <trkpt lat="40.75547" lon="-4.18305167">
        <ele>1220.0</ele>
        <time>2018-05-26T11:10:03.708Z</time>
      </trkpt>
      <trkpt lat="40.75548333" lon="-4.18310667">
        <ele>1219.0</ele>
        <time>2018-05-26T11:10:04.688Z</time>
      </trkpt>
      <trkpt lat="40.75548333" lon="-4.18310667">
        <ele>1219.0</ele>
        <time>2018-05-26T11:10:05.713Z</time>
      </trkpt>
      <trkpt lat="40.755505" lon="-4.18322833">
        <ele>1217.0</ele>
        <time>2018-05-26T11:10:06.695Z</time>
      </trkpt>
      <trkpt lat="40.75551333" lon="-4.18329833">
        <ele>1216.0</ele>
        <time>2018-05-26T11:10:07.681Z</time>
      </trkpt>
      <trkpt lat="40.75551333" lon="-4.18329833">
        <ele>1216.0</ele>
        <time>2018-05-26T11:10:08.712Z</time>
      </trkpt>
      <trkpt lat="40.75552333" lon="-4.18342833">
        <ele>1215.0</ele>
        <time>2018-05-26T11:10:09.689Z</time>
      </trkpt>
      <trkpt lat="40.75552333" lon="-4.18342833">
        <ele>1215.0</ele>
        <time>2018-05-26T11:10:10.713Z</time>
      </trkpt>
      <trkpt lat="40.755535" lon="-4.18352833">
        <ele>1214.0</ele>
        <time>2018-05-26T11:10:11.684Z</time>
      </trkpt>
      <trkpt lat="40.755535" lon="-4.18352833">
        <ele>1214.0</ele>
        <time>2018-05-26T11:10:12.694Z</time>
      </trkpt>
      <trkpt lat="40.75554833" lon="-4.18362">
        <ele>1212.0</ele>
        <time>2018-05-26T11:10:13.688Z</time>
      </trkpt>
      <trkpt lat="40.75554833" lon="-4.18362">
        <ele>1212.0</ele>
        <time>2018-05-26T11:10:14.712Z</time>
      </trkpt>
      <trkpt lat="40.75556833" lon="-4.18373833">
        <ele>1211.0</ele>
        <time>2018-05-26T11:10:15.683Z</time>
      </trkpt>
      <trkpt lat="40.75556833" lon="-4.18373833">
        <ele>1211.0</ele>
        <time>2018-05-26T11:10:16.711Z</time>
      </trkpt>
      <trkpt lat="40.75558833" lon="-4.18387333">
        <ele>1209.0</ele>
        <time>2018-05-26T11:10:17.683Z</time>
      </trkpt>
      <trkpt lat="40.75558833" lon="-4.18387333">
        <ele>1209.0</ele>
        <time>2018-05-26T11:10:18.712Z</time>
      </trkpt>
      <trkpt lat="40.75564333" lon="-4.18402">
        <ele>1207.0</ele>
        <time>2018-05-26T11:10:19.676Z</time>
      </trkpt>
      <trkpt lat="40.75564333" lon="-4.18402">
        <ele>1207.0</ele>
        <time>2018-05-26T11:10:20.712Z</time>
      </trkpt>
      <trkpt lat="40.75575167" lon="-4.18415333">
        <ele>1205.0</ele>
        <time>2018-05-26T11:10:21.688Z</time>
      </trkpt>
      <trkpt lat="40.75575167" lon="-4.18415333">
        <ele>1205.0</ele>
        <time>2018-05-26T11:10:22.706Z</time>
      </trkpt>
      <trkpt lat="40.755865" lon="-4.18429333">
        <ele>1204.0</ele>
        <time>2018-05-26T11:10:23.681Z</time>
      </trkpt>
      <trkpt lat="40.755905" lon="-4.18435167">
        <ele>1203.0</ele>
        <time>2018-05-26T11:10:24.684Z</time>
      </trkpt>
      <trkpt lat="40.75593833" lon="-4.18439167">
        <ele>1202.0</ele>
        <time>2018-05-26T11:10:25.690Z</time>
      </trkpt>
      <trkpt lat="40.75593833" lon="-4.18439167">
        <ele>1202.0</ele>
        <time>2018-05-26T11:10:26.712Z</time>
      </trkpt>
      <trkpt lat="40.75602333" lon="-4.184425">
        <ele>1201.0</ele>
        <time>2018-05-26T11:10:27.688Z</time>
      </trkpt>
      <trkpt lat="40.75602333" lon="-4.184425">
        <ele>1201.0</ele>
        <time>2018-05-26T11:10:28.711Z</time>
      </trkpt>
      <trkpt lat="40.75612" lon="-4.18443167">
        <ele>1201.0</ele>
        <time>2018-05-26T11:10:29.679Z</time>
      </trkpt>
      <trkpt lat="40.75612" lon="-4.18443167">
        <ele>1201.0</ele>
        <time>2018-05-26T11:10:30.712Z</time>
      </trkpt>
      <trkpt lat="40.756195" lon="-4.184455">
        <ele>1201.0</ele>
        <time>2018-05-26T11:10:31.676Z</time>
      </trkpt>
      <trkpt lat="40.756195" lon="-4.184455">
        <ele>1201.0</ele>
        <time>2018-05-26T11:10:32.686Z</time>
      </trkpt>
      <trkpt lat="40.75625833" lon="-4.18449667">
        <ele>1200.0</ele>
        <time>2018-05-26T11:10:33.684Z</time>
      </trkpt>
      <trkpt lat="40.75625833" lon="-4.18449667">
        <ele>1200.0</ele>
        <time>2018-05-26T11:10:34.686Z</time>
      </trkpt>
      <trkpt lat="40.75631" lon="-4.18456">
        <ele>1200.0</ele>
        <time>2018-05-26T11:10:35.687Z</time>
      </trkpt>
      <trkpt lat="40.75631" lon="-4.18456">
        <ele>1200.0</ele>
        <time>2018-05-26T11:10:36.712Z</time>
      </trkpt>
      <trkpt lat="40.75632" lon="-4.184615">
        <ele>1200.0</ele>
        <time>2018-05-26T11:10:37.688Z</time>
      </trkpt>
      <trkpt lat="40.75632" lon="-4.184615">
        <ele>1200.0</ele>
        <time>2018-05-26T11:10:38.711Z</time>
      </trkpt>
      <trkpt lat="40.75631833" lon="-4.18467667">
        <ele>1200.0</ele>
        <time>2018-05-26T11:10:39.683Z</time>
      </trkpt>
      <trkpt lat="40.75631833" lon="-4.18467667">
        <ele>1200.0</ele>
        <time>2018-05-26T11:10:40.713Z</time>
      </trkpt>
      <trkpt lat="40.75631667" lon="-4.18470833">
        <ele>1200.0</ele>
        <time>2018-05-26T11:10:41.688Z</time>
      </trkpt>
      <trkpt lat="40.75631667" lon="-4.18470833">
        <ele>1200.0</ele>
        <time>2018-05-26T11:10:42.713Z</time>
      </trkpt>
      <trkpt lat="40.75630167" lon="-4.18474833">
        <ele>1200.0</ele>
        <time>2018-05-26T11:10:43.684Z</time>
      </trkpt>
      <trkpt lat="40.75629" lon="-4.184785">
        <ele>1200.0</ele>
        <time>2018-05-26T11:10:44.683Z</time>
      </trkpt>
      <trkpt lat="40.75629" lon="-4.184785">
        <ele>1200.0</ele>
        <time>2018-05-26T11:10:45.710Z</time>
      </trkpt>
      <trkpt lat="40.75626833" lon="-4.18486">
        <ele>1200.0</ele>
        <time>2018-05-26T11:10:46.684Z</time>
      </trkpt>
      <trkpt lat="40.756265" lon="-4.1849">
        <ele>1200.0</ele>
        <time>2018-05-26T11:10:47.702Z</time>
      </trkpt>
      <trkpt lat="40.756265" lon="-4.1849">
        <ele>1200.0</ele>
        <time>2018-05-26T11:10:48.712Z</time>
      </trkpt>
      <trkpt lat="40.75626667" lon="-4.18498">
        <ele>1200.0</ele>
        <time>2018-05-26T11:10:49.676Z</time>
      </trkpt>
      <trkpt lat="40.75626333" lon="-4.18502167">
        <ele>1201.0</ele>
        <time>2018-05-26T11:10:50.679Z</time>
      </trkpt>
      <trkpt lat="40.75626333" lon="-4.18506833">
        <ele>1201.0</ele>
        <time>2018-05-26T11:10:51.694Z</time>
      </trkpt>
      <trkpt lat="40.75626333" lon="-4.18506833">
        <ele>1201.0</ele>
        <time>2018-05-26T11:10:52.713Z</time>
      </trkpt>
      <trkpt lat="40.75627167" lon="-4.18516333">
        <ele>1201.0</ele>
        <time>2018-05-26T11:10:53.682Z</time>
      </trkpt>
      <trkpt lat="40.75627667" lon="-4.18521167">
        <ele>1201.0</ele>
        <time>2018-05-26T11:10:54.681Z</time>
      </trkpt>
      <trkpt lat="40.75628333" lon="-4.18526167">
        <ele>1201.0</ele>
        <time>2018-05-26T11:10:55.687Z</time>
      </trkpt>
      <trkpt lat="40.75628333" lon="-4.18526167">
        <ele>1201.0</ele>
        <time>2018-05-26T11:10:56.712Z</time>
      </trkpt>
      <trkpt lat="40.7563" lon="-4.18535667">
        <ele>1201.0</ele>
        <time>2018-05-26T11:10:57.688Z</time>
      </trkpt>
      <trkpt lat="40.7563" lon="-4.18535667">
        <ele>1201.0</ele>
        <time>2018-05-26T11:10:58.713Z</time>
      </trkpt>
      <trkpt lat="40.75632" lon="-4.185445">
        <ele>1201.0</ele>
        <time>2018-05-26T11:10:59.684Z</time>
      </trkpt>
      <trkpt lat="40.75633" lon="-4.18548833">
        <ele>1201.0</ele>
        <time>2018-05-26T11:11:00.684Z</time>
      </trkpt>
      <trkpt lat="40.75633" lon="-4.18548833">
        <ele>1201.0</ele>
        <time>2018-05-26T11:11:01.713Z</time>
      </trkpt>
      <trkpt lat="40.75635" lon="-4.185575">
        <ele>1202.0</ele>
        <time>2018-05-26T11:11:02.704Z</time>
      </trkpt>
      <trkpt lat="40.75636" lon="-4.18562">
        <ele>1202.0</ele>
        <time>2018-05-26T11:11:03.702Z</time>
      </trkpt>
      <trkpt lat="40.75636" lon="-4.18562">
        <ele>1202.0</ele>
        <time>2018-05-26T11:11:04.714Z</time>
      </trkpt>
      <trkpt lat="40.75638167" lon="-4.18570333">
        <ele>1202.0</ele>
        <time>2018-05-26T11:11:05.684Z</time>
      </trkpt>
      <trkpt lat="40.756395" lon="-4.18573833">
        <ele>1202.0</ele>
        <time>2018-05-26T11:11:06.704Z</time>
      </trkpt>
      <trkpt lat="40.756395" lon="-4.18573833">
        <ele>1202.0</ele>
        <time>2018-05-26T11:11:07.679Z</time>
      </trkpt>
      <trkpt lat="40.75642167" lon="-4.185795">
        <ele>1203.0</ele>
        <time>2018-05-26T11:11:08.717Z</time>
      </trkpt>
      <trkpt lat="40.756435" lon="-4.18581833">
        <ele>1203.0</ele>
        <time>2018-05-26T11:11:09.704Z</time>
      </trkpt>
      <trkpt lat="40.756435" lon="-4.18581833">
        <ele>1203.0</ele>
        <time>2018-05-26T11:11:10.688Z</time>
      </trkpt>
      <trkpt lat="40.75647333" lon="-4.18586167">
        <ele>1204.0</ele>
        <time>2018-05-26T11:11:11.702Z</time>
      </trkpt>
      <trkpt lat="40.75647333" lon="-4.18586167">
        <ele>1204.0</ele>
        <time>2018-05-26T11:11:12.692Z</time>
      </trkpt>
      <trkpt lat="40.75650667" lon="-4.18590167">
        <ele>1204.0</ele>
        <time>2018-05-26T11:11:13.709Z</time>
      </trkpt>
      <trkpt lat="40.75650667" lon="-4.18590167">
        <ele>1204.0</ele>
        <time>2018-05-26T11:11:14.711Z</time>
      </trkpt>
      <trkpt lat="40.75653" lon="-4.185935">
        <ele>1204.0</ele>
        <time>2018-05-26T11:11:15.682Z</time>
      </trkpt>
      <trkpt lat="40.75653" lon="-4.185935">
        <ele>1204.0</ele>
        <time>2018-05-26T11:11:16.713Z</time>
      </trkpt>
      <trkpt lat="40.75655333" lon="-4.18597333">
        <ele>1204.0</ele>
        <time>2018-05-26T11:11:17.687Z</time>
      </trkpt>
      <trkpt lat="40.75655333" lon="-4.18597333">
        <ele>1204.0</ele>
        <time>2018-05-26T11:11:18.700Z</time>
      </trkpt>
      <trkpt lat="40.75658667" lon="-4.18601333">
        <ele>1205.0</ele>
        <time>2018-05-26T11:11:19.707Z</time>
      </trkpt>
      <trkpt lat="40.75658667" lon="-4.18601333">
        <ele>1205.0</ele>
        <time>2018-05-26T11:11:20.713Z</time>
      </trkpt>
      <trkpt lat="40.75662" lon="-4.18606">
        <ele>1206.0</ele>
        <time>2018-05-26T11:11:21.684Z</time>
      </trkpt>
      <trkpt lat="40.75662" lon="-4.18606">
        <ele>1206.0</ele>
        <time>2018-05-26T11:11:22.711Z</time>
      </trkpt>
      <trkpt lat="40.75664167" lon="-4.18611667">
        <ele>1206.0</ele>
        <time>2018-05-26T11:11:23.689Z</time>
      </trkpt>
      <trkpt lat="40.75664167" lon="-4.18611667">
        <ele>1206.0</ele>
        <time>2018-05-26T11:11:24.712Z</time>
      </trkpt>
      <trkpt lat="40.75665833" lon="-4.18618">
        <ele>1206.0</ele>
        <time>2018-05-26T11:11:25.685Z</time>
      </trkpt>
      <trkpt lat="40.75665833" lon="-4.18618">
        <ele>1206.0</ele>
        <time>2018-05-26T11:11:26.712Z</time>
      </trkpt>
      <trkpt lat="40.756675" lon="-4.18624667">
        <ele>1207.0</ele>
        <time>2018-05-26T11:11:27.686Z</time>
      </trkpt>
      <trkpt lat="40.756675" lon="-4.18624667">
        <ele>1207.0</ele>
        <time>2018-05-26T11:11:28.686Z</time>
      </trkpt>
      <trkpt lat="40.75668" lon="-4.18630833">
        <ele>1207.0</ele>
        <time>2018-05-26T11:11:29.688Z</time>
      </trkpt>
      <trkpt lat="40.75668" lon="-4.18630833">
        <ele>1207.0</ele>
        <time>2018-05-26T11:11:30.713Z</time>
      </trkpt>
      <trkpt lat="40.756685" lon="-4.18636667">
        <ele>1207.0</ele>
        <time>2018-05-26T11:11:31.684Z</time>
      </trkpt>
      <trkpt lat="40.756685" lon="-4.18636667">
        <ele>1207.0</ele>
        <time>2018-05-26T11:11:32.680Z</time>
      </trkpt>
      <trkpt lat="40.75669333" lon="-4.18643667">
        <ele>1207.0</ele>
        <time>2018-05-26T11:11:33.689Z</time>
      </trkpt>
      <trkpt lat="40.75669333" lon="-4.18643667">
        <ele>1207.0</ele>
        <time>2018-05-26T11:11:34.708Z</time>
      </trkpt>
      <trkpt lat="40.75670167" lon="-4.18650667">
        <ele>1207.0</ele>
        <time>2018-05-26T11:11:35.690Z</time>
      </trkpt>
      <trkpt lat="40.75670667" lon="-4.18654167">
        <ele>1207.0</ele>
        <time>2018-05-26T11:11:36.684Z</time>
      </trkpt>
      <trkpt lat="40.75671333" lon="-4.18657667">
        <ele>1207.0</ele>
        <time>2018-05-26T11:11:37.684Z</time>
      </trkpt>
      <trkpt lat="40.75671333" lon="-4.18657667">
        <ele>1207.0</ele>
        <time>2018-05-26T11:11:38.713Z</time>
      </trkpt>
      <trkpt lat="40.75672667" lon="-4.18662667">
        <ele>1208.0</ele>
        <time>2018-05-26T11:11:39.688Z</time>
      </trkpt>
      <trkpt lat="40.75672667" lon="-4.18662667">
        <ele>1208.0</ele>
        <time>2018-05-26T11:11:40.681Z</time>
      </trkpt>
      <trkpt lat="40.75675667" lon="-4.18666167">
        <ele>1208.0</ele>
        <time>2018-05-26T11:11:41.714Z</time>
      </trkpt>
      <trkpt lat="40.75675667" lon="-4.18666167">
        <ele>1208.0</ele>
        <time>2018-05-26T11:11:42.675Z</time>
      </trkpt>
      <trkpt lat="40.75679333" lon="-4.18667833">
        <ele>1209.0</ele>
        <time>2018-05-26T11:11:43.688Z</time>
      </trkpt>
      <trkpt lat="40.75679333" lon="-4.18667833">
        <ele>1209.0</ele>
        <time>2018-05-26T11:11:44.713Z</time>
      </trkpt>
      <trkpt lat="40.756825" lon="-4.18669333">
        <ele>1210.0</ele>
        <time>2018-05-26T11:11:45.686Z</time>
      </trkpt>
      <trkpt lat="40.756825" lon="-4.18669333">
        <ele>1210.0</ele>
        <time>2018-05-26T11:11:46.713Z</time>
      </trkpt>
      <trkpt lat="40.756855" lon="-4.18671">
        <ele>1210.0</ele>
        <time>2018-05-26T11:11:47.684Z</time>
      </trkpt>
      <trkpt lat="40.75687167" lon="-4.18672167">
        <ele>1210.0</ele>
        <time>2018-05-26T11:11:48.709Z</time>
      </trkpt>
      <trkpt lat="40.75687167" lon="-4.18672167">
        <ele>1210.0</ele>
        <time>2018-05-26T11:11:49.713Z</time>
      </trkpt>
      <trkpt lat="40.75689833" lon="-4.18675667">
        <ele>1211.0</ele>
        <time>2018-05-26T11:11:50.689Z</time>
      </trkpt>
      <trkpt lat="40.75691333" lon="-4.18677667">
        <ele>1211.0</ele>
        <time>2018-05-26T11:11:51.688Z</time>
      </trkpt>
      <trkpt lat="40.75691333" lon="-4.18677667">
        <ele>1211.0</ele>
        <time>2018-05-26T11:11:52.710Z</time>
      </trkpt>
      <trkpt lat="40.75694" lon="-4.18681667">
        <ele>1211.0</ele>
        <time>2018-05-26T11:11:53.679Z</time>
      </trkpt>
      <trkpt lat="40.75694" lon="-4.18681667">
        <ele>1211.0</ele>
        <time>2018-05-26T11:11:54.712Z</time>
      </trkpt>
      <trkpt lat="40.75696833" lon="-4.18685333">
        <ele>1210.0</ele>
        <time>2018-05-26T11:11:55.677Z</time>
      </trkpt>
      <trkpt lat="40.75696833" lon="-4.18685333">
        <ele>1210.0</ele>
        <time>2018-05-26T11:11:56.713Z</time>
      </trkpt>
      <trkpt lat="40.75700833" lon="-4.18688">
        <ele>1211.0</ele>
        <time>2018-05-26T11:11:57.684Z</time>
      </trkpt>
      <trkpt lat="40.75700833" lon="-4.18688">
        <ele>1211.0</ele>
        <time>2018-05-26T11:11:58.698Z</time>
      </trkpt>
      <trkpt lat="40.75703833" lon="-4.186915">
        <ele>1211.0</ele>
        <time>2018-05-26T11:11:59.702Z</time>
      </trkpt>
      <trkpt lat="40.75703833" lon="-4.186915">
        <ele>1211.0</ele>
        <time>2018-05-26T11:12:00.712Z</time>
      </trkpt>
      <trkpt lat="40.75706833" lon="-4.18695833">
        <ele>1212.0</ele>
        <time>2018-05-26T11:12:01.684Z</time>
      </trkpt>
      <trkpt lat="40.75706833" lon="-4.18695833">
        <ele>1212.0</ele>
        <time>2018-05-26T11:12:02.713Z</time>
      </trkpt>
      <trkpt lat="40.7571" lon="-4.18699667">
        <ele>1212.0</ele>
        <time>2018-05-26T11:12:03.684Z</time>
      </trkpt>
      <trkpt lat="40.75711667" lon="-4.18701833">
        <ele>1212.0</ele>
        <time>2018-05-26T11:12:04.718Z</time>
      </trkpt>
      <trkpt lat="40.75711667" lon="-4.18701833">
        <ele>1212.0</ele>
        <time>2018-05-26T11:12:05.712Z</time>
      </trkpt>
      <trkpt lat="40.75714833" lon="-4.18705667">
        <ele>1213.0</ele>
        <time>2018-05-26T11:12:06.693Z</time>
      </trkpt>
      <trkpt lat="40.757165" lon="-4.187075">
        <ele>1213.0</ele>
        <time>2018-05-26T11:12:07.709Z</time>
      </trkpt>
      <trkpt lat="40.757165" lon="-4.187075">
        <ele>1213.0</ele>
        <time>2018-05-26T11:12:08.711Z</time>
      </trkpt>
      <trkpt lat="40.75719667" lon="-4.187115">
        <ele>1213.0</ele>
        <time>2018-05-26T11:12:09.692Z</time>
      </trkpt>
      <trkpt lat="40.75719667" lon="-4.187115">
        <ele>1213.0</ele>
        <time>2018-05-26T11:12:10.713Z</time>
      </trkpt>
      <trkpt lat="40.75722167" lon="-4.18715667">
        <ele>1213.0</ele>
        <time>2018-05-26T11:12:11.687Z</time>
      </trkpt>
      <trkpt lat="40.75722167" lon="-4.18715667">
        <ele>1213.0</ele>
        <time>2018-05-26T11:12:12.713Z</time>
      </trkpt>
      <trkpt lat="40.75724" lon="-4.1872">
        <ele>1213.0</ele>
        <time>2018-05-26T11:12:13.678Z</time>
      </trkpt>
      <trkpt lat="40.75724" lon="-4.1872">
        <ele>1213.0</ele>
        <time>2018-05-26T11:12:14.710Z</time>
      </trkpt>
      <trkpt lat="40.75725833" lon="-4.18724667">
        <ele>1214.0</ele>
        <time>2018-05-26T11:12:15.688Z</time>
      </trkpt>
      <trkpt lat="40.75725833" lon="-4.18724667">
        <ele>1214.0</ele>
        <time>2018-05-26T11:12:16.710Z</time>
      </trkpt>
      <trkpt lat="40.75728" lon="-4.18729333">
        <ele>1214.0</ele>
        <time>2018-05-26T11:12:17.689Z</time>
      </trkpt>
      <trkpt lat="40.757295" lon="-4.187315">
        <ele>1214.0</ele>
        <time>2018-05-26T11:12:18.697Z</time>
      </trkpt>
      <trkpt lat="40.757295" lon="-4.187315">
        <ele>1214.0</ele>
        <time>2018-05-26T11:12:19.712Z</time>
      </trkpt>
      <trkpt lat="40.75732167" lon="-4.187355">
        <ele>1215.0</ele>
        <time>2018-05-26T11:12:20.683Z</time>
      </trkpt>
      <trkpt lat="40.757335" lon="-4.18737167">
        <ele>1216.0</ele>
        <time>2018-05-26T11:12:21.688Z</time>
      </trkpt>
      <trkpt lat="40.757335" lon="-4.18737167">
        <ele>1216.0</ele>
        <time>2018-05-26T11:12:22.713Z</time>
      </trkpt>
      <trkpt lat="40.757365" lon="-4.18739833">
        <ele>1217.0</ele>
        <time>2018-05-26T11:12:23.714Z</time>
      </trkpt>
      <trkpt lat="40.757375" lon="-4.18741">
        <ele>1217.0</ele>
        <time>2018-05-26T11:12:24.678Z</time>
      </trkpt>
      <trkpt lat="40.75738667" lon="-4.18742">
        <ele>1217.0</ele>
        <time>2018-05-26T11:12:25.704Z</time>
      </trkpt>
      <trkpt lat="40.75738667" lon="-4.18742">
        <ele>1217.0</ele>
        <time>2018-05-26T11:12:26.684Z</time>
      </trkpt>
      <trkpt lat="40.75741167" lon="-4.18744833">
        <ele>1218.0</ele>
        <time>2018-05-26T11:12:27.688Z</time>
      </trkpt>
      <trkpt lat="40.75741167" lon="-4.18744833">
        <ele>1218.0</ele>
        <time>2018-05-26T11:12:28.684Z</time>
      </trkpt>
      <trkpt lat="40.75744167" lon="-4.18747833">
        <ele>1218.0</ele>
        <time>2018-05-26T11:12:29.687Z</time>
      </trkpt>
      <trkpt lat="40.75744167" lon="-4.18747833">
        <ele>1218.0</ele>
        <time>2018-05-26T11:12:30.714Z</time>
      </trkpt>
      <trkpt lat="40.75747167" lon="-4.18750833">
        <ele>1219.0</ele>
        <time>2018-05-26T11:12:31.688Z</time>
      </trkpt>
      <trkpt lat="40.75747167" lon="-4.18750833">
        <ele>1219.0</ele>
        <time>2018-05-26T11:12:32.689Z</time>
      </trkpt>
      <trkpt lat="40.75750167" lon="-4.18754">
        <ele>1220.0</ele>
        <time>2018-05-26T11:12:33.691Z</time>
      </trkpt>
      <trkpt lat="40.75750167" lon="-4.18754">
        <ele>1220.0</ele>
        <time>2018-05-26T11:12:34.713Z</time>
      </trkpt>
      <trkpt lat="40.75753333" lon="-4.18757">
        <ele>1220.0</ele>
        <time>2018-05-26T11:12:35.684Z</time>
      </trkpt>
      <trkpt lat="40.75753333" lon="-4.18757">
        <ele>1220.0</ele>
        <time>2018-05-26T11:12:36.692Z</time>
      </trkpt>
      <trkpt lat="40.75755667" lon="-4.18760833">
        <ele>1220.0</ele>
        <time>2018-05-26T11:12:37.688Z</time>
      </trkpt>
      <trkpt lat="40.75755667" lon="-4.18760833">
        <ele>1220.0</ele>
        <time>2018-05-26T11:12:38.710Z</time>
      </trkpt>
      <trkpt lat="40.75758167" lon="-4.18765333">
        <ele>1220.0</ele>
        <time>2018-05-26T11:12:39.688Z</time>
      </trkpt>
      <trkpt lat="40.75758167" lon="-4.18765333">
        <ele>1220.0</ele>
        <time>2018-05-26T11:12:40.710Z</time>
      </trkpt>
      <trkpt lat="40.75761167" lon="-4.187685">
        <ele>1221.0</ele>
        <time>2018-05-26T11:12:41.676Z</time>
      </trkpt>
      <trkpt lat="40.75761167" lon="-4.187685">
        <ele>1221.0</ele>
        <time>2018-05-26T11:12:42.682Z</time>
      </trkpt>
      <trkpt lat="40.75763833" lon="-4.18772">
        <ele>1221.0</ele>
        <time>2018-05-26T11:12:43.702Z</time>
      </trkpt>
      <trkpt lat="40.75763833" lon="-4.18772">
        <ele>1221.0</ele>
        <time>2018-05-26T11:12:44.679Z</time>
      </trkpt>
      <trkpt lat="40.75766333" lon="-4.187755">
        <ele>1221.0</ele>
        <time>2018-05-26T11:12:45.684Z</time>
      </trkpt>
      <trkpt lat="40.75766333" lon="-4.187755">
        <ele>1221.0</ele>
        <time>2018-05-26T11:12:46.710Z</time>
      </trkpt>
      <trkpt lat="40.757685" lon="-4.18779">
        <ele>1221.0</ele>
        <time>2018-05-26T11:12:47.679Z</time>
      </trkpt>
      <trkpt lat="40.757695" lon="-4.18781167">
        <ele>1220.0</ele>
        <time>2018-05-26T11:12:48.700Z</time>
      </trkpt>
      <trkpt lat="40.757705" lon="-4.187835">
        <ele>1220.0</ele>
        <time>2018-05-26T11:12:49.686Z</time>
      </trkpt>
      <trkpt lat="40.757705" lon="-4.187835">
        <ele>1220.0</ele>
        <time>2018-05-26T11:12:50.713Z</time>
      </trkpt>
      <trkpt lat="40.757725" lon="-4.18788">
        <ele>1220.0</ele>
        <time>2018-05-26T11:12:51.684Z</time>
      </trkpt>
      <trkpt lat="40.757725" lon="-4.18788">
        <ele>1220.0</ele>
        <time>2018-05-26T11:12:52.694Z</time>
      </trkpt>
      <trkpt lat="40.75775" lon="-4.18792833">
        <ele>1220.0</ele>
        <time>2018-05-26T11:12:53.689Z</time>
      </trkpt>
      <trkpt lat="40.75775" lon="-4.18792833">
        <ele>1220.0</ele>
        <time>2018-05-26T11:12:54.714Z</time>
      </trkpt>
      <trkpt lat="40.75777667" lon="-4.187975">
        <ele>1220.0</ele>
        <time>2018-05-26T11:12:55.688Z</time>
      </trkpt>
      <trkpt lat="40.75777667" lon="-4.187975">
        <ele>1220.0</ele>
        <time>2018-05-26T11:12:56.711Z</time>
      </trkpt>
      <trkpt lat="40.75780833" lon="-4.18801667">
        <ele>1221.0</ele>
        <time>2018-05-26T11:12:57.683Z</time>
      </trkpt>
      <trkpt lat="40.75780833" lon="-4.18801667">
        <ele>1221.0</ele>
        <time>2018-05-26T11:12:58.713Z</time>
      </trkpt>
      <trkpt lat="40.75784333" lon="-4.18805333">
        <ele>1221.0</ele>
        <time>2018-05-26T11:12:59.679Z</time>
      </trkpt>
      <trkpt lat="40.75784333" lon="-4.18805333">
        <ele>1221.0</ele>
        <time>2018-05-26T11:13:00.710Z</time>
      </trkpt>
      <trkpt lat="40.75788333" lon="-4.18808333">
        <ele>1221.0</ele>
        <time>2018-05-26T11:13:01.688Z</time>
      </trkpt>
      <trkpt lat="40.75788333" lon="-4.18808333">
        <ele>1221.0</ele>
        <time>2018-05-26T11:13:02.713Z</time>
      </trkpt>
      <trkpt lat="40.75792667" lon="-4.188115">
        <ele>1221.0</ele>
        <time>2018-05-26T11:13:03.689Z</time>
      </trkpt>
      <trkpt lat="40.75792667" lon="-4.188115">
        <ele>1221.0</ele>
        <time>2018-05-26T11:13:04.713Z</time>
      </trkpt>
      <trkpt lat="40.75796167" lon="-4.18814167">
        <ele>1221.0</ele>
        <time>2018-05-26T11:13:05.684Z</time>
      </trkpt>
      <trkpt lat="40.75796167" lon="-4.18814167">
        <ele>1221.0</ele>
        <time>2018-05-26T11:13:06.710Z</time>
      </trkpt>
      <trkpt lat="40.75800333" lon="-4.18817">
        <ele>1221.0</ele>
        <time>2018-05-26T11:13:07.684Z</time>
      </trkpt>
      <trkpt lat="40.75800333" lon="-4.18817">
        <ele>1221.0</ele>
        <time>2018-05-26T11:13:08.711Z</time>
      </trkpt>
      <trkpt lat="40.75803833" lon="-4.18820333">
        <ele>1221.0</ele>
        <time>2018-05-26T11:13:09.688Z</time>
      </trkpt>
      <trkpt lat="40.75803833" lon="-4.18820333">
        <ele>1221.0</ele>
        <time>2018-05-26T11:13:10.710Z</time>
      </trkpt>
      <trkpt lat="40.75807333" lon="-4.18824167">
        <ele>1221.0</ele>
        <time>2018-05-26T11:13:11.683Z</time>
      </trkpt>
      <trkpt lat="40.75807333" lon="-4.18824167">
        <ele>1221.0</ele>
        <time>2018-05-26T11:13:12.712Z</time>
      </trkpt>
      <trkpt lat="40.75810333" lon="-4.18828">
        <ele>1221.0</ele>
        <time>2018-05-26T11:13:13.688Z</time>
      </trkpt>
      <trkpt lat="40.75810333" lon="-4.18828">
        <ele>1221.0</ele>
        <time>2018-05-26T11:13:14.713Z</time>
      </trkpt>
      <trkpt lat="40.758135" lon="-4.18832">
        <ele>1221.0</ele>
        <time>2018-05-26T11:13:15.684Z</time>
      </trkpt>
      <trkpt lat="40.758135" lon="-4.18832">
        <ele>1221.0</ele>
        <time>2018-05-26T11:13:16.710Z</time>
      </trkpt>
      <trkpt lat="40.75816833" lon="-4.18836167">
        <ele>1221.0</ele>
        <time>2018-05-26T11:13:17.688Z</time>
      </trkpt>
      <trkpt lat="40.75816833" lon="-4.18836167">
        <ele>1221.0</ele>
        <time>2018-05-26T11:13:18.678Z</time>
      </trkpt>
      <trkpt lat="40.75820167" lon="-4.1884">
        <ele>1221.0</ele>
        <time>2018-05-26T11:13:19.693Z</time>
      </trkpt>
      <trkpt lat="40.75820167" lon="-4.1884">
        <ele>1221.0</ele>
        <time>2018-05-26T11:13:20.713Z</time>
      </trkpt>
      <trkpt lat="40.758235" lon="-4.18843667">
        <ele>1221.0</ele>
        <time>2018-05-26T11:13:21.690Z</time>
      </trkpt>
      <trkpt lat="40.758235" lon="-4.18843667">
        <ele>1221.0</ele>
        <time>2018-05-26T11:13:22.711Z</time>
      </trkpt>
      <trkpt lat="40.758265" lon="-4.18846833">
        <ele>1221.0</ele>
        <time>2018-05-26T11:13:23.684Z</time>
      </trkpt>
      <trkpt lat="40.758265" lon="-4.18846833">
        <ele>1221.0</ele>
        <time>2018-05-26T11:13:24.712Z</time>
      </trkpt>
      <trkpt lat="40.75829333" lon="-4.188505">
        <ele>1221.0</ele>
        <time>2018-05-26T11:13:25.688Z</time>
      </trkpt>
      <trkpt lat="40.75829333" lon="-4.188505">
        <ele>1221.0</ele>
        <time>2018-05-26T11:13:26.713Z</time>
      </trkpt>
      <trkpt lat="40.75831" lon="-4.18854833">
        <ele>1221.0</ele>
        <time>2018-05-26T11:13:27.684Z</time>
      </trkpt>
      <trkpt lat="40.75831" lon="-4.18854833">
        <ele>1221.0</ele>
        <time>2018-05-26T11:13:28.711Z</time>
      </trkpt>
      <trkpt lat="40.75833167" lon="-4.18859">
        <ele>1221.0</ele>
        <time>2018-05-26T11:13:29.681Z</time>
      </trkpt>
      <trkpt lat="40.75834833" lon="-4.188605">
        <ele>1222.0</ele>
        <time>2018-05-26T11:13:30.689Z</time>
      </trkpt>
      <trkpt lat="40.75836333" lon="-4.18862333">
        <ele>1222.0</ele>
        <time>2018-05-26T11:13:31.686Z</time>
      </trkpt>
      <trkpt lat="40.75836333" lon="-4.18862333">
        <ele>1222.0</ele>
        <time>2018-05-26T11:13:32.695Z</time>
      </trkpt>
      <trkpt lat="40.75839" lon="-4.18865833">
        <ele>1222.0</ele>
        <time>2018-05-26T11:13:33.703Z</time>
      </trkpt>
      <trkpt lat="40.75839" lon="-4.18865833">
        <ele>1222.0</ele>
        <time>2018-05-26T11:13:34.710Z</time>
      </trkpt>
      <trkpt lat="40.75842" lon="-4.18869167">
        <ele>1222.0</ele>
        <time>2018-05-26T11:13:35.689Z</time>
      </trkpt>
      <trkpt lat="40.75842" lon="-4.18869167">
        <ele>1222.0</ele>
        <time>2018-05-26T11:13:36.712Z</time>
      </trkpt>
      <trkpt lat="40.75844333" lon="-4.18871">
        <ele>1222.0</ele>
        <time>2018-05-26T11:13:37.688Z</time>
      </trkpt>
      <trkpt lat="40.75844333" lon="-4.18871">
        <ele>1222.0</ele>
        <time>2018-05-26T11:13:38.711Z</time>
      </trkpt>
      <trkpt lat="40.75844667" lon="-4.188725">
        <ele>1222.0</ele>
        <time>2018-05-26T11:13:39.688Z</time>
      </trkpt>
      <trkpt lat="40.75844667" lon="-4.188725">
        <ele>1222.0</ele>
        <time>2018-05-26T11:13:40.695Z</time>
      </trkpt>
      <trkpt lat="40.75845667" lon="-4.18873833">
        <ele>1222.0</ele>
        <time>2018-05-26T11:13:41.706Z</time>
      </trkpt>
      <trkpt lat="40.75845667" lon="-4.18873833">
        <ele>1222.0</ele>
        <time>2018-05-26T11:13:42.713Z</time>
      </trkpt>
      <trkpt lat="40.75846833" lon="-4.18875">
        <ele>1222.0</ele>
        <time>2018-05-26T11:13:43.684Z</time>
      </trkpt>
      <trkpt lat="40.75846833" lon="-4.18875">
        <ele>1222.0</ele>
        <time>2018-05-26T11:13:44.710Z</time>
      </trkpt>
      <trkpt lat="40.75850333" lon="-4.18877333">
        <ele>1223.0</ele>
        <time>2018-05-26T11:13:45.688Z</time>
      </trkpt>
      <trkpt lat="40.75850333" lon="-4.18877333">
        <ele>1223.0</ele>
        <time>2018-05-26T11:13:46.713Z</time>
      </trkpt>
      <trkpt lat="40.75854" lon="-4.18881">
        <ele>1223.0</ele>
        <time>2018-05-26T11:13:47.690Z</time>
      </trkpt>
      <trkpt lat="40.75856167" lon="-4.18883">
        <ele>1223.0</ele>
        <time>2018-05-26T11:13:48.704Z</time>
      </trkpt>
      <trkpt lat="40.75856167" lon="-4.18883">
        <ele>1223.0</ele>
        <time>2018-05-26T11:13:49.679Z</time>
      </trkpt>
      <trkpt lat="40.7586" lon="-4.18887167">
        <ele>1224.0</ele>
        <time>2018-05-26T11:13:50.690Z</time>
      </trkpt>
      <trkpt lat="40.75861833" lon="-4.1889">
        <ele>1224.0</ele>
        <time>2018-05-26T11:13:51.688Z</time>
      </trkpt>
      <trkpt lat="40.75861833" lon="-4.1889">
        <ele>1224.0</ele>
        <time>2018-05-26T11:13:52.699Z</time>
      </trkpt>
      <trkpt lat="40.75865667" lon="-4.18895833">
        <ele>1224.0</ele>
        <time>2018-05-26T11:13:53.704Z</time>
      </trkpt>
      <trkpt lat="40.75865667" lon="-4.18895833">
        <ele>1224.0</ele>
        <time>2018-05-26T11:13:54.683Z</time>
      </trkpt>
      <trkpt lat="40.75869833" lon="-4.189015">
        <ele>1224.0</ele>
        <time>2018-05-26T11:13:55.677Z</time>
      </trkpt>
      <trkpt lat="40.75869833" lon="-4.189015">
        <ele>1224.0</ele>
        <time>2018-05-26T11:13:56.713Z</time>
      </trkpt>
      <trkpt lat="40.75874" lon="-4.18907333">
        <ele>1225.0</ele>
        <time>2018-05-26T11:13:57.684Z</time>
      </trkpt>
      <trkpt lat="40.75874" lon="-4.18907333">
        <ele>1225.0</ele>
        <time>2018-05-26T11:13:58.712Z</time>
      </trkpt>
      <trkpt lat="40.75878167" lon="-4.18913167">
        <ele>1225.0</ele>
        <time>2018-05-26T11:13:59.680Z</time>
      </trkpt>
      <trkpt lat="40.75880167" lon="-4.18916">
        <ele>1225.0</ele>
        <time>2018-05-26T11:14:00.702Z</time>
      </trkpt>
      <trkpt lat="40.75882167" lon="-4.18918833">
        <ele>1225.0</ele>
        <time>2018-05-26T11:14:01.690Z</time>
      </trkpt>
      <trkpt lat="40.75882167" lon="-4.18918833">
        <ele>1225.0</ele>
        <time>2018-05-26T11:14:02.710Z</time>
      </trkpt>
      <trkpt lat="40.75885833" lon="-4.18924167">
        <ele>1225.0</ele>
        <time>2018-05-26T11:14:03.684Z</time>
      </trkpt>
      <trkpt lat="40.75885833" lon="-4.18924167">
        <ele>1225.0</ele>
        <time>2018-05-26T11:14:04.713Z</time>
      </trkpt>
      <trkpt lat="40.75889667" lon="-4.18929333">
        <ele>1226.0</ele>
        <time>2018-05-26T11:14:05.690Z</time>
      </trkpt>
      <trkpt lat="40.758915" lon="-4.18932">
        <ele>1226.0</ele>
        <time>2018-05-26T11:14:06.690Z</time>
      </trkpt>
      <trkpt lat="40.75893333" lon="-4.18934333">
        <ele>1226.0</ele>
        <time>2018-05-26T11:14:07.709Z</time>
      </trkpt>
      <trkpt lat="40.75893333" lon="-4.18934333">
        <ele>1226.0</ele>
        <time>2018-05-26T11:14:08.711Z</time>
      </trkpt>
      <trkpt lat="40.75896667" lon="-4.18938833">
        <ele>1226.0</ele>
        <time>2018-05-26T11:14:09.688Z</time>
      </trkpt>
      <trkpt lat="40.75896667" lon="-4.18938833">
        <ele>1226.0</ele>
        <time>2018-05-26T11:14:10.713Z</time>
      </trkpt>
      <trkpt lat="40.75899833" lon="-4.189435">
        <ele>1226.0</ele>
        <time>2018-05-26T11:14:11.690Z</time>
      </trkpt>
      <trkpt lat="40.75899833" lon="-4.189435">
        <ele>1226.0</ele>
        <time>2018-05-26T11:14:12.675Z</time>
      </trkpt>
      <trkpt lat="40.75903667" lon="-4.18948">
        <ele>1226.0</ele>
        <time>2018-05-26T11:14:13.684Z</time>
      </trkpt>
      <trkpt lat="40.759055" lon="-4.18950333">
        <ele>1226.0</ele>
        <time>2018-05-26T11:14:14.704Z</time>
      </trkpt>
      <trkpt lat="40.759075" lon="-4.189525">
        <ele>1226.0</ele>
        <time>2018-05-26T11:14:15.690Z</time>
      </trkpt>
      <trkpt lat="40.759075" lon="-4.189525">
        <ele>1226.0</ele>
        <time>2018-05-26T11:14:16.713Z</time>
      </trkpt>
      <trkpt lat="40.75911167" lon="-4.18957167">
        <ele>1226.0</ele>
        <time>2018-05-26T11:14:17.681Z</time>
      </trkpt>
      <trkpt lat="40.75913167" lon="-4.189595">
        <ele>1227.0</ele>
        <time>2018-05-26T11:14:18.708Z</time>
      </trkpt>
      <trkpt lat="40.75915" lon="-4.18962">
        <ele>1227.0</ele>
        <time>2018-05-26T11:14:19.709Z</time>
      </trkpt>
      <trkpt lat="40.75915" lon="-4.18962">
        <ele>1227.0</ele>
        <time>2018-05-26T11:14:20.679Z</time>
      </trkpt>
      <trkpt lat="40.75919167" lon="-4.18967167">
        <ele>1226.0</ele>
        <time>2018-05-26T11:14:21.683Z</time>
      </trkpt>
      <trkpt lat="40.75919167" lon="-4.18967167">
        <ele>1226.0</ele>
        <time>2018-05-26T11:14:22.713Z</time>
      </trkpt>
      <trkpt lat="40.75923667" lon="-4.189725">
        <ele>1226.0</ele>
        <time>2018-05-26T11:14:23.690Z</time>
      </trkpt>
      <trkpt lat="40.75923667" lon="-4.189725">
        <ele>1226.0</ele>
        <time>2018-05-26T11:14:24.714Z</time>
      </trkpt>
      <trkpt lat="40.759275" lon="-4.18979167">
        <ele>1227.0</ele>
        <time>2018-05-26T11:14:25.683Z</time>
      </trkpt>
      <trkpt lat="40.759275" lon="-4.18979167">
        <ele>1227.0</ele>
        <time>2018-05-26T11:14:26.710Z</time>
      </trkpt>
      <trkpt lat="40.75931167" lon="-4.18987">
        <ele>1227.0</ele>
        <time>2018-05-26T11:14:27.688Z</time>
      </trkpt>
      <trkpt lat="40.75931167" lon="-4.18987">
        <ele>1227.0</ele>
        <time>2018-05-26T11:14:28.712Z</time>
      </trkpt>
      <trkpt lat="40.75935" lon="-4.18995333">
        <ele>1226.0</ele>
        <time>2018-05-26T11:14:29.690Z</time>
      </trkpt>
      <trkpt lat="40.75937167" lon="-4.189995">
        <ele>1226.0</ele>
        <time>2018-05-26T11:14:30.684Z</time>
      </trkpt>
      <trkpt lat="40.75937167" lon="-4.189995">
        <ele>1226.0</ele>
        <time>2018-05-26T11:14:31.685Z</time>
      </trkpt>
      <trkpt lat="40.75941833" lon="-4.19008167">
        <ele>1227.0</ele>
        <time>2018-05-26T11:14:32.687Z</time>
      </trkpt>
      <trkpt lat="40.75941833" lon="-4.19008167">
        <ele>1227.0</ele>
        <time>2018-05-26T11:14:33.710Z</time>
      </trkpt>
      <trkpt lat="40.75947333" lon="-4.19015833">
        <ele>1226.0</ele>
        <time>2018-05-26T11:14:34.684Z</time>
      </trkpt>
      <trkpt lat="40.75947333" lon="-4.19015833">
        <ele>1226.0</ele>
        <time>2018-05-26T11:14:35.713Z</time>
      </trkpt>
      <trkpt lat="40.759525" lon="-4.19023833">
        <ele>1226.0</ele>
        <time>2018-05-26T11:14:36.688Z</time>
      </trkpt>
      <trkpt lat="40.75955" lon="-4.19028167">
        <ele>1226.0</ele>
        <time>2018-05-26T11:14:37.709Z</time>
      </trkpt>
      <trkpt lat="40.75955" lon="-4.19028167">
        <ele>1226.0</ele>
        <time>2018-05-26T11:14:38.684Z</time>
      </trkpt>
      <trkpt lat="40.75960333" lon="-4.19036167">
        <ele>1227.0</ele>
        <time>2018-05-26T11:14:39.692Z</time>
      </trkpt>
      <trkpt lat="40.75960333" lon="-4.19036167">
        <ele>1227.0</ele>
        <time>2018-05-26T11:14:40.712Z</time>
      </trkpt>
      <trkpt lat="40.75965333" lon="-4.19044">
        <ele>1226.0</ele>
        <time>2018-05-26T11:14:41.688Z</time>
      </trkpt>
      <trkpt lat="40.75967667" lon="-4.19047833">
        <ele>1226.0</ele>
        <time>2018-05-26T11:14:42.680Z</time>
      </trkpt>
      <trkpt lat="40.75969833" lon="-4.19051167">
        <ele>1226.0</ele>
        <time>2018-05-26T11:14:43.688Z</time>
      </trkpt>
      <trkpt lat="40.75969833" lon="-4.19051167">
        <ele>1226.0</ele>
        <time>2018-05-26T11:14:44.711Z</time>
      </trkpt>
      <trkpt lat="40.75974167" lon="-4.19057667">
        <ele>1226.0</ele>
        <time>2018-05-26T11:14:45.683Z</time>
      </trkpt>
      <trkpt lat="40.759765" lon="-4.19061667">
        <ele>1227.0</ele>
        <time>2018-05-26T11:14:46.675Z</time>
      </trkpt>
      <trkpt lat="40.759765" lon="-4.19061667">
        <ele>1227.0</ele>
        <time>2018-05-26T11:14:47.712Z</time>
      </trkpt>
      <trkpt lat="40.75980833" lon="-4.1907">
        <ele>1227.0</ele>
        <time>2018-05-26T11:14:48.690Z</time>
      </trkpt>
      <trkpt lat="40.75983167" lon="-4.19073833">
        <ele>1227.0</ele>
        <time>2018-05-26T11:14:49.684Z</time>
      </trkpt>
      <trkpt lat="40.75983167" lon="-4.19073833">
        <ele>1227.0</ele>
        <time>2018-05-26T11:14:50.711Z</time>
      </trkpt>
      <trkpt lat="40.75987167" lon="-4.19081667">
        <ele>1227.0</ele>
        <time>2018-05-26T11:14:51.694Z</time>
      </trkpt>
      <trkpt lat="40.75987167" lon="-4.19081667">
        <ele>1227.0</ele>
        <time>2018-05-26T11:14:52.688Z</time>
      </trkpt>
      <trkpt lat="40.75988833" lon="-4.190905">
        <ele>1228.0</ele>
        <time>2018-05-26T11:14:53.686Z</time>
      </trkpt>
      <trkpt lat="40.75988833" lon="-4.190905">
        <ele>1228.0</ele>
        <time>2018-05-26T11:14:54.713Z</time>
      </trkpt>
      <trkpt lat="40.759895" lon="-4.19100167">
        <ele>1228.0</ele>
        <time>2018-05-26T11:14:55.684Z</time>
      </trkpt>
      <trkpt lat="40.75991" lon="-4.19104667">
        <ele>1228.0</ele>
        <time>2018-05-26T11:14:56.691Z</time>
      </trkpt>
      <trkpt lat="40.75991" lon="-4.19104667">
        <ele>1228.0</ele>
        <time>2018-05-26T11:14:57.675Z</time>
      </trkpt>
      <trkpt lat="40.75995667" lon="-4.19112833">
        <ele>1229.0</ele>
        <time>2018-05-26T11:14:58.683Z</time>
      </trkpt>
      <trkpt lat="40.75995667" lon="-4.19112833">
        <ele>1229.0</ele>
        <time>2018-05-26T11:14:59.713Z</time>
      </trkpt>
      <trkpt lat="40.760015" lon="-4.19120333">
        <ele>1229.0</ele>
        <time>2018-05-26T11:15:00.684Z</time>
      </trkpt>
      <trkpt lat="40.76004" lon="-4.19124">
        <ele>1229.0</ele>
        <time>2018-05-26T11:15:01.704Z</time>
      </trkpt>
      <trkpt lat="40.76004" lon="-4.19124">
        <ele>1229.0</ele>
        <time>2018-05-26T11:15:02.683Z</time>
      </trkpt>
      <trkpt lat="40.76009" lon="-4.191315">
        <ele>1230.0</ele>
        <time>2018-05-26T11:15:03.689Z</time>
      </trkpt>
      <trkpt lat="40.76009" lon="-4.191315">
        <ele>1230.0</ele>
        <time>2018-05-26T11:15:04.713Z</time>
      </trkpt>
      <trkpt lat="40.76013333" lon="-4.19138667">
        <ele>1230.0</ele>
        <time>2018-05-26T11:15:05.684Z</time>
      </trkpt>
      <trkpt lat="40.760155" lon="-4.19142167">
        <ele>1231.0</ele>
        <time>2018-05-26T11:15:06.684Z</time>
      </trkpt>
      <trkpt lat="40.760155" lon="-4.19142167">
        <ele>1231.0</ele>
        <time>2018-05-26T11:15:07.691Z</time>
      </trkpt>
      <trkpt lat="40.76019833" lon="-4.19149">
        <ele>1231.0</ele>
        <time>2018-05-26T11:15:08.708Z</time>
      </trkpt>
      <trkpt lat="40.76022" lon="-4.19152667">
        <ele>1231.0</ele>
        <time>2018-05-26T11:15:09.675Z</time>
      </trkpt>
      <trkpt lat="40.76022" lon="-4.19152667">
        <ele>1231.0</ele>
        <time>2018-05-26T11:15:10.710Z</time>
      </trkpt>
      <trkpt lat="40.76026167" lon="-4.19160167">
        <ele>1231.0</ele>
        <time>2018-05-26T11:15:11.684Z</time>
      </trkpt>
      <trkpt lat="40.76026167" lon="-4.19160167">
        <ele>1231.0</ele>
        <time>2018-05-26T11:15:12.712Z</time>
      </trkpt>
      <trkpt lat="40.76031" lon="-4.191675">
        <ele>1231.0</ele>
        <time>2018-05-26T11:15:13.688Z</time>
      </trkpt>
      <trkpt lat="40.76031" lon="-4.191675">
        <ele>1231.0</ele>
        <time>2018-05-26T11:15:14.713Z</time>
      </trkpt>
      <trkpt lat="40.76035833" lon="-4.19174333">
        <ele>1231.0</ele>
        <time>2018-05-26T11:15:15.713Z</time>
      </trkpt>
      <trkpt lat="40.76038333" lon="-4.19177167">
        <ele>1232.0</ele>
        <time>2018-05-26T11:15:16.711Z</time>
      </trkpt>
      <trkpt lat="40.76038333" lon="-4.19177167">
        <ele>1232.0</ele>
        <time>2018-05-26T11:15:17.713Z</time>
      </trkpt>
      <trkpt lat="40.76043167" lon="-4.19181833">
        <ele>1232.0</ele>
        <time>2018-05-26T11:15:18.694Z</time>
      </trkpt>
      <trkpt lat="40.76045667" lon="-4.19184667">
        <ele>1232.0</ele>
        <time>2018-05-26T11:15:19.684Z</time>
      </trkpt>
      <trkpt lat="40.76045667" lon="-4.19184667">
        <ele>1232.0</ele>
        <time>2018-05-26T11:15:20.713Z</time>
      </trkpt>
      <trkpt lat="40.76051" lon="-4.191905">
        <ele>1233.0</ele>
        <time>2018-05-26T11:15:21.697Z</time>
      </trkpt>
      <trkpt lat="40.76051" lon="-4.191905">
        <ele>1233.0</ele>
        <time>2018-05-26T11:15:22.713Z</time>
      </trkpt>
      <trkpt lat="40.76056" lon="-4.19197167">
        <ele>1233.0</ele>
        <time>2018-05-26T11:15:23.676Z</time>
      </trkpt>
      <trkpt lat="40.76058167" lon="-4.19201167">
        <ele>1233.0</ele>
        <time>2018-05-26T11:15:24.683Z</time>
      </trkpt>
      <trkpt lat="40.76058167" lon="-4.19201167">
        <ele>1233.0</ele>
        <time>2018-05-26T11:15:25.696Z</time>
      </trkpt>
      <trkpt lat="40.76063167" lon="-4.192105">
        <ele>1233.0</ele>
        <time>2018-05-26T11:15:26.707Z</time>
      </trkpt>
      <trkpt lat="40.76065667" lon="-4.19215">
        <ele>1233.0</ele>
        <time>2018-05-26T11:15:27.702Z</time>
      </trkpt>
      <trkpt lat="40.76065667" lon="-4.19215">
        <ele>1233.0</ele>
        <time>2018-05-26T11:15:28.714Z</time>
      </trkpt>
      <trkpt lat="40.76070333" lon="-4.19224833">
        <ele>1233.0</ele>
        <time>2018-05-26T11:15:29.683Z</time>
      </trkpt>
      <trkpt lat="40.76070333" lon="-4.19224833">
        <ele>1233.0</ele>
        <time>2018-05-26T11:15:30.713Z</time>
      </trkpt>
      <trkpt lat="40.76075167" lon="-4.192355">
        <ele>1232.0</ele>
        <time>2018-05-26T11:15:31.678Z</time>
      </trkpt>
      <trkpt lat="40.76075167" lon="-4.192355">
        <ele>1232.0</ele>
        <time>2018-05-26T11:15:32.681Z</time>
      </trkpt>
      <trkpt lat="40.76081333" lon="-4.19246833">
        <ele>1232.0</ele>
        <time>2018-05-26T11:15:33.684Z</time>
      </trkpt>
      <trkpt lat="40.76081333" lon="-4.19246833">
        <ele>1232.0</ele>
        <time>2018-05-26T11:15:34.711Z</time>
      </trkpt>
      <trkpt lat="40.76088167" lon="-4.19258333">
        <ele>1232.0</ele>
        <time>2018-05-26T11:15:35.684Z</time>
      </trkpt>
      <trkpt lat="40.760915" lon="-4.192645">
        <ele>1232.0</ele>
        <time>2018-05-26T11:15:36.680Z</time>
      </trkpt>
      <trkpt lat="40.76095" lon="-4.19270667">
        <ele>1232.0</ele>
        <time>2018-05-26T11:15:37.706Z</time>
      </trkpt>
      <trkpt lat="40.76095" lon="-4.19270667">
        <ele>1232.0</ele>
        <time>2018-05-26T11:15:38.685Z</time>
      </trkpt>
      <trkpt lat="40.76101667" lon="-4.19284167">
        <ele>1231.0</ele>
        <time>2018-05-26T11:15:39.688Z</time>
      </trkpt>
      <trkpt lat="40.76101667" lon="-4.19284167">
        <ele>1231.0</ele>
        <time>2018-05-26T11:15:40.684Z</time>
      </trkpt>
      <trkpt lat="40.761085" lon="-4.192975">
        <ele>1231.0</ele>
        <time>2018-05-26T11:15:41.685Z</time>
      </trkpt>
      <trkpt lat="40.761085" lon="-4.192975">
        <ele>1231.0</ele>
        <time>2018-05-26T11:15:42.713Z</time>
      </trkpt>
      <trkpt lat="40.76116333" lon="-4.19309833">
        <ele>1231.0</ele>
        <time>2018-05-26T11:15:43.684Z</time>
      </trkpt>
      <trkpt lat="40.76116333" lon="-4.19309833">
        <ele>1231.0</ele>
        <time>2018-05-26T11:15:44.712Z</time>
      </trkpt>
      <trkpt lat="40.76123667" lon="-4.19322167">
        <ele>1231.0</ele>
        <time>2018-05-26T11:15:45.708Z</time>
      </trkpt>
      <trkpt lat="40.76123667" lon="-4.19322167">
        <ele>1231.0</ele>
        <time>2018-05-26T11:15:46.696Z</time>
      </trkpt>
      <trkpt lat="40.761295" lon="-4.19333667">
        <ele>1231.0</ele>
        <time>2018-05-26T11:15:47.704Z</time>
      </trkpt>
      <trkpt lat="40.76132333" lon="-4.19338667">
        <ele>1231.0</ele>
        <time>2018-05-26T11:15:48.694Z</time>
      </trkpt>
      <trkpt lat="40.76132333" lon="-4.19338667">
        <ele>1231.0</ele>
        <time>2018-05-26T11:15:49.682Z</time>
      </trkpt>
      <trkpt lat="40.76139167" lon="-4.19349333">
        <ele>1231.0</ele>
        <time>2018-05-26T11:15:50.681Z</time>
      </trkpt>
      <trkpt lat="40.76142833" lon="-4.193555">
        <ele>1230.0</ele>
        <time>2018-05-26T11:15:51.706Z</time>
      </trkpt>
      <trkpt lat="40.76142833" lon="-4.193555">
        <ele>1230.0</ele>
        <time>2018-05-26T11:15:52.713Z</time>
      </trkpt>
      <trkpt lat="40.761465" lon="-4.19370833">
        <ele>1230.0</ele>
        <time>2018-05-26T11:15:53.684Z</time>
      </trkpt>
      <trkpt lat="40.76147167" lon="-4.19379667">
        <ele>1229.0</ele>
        <time>2018-05-26T11:15:54.683Z</time>
      </trkpt>
      <trkpt lat="40.76147167" lon="-4.19379667">
        <ele>1229.0</ele>
        <time>2018-05-26T11:15:55.711Z</time>
      </trkpt>
      <trkpt lat="40.761535" lon="-4.19391333">
        <ele>1229.0</ele>
        <time>2018-05-26T11:15:56.690Z</time>
      </trkpt>
      <trkpt lat="40.761535" lon="-4.19391333">
        <ele>1229.0</ele>
        <time>2018-05-26T11:15:57.714Z</time>
      </trkpt>
      <trkpt lat="40.76162167" lon="-4.19394">
        <ele>1228.0</ele>
        <time>2018-05-26T11:15:58.684Z</time>
      </trkpt>
      <trkpt lat="40.76162167" lon="-4.19394">
        <ele>1228.0</ele>
        <time>2018-05-26T11:15:59.713Z</time>
      </trkpt>
      <trkpt lat="40.76171333" lon="-4.19396333">
        <ele>1229.0</ele>
        <time>2018-05-26T11:16:00.689Z</time>
      </trkpt>
      <trkpt lat="40.761755" lon="-4.19397833">
        <ele>1230.0</ele>
        <time>2018-05-26T11:16:01.687Z</time>
      </trkpt>
      <trkpt lat="40.761755" lon="-4.19397833">
        <ele>1230.0</ele>
        <time>2018-05-26T11:16:02.713Z</time>
      </trkpt>
      <trkpt lat="40.761815" lon="-4.19404667">
        <ele>1230.0</ele>
        <time>2018-05-26T11:16:03.684Z</time>
      </trkpt>
      <trkpt lat="40.761815" lon="-4.19404667">
        <ele>1230.0</ele>
        <time>2018-05-26T11:16:04.712Z</time>
      </trkpt>
      <trkpt lat="40.76185667" lon="-4.19416667">
        <ele>1230.0</ele>
        <time>2018-05-26T11:16:05.690Z</time>
      </trkpt>
      <trkpt lat="40.76185667" lon="-4.19416667">
        <ele>1230.0</ele>
        <time>2018-05-26T11:16:06.713Z</time>
      </trkpt>
      <trkpt lat="40.76190833" lon="-4.194305">
        <ele>1229.0</ele>
        <time>2018-05-26T11:16:07.679Z</time>
      </trkpt>
      <trkpt lat="40.76190833" lon="-4.194305">
        <ele>1229.0</ele>
        <time>2018-05-26T11:16:08.682Z</time>
      </trkpt>
      <trkpt lat="40.761995" lon="-4.194435">
        <ele>1228.0</ele>
        <time>2018-05-26T11:16:09.683Z</time>
      </trkpt>
      <trkpt lat="40.761995" lon="-4.194435">
        <ele>1228.0</ele>
        <time>2018-05-26T11:16:10.713Z</time>
      </trkpt>
      <trkpt lat="40.76210333" lon="-4.19453667">
        <ele>1228.0</ele>
        <time>2018-05-26T11:16:11.691Z</time>
      </trkpt>
      <trkpt lat="40.76210333" lon="-4.19453667">
        <ele>1228.0</ele>
        <time>2018-05-26T11:16:12.713Z</time>
      </trkpt>
      <trkpt lat="40.762225" lon="-4.19462">
        <ele>1228.0</ele>
        <time>2018-05-26T11:16:13.684Z</time>
      </trkpt>
      <trkpt lat="40.762225" lon="-4.19462">
        <ele>1228.0</ele>
        <time>2018-05-26T11:16:14.699Z</time>
      </trkpt>
      <trkpt lat="40.76235833" lon="-4.19467333">
        <ele>1228.0</ele>
        <time>2018-05-26T11:16:15.709Z</time>
      </trkpt>
      <trkpt lat="40.76235833" lon="-4.19467333">
        <ele>1228.0</ele>
        <time>2018-05-26T11:16:16.713Z</time>
      </trkpt>
      <trkpt lat="40.76249167" lon="-4.194685">
        <ele>1227.0</ele>
        <time>2018-05-26T11:16:17.681Z</time>
      </trkpt>
      <trkpt lat="40.76249167" lon="-4.194685">
        <ele>1227.0</ele>
        <time>2018-05-26T11:16:18.696Z</time>
      </trkpt>
      <trkpt lat="40.76262" lon="-4.19469333">
        <ele>1227.0</ele>
        <time>2018-05-26T11:16:19.688Z</time>
      </trkpt>
      <trkpt lat="40.76262" lon="-4.19469333">
        <ele>1227.0</ele>
        <time>2018-05-26T11:16:20.710Z</time>
      </trkpt>
      <trkpt lat="40.762735" lon="-4.19473">
        <ele>1227.0</ele>
        <time>2018-05-26T11:16:21.683Z</time>
      </trkpt>
      <trkpt lat="40.762735" lon="-4.19473">
        <ele>1227.0</ele>
        <time>2018-05-26T11:16:22.712Z</time>
      </trkpt>
      <trkpt lat="40.76284333" lon="-4.19476167">
        <ele>1226.0</ele>
        <time>2018-05-26T11:16:23.683Z</time>
      </trkpt>
      <trkpt lat="40.76289167" lon="-4.194775">
        <ele>1226.0</ele>
        <time>2018-05-26T11:16:24.691Z</time>
      </trkpt>
      <trkpt lat="40.762925" lon="-4.19479">
        <ele>1225.0</ele>
        <time>2018-05-26T11:16:25.686Z</time>
      </trkpt>
      <trkpt lat="40.762925" lon="-4.19479">
        <ele>1225.0</ele>
        <time>2018-05-26T11:16:26.697Z</time>
      </trkpt>
      <trkpt lat="40.76296333" lon="-4.19479667">
        <ele>1224.0</ele>
        <time>2018-05-26T11:16:27.705Z</time>
      </trkpt>
      <trkpt lat="40.76296333" lon="-4.19479667">
        <ele>1224.0</ele>
        <time>2018-05-26T11:16:28.713Z</time>
      </trkpt>
      <trkpt lat="40.76298833" lon="-4.19479">
        <ele>1223.0</ele>
        <time>2018-05-26T11:16:29.685Z</time>
      </trkpt>
      <trkpt lat="40.76300333" lon="-4.19479167">
        <ele>1223.0</ele>
        <time>2018-05-26T11:16:30.703Z</time>
      </trkpt>
      <trkpt lat="40.763025" lon="-4.19480167">
        <ele>1223.0</ele>
        <time>2018-05-26T11:16:31.709Z</time>
      </trkpt>
      <trkpt lat="40.763025" lon="-4.19480167">
        <ele>1223.0</ele>
        <time>2018-05-26T11:16:32.681Z</time>
      </trkpt>
      <trkpt lat="40.76306833" lon="-4.19483">
        <ele>1223.0</ele>
        <time>2018-05-26T11:16:33.690Z</time>
      </trkpt>
      <trkpt lat="40.76306833" lon="-4.19483">
        <ele>1223.0</ele>
        <time>2018-05-26T11:16:34.697Z</time>
      </trkpt>
      <trkpt lat="40.763115" lon="-4.194865">
        <ele>1223.0</ele>
        <time>2018-05-26T11:16:35.682Z</time>
      </trkpt>
      <trkpt lat="40.763115" lon="-4.194865">
        <ele>1223.0</ele>
        <time>2018-05-26T11:16:36.696Z</time>
      </trkpt>
      <trkpt lat="40.76314333" lon="-4.19492">
        <ele>1222.0</ele>
        <time>2018-05-26T11:16:37.706Z</time>
      </trkpt>
      <trkpt lat="40.76314333" lon="-4.19492">
        <ele>1222.0</ele>
        <time>2018-05-26T11:16:38.690Z</time>
      </trkpt>
      <trkpt lat="40.76316667" lon="-4.19498333">
        <ele>1223.0</ele>
        <time>2018-05-26T11:16:39.704Z</time>
      </trkpt>
      <trkpt lat="40.76316667" lon="-4.19498333">
        <ele>1223.0</ele>
        <time>2018-05-26T11:16:40.712Z</time>
      </trkpt>
      <trkpt lat="40.76318167" lon="-4.19505833">
        <ele>1224.0</ele>
        <time>2018-05-26T11:16:41.681Z</time>
      </trkpt>
      <trkpt lat="40.76318167" lon="-4.19505833">
        <ele>1224.0</ele>
        <time>2018-05-26T11:16:42.713Z</time>
      </trkpt>
      <trkpt lat="40.76319333" lon="-4.19513833">
        <ele>1224.0</ele>
        <time>2018-05-26T11:16:43.679Z</time>
      </trkpt>
      <trkpt lat="40.76319333" lon="-4.19513833">
        <ele>1224.0</ele>
        <time>2018-05-26T11:16:44.676Z</time>
      </trkpt>
      <trkpt lat="40.76320667" lon="-4.19523">
        <ele>1225.0</ele>
        <time>2018-05-26T11:16:45.682Z</time>
      </trkpt>
      <trkpt lat="40.76320667" lon="-4.19523">
        <ele>1225.0</ele>
        <time>2018-05-26T11:16:46.695Z</time>
      </trkpt>
      <trkpt lat="40.763225" lon="-4.195325">
        <ele>1225.0</ele>
        <time>2018-05-26T11:16:47.694Z</time>
      </trkpt>
      <trkpt lat="40.763225" lon="-4.195325">
        <ele>1225.0</ele>
        <time>2018-05-26T11:16:48.685Z</time>
      </trkpt>
      <trkpt lat="40.76324667" lon="-4.19541167">
        <ele>1225.0</ele>
        <time>2018-05-26T11:16:49.685Z</time>
      </trkpt>
      <trkpt lat="40.76324667" lon="-4.19541167">
        <ele>1225.0</ele>
        <time>2018-05-26T11:16:50.694Z</time>
      </trkpt>
      <trkpt lat="40.76326833" lon="-4.19549">
        <ele>1225.0</ele>
        <time>2018-05-26T11:16:51.702Z</time>
      </trkpt>
      <trkpt lat="40.76326833" lon="-4.19549">
        <ele>1225.0</ele>
        <time>2018-05-26T11:16:52.694Z</time>
      </trkpt>
      <trkpt lat="40.76329667" lon="-4.19556833">
        <ele>1225.0</ele>
        <time>2018-05-26T11:16:53.684Z</time>
      </trkpt>
      <trkpt lat="40.76329667" lon="-4.19556833">
        <ele>1225.0</ele>
        <time>2018-05-26T11:16:54.711Z</time>
      </trkpt>
      <trkpt lat="40.76333833" lon="-4.19564">
        <ele>1226.0</ele>
        <time>2018-05-26T11:16:55.688Z</time>
      </trkpt>
      <trkpt lat="40.76333833" lon="-4.19564">
        <ele>1226.0</ele>
        <time>2018-05-26T11:16:56.706Z</time>
      </trkpt>
      <trkpt lat="40.76338167" lon="-4.19569667">
        <ele>1226.0</ele>
        <time>2018-05-26T11:16:57.679Z</time>
      </trkpt>
      <trkpt lat="40.76338167" lon="-4.19569667">
        <ele>1226.0</ele>
        <time>2018-05-26T11:16:58.678Z</time>
      </trkpt>
      <trkpt lat="40.76343667" lon="-4.195725">
        <ele>1227.0</ele>
        <time>2018-05-26T11:16:59.685Z</time>
      </trkpt>
      <trkpt lat="40.76346667" lon="-4.19573333">
        <ele>1227.0</ele>
        <time>2018-05-26T11:17:00.682Z</time>
      </trkpt>
      <trkpt lat="40.76349833" lon="-4.19574">
        <ele>1228.0</ele>
        <time>2018-05-26T11:17:01.709Z</time>
      </trkpt>
      <trkpt lat="40.76349833" lon="-4.19574">
        <ele>1228.0</ele>
        <time>2018-05-26T11:17:02.694Z</time>
      </trkpt>
      <trkpt lat="40.76356" lon="-4.19574833">
        <ele>1228.0</ele>
        <time>2018-05-26T11:17:03.703Z</time>
      </trkpt>
      <trkpt lat="40.76359" lon="-4.19575833">
        <ele>1228.0</ele>
        <time>2018-05-26T11:17:04.707Z</time>
      </trkpt>
      <trkpt lat="40.76362167" lon="-4.19577667">
        <ele>1228.0</ele>
        <time>2018-05-26T11:17:05.683Z</time>
      </trkpt>
      <trkpt lat="40.76362167" lon="-4.19577667">
        <ele>1228.0</ele>
        <time>2018-05-26T11:17:06.678Z</time>
      </trkpt>
      <trkpt lat="40.763675" lon="-4.19584167">
        <ele>1228.0</ele>
        <time>2018-05-26T11:17:07.692Z</time>
      </trkpt>
      <trkpt lat="40.763675" lon="-4.19584167">
        <ele>1228.0</ele>
        <time>2018-05-26T11:17:08.694Z</time>
      </trkpt>
      <trkpt lat="40.76371667" lon="-4.19591167">
        <ele>1227.0</ele>
        <time>2018-05-26T11:17:09.694Z</time>
      </trkpt>
      <trkpt lat="40.76371667" lon="-4.19591167">
        <ele>1227.0</ele>
        <time>2018-05-26T11:17:10.683Z</time>
      </trkpt>
      <trkpt lat="40.76375333" lon="-4.19598167">
        <ele>1228.0</ele>
        <time>2018-05-26T11:17:11.679Z</time>
      </trkpt>
      <trkpt lat="40.76375333" lon="-4.19598167">
        <ele>1228.0</ele>
        <time>2018-05-26T11:17:12.713Z</time>
      </trkpt>
      <trkpt lat="40.76379167" lon="-4.196045">
        <ele>1227.0</ele>
        <time>2018-05-26T11:17:13.688Z</time>
      </trkpt>
      <trkpt lat="40.76379167" lon="-4.196045">
        <ele>1227.0</ele>
        <time>2018-05-26T11:17:14.711Z</time>
      </trkpt>
      <trkpt lat="40.76382833" lon="-4.196105">
        <ele>1228.0</ele>
        <time>2018-05-26T11:17:15.683Z</time>
      </trkpt>
      <trkpt lat="40.76382833" lon="-4.196105">
        <ele>1228.0</ele>
        <time>2018-05-26T11:17:16.713Z</time>
      </trkpt>
      <trkpt lat="40.76386833" lon="-4.19616167">
        <ele>1228.0</ele>
        <time>2018-05-26T11:17:17.691Z</time>
      </trkpt>
      <trkpt lat="40.76386833" lon="-4.19616167">
        <ele>1228.0</ele>
        <time>2018-05-26T11:17:18.682Z</time>
      </trkpt>
      <trkpt lat="40.76390833" lon="-4.19621833">
        <ele>1228.0</ele>
        <time>2018-05-26T11:17:19.689Z</time>
      </trkpt>
      <trkpt lat="40.76390833" lon="-4.19621833">
        <ele>1228.0</ele>
        <time>2018-05-26T11:17:20.713Z</time>
      </trkpt>
      <trkpt lat="40.76394833" lon="-4.19627167">
        <ele>1228.0</ele>
        <time>2018-05-26T11:17:21.688Z</time>
      </trkpt>
      <trkpt lat="40.76394833" lon="-4.19627167">
        <ele>1228.0</ele>
        <time>2018-05-26T11:17:22.711Z</time>
      </trkpt>
      <trkpt lat="40.76398167" lon="-4.19631667">
        <ele>1229.0</ele>
        <time>2018-05-26T11:17:23.691Z</time>
      </trkpt>
      <trkpt lat="40.76398167" lon="-4.19631667">
        <ele>1229.0</ele>
        <time>2018-05-26T11:17:24.678Z</time>
      </trkpt>
      <trkpt lat="40.764015" lon="-4.19635667">
        <ele>1229.0</ele>
        <time>2018-05-26T11:17:25.684Z</time>
      </trkpt>
      <trkpt lat="40.764015" lon="-4.19635667">
        <ele>1229.0</ele>
        <time>2018-05-26T11:17:26.707Z</time>
      </trkpt>
      <trkpt lat="40.76406167" lon="-4.19639833">
        <ele>1230.0</ele>
        <time>2018-05-26T11:17:27.708Z</time>
      </trkpt>
      <trkpt lat="40.76406167" lon="-4.19639833">
        <ele>1230.0</ele>
        <time>2018-05-26T11:17:28.696Z</time>
      </trkpt>
      <trkpt lat="40.764115" lon="-4.196435">
        <ele>1231.0</ele>
        <time>2018-05-26T11:17:29.704Z</time>
      </trkpt>
      <trkpt lat="40.764115" lon="-4.196435">
        <ele>1231.0</ele>
        <time>2018-05-26T11:17:30.684Z</time>
      </trkpt>
      <trkpt lat="40.764165" lon="-4.196465">
        <ele>1231.0</ele>
        <time>2018-05-26T11:17:31.688Z</time>
      </trkpt>
      <trkpt lat="40.764165" lon="-4.196465">
        <ele>1231.0</ele>
        <time>2018-05-26T11:17:32.704Z</time>
      </trkpt>
      <trkpt lat="40.764215" lon="-4.19649667">
        <ele>1232.0</ele>
        <time>2018-05-26T11:17:33.711Z</time>
      </trkpt>
      <trkpt lat="40.76423667" lon="-4.19651167">
        <ele>1232.0</ele>
        <time>2018-05-26T11:17:34.688Z</time>
      </trkpt>
      <trkpt lat="40.76423667" lon="-4.19651167">
        <ele>1232.0</ele>
        <time>2018-05-26T11:17:35.711Z</time>
      </trkpt>
      <trkpt lat="40.764285" lon="-4.19653333">
        <ele>1233.0</ele>
        <time>2018-05-26T11:17:36.688Z</time>
      </trkpt>
      <trkpt lat="40.76430667" lon="-4.19654167">
        <ele>1233.0</ele>
        <time>2018-05-26T11:17:37.688Z</time>
      </trkpt>
      <trkpt lat="40.76430667" lon="-4.19654167">
        <ele>1233.0</ele>
        <time>2018-05-26T11:17:38.685Z</time>
      </trkpt>
      <trkpt lat="40.76434" lon="-4.19656">
        <ele>1233.0</ele>
        <time>2018-05-26T11:17:39.688Z</time>
      </trkpt>
      <trkpt lat="40.76434" lon="-4.19656">
        <ele>1233.0</ele>
        <time>2018-05-26T11:17:40.686Z</time>
      </trkpt>
      <trkpt lat="40.76438167" lon="-4.19658333">
        <ele>1233.0</ele>
        <time>2018-05-26T11:17:41.714Z</time>
      </trkpt>
      <trkpt lat="40.76438167" lon="-4.19658333">
        <ele>1233.0</ele>
        <time>2018-05-26T11:17:42.686Z</time>
      </trkpt>
      <trkpt lat="40.76442333" lon="-4.19661167">
        <ele>1234.0</ele>
        <time>2018-05-26T11:17:43.686Z</time>
      </trkpt>
      <trkpt lat="40.76442333" lon="-4.19661167">
        <ele>1234.0</ele>
        <time>2018-05-26T11:17:44.714Z</time>
      </trkpt>
      <trkpt lat="40.76446333" lon="-4.19664667">
        <ele>1235.0</ele>
        <time>2018-05-26T11:17:45.690Z</time>
      </trkpt>
      <trkpt lat="40.76446333" lon="-4.19664667">
        <ele>1235.0</ele>
        <time>2018-05-26T11:17:46.712Z</time>
      </trkpt>
      <trkpt lat="40.76450833" lon="-4.19667167">
        <ele>1234.0</ele>
        <time>2018-05-26T11:17:47.679Z</time>
      </trkpt>
      <trkpt lat="40.76450833" lon="-4.19667167">
        <ele>1234.0</ele>
        <time>2018-05-26T11:17:48.713Z</time>
      </trkpt>
      <trkpt lat="40.76455" lon="-4.19668667">
        <ele>1235.0</ele>
        <time>2018-05-26T11:17:49.688Z</time>
      </trkpt>
      <trkpt lat="40.76455" lon="-4.19668667">
        <ele>1235.0</ele>
        <time>2018-05-26T11:17:50.711Z</time>
      </trkpt>
      <trkpt lat="40.76458833" lon="-4.196705">
        <ele>1235.0</ele>
        <time>2018-05-26T11:17:51.688Z</time>
      </trkpt>
      <trkpt lat="40.76458833" lon="-4.196705">
        <ele>1235.0</ele>
        <time>2018-05-26T11:17:52.711Z</time>
      </trkpt>
      <trkpt lat="40.76463333" lon="-4.19671667">
        <ele>1235.0</ele>
        <time>2018-05-26T11:17:53.691Z</time>
      </trkpt>
      <trkpt lat="40.764655" lon="-4.19672667">
        <ele>1236.0</ele>
        <time>2018-05-26T11:17:54.688Z</time>
      </trkpt>
      <trkpt lat="40.76467333" lon="-4.19673833">
        <ele>1236.0</ele>
        <time>2018-05-26T11:17:55.685Z</time>
      </trkpt>
      <trkpt lat="40.76467333" lon="-4.19673833">
        <ele>1236.0</ele>
        <time>2018-05-26T11:17:56.713Z</time>
      </trkpt>
      <trkpt lat="40.76472" lon="-4.19676167">
        <ele>1236.0</ele>
        <time>2018-05-26T11:17:57.697Z</time>
      </trkpt>
      <trkpt lat="40.764745" lon="-4.19677">
        <ele>1236.0</ele>
        <time>2018-05-26T11:17:58.707Z</time>
      </trkpt>
      <trkpt lat="40.764745" lon="-4.19677">
        <ele>1236.0</ele>
        <time>2018-05-26T11:17:59.686Z</time>
      </trkpt>
      <trkpt lat="40.76479333" lon="-4.19679167">
        <ele>1237.0</ele>
        <time>2018-05-26T11:18:00.685Z</time>
      </trkpt>
      <trkpt lat="40.76481667" lon="-4.19680167">
        <ele>1237.0</ele>
        <time>2018-05-26T11:18:01.686Z</time>
      </trkpt>
      <trkpt lat="40.76481667" lon="-4.19680167">
        <ele>1237.0</ele>
        <time>2018-05-26T11:18:02.682Z</time>
      </trkpt>
      <trkpt lat="40.76486" lon="-4.19682167">
        <ele>1238.0</ele>
        <time>2018-05-26T11:18:03.691Z</time>
      </trkpt>
      <trkpt lat="40.76486" lon="-4.19682167">
        <ele>1238.0</ele>
        <time>2018-05-26T11:18:04.676Z</time>
      </trkpt>
      <trkpt lat="40.764905" lon="-4.19684667">
        <ele>1238.0</ele>
        <time>2018-05-26T11:18:05.684Z</time>
      </trkpt>
      <trkpt lat="40.76492833" lon="-4.19686">
        <ele>1238.0</ele>
        <time>2018-05-26T11:18:06.704Z</time>
      </trkpt>
      <trkpt lat="40.76492833" lon="-4.19686">
        <ele>1238.0</ele>
        <time>2018-05-26T11:18:07.682Z</time>
      </trkpt>
      <trkpt lat="40.76497667" lon="-4.19688833">
        <ele>1238.0</ele>
        <time>2018-05-26T11:18:08.684Z</time>
      </trkpt>
      <trkpt lat="40.76499833" lon="-4.19690167">
        <ele>1238.0</ele>
        <time>2018-05-26T11:18:09.690Z</time>
      </trkpt>
      <trkpt lat="40.76499833" lon="-4.19690167">
        <ele>1238.0</ele>
        <time>2018-05-26T11:18:10.711Z</time>
      </trkpt>
      <trkpt lat="40.765045" lon="-4.19691833">
        <ele>1239.0</ele>
        <time>2018-05-26T11:18:11.685Z</time>
      </trkpt>
      <trkpt lat="40.765045" lon="-4.19691833">
        <ele>1239.0</ele>
        <time>2018-05-26T11:18:12.713Z</time>
      </trkpt>
      <trkpt lat="40.765095" lon="-4.19693">
        <ele>1239.0</ele>
        <time>2018-05-26T11:18:13.699Z</time>
      </trkpt>
      <trkpt lat="40.765095" lon="-4.19693">
        <ele>1239.0</ele>
        <time>2018-05-26T11:18:14.690Z</time>
      </trkpt>
      <trkpt lat="40.76513667" lon="-4.19693">
        <ele>1239.0</ele>
        <time>2018-05-26T11:18:15.687Z</time>
      </trkpt>
      <trkpt lat="40.76513667" lon="-4.19693">
        <ele>1239.0</ele>
        <time>2018-05-26T11:18:16.711Z</time>
      </trkpt>
      <trkpt lat="40.76516833" lon="-4.19691167">
        <ele>1239.0</ele>
        <time>2018-05-26T11:18:17.678Z</time>
      </trkpt>
      <trkpt lat="40.76516833" lon="-4.19691167">
        <ele>1239.0</ele>
        <time>2018-05-26T11:18:18.713Z</time>
      </trkpt>
      <trkpt lat="40.76519667" lon="-4.196885">
        <ele>1239.0</ele>
        <time>2018-05-26T11:18:19.688Z</time>
      </trkpt>
      <trkpt lat="40.76519667" lon="-4.196885">
        <ele>1239.0</ele>
        <time>2018-05-26T11:18:20.713Z</time>
      </trkpt>
      <trkpt lat="40.76522167" lon="-4.19685833">
        <ele>1240.0</ele>
        <time>2018-05-26T11:18:21.716Z</time>
      </trkpt>
      <trkpt lat="40.76522167" lon="-4.19685833">
        <ele>1240.0</ele>
        <time>2018-05-26T11:18:22.686Z</time>
      </trkpt>
      <trkpt lat="40.76524833" lon="-4.19683">
        <ele>1240.0</ele>
        <time>2018-05-26T11:18:23.681Z</time>
      </trkpt>
      <trkpt lat="40.76526333" lon="-4.19681333">
        <ele>1240.0</ele>
        <time>2018-05-26T11:18:24.688Z</time>
      </trkpt>
      <trkpt lat="40.76527833" lon="-4.19679833">
        <ele>1240.0</ele>
        <time>2018-05-26T11:18:25.686Z</time>
      </trkpt>
      <trkpt lat="40.76527833" lon="-4.19679833">
        <ele>1240.0</ele>
        <time>2018-05-26T11:18:26.711Z</time>
      </trkpt>
      <trkpt lat="40.76531333" lon="-4.196765">
        <ele>1240.0</ele>
        <time>2018-05-26T11:18:27.685Z</time>
      </trkpt>
      <trkpt lat="40.76531333" lon="-4.196765">
        <ele>1240.0</ele>
        <time>2018-05-26T11:18:28.710Z</time>
      </trkpt>
      <trkpt lat="40.76534667" lon="-4.19673333">
        <ele>1241.0</ele>
        <time>2018-05-26T11:18:29.678Z</time>
      </trkpt>
      <trkpt lat="40.76536333" lon="-4.19671833">
        <ele>1241.0</ele>
        <time>2018-05-26T11:18:30.690Z</time>
      </trkpt>
      <trkpt lat="40.76537833" lon="-4.19670167">
        <ele>1241.0</ele>
        <time>2018-05-26T11:18:31.688Z</time>
      </trkpt>
      <trkpt lat="40.76537833" lon="-4.19670167">
        <ele>1241.0</ele>
        <time>2018-05-26T11:18:32.708Z</time>
      </trkpt>
      <trkpt lat="40.76541167" lon="-4.19667167">
        <ele>1241.0</ele>
        <time>2018-05-26T11:18:33.676Z</time>
      </trkpt>
      <trkpt lat="40.76542833" lon="-4.19665667">
        <ele>1241.0</ele>
        <time>2018-05-26T11:18:34.710Z</time>
      </trkpt>
      <trkpt lat="40.76542833" lon="-4.19665667">
        <ele>1241.0</ele>
        <time>2018-05-26T11:18:35.686Z</time>
      </trkpt>
      <trkpt lat="40.76545833" lon="-4.19663">
        <ele>1241.0</ele>
        <time>2018-05-26T11:18:36.709Z</time>
      </trkpt>
      <trkpt lat="40.76545833" lon="-4.19663">
        <ele>1241.0</ele>
        <time>2018-05-26T11:18:37.714Z</time>
      </trkpt>
      <trkpt lat="40.76549333" lon="-4.19660667">
        <ele>1241.0</ele>
        <time>2018-05-26T11:18:38.701Z</time>
      </trkpt>
      <trkpt lat="40.76551" lon="-4.19659667">
        <ele>1242.0</ele>
        <time>2018-05-26T11:18:39.688Z</time>
      </trkpt>
      <trkpt lat="40.76551" lon="-4.19659667">
        <ele>1242.0</ele>
        <time>2018-05-26T11:18:40.704Z</time>
      </trkpt>
      <trkpt lat="40.76554833" lon="-4.196575">
        <ele>1242.0</ele>
        <time>2018-05-26T11:18:41.691Z</time>
      </trkpt>
      <trkpt lat="40.76554833" lon="-4.196575">
        <ele>1242.0</ele>
        <time>2018-05-26T11:18:42.712Z</time>
      </trkpt>
      <trkpt lat="40.76558833" lon="-4.19655667">
        <ele>1243.0</ele>
        <time>2018-05-26T11:18:43.689Z</time>
      </trkpt>
      <trkpt lat="40.76558833" lon="-4.19655667">
        <ele>1243.0</ele>
        <time>2018-05-26T11:18:44.713Z</time>
      </trkpt>
      <trkpt lat="40.76562" lon="-4.19654167">
        <ele>1243.0</ele>
        <time>2018-05-26T11:18:45.691Z</time>
      </trkpt>
      <trkpt lat="40.76562" lon="-4.19654167">
        <ele>1243.0</ele>
        <time>2018-05-26T11:18:46.677Z</time>
      </trkpt>
      <trkpt lat="40.76564333" lon="-4.19652667">
        <ele>1244.0</ele>
        <time>2018-05-26T11:18:47.680Z</time>
      </trkpt>
      <trkpt lat="40.76565667" lon="-4.196515">
        <ele>1244.0</ele>
        <time>2018-05-26T11:18:48.704Z</time>
      </trkpt>
      <trkpt lat="40.76567333" lon="-4.19649833">
        <ele>1244.0</ele>
        <time>2018-05-26T11:18:49.688Z</time>
      </trkpt>
      <trkpt lat="40.76567333" lon="-4.19649833">
        <ele>1244.0</ele>
        <time>2018-05-26T11:18:50.713Z</time>
      </trkpt>
      <trkpt lat="40.76570667" lon="-4.19646667">
        <ele>1244.0</ele>
        <time>2018-05-26T11:18:51.688Z</time>
      </trkpt>
      <trkpt lat="40.76570667" lon="-4.19646667">
        <ele>1244.0</ele>
        <time>2018-05-26T11:18:52.675Z</time>
      </trkpt>
      <trkpt lat="40.76574" lon="-4.19643667">
        <ele>1244.0</ele>
        <time>2018-05-26T11:18:53.683Z</time>
      </trkpt>
      <trkpt lat="40.76574" lon="-4.19643667">
        <ele>1244.0</ele>
        <time>2018-05-26T11:18:54.713Z</time>
      </trkpt>
      <trkpt lat="40.76577667" lon="-4.196405">
        <ele>1244.0</ele>
        <time>2018-05-26T11:18:55.687Z</time>
      </trkpt>
      <trkpt lat="40.76577667" lon="-4.196405">
        <ele>1244.0</ele>
        <time>2018-05-26T11:18:56.711Z</time>
      </trkpt>
      <trkpt lat="40.76582" lon="-4.19640167">
        <ele>1244.0</ele>
        <time>2018-05-26T11:18:57.690Z</time>
      </trkpt>
      <trkpt lat="40.76582" lon="-4.19640167">
        <ele>1244.0</ele>
        <time>2018-05-26T11:18:58.687Z</time>
      </trkpt>
      <trkpt lat="40.765845" lon="-4.19645667">
        <ele>1245.0</ele>
        <time>2018-05-26T11:18:59.688Z</time>
      </trkpt>
      <trkpt lat="40.76585167" lon="-4.19649">
        <ele>1244.0</ele>
        <time>2018-05-26T11:19:00.683Z</time>
      </trkpt>
      <trkpt lat="40.76585833" lon="-4.19652333">
        <ele>1244.0</ele>
        <time>2018-05-26T11:19:01.687Z</time>
      </trkpt>
      <trkpt lat="40.76585833" lon="-4.19652333">
        <ele>1244.0</ele>
        <time>2018-05-26T11:19:02.711Z</time>
      </trkpt>
      <trkpt lat="40.76587333" lon="-4.19659333">
        <ele>1245.0</ele>
        <time>2018-05-26T11:19:03.684Z</time>
      </trkpt>
      <trkpt lat="40.76588167" lon="-4.19663">
        <ele>1245.0</ele>
        <time>2018-05-26T11:19:04.682Z</time>
      </trkpt>
      <trkpt lat="40.76589" lon="-4.19666667">
        <ele>1245.0</ele>
        <time>2018-05-26T11:19:05.679Z</time>
      </trkpt>
      <trkpt lat="40.76589" lon="-4.19666667">
        <ele>1245.0</ele>
        <time>2018-05-26T11:19:06.713Z</time>
      </trkpt>
      <trkpt lat="40.76590667" lon="-4.19674">
        <ele>1245.0</ele>
        <time>2018-05-26T11:19:07.694Z</time>
      </trkpt>
      <trkpt lat="40.76591833" lon="-4.196775">
        <ele>1245.0</ele>
        <time>2018-05-26T11:19:08.710Z</time>
      </trkpt>
      <trkpt lat="40.76591833" lon="-4.196775">
        <ele>1245.0</ele>
        <time>2018-05-26T11:19:09.676Z</time>
      </trkpt>
      <trkpt lat="40.76594333" lon="-4.19684833">
        <ele>1245.0</ele>
        <time>2018-05-26T11:19:10.686Z</time>
      </trkpt>
      <trkpt lat="40.76594333" lon="-4.19684833">
        <ele>1245.0</ele>
        <time>2018-05-26T11:19:11.681Z</time>
      </trkpt>
      <trkpt lat="40.76597333" lon="-4.19691833">
        <ele>1245.0</ele>
        <time>2018-05-26T11:19:12.693Z</time>
      </trkpt>
      <trkpt lat="40.76598833" lon="-4.19695167">
        <ele>1245.0</ele>
        <time>2018-05-26T11:19:13.686Z</time>
      </trkpt>
      <trkpt lat="40.76598833" lon="-4.19695167">
        <ele>1245.0</ele>
        <time>2018-05-26T11:19:14.711Z</time>
      </trkpt>
      <trkpt lat="40.76601667" lon="-4.19701">
        <ele>1245.0</ele>
        <time>2018-05-26T11:19:15.688Z</time>
      </trkpt>
      <trkpt lat="40.76601667" lon="-4.19701">
        <ele>1245.0</ele>
        <time>2018-05-26T11:19:16.712Z</time>
      </trkpt>
      <trkpt lat="40.76604667" lon="-4.197075">
        <ele>1245.0</ele>
        <time>2018-05-26T11:19:17.691Z</time>
      </trkpt>
      <trkpt lat="40.76606167" lon="-4.19710667">
        <ele>1245.0</ele>
        <time>2018-05-26T11:19:18.699Z</time>
      </trkpt>
      <trkpt lat="40.76606167" lon="-4.19710667">
        <ele>1245.0</ele>
        <time>2018-05-26T11:19:19.712Z</time>
      </trkpt>
      <trkpt lat="40.76609167" lon="-4.19716833">
        <ele>1245.0</ele>
        <time>2018-05-26T11:19:20.683Z</time>
      </trkpt>
      <trkpt lat="40.76610667" lon="-4.1972">
        <ele>1246.0</ele>
        <time>2018-05-26T11:19:21.682Z</time>
      </trkpt>
      <trkpt lat="40.76610667" lon="-4.1972">
        <ele>1246.0</ele>
        <time>2018-05-26T11:19:22.693Z</time>
      </trkpt>
      <trkpt lat="40.76613833" lon="-4.19726167">
        <ele>1246.0</ele>
        <time>2018-05-26T11:19:23.709Z</time>
      </trkpt>
      <trkpt lat="40.76613833" lon="-4.19726167">
        <ele>1246.0</ele>
        <time>2018-05-26T11:19:24.711Z</time>
      </trkpt>
      <trkpt lat="40.76616667" lon="-4.19731833">
        <ele>1246.0</ele>
        <time>2018-05-26T11:19:25.688Z</time>
      </trkpt>
      <trkpt lat="40.76616667" lon="-4.19731833">
        <ele>1246.0</ele>
        <time>2018-05-26T11:19:26.713Z</time>
      </trkpt>
      <trkpt lat="40.76619333" lon="-4.197365">
        <ele>1246.0</ele>
        <time>2018-05-26T11:19:27.691Z</time>
      </trkpt>
      <trkpt lat="40.76619333" lon="-4.197365">
        <ele>1246.0</ele>
        <time>2018-05-26T11:19:28.690Z</time>
      </trkpt>
      <trkpt lat="40.76622" lon="-4.19741333">
        <ele>1247.0</ele>
        <time>2018-05-26T11:19:29.686Z</time>
      </trkpt>
      <trkpt lat="40.76622" lon="-4.19741333">
        <ele>1247.0</ele>
        <time>2018-05-26T11:19:30.711Z</time>
      </trkpt>
      <trkpt lat="40.76624667" lon="-4.19745833">
        <ele>1247.0</ele>
        <time>2018-05-26T11:19:31.688Z</time>
      </trkpt>
      <trkpt lat="40.76624667" lon="-4.19745833">
        <ele>1247.0</ele>
        <time>2018-05-26T11:19:32.680Z</time>
      </trkpt>
      <trkpt lat="40.76627167" lon="-4.1975">
        <ele>1248.0</ele>
        <time>2018-05-26T11:19:33.690Z</time>
      </trkpt>
      <trkpt lat="40.76628167" lon="-4.19752167">
        <ele>1248.0</ele>
        <time>2018-05-26T11:19:34.714Z</time>
      </trkpt>
      <trkpt lat="40.76629167" lon="-4.19754">
        <ele>1248.0</ele>
        <time>2018-05-26T11:19:35.684Z</time>
      </trkpt>
      <trkpt lat="40.76629167" lon="-4.19754">
        <ele>1248.0</ele>
        <time>2018-05-26T11:19:36.694Z</time>
      </trkpt>
      <trkpt lat="40.76632167" lon="-4.19759">
        <ele>1248.0</ele>
        <time>2018-05-26T11:19:37.707Z</time>
      </trkpt>
      <trkpt lat="40.76632167" lon="-4.19759">
        <ele>1248.0</ele>
        <time>2018-05-26T11:19:38.693Z</time>
      </trkpt>
      <trkpt lat="40.766345" lon="-4.197645">
        <ele>1248.0</ele>
        <time>2018-05-26T11:19:39.704Z</time>
      </trkpt>
      <trkpt lat="40.766345" lon="-4.197645">
        <ele>1248.0</ele>
        <time>2018-05-26T11:19:40.675Z</time>
      </trkpt>
      <trkpt lat="40.76637" lon="-4.19770333">
        <ele>1248.0</ele>
        <time>2018-05-26T11:19:41.688Z</time>
      </trkpt>
      <trkpt lat="40.76638167" lon="-4.197735">
        <ele>1248.0</ele>
        <time>2018-05-26T11:19:42.685Z</time>
      </trkpt>
      <trkpt lat="40.766395" lon="-4.19776667">
        <ele>1249.0</ele>
        <time>2018-05-26T11:19:43.709Z</time>
      </trkpt>
      <trkpt lat="40.766395" lon="-4.19776667">
        <ele>1249.0</ele>
        <time>2018-05-26T11:19:44.687Z</time>
      </trkpt>
      <trkpt lat="40.766425" lon="-4.19782333">
        <ele>1249.0</ele>
        <time>2018-05-26T11:19:45.685Z</time>
      </trkpt>
      <trkpt lat="40.766425" lon="-4.19782333">
        <ele>1249.0</ele>
        <time>2018-05-26T11:19:46.711Z</time>
      </trkpt>
      <trkpt lat="40.76645833" lon="-4.19787667">
        <ele>1249.0</ele>
        <time>2018-05-26T11:19:47.694Z</time>
      </trkpt>
      <trkpt lat="40.76645833" lon="-4.19787667">
        <ele>1249.0</ele>
        <time>2018-05-26T11:19:48.713Z</time>
      </trkpt>
      <trkpt lat="40.766495" lon="-4.19792667">
        <ele>1249.0</ele>
        <time>2018-05-26T11:19:49.679Z</time>
      </trkpt>
      <trkpt lat="40.766495" lon="-4.19792667">
        <ele>1249.0</ele>
        <time>2018-05-26T11:19:50.711Z</time>
      </trkpt>
      <trkpt lat="40.76653333" lon="-4.19797667">
        <ele>1249.0</ele>
        <time>2018-05-26T11:19:51.683Z</time>
      </trkpt>
      <trkpt lat="40.76653333" lon="-4.19797667">
        <ele>1249.0</ele>
        <time>2018-05-26T11:19:52.713Z</time>
      </trkpt>
      <trkpt lat="40.76657167" lon="-4.198025">
        <ele>1250.0</ele>
        <time>2018-05-26T11:19:53.687Z</time>
      </trkpt>
      <trkpt lat="40.76658833" lon="-4.19804667">
        <ele>1250.0</ele>
        <time>2018-05-26T11:19:54.718Z</time>
      </trkpt>
      <trkpt lat="40.76660167" lon="-4.19806333">
        <ele>1250.0</ele>
        <time>2018-05-26T11:19:55.685Z</time>
      </trkpt>
      <trkpt lat="40.76661333" lon="-4.19808333">
        <ele>1250.0</ele>
        <time>2018-05-26T11:19:56.683Z</time>
      </trkpt>
      <trkpt lat="40.76661333" lon="-4.19808333">
        <ele>1250.0</ele>
        <time>2018-05-26T11:19:57.684Z</time>
      </trkpt>
      <trkpt lat="40.76664333" lon="-4.19813333">
        <ele>1250.0</ele>
        <time>2018-05-26T11:19:58.707Z</time>
      </trkpt>
      <trkpt lat="40.76664333" lon="-4.19813333">
        <ele>1250.0</ele>
        <time>2018-05-26T11:19:59.713Z</time>
      </trkpt>
      <trkpt lat="40.76668167" lon="-4.19819333">
        <ele>1250.0</ele>
        <time>2018-05-26T11:20:00.686Z</time>
      </trkpt>
      <trkpt lat="40.76670333" lon="-4.19822167">
        <ele>1251.0</ele>
        <time>2018-05-26T11:20:01.686Z</time>
      </trkpt>
      <trkpt lat="40.76670333" lon="-4.19822167">
        <ele>1251.0</ele>
        <time>2018-05-26T11:20:02.713Z</time>
      </trkpt>
      <trkpt lat="40.76674667" lon="-4.19827">
        <ele>1251.0</ele>
        <time>2018-05-26T11:20:03.688Z</time>
      </trkpt>
      <trkpt lat="40.76674667" lon="-4.19827">
        <ele>1251.0</ele>
        <time>2018-05-26T11:20:04.714Z</time>
      </trkpt>
      <trkpt lat="40.76679333" lon="-4.19832">
        <ele>1251.0</ele>
        <time>2018-05-26T11:20:05.687Z</time>
      </trkpt>
      <trkpt lat="40.76679333" lon="-4.19832">
        <ele>1251.0</ele>
        <time>2018-05-26T11:20:06.711Z</time>
      </trkpt>
      <trkpt lat="40.76684667" lon="-4.19837167">
        <ele>1251.0</ele>
        <time>2018-05-26T11:20:07.688Z</time>
      </trkpt>
      <trkpt lat="40.76684667" lon="-4.19837167">
        <ele>1251.0</ele>
        <time>2018-05-26T11:20:08.710Z</time>
      </trkpt>
      <trkpt lat="40.76690167" lon="-4.198425">
        <ele>1251.0</ele>
        <time>2018-05-26T11:20:09.686Z</time>
      </trkpt>
      <trkpt lat="40.76690167" lon="-4.198425">
        <ele>1251.0</ele>
        <time>2018-05-26T11:20:10.711Z</time>
      </trkpt>
      <trkpt lat="40.76696333" lon="-4.19847333">
        <ele>1250.0</ele>
        <time>2018-05-26T11:20:11.688Z</time>
      </trkpt>
      <trkpt lat="40.76696333" lon="-4.19847333">
        <ele>1250.0</ele>
        <time>2018-05-26T11:20:12.713Z</time>
      </trkpt>
      <trkpt lat="40.76703167" lon="-4.19852833">
        <ele>1250.0</ele>
        <time>2018-05-26T11:20:13.688Z</time>
      </trkpt>
      <trkpt lat="40.76703167" lon="-4.19852833">
        <ele>1250.0</ele>
        <time>2018-05-26T11:20:14.711Z</time>
      </trkpt>
      <trkpt lat="40.76710833" lon="-4.198595">
        <ele>1250.0</ele>
        <time>2018-05-26T11:20:15.683Z</time>
      </trkpt>
      <trkpt lat="40.76710833" lon="-4.198595">
        <ele>1250.0</ele>
        <time>2018-05-26T11:20:16.713Z</time>
      </trkpt>
      <trkpt lat="40.76718667" lon="-4.19866833">
        <ele>1250.0</ele>
        <time>2018-05-26T11:20:17.691Z</time>
      </trkpt>
      <trkpt lat="40.76722667" lon="-4.19870833">
        <ele>1250.0</ele>
        <time>2018-05-26T11:20:18.709Z</time>
      </trkpt>
      <trkpt lat="40.76726333" lon="-4.19875167">
        <ele>1249.0</ele>
        <time>2018-05-26T11:20:19.708Z</time>
      </trkpt>
      <trkpt lat="40.76726333" lon="-4.19875167">
        <ele>1249.0</ele>
        <time>2018-05-26T11:20:20.690Z</time>
      </trkpt>
      <trkpt lat="40.76733333" lon="-4.19885167">
        <ele>1249.0</ele>
        <time>2018-05-26T11:20:21.704Z</time>
      </trkpt>
      <trkpt lat="40.76733333" lon="-4.19885167">
        <ele>1249.0</ele>
        <time>2018-05-26T11:20:22.690Z</time>
      </trkpt>
      <trkpt lat="40.76740667" lon="-4.19895833">
        <ele>1248.0</ele>
        <time>2018-05-26T11:20:23.711Z</time>
      </trkpt>
      <trkpt lat="40.76744667" lon="-4.19900667">
        <ele>1248.0</ele>
        <time>2018-05-26T11:20:24.708Z</time>
      </trkpt>
      <trkpt lat="40.767485" lon="-4.199055">
        <ele>1248.0</ele>
        <time>2018-05-26T11:20:25.687Z</time>
      </trkpt>
      <trkpt lat="40.767485" lon="-4.199055">
        <ele>1248.0</ele>
        <time>2018-05-26T11:20:26.713Z</time>
      </trkpt>
      <trkpt lat="40.76757" lon="-4.19914833">
        <ele>1247.0</ele>
        <time>2018-05-26T11:20:27.684Z</time>
      </trkpt>
      <trkpt lat="40.76757" lon="-4.19914833">
        <ele>1247.0</ele>
        <time>2018-05-26T11:20:28.709Z</time>
      </trkpt>
      <trkpt lat="40.76766333" lon="-4.19923833">
        <ele>1247.0</ele>
        <time>2018-05-26T11:20:29.676Z</time>
      </trkpt>
      <trkpt lat="40.76766333" lon="-4.19923833">
        <ele>1247.0</ele>
        <time>2018-05-26T11:20:30.682Z</time>
      </trkpt>
      <trkpt lat="40.76773167" lon="-4.19935667">
        <ele>1247.0</ele>
        <time>2018-05-26T11:20:31.706Z</time>
      </trkpt>
      <trkpt lat="40.76773167" lon="-4.19935667">
        <ele>1247.0</ele>
        <time>2018-05-26T11:20:32.687Z</time>
      </trkpt>
      <trkpt lat="40.76780667" lon="-4.19945667">
        <ele>1246.0</ele>
        <time>2018-05-26T11:20:33.695Z</time>
      </trkpt>
      <trkpt lat="40.76785" lon="-4.19948167">
        <ele>1246.0</ele>
        <time>2018-05-26T11:20:34.693Z</time>
      </trkpt>
      <trkpt lat="40.76789" lon="-4.199495">
        <ele>1247.0</ele>
        <time>2018-05-26T11:20:35.688Z</time>
      </trkpt>
      <trkpt lat="40.76789" lon="-4.199495">
        <ele>1247.0</ele>
        <time>2018-05-26T11:20:36.711Z</time>
      </trkpt>
      <trkpt lat="40.76796833" lon="-4.19952167">
        <ele>1247.0</ele>
        <time>2018-05-26T11:20:37.684Z</time>
      </trkpt>
      <trkpt lat="40.76796833" lon="-4.19952167">
        <ele>1247.0</ele>
        <time>2018-05-26T11:20:38.675Z</time>
      </trkpt>
      <trkpt lat="40.76805333" lon="-4.19955167">
        <ele>1247.0</ele>
        <time>2018-05-26T11:20:39.685Z</time>
      </trkpt>
      <trkpt lat="40.76805333" lon="-4.19955167">
        <ele>1247.0</ele>
        <time>2018-05-26T11:20:40.690Z</time>
      </trkpt>
      <trkpt lat="40.76814833" lon="-4.19958667">
        <ele>1247.0</ele>
        <time>2018-05-26T11:20:41.704Z</time>
      </trkpt>
      <trkpt lat="40.76819833" lon="-4.19960667">
        <ele>1247.0</ele>
        <time>2018-05-26T11:20:42.698Z</time>
      </trkpt>
      <trkpt lat="40.76819833" lon="-4.19960667">
        <ele>1247.0</ele>
        <time>2018-05-26T11:20:43.678Z</time>
      </trkpt>
      <trkpt lat="40.76830667" lon="-4.19966167">
        <ele>1246.0</ele>
        <time>2018-05-26T11:20:44.678Z</time>
      </trkpt>
      <trkpt lat="40.768365" lon="-4.19969">
        <ele>1246.0</ele>
        <time>2018-05-26T11:20:45.690Z</time>
      </trkpt>
      <trkpt lat="40.768365" lon="-4.19969">
        <ele>1246.0</ele>
        <time>2018-05-26T11:20:46.713Z</time>
      </trkpt>
      <trkpt lat="40.76849" lon="-4.199745">
        <ele>1246.0</ele>
        <time>2018-05-26T11:20:47.684Z</time>
      </trkpt>
      <trkpt lat="40.76849" lon="-4.199745">
        <ele>1246.0</ele>
        <time>2018-05-26T11:20:48.676Z</time>
      </trkpt>
      <trkpt lat="40.768605" lon="-4.19977833">
        <ele>1246.0</ele>
        <time>2018-05-26T11:20:49.689Z</time>
      </trkpt>
      <trkpt lat="40.768605" lon="-4.19977833">
        <ele>1246.0</ele>
        <time>2018-05-26T11:20:50.712Z</time>
      </trkpt>
      <trkpt lat="40.76870167" lon="-4.19981">
        <ele>1247.0</ele>
        <time>2018-05-26T11:20:51.685Z</time>
      </trkpt>
      <trkpt lat="40.76870167" lon="-4.19981">
        <ele>1247.0</ele>
        <time>2018-05-26T11:20:52.713Z</time>
      </trkpt>
      <trkpt lat="40.76879167" lon="-4.19984667">
        <ele>1248.0</ele>
        <time>2018-05-26T11:20:53.690Z</time>
      </trkpt>
      <trkpt lat="40.76879167" lon="-4.19984667">
        <ele>1248.0</ele>
        <time>2018-05-26T11:20:54.714Z</time>
      </trkpt>
      <trkpt lat="40.768875" lon="-4.19987833">
        <ele>1249.0</ele>
        <time>2018-05-26T11:20:55.686Z</time>
      </trkpt>
      <trkpt lat="40.768875" lon="-4.19987833">
        <ele>1249.0</ele>
        <time>2018-05-26T11:20:56.712Z</time>
      </trkpt>
      <trkpt lat="40.76896" lon="-4.19991">
        <ele>1249.0</ele>
        <time>2018-05-26T11:20:57.688Z</time>
      </trkpt>
      <trkpt lat="40.76896" lon="-4.19991">
        <ele>1249.0</ele>
        <time>2018-05-26T11:20:58.713Z</time>
      </trkpt>
      <trkpt lat="40.769045" lon="-4.19994333">
        <ele>1250.0</ele>
        <time>2018-05-26T11:20:59.690Z</time>
      </trkpt>
      <trkpt lat="40.769045" lon="-4.19994333">
        <ele>1250.0</ele>
        <time>2018-05-26T11:21:00.677Z</time>
      </trkpt>
      <trkpt lat="40.76913" lon="-4.19997333">
        <ele>1250.0</ele>
        <time>2018-05-26T11:21:01.684Z</time>
      </trkpt>
      <trkpt lat="40.76913" lon="-4.19997333">
        <ele>1250.0</ele>
        <time>2018-05-26T11:21:02.713Z</time>
      </trkpt>
      <trkpt lat="40.76921667" lon="-4.19999">
        <ele>1251.0</ele>
        <time>2018-05-26T11:21:03.690Z</time>
      </trkpt>
      <trkpt lat="40.76921667" lon="-4.19999">
        <ele>1251.0</ele>
        <time>2018-05-26T11:21:04.711Z</time>
      </trkpt>
      <trkpt lat="40.76929167" lon="-4.19999167">
        <ele>1252.0</ele>
        <time>2018-05-26T11:21:05.684Z</time>
      </trkpt>
      <trkpt lat="40.76929167" lon="-4.19999167">
        <ele>1252.0</ele>
        <time>2018-05-26T11:21:06.714Z</time>
      </trkpt>
      <trkpt lat="40.76936" lon="-4.199995">
        <ele>1252.0</ele>
        <time>2018-05-26T11:21:07.688Z</time>
      </trkpt>
      <trkpt lat="40.76936" lon="-4.199995">
        <ele>1252.0</ele>
        <time>2018-05-26T11:21:08.694Z</time>
      </trkpt>
      <trkpt lat="40.769415" lon="-4.20000333">
        <ele>1253.0</ele>
        <time>2018-05-26T11:21:09.706Z</time>
      </trkpt>
      <trkpt lat="40.769415" lon="-4.20000333">
        <ele>1253.0</ele>
        <time>2018-05-26T11:21:10.711Z</time>
      </trkpt>
      <trkpt lat="40.76947167" lon="-4.19999667">
        <ele>1253.0</ele>
        <time>2018-05-26T11:21:11.684Z</time>
      </trkpt>
      <trkpt lat="40.76947167" lon="-4.19999667">
        <ele>1253.0</ele>
        <time>2018-05-26T11:21:12.713Z</time>
      </trkpt>
      <trkpt lat="40.76953167" lon="-4.2">
        <ele>1254.0</ele>
        <time>2018-05-26T11:21:13.691Z</time>
      </trkpt>
      <trkpt lat="40.76953167" lon="-4.2">
        <ele>1254.0</ele>
        <time>2018-05-26T11:21:14.694Z</time>
      </trkpt>
      <trkpt lat="40.76959833" lon="-4.20002">
        <ele>1254.0</ele>
        <time>2018-05-26T11:21:15.705Z</time>
      </trkpt>
      <trkpt lat="40.76959833" lon="-4.20002">
        <ele>1254.0</ele>
        <time>2018-05-26T11:21:16.693Z</time>
      </trkpt>
      <trkpt lat="40.76966667" lon="-4.20001">
        <ele>1255.0</ele>
        <time>2018-05-26T11:21:17.707Z</time>
      </trkpt>
      <trkpt lat="40.76966667" lon="-4.20001">
        <ele>1255.0</ele>
        <time>2018-05-26T11:21:18.682Z</time>
      </trkpt>
      <trkpt lat="40.76971" lon="-4.19996667">
        <ele>1255.0</ele>
        <time>2018-05-26T11:21:19.688Z</time>
      </trkpt>
      <trkpt lat="40.76971" lon="-4.19996667">
        <ele>1255.0</ele>
        <time>2018-05-26T11:21:20.711Z</time>
      </trkpt>
      <trkpt lat="40.76975" lon="-4.19992667">
        <ele>1256.0</ele>
        <time>2018-05-26T11:21:21.686Z</time>
      </trkpt>
      <trkpt lat="40.76975" lon="-4.19992667">
        <ele>1256.0</ele>
        <time>2018-05-26T11:21:22.714Z</time>
      </trkpt>
      <trkpt lat="40.7698" lon="-4.19990333">
        <ele>1255.0</ele>
        <time>2018-05-26T11:21:23.685Z</time>
      </trkpt>
      <trkpt lat="40.7698" lon="-4.19990333">
        <ele>1255.0</ele>
        <time>2018-05-26T11:21:24.712Z</time>
      </trkpt>
      <trkpt lat="40.769865" lon="-4.19989833">
        <ele>1255.0</ele>
        <time>2018-05-26T11:21:25.688Z</time>
      </trkpt>
      <trkpt lat="40.769865" lon="-4.19989833">
        <ele>1255.0</ele>
        <time>2018-05-26T11:21:26.713Z</time>
      </trkpt>
      <trkpt lat="40.76993333" lon="-4.19989">
        <ele>1255.0</ele>
        <time>2018-05-26T11:21:27.688Z</time>
      </trkpt>
      <trkpt lat="40.76993333" lon="-4.19989">
        <ele>1255.0</ele>
        <time>2018-05-26T11:21:28.679Z</time>
      </trkpt>
      <trkpt lat="40.77000333" lon="-4.19988667">
        <ele>1256.0</ele>
        <time>2018-05-26T11:21:29.688Z</time>
      </trkpt>
      <trkpt lat="40.77000333" lon="-4.19988667">
        <ele>1256.0</ele>
        <time>2018-05-26T11:21:30.713Z</time>
      </trkpt>
      <trkpt lat="40.77007833" lon="-4.199915">
        <ele>1256.0</ele>
        <time>2018-05-26T11:21:31.705Z</time>
      </trkpt>
      <trkpt lat="40.77007833" lon="-4.199915">
        <ele>1256.0</ele>
        <time>2018-05-26T11:21:32.706Z</time>
      </trkpt>
      <trkpt lat="40.770155" lon="-4.19995667">
        <ele>1256.0</ele>
        <time>2018-05-26T11:21:33.714Z</time>
      </trkpt>
      <trkpt lat="40.770155" lon="-4.19995667">
        <ele>1256.0</ele>
        <time>2018-05-26T11:21:34.680Z</time>
      </trkpt>
      <trkpt lat="40.770235" lon="-4.19999">
        <ele>1256.0</ele>
        <time>2018-05-26T11:21:35.690Z</time>
      </trkpt>
      <trkpt lat="40.770235" lon="-4.19999">
        <ele>1256.0</ele>
        <time>2018-05-26T11:21:36.685Z</time>
      </trkpt>
      <trkpt lat="40.7703" lon="-4.20002833">
        <ele>1257.0</ele>
        <time>2018-05-26T11:21:37.688Z</time>
      </trkpt>
      <trkpt lat="40.7703" lon="-4.20002833">
        <ele>1257.0</ele>
        <time>2018-05-26T11:21:38.684Z</time>
      </trkpt>
      <trkpt lat="40.77035833" lon="-4.20008333">
        <ele>1258.0</ele>
        <time>2018-05-26T11:21:39.688Z</time>
      </trkpt>
      <trkpt lat="40.77039667" lon="-4.20009833">
        <ele>1258.0</ele>
        <time>2018-05-26T11:21:40.704Z</time>
      </trkpt>
      <trkpt lat="40.77039667" lon="-4.20009833">
        <ele>1258.0</ele>
        <time>2018-05-26T11:21:41.711Z</time>
      </trkpt>
      <trkpt lat="40.77047167" lon="-4.20012333">
        <ele>1258.0</ele>
        <time>2018-05-26T11:21:42.685Z</time>
      </trkpt>
      <trkpt lat="40.77047167" lon="-4.20012333">
        <ele>1258.0</ele>
        <time>2018-05-26T11:21:43.686Z</time>
      </trkpt>
      <trkpt lat="40.77052333" lon="-4.20013">
        <ele>1258.0</ele>
        <time>2018-05-26T11:21:44.684Z</time>
      </trkpt>
      <trkpt lat="40.77054667" lon="-4.20012167">
        <ele>1258.0</ele>
        <time>2018-05-26T11:21:45.687Z</time>
      </trkpt>
      <trkpt lat="40.77054667" lon="-4.20012167">
        <ele>1258.0</ele>
        <time>2018-05-26T11:21:46.714Z</time>
      </trkpt>
      <trkpt lat="40.77059667" lon="-4.20012333">
        <ele>1257.0</ele>
        <time>2018-05-26T11:21:47.685Z</time>
      </trkpt>
      <trkpt lat="40.77059667" lon="-4.20012333">
        <ele>1257.0</ele>
        <time>2018-05-26T11:21:48.698Z</time>
      </trkpt>
      <trkpt lat="40.77066167" lon="-4.20016333">
        <ele>1256.0</ele>
        <time>2018-05-26T11:21:49.704Z</time>
      </trkpt>
      <trkpt lat="40.77070667" lon="-4.20017167">
        <ele>1255.0</ele>
        <time>2018-05-26T11:21:50.704Z</time>
      </trkpt>
      <trkpt lat="40.77075167" lon="-4.20017833">
        <ele>1255.0</ele>
        <time>2018-05-26T11:21:51.684Z</time>
      </trkpt>
      <trkpt lat="40.77075167" lon="-4.20017833">
        <ele>1255.0</ele>
        <time>2018-05-26T11:21:52.714Z</time>
      </trkpt>
      <trkpt lat="40.77084833" lon="-4.200205">
        <ele>1254.0</ele>
        <time>2018-05-26T11:21:53.691Z</time>
      </trkpt>
      <trkpt lat="40.77084833" lon="-4.200205">
        <ele>1254.0</ele>
        <time>2018-05-26T11:21:54.713Z</time>
      </trkpt>
      <trkpt lat="40.77093" lon="-4.20024333">
        <ele>1253.0</ele>
        <time>2018-05-26T11:21:55.681Z</time>
      </trkpt>
      <trkpt lat="40.77093" lon="-4.20024333">
        <ele>1253.0</ele>
        <time>2018-05-26T11:21:56.684Z</time>
      </trkpt>
      <trkpt lat="40.77103" lon="-4.20027667">
        <ele>1252.0</ele>
        <time>2018-05-26T11:21:57.691Z</time>
      </trkpt>
      <trkpt lat="40.77103" lon="-4.20027667">
        <ele>1252.0</ele>
        <time>2018-05-26T11:21:58.686Z</time>
      </trkpt>
      <trkpt lat="40.77116167" lon="-4.20029667">
        <ele>1252.0</ele>
        <time>2018-05-26T11:21:59.690Z</time>
      </trkpt>
      <trkpt lat="40.77122333" lon="-4.20029667">
        <ele>1253.0</ele>
        <time>2018-05-26T11:22:00.717Z</time>
      </trkpt>
      <trkpt lat="40.77127667" lon="-4.20030833">
        <ele>1253.0</ele>
        <time>2018-05-26T11:22:01.705Z</time>
      </trkpt>
      <trkpt lat="40.77127667" lon="-4.20030833">
        <ele>1253.0</ele>
        <time>2018-05-26T11:22:02.685Z</time>
      </trkpt>
      <trkpt lat="40.77136" lon="-4.20036333">
        <ele>1252.0</ele>
        <time>2018-05-26T11:22:03.688Z</time>
      </trkpt>
      <trkpt lat="40.77136" lon="-4.20036333">
        <ele>1252.0</ele>
        <time>2018-05-26T11:22:04.692Z</time>
      </trkpt>
      <trkpt lat="40.77142" lon="-4.20038">
        <ele>1252.0</ele>
        <time>2018-05-26T11:22:05.697Z</time>
      </trkpt>
      <trkpt lat="40.77142" lon="-4.20038">
        <ele>1252.0</ele>
        <time>2018-05-26T11:22:06.711Z</time>
      </trkpt>
      <trkpt lat="40.77146" lon="-4.20039833">
        <ele>1251.0</ele>
        <time>2018-05-26T11:22:07.688Z</time>
      </trkpt>
      <trkpt lat="40.77146" lon="-4.20039833">
        <ele>1251.0</ele>
        <time>2018-05-26T11:22:08.711Z</time>
      </trkpt>
      <trkpt lat="40.771495" lon="-4.20043167">
        <ele>1250.0</ele>
        <time>2018-05-26T11:22:09.676Z</time>
      </trkpt>
      <trkpt lat="40.77151167" lon="-4.20044667">
        <ele>1250.0</ele>
        <time>2018-05-26T11:22:10.690Z</time>
      </trkpt>
      <trkpt lat="40.77151167" lon="-4.20044667">
        <ele>1250.0</ele>
        <time>2018-05-26T11:22:11.712Z</time>
      </trkpt>
      <trkpt lat="40.77154333" lon="-4.20046833">
        <ele>1249.0</ele>
        <time>2018-05-26T11:22:12.684Z</time>
      </trkpt>
      <trkpt lat="40.77154333" lon="-4.20046833">
        <ele>1249.0</ele>
        <time>2018-05-26T11:22:13.696Z</time>
      </trkpt>
      <trkpt lat="40.77157833" lon="-4.20048333">
        <ele>1249.0</ele>
        <time>2018-05-26T11:22:14.712Z</time>
      </trkpt>
      <trkpt lat="40.7716" lon="-4.200495">
        <ele>1248.0</ele>
        <time>2018-05-26T11:22:15.688Z</time>
      </trkpt>
      <trkpt lat="40.7716" lon="-4.200495">
        <ele>1248.0</ele>
        <time>2018-05-26T11:22:16.711Z</time>
      </trkpt>
      <trkpt lat="40.77163833" lon="-4.20052167">
        <ele>1248.0</ele>
        <time>2018-05-26T11:22:17.694Z</time>
      </trkpt>
      <trkpt lat="40.77165167" lon="-4.20053167">
        <ele>1248.0</ele>
        <time>2018-05-26T11:22:18.694Z</time>
      </trkpt>
      <trkpt lat="40.77165167" lon="-4.20053167">
        <ele>1248.0</ele>
        <time>2018-05-26T11:22:19.686Z</time>
      </trkpt>
      <trkpt lat="40.771685" lon="-4.20054833">
        <ele>1247.0</ele>
        <time>2018-05-26T11:22:20.684Z</time>
      </trkpt>
      <trkpt lat="40.77171333" lon="-4.20056">
        <ele>1247.0</ele>
        <time>2018-05-26T11:22:21.691Z</time>
      </trkpt>
      <trkpt lat="40.77171333" lon="-4.20056">
        <ele>1247.0</ele>
        <time>2018-05-26T11:22:22.686Z</time>
      </trkpt>
      <trkpt lat="40.771775" lon="-4.20060833">
        <ele>1246.0</ele>
        <time>2018-05-26T11:22:23.683Z</time>
      </trkpt>
      <trkpt lat="40.771775" lon="-4.20060833">
        <ele>1246.0</ele>
        <time>2018-05-26T11:22:24.711Z</time>
      </trkpt>
      <trkpt lat="40.771835" lon="-4.20065333">
        <ele>1245.0</ele>
        <time>2018-05-26T11:22:25.683Z</time>
      </trkpt>
      <trkpt lat="40.771835" lon="-4.20065333">
        <ele>1245.0</ele>
        <time>2018-05-26T11:22:26.713Z</time>
      </trkpt>
      <trkpt lat="40.77188167" lon="-4.20068667">
        <ele>1245.0</ele>
        <time>2018-05-26T11:22:27.690Z</time>
      </trkpt>
      <trkpt lat="40.77188167" lon="-4.20068667">
        <ele>1245.0</ele>
        <time>2018-05-26T11:22:28.680Z</time>
      </trkpt>
      <trkpt lat="40.77192167" lon="-4.20070167">
        <ele>1246.0</ele>
        <time>2018-05-26T11:22:29.702Z</time>
      </trkpt>
      <trkpt lat="40.77192167" lon="-4.20070167">
        <ele>1246.0</ele>
        <time>2018-05-26T11:22:30.711Z</time>
      </trkpt>
      <trkpt lat="40.77195667" lon="-4.20070833">
        <ele>1246.0</ele>
        <time>2018-05-26T11:22:31.677Z</time>
      </trkpt>
      <trkpt lat="40.77195667" lon="-4.20070833">
        <ele>1246.0</ele>
        <time>2018-05-26T11:22:32.707Z</time>
      </trkpt>
      <trkpt lat="40.77198333" lon="-4.20068333">
        <ele>1247.0</ele>
        <time>2018-05-26T11:22:33.688Z</time>
      </trkpt>
      <trkpt lat="40.77198333" lon="-4.20068333">
        <ele>1247.0</ele>
        <time>2018-05-26T11:22:34.712Z</time>
      </trkpt>
      <trkpt lat="40.771985" lon="-4.20063">
        <ele>1247.0</ele>
        <time>2018-05-26T11:22:35.683Z</time>
      </trkpt>
      <trkpt lat="40.771985" lon="-4.20063">
        <ele>1247.0</ele>
        <time>2018-05-26T11:22:36.693Z</time>
      </trkpt>
      <trkpt lat="40.77198833" lon="-4.20057667">
        <ele>1247.0</ele>
        <time>2018-05-26T11:22:37.688Z</time>
      </trkpt>
      <trkpt lat="40.77198833" lon="-4.20057667">
        <ele>1247.0</ele>
        <time>2018-05-26T11:22:38.714Z</time>
      </trkpt>
      <trkpt lat="40.77199" lon="-4.20052833">
        <ele>1248.0</ele>
        <time>2018-05-26T11:22:39.686Z</time>
      </trkpt>
      <trkpt lat="40.77199" lon="-4.20052833">
        <ele>1248.0</ele>
        <time>2018-05-26T11:22:40.690Z</time>
      </trkpt>
      <trkpt lat="40.77199833" lon="-4.20048667">
        <ele>1247.0</ele>
        <time>2018-05-26T11:22:41.705Z</time>
      </trkpt>
      <trkpt lat="40.77199833" lon="-4.20048667">
        <ele>1247.0</ele>
        <time>2018-05-26T11:22:42.684Z</time>
      </trkpt>
      <trkpt lat="40.77200167" lon="-4.20045667">
        <ele>1248.0</ele>
        <time>2018-05-26T11:22:43.688Z</time>
      </trkpt>
      <trkpt lat="40.77200167" lon="-4.20045667">
        <ele>1248.0</ele>
        <time>2018-05-26T11:22:44.686Z</time>
      </trkpt>
      <trkpt lat="40.77199333" lon="-4.20044333">
        <ele>1248.0</ele>
        <time>2018-05-26T11:22:45.693Z</time>
      </trkpt>
      <trkpt lat="40.77199333" lon="-4.20044333">
        <ele>1248.0</ele>
        <time>2018-05-26T11:22:46.697Z</time>
      </trkpt>
      <trkpt lat="40.77199833" lon="-4.200415">
        <ele>1249.0</ele>
        <time>2018-05-26T11:22:47.702Z</time>
      </trkpt>
      <trkpt lat="40.77199833" lon="-4.200415">
        <ele>1249.0</ele>
        <time>2018-05-26T11:22:48.679Z</time>
      </trkpt>
      <trkpt lat="40.77199833" lon="-4.200375">
        <ele>1249.0</ele>
        <time>2018-05-26T11:22:49.686Z</time>
      </trkpt>
      <trkpt lat="40.77199833" lon="-4.200375">
        <ele>1249.0</ele>
        <time>2018-05-26T11:22:50.713Z</time>
      </trkpt>
      <trkpt lat="40.772" lon="-4.20032667">
        <ele>1249.0</ele>
        <time>2018-05-26T11:22:51.688Z</time>
      </trkpt>
      <trkpt lat="40.772" lon="-4.20032667">
        <ele>1249.0</ele>
        <time>2018-05-26T11:22:52.712Z</time>
      </trkpt>
      <trkpt lat="40.77201667" lon="-4.20028">
        <ele>1250.0</ele>
        <time>2018-05-26T11:22:53.690Z</time>
      </trkpt>
      <trkpt lat="40.77201667" lon="-4.20028">
        <ele>1250.0</ele>
        <time>2018-05-26T11:22:54.685Z</time>
      </trkpt>
      <trkpt lat="40.77203667" lon="-4.20023167">
        <ele>1250.0</ele>
        <time>2018-05-26T11:22:55.685Z</time>
      </trkpt>
      <trkpt lat="40.77203667" lon="-4.20023167">
        <ele>1250.0</ele>
        <time>2018-05-26T11:22:56.713Z</time>
      </trkpt>
      <trkpt lat="40.77205667" lon="-4.20017833">
        <ele>1251.0</ele>
        <time>2018-05-26T11:22:57.687Z</time>
      </trkpt>
      <trkpt lat="40.77205667" lon="-4.20017833">
        <ele>1251.0</ele>
        <time>2018-05-26T11:22:58.712Z</time>
      </trkpt>
      <trkpt lat="40.77207833" lon="-4.20011833">
        <ele>1251.0</ele>
        <time>2018-05-26T11:22:59.688Z</time>
      </trkpt>
      <trkpt lat="40.77208833" lon="-4.20009667">
        <ele>1251.0</ele>
        <time>2018-05-26T11:23:00.690Z</time>
      </trkpt>
      <trkpt lat="40.772105" lon="-4.20007667">
        <ele>1252.0</ele>
        <time>2018-05-26T11:23:01.708Z</time>
      </trkpt>
      <trkpt lat="40.772105" lon="-4.20007667">
        <ele>1252.0</ele>
        <time>2018-05-26T11:23:02.685Z</time>
      </trkpt>
      <trkpt lat="40.77209667" lon="-4.200025">
        <ele>1252.0</ele>
        <time>2018-05-26T11:23:03.702Z</time>
      </trkpt>
      <trkpt lat="40.77209667" lon="-4.200025">
        <ele>1252.0</ele>
        <time>2018-05-26T11:23:04.694Z</time>
      </trkpt>
      <trkpt lat="40.772135" lon="-4.19997333">
        <ele>1252.0</ele>
        <time>2018-05-26T11:23:05.705Z</time>
      </trkpt>
      <trkpt lat="40.772135" lon="-4.19997333">
        <ele>1252.0</ele>
        <time>2018-05-26T11:23:06.684Z</time>
      </trkpt>
      <trkpt lat="40.77217167" lon="-4.19992667">
        <ele>1252.0</ele>
        <time>2018-05-26T11:23:07.688Z</time>
      </trkpt>
      <trkpt lat="40.77217167" lon="-4.19992667">
        <ele>1252.0</ele>
        <time>2018-05-26T11:23:08.713Z</time>
      </trkpt>
      <trkpt lat="40.772195" lon="-4.19989833">
        <ele>1253.0</ele>
        <time>2018-05-26T11:23:09.688Z</time>
      </trkpt>
      <trkpt lat="40.772195" lon="-4.19989833">
        <ele>1253.0</ele>
        <time>2018-05-26T11:23:10.676Z</time>
      </trkpt>
      <trkpt lat="40.77223" lon="-4.199875">
        <ele>1253.0</ele>
        <time>2018-05-26T11:23:11.683Z</time>
      </trkpt>
      <trkpt lat="40.77223" lon="-4.199875">
        <ele>1253.0</ele>
        <time>2018-05-26T11:23:12.711Z</time>
      </trkpt>
      <trkpt lat="40.77226167" lon="-4.19986167">
        <ele>1253.0</ele>
        <time>2018-05-26T11:23:13.688Z</time>
      </trkpt>
      <trkpt lat="40.77226167" lon="-4.19986167">
        <ele>1253.0</ele>
        <time>2018-05-26T11:23:14.711Z</time>
      </trkpt>
      <trkpt lat="40.772285" lon="-4.19984333">
        <ele>1254.0</ele>
        <time>2018-05-26T11:23:15.685Z</time>
      </trkpt>
      <trkpt lat="40.772285" lon="-4.19984333">
        <ele>1254.0</ele>
        <time>2018-05-26T11:23:16.711Z</time>
      </trkpt>
      <trkpt lat="40.77229833" lon="-4.19982333">
        <ele>1254.0</ele>
        <time>2018-05-26T11:23:17.688Z</time>
      </trkpt>
      <trkpt lat="40.77229833" lon="-4.19982333">
        <ele>1254.0</ele>
        <time>2018-05-26T11:23:18.681Z</time>
      </trkpt>
      <trkpt lat="40.772305" lon="-4.199805">
        <ele>1254.0</ele>
        <time>2018-05-26T11:23:19.688Z</time>
      </trkpt>
      <trkpt lat="40.772305" lon="-4.199805">
        <ele>1254.0</ele>
        <time>2018-05-26T11:23:20.689Z</time>
      </trkpt>
      <trkpt lat="40.77231667" lon="-4.19978">
        <ele>1254.0</ele>
        <time>2018-05-26T11:23:21.688Z</time>
      </trkpt>
      <trkpt lat="40.77231667" lon="-4.19978">
        <ele>1254.0</ele>
        <time>2018-05-26T11:23:22.710Z</time>
      </trkpt>
      <trkpt lat="40.77234167" lon="-4.19976">
        <ele>1255.0</ele>
        <time>2018-05-26T11:23:23.704Z</time>
      </trkpt>
      <trkpt lat="40.77234167" lon="-4.19976">
        <ele>1255.0</ele>
        <time>2018-05-26T11:23:24.684Z</time>
      </trkpt>
      <trkpt lat="40.77238167" lon="-4.19977333">
        <ele>1256.0</ele>
        <time>2018-05-26T11:23:25.705Z</time>
      </trkpt>
      <trkpt lat="40.77238167" lon="-4.19977333">
        <ele>1256.0</ele>
        <time>2018-05-26T11:23:26.686Z</time>
      </trkpt>
      <trkpt lat="40.772395" lon="-4.199805">
        <ele>1256.0</ele>
        <time>2018-05-26T11:23:27.684Z</time>
      </trkpt>
      <trkpt lat="40.772395" lon="-4.199805">
        <ele>1256.0</ele>
        <time>2018-05-26T11:23:28.711Z</time>
      </trkpt>
      <trkpt lat="40.77240833" lon="-4.19983333">
        <ele>1256.0</ele>
        <time>2018-05-26T11:23:29.688Z</time>
      </trkpt>
      <trkpt lat="40.772415" lon="-4.19985167">
        <ele>1257.0</ele>
        <time>2018-05-26T11:23:30.681Z</time>
      </trkpt>
      <trkpt lat="40.772415" lon="-4.19985167">
        <ele>1257.0</ele>
        <time>2018-05-26T11:23:31.712Z</time>
      </trkpt>
      <trkpt lat="40.772425" lon="-4.19987833">
        <ele>1257.0</ele>
        <time>2018-05-26T11:23:32.685Z</time>
      </trkpt>
      <trkpt lat="40.77242833" lon="-4.19988833">
        <ele>1257.0</ele>
        <time>2018-05-26T11:23:33.684Z</time>
      </trkpt>
      <trkpt lat="40.77242833" lon="-4.19988833">
        <ele>1257.0</ele>
        <time>2018-05-26T11:23:34.713Z</time>
      </trkpt>
      <trkpt lat="40.77243833" lon="-4.19990667">
        <ele>1258.0</ele>
        <time>2018-05-26T11:23:35.691Z</time>
      </trkpt>
      <trkpt lat="40.77243833" lon="-4.19990667">
        <ele>1258.0</ele>
        <time>2018-05-26T11:23:36.712Z</time>
      </trkpt>
      <trkpt lat="40.772445" lon="-4.19992">
        <ele>1257.0</ele>
        <time>2018-05-26T11:23:37.691Z</time>
      </trkpt>
      <trkpt lat="40.772445" lon="-4.19992">
        <ele>1257.0</ele>
        <time>2018-05-26T11:23:38.711Z</time>
      </trkpt>
      <trkpt lat="40.77245167" lon="-4.19993833">
        <ele>1257.0</ele>
        <time>2018-05-26T11:23:39.688Z</time>
      </trkpt>
      <trkpt lat="40.77245167" lon="-4.19993833">
        <ele>1257.0</ele>
        <time>2018-05-26T11:23:40.710Z</time>
      </trkpt>
      <trkpt lat="40.772465" lon="-4.19996667">
        <ele>1257.0</ele>
        <time>2018-05-26T11:23:41.686Z</time>
      </trkpt>
      <trkpt lat="40.772465" lon="-4.19996667">
        <ele>1257.0</ele>
        <time>2018-05-26T11:23:42.681Z</time>
      </trkpt>
      <trkpt lat="40.77248667" lon="-4.20002">
        <ele>1258.0</ele>
        <time>2018-05-26T11:23:43.686Z</time>
      </trkpt>
      <trkpt lat="40.77248667" lon="-4.20002">
        <ele>1258.0</ele>
        <time>2018-05-26T11:23:44.686Z</time>
      </trkpt>
      <trkpt lat="40.77250667" lon="-4.20005833">
        <ele>1258.0</ele>
        <time>2018-05-26T11:23:45.688Z</time>
      </trkpt>
      <trkpt lat="40.77250667" lon="-4.20005833">
        <ele>1258.0</ele>
        <time>2018-05-26T11:23:46.711Z</time>
      </trkpt>
      <trkpt lat="40.77252333" lon="-4.20007333">
        <ele>1259.0</ele>
        <time>2018-05-26T11:23:47.687Z</time>
      </trkpt>
      <trkpt lat="40.77252333" lon="-4.20007333">
        <ele>1259.0</ele>
        <time>2018-05-26T11:23:48.712Z</time>
      </trkpt>
      <trkpt lat="40.77254" lon="-4.200085">
        <ele>1259.0</ele>
        <time>2018-05-26T11:23:49.688Z</time>
      </trkpt>
      <trkpt lat="40.77254" lon="-4.200085">
        <ele>1259.0</ele>
        <time>2018-05-26T11:23:50.678Z</time>
      </trkpt>
      <trkpt lat="40.77256" lon="-4.20009667">
        <ele>1260.0</ele>
        <time>2018-05-26T11:23:51.684Z</time>
      </trkpt>
      <trkpt lat="40.77256" lon="-4.20009667">
        <ele>1260.0</ele>
        <time>2018-05-26T11:23:52.706Z</time>
      </trkpt>
      <trkpt lat="40.77258333" lon="-4.20011">
        <ele>1261.0</ele>
        <time>2018-05-26T11:23:53.704Z</time>
      </trkpt>
      <trkpt lat="40.77258333" lon="-4.20011">
        <ele>1261.0</ele>
        <time>2018-05-26T11:23:54.687Z</time>
      </trkpt>
      <trkpt lat="40.77261667" lon="-4.200125">
        <ele>1262.0</ele>
        <time>2018-05-26T11:23:55.688Z</time>
      </trkpt>
      <trkpt lat="40.77261667" lon="-4.200125">
        <ele>1262.0</ele>
        <time>2018-05-26T11:23:56.711Z</time>
      </trkpt>
      <trkpt lat="40.772645" lon="-4.200145">
        <ele>1263.0</ele>
        <time>2018-05-26T11:23:57.683Z</time>
      </trkpt>
      <trkpt lat="40.772645" lon="-4.200145">
        <ele>1263.0</ele>
        <time>2018-05-26T11:23:58.714Z</time>
      </trkpt>
      <trkpt lat="40.77268167" lon="-4.20016167">
        <ele>1264.0</ele>
        <time>2018-05-26T11:23:59.688Z</time>
      </trkpt>
      <trkpt lat="40.77268167" lon="-4.20016167">
        <ele>1264.0</ele>
        <time>2018-05-26T11:24:00.675Z</time>
      </trkpt>
      <trkpt lat="40.77271" lon="-4.20019833">
        <ele>1265.0</ele>
        <time>2018-05-26T11:24:01.686Z</time>
      </trkpt>
      <trkpt lat="40.77271" lon="-4.20019833">
        <ele>1265.0</ele>
        <time>2018-05-26T11:24:02.711Z</time>
      </trkpt>
      <trkpt lat="40.77273667" lon="-4.200235">
        <ele>1265.0</ele>
        <time>2018-05-26T11:24:03.688Z</time>
      </trkpt>
      <trkpt lat="40.77273667" lon="-4.200235">
        <ele>1265.0</ele>
        <time>2018-05-26T11:24:04.713Z</time>
      </trkpt>
      <trkpt lat="40.772765" lon="-4.20027667">
        <ele>1266.0</ele>
        <time>2018-05-26T11:24:05.692Z</time>
      </trkpt>
      <trkpt lat="40.772765" lon="-4.20027667">
        <ele>1266.0</ele>
        <time>2018-05-26T11:24:06.713Z</time>
      </trkpt>
      <trkpt lat="40.772795" lon="-4.20032333">
        <ele>1266.0</ele>
        <time>2018-05-26T11:24:07.683Z</time>
      </trkpt>
      <trkpt lat="40.772795" lon="-4.20032333">
        <ele>1266.0</ele>
        <time>2018-05-26T11:24:08.713Z</time>
      </trkpt>
      <trkpt lat="40.77283167" lon="-4.20036667">
        <ele>1266.0</ele>
        <time>2018-05-26T11:24:09.692Z</time>
      </trkpt>
      <trkpt lat="40.77283167" lon="-4.20036667">
        <ele>1266.0</ele>
        <time>2018-05-26T11:24:10.688Z</time>
      </trkpt>
      <trkpt lat="40.77287" lon="-4.20040333">
        <ele>1267.0</ele>
        <time>2018-05-26T11:24:11.693Z</time>
      </trkpt>
      <trkpt lat="40.77287" lon="-4.20040333">
        <ele>1267.0</ele>
        <time>2018-05-26T11:24:12.711Z</time>
      </trkpt>
      <trkpt lat="40.77290833" lon="-4.20042833">
        <ele>1267.0</ele>
        <time>2018-05-26T11:24:13.688Z</time>
      </trkpt>
      <trkpt lat="40.77290833" lon="-4.20042833">
        <ele>1267.0</ele>
        <time>2018-05-26T11:24:14.712Z</time>
      </trkpt>
      <trkpt lat="40.77294167" lon="-4.20045833">
        <ele>1268.0</ele>
        <time>2018-05-26T11:24:15.688Z</time>
      </trkpt>
      <trkpt lat="40.77294167" lon="-4.20045833">
        <ele>1268.0</ele>
        <time>2018-05-26T11:24:16.712Z</time>
      </trkpt>
      <trkpt lat="40.772975" lon="-4.200495">
        <ele>1268.0</ele>
        <time>2018-05-26T11:24:17.683Z</time>
      </trkpt>
      <trkpt lat="40.772975" lon="-4.200495">
        <ele>1268.0</ele>
        <time>2018-05-26T11:24:18.677Z</time>
      </trkpt>
      <trkpt lat="40.77301333" lon="-4.20052833">
        <ele>1268.0</ele>
        <time>2018-05-26T11:24:19.688Z</time>
      </trkpt>
      <trkpt lat="40.77301333" lon="-4.20052833">
        <ele>1268.0</ele>
        <time>2018-05-26T11:24:20.711Z</time>
      </trkpt>
      <trkpt lat="40.77304833" lon="-4.20057">
        <ele>1268.0</ele>
        <time>2018-05-26T11:24:21.688Z</time>
      </trkpt>
      <trkpt lat="40.77304833" lon="-4.20057">
        <ele>1268.0</ele>
        <time>2018-05-26T11:24:22.711Z</time>
      </trkpt>
      <trkpt lat="40.77308167" lon="-4.20062">
        <ele>1269.0</ele>
        <time>2018-05-26T11:24:23.690Z</time>
      </trkpt>
      <trkpt lat="40.77309667" lon="-4.200645">
        <ele>1269.0</ele>
        <time>2018-05-26T11:24:24.678Z</time>
      </trkpt>
      <trkpt lat="40.77311" lon="-4.20067">
        <ele>1269.0</ele>
        <time>2018-05-26T11:24:25.684Z</time>
      </trkpt>
      <trkpt lat="40.77311" lon="-4.20067">
        <ele>1269.0</ele>
        <time>2018-05-26T11:24:26.713Z</time>
      </trkpt>
      <trkpt lat="40.77314" lon="-4.20072167">
        <ele>1269.0</ele>
        <time>2018-05-26T11:24:27.688Z</time>
      </trkpt>
      <trkpt lat="40.773155" lon="-4.20074667">
        <ele>1269.0</ele>
        <time>2018-05-26T11:24:28.714Z</time>
      </trkpt>
      <trkpt lat="40.773155" lon="-4.20074667">
        <ele>1269.0</ele>
        <time>2018-05-26T11:24:29.711Z</time>
      </trkpt>
      <trkpt lat="40.77318333" lon="-4.20081">
        <ele>1269.0</ele>
        <time>2018-05-26T11:24:30.684Z</time>
      </trkpt>
      <trkpt lat="40.77319833" lon="-4.20084667">
        <ele>1269.0</ele>
        <time>2018-05-26T11:24:31.690Z</time>
      </trkpt>
      <trkpt lat="40.77319833" lon="-4.20084667">
        <ele>1269.0</ele>
        <time>2018-05-26T11:24:32.706Z</time>
      </trkpt>
      <trkpt lat="40.77322667" lon="-4.20092333">
        <ele>1269.0</ele>
        <time>2018-05-26T11:24:33.688Z</time>
      </trkpt>
      <trkpt lat="40.77324167" lon="-4.20095833">
        <ele>1269.0</ele>
        <time>2018-05-26T11:24:34.685Z</time>
      </trkpt>
      <trkpt lat="40.77324167" lon="-4.20095833">
        <ele>1269.0</ele>
        <time>2018-05-26T11:24:35.712Z</time>
      </trkpt>
      <trkpt lat="40.77327333" lon="-4.20102">
        <ele>1269.0</ele>
        <time>2018-05-26T11:24:36.684Z</time>
      </trkpt>
      <trkpt lat="40.77327333" lon="-4.20102">
        <ele>1269.0</ele>
        <time>2018-05-26T11:24:37.703Z</time>
      </trkpt>
      <trkpt lat="40.773305" lon="-4.20107833">
        <ele>1270.0</ele>
        <time>2018-05-26T11:24:38.711Z</time>
      </trkpt>
      <trkpt lat="40.77332" lon="-4.20110833">
        <ele>1270.0</ele>
        <time>2018-05-26T11:24:39.719Z</time>
      </trkpt>
      <trkpt lat="40.77332" lon="-4.20110833">
        <ele>1270.0</ele>
        <time>2018-05-26T11:24:40.689Z</time>
      </trkpt>
      <trkpt lat="40.77334833" lon="-4.201165">
        <ele>1270.0</ele>
        <time>2018-05-26T11:24:41.704Z</time>
      </trkpt>
      <trkpt lat="40.77334833" lon="-4.201165">
        <ele>1270.0</ele>
        <time>2018-05-26T11:24:42.691Z</time>
      </trkpt>
      <trkpt lat="40.77337833" lon="-4.20121833">
        <ele>1270.0</ele>
        <time>2018-05-26T11:24:43.688Z</time>
      </trkpt>
      <trkpt lat="40.77337833" lon="-4.20121833">
        <ele>1270.0</ele>
        <time>2018-05-26T11:24:44.712Z</time>
      </trkpt>
      <trkpt lat="40.77340667" lon="-4.20126833">
        <ele>1270.0</ele>
        <time>2018-05-26T11:24:45.684Z</time>
      </trkpt>
      <trkpt lat="40.77342167" lon="-4.201295">
        <ele>1270.0</ele>
        <time>2018-05-26T11:24:46.685Z</time>
      </trkpt>
      <trkpt lat="40.77342167" lon="-4.201295">
        <ele>1270.0</ele>
        <time>2018-05-26T11:24:47.711Z</time>
      </trkpt>
      <trkpt lat="40.77345333" lon="-4.20135">
        <ele>1270.0</ele>
        <time>2018-05-26T11:24:48.685Z</time>
      </trkpt>
      <trkpt lat="40.77346667" lon="-4.201375">
        <ele>1270.0</ele>
        <time>2018-05-26T11:24:49.688Z</time>
      </trkpt>
      <trkpt lat="40.77346667" lon="-4.201375">
        <ele>1270.0</ele>
        <time>2018-05-26T11:24:50.714Z</time>
      </trkpt>
      <trkpt lat="40.77350167" lon="-4.20143667">
        <ele>1270.0</ele>
        <time>2018-05-26T11:24:51.685Z</time>
      </trkpt>
      <trkpt lat="40.77352167" lon="-4.201475">
        <ele>1270.0</ele>
        <time>2018-05-26T11:24:52.682Z</time>
      </trkpt>
      <trkpt lat="40.77354333" lon="-4.20151667">
        <ele>1270.0</ele>
        <time>2018-05-26T11:24:53.690Z</time>
      </trkpt>
      <trkpt lat="40.77354333" lon="-4.20151667">
        <ele>1270.0</ele>
        <time>2018-05-26T11:24:54.713Z</time>
      </trkpt>
      <trkpt lat="40.7736" lon="-4.20162167">
        <ele>1269.0</ele>
        <time>2018-05-26T11:24:55.688Z</time>
      </trkpt>
      <trkpt lat="40.7736" lon="-4.20162167">
        <ele>1269.0</ele>
        <time>2018-05-26T11:24:56.711Z</time>
      </trkpt>
      <trkpt lat="40.773665" lon="-4.20173667">
        <ele>1268.0</ele>
        <time>2018-05-26T11:24:57.688Z</time>
      </trkpt>
      <trkpt lat="40.773665" lon="-4.20173667">
        <ele>1268.0</ele>
        <time>2018-05-26T11:24:58.711Z</time>
      </trkpt>
      <trkpt lat="40.773725" lon="-4.20184833">
        <ele>1267.0</ele>
        <time>2018-05-26T11:24:59.690Z</time>
      </trkpt>
      <trkpt lat="40.773755" lon="-4.20190333">
        <ele>1267.0</ele>
        <time>2018-05-26T11:25:00.688Z</time>
      </trkpt>
      <trkpt lat="40.773785" lon="-4.201965">
        <ele>1266.0</ele>
        <time>2018-05-26T11:25:01.686Z</time>
      </trkpt>
      <trkpt lat="40.773785" lon="-4.201965">
        <ele>1266.0</ele>
        <time>2018-05-26T11:25:02.694Z</time>
      </trkpt>
      <trkpt lat="40.77386333" lon="-4.20209">
        <ele>1265.0</ele>
        <time>2018-05-26T11:25:03.676Z</time>
      </trkpt>
      <trkpt lat="40.77386333" lon="-4.20209">
        <ele>1265.0</ele>
        <time>2018-05-26T11:25:04.686Z</time>
      </trkpt>
      <trkpt lat="40.77395" lon="-4.202245">
        <ele>1264.0</ele>
        <time>2018-05-26T11:25:05.702Z</time>
      </trkpt>
      <trkpt lat="40.77398667" lon="-4.202325">
        <ele>1263.0</ele>
        <time>2018-05-26T11:25:06.686Z</time>
      </trkpt>
      <trkpt lat="40.77398667" lon="-4.202325">
        <ele>1263.0</ele>
        <time>2018-05-26T11:25:07.712Z</time>
      </trkpt>
      <trkpt lat="40.77403833" lon="-4.20248167">
        <ele>1262.0</ele>
        <time>2018-05-26T11:25:08.699Z</time>
      </trkpt>
      <trkpt lat="40.77405833" lon="-4.202545">
        <ele>1263.0</ele>
        <time>2018-05-26T11:25:09.702Z</time>
      </trkpt>
      <trkpt lat="40.77405833" lon="-4.202545">
        <ele>1263.0</ele>
        <time>2018-05-26T11:25:10.712Z</time>
      </trkpt>
      <trkpt lat="40.77407" lon="-4.20261667">
        <ele>1262.0</ele>
        <time>2018-05-26T11:25:11.686Z</time>
      </trkpt>
      <trkpt lat="40.77407" lon="-4.20261667">
        <ele>1262.0</ele>
        <time>2018-05-26T11:25:12.711Z</time>
      </trkpt>
      <trkpt lat="40.77406667" lon="-4.202655">
        <ele>1262.0</ele>
        <time>2018-05-26T11:25:13.688Z</time>
      </trkpt>
      <trkpt lat="40.77406667" lon="-4.202655">
        <ele>1262.0</ele>
        <time>2018-05-26T11:25:14.713Z</time>
      </trkpt>
      <trkpt lat="40.77405833" lon="-4.20270333">
        <ele>1263.0</ele>
        <time>2018-05-26T11:25:15.684Z</time>
      </trkpt>
      <trkpt lat="40.77405833" lon="-4.20270333">
        <ele>1263.0</ele>
        <time>2018-05-26T11:25:16.712Z</time>
      </trkpt>
      <trkpt lat="40.774055" lon="-4.202765">
        <ele>1264.0</ele>
        <time>2018-05-26T11:25:17.683Z</time>
      </trkpt>
      <trkpt lat="40.774055" lon="-4.202765">
        <ele>1264.0</ele>
        <time>2018-05-26T11:25:18.711Z</time>
      </trkpt>
      <trkpt lat="40.77405167" lon="-4.20279667">
        <ele>1264.0</ele>
        <time>2018-05-26T11:25:19.704Z</time>
      </trkpt>
      <trkpt lat="40.77405167" lon="-4.20279667">
        <ele>1264.0</ele>
        <time>2018-05-26T11:25:20.696Z</time>
      </trkpt>
      <trkpt lat="40.77405667" lon="-4.20284">
        <ele>1265.0</ele>
        <time>2018-05-26T11:25:21.704Z</time>
      </trkpt>
      <trkpt lat="40.77406667" lon="-4.20286">
        <ele>1265.0</ele>
        <time>2018-05-26T11:25:22.690Z</time>
      </trkpt>
      <trkpt lat="40.77406667" lon="-4.20286">
        <ele>1265.0</ele>
        <time>2018-05-26T11:25:23.678Z</time>
      </trkpt>
      <trkpt lat="40.77409333" lon="-4.20289333">
        <ele>1266.0</ele>
        <time>2018-05-26T11:25:24.684Z</time>
      </trkpt>
      <trkpt lat="40.77409333" lon="-4.20289333">
        <ele>1266.0</ele>
        <time>2018-05-26T11:25:25.713Z</time>
      </trkpt>
      <trkpt lat="40.774115" lon="-4.20292667">
        <ele>1267.0</ele>
        <time>2018-05-26T11:25:26.693Z</time>
      </trkpt>
      <trkpt lat="40.77412667" lon="-4.20294667">
        <ele>1267.0</ele>
        <time>2018-05-26T11:25:27.686Z</time>
      </trkpt>
      <trkpt lat="40.77412667" lon="-4.20294667">
        <ele>1267.0</ele>
        <time>2018-05-26T11:25:28.711Z</time>
      </trkpt>
      <trkpt lat="40.77415" lon="-4.20297833">
        <ele>1268.0</ele>
        <time>2018-05-26T11:25:29.690Z</time>
      </trkpt>
      <trkpt lat="40.77415" lon="-4.20297833">
        <ele>1268.0</ele>
        <time>2018-05-26T11:25:30.677Z</time>
      </trkpt>
      <trkpt lat="40.77417333" lon="-4.20301333">
        <ele>1269.0</ele>
        <time>2018-05-26T11:25:31.676Z</time>
      </trkpt>
      <trkpt lat="40.77418333" lon="-4.20303167">
        <ele>1269.0</ele>
        <time>2018-05-26T11:25:32.708Z</time>
      </trkpt>
      <trkpt lat="40.77418333" lon="-4.20303167">
        <ele>1269.0</ele>
        <time>2018-05-26T11:25:33.676Z</time>
      </trkpt>
      <trkpt lat="40.774205" lon="-4.20307">
        <ele>1270.0</ele>
        <time>2018-05-26T11:25:34.682Z</time>
      </trkpt>
      <trkpt lat="40.774215" lon="-4.20308833">
        <ele>1270.0</ele>
        <time>2018-05-26T11:25:35.704Z</time>
      </trkpt>
      <trkpt lat="40.774215" lon="-4.20308833">
        <ele>1270.0</ele>
        <time>2018-05-26T11:25:36.686Z</time>
      </trkpt>
      <trkpt lat="40.77423167" lon="-4.20312833">
        <ele>1270.0</ele>
        <time>2018-05-26T11:25:37.696Z</time>
      </trkpt>
      <trkpt lat="40.77423167" lon="-4.20312833">
        <ele>1270.0</ele>
        <time>2018-05-26T11:25:38.676Z</time>
      </trkpt>
      <trkpt lat="40.77425" lon="-4.20317833">
        <ele>1270.0</ele>
        <time>2018-05-26T11:25:39.688Z</time>
      </trkpt>
      <trkpt lat="40.77425" lon="-4.20317833">
        <ele>1270.0</ele>
        <time>2018-05-26T11:25:40.711Z</time>
      </trkpt>
      <trkpt lat="40.77426833" lon="-4.20322833">
        <ele>1271.0</ele>
        <time>2018-05-26T11:25:41.695Z</time>
      </trkpt>
      <trkpt lat="40.77427833" lon="-4.20325333">
        <ele>1271.0</ele>
        <time>2018-05-26T11:25:42.693Z</time>
      </trkpt>
      <trkpt lat="40.77427833" lon="-4.20325333">
        <ele>1271.0</ele>
        <time>2018-05-26T11:25:43.697Z</time>
      </trkpt>
      <trkpt lat="40.7743" lon="-4.203305">
        <ele>1271.0</ele>
        <time>2018-05-26T11:25:44.705Z</time>
      </trkpt>
      <trkpt lat="40.7743" lon="-4.203305">
        <ele>1271.0</ele>
        <time>2018-05-26T11:25:45.712Z</time>
      </trkpt>
      <trkpt lat="40.77432" lon="-4.20335833">
        <ele>1271.0</ele>
        <time>2018-05-26T11:25:46.707Z</time>
      </trkpt>
      <trkpt lat="40.77432" lon="-4.20335833">
        <ele>1271.0</ele>
        <time>2018-05-26T11:25:47.687Z</time>
      </trkpt>
      <trkpt lat="40.77434333" lon="-4.20341167">
        <ele>1271.0</ele>
        <time>2018-05-26T11:25:48.693Z</time>
      </trkpt>
      <trkpt lat="40.774355" lon="-4.20343667">
        <ele>1271.0</ele>
        <time>2018-05-26T11:25:49.698Z</time>
      </trkpt>
      <trkpt lat="40.774355" lon="-4.20343667">
        <ele>1271.0</ele>
        <time>2018-05-26T11:25:50.686Z</time>
      </trkpt>
      <trkpt lat="40.77438" lon="-4.20349">
        <ele>1271.0</ele>
        <time>2018-05-26T11:25:51.697Z</time>
      </trkpt>
      <trkpt lat="40.77438" lon="-4.20349">
        <ele>1271.0</ele>
        <time>2018-05-26T11:25:52.681Z</time>
      </trkpt>
      <trkpt lat="40.774405" lon="-4.20354333">
        <ele>1271.0</ele>
        <time>2018-05-26T11:25:53.693Z</time>
      </trkpt>
      <trkpt lat="40.77441833" lon="-4.20357333">
        <ele>1271.0</ele>
        <time>2018-05-26T11:25:54.688Z</time>
      </trkpt>
      <trkpt lat="40.77443333" lon="-4.20360333">
        <ele>1271.0</ele>
        <time>2018-05-26T11:25:55.685Z</time>
      </trkpt>
      <trkpt lat="40.77443333" lon="-4.20360333">
        <ele>1271.0</ele>
        <time>2018-05-26T11:25:56.714Z</time>
      </trkpt>
      <trkpt lat="40.77446333" lon="-4.20365167">
        <ele>1271.0</ele>
        <time>2018-05-26T11:25:57.684Z</time>
      </trkpt>
      <trkpt lat="40.77446333" lon="-4.20365167">
        <ele>1271.0</ele>
        <time>2018-05-26T11:25:58.714Z</time>
      </trkpt>
      <trkpt lat="40.77448333" lon="-4.20368833">
        <ele>1272.0</ele>
        <time>2018-05-26T11:25:59.700Z</time>
      </trkpt>
      <trkpt lat="40.774495" lon="-4.203705">
        <ele>1272.0</ele>
        <time>2018-05-26T11:26:00.704Z</time>
      </trkpt>
      <trkpt lat="40.774495" lon="-4.203705">
        <ele>1272.0</ele>
        <time>2018-05-26T11:26:01.689Z</time>
      </trkpt>
      <trkpt lat="40.77451667" lon="-4.20374167">
        <ele>1273.0</ele>
        <time>2018-05-26T11:26:02.687Z</time>
      </trkpt>
      <trkpt lat="40.77452667" lon="-4.20375833">
        <ele>1273.0</ele>
        <time>2018-05-26T11:26:03.683Z</time>
      </trkpt>
      <trkpt lat="40.77452667" lon="-4.20375833">
        <ele>1273.0</ele>
        <time>2018-05-26T11:26:04.712Z</time>
      </trkpt>
      <trkpt lat="40.77454833" lon="-4.203795">
        <ele>1273.0</ele>
        <time>2018-05-26T11:26:05.684Z</time>
      </trkpt>
      <trkpt lat="40.77454833" lon="-4.203795">
        <ele>1273.0</ele>
        <time>2018-05-26T11:26:06.714Z</time>
      </trkpt>
      <trkpt lat="40.77457" lon="-4.20383333">
        <ele>1274.0</ele>
        <time>2018-05-26T11:26:07.686Z</time>
      </trkpt>
      <trkpt lat="40.77458" lon="-4.20385333">
        <ele>1274.0</ele>
        <time>2018-05-26T11:26:08.693Z</time>
      </trkpt>
      <trkpt lat="40.77458" lon="-4.20385333">
        <ele>1274.0</ele>
        <time>2018-05-26T11:26:09.681Z</time>
      </trkpt>
      <trkpt lat="40.7746" lon="-4.20389167">
        <ele>1274.0</ele>
        <time>2018-05-26T11:26:10.687Z</time>
      </trkpt>
      <trkpt lat="40.7746" lon="-4.20389167">
        <ele>1274.0</ele>
        <time>2018-05-26T11:26:11.714Z</time>
      </trkpt>
      <trkpt lat="40.77462833" lon="-4.20393667">
        <ele>1275.0</ele>
        <time>2018-05-26T11:26:12.685Z</time>
      </trkpt>
      <trkpt lat="40.77464333" lon="-4.20396">
        <ele>1275.0</ele>
        <time>2018-05-26T11:26:13.684Z</time>
      </trkpt>
      <trkpt lat="40.77464333" lon="-4.20396">
        <ele>1275.0</ele>
        <time>2018-05-26T11:26:14.713Z</time>
      </trkpt>
      <trkpt lat="40.77467167" lon="-4.20400667">
        <ele>1275.0</ele>
        <time>2018-05-26T11:26:15.692Z</time>
      </trkpt>
      <trkpt lat="40.77467167" lon="-4.20400667">
        <ele>1275.0</ele>
        <time>2018-05-26T11:26:16.693Z</time>
      </trkpt>
      <trkpt lat="40.77469667" lon="-4.20404833">
        <ele>1276.0</ele>
        <time>2018-05-26T11:26:17.704Z</time>
      </trkpt>
      <trkpt lat="40.77469667" lon="-4.20404833">
        <ele>1276.0</ele>
        <time>2018-05-26T11:26:18.695Z</time>
      </trkpt>
      <trkpt lat="40.77472167" lon="-4.20409333">
        <ele>1276.0</ele>
        <time>2018-05-26T11:26:19.678Z</time>
      </trkpt>
      <trkpt lat="40.77472167" lon="-4.20409333">
        <ele>1276.0</ele>
        <time>2018-05-26T11:26:20.711Z</time>
      </trkpt>
      <trkpt lat="40.77475" lon="-4.20414333">
        <ele>1277.0</ele>
        <time>2018-05-26T11:26:21.688Z</time>
      </trkpt>
      <trkpt lat="40.77475" lon="-4.20414333">
        <ele>1277.0</ele>
        <time>2018-05-26T11:26:22.675Z</time>
      </trkpt>
      <trkpt lat="40.77477833" lon="-4.20419">
        <ele>1277.0</ele>
        <time>2018-05-26T11:26:23.687Z</time>
      </trkpt>
      <trkpt lat="40.77477833" lon="-4.20419">
        <ele>1277.0</ele>
        <time>2018-05-26T11:26:24.714Z</time>
      </trkpt>
      <trkpt lat="40.77480667" lon="-4.204235">
        <ele>1278.0</ele>
        <time>2018-05-26T11:26:25.686Z</time>
      </trkpt>
      <trkpt lat="40.77480667" lon="-4.204235">
        <ele>1278.0</ele>
        <time>2018-05-26T11:26:26.711Z</time>
      </trkpt>
      <trkpt lat="40.77484" lon="-4.20428667">
        <ele>1279.0</ele>
        <time>2018-05-26T11:26:27.687Z</time>
      </trkpt>
      <trkpt lat="40.77484" lon="-4.20428667">
        <ele>1279.0</ele>
        <time>2018-05-26T11:26:28.713Z</time>
      </trkpt>
      <trkpt lat="40.77487667" lon="-4.20433667">
        <ele>1280.0</ele>
        <time>2018-05-26T11:26:29.688Z</time>
      </trkpt>
      <trkpt lat="40.77487667" lon="-4.20433667">
        <ele>1280.0</ele>
        <time>2018-05-26T11:26:30.711Z</time>
      </trkpt>
      <trkpt lat="40.77491167" lon="-4.204385">
        <ele>1280.0</ele>
        <time>2018-05-26T11:26:31.697Z</time>
      </trkpt>
      <trkpt lat="40.77491167" lon="-4.204385">
        <ele>1280.0</ele>
        <time>2018-05-26T11:26:32.684Z</time>
      </trkpt>
      <trkpt lat="40.774945" lon="-4.20443833">
        <ele>1280.0</ele>
        <time>2018-05-26T11:26:33.694Z</time>
      </trkpt>
      <trkpt lat="40.77496333" lon="-4.20446333">
        <ele>1281.0</ele>
        <time>2018-05-26T11:26:34.688Z</time>
      </trkpt>
      <trkpt lat="40.77496333" lon="-4.20446333">
        <ele>1281.0</ele>
        <time>2018-05-26T11:26:35.712Z</time>
      </trkpt>
      <trkpt lat="40.77500167" lon="-4.20451333">
        <ele>1281.0</ele>
        <time>2018-05-26T11:26:36.675Z</time>
      </trkpt>
      <trkpt lat="40.77502" lon="-4.20453833">
        <ele>1281.0</ele>
        <time>2018-05-26T11:26:37.688Z</time>
      </trkpt>
      <trkpt lat="40.77502" lon="-4.20453833">
        <ele>1281.0</ele>
        <time>2018-05-26T11:26:38.711Z</time>
      </trkpt>
      <trkpt lat="40.77505333" lon="-4.20458333">
        <ele>1282.0</ele>
        <time>2018-05-26T11:26:39.695Z</time>
      </trkpt>
      <trkpt lat="40.77505333" lon="-4.20458333">
        <ele>1282.0</ele>
        <time>2018-05-26T11:26:40.676Z</time>
      </trkpt>
      <trkpt lat="40.77508833" lon="-4.204625">
        <ele>1282.0</ele>
        <time>2018-05-26T11:26:41.688Z</time>
      </trkpt>
      <trkpt lat="40.77508833" lon="-4.204625">
        <ele>1282.0</ele>
        <time>2018-05-26T11:26:42.714Z</time>
      </trkpt>
      <trkpt lat="40.77512833" lon="-4.20467333">
        <ele>1282.0</ele>
        <time>2018-05-26T11:26:43.688Z</time>
      </trkpt>
      <trkpt lat="40.77512833" lon="-4.20467333">
        <ele>1282.0</ele>
        <time>2018-05-26T11:26:44.711Z</time>
      </trkpt>
      <trkpt lat="40.77516667" lon="-4.20472">
        <ele>1283.0</ele>
        <time>2018-05-26T11:26:45.683Z</time>
      </trkpt>
      <trkpt lat="40.77516667" lon="-4.20472">
        <ele>1283.0</ele>
        <time>2018-05-26T11:26:46.712Z</time>
      </trkpt>
      <trkpt lat="40.77520167" lon="-4.20475833">
        <ele>1283.0</ele>
        <time>2018-05-26T11:26:47.686Z</time>
      </trkpt>
      <trkpt lat="40.77520167" lon="-4.20475833">
        <ele>1283.0</ele>
        <time>2018-05-26T11:26:48.714Z</time>
      </trkpt>
      <trkpt lat="40.77523333" lon="-4.20480333">
        <ele>1283.0</ele>
        <time>2018-05-26T11:26:49.685Z</time>
      </trkpt>
      <trkpt lat="40.77523333" lon="-4.20480333">
        <ele>1283.0</ele>
        <time>2018-05-26T11:26:50.713Z</time>
      </trkpt>
      <trkpt lat="40.77526333" lon="-4.20484833">
        <ele>1283.0</ele>
        <time>2018-05-26T11:26:51.703Z</time>
      </trkpt>
      <trkpt lat="40.77526333" lon="-4.20484833">
        <ele>1283.0</ele>
        <time>2018-05-26T11:26:52.711Z</time>
      </trkpt>
      <trkpt lat="40.77529833" lon="-4.20489">
        <ele>1283.0</ele>
        <time>2018-05-26T11:26:53.690Z</time>
      </trkpt>
      <trkpt lat="40.77531833" lon="-4.20490667">
        <ele>1283.0</ele>
        <time>2018-05-26T11:26:54.705Z</time>
      </trkpt>
      <trkpt lat="40.77531833" lon="-4.20490667">
        <ele>1283.0</ele>
        <time>2018-05-26T11:26:55.712Z</time>
      </trkpt>
      <trkpt lat="40.77535333" lon="-4.204945">
        <ele>1284.0</ele>
        <time>2018-05-26T11:26:56.695Z</time>
      </trkpt>
      <trkpt lat="40.77537167" lon="-4.204965">
        <ele>1284.0</ele>
        <time>2018-05-26T11:26:57.712Z</time>
      </trkpt>
      <trkpt lat="40.77537167" lon="-4.204965">
        <ele>1284.0</ele>
        <time>2018-05-26T11:26:58.711Z</time>
      </trkpt>
      <trkpt lat="40.77541" lon="-4.205">
        <ele>1284.0</ele>
        <time>2018-05-26T11:26:59.685Z</time>
      </trkpt>
      <trkpt lat="40.77542833" lon="-4.205015">
        <ele>1284.0</ele>
        <time>2018-05-26T11:27:00.683Z</time>
      </trkpt>
      <trkpt lat="40.775445" lon="-4.20502833">
        <ele>1284.0</ele>
        <time>2018-05-26T11:27:01.691Z</time>
      </trkpt>
      <trkpt lat="40.775445" lon="-4.20502833">
        <ele>1284.0</ele>
        <time>2018-05-26T11:27:02.678Z</time>
      </trkpt>
      <trkpt lat="40.77548667" lon="-4.205055">
        <ele>1285.0</ele>
        <time>2018-05-26T11:27:03.686Z</time>
      </trkpt>
      <trkpt lat="40.77548667" lon="-4.205055">
        <ele>1285.0</ele>
        <time>2018-05-26T11:27:04.711Z</time>
      </trkpt>
      <trkpt lat="40.77553167" lon="-4.20506333">
        <ele>1286.0</ele>
        <time>2018-05-26T11:27:05.683Z</time>
      </trkpt>
      <trkpt lat="40.77553167" lon="-4.20506333">
        <ele>1286.0</ele>
        <time>2018-05-26T11:27:06.686Z</time>
      </trkpt>
      <trkpt lat="40.775575" lon="-4.20505833">
        <ele>1287.0</ele>
        <time>2018-05-26T11:27:07.688Z</time>
      </trkpt>
      <trkpt lat="40.775575" lon="-4.20505833">
        <ele>1287.0</ele>
        <time>2018-05-26T11:27:08.713Z</time>
      </trkpt>
      <trkpt lat="40.77561667" lon="-4.205045">
        <ele>1288.0</ele>
        <time>2018-05-26T11:27:09.686Z</time>
      </trkpt>
      <trkpt lat="40.77561667" lon="-4.205045">
        <ele>1288.0</ele>
        <time>2018-05-26T11:27:10.711Z</time>
      </trkpt>
      <trkpt lat="40.775655" lon="-4.20503167">
        <ele>1288.0</ele>
        <time>2018-05-26T11:27:11.690Z</time>
      </trkpt>
      <trkpt lat="40.775655" lon="-4.20503167">
        <ele>1288.0</ele>
        <time>2018-05-26T11:27:12.690Z</time>
      </trkpt>
      <trkpt lat="40.7757" lon="-4.20502">
        <ele>1289.0</ele>
        <time>2018-05-26T11:27:13.688Z</time>
      </trkpt>
      <trkpt lat="40.7757" lon="-4.20502">
        <ele>1289.0</ele>
        <time>2018-05-26T11:27:14.711Z</time>
      </trkpt>
      <trkpt lat="40.77573833" lon="-4.20507">
        <ele>1289.0</ele>
        <time>2018-05-26T11:27:15.688Z</time>
      </trkpt>
      <trkpt lat="40.77573833" lon="-4.20507">
        <ele>1289.0</ele>
        <time>2018-05-26T11:27:16.676Z</time>
      </trkpt>
      <trkpt lat="40.77574167" lon="-4.20517333">
        <ele>1288.0</ele>
        <time>2018-05-26T11:27:17.690Z</time>
      </trkpt>
      <trkpt lat="40.77575333" lon="-4.20523">
        <ele>1288.0</ele>
        <time>2018-05-26T11:27:18.678Z</time>
      </trkpt>
      <trkpt lat="40.77577667" lon="-4.20528">
        <ele>1288.0</ele>
        <time>2018-05-26T11:27:19.687Z</time>
      </trkpt>
      <trkpt lat="40.77577667" lon="-4.20528">
        <ele>1288.0</ele>
        <time>2018-05-26T11:27:20.711Z</time>
      </trkpt>
      <trkpt lat="40.77585" lon="-4.20537167">
        <ele>1287.0</ele>
        <time>2018-05-26T11:27:21.684Z</time>
      </trkpt>
      <trkpt lat="40.77585" lon="-4.20537167">
        <ele>1287.0</ele>
        <time>2018-05-26T11:27:22.682Z</time>
      </trkpt>
      <trkpt lat="40.77595" lon="-4.20545333">
        <ele>1286.0</ele>
        <time>2018-05-26T11:27:23.694Z</time>
      </trkpt>
      <trkpt lat="40.77595" lon="-4.20545333">
        <ele>1286.0</ele>
        <time>2018-05-26T11:27:24.714Z</time>
      </trkpt>
      <trkpt lat="40.776055" lon="-4.20552667">
        <ele>1285.0</ele>
        <time>2018-05-26T11:27:25.685Z</time>
      </trkpt>
      <trkpt lat="40.776055" lon="-4.20552667">
        <ele>1285.0</ele>
        <time>2018-05-26T11:27:26.713Z</time>
      </trkpt>
      <trkpt lat="40.776165" lon="-4.20561167">
        <ele>1284.0</ele>
        <time>2018-05-26T11:27:27.688Z</time>
      </trkpt>
      <trkpt lat="40.776165" lon="-4.20561167">
        <ele>1284.0</ele>
        <time>2018-05-26T11:27:28.712Z</time>
      </trkpt>
      <trkpt lat="40.776285" lon="-4.2057">
        <ele>1284.0</ele>
        <time>2018-05-26T11:27:29.688Z</time>
      </trkpt>
      <trkpt lat="40.776285" lon="-4.2057">
        <ele>1284.0</ele>
        <time>2018-05-26T11:27:30.712Z</time>
      </trkpt>
      <trkpt lat="40.77640333" lon="-4.20577667">
        <ele>1284.0</ele>
        <time>2018-05-26T11:27:31.687Z</time>
      </trkpt>
      <trkpt lat="40.77640333" lon="-4.20577667">
        <ele>1284.0</ele>
        <time>2018-05-26T11:27:32.688Z</time>
      </trkpt>
      <trkpt lat="40.77652333" lon="-4.20584167">
        <ele>1283.0</ele>
        <time>2018-05-26T11:27:33.696Z</time>
      </trkpt>
      <trkpt lat="40.77658167" lon="-4.20587">
        <ele>1283.0</ele>
        <time>2018-05-26T11:27:34.691Z</time>
      </trkpt>
      <trkpt lat="40.776645" lon="-4.20590833">
        <ele>1283.0</ele>
        <time>2018-05-26T11:27:35.687Z</time>
      </trkpt>
      <trkpt lat="40.776645" lon="-4.20590833">
        <ele>1283.0</ele>
        <time>2018-05-26T11:27:36.679Z</time>
      </trkpt>
      <trkpt lat="40.77677667" lon="-4.20598333">
        <ele>1282.0</ele>
        <time>2018-05-26T11:27:37.687Z</time>
      </trkpt>
      <trkpt lat="40.776845" lon="-4.20601667">
        <ele>1282.0</ele>
        <time>2018-05-26T11:27:38.709Z</time>
      </trkpt>
      <trkpt lat="40.77691333" lon="-4.20605833">
        <ele>1282.0</ele>
        <time>2018-05-26T11:27:39.705Z</time>
      </trkpt>
      <trkpt lat="40.77691333" lon="-4.20605833">
        <ele>1282.0</ele>
        <time>2018-05-26T11:27:40.686Z</time>
      </trkpt>
      <trkpt lat="40.77704833" lon="-4.20612833">
        <ele>1281.0</ele>
        <time>2018-05-26T11:27:41.688Z</time>
      </trkpt>
      <trkpt lat="40.77704833" lon="-4.20612833">
        <ele>1281.0</ele>
        <time>2018-05-26T11:27:42.677Z</time>
      </trkpt>
      <trkpt lat="40.77717" lon="-4.20618333">
        <ele>1281.0</ele>
        <time>2018-05-26T11:27:43.688Z</time>
      </trkpt>
      <trkpt lat="40.77717" lon="-4.20618333">
        <ele>1281.0</ele>
        <time>2018-05-26T11:27:44.711Z</time>
      </trkpt>
      <trkpt lat="40.77729333" lon="-4.206245">
        <ele>1281.0</ele>
        <time>2018-05-26T11:27:45.686Z</time>
      </trkpt>
      <trkpt lat="40.77729333" lon="-4.206245">
        <ele>1281.0</ele>
        <time>2018-05-26T11:27:46.713Z</time>
      </trkpt>
      <trkpt lat="40.77742667" lon="-4.20632833">
        <ele>1280.0</ele>
        <time>2018-05-26T11:27:47.690Z</time>
      </trkpt>
      <trkpt lat="40.77742667" lon="-4.20632833">
        <ele>1280.0</ele>
        <time>2018-05-26T11:27:48.680Z</time>
      </trkpt>
      <trkpt lat="40.77756667" lon="-4.20642">
        <ele>1280.0</ele>
        <time>2018-05-26T11:27:49.686Z</time>
      </trkpt>
      <trkpt lat="40.77756667" lon="-4.20642">
        <ele>1280.0</ele>
        <time>2018-05-26T11:27:50.712Z</time>
      </trkpt>
      <trkpt lat="40.77770833" lon="-4.206505">
        <ele>1280.0</ele>
        <time>2018-05-26T11:27:51.688Z</time>
      </trkpt>
      <trkpt lat="40.77770833" lon="-4.206505">
        <ele>1280.0</ele>
        <time>2018-05-26T11:27:52.684Z</time>
      </trkpt>
      <trkpt lat="40.77785333" lon="-4.20659167">
        <ele>1279.0</ele>
        <time>2018-05-26T11:27:53.688Z</time>
      </trkpt>
      <trkpt lat="40.77785333" lon="-4.20659167">
        <ele>1279.0</ele>
        <time>2018-05-26T11:27:54.711Z</time>
      </trkpt>
      <trkpt lat="40.77800667" lon="-4.20666667">
        <ele>1279.0</ele>
        <time>2018-05-26T11:27:55.683Z</time>
      </trkpt>
      <trkpt lat="40.77800667" lon="-4.20666667">
        <ele>1279.0</ele>
        <time>2018-05-26T11:27:56.675Z</time>
      </trkpt>
      <trkpt lat="40.77816333" lon="-4.20666833">
        <ele>1279.0</ele>
        <time>2018-05-26T11:27:57.690Z</time>
      </trkpt>
      <trkpt lat="40.77816333" lon="-4.20666833">
        <ele>1279.0</ele>
        <time>2018-05-26T11:27:58.714Z</time>
      </trkpt>
      <trkpt lat="40.77832" lon="-4.20669333">
        <ele>1279.0</ele>
        <time>2018-05-26T11:27:59.686Z</time>
      </trkpt>
      <trkpt lat="40.778395" lon="-4.20674">
        <ele>1279.0</ele>
        <time>2018-05-26T11:28:00.684Z</time>
      </trkpt>
      <trkpt lat="40.778395" lon="-4.20674">
        <ele>1279.0</ele>
        <time>2018-05-26T11:28:01.714Z</time>
      </trkpt>
      <trkpt lat="40.77854" lon="-4.20683833">
        <ele>1279.0</ele>
        <time>2018-05-26T11:28:02.694Z</time>
      </trkpt>
      <trkpt lat="40.778615" lon="-4.20688333">
        <ele>1279.0</ele>
        <time>2018-05-26T11:28:03.706Z</time>
      </trkpt>
      <trkpt lat="40.778615" lon="-4.20688333">
        <ele>1279.0</ele>
        <time>2018-05-26T11:28:04.686Z</time>
      </trkpt>
      <trkpt lat="40.778755" lon="-4.20699667">
        <ele>1279.0</ele>
        <time>2018-05-26T11:28:05.683Z</time>
      </trkpt>
      <trkpt lat="40.778755" lon="-4.20699667">
        <ele>1279.0</ele>
        <time>2018-05-26T11:28:06.713Z</time>
      </trkpt>
      <trkpt lat="40.77889167" lon="-4.20713667">
        <ele>1275.0</ele>
        <time>2018-05-26T11:28:07.700Z</time>
      </trkpt>
      <trkpt lat="40.77889167" lon="-4.20713667">
        <ele>1275.0</ele>
        <time>2018-05-26T11:28:08.714Z</time>
      </trkpt>
      <trkpt lat="40.77904667" lon="-4.20723">
        <ele>1275.0</ele>
        <time>2018-05-26T11:28:09.687Z</time>
      </trkpt>
      <trkpt lat="40.77904667" lon="-4.20723">
        <ele>1275.0</ele>
        <time>2018-05-26T11:28:10.675Z</time>
      </trkpt>
      <trkpt lat="40.77916833" lon="-4.20724333">
        <ele>1274.0</ele>
        <time>2018-05-26T11:28:11.681Z</time>
      </trkpt>
      <trkpt lat="40.77921667" lon="-4.20724333">
        <ele>1274.0</ele>
        <time>2018-05-26T11:28:12.688Z</time>
      </trkpt>
      <trkpt lat="40.77925833" lon="-4.20725167">
        <ele>1274.0</ele>
        <time>2018-05-26T11:28:13.687Z</time>
      </trkpt>
      <trkpt lat="40.77925833" lon="-4.20725167">
        <ele>1274.0</ele>
        <time>2018-05-26T11:28:14.704Z</time>
      </trkpt>
      <trkpt lat="40.77930833" lon="-4.20728833">
        <ele>1275.0</ele>
        <time>2018-05-26T11:28:15.684Z</time>
      </trkpt>
      <trkpt lat="40.77930833" lon="-4.20728833">
        <ele>1275.0</ele>
        <time>2018-05-26T11:28:16.713Z</time>
      </trkpt>
      <trkpt lat="40.77934" lon="-4.20736667">
        <ele>1276.0</ele>
        <time>2018-05-26T11:28:17.678Z</time>
      </trkpt>
      <trkpt lat="40.77936833" lon="-4.20740167">
        <ele>1276.0</ele>
        <time>2018-05-26T11:28:18.704Z</time>
      </trkpt>
      <trkpt lat="40.77939833" lon="-4.20742667">
        <ele>1276.0</ele>
        <time>2018-05-26T11:28:19.686Z</time>
      </trkpt>
      <trkpt lat="40.77939833" lon="-4.20742667">
        <ele>1276.0</ele>
        <time>2018-05-26T11:28:20.711Z</time>
      </trkpt>
      <trkpt lat="40.77946167" lon="-4.20744">
        <ele>1278.0</ele>
        <time>2018-05-26T11:28:21.684Z</time>
      </trkpt>
      <trkpt lat="40.77946167" lon="-4.20744">
        <ele>1278.0</ele>
        <time>2018-05-26T11:28:22.711Z</time>
      </trkpt>
      <trkpt lat="40.77950333" lon="-4.20744833">
        <ele>1280.0</ele>
        <time>2018-05-26T11:28:23.705Z</time>
      </trkpt>
      <trkpt lat="40.77950333" lon="-4.20744833">
        <ele>1280.0</ele>
        <time>2018-05-26T11:28:24.714Z</time>
      </trkpt>
      <trkpt lat="40.77955333" lon="-4.207465">
        <ele>1281.0</ele>
        <time>2018-05-26T11:28:25.687Z</time>
      </trkpt>
      <trkpt lat="40.77958" lon="-4.20747167">
        <ele>1282.0</ele>
        <time>2018-05-26T11:28:26.684Z</time>
      </trkpt>
      <trkpt lat="40.77958" lon="-4.20747167">
        <ele>1282.0</ele>
        <time>2018-05-26T11:28:27.715Z</time>
      </trkpt>
      <trkpt lat="40.77964167" lon="-4.207505">
        <ele>1282.0</ele>
        <time>2018-05-26T11:28:28.688Z</time>
      </trkpt>
      <trkpt lat="40.77964167" lon="-4.207505">
        <ele>1282.0</ele>
        <time>2018-05-26T11:28:29.714Z</time>
      </trkpt>
      <trkpt lat="40.77971333" lon="-4.20755667">
        <ele>1283.0</ele>
        <time>2018-05-26T11:28:30.687Z</time>
      </trkpt>
      <trkpt lat="40.77975167" lon="-4.20758">
        <ele>1283.0</ele>
        <time>2018-05-26T11:28:31.688Z</time>
      </trkpt>
      <trkpt lat="40.77975167" lon="-4.20758">
        <ele>1283.0</ele>
        <time>2018-05-26T11:28:32.696Z</time>
      </trkpt>
      <trkpt lat="40.77982167" lon="-4.207625">
        <ele>1284.0</ele>
        <time>2018-05-26T11:28:33.705Z</time>
      </trkpt>
      <trkpt lat="40.77985833" lon="-4.20764667">
        <ele>1284.0</ele>
        <time>2018-05-26T11:28:34.710Z</time>
      </trkpt>
      <trkpt lat="40.7799" lon="-4.20766667">
        <ele>1284.0</ele>
        <time>2018-05-26T11:28:35.702Z</time>
      </trkpt>
      <trkpt lat="40.77994" lon="-4.20768167">
        <ele>1284.0</ele>
        <time>2018-05-26T11:28:36.705Z</time>
      </trkpt>
      <trkpt lat="40.77994" lon="-4.20768167">
        <ele>1284.0</ele>
        <time>2018-05-26T11:28:37.691Z</time>
      </trkpt>
      <trkpt lat="40.78001167" lon="-4.20770667">
        <ele>1285.0</ele>
        <time>2018-05-26T11:28:38.694Z</time>
      </trkpt>
      <trkpt lat="40.78004" lon="-4.20771167">
        <ele>1285.0</ele>
        <time>2018-05-26T11:28:39.687Z</time>
      </trkpt>
      <trkpt lat="40.78004" lon="-4.20771167">
        <ele>1285.0</ele>
        <time>2018-05-26T11:28:40.712Z</time>
      </trkpt>
      <trkpt lat="40.78009833" lon="-4.20770833">
        <ele>1286.0</ele>
        <time>2018-05-26T11:28:41.693Z</time>
      </trkpt>
      <trkpt lat="40.78009833" lon="-4.20770833">
        <ele>1286.0</ele>
        <time>2018-05-26T11:28:42.709Z</time>
      </trkpt>
      <trkpt lat="40.78016" lon="-4.20767833">
        <ele>1286.0</ele>
        <time>2018-05-26T11:28:43.676Z</time>
      </trkpt>
      <trkpt lat="40.78019167" lon="-4.20766">
        <ele>1286.0</ele>
        <time>2018-05-26T11:28:44.690Z</time>
      </trkpt>
      <trkpt lat="40.780225" lon="-4.20764167">
        <ele>1286.0</ele>
        <time>2018-05-26T11:28:45.688Z</time>
      </trkpt>
      <trkpt lat="40.78026333" lon="-4.20763333">
        <ele>1286.0</ele>
        <time>2018-05-26T11:28:46.688Z</time>
      </trkpt>
      <trkpt lat="40.78026333" lon="-4.20763333">
        <ele>1286.0</ele>
        <time>2018-05-26T11:28:47.675Z</time>
      </trkpt>
      <trkpt lat="40.78034333" lon="-4.207695">
        <ele>1286.0</ele>
        <time>2018-05-26T11:28:48.685Z</time>
      </trkpt>
      <trkpt lat="40.78038333" lon="-4.20775667">
        <ele>1285.0</ele>
        <time>2018-05-26T11:28:49.683Z</time>
      </trkpt>
      <trkpt lat="40.78038333" lon="-4.20775667">
        <ele>1285.0</ele>
        <time>2018-05-26T11:28:50.714Z</time>
      </trkpt>
      <trkpt lat="40.78046333" lon="-4.207905">
        <ele>1284.0</ele>
        <time>2018-05-26T11:28:51.686Z</time>
      </trkpt>
      <trkpt lat="40.78046333" lon="-4.207905">
        <ele>1284.0</ele>
        <time>2018-05-26T11:28:52.713Z</time>
      </trkpt>
      <trkpt lat="40.78056167" lon="-4.208055">
        <ele>1283.0</ele>
        <time>2018-05-26T11:28:53.690Z</time>
      </trkpt>
      <trkpt lat="40.78061167" lon="-4.20813167">
        <ele>1282.0</ele>
        <time>2018-05-26T11:28:54.690Z</time>
      </trkpt>
      <trkpt lat="40.78066667" lon="-4.2082">
        <ele>1281.0</ele>
        <time>2018-05-26T11:28:55.678Z</time>
      </trkpt>
      <trkpt lat="40.78066667" lon="-4.2082">
        <ele>1281.0</ele>
        <time>2018-05-26T11:28:56.712Z</time>
      </trkpt>
      <trkpt lat="40.78080667" lon="-4.20827167">
        <ele>1279.0</ele>
        <time>2018-05-26T11:28:57.699Z</time>
      </trkpt>
      <trkpt lat="40.78080667" lon="-4.20827167">
        <ele>1279.0</ele>
        <time>2018-05-26T11:28:58.688Z</time>
      </trkpt>
      <trkpt lat="40.78094667" lon="-4.20833167">
        <ele>1277.0</ele>
        <time>2018-05-26T11:28:59.690Z</time>
      </trkpt>
      <trkpt lat="40.78101833" lon="-4.20836333">
        <ele>1277.0</ele>
        <time>2018-05-26T11:29:00.694Z</time>
      </trkpt>
      <trkpt lat="40.78109167" lon="-4.20838333">
        <ele>1276.0</ele>
        <time>2018-05-26T11:29:01.705Z</time>
      </trkpt>
      <trkpt lat="40.78109167" lon="-4.20838333">
        <ele>1276.0</ele>
        <time>2018-05-26T11:29:02.689Z</time>
      </trkpt>
      <trkpt lat="40.78123" lon="-4.20839333">
        <ele>1275.0</ele>
        <time>2018-05-26T11:29:03.704Z</time>
      </trkpt>
      <trkpt lat="40.78123" lon="-4.20839333">
        <ele>1275.0</ele>
        <time>2018-05-26T11:29:04.707Z</time>
      </trkpt>
      <trkpt lat="40.781375" lon="-4.20845833">
        <ele>1275.0</ele>
        <time>2018-05-26T11:29:05.677Z</time>
      </trkpt>
      <trkpt lat="40.781375" lon="-4.20845833">
        <ele>1275.0</ele>
        <time>2018-05-26T11:29:06.682Z</time>
      </trkpt>
      <trkpt lat="40.78151167" lon="-4.20852833">
        <ele>1274.0</ele>
        <time>2018-05-26T11:29:07.690Z</time>
      </trkpt>
      <trkpt lat="40.78151167" lon="-4.20852833">
        <ele>1274.0</ele>
        <time>2018-05-26T11:29:08.711Z</time>
      </trkpt>
      <trkpt lat="40.78164667" lon="-4.20858833">
        <ele>1273.0</ele>
        <time>2018-05-26T11:29:09.678Z</time>
      </trkpt>
      <trkpt lat="40.781715" lon="-4.20861667">
        <ele>1273.0</ele>
        <time>2018-05-26T11:29:10.684Z</time>
      </trkpt>
      <trkpt lat="40.78178833" lon="-4.20866">
        <ele>1272.0</ele>
        <time>2018-05-26T11:29:11.683Z</time>
      </trkpt>
      <trkpt lat="40.78178833" lon="-4.20866">
        <ele>1272.0</ele>
        <time>2018-05-26T11:29:12.676Z</time>
      </trkpt>
      <trkpt lat="40.78192333" lon="-4.20876833">
        <ele>1271.0</ele>
        <time>2018-05-26T11:29:13.713Z</time>
      </trkpt>
      <trkpt lat="40.78192333" lon="-4.20876833">
        <ele>1271.0</ele>
        <time>2018-05-26T11:29:14.688Z</time>
      </trkpt>
      <trkpt lat="40.78203667" lon="-4.20888">
        <ele>1271.0</ele>
        <time>2018-05-26T11:29:15.687Z</time>
      </trkpt>
      <trkpt lat="40.78203667" lon="-4.20888">
        <ele>1271.0</ele>
        <time>2018-05-26T11:29:16.711Z</time>
      </trkpt>
      <trkpt lat="40.78212833" lon="-4.20899667">
        <ele>1268.0</ele>
        <time>2018-05-26T11:29:17.684Z</time>
      </trkpt>
      <trkpt lat="40.78212833" lon="-4.20899667">
        <ele>1268.0</ele>
        <time>2018-05-26T11:29:18.714Z</time>
      </trkpt>
      <trkpt lat="40.78225" lon="-4.20908667">
        <ele>1268.0</ele>
        <time>2018-05-26T11:29:19.688Z</time>
      </trkpt>
      <trkpt lat="40.78231167" lon="-4.20910833">
        <ele>1267.0</ele>
        <time>2018-05-26T11:29:20.688Z</time>
      </trkpt>
      <trkpt lat="40.78237833" lon="-4.20912167">
        <ele>1267.0</ele>
        <time>2018-05-26T11:29:21.687Z</time>
      </trkpt>
      <trkpt lat="40.78237833" lon="-4.20912167">
        <ele>1267.0</ele>
        <time>2018-05-26T11:29:22.712Z</time>
      </trkpt>
      <trkpt lat="40.7825" lon="-4.20917667">
        <ele>1268.0</ele>
        <time>2018-05-26T11:29:23.701Z</time>
      </trkpt>
      <trkpt lat="40.7825" lon="-4.20917667">
        <ele>1268.0</ele>
        <time>2018-05-26T11:29:24.713Z</time>
      </trkpt>
      <trkpt lat="40.7826" lon="-4.20923667">
        <ele>1269.0</ele>
        <time>2018-05-26T11:29:25.688Z</time>
      </trkpt>
      <trkpt lat="40.7826" lon="-4.20923667">
        <ele>1269.0</ele>
        <time>2018-05-26T11:29:26.711Z</time>
      </trkpt>
      <trkpt lat="40.78270333" lon="-4.20929167">
        <ele>1269.0</ele>
        <time>2018-05-26T11:29:27.705Z</time>
      </trkpt>
      <trkpt lat="40.78270333" lon="-4.20929167">
        <ele>1269.0</ele>
        <time>2018-05-26T11:29:28.711Z</time>
      </trkpt>
      <trkpt lat="40.782815" lon="-4.20935167">
        <ele>1269.0</ele>
        <time>2018-05-26T11:29:29.682Z</time>
      </trkpt>
      <trkpt lat="40.782815" lon="-4.20935167">
        <ele>1269.0</ele>
        <time>2018-05-26T11:29:30.713Z</time>
      </trkpt>
      <trkpt lat="40.78292333" lon="-4.20942667">
        <ele>1269.0</ele>
        <time>2018-05-26T11:29:31.704Z</time>
      </trkpt>
      <trkpt lat="40.78292333" lon="-4.20942667">
        <ele>1269.0</ele>
        <time>2018-05-26T11:29:32.707Z</time>
      </trkpt>
      <trkpt lat="40.78303167" lon="-4.20949">
        <ele>1269.0</ele>
        <time>2018-05-26T11:29:33.681Z</time>
      </trkpt>
      <trkpt lat="40.78308667" lon="-4.20952">
        <ele>1269.0</ele>
        <time>2018-05-26T11:29:34.690Z</time>
      </trkpt>
      <trkpt lat="40.78314167" lon="-4.20955167">
        <ele>1268.0</ele>
        <time>2018-05-26T11:29:35.705Z</time>
      </trkpt>
      <trkpt lat="40.78314167" lon="-4.20955167">
        <ele>1268.0</ele>
        <time>2018-05-26T11:29:36.711Z</time>
      </trkpt>
      <trkpt lat="40.783295" lon="-4.2096">
        <ele>1267.0</ele>
        <time>2018-05-26T11:29:37.688Z</time>
      </trkpt>
      <trkpt lat="40.783295" lon="-4.2096">
        <ele>1267.0</ele>
        <time>2018-05-26T11:29:38.692Z</time>
      </trkpt>
      <trkpt lat="40.78344333" lon="-4.209675">
        <ele>1267.0</ele>
        <time>2018-05-26T11:29:39.702Z</time>
      </trkpt>
      <trkpt lat="40.78344333" lon="-4.209675">
        <ele>1267.0</ele>
        <time>2018-05-26T11:29:40.712Z</time>
      </trkpt>
      <trkpt lat="40.783575" lon="-4.20976833">
        <ele>1266.0</ele>
        <time>2018-05-26T11:29:41.678Z</time>
      </trkpt>
      <trkpt lat="40.783575" lon="-4.20976833">
        <ele>1266.0</ele>
        <time>2018-05-26T11:29:42.679Z</time>
      </trkpt>
      <trkpt lat="40.78371167" lon="-4.20985667">
        <ele>1267.0</ele>
        <time>2018-05-26T11:29:43.688Z</time>
      </trkpt>
      <trkpt lat="40.78371167" lon="-4.20985667">
        <ele>1267.0</ele>
        <time>2018-05-26T11:29:44.682Z</time>
      </trkpt>
      <trkpt lat="40.78384" lon="-4.20994667">
        <ele>1267.0</ele>
        <time>2018-05-26T11:29:45.690Z</time>
      </trkpt>
      <trkpt lat="40.78384" lon="-4.20994667">
        <ele>1267.0</ele>
        <time>2018-05-26T11:29:46.713Z</time>
      </trkpt>
      <trkpt lat="40.78395333" lon="-4.21004667">
        <ele>1267.0</ele>
        <time>2018-05-26T11:29:47.705Z</time>
      </trkpt>
      <trkpt lat="40.78395333" lon="-4.21004667">
        <ele>1267.0</ele>
        <time>2018-05-26T11:29:48.706Z</time>
      </trkpt>
      <trkpt lat="40.78405667" lon="-4.21016833">
        <ele>1267.0</ele>
        <time>2018-05-26T11:29:49.714Z</time>
      </trkpt>
      <trkpt lat="40.78405667" lon="-4.21016833">
        <ele>1267.0</ele>
        <time>2018-05-26T11:29:50.680Z</time>
      </trkpt>
      <trkpt lat="40.78415667" lon="-4.21029667">
        <ele>1267.0</ele>
        <time>2018-05-26T11:29:51.709Z</time>
      </trkpt>
      <trkpt lat="40.78415667" lon="-4.21029667">
        <ele>1267.0</ele>
        <time>2018-05-26T11:29:52.712Z</time>
      </trkpt>
      <trkpt lat="40.784265" lon="-4.21039333">
        <ele>1266.0</ele>
        <time>2018-05-26T11:29:53.693Z</time>
      </trkpt>
      <trkpt lat="40.784265" lon="-4.21039333">
        <ele>1266.0</ele>
        <time>2018-05-26T11:29:54.689Z</time>
      </trkpt>
      <trkpt lat="40.78438833" lon="-4.210425">
        <ele>1266.0</ele>
        <time>2018-05-26T11:29:55.687Z</time>
      </trkpt>
      <trkpt lat="40.78438833" lon="-4.210425">
        <ele>1266.0</ele>
        <time>2018-05-26T11:29:56.712Z</time>
      </trkpt>
      <trkpt lat="40.78451167" lon="-4.210485">
        <ele>1266.0</ele>
        <time>2018-05-26T11:29:57.685Z</time>
      </trkpt>
      <trkpt lat="40.78451167" lon="-4.210485">
        <ele>1266.0</ele>
        <time>2018-05-26T11:29:58.713Z</time>
      </trkpt>
      <trkpt lat="40.78463167" lon="-4.21057833">
        <ele>1266.0</ele>
        <time>2018-05-26T11:29:59.690Z</time>
      </trkpt>
      <trkpt lat="40.78469167" lon="-4.21063">
        <ele>1266.0</ele>
        <time>2018-05-26T11:30:00.695Z</time>
      </trkpt>
      <trkpt lat="40.784755" lon="-4.21068333">
        <ele>1266.0</ele>
        <time>2018-05-26T11:30:01.684Z</time>
      </trkpt>
      <trkpt lat="40.784755" lon="-4.21068333">
        <ele>1266.0</ele>
        <time>2018-05-26T11:30:02.676Z</time>
      </trkpt>
      <trkpt lat="40.78489667" lon="-4.21077667">
        <ele>1266.0</ele>
        <time>2018-05-26T11:30:03.691Z</time>
      </trkpt>
      <trkpt lat="40.78489667" lon="-4.21077667">
        <ele>1266.0</ele>
        <time>2018-05-26T11:30:04.712Z</time>
      </trkpt>
      <trkpt lat="40.78504" lon="-4.210855">
        <ele>1266.0</ele>
        <time>2018-05-26T11:30:05.687Z</time>
      </trkpt>
      <trkpt lat="40.78511" lon="-4.21089333">
        <ele>1266.0</ele>
        <time>2018-05-26T11:30:06.684Z</time>
      </trkpt>
      <trkpt lat="40.78511" lon="-4.21089333">
        <ele>1266.0</ele>
        <time>2018-05-26T11:30:07.712Z</time>
      </trkpt>
      <trkpt lat="40.78523167" lon="-4.21099333">
        <ele>1267.0</ele>
        <time>2018-05-26T11:30:08.691Z</time>
      </trkpt>
      <trkpt lat="40.78528833" lon="-4.21104833">
        <ele>1266.0</ele>
        <time>2018-05-26T11:30:09.688Z</time>
      </trkpt>
      <trkpt lat="40.78528833" lon="-4.21104833">
        <ele>1266.0</ele>
        <time>2018-05-26T11:30:10.711Z</time>
      </trkpt>
      <trkpt lat="40.78541333" lon="-4.211145">
        <ele>1265.0</ele>
        <time>2018-05-26T11:30:11.690Z</time>
      </trkpt>
      <trkpt lat="40.78541333" lon="-4.211145">
        <ele>1265.0</ele>
        <time>2018-05-26T11:30:12.675Z</time>
      </trkpt>
      <trkpt lat="40.78555333" lon="-4.211215">
        <ele>1265.0</ele>
        <time>2018-05-26T11:30:13.688Z</time>
      </trkpt>
      <trkpt lat="40.78555333" lon="-4.211215">
        <ele>1265.0</ele>
        <time>2018-05-26T11:30:14.714Z</time>
      </trkpt>
      <trkpt lat="40.78570167" lon="-4.21127333">
        <ele>1264.0</ele>
        <time>2018-05-26T11:30:15.687Z</time>
      </trkpt>
      <trkpt lat="40.78570167" lon="-4.21127333">
        <ele>1264.0</ele>
        <time>2018-05-26T11:30:16.691Z</time>
      </trkpt>
      <trkpt lat="40.78585667" lon="-4.21133333">
        <ele>1263.0</ele>
        <time>2018-05-26T11:30:17.685Z</time>
      </trkpt>
      <trkpt lat="40.78585667" lon="-4.21133333">
        <ele>1263.0</ele>
        <time>2018-05-26T11:30:18.676Z</time>
      </trkpt>
      <trkpt lat="40.786025" lon="-4.21139667">
        <ele>1262.0</ele>
        <time>2018-05-26T11:30:19.690Z</time>
      </trkpt>
      <trkpt lat="40.786025" lon="-4.21139667">
        <ele>1262.0</ele>
        <time>2018-05-26T11:30:20.711Z</time>
      </trkpt>
      <trkpt lat="40.78619667" lon="-4.21146">
        <ele>1262.0</ele>
        <time>2018-05-26T11:30:21.687Z</time>
      </trkpt>
      <trkpt lat="40.78619667" lon="-4.21146">
        <ele>1262.0</ele>
        <time>2018-05-26T11:30:22.712Z</time>
      </trkpt>
      <trkpt lat="40.78634833" lon="-4.21152667">
        <ele>1262.0</ele>
        <time>2018-05-26T11:30:23.686Z</time>
      </trkpt>
      <trkpt lat="40.78634833" lon="-4.21152667">
        <ele>1262.0</ele>
        <time>2018-05-26T11:30:24.708Z</time>
      </trkpt>
      <trkpt lat="40.78649" lon="-4.21159">
        <ele>1260.0</ele>
        <time>2018-05-26T11:30:25.688Z</time>
      </trkpt>
      <trkpt lat="40.78649" lon="-4.21159">
        <ele>1260.0</ele>
        <time>2018-05-26T11:30:26.713Z</time>
      </trkpt>
      <trkpt lat="40.78662833" lon="-4.21165333">
        <ele>1259.0</ele>
        <time>2018-05-26T11:30:27.688Z</time>
      </trkpt>
      <trkpt lat="40.78662833" lon="-4.21165333">
        <ele>1259.0</ele>
        <time>2018-05-26T11:30:28.711Z</time>
      </trkpt>
      <trkpt lat="40.78678333" lon="-4.21168667">
        <ele>1257.0</ele>
        <time>2018-05-26T11:30:29.682Z</time>
      </trkpt>
      <trkpt lat="40.786865" lon="-4.21170667">
        <ele>1257.0</ele>
        <time>2018-05-26T11:30:30.678Z</time>
      </trkpt>
      <trkpt lat="40.78694667" lon="-4.21172667">
        <ele>1257.0</ele>
        <time>2018-05-26T11:30:31.703Z</time>
      </trkpt>
      <trkpt lat="40.78694667" lon="-4.21172667">
        <ele>1257.0</ele>
        <time>2018-05-26T11:30:32.681Z</time>
      </trkpt>
      <trkpt lat="40.78708833" lon="-4.21174">
        <ele>1258.0</ele>
        <time>2018-05-26T11:30:33.708Z</time>
      </trkpt>
      <trkpt lat="40.78708833" lon="-4.21174">
        <ele>1258.0</ele>
        <time>2018-05-26T11:30:34.714Z</time>
      </trkpt>
      <trkpt lat="40.78720833" lon="-4.21177167">
        <ele>1258.0</ele>
        <time>2018-05-26T11:30:35.690Z</time>
      </trkpt>
      <trkpt lat="40.78720833" lon="-4.21177167">
        <ele>1258.0</ele>
        <time>2018-05-26T11:30:36.677Z</time>
      </trkpt>
      <trkpt lat="40.78729" lon="-4.21181667">
        <ele>1257.0</ele>
        <time>2018-05-26T11:30:37.691Z</time>
      </trkpt>
      <trkpt lat="40.78729" lon="-4.21181667">
        <ele>1257.0</ele>
        <time>2018-05-26T11:30:38.696Z</time>
      </trkpt>
      <trkpt lat="40.78734" lon="-4.21183667">
        <ele>1257.0</ele>
        <time>2018-05-26T11:30:39.705Z</time>
      </trkpt>
      <trkpt lat="40.78734" lon="-4.21183667">
        <ele>1257.0</ele>
        <time>2018-05-26T11:30:40.677Z</time>
      </trkpt>
      <trkpt lat="40.78738833" lon="-4.21183333">
        <ele>1255.0</ele>
        <time>2018-05-26T11:30:41.677Z</time>
      </trkpt>
      <trkpt lat="40.787425" lon="-4.211835">
        <ele>1254.0</ele>
        <time>2018-05-26T11:30:42.688Z</time>
      </trkpt>
      <trkpt lat="40.78746167" lon="-4.211845">
        <ele>1254.0</ele>
        <time>2018-05-26T11:30:43.687Z</time>
      </trkpt>
      <trkpt lat="40.78746167" lon="-4.211845">
        <ele>1254.0</ele>
        <time>2018-05-26T11:30:44.712Z</time>
      </trkpt>
      <trkpt lat="40.78754333" lon="-4.21187167">
        <ele>1254.0</ele>
        <time>2018-05-26T11:30:45.691Z</time>
      </trkpt>
      <trkpt lat="40.78754333" lon="-4.21187167">
        <ele>1254.0</ele>
        <time>2018-05-26T11:30:46.694Z</time>
      </trkpt>
      <trkpt lat="40.78763833" lon="-4.21190667">
        <ele>1253.0</ele>
        <time>2018-05-26T11:30:47.705Z</time>
      </trkpt>
      <trkpt lat="40.78763833" lon="-4.21190667">
        <ele>1253.0</ele>
        <time>2018-05-26T11:30:48.697Z</time>
      </trkpt>
      <trkpt lat="40.787735" lon="-4.21195833">
        <ele>1252.0</ele>
        <time>2018-05-26T11:30:49.708Z</time>
      </trkpt>
      <trkpt lat="40.787735" lon="-4.21195833">
        <ele>1252.0</ele>
        <time>2018-05-26T11:30:50.690Z</time>
      </trkpt>
      <trkpt lat="40.787835" lon="-4.212015">
        <ele>1252.0</ele>
        <time>2018-05-26T11:30:51.687Z</time>
      </trkpt>
      <trkpt lat="40.78788833" lon="-4.21204667">
        <ele>1252.0</ele>
        <time>2018-05-26T11:30:52.682Z</time>
      </trkpt>
      <trkpt lat="40.78788833" lon="-4.21204667">
        <ele>1252.0</ele>
        <time>2018-05-26T11:30:53.676Z</time>
      </trkpt>
      <trkpt lat="40.788" lon="-4.21210833">
        <ele>1252.0</ele>
        <time>2018-05-26T11:30:54.712Z</time>
      </trkpt>
      <trkpt lat="40.788" lon="-4.21210833">
        <ele>1252.0</ele>
        <time>2018-05-26T11:30:55.686Z</time>
      </trkpt>
      <trkpt lat="40.788125" lon="-4.21215667">
        <ele>1252.0</ele>
        <time>2018-05-26T11:30:56.688Z</time>
      </trkpt>
      <trkpt lat="40.788125" lon="-4.21215667">
        <ele>1252.0</ele>
        <time>2018-05-26T11:30:57.714Z</time>
      </trkpt>
      <trkpt lat="40.78825833" lon="-4.212185">
        <ele>1253.0</ele>
        <time>2018-05-26T11:30:58.681Z</time>
      </trkpt>
      <trkpt lat="40.78825833" lon="-4.212185">
        <ele>1253.0</ele>
        <time>2018-05-26T11:30:59.686Z</time>
      </trkpt>
      <trkpt lat="40.78838833" lon="-4.21220333">
        <ele>1253.0</ele>
        <time>2018-05-26T11:31:00.696Z</time>
      </trkpt>
      <trkpt lat="40.78838833" lon="-4.21220333">
        <ele>1253.0</ele>
        <time>2018-05-26T11:31:01.714Z</time>
      </trkpt>
      <trkpt lat="40.78851167" lon="-4.21224167">
        <ele>1254.0</ele>
        <time>2018-05-26T11:31:02.685Z</time>
      </trkpt>
      <trkpt lat="40.788575" lon="-4.21226333">
        <ele>1254.0</ele>
        <time>2018-05-26T11:31:03.697Z</time>
      </trkpt>
      <trkpt lat="40.788575" lon="-4.21226333">
        <ele>1254.0</ele>
        <time>2018-05-26T11:31:04.676Z</time>
      </trkpt>
      <trkpt lat="40.78869167" lon="-4.212305">
        <ele>1255.0</ele>
        <time>2018-05-26T11:31:05.688Z</time>
      </trkpt>
      <trkpt lat="40.78869167" lon="-4.212305">
        <ele>1255.0</ele>
        <time>2018-05-26T11:31:06.712Z</time>
      </trkpt>
      <trkpt lat="40.78879667" lon="-4.21236333">
        <ele>1256.0</ele>
        <time>2018-05-26T11:31:07.685Z</time>
      </trkpt>
      <trkpt lat="40.78879667" lon="-4.21236333">
        <ele>1256.0</ele>
        <time>2018-05-26T11:31:08.714Z</time>
      </trkpt>
      <trkpt lat="40.78887667" lon="-4.2124">
        <ele>1256.0</ele>
        <time>2018-05-26T11:31:09.688Z</time>
      </trkpt>
      <trkpt lat="40.78887667" lon="-4.2124">
        <ele>1256.0</ele>
        <time>2018-05-26T11:31:10.712Z</time>
      </trkpt>
      <trkpt lat="40.78896167" lon="-4.21248167">
        <ele>1256.0</ele>
        <time>2018-05-26T11:31:11.687Z</time>
      </trkpt>
      <trkpt lat="40.78901667" lon="-4.21253">
        <ele>1256.0</ele>
        <time>2018-05-26T11:31:12.684Z</time>
      </trkpt>
      <trkpt lat="40.78901667" lon="-4.21253">
        <ele>1256.0</ele>
        <time>2018-05-26T11:31:13.676Z</time>
      </trkpt>
      <trkpt lat="40.78914333" lon="-4.212565">
        <ele>1256.0</ele>
        <time>2018-05-26T11:31:14.685Z</time>
      </trkpt>
      <trkpt lat="40.78914333" lon="-4.212565">
        <ele>1256.0</ele>
        <time>2018-05-26T11:31:15.706Z</time>
      </trkpt>
      <trkpt lat="40.78927333" lon="-4.21254167">
        <ele>1256.0</ele>
        <time>2018-05-26T11:31:16.677Z</time>
      </trkpt>
      <trkpt lat="40.78934167" lon="-4.212545">
        <ele>1257.0</ele>
        <time>2018-05-26T11:31:17.683Z</time>
      </trkpt>
      <trkpt lat="40.78934167" lon="-4.212545">
        <ele>1257.0</ele>
        <time>2018-05-26T11:31:18.713Z</time>
      </trkpt>
      <trkpt lat="40.78948167" lon="-4.21257667">
        <ele>1257.0</ele>
        <time>2018-05-26T11:31:19.685Z</time>
      </trkpt>
      <trkpt lat="40.78948167" lon="-4.21257667">
        <ele>1257.0</ele>
        <time>2018-05-26T11:31:20.712Z</time>
      </trkpt>
      <trkpt lat="40.78964667" lon="-4.21261333">
        <ele>1257.0</ele>
        <time>2018-05-26T11:31:21.690Z</time>
      </trkpt>
      <trkpt lat="40.789735" lon="-4.21263167">
        <ele>1257.0</ele>
        <time>2018-05-26T11:31:22.687Z</time>
      </trkpt>
      <trkpt lat="40.78981667" lon="-4.21265333">
        <ele>1257.0</ele>
        <time>2018-05-26T11:31:23.688Z</time>
      </trkpt>
      <trkpt lat="40.78981667" lon="-4.21265333">
        <ele>1257.0</ele>
        <time>2018-05-26T11:31:24.713Z</time>
      </trkpt>
      <trkpt lat="40.78997" lon="-4.21271167">
        <ele>1257.0</ele>
        <time>2018-05-26T11:31:25.688Z</time>
      </trkpt>
      <trkpt lat="40.78997" lon="-4.21271167">
        <ele>1257.0</ele>
        <time>2018-05-26T11:31:26.712Z</time>
      </trkpt>
      <trkpt lat="40.790135" lon="-4.212775">
        <ele>1256.0</ele>
        <time>2018-05-26T11:31:27.688Z</time>
      </trkpt>
      <trkpt lat="40.790135" lon="-4.212775">
        <ele>1256.0</ele>
        <time>2018-05-26T11:31:28.684Z</time>
      </trkpt>
      <trkpt lat="40.790315" lon="-4.21284333">
        <ele>1255.0</ele>
        <time>2018-05-26T11:31:29.686Z</time>
      </trkpt>
      <trkpt lat="40.790315" lon="-4.21284333">
        <ele>1255.0</ele>
        <time>2018-05-26T11:31:30.712Z</time>
      </trkpt>
      <trkpt lat="40.790505" lon="-4.21289833">
        <ele>1254.0</ele>
        <time>2018-05-26T11:31:31.691Z</time>
      </trkpt>
      <trkpt lat="40.790505" lon="-4.21289833">
        <ele>1254.0</ele>
        <time>2018-05-26T11:31:32.685Z</time>
      </trkpt>
      <trkpt lat="40.79068833" lon="-4.21294667">
        <ele>1253.0</ele>
        <time>2018-05-26T11:31:33.693Z</time>
      </trkpt>
      <trkpt lat="40.79077667" lon="-4.21298">
        <ele>1252.0</ele>
        <time>2018-05-26T11:31:34.707Z</time>
      </trkpt>
      <trkpt lat="40.79086667" lon="-4.21300833">
        <ele>1252.0</ele>
        <time>2018-05-26T11:31:35.684Z</time>
      </trkpt>
      <trkpt lat="40.79086667" lon="-4.21300833">
        <ele>1252.0</ele>
        <time>2018-05-26T11:31:36.676Z</time>
      </trkpt>
      <trkpt lat="40.79104167" lon="-4.213045">
        <ele>1253.0</ele>
        <time>2018-05-26T11:31:37.688Z</time>
      </trkpt>
      <trkpt lat="40.79104167" lon="-4.213045">
        <ele>1253.0</ele>
        <time>2018-05-26T11:31:38.684Z</time>
      </trkpt>
      <trkpt lat="40.79118833" lon="-4.213115">
        <ele>1253.0</ele>
        <time>2018-05-26T11:31:39.685Z</time>
      </trkpt>
      <trkpt lat="40.79118833" lon="-4.213115">
        <ele>1253.0</ele>
        <time>2018-05-26T11:31:40.712Z</time>
      </trkpt>
      <trkpt lat="40.79132333" lon="-4.21319333">
        <ele>1253.0</ele>
        <time>2018-05-26T11:31:41.681Z</time>
      </trkpt>
      <trkpt lat="40.79138667" lon="-4.21321333">
        <ele>1253.0</ele>
        <time>2018-05-26T11:31:42.688Z</time>
      </trkpt>
      <trkpt lat="40.79138667" lon="-4.21321333">
        <ele>1253.0</ele>
        <time>2018-05-26T11:31:43.713Z</time>
      </trkpt>
      <trkpt lat="40.79150667" lon="-4.21323667">
        <ele>1255.0</ele>
        <time>2018-05-26T11:31:44.687Z</time>
      </trkpt>
      <trkpt lat="40.79150667" lon="-4.21323667">
        <ele>1255.0</ele>
        <time>2018-05-26T11:31:45.696Z</time>
      </trkpt>
      <trkpt lat="40.79162333" lon="-4.21327">
        <ele>1255.0</ele>
        <time>2018-05-26T11:31:46.713Z</time>
      </trkpt>
      <trkpt lat="40.79162333" lon="-4.21327">
        <ele>1255.0</ele>
        <time>2018-05-26T11:31:47.685Z</time>
      </trkpt>
      <trkpt lat="40.79173" lon="-4.21330833">
        <ele>1255.0</ele>
        <time>2018-05-26T11:31:48.690Z</time>
      </trkpt>
      <trkpt lat="40.791785" lon="-4.21333">
        <ele>1255.0</ele>
        <time>2018-05-26T11:31:49.697Z</time>
      </trkpt>
      <trkpt lat="40.791785" lon="-4.21333">
        <ele>1255.0</ele>
        <time>2018-05-26T11:31:50.712Z</time>
      </trkpt>
      <trkpt lat="40.79188833" lon="-4.21336667">
        <ele>1255.0</ele>
        <time>2018-05-26T11:31:51.691Z</time>
      </trkpt>
      <trkpt lat="40.79188833" lon="-4.21336667">
        <ele>1255.0</ele>
        <time>2018-05-26T11:31:52.676Z</time>
      </trkpt>
      <trkpt lat="40.791995" lon="-4.21340833">
        <ele>1255.0</ele>
        <time>2018-05-26T11:31:53.687Z</time>
      </trkpt>
      <trkpt lat="40.791995" lon="-4.21340833">
        <ele>1255.0</ele>
        <time>2018-05-26T11:31:54.713Z</time>
      </trkpt>
      <trkpt lat="40.79210833" lon="-4.21346167">
        <ele>1253.0</ele>
        <time>2018-05-26T11:31:55.684Z</time>
      </trkpt>
      <trkpt lat="40.79210833" lon="-4.21346167">
        <ele>1253.0</ele>
        <time>2018-05-26T11:31:56.712Z</time>
      </trkpt>
      <trkpt lat="40.79222833" lon="-4.21349167">
        <ele>1252.0</ele>
        <time>2018-05-26T11:31:57.695Z</time>
      </trkpt>
      <trkpt lat="40.79222833" lon="-4.21349167">
        <ele>1252.0</ele>
        <time>2018-05-26T11:31:58.713Z</time>
      </trkpt>
      <trkpt lat="40.79234667" lon="-4.2135">
        <ele>1253.0</ele>
        <time>2018-05-26T11:31:59.689Z</time>
      </trkpt>
      <trkpt lat="40.79234667" lon="-4.2135">
        <ele>1253.0</ele>
        <time>2018-05-26T11:32:00.712Z</time>
      </trkpt>
      <trkpt lat="40.79246" lon="-4.21352833">
        <ele>1252.0</ele>
        <time>2018-05-26T11:32:01.688Z</time>
      </trkpt>
      <trkpt lat="40.79246" lon="-4.21352833">
        <ele>1252.0</ele>
        <time>2018-05-26T11:32:02.712Z</time>
      </trkpt>
      <trkpt lat="40.79258667" lon="-4.21354833">
        <ele>1252.0</ele>
        <time>2018-05-26T11:32:03.686Z</time>
      </trkpt>
      <trkpt lat="40.79258667" lon="-4.21354833">
        <ele>1252.0</ele>
        <time>2018-05-26T11:32:04.712Z</time>
      </trkpt>
      <trkpt lat="40.79272" lon="-4.21356667">
        <ele>1252.0</ele>
        <time>2018-05-26T11:32:05.690Z</time>
      </trkpt>
      <trkpt lat="40.79279167" lon="-4.21357">
        <ele>1252.0</ele>
        <time>2018-05-26T11:32:06.705Z</time>
      </trkpt>
      <trkpt lat="40.79287" lon="-4.21357167">
        <ele>1251.0</ele>
        <time>2018-05-26T11:32:07.709Z</time>
      </trkpt>
      <trkpt lat="40.79287" lon="-4.21357167">
        <ele>1251.0</ele>
        <time>2018-05-26T11:32:08.677Z</time>
      </trkpt>
      <trkpt lat="40.79302667" lon="-4.213615">
        <ele>1250.0</ele>
        <time>2018-05-26T11:32:09.683Z</time>
      </trkpt>
      <trkpt lat="40.79302667" lon="-4.213615">
        <ele>1250.0</ele>
        <time>2018-05-26T11:32:10.712Z</time>
      </trkpt>
      <trkpt lat="40.79316833" lon="-4.21367333">
        <ele>1251.0</ele>
        <time>2018-05-26T11:32:11.690Z</time>
      </trkpt>
      <trkpt lat="40.79316833" lon="-4.21367333">
        <ele>1251.0</ele>
        <time>2018-05-26T11:32:12.712Z</time>
      </trkpt>
      <trkpt lat="40.79330833" lon="-4.21372667">
        <ele>1251.0</ele>
        <time>2018-05-26T11:32:13.686Z</time>
      </trkpt>
      <trkpt lat="40.79336833" lon="-4.21375">
        <ele>1251.0</ele>
        <time>2018-05-26T11:32:14.697Z</time>
      </trkpt>
      <trkpt lat="40.79336833" lon="-4.21375">
        <ele>1251.0</ele>
        <time>2018-05-26T11:32:15.683Z</time>
      </trkpt>
      <trkpt lat="40.79346167" lon="-4.213775">
        <ele>1252.0</ele>
        <time>2018-05-26T11:32:16.688Z</time>
      </trkpt>
      <trkpt lat="40.79346167" lon="-4.213775">
        <ele>1252.0</ele>
        <time>2018-05-26T11:32:17.712Z</time>
      </trkpt>
      <trkpt lat="40.79353" lon="-4.21377667">
        <ele>1252.0</ele>
        <time>2018-05-26T11:32:18.701Z</time>
      </trkpt>
      <trkpt lat="40.79355667" lon="-4.21377">
        <ele>1253.0</ele>
        <time>2018-05-26T11:32:19.706Z</time>
      </trkpt>
      <trkpt lat="40.79355667" lon="-4.21377">
        <ele>1253.0</ele>
        <time>2018-05-26T11:32:20.686Z</time>
      </trkpt>
      <trkpt lat="40.7936" lon="-4.21375833">
        <ele>1253.0</ele>
        <time>2018-05-26T11:32:21.687Z</time>
      </trkpt>
      <trkpt lat="40.7936" lon="-4.21375833">
        <ele>1253.0</ele>
        <time>2018-05-26T11:32:22.677Z</time>
      </trkpt>
      <trkpt lat="40.793645" lon="-4.21373833">
        <ele>1254.0</ele>
        <time>2018-05-26T11:32:23.688Z</time>
      </trkpt>
      <trkpt lat="40.793645" lon="-4.21373833">
        <ele>1254.0</ele>
        <time>2018-05-26T11:32:24.713Z</time>
      </trkpt>
      <trkpt lat="40.79369167" lon="-4.21370833">
        <ele>1254.0</ele>
        <time>2018-05-26T11:32:25.708Z</time>
      </trkpt>
      <trkpt lat="40.79371333" lon="-4.21369667">
        <ele>1254.0</ele>
        <time>2018-05-26T11:32:26.704Z</time>
      </trkpt>
      <trkpt lat="40.79373333" lon="-4.21368333">
        <ele>1255.0</ele>
        <time>2018-05-26T11:32:27.689Z</time>
      </trkpt>
      <trkpt lat="40.79373333" lon="-4.21368333">
        <ele>1255.0</ele>
        <time>2018-05-26T11:32:28.693Z</time>
      </trkpt>
      <trkpt lat="40.79377" lon="-4.21365">
        <ele>1255.0</ele>
        <time>2018-05-26T11:32:29.709Z</time>
      </trkpt>
      <trkpt lat="40.79377" lon="-4.21365">
        <ele>1255.0</ele>
        <time>2018-05-26T11:32:30.686Z</time>
      </trkpt>
      <trkpt lat="40.793805" lon="-4.21362833">
        <ele>1255.0</ele>
        <time>2018-05-26T11:32:31.684Z</time>
      </trkpt>
      <trkpt lat="40.793805" lon="-4.21362833">
        <ele>1255.0</ele>
        <time>2018-05-26T11:32:32.675Z</time>
      </trkpt>
      <trkpt lat="40.79383667" lon="-4.21360667">
        <ele>1256.0</ele>
        <time>2018-05-26T11:32:33.684Z</time>
      </trkpt>
      <trkpt lat="40.79383667" lon="-4.21360667">
        <ele>1256.0</ele>
        <time>2018-05-26T11:32:34.689Z</time>
      </trkpt>
      <trkpt lat="40.79387167" lon="-4.21359">
        <ele>1256.0</ele>
        <time>2018-05-26T11:32:35.694Z</time>
      </trkpt>
      <trkpt lat="40.79387167" lon="-4.21359">
        <ele>1256.0</ele>
        <time>2018-05-26T11:32:36.676Z</time>
      </trkpt>
      <trkpt lat="40.79390833" lon="-4.21357667">
        <ele>1257.0</ele>
        <time>2018-05-26T11:32:37.688Z</time>
      </trkpt>
      <trkpt lat="40.79393" lon="-4.21357">
        <ele>1257.0</ele>
        <time>2018-05-26T11:32:38.688Z</time>
      </trkpt>
      <trkpt lat="40.79394833" lon="-4.21355833">
        <ele>1256.0</ele>
        <time>2018-05-26T11:32:39.691Z</time>
      </trkpt>
      <trkpt lat="40.79394833" lon="-4.21355833">
        <ele>1256.0</ele>
        <time>2018-05-26T11:32:40.706Z</time>
      </trkpt>
      <trkpt lat="40.79398833" lon="-4.21354333">
        <ele>1257.0</ele>
        <time>2018-05-26T11:32:41.715Z</time>
      </trkpt>
      <trkpt lat="40.79398833" lon="-4.21354333">
        <ele>1257.0</ele>
        <time>2018-05-26T11:32:42.684Z</time>
      </trkpt>
      <trkpt lat="40.79402833" lon="-4.21352833">
        <ele>1258.0</ele>
        <time>2018-05-26T11:32:43.704Z</time>
      </trkpt>
      <trkpt lat="40.79402833" lon="-4.21352833">
        <ele>1258.0</ele>
        <time>2018-05-26T11:32:44.691Z</time>
      </trkpt>
      <trkpt lat="40.79406667" lon="-4.21353167">
        <ele>1259.0</ele>
        <time>2018-05-26T11:32:45.712Z</time>
      </trkpt>
      <trkpt lat="40.79408333" lon="-4.21353667">
        <ele>1260.0</ele>
        <time>2018-05-26T11:32:46.686Z</time>
      </trkpt>
      <trkpt lat="40.79408333" lon="-4.21353667">
        <ele>1260.0</ele>
        <time>2018-05-26T11:32:47.712Z</time>
      </trkpt>
      <trkpt lat="40.79411833" lon="-4.21353667">
        <ele>1260.0</ele>
        <time>2018-05-26T11:32:48.691Z</time>
      </trkpt>
      <trkpt lat="40.79411833" lon="-4.21353667">
        <ele>1260.0</ele>
        <time>2018-05-26T11:32:49.699Z</time>
      </trkpt>
      <trkpt lat="40.79414833" lon="-4.21353333">
        <ele>1261.0</ele>
        <time>2018-05-26T11:32:50.706Z</time>
      </trkpt>
      <trkpt lat="40.794165" lon="-4.21353167">
        <ele>1261.0</ele>
        <time>2018-05-26T11:32:51.706Z</time>
      </trkpt>
      <trkpt lat="40.794165" lon="-4.21353167">
        <ele>1261.0</ele>
        <time>2018-05-26T11:32:52.712Z</time>
      </trkpt>
      <trkpt lat="40.7942" lon="-4.213525">
        <ele>1262.0</ele>
        <time>2018-05-26T11:32:53.694Z</time>
      </trkpt>
      <trkpt lat="40.7942" lon="-4.213525">
        <ele>1262.0</ele>
        <time>2018-05-26T11:32:54.689Z</time>
      </trkpt>
      <trkpt lat="40.79423667" lon="-4.213515">
        <ele>1262.0</ele>
        <time>2018-05-26T11:32:55.699Z</time>
      </trkpt>
      <trkpt lat="40.79423667" lon="-4.213515">
        <ele>1262.0</ele>
        <time>2018-05-26T11:32:56.713Z</time>
      </trkpt>
      <trkpt lat="40.794275" lon="-4.21350167">
        <ele>1263.0</ele>
        <time>2018-05-26T11:32:57.688Z</time>
      </trkpt>
      <trkpt lat="40.794275" lon="-4.21350167">
        <ele>1263.0</ele>
        <time>2018-05-26T11:32:58.712Z</time>
      </trkpt>
      <trkpt lat="40.79431167" lon="-4.21348833">
        <ele>1263.0</ele>
        <time>2018-05-26T11:32:59.688Z</time>
      </trkpt>
      <trkpt lat="40.79431167" lon="-4.21348833">
        <ele>1263.0</ele>
        <time>2018-05-26T11:33:00.712Z</time>
      </trkpt>
      <trkpt lat="40.79434167" lon="-4.21347667">
        <ele>1264.0</ele>
        <time>2018-05-26T11:33:01.686Z</time>
      </trkpt>
      <trkpt lat="40.79434167" lon="-4.21347667">
        <ele>1264.0</ele>
        <time>2018-05-26T11:33:02.712Z</time>
      </trkpt>
      <trkpt lat="40.79437667" lon="-4.21346833">
        <ele>1264.0</ele>
        <time>2018-05-26T11:33:03.689Z</time>
      </trkpt>
      <trkpt lat="40.79439333" lon="-4.213465">
        <ele>1265.0</ele>
        <time>2018-05-26T11:33:04.688Z</time>
      </trkpt>
      <trkpt lat="40.79439333" lon="-4.213465">
        <ele>1265.0</ele>
        <time>2018-05-26T11:33:05.712Z</time>
      </trkpt>
      <trkpt lat="40.79443333" lon="-4.21346167">
        <ele>1266.0</ele>
        <time>2018-05-26T11:33:06.687Z</time>
      </trkpt>
      <trkpt lat="40.794455" lon="-4.21346333">
        <ele>1266.0</ele>
        <time>2018-05-26T11:33:07.687Z</time>
      </trkpt>
      <trkpt lat="40.794455" lon="-4.21346333">
        <ele>1266.0</ele>
        <time>2018-05-26T11:33:08.712Z</time>
      </trkpt>
      <trkpt lat="40.79450167" lon="-4.21347333">
        <ele>1267.0</ele>
        <time>2018-05-26T11:33:09.690Z</time>
      </trkpt>
      <trkpt lat="40.79450167" lon="-4.21347333">
        <ele>1267.0</ele>
        <time>2018-05-26T11:33:10.686Z</time>
      </trkpt>
      <trkpt lat="40.79455" lon="-4.213505">
        <ele>1266.0</ele>
        <time>2018-05-26T11:33:11.692Z</time>
      </trkpt>
      <trkpt lat="40.79455" lon="-4.213505">
        <ele>1266.0</ele>
        <time>2018-05-26T11:33:12.707Z</time>
      </trkpt>
      <trkpt lat="40.79460167" lon="-4.21355833">
        <ele>1266.0</ele>
        <time>2018-05-26T11:33:13.688Z</time>
      </trkpt>
      <trkpt lat="40.79460167" lon="-4.21355833">
        <ele>1266.0</ele>
        <time>2018-05-26T11:33:14.712Z</time>
      </trkpt>
      <trkpt lat="40.79466" lon="-4.21363333">
        <ele>1266.0</ele>
        <time>2018-05-26T11:33:15.688Z</time>
      </trkpt>
      <trkpt lat="40.79466" lon="-4.21363333">
        <ele>1266.0</ele>
        <time>2018-05-26T11:33:16.712Z</time>
      </trkpt>
      <trkpt lat="40.79472" lon="-4.213735">
        <ele>1265.0</ele>
        <time>2018-05-26T11:33:17.688Z</time>
      </trkpt>
      <trkpt lat="40.79472" lon="-4.213735">
        <ele>1265.0</ele>
        <time>2018-05-26T11:33:18.684Z</time>
      </trkpt>
      <trkpt lat="40.79477833" lon="-4.21386167">
        <ele>1264.0</ele>
        <time>2018-05-26T11:33:19.688Z</time>
      </trkpt>
      <trkpt lat="40.79477833" lon="-4.21386167">
        <ele>1264.0</ele>
        <time>2018-05-26T11:33:20.712Z</time>
      </trkpt>
      <trkpt lat="40.79482333" lon="-4.21403333">
        <ele>1262.0</ele>
        <time>2018-05-26T11:33:21.688Z</time>
      </trkpt>
      <trkpt lat="40.794845" lon="-4.21412333">
        <ele>1261.0</ele>
        <time>2018-05-26T11:33:22.686Z</time>
      </trkpt>
      <trkpt lat="40.79487" lon="-4.21421">
        <ele>1260.0</ele>
        <time>2018-05-26T11:33:23.694Z</time>
      </trkpt>
      <trkpt lat="40.79487" lon="-4.21421">
        <ele>1260.0</ele>
        <time>2018-05-26T11:33:24.676Z</time>
      </trkpt>
      <trkpt lat="40.79492" lon="-4.21435833">
        <ele>1258.0</ele>
        <time>2018-05-26T11:33:25.688Z</time>
      </trkpt>
      <trkpt lat="40.79492" lon="-4.21435833">
        <ele>1258.0</ele>
        <time>2018-05-26T11:33:26.714Z</time>
      </trkpt>
      <trkpt lat="40.79496333" lon="-4.21450167">
        <ele>1255.0</ele>
        <time>2018-05-26T11:33:27.697Z</time>
      </trkpt>
      <trkpt lat="40.79496333" lon="-4.21450167">
        <ele>1255.0</ele>
        <time>2018-05-26T11:33:28.687Z</time>
      </trkpt>
      <trkpt lat="40.79500333" lon="-4.21466333">
        <ele>1251.0</ele>
        <time>2018-05-26T11:33:29.688Z</time>
      </trkpt>
      <trkpt lat="40.79500333" lon="-4.21466333">
        <ele>1251.0</ele>
        <time>2018-05-26T11:33:30.712Z</time>
      </trkpt>
      <trkpt lat="40.79504" lon="-4.21483">
        <ele>1248.0</ele>
        <time>2018-05-26T11:33:31.688Z</time>
      </trkpt>
      <trkpt lat="40.79504" lon="-4.21483">
        <ele>1248.0</ele>
        <time>2018-05-26T11:33:32.685Z</time>
      </trkpt>
      <trkpt lat="40.79510833" lon="-4.21497667">
        <ele>1247.0</ele>
        <time>2018-05-26T11:33:33.693Z</time>
      </trkpt>
      <trkpt lat="40.79510833" lon="-4.21497667">
        <ele>1247.0</ele>
        <time>2018-05-26T11:33:34.713Z</time>
      </trkpt>
      <trkpt lat="40.79521667" lon="-4.21506833">
        <ele>1245.0</ele>
        <time>2018-05-26T11:33:35.688Z</time>
      </trkpt>
      <trkpt lat="40.79521667" lon="-4.21506833">
        <ele>1245.0</ele>
        <time>2018-05-26T11:33:36.706Z</time>
      </trkpt>
      <trkpt lat="40.79531667" lon="-4.21517667">
        <ele>1242.0</ele>
        <time>2018-05-26T11:33:37.714Z</time>
      </trkpt>
      <trkpt lat="40.79531667" lon="-4.21517667">
        <ele>1242.0</ele>
        <time>2018-05-26T11:33:38.707Z</time>
      </trkpt>
      <trkpt lat="40.79538167" lon="-4.21531167">
        <ele>1239.0</ele>
        <time>2018-05-26T11:33:39.676Z</time>
      </trkpt>
      <trkpt lat="40.79538167" lon="-4.21531167">
        <ele>1239.0</ele>
        <time>2018-05-26T11:33:40.675Z</time>
      </trkpt>
      <trkpt lat="40.79545" lon="-4.21547167">
        <ele>1236.0</ele>
        <time>2018-05-26T11:33:41.686Z</time>
      </trkpt>
      <trkpt lat="40.79545" lon="-4.21547167">
        <ele>1236.0</ele>
        <time>2018-05-26T11:33:42.686Z</time>
      </trkpt>
      <trkpt lat="40.79551667" lon="-4.21565">
        <ele>1232.0</ele>
        <time>2018-05-26T11:33:43.690Z</time>
      </trkpt>
      <trkpt lat="40.79551667" lon="-4.21565">
        <ele>1232.0</ele>
        <time>2018-05-26T11:33:44.714Z</time>
      </trkpt>
      <trkpt lat="40.79559" lon="-4.21577833">
        <ele>1230.0</ele>
        <time>2018-05-26T11:33:45.688Z</time>
      </trkpt>
      <trkpt lat="40.79559" lon="-4.21577833">
        <ele>1230.0</ele>
        <time>2018-05-26T11:33:46.675Z</time>
      </trkpt>
      <trkpt lat="40.79569333" lon="-4.21583333">
        <ele>1228.0</ele>
        <time>2018-05-26T11:33:47.683Z</time>
      </trkpt>
      <trkpt lat="40.79574833" lon="-4.215825">
        <ele>1228.0</ele>
        <time>2018-05-26T11:33:48.698Z</time>
      </trkpt>
      <trkpt lat="40.79580167" lon="-4.21579667">
        <ele>1228.0</ele>
        <time>2018-05-26T11:33:49.690Z</time>
      </trkpt>
      <trkpt lat="40.79580167" lon="-4.21579667">
        <ele>1228.0</ele>
        <time>2018-05-26T11:33:50.689Z</time>
      </trkpt>
      <trkpt lat="40.795905" lon="-4.21572833">
        <ele>1228.0</ele>
        <time>2018-05-26T11:33:51.686Z</time>
      </trkpt>
      <trkpt lat="40.795905" lon="-4.21572833">
        <ele>1228.0</ele>
        <time>2018-05-26T11:33:52.680Z</time>
      </trkpt>
      <trkpt lat="40.796015" lon="-4.21566833">
        <ele>1228.0</ele>
        <time>2018-05-26T11:33:53.698Z</time>
      </trkpt>
      <trkpt lat="40.796015" lon="-4.21566833">
        <ele>1228.0</ele>
        <time>2018-05-26T11:33:54.687Z</time>
      </trkpt>
      <trkpt lat="40.79613" lon="-4.215615">
        <ele>1227.0</ele>
        <time>2018-05-26T11:33:55.688Z</time>
      </trkpt>
      <trkpt lat="40.79613" lon="-4.215615">
        <ele>1227.0</ele>
        <time>2018-05-26T11:33:56.684Z</time>
      </trkpt>
      <trkpt lat="40.796245" lon="-4.21555167">
        <ele>1227.0</ele>
        <time>2018-05-26T11:33:57.683Z</time>
      </trkpt>
      <trkpt lat="40.796245" lon="-4.21555167">
        <ele>1227.0</ele>
        <time>2018-05-26T11:33:58.678Z</time>
      </trkpt>
      <trkpt lat="40.79635667" lon="-4.215485">
        <ele>1227.0</ele>
        <time>2018-05-26T11:33:59.690Z</time>
      </trkpt>
      <trkpt lat="40.79635667" lon="-4.215485">
        <ele>1227.0</ele>
        <time>2018-05-26T11:34:00.676Z</time>
      </trkpt>
      <trkpt lat="40.79646833" lon="-4.21540667">
        <ele>1227.0</ele>
        <time>2018-05-26T11:34:01.686Z</time>
      </trkpt>
      <trkpt lat="40.79646833" lon="-4.21540667">
        <ele>1227.0</ele>
        <time>2018-05-26T11:34:02.714Z</time>
      </trkpt>
      <trkpt lat="40.79658167" lon="-4.21532333">
        <ele>1227.0</ele>
        <time>2018-05-26T11:34:03.689Z</time>
      </trkpt>
      <trkpt lat="40.79658167" lon="-4.21532333">
        <ele>1227.0</ele>
        <time>2018-05-26T11:34:04.713Z</time>
      </trkpt>
      <trkpt lat="40.79668667" lon="-4.21522">
        <ele>1226.0</ele>
        <time>2018-05-26T11:34:05.690Z</time>
      </trkpt>
      <trkpt lat="40.79668667" lon="-4.21522">
        <ele>1226.0</ele>
        <time>2018-05-26T11:34:06.710Z</time>
      </trkpt>
      <trkpt lat="40.79678333" lon="-4.21510167">
        <ele>1226.0</ele>
        <time>2018-05-26T11:34:07.690Z</time>
      </trkpt>
      <trkpt lat="40.79678333" lon="-4.21510167">
        <ele>1226.0</ele>
        <time>2018-05-26T11:34:08.679Z</time>
      </trkpt>
      <trkpt lat="40.79688333" lon="-4.21497667">
        <ele>1225.0</ele>
        <time>2018-05-26T11:34:09.700Z</time>
      </trkpt>
      <trkpt lat="40.79688333" lon="-4.21497667">
        <ele>1225.0</ele>
        <time>2018-05-26T11:34:10.712Z</time>
      </trkpt>
      <trkpt lat="40.796985" lon="-4.21484333">
        <ele>1224.0</ele>
        <time>2018-05-26T11:34:11.686Z</time>
      </trkpt>
      <trkpt lat="40.797035" lon="-4.21477167">
        <ele>1224.0</ele>
        <time>2018-05-26T11:34:12.688Z</time>
      </trkpt>
      <trkpt lat="40.797035" lon="-4.21477167">
        <ele>1224.0</ele>
        <time>2018-05-26T11:34:13.687Z</time>
      </trkpt>
      <trkpt lat="40.79713333" lon="-4.21462">
        <ele>1223.0</ele>
        <time>2018-05-26T11:34:14.689Z</time>
      </trkpt>
      <trkpt lat="40.79718" lon="-4.214535">
        <ele>1222.0</ele>
        <time>2018-05-26T11:34:15.689Z</time>
      </trkpt>
      <trkpt lat="40.79718" lon="-4.214535">
        <ele>1222.0</ele>
        <time>2018-05-26T11:34:16.683Z</time>
      </trkpt>
      <trkpt lat="40.79726833" lon="-4.214345">
        <ele>1221.0</ele>
        <time>2018-05-26T11:34:17.683Z</time>
      </trkpt>
      <trkpt lat="40.79726833" lon="-4.214345">
        <ele>1221.0</ele>
        <time>2018-05-26T11:34:18.694Z</time>
      </trkpt>
      <trkpt lat="40.79735" lon="-4.21413833">
        <ele>1219.0</ele>
        <time>2018-05-26T11:34:19.690Z</time>
      </trkpt>
      <trkpt lat="40.79735" lon="-4.21413833">
        <ele>1219.0</ele>
        <time>2018-05-26T11:34:20.684Z</time>
      </trkpt>
      <trkpt lat="40.79743167" lon="-4.213935">
        <ele>1218.0</ele>
        <time>2018-05-26T11:34:21.691Z</time>
      </trkpt>
      <trkpt lat="40.79743167" lon="-4.213935">
        <ele>1218.0</ele>
        <time>2018-05-26T11:34:22.677Z</time>
      </trkpt>
      <trkpt lat="40.79751167" lon="-4.213745">
        <ele>1217.0</ele>
        <time>2018-05-26T11:34:23.702Z</time>
      </trkpt>
      <trkpt lat="40.79755167" lon="-4.21365">
        <ele>1217.0</ele>
        <time>2018-05-26T11:34:24.684Z</time>
      </trkpt>
      <trkpt lat="40.79755167" lon="-4.21365">
        <ele>1217.0</ele>
        <time>2018-05-26T11:34:25.712Z</time>
      </trkpt>
      <trkpt lat="40.79763833" lon="-4.21346167">
        <ele>1215.0</ele>
        <time>2018-05-26T11:34:26.713Z</time>
      </trkpt>
      <trkpt lat="40.797685" lon="-4.21336667">
        <ele>1214.0</ele>
        <time>2018-05-26T11:34:27.703Z</time>
      </trkpt>
      <trkpt lat="40.797685" lon="-4.21336667">
        <ele>1214.0</ele>
        <time>2018-05-26T11:34:28.713Z</time>
      </trkpt>
      <trkpt lat="40.79777833" lon="-4.21317">
        <ele>1213.0</ele>
        <time>2018-05-26T11:34:29.688Z</time>
      </trkpt>
      <trkpt lat="40.79777833" lon="-4.21317">
        <ele>1213.0</ele>
        <time>2018-05-26T11:34:30.682Z</time>
      </trkpt>
      <trkpt lat="40.79787333" lon="-4.21296167">
        <ele>1211.0</ele>
        <time>2018-05-26T11:34:31.688Z</time>
      </trkpt>
      <trkpt lat="40.79787333" lon="-4.21296167">
        <ele>1211.0</ele>
        <time>2018-05-26T11:34:32.686Z</time>
      </trkpt>
      <trkpt lat="40.79797333" lon="-4.21274">
        <ele>1209.0</ele>
        <time>2018-05-26T11:34:33.707Z</time>
      </trkpt>
      <trkpt lat="40.79797333" lon="-4.21274">
        <ele>1209.0</ele>
        <time>2018-05-26T11:34:34.713Z</time>
      </trkpt>
      <trkpt lat="40.79808333" lon="-4.21250667">
        <ele>1206.0</ele>
        <time>2018-05-26T11:34:35.692Z</time>
      </trkpt>
      <trkpt lat="40.79808333" lon="-4.21250667">
        <ele>1206.0</ele>
        <time>2018-05-26T11:34:36.714Z</time>
      </trkpt>
      <trkpt lat="40.79821" lon="-4.21226">
        <ele>1204.0</ele>
        <time>2018-05-26T11:34:37.691Z</time>
      </trkpt>
      <trkpt lat="40.79821" lon="-4.21226">
        <ele>1204.0</ele>
        <time>2018-05-26T11:34:38.712Z</time>
      </trkpt>
      <trkpt lat="40.79831833" lon="-4.21201667">
        <ele>1203.0</ele>
        <time>2018-05-26T11:34:39.692Z</time>
      </trkpt>
      <trkpt lat="40.79831833" lon="-4.21201667">
        <ele>1203.0</ele>
        <time>2018-05-26T11:34:40.712Z</time>
      </trkpt>
      <trkpt lat="40.798435" lon="-4.21179167">
        <ele>1201.0</ele>
        <time>2018-05-26T11:34:41.692Z</time>
      </trkpt>
      <trkpt lat="40.798435" lon="-4.21179167">
        <ele>1201.0</ele>
        <time>2018-05-26T11:34:42.712Z</time>
      </trkpt>
      <trkpt lat="40.79854167" lon="-4.21155333">
        <ele>1199.0</ele>
        <time>2018-05-26T11:34:43.692Z</time>
      </trkpt>
      <trkpt lat="40.79854167" lon="-4.21155333">
        <ele>1199.0</ele>
        <time>2018-05-26T11:34:44.691Z</time>
      </trkpt>
      <trkpt lat="40.79863" lon="-4.211315">
        <ele>1198.0</ele>
        <time>2018-05-26T11:34:45.692Z</time>
      </trkpt>
      <trkpt lat="40.79866" lon="-4.21120167">
        <ele>1197.0</ele>
        <time>2018-05-26T11:34:46.700Z</time>
      </trkpt>
      <trkpt lat="40.79866" lon="-4.21120167">
        <ele>1197.0</ele>
        <time>2018-05-26T11:34:47.697Z</time>
      </trkpt>
      <trkpt lat="40.79870833" lon="-4.21098833">
        <ele>1196.0</ele>
        <time>2018-05-26T11:34:48.707Z</time>
      </trkpt>
      <trkpt lat="40.79874" lon="-4.21088833">
        <ele>1196.0</ele>
        <time>2018-05-26T11:34:49.678Z</time>
      </trkpt>
      <trkpt lat="40.79874" lon="-4.21088833">
        <ele>1196.0</ele>
        <time>2018-05-26T11:34:50.681Z</time>
      </trkpt>
      <trkpt lat="40.79881333" lon="-4.21069667">
        <ele>1196.0</ele>
        <time>2018-05-26T11:34:51.683Z</time>
      </trkpt>
      <trkpt lat="40.79881333" lon="-4.21069667">
        <ele>1196.0</ele>
        <time>2018-05-26T11:34:52.675Z</time>
      </trkpt>
      <trkpt lat="40.798865" lon="-4.21049667">
        <ele>1196.0</ele>
        <time>2018-05-26T11:34:53.688Z</time>
      </trkpt>
      <trkpt lat="40.798865" lon="-4.21049667">
        <ele>1196.0</ele>
        <time>2018-05-26T11:34:54.713Z</time>
      </trkpt>
      <trkpt lat="40.79888" lon="-4.21031">
        <ele>1196.0</ele>
        <time>2018-05-26T11:34:55.686Z</time>
      </trkpt>
      <trkpt lat="40.79888" lon="-4.21031">
        <ele>1196.0</ele>
        <time>2018-05-26T11:34:56.686Z</time>
      </trkpt>
      <trkpt lat="40.79890833" lon="-4.21014833">
        <ele>1196.0</ele>
        <time>2018-05-26T11:34:57.688Z</time>
      </trkpt>
      <trkpt lat="40.79893" lon="-4.21008667">
        <ele>1197.0</ele>
        <time>2018-05-26T11:34:58.676Z</time>
      </trkpt>
      <trkpt lat="40.79893" lon="-4.21008667">
        <ele>1197.0</ele>
        <time>2018-05-26T11:34:59.701Z</time>
      </trkpt>
      <trkpt lat="40.79898833" lon="-4.20998667">
        <ele>1196.0</ele>
        <time>2018-05-26T11:35:00.710Z</time>
      </trkpt>
      <trkpt lat="40.79898833" lon="-4.20998667">
        <ele>1196.0</ele>
        <time>2018-05-26T11:35:01.675Z</time>
      </trkpt>
      <trkpt lat="40.79910333" lon="-4.20993667">
        <ele>1197.0</ele>
        <time>2018-05-26T11:35:02.713Z</time>
      </trkpt>
      <trkpt lat="40.79918" lon="-4.20992333">
        <ele>1197.0</ele>
        <time>2018-05-26T11:35:03.703Z</time>
      </trkpt>
      <trkpt lat="40.79925667" lon="-4.20990667">
        <ele>1197.0</ele>
        <time>2018-05-26T11:35:04.686Z</time>
      </trkpt>
      <trkpt lat="40.79925667" lon="-4.20990667">
        <ele>1197.0</ele>
        <time>2018-05-26T11:35:05.712Z</time>
      </trkpt>
      <trkpt lat="40.79940667" lon="-4.20985667">
        <ele>1196.0</ele>
        <time>2018-05-26T11:35:06.682Z</time>
      </trkpt>
      <trkpt lat="40.79940667" lon="-4.20985667">
        <ele>1196.0</ele>
        <time>2018-05-26T11:35:07.686Z</time>
      </trkpt>
      <trkpt lat="40.79955833" lon="-4.20978167">
        <ele>1195.0</ele>
        <time>2018-05-26T11:35:08.703Z</time>
      </trkpt>
      <trkpt lat="40.79963833" lon="-4.20974">
        <ele>1195.0</ele>
        <time>2018-05-26T11:35:09.696Z</time>
      </trkpt>
      <trkpt lat="40.79963833" lon="-4.20974">
        <ele>1195.0</ele>
        <time>2018-05-26T11:35:10.712Z</time>
      </trkpt>
      <trkpt lat="40.79981" lon="-4.20965">
        <ele>1194.0</ele>
        <time>2018-05-26T11:35:11.690Z</time>
      </trkpt>
      <trkpt lat="40.79981" lon="-4.20965">
        <ele>1194.0</ele>
        <time>2018-05-26T11:35:12.678Z</time>
      </trkpt>
      <trkpt lat="40.79996" lon="-4.20950667">
        <ele>1193.0</ele>
        <time>2018-05-26T11:35:13.691Z</time>
      </trkpt>
      <trkpt lat="40.79996" lon="-4.20950667">
        <ele>1193.0</ele>
        <time>2018-05-26T11:35:14.692Z</time>
      </trkpt>
      <trkpt lat="40.80007833" lon="-4.209335">
        <ele>1193.0</ele>
        <time>2018-05-26T11:35:15.705Z</time>
      </trkpt>
      <trkpt lat="40.80007833" lon="-4.209335">
        <ele>1193.0</ele>
        <time>2018-05-26T11:35:16.676Z</time>
      </trkpt>
      <trkpt lat="40.80019" lon="-4.20917667">
        <ele>1194.0</ele>
        <time>2018-05-26T11:35:17.691Z</time>
      </trkpt>
      <trkpt lat="40.80019" lon="-4.20917667">
        <ele>1194.0</ele>
        <time>2018-05-26T11:35:18.675Z</time>
      </trkpt>
      <trkpt lat="40.80029167" lon="-4.20904">
        <ele>1195.0</ele>
        <time>2018-05-26T11:35:19.689Z</time>
      </trkpt>
      <trkpt lat="40.80029167" lon="-4.20904">
        <ele>1195.0</ele>
        <time>2018-05-26T11:35:20.712Z</time>
      </trkpt>
      <trkpt lat="40.800385" lon="-4.208915">
        <ele>1196.0</ele>
        <time>2018-05-26T11:35:21.690Z</time>
      </trkpt>
      <trkpt lat="40.80042667" lon="-4.20885333">
        <ele>1196.0</ele>
        <time>2018-05-26T11:35:22.712Z</time>
      </trkpt>
      <trkpt lat="40.80042667" lon="-4.20885333">
        <ele>1196.0</ele>
        <time>2018-05-26T11:35:23.692Z</time>
      </trkpt>
      <trkpt lat="40.80050333" lon="-4.20872167">
        <ele>1195.0</ele>
        <time>2018-05-26T11:35:24.713Z</time>
      </trkpt>
      <trkpt lat="40.80054" lon="-4.20864833">
        <ele>1195.0</ele>
        <time>2018-05-26T11:35:25.704Z</time>
      </trkpt>
      <trkpt lat="40.80054" lon="-4.20864833">
        <ele>1195.0</ele>
        <time>2018-05-26T11:35:26.713Z</time>
      </trkpt>
      <trkpt lat="40.80061167" lon="-4.20851">
        <ele>1196.0</ele>
        <time>2018-05-26T11:35:27.681Z</time>
      </trkpt>
      <trkpt lat="40.80064333" lon="-4.20844667">
        <ele>1196.0</ele>
        <time>2018-05-26T11:35:28.714Z</time>
      </trkpt>
      <trkpt lat="40.80064333" lon="-4.20844667">
        <ele>1196.0</ele>
        <time>2018-05-26T11:35:29.713Z</time>
      </trkpt>
      <trkpt lat="40.80070333" lon="-4.20832667">
        <ele>1197.0</ele>
        <time>2018-05-26T11:35:30.690Z</time>
      </trkpt>
      <trkpt lat="40.80070333" lon="-4.20832667">
        <ele>1197.0</ele>
        <time>2018-05-26T11:35:31.686Z</time>
      </trkpt>
      <trkpt lat="40.800765" lon="-4.20822167">
        <ele>1197.0</ele>
        <time>2018-05-26T11:35:32.699Z</time>
      </trkpt>
      <trkpt lat="40.800765" lon="-4.20822167">
        <ele>1197.0</ele>
        <time>2018-05-26T11:35:33.682Z</time>
      </trkpt>
      <trkpt lat="40.800835" lon="-4.208125">
        <ele>1198.0</ele>
        <time>2018-05-26T11:35:34.691Z</time>
      </trkpt>
      <trkpt lat="40.800835" lon="-4.208125">
        <ele>1198.0</ele>
        <time>2018-05-26T11:35:35.713Z</time>
      </trkpt>
      <trkpt lat="40.80092333" lon="-4.20804833">
        <ele>1198.0</ele>
        <time>2018-05-26T11:35:36.692Z</time>
      </trkpt>
      <trkpt lat="40.80092333" lon="-4.20804833">
        <ele>1198.0</ele>
        <time>2018-05-26T11:35:37.689Z</time>
      </trkpt>
      <trkpt lat="40.801015" lon="-4.20797">
        <ele>1198.0</ele>
        <time>2018-05-26T11:35:38.691Z</time>
      </trkpt>
      <trkpt lat="40.80105167" lon="-4.207925">
        <ele>1198.0</ele>
        <time>2018-05-26T11:35:39.691Z</time>
      </trkpt>
      <trkpt lat="40.80105167" lon="-4.207925">
        <ele>1198.0</ele>
        <time>2018-05-26T11:35:40.712Z</time>
      </trkpt>
      <trkpt lat="40.801105" lon="-4.20782833">
        <ele>1199.0</ele>
        <time>2018-05-26T11:35:41.691Z</time>
      </trkpt>
      <trkpt lat="40.801105" lon="-4.20782833">
        <ele>1199.0</ele>
        <time>2018-05-26T11:35:42.712Z</time>
      </trkpt>
      <trkpt lat="40.80114667" lon="-4.20773667">
        <ele>1200.0</ele>
        <time>2018-05-26T11:35:43.691Z</time>
      </trkpt>
      <trkpt lat="40.801165" lon="-4.207695">
        <ele>1200.0</ele>
        <time>2018-05-26T11:35:44.703Z</time>
      </trkpt>
      <trkpt lat="40.801165" lon="-4.207695">
        <ele>1200.0</ele>
        <time>2018-05-26T11:35:45.675Z</time>
      </trkpt>
      <trkpt lat="40.801205" lon="-4.20762167">
        <ele>1201.0</ele>
        <time>2018-05-26T11:35:46.682Z</time>
      </trkpt>
      <trkpt lat="40.801205" lon="-4.20762167">
        <ele>1201.0</ele>
        <time>2018-05-26T11:35:47.712Z</time>
      </trkpt>
      <trkpt lat="40.80124667" lon="-4.20755">
        <ele>1202.0</ele>
        <time>2018-05-26T11:35:48.692Z</time>
      </trkpt>
      <trkpt lat="40.80124667" lon="-4.20755">
        <ele>1202.0</ele>
        <time>2018-05-26T11:35:49.713Z</time>
      </trkpt>
      <trkpt lat="40.80128667" lon="-4.20747833">
        <ele>1203.0</ele>
        <time>2018-05-26T11:35:50.689Z</time>
      </trkpt>
      <trkpt lat="40.80130833" lon="-4.207445">
        <ele>1203.0</ele>
        <time>2018-05-26T11:35:51.689Z</time>
      </trkpt>
      <trkpt lat="40.80130833" lon="-4.207445">
        <ele>1203.0</ele>
        <time>2018-05-26T11:35:52.712Z</time>
      </trkpt>
      <trkpt lat="40.80135667" lon="-4.20737333">
        <ele>1203.0</ele>
        <time>2018-05-26T11:35:53.683Z</time>
      </trkpt>
      <trkpt lat="40.80135667" lon="-4.20737333">
        <ele>1203.0</ele>
        <time>2018-05-26T11:35:54.676Z</time>
      </trkpt>
      <trkpt lat="40.80140667" lon="-4.20729833">
        <ele>1203.0</ele>
        <time>2018-05-26T11:35:55.693Z</time>
      </trkpt>
      <trkpt lat="40.80140667" lon="-4.20729833">
        <ele>1203.0</ele>
        <time>2018-05-26T11:35:56.712Z</time>
      </trkpt>
      <trkpt lat="40.801455" lon="-4.207225">
        <ele>1204.0</ele>
        <time>2018-05-26T11:35:57.687Z</time>
      </trkpt>
      <trkpt lat="40.801455" lon="-4.207225">
        <ele>1204.0</ele>
        <time>2018-05-26T11:35:58.684Z</time>
      </trkpt>
      <trkpt lat="40.80150167" lon="-4.20714333">
        <ele>1204.0</ele>
        <time>2018-05-26T11:35:59.690Z</time>
      </trkpt>
      <trkpt lat="40.80150167" lon="-4.20714333">
        <ele>1204.0</ele>
        <time>2018-05-26T11:36:00.696Z</time>
      </trkpt>
      <trkpt lat="40.80154667" lon="-4.20706">
        <ele>1204.0</ele>
        <time>2018-05-26T11:36:01.676Z</time>
      </trkpt>
      <trkpt lat="40.80154667" lon="-4.20706">
        <ele>1204.0</ele>
        <time>2018-05-26T11:36:02.713Z</time>
      </trkpt>
      <trkpt lat="40.80159167" lon="-4.206975">
        <ele>1204.0</ele>
        <time>2018-05-26T11:36:03.691Z</time>
      </trkpt>
      <trkpt lat="40.80159167" lon="-4.206975">
        <ele>1204.0</ele>
        <time>2018-05-26T11:36:04.676Z</time>
      </trkpt>
      <trkpt lat="40.801635" lon="-4.20689">
        <ele>1205.0</ele>
        <time>2018-05-26T11:36:05.688Z</time>
      </trkpt>
      <trkpt lat="40.801635" lon="-4.20689">
        <ele>1205.0</ele>
        <time>2018-05-26T11:36:06.692Z</time>
      </trkpt>
      <trkpt lat="40.801675" lon="-4.20680333">
        <ele>1205.0</ele>
        <time>2018-05-26T11:36:07.698Z</time>
      </trkpt>
      <trkpt lat="40.801675" lon="-4.20680333">
        <ele>1205.0</ele>
        <time>2018-05-26T11:36:08.697Z</time>
      </trkpt>
      <trkpt lat="40.801715" lon="-4.20672">
        <ele>1205.0</ele>
        <time>2018-05-26T11:36:09.705Z</time>
      </trkpt>
      <trkpt lat="40.801715" lon="-4.20672">
        <ele>1205.0</ele>
        <time>2018-05-26T11:36:10.677Z</time>
      </trkpt>
      <trkpt lat="40.80177" lon="-4.20664333">
        <ele>1205.0</ele>
        <time>2018-05-26T11:36:11.685Z</time>
      </trkpt>
      <trkpt lat="40.80177" lon="-4.20664333">
        <ele>1205.0</ele>
        <time>2018-05-26T11:36:12.694Z</time>
      </trkpt>
      <trkpt lat="40.80183667" lon="-4.20657167">
        <ele>1205.0</ele>
        <time>2018-05-26T11:36:13.682Z</time>
      </trkpt>
      <trkpt lat="40.80183667" lon="-4.20657167">
        <ele>1205.0</ele>
        <time>2018-05-26T11:36:14.684Z</time>
      </trkpt>
      <trkpt lat="40.801915" lon="-4.20650333">
        <ele>1205.0</ele>
        <time>2018-05-26T11:36:15.688Z</time>
      </trkpt>
      <trkpt lat="40.801915" lon="-4.20650333">
        <ele>1205.0</ele>
        <time>2018-05-26T11:36:16.710Z</time>
      </trkpt>
      <trkpt lat="40.80198833" lon="-4.20642667">
        <ele>1205.0</ele>
        <time>2018-05-26T11:36:17.677Z</time>
      </trkpt>
      <trkpt lat="40.80198833" lon="-4.20642667">
        <ele>1205.0</ele>
        <time>2018-05-26T11:36:18.685Z</time>
      </trkpt>
      <trkpt lat="40.802055" lon="-4.20633">
        <ele>1206.0</ele>
        <time>2018-05-26T11:36:19.693Z</time>
      </trkpt>
      <trkpt lat="40.802055" lon="-4.20633">
        <ele>1206.0</ele>
        <time>2018-05-26T11:36:20.676Z</time>
      </trkpt>
      <trkpt lat="40.80212167" lon="-4.20623">
        <ele>1205.0</ele>
        <time>2018-05-26T11:36:21.691Z</time>
      </trkpt>
      <trkpt lat="40.80212167" lon="-4.20623">
        <ele>1205.0</ele>
        <time>2018-05-26T11:36:22.685Z</time>
      </trkpt>
      <trkpt lat="40.80219667" lon="-4.20613833">
        <ele>1205.0</ele>
        <time>2018-05-26T11:36:23.691Z</time>
      </trkpt>
      <trkpt lat="40.80219667" lon="-4.20613833">
        <ele>1205.0</ele>
        <time>2018-05-26T11:36:24.676Z</time>
      </trkpt>
      <trkpt lat="40.80227667" lon="-4.206055">
        <ele>1205.0</ele>
        <time>2018-05-26T11:36:25.692Z</time>
      </trkpt>
      <trkpt lat="40.80227667" lon="-4.206055">
        <ele>1205.0</ele>
        <time>2018-05-26T11:36:26.676Z</time>
      </trkpt>
      <trkpt lat="40.80236667" lon="-4.20597333">
        <ele>1205.0</ele>
        <time>2018-05-26T11:36:27.692Z</time>
      </trkpt>
      <trkpt lat="40.80236667" lon="-4.20597333">
        <ele>1205.0</ele>
        <time>2018-05-26T11:36:28.704Z</time>
      </trkpt>
      <trkpt lat="40.80246167" lon="-4.205905">
        <ele>1205.0</ele>
        <time>2018-05-26T11:36:29.676Z</time>
      </trkpt>
      <trkpt lat="40.80251167" lon="-4.20587167">
        <ele>1205.0</ele>
        <time>2018-05-26T11:36:30.695Z</time>
      </trkpt>
      <trkpt lat="40.802565" lon="-4.20584">
        <ele>1206.0</ele>
        <time>2018-05-26T11:36:31.690Z</time>
      </trkpt>
      <trkpt lat="40.802565" lon="-4.20584">
        <ele>1206.0</ele>
        <time>2018-05-26T11:36:32.706Z</time>
      </trkpt>
      <trkpt lat="40.80267" lon="-4.20578333">
        <ele>1205.0</ele>
        <time>2018-05-26T11:36:33.714Z</time>
      </trkpt>
      <trkpt lat="40.80267" lon="-4.20578333">
        <ele>1205.0</ele>
        <time>2018-05-26T11:36:34.680Z</time>
      </trkpt>
      <trkpt lat="40.80278" lon="-4.20572">
        <ele>1205.0</ele>
        <time>2018-05-26T11:36:35.689Z</time>
      </trkpt>
      <trkpt lat="40.80278" lon="-4.20572">
        <ele>1205.0</ele>
        <time>2018-05-26T11:36:36.690Z</time>
      </trkpt>
      <trkpt lat="40.802895" lon="-4.20566">
        <ele>1206.0</ele>
        <time>2018-05-26T11:36:37.689Z</time>
      </trkpt>
      <trkpt lat="40.802895" lon="-4.20566">
        <ele>1206.0</ele>
        <time>2018-05-26T11:36:38.676Z</time>
      </trkpt>
      <trkpt lat="40.80300833" lon="-4.20559833">
        <ele>1206.0</ele>
        <time>2018-05-26T11:36:39.713Z</time>
      </trkpt>
      <trkpt lat="40.80306333" lon="-4.205565">
        <ele>1206.0</ele>
        <time>2018-05-26T11:36:40.682Z</time>
      </trkpt>
      <trkpt lat="40.80306333" lon="-4.205565">
        <ele>1206.0</ele>
        <time>2018-05-26T11:36:41.692Z</time>
      </trkpt>
      <trkpt lat="40.80316833" lon="-4.20548833">
        <ele>1206.0</ele>
        <time>2018-05-26T11:36:42.703Z</time>
      </trkpt>
      <trkpt lat="40.80322" lon="-4.20545167">
        <ele>1206.0</ele>
        <time>2018-05-26T11:36:43.699Z</time>
      </trkpt>
      <trkpt lat="40.80322" lon="-4.20545167">
        <ele>1206.0</ele>
        <time>2018-05-26T11:36:44.713Z</time>
      </trkpt>
      <trkpt lat="40.803325" lon="-4.20539167">
        <ele>1206.0</ele>
        <time>2018-05-26T11:36:45.680Z</time>
      </trkpt>
      <trkpt lat="40.803325" lon="-4.20539167">
        <ele>1206.0</ele>
        <time>2018-05-26T11:36:46.712Z</time>
      </trkpt>
      <trkpt lat="40.80342" lon="-4.20531167">
        <ele>1206.0</ele>
        <time>2018-05-26T11:36:47.690Z</time>
      </trkpt>
      <trkpt lat="40.80342" lon="-4.20531167">
        <ele>1206.0</ele>
        <time>2018-05-26T11:36:48.711Z</time>
      </trkpt>
      <trkpt lat="40.80348333" lon="-4.2052">
        <ele>1206.0</ele>
        <time>2018-05-26T11:36:49.691Z</time>
      </trkpt>
      <trkpt lat="40.80348333" lon="-4.2052">
        <ele>1206.0</ele>
        <time>2018-05-26T11:36:50.675Z</time>
      </trkpt>
      <trkpt lat="40.803525" lon="-4.205085">
        <ele>1205.0</ele>
        <time>2018-05-26T11:36:51.689Z</time>
      </trkpt>
      <trkpt lat="40.803525" lon="-4.205085">
        <ele>1205.0</ele>
        <time>2018-05-26T11:36:52.714Z</time>
      </trkpt>
      <trkpt lat="40.80355333" lon="-4.20497">
        <ele>1205.0</ele>
        <time>2018-05-26T11:36:53.683Z</time>
      </trkpt>
      <trkpt lat="40.80356833" lon="-4.20491667">
        <ele>1205.0</ele>
        <time>2018-05-26T11:36:54.701Z</time>
      </trkpt>
      <trkpt lat="40.80358333" lon="-4.20487333">
        <ele>1205.0</ele>
        <time>2018-05-26T11:36:55.690Z</time>
      </trkpt>
      <trkpt lat="40.80358333" lon="-4.20487333">
        <ele>1205.0</ele>
        <time>2018-05-26T11:36:56.714Z</time>
      </trkpt>
      <trkpt lat="40.80360667" lon="-4.20480667">
        <ele>1205.0</ele>
        <time>2018-05-26T11:36:57.687Z</time>
      </trkpt>
      <trkpt lat="40.80360667" lon="-4.20480667">
        <ele>1205.0</ele>
        <time>2018-05-26T11:36:58.693Z</time>
      </trkpt>
      <trkpt lat="40.803615" lon="-4.20475333">
        <ele>1206.0</ele>
        <time>2018-05-26T11:36:59.714Z</time>
      </trkpt>
      <trkpt lat="40.803615" lon="-4.204745">
        <ele>1206.0</ele>
        <time>2018-05-26T11:37:00.689Z</time>
      </trkpt>
      <trkpt lat="40.803615" lon="-4.204745">
        <ele>1206.0</ele>
        <time>2018-05-26T11:37:01.709Z</time>
      </trkpt>
      <trkpt lat="40.80361833" lon="-4.20474833">
        <ele>1206.0</ele>
        <time>2018-05-26T11:37:02.677Z</time>
      </trkpt>
      <trkpt lat="40.80361833" lon="-4.20474833">
        <ele>1206.0</ele>
        <time>2018-05-26T11:37:03.679Z</time>
      </trkpt>
      <trkpt lat="40.80365167" lon="-4.20472167">
        <ele>1207.0</ele>
        <time>2018-05-26T11:37:04.680Z</time>
      </trkpt>
      <trkpt lat="40.80366167" lon="-4.204715">
        <ele>1207.0</ele>
        <time>2018-05-26T11:37:05.683Z</time>
      </trkpt>
      <trkpt lat="40.80366167" lon="-4.204715">
        <ele>1207.0</ele>
        <time>2018-05-26T11:37:06.711Z</time>
      </trkpt>
      <trkpt lat="40.80367167" lon="-4.20470333">
        <ele>1207.0</ele>
        <time>2018-05-26T11:37:07.675Z</time>
      </trkpt>
      <trkpt lat="40.80367333" lon="-4.2047">
        <ele>1207.0</ele>
        <time>2018-05-26T11:37:08.675Z</time>
      </trkpt>
      <trkpt lat="40.80367333" lon="-4.2047">
        <ele>1207.0</ele>
        <time>2018-05-26T11:37:09.708Z</time>
      </trkpt>
      <trkpt lat="40.80367" lon="-4.204705">
        <ele>1207.0</ele>
        <time>2018-05-26T11:37:10.685Z</time>
      </trkpt>
      <trkpt lat="40.80367" lon="-4.204705">
        <ele>1207.0</ele>
        <time>2018-05-26T11:37:11.695Z</time>
      </trkpt>
      <trkpt lat="40.80369167" lon="-4.20463333">
        <ele>1207.0</ele>
        <time>2018-05-26T11:37:12.688Z</time>
      </trkpt>
      <trkpt lat="40.80370833" lon="-4.20459833">
        <ele>1206.0</ele>
        <time>2018-05-26T11:37:13.682Z</time>
      </trkpt>
      <trkpt lat="40.80370833" lon="-4.20459833">
        <ele>1206.0</ele>
        <time>2018-05-26T11:37:14.685Z</time>
      </trkpt>
      <trkpt lat="40.80375" lon="-4.204515">
        <ele>1206.0</ele>
        <time>2018-05-26T11:37:15.692Z</time>
      </trkpt>
      <trkpt lat="40.80375" lon="-4.204515">
        <ele>1206.0</ele>
        <time>2018-05-26T11:37:16.675Z</time>
      </trkpt>
      <trkpt lat="40.803795" lon="-4.20441167">
        <ele>1205.0</ele>
        <time>2018-05-26T11:37:17.694Z</time>
      </trkpt>
      <trkpt lat="40.803795" lon="-4.20441167">
        <ele>1205.0</ele>
        <time>2018-05-26T11:37:18.689Z</time>
      </trkpt>
      <trkpt lat="40.80384833" lon="-4.20429833">
        <ele>1204.0</ele>
        <time>2018-05-26T11:37:19.685Z</time>
      </trkpt>
      <trkpt lat="40.80384833" lon="-4.20429833">
        <ele>1204.0</ele>
        <time>2018-05-26T11:37:20.695Z</time>
      </trkpt>
      <trkpt lat="40.80392667" lon="-4.20418833">
        <ele>1203.0</ele>
        <time>2018-05-26T11:37:21.685Z</time>
      </trkpt>
      <trkpt lat="40.803965" lon="-4.20413167">
        <ele>1203.0</ele>
        <time>2018-05-26T11:37:22.692Z</time>
      </trkpt>
      <trkpt lat="40.80399167" lon="-4.204075">
        <ele>1203.0</ele>
        <time>2018-05-26T11:37:23.681Z</time>
      </trkpt>
      <trkpt lat="40.80399167" lon="-4.204075">
        <ele>1203.0</ele>
        <time>2018-05-26T11:37:24.676Z</time>
      </trkpt>
      <trkpt lat="40.80403333" lon="-4.20396333">
        <ele>1203.0</ele>
        <time>2018-05-26T11:37:25.688Z</time>
      </trkpt>
      <trkpt lat="40.80403333" lon="-4.20396333">
        <ele>1203.0</ele>
        <time>2018-05-26T11:37:26.711Z</time>
      </trkpt>
      <trkpt lat="40.80407" lon="-4.20386167">
        <ele>1203.0</ele>
        <time>2018-05-26T11:37:27.680Z</time>
      </trkpt>
      <trkpt lat="40.80407" lon="-4.20386167">
        <ele>1203.0</ele>
        <time>2018-05-26T11:37:28.701Z</time>
      </trkpt>
      <trkpt lat="40.8041" lon="-4.20376667">
        <ele>1204.0</ele>
        <time>2018-05-26T11:37:29.707Z</time>
      </trkpt>
      <trkpt lat="40.8041" lon="-4.20376667">
        <ele>1204.0</ele>
        <time>2018-05-26T11:37:30.684Z</time>
      </trkpt>
      <trkpt lat="40.804125" lon="-4.20369333">
        <ele>1205.0</ele>
        <time>2018-05-26T11:37:31.692Z</time>
      </trkpt>
      <trkpt lat="40.804125" lon="-4.20369333">
        <ele>1205.0</ele>
        <time>2018-05-26T11:37:32.692Z</time>
      </trkpt>
      <trkpt lat="40.80415833" lon="-4.20362333">
        <ele>1206.0</ele>
        <time>2018-05-26T11:37:33.718Z</time>
      </trkpt>
      <trkpt lat="40.80415833" lon="-4.20362333">
        <ele>1206.0</ele>
        <time>2018-05-26T11:37:34.682Z</time>
      </trkpt>
      <trkpt lat="40.80420167" lon="-4.20354167">
        <ele>1206.0</ele>
        <time>2018-05-26T11:37:35.689Z</time>
      </trkpt>
      <trkpt lat="40.80420167" lon="-4.20354167">
        <ele>1206.0</ele>
        <time>2018-05-26T11:37:36.696Z</time>
      </trkpt>
      <trkpt lat="40.80425167" lon="-4.203455">
        <ele>1207.0</ele>
        <time>2018-05-26T11:37:37.708Z</time>
      </trkpt>
      <trkpt lat="40.80425167" lon="-4.203455">
        <ele>1207.0</ele>
        <time>2018-05-26T11:37:38.684Z</time>
      </trkpt>
      <trkpt lat="40.80429667" lon="-4.20336833">
        <ele>1207.0</ele>
        <time>2018-05-26T11:37:39.691Z</time>
      </trkpt>
      <trkpt lat="40.80431667" lon="-4.203325">
        <ele>1208.0</ele>
        <time>2018-05-26T11:37:40.681Z</time>
      </trkpt>
      <trkpt lat="40.80434" lon="-4.20328">
        <ele>1208.0</ele>
        <time>2018-05-26T11:37:41.697Z</time>
      </trkpt>
      <trkpt lat="40.80434" lon="-4.20328">
        <ele>1208.0</ele>
        <time>2018-05-26T11:37:42.683Z</time>
      </trkpt>
      <trkpt lat="40.804395" lon="-4.20319667">
        <ele>1208.0</ele>
        <time>2018-05-26T11:37:43.690Z</time>
      </trkpt>
      <trkpt lat="40.804395" lon="-4.20319667">
        <ele>1208.0</ele>
        <time>2018-05-26T11:37:44.706Z</time>
      </trkpt>
      <trkpt lat="40.80445167" lon="-4.20311167">
        <ele>1209.0</ele>
        <time>2018-05-26T11:37:45.696Z</time>
      </trkpt>
      <trkpt lat="40.80445167" lon="-4.20311167">
        <ele>1209.0</ele>
        <time>2018-05-26T11:37:46.701Z</time>
      </trkpt>
      <trkpt lat="40.8045" lon="-4.203025">
        <ele>1209.0</ele>
        <time>2018-05-26T11:37:47.709Z</time>
      </trkpt>
      <trkpt lat="40.8045" lon="-4.203025">
        <ele>1209.0</ele>
        <time>2018-05-26T11:37:48.680Z</time>
      </trkpt>
      <trkpt lat="40.80454167" lon="-4.20294333">
        <ele>1210.0</ele>
        <time>2018-05-26T11:37:49.687Z</time>
      </trkpt>
      <trkpt lat="40.80454167" lon="-4.20294333">
        <ele>1210.0</ele>
        <time>2018-05-26T11:37:50.703Z</time>
      </trkpt>
      <trkpt lat="40.80458167" lon="-4.20285667">
        <ele>1210.0</ele>
        <time>2018-05-26T11:37:51.711Z</time>
      </trkpt>
      <trkpt lat="40.80460167" lon="-4.20281333">
        <ele>1210.0</ele>
        <time>2018-05-26T11:37:52.685Z</time>
      </trkpt>
      <trkpt lat="40.80460167" lon="-4.20281333">
        <ele>1210.0</ele>
        <time>2018-05-26T11:37:53.682Z</time>
      </trkpt>
      <trkpt lat="40.80464667" lon="-4.20273">
        <ele>1211.0</ele>
        <time>2018-05-26T11:37:54.689Z</time>
      </trkpt>
      <trkpt lat="40.80467" lon="-4.20269">
        <ele>1211.0</ele>
        <time>2018-05-26T11:37:55.703Z</time>
      </trkpt>
      <trkpt lat="40.80467" lon="-4.20269">
        <ele>1211.0</ele>
        <time>2018-05-26T11:37:56.677Z</time>
      </trkpt>
      <trkpt lat="40.80472" lon="-4.20261667">
        <ele>1211.0</ele>
        <time>2018-05-26T11:37:57.685Z</time>
      </trkpt>
      <trkpt lat="40.804745" lon="-4.20258167">
        <ele>1211.0</ele>
        <time>2018-05-26T11:37:58.697Z</time>
      </trkpt>
      <trkpt lat="40.804745" lon="-4.20258167">
        <ele>1211.0</ele>
        <time>2018-05-26T11:37:59.681Z</time>
      </trkpt>
      <trkpt lat="40.80479833" lon="-4.20251167">
        <ele>1211.0</ele>
        <time>2018-05-26T11:38:00.690Z</time>
      </trkpt>
      <trkpt lat="40.804825" lon="-4.20247333">
        <ele>1211.0</ele>
        <time>2018-05-26T11:38:01.705Z</time>
      </trkpt>
      <trkpt lat="40.804825" lon="-4.20247333">
        <ele>1211.0</ele>
        <time>2018-05-26T11:38:02.675Z</time>
      </trkpt>
      <trkpt lat="40.804875" lon="-4.20239667">
        <ele>1211.0</ele>
        <time>2018-05-26T11:38:03.683Z</time>
      </trkpt>
      <trkpt lat="40.80489833" lon="-4.20235667">
        <ele>1211.0</ele>
        <time>2018-05-26T11:38:04.682Z</time>
      </trkpt>
      <trkpt lat="40.80489833" lon="-4.20235667">
        <ele>1211.0</ele>
        <time>2018-05-26T11:38:05.714Z</time>
      </trkpt>
      <trkpt lat="40.80494" lon="-4.202275">
        <ele>1212.0</ele>
        <time>2018-05-26T11:38:06.681Z</time>
      </trkpt>
      <trkpt lat="40.80496" lon="-4.20223333">
        <ele>1212.0</ele>
        <time>2018-05-26T11:38:07.683Z</time>
      </trkpt>
      <trkpt lat="40.80496" lon="-4.20223333">
        <ele>1212.0</ele>
        <time>2018-05-26T11:38:08.680Z</time>
      </trkpt>
      <trkpt lat="40.80499833" lon="-4.202155">
        <ele>1213.0</ele>
        <time>2018-05-26T11:38:09.687Z</time>
      </trkpt>
      <trkpt lat="40.80501667" lon="-4.20212">
        <ele>1213.0</ele>
        <time>2018-05-26T11:38:10.679Z</time>
      </trkpt>
      <trkpt lat="40.80501667" lon="-4.20212">
        <ele>1213.0</ele>
        <time>2018-05-26T11:38:11.683Z</time>
      </trkpt>
      <trkpt lat="40.80504833" lon="-4.20205167">
        <ele>1213.0</ele>
        <time>2018-05-26T11:38:12.691Z</time>
      </trkpt>
      <trkpt lat="40.805065" lon="-4.20202">
        <ele>1214.0</ele>
        <time>2018-05-26T11:38:13.710Z</time>
      </trkpt>
      <trkpt lat="40.80508167" lon="-4.20198667">
        <ele>1214.0</ele>
        <time>2018-05-26T11:38:14.708Z</time>
      </trkpt>
      <trkpt lat="40.80510167" lon="-4.20195333">
        <ele>1214.0</ele>
        <time>2018-05-26T11:38:15.701Z</time>
      </trkpt>
      <trkpt lat="40.80510167" lon="-4.20195333">
        <ele>1214.0</ele>
        <time>2018-05-26T11:38:16.675Z</time>
      </trkpt>
      <trkpt lat="40.805145" lon="-4.20188333">
        <ele>1214.0</ele>
        <time>2018-05-26T11:38:17.695Z</time>
      </trkpt>
      <trkpt lat="40.80516833" lon="-4.20184667">
        <ele>1214.0</ele>
        <time>2018-05-26T11:38:18.694Z</time>
      </trkpt>
      <trkpt lat="40.80519333" lon="-4.20181167">
        <ele>1214.0</ele>
        <time>2018-05-26T11:38:19.712Z</time>
      </trkpt>
      <trkpt lat="40.80519333" lon="-4.20181167">
        <ele>1214.0</ele>
        <time>2018-05-26T11:38:20.697Z</time>
      </trkpt>
      <trkpt lat="40.80524667" lon="-4.20174">
        <ele>1215.0</ele>
        <time>2018-05-26T11:38:21.707Z</time>
      </trkpt>
      <trkpt lat="40.805275" lon="-4.201705">
        <ele>1215.0</ele>
        <time>2018-05-26T11:38:22.713Z</time>
      </trkpt>
      <trkpt lat="40.80530333" lon="-4.20167167">
        <ele>1215.0</ele>
        <time>2018-05-26T11:38:23.713Z</time>
      </trkpt>
      <trkpt lat="40.80533" lon="-4.20163833">
        <ele>1215.0</ele>
        <time>2018-05-26T11:38:24.697Z</time>
      </trkpt>
      <trkpt lat="40.80533" lon="-4.20163833">
        <ele>1215.0</ele>
        <time>2018-05-26T11:38:25.692Z</time>
      </trkpt>
      <trkpt lat="40.80538833" lon="-4.20158167">
        <ele>1215.0</ele>
        <time>2018-05-26T11:38:26.698Z</time>
      </trkpt>
      <trkpt lat="40.80538833" lon="-4.20158167">
        <ele>1215.0</ele>
        <time>2018-05-26T11:38:27.677Z</time>
      </trkpt>
      <trkpt lat="40.805445" lon="-4.20152333">
        <ele>1215.0</ele>
        <time>2018-05-26T11:38:28.706Z</time>
      </trkpt>
      <trkpt lat="40.805445" lon="-4.20152333">
        <ele>1215.0</ele>
        <time>2018-05-26T11:38:29.675Z</time>
      </trkpt>
      <trkpt lat="40.80551333" lon="-4.201465">
        <ele>1215.0</ele>
        <time>2018-05-26T11:38:30.683Z</time>
      </trkpt>
      <trkpt lat="40.80555167" lon="-4.20143833">
        <ele>1215.0</ele>
        <time>2018-05-26T11:38:31.699Z</time>
      </trkpt>
      <trkpt lat="40.80555167" lon="-4.20143833">
        <ele>1215.0</ele>
        <time>2018-05-26T11:38:32.690Z</time>
      </trkpt>
      <trkpt lat="40.80562667" lon="-4.20139167">
        <ele>1215.0</ele>
        <time>2018-05-26T11:38:33.699Z</time>
      </trkpt>
      <trkpt lat="40.80566167" lon="-4.20137167">
        <ele>1215.0</ele>
        <time>2018-05-26T11:38:34.682Z</time>
      </trkpt>
      <trkpt lat="40.80566167" lon="-4.20137167">
        <ele>1215.0</ele>
        <time>2018-05-26T11:38:35.678Z</time>
      </trkpt>
      <trkpt lat="40.80572833" lon="-4.20133333">
        <ele>1215.0</ele>
        <time>2018-05-26T11:38:36.695Z</time>
      </trkpt>
      <trkpt lat="40.80572833" lon="-4.20133333">
        <ele>1215.0</ele>
        <time>2018-05-26T11:38:37.706Z</time>
      </trkpt>
      <trkpt lat="40.80579333" lon="-4.20129667">
        <ele>1216.0</ele>
        <time>2018-05-26T11:38:38.714Z</time>
      </trkpt>
      <trkpt lat="40.80579333" lon="-4.20129667">
        <ele>1216.0</ele>
        <time>2018-05-26T11:38:39.689Z</time>
      </trkpt>
      <trkpt lat="40.805855" lon="-4.20126333">
        <ele>1217.0</ele>
        <time>2018-05-26T11:38:40.696Z</time>
      </trkpt>
      <trkpt lat="40.80588333" lon="-4.201245">
        <ele>1217.0</ele>
        <time>2018-05-26T11:38:41.683Z</time>
      </trkpt>
      <trkpt lat="40.80588333" lon="-4.201245">
        <ele>1217.0</ele>
        <time>2018-05-26T11:38:42.700Z</time>
      </trkpt>
      <trkpt lat="40.80593833" lon="-4.20121333">
        <ele>1218.0</ele>
        <time>2018-05-26T11:38:43.710Z</time>
      </trkpt>
      <trkpt lat="40.80593833" lon="-4.20121333">
        <ele>1218.0</ele>
        <time>2018-05-26T11:38:44.689Z</time>
      </trkpt>
      <trkpt lat="40.80599333" lon="-4.20118333">
        <ele>1218.0</ele>
        <time>2018-05-26T11:38:45.693Z</time>
      </trkpt>
      <trkpt lat="40.80599333" lon="-4.20118333">
        <ele>1218.0</ele>
        <time>2018-05-26T11:38:46.683Z</time>
      </trkpt>
      <trkpt lat="40.80605167" lon="-4.20115833">
        <ele>1219.0</ele>
        <time>2018-05-26T11:38:47.690Z</time>
      </trkpt>
      <trkpt lat="40.80605167" lon="-4.20115833">
        <ele>1219.0</ele>
        <time>2018-05-26T11:38:48.675Z</time>
      </trkpt>
      <trkpt lat="40.80611167" lon="-4.20113167">
        <ele>1220.0</ele>
        <time>2018-05-26T11:38:49.696Z</time>
      </trkpt>
      <trkpt lat="40.80611167" lon="-4.20113167">
        <ele>1220.0</ele>
        <time>2018-05-26T11:38:50.705Z</time>
      </trkpt>
      <trkpt lat="40.80618167" lon="-4.201115">
        <ele>1220.0</ele>
        <time>2018-05-26T11:38:51.712Z</time>
      </trkpt>
      <trkpt lat="40.80621833" lon="-4.20111">
        <ele>1220.0</ele>
        <time>2018-05-26T11:38:52.681Z</time>
      </trkpt>
      <trkpt lat="40.80621833" lon="-4.20111">
        <ele>1220.0</ele>
        <time>2018-05-26T11:38:53.680Z</time>
      </trkpt>
      <trkpt lat="40.8063" lon="-4.20109667">
        <ele>1220.0</ele>
        <time>2018-05-26T11:38:54.684Z</time>
      </trkpt>
      <trkpt lat="40.806345" lon="-4.20109">
        <ele>1220.0</ele>
        <time>2018-05-26T11:38:55.700Z</time>
      </trkpt>
      <trkpt lat="40.806345" lon="-4.20109">
        <ele>1220.0</ele>
        <time>2018-05-26T11:38:56.706Z</time>
      </trkpt>
      <trkpt lat="40.80644167" lon="-4.20107833">
        <ele>1220.0</ele>
        <time>2018-05-26T11:38:57.690Z</time>
      </trkpt>
      <trkpt lat="40.80649167" lon="-4.20107167">
        <ele>1220.0</ele>
        <time>2018-05-26T11:38:58.712Z</time>
      </trkpt>
      <trkpt lat="40.80649167" lon="-4.20107167">
        <ele>1220.0</ele>
        <time>2018-05-26T11:38:59.679Z</time>
      </trkpt>
      <trkpt lat="40.8066" lon="-4.201065">
        <ele>1219.0</ele>
        <time>2018-05-26T11:39:00.684Z</time>
      </trkpt>
      <trkpt lat="40.80665667" lon="-4.20105833">
        <ele>1219.0</ele>
        <time>2018-05-26T11:39:01.693Z</time>
      </trkpt>
      <trkpt lat="40.80665667" lon="-4.20105833">
        <ele>1219.0</ele>
        <time>2018-05-26T11:39:02.696Z</time>
      </trkpt>
      <trkpt lat="40.80677667" lon="-4.20106">
        <ele>1217.0</ele>
        <time>2018-05-26T11:39:03.697Z</time>
      </trkpt>
      <trkpt lat="40.80677667" lon="-4.20106">
        <ele>1217.0</ele>
        <time>2018-05-26T11:39:04.680Z</time>
      </trkpt>
      <trkpt lat="40.80692333" lon="-4.20105">
        <ele>1216.0</ele>
        <time>2018-05-26T11:39:05.694Z</time>
      </trkpt>
      <trkpt lat="40.80692333" lon="-4.20105">
        <ele>1216.0</ele>
        <time>2018-05-26T11:39:06.683Z</time>
      </trkpt>
      <trkpt lat="40.80707667" lon="-4.20102">
        <ele>1216.0</ele>
        <time>2018-05-26T11:39:07.690Z</time>
      </trkpt>
      <trkpt lat="40.80707667" lon="-4.20102">
        <ele>1216.0</ele>
        <time>2018-05-26T11:39:08.676Z</time>
      </trkpt>
      <trkpt lat="40.80722333" lon="-4.20098333">
        <ele>1217.0</ele>
        <time>2018-05-26T11:39:09.695Z</time>
      </trkpt>
      <trkpt lat="40.80722333" lon="-4.20098333">
        <ele>1217.0</ele>
        <time>2018-05-26T11:39:10.702Z</time>
      </trkpt>
      <trkpt lat="40.80735667" lon="-4.200955">
        <ele>1217.0</ele>
        <time>2018-05-26T11:39:11.679Z</time>
      </trkpt>
      <trkpt lat="40.80735667" lon="-4.200955">
        <ele>1217.0</ele>
        <time>2018-05-26T11:39:12.682Z</time>
      </trkpt>
      <trkpt lat="40.80748833" lon="-4.200955">
        <ele>1218.0</ele>
        <time>2018-05-26T11:39:13.689Z</time>
      </trkpt>
      <trkpt lat="40.80748833" lon="-4.200955">
        <ele>1218.0</ele>
        <time>2018-05-26T11:39:14.694Z</time>
      </trkpt>
      <trkpt lat="40.80763333" lon="-4.20095">
        <ele>1217.0</ele>
        <time>2018-05-26T11:39:15.685Z</time>
      </trkpt>
      <trkpt lat="40.80763333" lon="-4.20095">
        <ele>1217.0</ele>
        <time>2018-05-26T11:39:16.688Z</time>
      </trkpt>
      <trkpt lat="40.80778" lon="-4.200895">
        <ele>1217.0</ele>
        <time>2018-05-26T11:39:17.696Z</time>
      </trkpt>
      <trkpt lat="40.80778" lon="-4.200895">
        <ele>1217.0</ele>
        <time>2018-05-26T11:39:18.698Z</time>
      </trkpt>
      <trkpt lat="40.80792167" lon="-4.20083667">
        <ele>1217.0</ele>
        <time>2018-05-26T11:39:19.700Z</time>
      </trkpt>
      <trkpt lat="40.80792167" lon="-4.20083667">
        <ele>1217.0</ele>
        <time>2018-05-26T11:39:20.680Z</time>
      </trkpt>
      <trkpt lat="40.80806333" lon="-4.20075667">
        <ele>1216.0</ele>
        <time>2018-05-26T11:39:21.679Z</time>
      </trkpt>
      <trkpt lat="40.80806333" lon="-4.20075667">
        <ele>1216.0</ele>
        <time>2018-05-26T11:39:22.687Z</time>
      </trkpt>
      <trkpt lat="40.80819167" lon="-4.200645">
        <ele>1215.0</ele>
        <time>2018-05-26T11:39:23.682Z</time>
      </trkpt>
      <trkpt lat="40.80819167" lon="-4.200645">
        <ele>1215.0</ele>
        <time>2018-05-26T11:39:24.677Z</time>
      </trkpt>
      <trkpt lat="40.80832167" lon="-4.20053333">
        <ele>1214.0</ele>
        <time>2018-05-26T11:39:25.695Z</time>
      </trkpt>
      <trkpt lat="40.80832167" lon="-4.20053333">
        <ele>1214.0</ele>
        <time>2018-05-26T11:39:26.712Z</time>
      </trkpt>
      <trkpt lat="40.808475" lon="-4.20043833">
        <ele>1213.0</ele>
        <time>2018-05-26T11:39:27.679Z</time>
      </trkpt>
      <trkpt lat="40.808475" lon="-4.20043833">
        <ele>1213.0</ele>
        <time>2018-05-26T11:39:28.685Z</time>
      </trkpt>
      <trkpt lat="40.80862833" lon="-4.20034167">
        <ele>1212.0</ele>
        <time>2018-05-26T11:39:29.675Z</time>
      </trkpt>
      <trkpt lat="40.80862833" lon="-4.20034167">
        <ele>1212.0</ele>
        <time>2018-05-26T11:39:30.687Z</time>
      </trkpt>
      <trkpt lat="40.80876333" lon="-4.20023333">
        <ele>1211.0</ele>
        <time>2018-05-26T11:39:31.693Z</time>
      </trkpt>
      <trkpt lat="40.80876333" lon="-4.20023333">
        <ele>1211.0</ele>
        <time>2018-05-26T11:39:32.689Z</time>
      </trkpt>
      <trkpt lat="40.80891333" lon="-4.200135">
        <ele>1211.0</ele>
        <time>2018-05-26T11:39:33.688Z</time>
      </trkpt>
      <trkpt lat="40.80891333" lon="-4.200135">
        <ele>1211.0</ele>
        <time>2018-05-26T11:39:34.679Z</time>
      </trkpt>
      <trkpt lat="40.80907" lon="-4.20004833">
        <ele>1210.0</ele>
        <time>2018-05-26T11:39:35.694Z</time>
      </trkpt>
      <trkpt lat="40.80915" lon="-4.200005">
        <ele>1210.0</ele>
        <time>2018-05-26T11:39:36.675Z</time>
      </trkpt>
      <trkpt lat="40.80923333" lon="-4.19996333">
        <ele>1211.0</ele>
        <time>2018-05-26T11:39:37.682Z</time>
      </trkpt>
      <trkpt lat="40.80923333" lon="-4.19996333">
        <ele>1211.0</ele>
        <time>2018-05-26T11:39:38.675Z</time>
      </trkpt>
      <trkpt lat="40.80938" lon="-4.19988333">
        <ele>1212.0</ele>
        <time>2018-05-26T11:39:39.695Z</time>
      </trkpt>
      <trkpt lat="40.80938" lon="-4.19988333">
        <ele>1212.0</ele>
        <time>2018-05-26T11:39:40.711Z</time>
      </trkpt>
      <trkpt lat="40.80952667" lon="-4.19981333">
        <ele>1212.0</ele>
        <time>2018-05-26T11:39:41.678Z</time>
      </trkpt>
      <trkpt lat="40.80952667" lon="-4.19981333">
        <ele>1212.0</ele>
        <time>2018-05-26T11:39:42.690Z</time>
      </trkpt>
      <trkpt lat="40.80968167" lon="-4.19974833">
        <ele>1212.0</ele>
        <time>2018-05-26T11:39:43.698Z</time>
      </trkpt>
      <trkpt lat="40.80968167" lon="-4.19974833">
        <ele>1212.0</ele>
        <time>2018-05-26T11:39:44.682Z</time>
      </trkpt>
      <trkpt lat="40.809835" lon="-4.199685">
        <ele>1212.0</ele>
        <time>2018-05-26T11:39:45.688Z</time>
      </trkpt>
      <trkpt lat="40.80991333" lon="-4.19964833">
        <ele>1212.0</ele>
        <time>2018-05-26T11:39:46.694Z</time>
      </trkpt>
      <trkpt lat="40.80991333" lon="-4.19964833">
        <ele>1212.0</ele>
        <time>2018-05-26T11:39:47.675Z</time>
      </trkpt>
      <trkpt lat="40.810065" lon="-4.19954167">
        <ele>1210.0</ele>
        <time>2018-05-26T11:39:48.688Z</time>
      </trkpt>
      <trkpt lat="40.810135" lon="-4.19947">
        <ele>1209.0</ele>
        <time>2018-05-26T11:39:49.677Z</time>
      </trkpt>
      <trkpt lat="40.810135" lon="-4.19947">
        <ele>1209.0</ele>
        <time>2018-05-26T11:39:50.689Z</time>
      </trkpt>
      <trkpt lat="40.81028" lon="-4.199305">
        <ele>1208.0</ele>
        <time>2018-05-26T11:39:51.713Z</time>
      </trkpt>
      <trkpt lat="40.81034667" lon="-4.19921667">
        <ele>1208.0</ele>
        <time>2018-05-26T11:39:52.709Z</time>
      </trkpt>
      <trkpt lat="40.81040667" lon="-4.19912333">
        <ele>1208.0</ele>
        <time>2018-05-26T11:39:53.679Z</time>
      </trkpt>
      <trkpt lat="40.81040667" lon="-4.19912333">
        <ele>1208.0</ele>
        <time>2018-05-26T11:39:54.695Z</time>
      </trkpt>
      <trkpt lat="40.81052167" lon="-4.19898333">
        <ele>1209.0</ele>
        <time>2018-05-26T11:39:55.694Z</time>
      </trkpt>
      <trkpt lat="40.81052167" lon="-4.19898333">
        <ele>1209.0</ele>
        <time>2018-05-26T11:39:56.686Z</time>
      </trkpt>
      <trkpt lat="40.81064167" lon="-4.19891833">
        <ele>1210.0</ele>
        <time>2018-05-26T11:39:57.691Z</time>
      </trkpt>
      <trkpt lat="40.81064167" lon="-4.19891833">
        <ele>1210.0</ele>
        <time>2018-05-26T11:39:58.679Z</time>
      </trkpt>
      <trkpt lat="40.81076333" lon="-4.19885167">
        <ele>1209.0</ele>
        <time>2018-05-26T11:39:59.696Z</time>
      </trkpt>
      <trkpt lat="40.81076333" lon="-4.19885167">
        <ele>1209.0</ele>
        <time>2018-05-26T11:40:00.704Z</time>
      </trkpt>
      <trkpt lat="40.81088667" lon="-4.198745">
        <ele>1208.0</ele>
        <time>2018-05-26T11:40:01.677Z</time>
      </trkpt>
      <trkpt lat="40.81088667" lon="-4.198745">
        <ele>1208.0</ele>
        <time>2018-05-26T11:40:02.689Z</time>
      </trkpt>
      <trkpt lat="40.81101333" lon="-4.198615">
        <ele>1207.0</ele>
        <time>2018-05-26T11:40:03.679Z</time>
      </trkpt>
      <trkpt lat="40.81107667" lon="-4.19855">
        <ele>1207.0</ele>
        <time>2018-05-26T11:40:04.695Z</time>
      </trkpt>
      <trkpt lat="40.81114333" lon="-4.19848333">
        <ele>1207.0</ele>
        <time>2018-05-26T11:40:05.694Z</time>
      </trkpt>
      <trkpt lat="40.81114333" lon="-4.19848333">
        <ele>1207.0</ele>
        <time>2018-05-26T11:40:06.677Z</time>
      </trkpt>
      <trkpt lat="40.81127" lon="-4.19835">
        <ele>1207.0</ele>
        <time>2018-05-26T11:40:07.697Z</time>
      </trkpt>
      <trkpt lat="40.81127" lon="-4.19835">
        <ele>1207.0</ele>
        <time>2018-05-26T11:40:08.687Z</time>
      </trkpt>
      <trkpt lat="40.81139333" lon="-4.19822">
        <ele>1207.0</ele>
        <time>2018-05-26T11:40:09.693Z</time>
      </trkpt>
      <trkpt lat="40.81139333" lon="-4.19822">
        <ele>1207.0</ele>
        <time>2018-05-26T11:40:10.678Z</time>
      </trkpt>
      <trkpt lat="40.81151333" lon="-4.19809667">
        <ele>1207.0</ele>
        <time>2018-05-26T11:40:11.695Z</time>
      </trkpt>
      <trkpt lat="40.81151333" lon="-4.19809667">
        <ele>1207.0</ele>
        <time>2018-05-26T11:40:12.684Z</time>
      </trkpt>
      <trkpt lat="40.81163667" lon="-4.19797667">
        <ele>1207.0</ele>
        <time>2018-05-26T11:40:13.698Z</time>
      </trkpt>
      <trkpt lat="40.81163667" lon="-4.19797667">
        <ele>1207.0</ele>
        <time>2018-05-26T11:40:14.700Z</time>
      </trkpt>
      <trkpt lat="40.81177167" lon="-4.19786167">
        <ele>1206.0</ele>
        <time>2018-05-26T11:40:15.713Z</time>
      </trkpt>
      <trkpt lat="40.81177167" lon="-4.19786167">
        <ele>1206.0</ele>
        <time>2018-05-26T11:40:16.688Z</time>
      </trkpt>
      <trkpt lat="40.81191333" lon="-4.197745">
        <ele>1205.0</ele>
        <time>2018-05-26T11:40:17.695Z</time>
      </trkpt>
      <trkpt lat="40.81191333" lon="-4.197745">
        <ele>1205.0</ele>
        <time>2018-05-26T11:40:18.712Z</time>
      </trkpt>
      <trkpt lat="40.81206833" lon="-4.19763167">
        <ele>1204.0</ele>
        <time>2018-05-26T11:40:19.681Z</time>
      </trkpt>
      <trkpt lat="40.81206833" lon="-4.19763167">
        <ele>1204.0</ele>
        <time>2018-05-26T11:40:20.692Z</time>
      </trkpt>
      <trkpt lat="40.812225" lon="-4.19751667">
        <ele>1204.0</ele>
        <time>2018-05-26T11:40:21.694Z</time>
      </trkpt>
      <trkpt lat="40.812225" lon="-4.19751667">
        <ele>1204.0</ele>
        <time>2018-05-26T11:40:22.694Z</time>
      </trkpt>
      <trkpt lat="40.81237667" lon="-4.19740167">
        <ele>1203.0</ele>
        <time>2018-05-26T11:40:23.696Z</time>
      </trkpt>
      <trkpt lat="40.81237667" lon="-4.19740167">
        <ele>1203.0</ele>
        <time>2018-05-26T11:40:24.703Z</time>
      </trkpt>
      <trkpt lat="40.81251667" lon="-4.19727167">
        <ele>1202.0</ele>
        <time>2018-05-26T11:40:25.709Z</time>
      </trkpt>
      <trkpt lat="40.812585" lon="-4.19719333">
        <ele>1201.0</ele>
        <time>2018-05-26T11:40:26.687Z</time>
      </trkpt>
      <trkpt lat="40.81265" lon="-4.19711333">
        <ele>1200.0</ele>
        <time>2018-05-26T11:40:27.695Z</time>
      </trkpt>
      <trkpt lat="40.81265" lon="-4.19711333">
        <ele>1200.0</ele>
        <time>2018-05-26T11:40:28.675Z</time>
      </trkpt>
      <trkpt lat="40.81278167" lon="-4.19695667">
        <ele>1200.0</ele>
        <time>2018-05-26T11:40:29.694Z</time>
      </trkpt>
      <trkpt lat="40.81278167" lon="-4.19695667">
        <ele>1200.0</ele>
        <time>2018-05-26T11:40:30.707Z</time>
      </trkpt>
      <trkpt lat="40.81291" lon="-4.19680167">
        <ele>1199.0</ele>
        <time>2018-05-26T11:40:31.675Z</time>
      </trkpt>
      <trkpt lat="40.81291" lon="-4.19680167">
        <ele>1199.0</ele>
        <time>2018-05-26T11:40:32.690Z</time>
      </trkpt>
      <trkpt lat="40.813025" lon="-4.19662333">
        <ele>1198.0</ele>
        <time>2018-05-26T11:40:33.695Z</time>
      </trkpt>
      <trkpt lat="40.813025" lon="-4.19662333">
        <ele>1198.0</ele>
        <time>2018-05-26T11:40:34.679Z</time>
      </trkpt>
      <trkpt lat="40.81314667" lon="-4.19644333">
        <ele>1197.0</ele>
        <time>2018-05-26T11:40:35.686Z</time>
      </trkpt>
      <trkpt lat="40.813215" lon="-4.196355">
        <ele>1196.0</ele>
        <time>2018-05-26T11:40:36.694Z</time>
      </trkpt>
      <trkpt lat="40.813215" lon="-4.196355">
        <ele>1196.0</ele>
        <time>2018-05-26T11:40:37.701Z</time>
      </trkpt>
      <trkpt lat="40.81335667" lon="-4.196185">
        <ele>1195.0</ele>
        <time>2018-05-26T11:40:38.711Z</time>
      </trkpt>
      <trkpt lat="40.81335667" lon="-4.196185">
        <ele>1195.0</ele>
        <time>2018-05-26T11:40:39.685Z</time>
      </trkpt>
      <trkpt lat="40.81349167" lon="-4.19601667">
        <ele>1194.0</ele>
        <time>2018-05-26T11:40:40.712Z</time>
      </trkpt>
      <trkpt lat="40.81349167" lon="-4.19601667">
        <ele>1194.0</ele>
        <time>2018-05-26T11:40:41.677Z</time>
      </trkpt>
      <trkpt lat="40.813605" lon="-4.19581833">
        <ele>1193.0</ele>
        <time>2018-05-26T11:40:42.691Z</time>
      </trkpt>
      <trkpt lat="40.81365333" lon="-4.19570833">
        <ele>1192.0</ele>
        <time>2018-05-26T11:40:43.684Z</time>
      </trkpt>
      <trkpt lat="40.81365333" lon="-4.19570833">
        <ele>1192.0</ele>
        <time>2018-05-26T11:40:44.690Z</time>
      </trkpt>
      <trkpt lat="40.81373833" lon="-4.195485">
        <ele>1192.0</ele>
        <time>2018-05-26T11:40:45.712Z</time>
      </trkpt>
      <trkpt lat="40.81373833" lon="-4.195485">
        <ele>1192.0</ele>
        <time>2018-05-26T11:40:46.677Z</time>
      </trkpt>
      <trkpt lat="40.81380833" lon="-4.195265">
        <ele>1191.0</ele>
        <time>2018-05-26T11:40:47.684Z</time>
      </trkpt>
      <trkpt lat="40.81380833" lon="-4.195265">
        <ele>1191.0</ele>
        <time>2018-05-26T11:40:48.679Z</time>
      </trkpt>
      <trkpt lat="40.81388167" lon="-4.19504167">
        <ele>1190.0</ele>
        <time>2018-05-26T11:40:49.697Z</time>
      </trkpt>
      <trkpt lat="40.81388167" lon="-4.19504167">
        <ele>1190.0</ele>
        <time>2018-05-26T11:40:50.678Z</time>
      </trkpt>
      <trkpt lat="40.81400333" lon="-4.19485833">
        <ele>1190.0</ele>
        <time>2018-05-26T11:40:51.685Z</time>
      </trkpt>
      <trkpt lat="40.81400333" lon="-4.19485833">
        <ele>1190.0</ele>
        <time>2018-05-26T11:40:52.701Z</time>
      </trkpt>
      <trkpt lat="40.814135" lon="-4.19468333">
        <ele>1189.0</ele>
        <time>2018-05-26T11:40:53.692Z</time>
      </trkpt>
      <trkpt lat="40.81419" lon="-4.19458167">
        <ele>1189.0</ele>
        <time>2018-05-26T11:40:54.689Z</time>
      </trkpt>
      <trkpt lat="40.81423333" lon="-4.19447333">
        <ele>1189.0</ele>
        <time>2018-05-26T11:40:55.686Z</time>
      </trkpt>
      <trkpt lat="40.81423333" lon="-4.19447333">
        <ele>1189.0</ele>
        <time>2018-05-26T11:40:56.693Z</time>
      </trkpt>
      <trkpt lat="40.81431333" lon="-4.19426667">
        <ele>1189.0</ele>
        <time>2018-05-26T11:40:57.693Z</time>
      </trkpt>
      <trkpt lat="40.81431333" lon="-4.19426667">
        <ele>1189.0</ele>
        <time>2018-05-26T11:40:58.676Z</time>
      </trkpt>
      <trkpt lat="40.814385" lon="-4.19408167">
        <ele>1190.0</ele>
        <time>2018-05-26T11:40:59.691Z</time>
      </trkpt>
      <trkpt lat="40.814385" lon="-4.19408167">
        <ele>1190.0</ele>
        <time>2018-05-26T11:41:00.680Z</time>
      </trkpt>
      <trkpt lat="40.81445833" lon="-4.19391333">
        <ele>1191.0</ele>
        <time>2018-05-26T11:41:01.687Z</time>
      </trkpt>
      <trkpt lat="40.81445833" lon="-4.19391333">
        <ele>1191.0</ele>
        <time>2018-05-26T11:41:02.692Z</time>
      </trkpt>
      <trkpt lat="40.81454" lon="-4.19375833">
        <ele>1190.0</ele>
        <time>2018-05-26T11:41:03.694Z</time>
      </trkpt>
      <trkpt lat="40.81454" lon="-4.19375833">
        <ele>1190.0</ele>
        <time>2018-05-26T11:41:04.676Z</time>
      </trkpt>
      <trkpt lat="40.81463333" lon="-4.19361">
        <ele>1190.0</ele>
        <time>2018-05-26T11:41:05.694Z</time>
      </trkpt>
      <trkpt lat="40.81463333" lon="-4.19361">
        <ele>1190.0</ele>
        <time>2018-05-26T11:41:06.701Z</time>
      </trkpt>
      <trkpt lat="40.81471667" lon="-4.19346667">
        <ele>1190.0</ele>
        <time>2018-05-26T11:41:07.710Z</time>
      </trkpt>
      <trkpt lat="40.81471667" lon="-4.19346667">
        <ele>1190.0</ele>
        <time>2018-05-26T11:41:08.681Z</time>
      </trkpt>
      <trkpt lat="40.81479667" lon="-4.19332167">
        <ele>1190.0</ele>
        <time>2018-05-26T11:41:09.678Z</time>
      </trkpt>
      <trkpt lat="40.81479667" lon="-4.19332167">
        <ele>1190.0</ele>
        <time>2018-05-26T11:41:10.680Z</time>
      </trkpt>
      <trkpt lat="40.81487167" lon="-4.19318333">
        <ele>1190.0</ele>
        <time>2018-05-26T11:41:11.695Z</time>
      </trkpt>
      <trkpt lat="40.81487167" lon="-4.19318333">
        <ele>1190.0</ele>
        <time>2018-05-26T11:41:12.701Z</time>
      </trkpt>
      <trkpt lat="40.81493333" lon="-4.193045">
        <ele>1190.0</ele>
        <time>2018-05-26T11:41:13.712Z</time>
      </trkpt>
      <trkpt lat="40.81493333" lon="-4.193045">
        <ele>1190.0</ele>
        <time>2018-05-26T11:41:14.693Z</time>
      </trkpt>
      <trkpt lat="40.81497" lon="-4.19289667">
        <ele>1191.0</ele>
        <time>2018-05-26T11:41:15.686Z</time>
      </trkpt>
      <trkpt lat="40.81497" lon="-4.19289667">
        <ele>1191.0</ele>
        <time>2018-05-26T11:41:16.677Z</time>
      </trkpt>
      <trkpt lat="40.81498333" lon="-4.19276">
        <ele>1192.0</ele>
        <time>2018-05-26T11:41:17.693Z</time>
      </trkpt>
      <trkpt lat="40.81498333" lon="-4.19276">
        <ele>1192.0</ele>
        <time>2018-05-26T11:41:18.678Z</time>
      </trkpt>
      <trkpt lat="40.814995" lon="-4.19264833">
        <ele>1192.0</ele>
        <time>2018-05-26T11:41:19.697Z</time>
      </trkpt>
      <trkpt lat="40.814995" lon="-4.19264833">
        <ele>1192.0</ele>
        <time>2018-05-26T11:41:20.675Z</time>
      </trkpt>
      <trkpt lat="40.815015" lon="-4.19256167">
        <ele>1193.0</ele>
        <time>2018-05-26T11:41:21.687Z</time>
      </trkpt>
      <trkpt lat="40.815015" lon="-4.19256167">
        <ele>1193.0</ele>
        <time>2018-05-26T11:41:22.694Z</time>
      </trkpt>
      <trkpt lat="40.81503833" lon="-4.19247333">
        <ele>1194.0</ele>
        <time>2018-05-26T11:41:23.695Z</time>
      </trkpt>
      <trkpt lat="40.81503833" lon="-4.19247333">
        <ele>1194.0</ele>
        <time>2018-05-26T11:41:24.680Z</time>
      </trkpt>
      <trkpt lat="40.815065" lon="-4.19237833">
        <ele>1194.0</ele>
        <time>2018-05-26T11:41:25.694Z</time>
      </trkpt>
      <trkpt lat="40.815065" lon="-4.19237833">
        <ele>1194.0</ele>
        <time>2018-05-26T11:41:26.688Z</time>
      </trkpt>
      <trkpt lat="40.81509333" lon="-4.19228333">
        <ele>1195.0</ele>
        <time>2018-05-26T11:41:27.691Z</time>
      </trkpt>
      <trkpt lat="40.81509333" lon="-4.19228333">
        <ele>1195.0</ele>
        <time>2018-05-26T11:41:28.698Z</time>
      </trkpt>
      <trkpt lat="40.815115" lon="-4.19219333">
        <ele>1196.0</ele>
        <time>2018-05-26T11:41:29.694Z</time>
      </trkpt>
      <trkpt lat="40.815115" lon="-4.19219333">
        <ele>1196.0</ele>
        <time>2018-05-26T11:41:30.712Z</time>
      </trkpt>
      <trkpt lat="40.81514333" lon="-4.19210667">
        <ele>1197.0</ele>
        <time>2018-05-26T11:41:31.681Z</time>
      </trkpt>
      <trkpt lat="40.81514333" lon="-4.19210667">
        <ele>1197.0</ele>
        <time>2018-05-26T11:41:32.710Z</time>
      </trkpt>
      <trkpt lat="40.81516667" lon="-4.19202">
        <ele>1197.0</ele>
        <time>2018-05-26T11:41:33.700Z</time>
      </trkpt>
      <trkpt lat="40.81516667" lon="-4.19202">
        <ele>1197.0</ele>
        <time>2018-05-26T11:41:34.680Z</time>
      </trkpt>
      <trkpt lat="40.81519" lon="-4.19192">
        <ele>1196.0</ele>
        <time>2018-05-26T11:41:35.707Z</time>
      </trkpt>
      <trkpt lat="40.81521" lon="-4.191865">
        <ele>1196.0</ele>
        <time>2018-05-26T11:41:36.695Z</time>
      </trkpt>
      <trkpt lat="40.81521" lon="-4.191865">
        <ele>1196.0</ele>
        <time>2018-05-26T11:41:37.700Z</time>
      </trkpt>
      <trkpt lat="40.815265" lon="-4.19172333">
        <ele>1195.0</ele>
        <time>2018-05-26T11:41:38.718Z</time>
      </trkpt>
      <trkpt lat="40.81529167" lon="-4.19163833">
        <ele>1195.0</ele>
        <time>2018-05-26T11:41:39.700Z</time>
      </trkpt>
      <trkpt lat="40.81529167" lon="-4.19163833">
        <ele>1195.0</ele>
        <time>2018-05-26T11:41:40.712Z</time>
      </trkpt>
      <trkpt lat="40.81535333" lon="-4.19147">
        <ele>1194.0</ele>
        <time>2018-05-26T11:41:41.678Z</time>
      </trkpt>
      <trkpt lat="40.8154" lon="-4.19139833">
        <ele>1194.0</ele>
        <time>2018-05-26T11:41:42.690Z</time>
      </trkpt>
      <trkpt lat="40.8154" lon="-4.19139833">
        <ele>1194.0</ele>
        <time>2018-05-26T11:41:43.685Z</time>
      </trkpt>
      <trkpt lat="40.815505" lon="-4.19125333">
        <ele>1191.0</ele>
        <time>2018-05-26T11:41:44.695Z</time>
      </trkpt>
      <trkpt lat="40.81556333" lon="-4.19116833">
        <ele>1191.0</ele>
        <time>2018-05-26T11:41:45.694Z</time>
      </trkpt>
      <trkpt lat="40.81556333" lon="-4.19116833">
        <ele>1191.0</ele>
        <time>2018-05-26T11:41:46.676Z</time>
      </trkpt>
      <trkpt lat="40.81566167" lon="-4.19097">
        <ele>1189.0</ele>
        <time>2018-05-26T11:41:47.685Z</time>
      </trkpt>
      <trkpt lat="40.81570833" lon="-4.19086333">
        <ele>1189.0</ele>
        <time>2018-05-26T11:41:48.689Z</time>
      </trkpt>
      <trkpt lat="40.81570833" lon="-4.19086333">
        <ele>1189.0</ele>
        <time>2018-05-26T11:41:49.676Z</time>
      </trkpt>
      <trkpt lat="40.81579833" lon="-4.19065667">
        <ele>1188.0</ele>
        <time>2018-05-26T11:41:50.686Z</time>
      </trkpt>
      <trkpt lat="40.81579833" lon="-4.19065667">
        <ele>1188.0</ele>
        <time>2018-05-26T11:41:51.711Z</time>
      </trkpt>
      <trkpt lat="40.81588333" lon="-4.19046333">
        <ele>1188.0</ele>
        <time>2018-05-26T11:41:52.677Z</time>
      </trkpt>
      <trkpt lat="40.81588333" lon="-4.19046333">
        <ele>1188.0</ele>
        <time>2018-05-26T11:41:53.689Z</time>
      </trkpt>
      <trkpt lat="40.815975" lon="-4.19028667">
        <ele>1188.0</ele>
        <time>2018-05-26T11:41:54.686Z</time>
      </trkpt>
      <trkpt lat="40.815975" lon="-4.19028667">
        <ele>1188.0</ele>
        <time>2018-05-26T11:41:55.688Z</time>
      </trkpt>
      <trkpt lat="40.81604" lon="-4.19010833">
        <ele>1189.0</ele>
        <time>2018-05-26T11:41:56.695Z</time>
      </trkpt>
      <trkpt lat="40.81604" lon="-4.19010833">
        <ele>1189.0</ele>
        <time>2018-05-26T11:41:57.676Z</time>
      </trkpt>
      <trkpt lat="40.81613167" lon="-4.18998">
        <ele>1189.0</ele>
        <time>2018-05-26T11:41:58.694Z</time>
      </trkpt>
      <trkpt lat="40.81613167" lon="-4.18998">
        <ele>1189.0</ele>
        <time>2018-05-26T11:41:59.677Z</time>
      </trkpt>
      <trkpt lat="40.81626833" lon="-4.18987333">
        <ele>1188.0</ele>
        <time>2018-05-26T11:42:00.684Z</time>
      </trkpt>
      <trkpt lat="40.81635167" lon="-4.18982">
        <ele>1187.0</ele>
        <time>2018-05-26T11:42:01.705Z</time>
      </trkpt>
      <trkpt lat="40.81644" lon="-4.18976167">
        <ele>1187.0</ele>
        <time>2018-05-26T11:42:02.695Z</time>
      </trkpt>
      <trkpt lat="40.81644" lon="-4.18976167">
        <ele>1187.0</ele>
        <time>2018-05-26T11:42:03.697Z</time>
      </trkpt>
      <trkpt lat="40.81661833" lon="-4.18962667">
        <ele>1186.0</ele>
        <time>2018-05-26T11:42:04.677Z</time>
      </trkpt>
      <trkpt lat="40.81661833" lon="-4.18962667">
        <ele>1186.0</ele>
        <time>2018-05-26T11:42:05.680Z</time>
      </trkpt>
      <trkpt lat="40.81681" lon="-4.189505">
        <ele>1184.0</ele>
        <time>2018-05-26T11:42:06.704Z</time>
      </trkpt>
      <trkpt lat="40.81681" lon="-4.189505">
        <ele>1184.0</ele>
        <time>2018-05-26T11:42:07.682Z</time>
      </trkpt>
      <trkpt lat="40.81700833" lon="-4.18939333">
        <ele>1183.0</ele>
        <time>2018-05-26T11:42:08.689Z</time>
      </trkpt>
      <trkpt lat="40.81700833" lon="-4.18939333">
        <ele>1183.0</ele>
        <time>2018-05-26T11:42:09.708Z</time>
      </trkpt>
      <trkpt lat="40.81719" lon="-4.18922667">
        <ele>1181.0</ele>
        <time>2018-05-26T11:42:10.694Z</time>
      </trkpt>
      <trkpt lat="40.817275" lon="-4.18913">
        <ele>1182.0</ele>
        <time>2018-05-26T11:42:11.703Z</time>
      </trkpt>
      <trkpt lat="40.817275" lon="-4.18913">
        <ele>1182.0</ele>
        <time>2018-05-26T11:42:12.678Z</time>
      </trkpt>
      <trkpt lat="40.81742333" lon="-4.18893833">
        <ele>1182.0</ele>
        <time>2018-05-26T11:42:13.688Z</time>
      </trkpt>
      <trkpt lat="40.81742333" lon="-4.18893833">
        <ele>1182.0</ele>
        <time>2018-05-26T11:42:14.686Z</time>
      </trkpt>
      <trkpt lat="40.81757167" lon="-4.18876">
        <ele>1181.0</ele>
        <time>2018-05-26T11:42:15.705Z</time>
      </trkpt>
      <trkpt lat="40.81757167" lon="-4.18876">
        <ele>1181.0</ele>
        <time>2018-05-26T11:42:16.675Z</time>
      </trkpt>
      <trkpt lat="40.81773167" lon="-4.18859167">
        <ele>1180.0</ele>
        <time>2018-05-26T11:42:17.685Z</time>
      </trkpt>
      <trkpt lat="40.81781167" lon="-4.18851333">
        <ele>1180.0</ele>
        <time>2018-05-26T11:42:18.711Z</time>
      </trkpt>
      <trkpt lat="40.81788667" lon="-4.18843">
        <ele>1179.0</ele>
        <time>2018-05-26T11:42:19.683Z</time>
      </trkpt>
      <trkpt lat="40.81788667" lon="-4.18843">
        <ele>1179.0</ele>
        <time>2018-05-26T11:42:20.702Z</time>
      </trkpt>
      <trkpt lat="40.81803833" lon="-4.18826833">
        <ele>1178.0</ele>
        <time>2018-05-26T11:42:21.709Z</time>
      </trkpt>
      <trkpt lat="40.81812333" lon="-4.18819667">
        <ele>1177.0</ele>
        <time>2018-05-26T11:42:22.677Z</time>
      </trkpt>
      <trkpt lat="40.81812333" lon="-4.18819667">
        <ele>1177.0</ele>
        <time>2018-05-26T11:42:23.689Z</time>
      </trkpt>
      <trkpt lat="40.818295" lon="-4.18806333">
        <ele>1177.0</ele>
        <time>2018-05-26T11:42:24.690Z</time>
      </trkpt>
      <trkpt lat="40.81838667" lon="-4.18801667">
        <ele>1176.0</ele>
        <time>2018-05-26T11:42:25.681Z</time>
      </trkpt>
      <trkpt lat="40.81838667" lon="-4.18801667">
        <ele>1176.0</ele>
        <time>2018-05-26T11:42:26.705Z</time>
      </trkpt>
      <trkpt lat="40.81856333" lon="-4.18791">
        <ele>1175.0</ele>
        <time>2018-05-26T11:42:27.712Z</time>
      </trkpt>
      <trkpt lat="40.81864333" lon="-4.18784167">
        <ele>1175.0</ele>
        <time>2018-05-26T11:42:28.679Z</time>
      </trkpt>
      <trkpt lat="40.81864333" lon="-4.18784167">
        <ele>1175.0</ele>
        <time>2018-05-26T11:42:29.687Z</time>
      </trkpt>
      <trkpt lat="40.81877667" lon="-4.18767333">
        <ele>1175.0</ele>
        <time>2018-05-26T11:42:30.697Z</time>
      </trkpt>
      <trkpt lat="40.81877667" lon="-4.18767333">
        <ele>1175.0</ele>
        <time>2018-05-26T11:42:31.699Z</time>
      </trkpt>
      <trkpt lat="40.81889167" lon="-4.1875">
        <ele>1175.0</ele>
        <time>2018-05-26T11:42:32.677Z</time>
      </trkpt>
      <trkpt lat="40.81889167" lon="-4.1875">
        <ele>1175.0</ele>
        <time>2018-05-26T11:42:33.689Z</time>
      </trkpt>
      <trkpt lat="40.81900833" lon="-4.187335">
        <ele>1175.0</ele>
        <time>2018-05-26T11:42:34.682Z</time>
      </trkpt>
      <trkpt lat="40.81900833" lon="-4.187335">
        <ele>1175.0</ele>
        <time>2018-05-26T11:42:35.677Z</time>
      </trkpt>
      <trkpt lat="40.81913833" lon="-4.18717667">
        <ele>1174.0</ele>
        <time>2018-05-26T11:42:36.695Z</time>
      </trkpt>
      <trkpt lat="40.819195" lon="-4.18708833">
        <ele>1174.0</ele>
        <time>2018-05-26T11:42:37.696Z</time>
      </trkpt>
      <trkpt lat="40.819195" lon="-4.18708833">
        <ele>1174.0</ele>
        <time>2018-05-26T11:42:38.677Z</time>
      </trkpt>
      <trkpt lat="40.81926833" lon="-4.18690333">
        <ele>1174.0</ele>
        <time>2018-05-26T11:42:39.696Z</time>
      </trkpt>
      <trkpt lat="40.81926833" lon="-4.18690333">
        <ele>1174.0</ele>
        <time>2018-05-26T11:42:40.680Z</time>
      </trkpt>
      <trkpt lat="40.819345" lon="-4.18670833">
        <ele>1173.0</ele>
        <time>2018-05-26T11:42:41.701Z</time>
      </trkpt>
      <trkpt lat="40.819345" lon="-4.18670833">
        <ele>1173.0</ele>
        <time>2018-05-26T11:42:42.677Z</time>
      </trkpt>
      <trkpt lat="40.81944667" lon="-4.18652">
        <ele>1172.0</ele>
        <time>2018-05-26T11:42:43.695Z</time>
      </trkpt>
      <trkpt lat="40.81944667" lon="-4.18652">
        <ele>1172.0</ele>
        <time>2018-05-26T11:42:44.690Z</time>
      </trkpt>
      <trkpt lat="40.81955833" lon="-4.186325">
        <ele>1170.0</ele>
        <time>2018-05-26T11:42:45.697Z</time>
      </trkpt>
      <trkpt lat="40.81961667" lon="-4.186225">
        <ele>1170.0</ele>
        <time>2018-05-26T11:42:46.681Z</time>
      </trkpt>
      <trkpt lat="40.819675" lon="-4.18612">
        <ele>1168.0</ele>
        <time>2018-05-26T11:42:47.684Z</time>
      </trkpt>
      <trkpt lat="40.819675" lon="-4.18612">
        <ele>1168.0</ele>
        <time>2018-05-26T11:42:48.698Z</time>
      </trkpt>
      <trkpt lat="40.81979" lon="-4.1859">
        <ele>1167.0</ele>
        <time>2018-05-26T11:42:49.696Z</time>
      </trkpt>
      <trkpt lat="40.81979" lon="-4.1859">
        <ele>1167.0</ele>
        <time>2018-05-26T11:42:50.678Z</time>
      </trkpt>
      <trkpt lat="40.81988667" lon="-4.18568">
        <ele>1166.0</ele>
        <time>2018-05-26T11:42:51.695Z</time>
      </trkpt>
      <trkpt lat="40.81988667" lon="-4.18568">
        <ele>1166.0</ele>
        <time>2018-05-26T11:42:52.680Z</time>
      </trkpt>
      <trkpt lat="40.81996667" lon="-4.18544333">
        <ele>1165.0</ele>
        <time>2018-05-26T11:42:53.695Z</time>
      </trkpt>
      <trkpt lat="40.82000333" lon="-4.18532333">
        <ele>1164.0</ele>
        <time>2018-05-26T11:42:54.708Z</time>
      </trkpt>
      <trkpt lat="40.82000333" lon="-4.18532333">
        <ele>1164.0</ele>
        <time>2018-05-26T11:42:55.679Z</time>
      </trkpt>
      <trkpt lat="40.82007833" lon="-4.18508667">
        <ele>1164.0</ele>
        <time>2018-05-26T11:42:56.677Z</time>
      </trkpt>
      <trkpt lat="40.82011167" lon="-4.18497">
        <ele>1164.0</ele>
        <time>2018-05-26T11:42:57.690Z</time>
      </trkpt>
      <trkpt lat="40.82011167" lon="-4.18497">
        <ele>1164.0</ele>
        <time>2018-05-26T11:42:58.681Z</time>
      </trkpt>
      <trkpt lat="40.82015333" lon="-4.18473">
        <ele>1163.0</ele>
        <time>2018-05-26T11:42:59.687Z</time>
      </trkpt>
      <trkpt lat="40.82015333" lon="-4.18473">
        <ele>1163.0</ele>
        <time>2018-05-26T11:43:00.714Z</time>
      </trkpt>
      <trkpt lat="40.82019" lon="-4.18449167">
        <ele>1163.0</ele>
        <time>2018-05-26T11:43:01.693Z</time>
      </trkpt>
      <trkpt lat="40.82019" lon="-4.18449167">
        <ele>1163.0</ele>
        <time>2018-05-26T11:43:02.677Z</time>
      </trkpt>
      <trkpt lat="40.82022167" lon="-4.18425333">
        <ele>1162.0</ele>
        <time>2018-05-26T11:43:03.695Z</time>
      </trkpt>
      <trkpt lat="40.82022167" lon="-4.18425333">
        <ele>1162.0</ele>
        <time>2018-05-26T11:43:04.692Z</time>
      </trkpt>
      <trkpt lat="40.82025333" lon="-4.18403167">
        <ele>1162.0</ele>
        <time>2018-05-26T11:43:05.718Z</time>
      </trkpt>
      <trkpt lat="40.82025333" lon="-4.18403167">
        <ele>1162.0</ele>
        <time>2018-05-26T11:43:06.682Z</time>
      </trkpt>
      <trkpt lat="40.820285" lon="-4.18383167">
        <ele>1162.0</ele>
        <time>2018-05-26T11:43:07.688Z</time>
      </trkpt>
      <trkpt lat="40.820285" lon="-4.18383167">
        <ele>1162.0</ele>
        <time>2018-05-26T11:43:08.694Z</time>
      </trkpt>
      <trkpt lat="40.820315" lon="-4.18363833">
        <ele>1162.0</ele>
        <time>2018-05-26T11:43:09.682Z</time>
      </trkpt>
      <trkpt lat="40.820315" lon="-4.18363833">
        <ele>1162.0</ele>
        <time>2018-05-26T11:43:10.690Z</time>
      </trkpt>
      <trkpt lat="40.82034833" lon="-4.18344833">
        <ele>1162.0</ele>
        <time>2018-05-26T11:43:11.697Z</time>
      </trkpt>
      <trkpt lat="40.82034833" lon="-4.18344833">
        <ele>1162.0</ele>
        <time>2018-05-26T11:43:12.677Z</time>
      </trkpt>
      <trkpt lat="40.82037833" lon="-4.183265">
        <ele>1162.0</ele>
        <time>2018-05-26T11:43:13.694Z</time>
      </trkpt>
      <trkpt lat="40.82037833" lon="-4.183265">
        <ele>1162.0</ele>
        <time>2018-05-26T11:43:14.676Z</time>
      </trkpt>
      <trkpt lat="40.82041" lon="-4.18308167">
        <ele>1162.0</ele>
        <time>2018-05-26T11:43:15.692Z</time>
      </trkpt>
      <trkpt lat="40.82041" lon="-4.18308167">
        <ele>1162.0</ele>
        <time>2018-05-26T11:43:16.687Z</time>
      </trkpt>
      <trkpt lat="40.820445" lon="-4.182895">
        <ele>1162.0</ele>
        <time>2018-05-26T11:43:17.694Z</time>
      </trkpt>
      <trkpt lat="40.82046167" lon="-4.18280167">
        <ele>1161.0</ele>
        <time>2018-05-26T11:43:18.685Z</time>
      </trkpt>
      <trkpt lat="40.82047833" lon="-4.18271">
        <ele>1161.0</ele>
        <time>2018-05-26T11:43:19.693Z</time>
      </trkpt>
      <trkpt lat="40.82047833" lon="-4.18271">
        <ele>1161.0</ele>
        <time>2018-05-26T11:43:20.680Z</time>
      </trkpt>
      <trkpt lat="40.82051333" lon="-4.18252833">
        <ele>1161.0</ele>
        <time>2018-05-26T11:43:21.687Z</time>
      </trkpt>
      <trkpt lat="40.82053667" lon="-4.18243667">
        <ele>1161.0</ele>
        <time>2018-05-26T11:43:22.697Z</time>
      </trkpt>
      <trkpt lat="40.82055667" lon="-4.18234333">
        <ele>1161.0</ele>
        <time>2018-05-26T11:43:23.692Z</time>
      </trkpt>
      <trkpt lat="40.82055667" lon="-4.18234333">
        <ele>1161.0</ele>
        <time>2018-05-26T11:43:24.696Z</time>
      </trkpt>
      <trkpt lat="40.82059" lon="-4.18215167">
        <ele>1161.0</ele>
        <time>2018-05-26T11:43:25.683Z</time>
      </trkpt>
      <trkpt lat="40.82059" lon="-4.18215167">
        <ele>1161.0</ele>
        <time>2018-05-26T11:43:26.683Z</time>
      </trkpt>
      <trkpt lat="40.82062833" lon="-4.18198">
        <ele>1161.0</ele>
        <time>2018-05-26T11:43:27.694Z</time>
      </trkpt>
      <trkpt lat="40.82062833" lon="-4.18198">
        <ele>1161.0</ele>
        <time>2018-05-26T11:43:28.678Z</time>
      </trkpt>
      <trkpt lat="40.82066333" lon="-4.18180833">
        <ele>1161.0</ele>
        <time>2018-05-26T11:43:29.690Z</time>
      </trkpt>
      <trkpt lat="40.82066333" lon="-4.18180833">
        <ele>1161.0</ele>
        <time>2018-05-26T11:43:30.708Z</time>
      </trkpt>
      <trkpt lat="40.82069" lon="-4.18163667">
        <ele>1161.0</ele>
        <time>2018-05-26T11:43:31.714Z</time>
      </trkpt>
      <trkpt lat="40.82069" lon="-4.18163667">
        <ele>1161.0</ele>
        <time>2018-05-26T11:43:32.701Z</time>
      </trkpt>
      <trkpt lat="40.82071333" lon="-4.18146833">
        <ele>1162.0</ele>
        <time>2018-05-26T11:43:33.686Z</time>
      </trkpt>
      <trkpt lat="40.82071333" lon="-4.18146833">
        <ele>1162.0</ele>
        <time>2018-05-26T11:43:34.683Z</time>
      </trkpt>
      <trkpt lat="40.82074" lon="-4.18130833">
        <ele>1162.0</ele>
        <time>2018-05-26T11:43:35.693Z</time>
      </trkpt>
      <trkpt lat="40.82074" lon="-4.18130833">
        <ele>1162.0</ele>
        <time>2018-05-26T11:43:36.691Z</time>
      </trkpt>
      <trkpt lat="40.82076167" lon="-4.18114667">
        <ele>1163.0</ele>
        <time>2018-05-26T11:43:37.698Z</time>
      </trkpt>
      <trkpt lat="40.82076167" lon="-4.18114667">
        <ele>1163.0</ele>
        <time>2018-05-26T11:43:38.676Z</time>
      </trkpt>
      <trkpt lat="40.82078333" lon="-4.18099833">
        <ele>1163.0</ele>
        <time>2018-05-26T11:43:39.694Z</time>
      </trkpt>
      <trkpt lat="40.82078333" lon="-4.18099833">
        <ele>1163.0</ele>
        <time>2018-05-26T11:43:40.708Z</time>
      </trkpt>
      <trkpt lat="40.82080833" lon="-4.180855">
        <ele>1163.0</ele>
        <time>2018-05-26T11:43:41.675Z</time>
      </trkpt>
      <trkpt lat="40.82082" lon="-4.18078">
        <ele>1162.0</ele>
        <time>2018-05-26T11:43:42.698Z</time>
      </trkpt>
      <trkpt lat="40.82083" lon="-4.18069833">
        <ele>1161.0</ele>
        <time>2018-05-26T11:43:43.681Z</time>
      </trkpt>
      <trkpt lat="40.82083" lon="-4.18069833">
        <ele>1161.0</ele>
        <time>2018-05-26T11:43:44.693Z</time>
      </trkpt>
      <trkpt lat="40.820845" lon="-4.18052667">
        <ele>1161.0</ele>
        <time>2018-05-26T11:43:45.700Z</time>
      </trkpt>
      <trkpt lat="40.820855" lon="-4.18044167">
        <ele>1161.0</ele>
        <time>2018-05-26T11:43:46.681Z</time>
      </trkpt>
      <trkpt lat="40.820855" lon="-4.18044167">
        <ele>1161.0</ele>
        <time>2018-05-26T11:43:47.708Z</time>
      </trkpt>
      <trkpt lat="40.82088" lon="-4.180275">
        <ele>1161.0</ele>
        <time>2018-05-26T11:43:48.683Z</time>
      </trkpt>
      <trkpt lat="40.82089333" lon="-4.18019333">
        <ele>1161.0</ele>
        <time>2018-05-26T11:43:49.694Z</time>
      </trkpt>
      <trkpt lat="40.82089333" lon="-4.18019333">
        <ele>1161.0</ele>
        <time>2018-05-26T11:43:50.710Z</time>
      </trkpt>
      <trkpt lat="40.82092167" lon="-4.180035">
        <ele>1161.0</ele>
        <time>2018-05-26T11:43:51.678Z</time>
      </trkpt>
      <trkpt lat="40.82092167" lon="-4.180035">
        <ele>1161.0</ele>
        <time>2018-05-26T11:43:52.695Z</time>
      </trkpt>
      <trkpt lat="40.82095167" lon="-4.17987667">
        <ele>1161.0</ele>
        <time>2018-05-26T11:43:53.713Z</time>
      </trkpt>
      <trkpt lat="40.82095167" lon="-4.17987667">
        <ele>1161.0</ele>
        <time>2018-05-26T11:43:54.700Z</time>
      </trkpt>
      <trkpt lat="40.82098" lon="-4.179715">
        <ele>1161.0</ele>
        <time>2018-05-26T11:43:55.683Z</time>
      </trkpt>
      <trkpt lat="40.82098" lon="-4.179715">
        <ele>1161.0</ele>
        <time>2018-05-26T11:43:56.712Z</time>
      </trkpt>
      <trkpt lat="40.82099" lon="-4.17954667">
        <ele>1161.0</ele>
        <time>2018-05-26T11:43:57.679Z</time>
      </trkpt>
      <trkpt lat="40.82099" lon="-4.17954667">
        <ele>1161.0</ele>
        <time>2018-05-26T11:43:58.700Z</time>
      </trkpt>
      <trkpt lat="40.82098833" lon="-4.179395">
        <ele>1161.0</ele>
        <time>2018-05-26T11:43:59.680Z</time>
      </trkpt>
      <trkpt lat="40.82099833" lon="-4.17932167">
        <ele>1162.0</ele>
        <time>2018-05-26T11:44:00.695Z</time>
      </trkpt>
      <trkpt lat="40.82101167" lon="-4.17925167">
        <ele>1162.0</ele>
        <time>2018-05-26T11:44:01.714Z</time>
      </trkpt>
      <trkpt lat="40.82101167" lon="-4.17925167">
        <ele>1162.0</ele>
        <time>2018-05-26T11:44:02.682Z</time>
      </trkpt>
      <trkpt lat="40.82104" lon="-4.17910833">
        <ele>1161.0</ele>
        <time>2018-05-26T11:44:03.688Z</time>
      </trkpt>
      <trkpt lat="40.82104" lon="-4.17910833">
        <ele>1161.0</ele>
        <time>2018-05-26T11:44:04.695Z</time>
      </trkpt>
      <trkpt lat="40.82107" lon="-4.17896">
        <ele>1161.0</ele>
        <time>2018-05-26T11:44:05.708Z</time>
      </trkpt>
      <trkpt lat="40.82107" lon="-4.17896">
        <ele>1161.0</ele>
        <time>2018-05-26T11:44:06.677Z</time>
      </trkpt>
      <trkpt lat="40.82109833" lon="-4.17882">
        <ele>1161.0</ele>
        <time>2018-05-26T11:44:07.684Z</time>
      </trkpt>
      <trkpt lat="40.82109833" lon="-4.17882">
        <ele>1161.0</ele>
        <time>2018-05-26T11:44:08.704Z</time>
      </trkpt>
      <trkpt lat="40.82112167" lon="-4.17869167">
        <ele>1161.0</ele>
        <time>2018-05-26T11:44:09.714Z</time>
      </trkpt>
      <trkpt lat="40.82112167" lon="-4.17869167">
        <ele>1161.0</ele>
        <time>2018-05-26T11:44:10.678Z</time>
      </trkpt>
      <trkpt lat="40.82114667" lon="-4.17855333">
        <ele>1161.0</ele>
        <time>2018-05-26T11:44:11.706Z</time>
      </trkpt>
      <trkpt lat="40.82115833" lon="-4.17848167">
        <ele>1161.0</ele>
        <time>2018-05-26T11:44:12.704Z</time>
      </trkpt>
      <trkpt lat="40.82115833" lon="-4.17848167">
        <ele>1161.0</ele>
        <time>2018-05-26T11:44:13.688Z</time>
      </trkpt>
      <trkpt lat="40.821185" lon="-4.178345">
        <ele>1161.0</ele>
        <time>2018-05-26T11:44:14.695Z</time>
      </trkpt>
      <trkpt lat="40.82119833" lon="-4.17827667">
        <ele>1161.0</ele>
        <time>2018-05-26T11:44:15.683Z</time>
      </trkpt>
      <trkpt lat="40.82121333" lon="-4.17820833">
        <ele>1161.0</ele>
        <time>2018-05-26T11:44:16.676Z</time>
      </trkpt>
      <trkpt lat="40.82121333" lon="-4.17820833">
        <ele>1161.0</ele>
        <time>2018-05-26T11:44:17.690Z</time>
      </trkpt>
      <trkpt lat="40.82126167" lon="-4.17806833">
        <ele>1161.0</ele>
        <time>2018-05-26T11:44:18.696Z</time>
      </trkpt>
      <trkpt lat="40.82129167" lon="-4.17800167">
        <ele>1161.0</ele>
        <time>2018-05-26T11:44:19.696Z</time>
      </trkpt>
      <trkpt lat="40.82129167" lon="-4.17800167">
        <ele>1161.0</ele>
        <time>2018-05-26T11:44:20.696Z</time>
      </trkpt>
      <trkpt lat="40.82135" lon="-4.17787">
        <ele>1161.0</ele>
        <time>2018-05-26T11:44:21.709Z</time>
      </trkpt>
      <trkpt lat="40.82137333" lon="-4.1778">
        <ele>1161.0</ele>
        <time>2018-05-26T11:44:22.690Z</time>
      </trkpt>
      <trkpt lat="40.82137333" lon="-4.1778">
        <ele>1161.0</ele>
        <time>2018-05-26T11:44:23.677Z</time>
      </trkpt>
      <trkpt lat="40.82141" lon="-4.17765167">
        <ele>1161.0</ele>
        <time>2018-05-26T11:44:24.694Z</time>
      </trkpt>
      <trkpt lat="40.821425" lon="-4.177575">
        <ele>1161.0</ele>
        <time>2018-05-26T11:44:25.700Z</time>
      </trkpt>
      <trkpt lat="40.821425" lon="-4.177575">
        <ele>1161.0</ele>
        <time>2018-05-26T11:44:26.706Z</time>
      </trkpt>
      <trkpt lat="40.82145167" lon="-4.17742333">
        <ele>1161.0</ele>
        <time>2018-05-26T11:44:27.713Z</time>
      </trkpt>
      <trkpt lat="40.82146333" lon="-4.17734833">
        <ele>1161.0</ele>
        <time>2018-05-26T11:44:28.694Z</time>
      </trkpt>
      <trkpt lat="40.82146333" lon="-4.17734833">
        <ele>1161.0</ele>
        <time>2018-05-26T11:44:29.680Z</time>
      </trkpt>
      <trkpt lat="40.82148167" lon="-4.17720167">
        <ele>1161.0</ele>
        <time>2018-05-26T11:44:30.690Z</time>
      </trkpt>
      <trkpt lat="40.82149" lon="-4.17712667">
        <ele>1161.0</ele>
        <time>2018-05-26T11:44:31.687Z</time>
      </trkpt>
      <trkpt lat="40.82149" lon="-4.17712667">
        <ele>1161.0</ele>
        <time>2018-05-26T11:44:32.678Z</time>
      </trkpt>
      <trkpt lat="40.82150167" lon="-4.17698167">
        <ele>1161.0</ele>
        <time>2018-05-26T11:44:33.686Z</time>
      </trkpt>
      <trkpt lat="40.82150667" lon="-4.17691">
        <ele>1161.0</ele>
        <time>2018-05-26T11:44:34.698Z</time>
      </trkpt>
      <trkpt lat="40.82150667" lon="-4.17691">
        <ele>1161.0</ele>
        <time>2018-05-26T11:44:35.685Z</time>
      </trkpt>
      <trkpt lat="40.82152833" lon="-4.17677833">
        <ele>1162.0</ele>
        <time>2018-05-26T11:44:36.692Z</time>
      </trkpt>
      <trkpt lat="40.821545" lon="-4.17671667">
        <ele>1161.0</ele>
        <time>2018-05-26T11:44:37.694Z</time>
      </trkpt>
      <trkpt lat="40.821545" lon="-4.17671667">
        <ele>1161.0</ele>
        <time>2018-05-26T11:44:38.680Z</time>
      </trkpt>
      <trkpt lat="40.82157667" lon="-4.17657833">
        <ele>1161.0</ele>
        <time>2018-05-26T11:44:39.688Z</time>
      </trkpt>
      <trkpt lat="40.82158667" lon="-4.176505">
        <ele>1161.0</ele>
        <time>2018-05-26T11:44:40.704Z</time>
      </trkpt>
      <trkpt lat="40.82158667" lon="-4.176505">
        <ele>1161.0</ele>
        <time>2018-05-26T11:44:41.689Z</time>
      </trkpt>
      <trkpt lat="40.8216" lon="-4.17635667">
        <ele>1161.0</ele>
        <time>2018-05-26T11:44:42.696Z</time>
      </trkpt>
      <trkpt lat="40.82160333" lon="-4.17627833">
        <ele>1161.0</ele>
        <time>2018-05-26T11:44:43.693Z</time>
      </trkpt>
      <trkpt lat="40.82160333" lon="-4.17627833">
        <ele>1161.0</ele>
        <time>2018-05-26T11:44:44.680Z</time>
      </trkpt>
      <trkpt lat="40.821615" lon="-4.17611667">
        <ele>1161.0</ele>
        <time>2018-05-26T11:44:45.687Z</time>
      </trkpt>
      <trkpt lat="40.821615" lon="-4.17611667">
        <ele>1161.0</ele>
        <time>2018-05-26T11:44:46.693Z</time>
      </trkpt>
      <trkpt lat="40.82162667" lon="-4.175955">
        <ele>1161.0</ele>
        <time>2018-05-26T11:44:47.698Z</time>
      </trkpt>
      <trkpt lat="40.821635" lon="-4.17587667">
        <ele>1161.0</ele>
        <time>2018-05-26T11:44:48.682Z</time>
      </trkpt>
      <trkpt lat="40.82164333" lon="-4.1758">
        <ele>1161.0</ele>
        <time>2018-05-26T11:44:49.711Z</time>
      </trkpt>
      <trkpt lat="40.82164333" lon="-4.1758">
        <ele>1161.0</ele>
        <time>2018-05-26T11:44:50.682Z</time>
      </trkpt>
      <trkpt lat="40.82166" lon="-4.175645">
        <ele>1161.0</ele>
        <time>2018-05-26T11:44:51.692Z</time>
      </trkpt>
      <trkpt lat="40.82166833" lon="-4.17557">
        <ele>1161.0</ele>
        <time>2018-05-26T11:44:52.694Z</time>
      </trkpt>
      <trkpt lat="40.82166833" lon="-4.17557">
        <ele>1161.0</ele>
        <time>2018-05-26T11:44:53.676Z</time>
      </trkpt>
      <trkpt lat="40.821685" lon="-4.17542">
        <ele>1161.0</ele>
        <time>2018-05-26T11:44:54.690Z</time>
      </trkpt>
      <trkpt lat="40.821685" lon="-4.17542">
        <ele>1161.0</ele>
        <time>2018-05-26T11:44:55.710Z</time>
      </trkpt>
      <trkpt lat="40.82170333" lon="-4.175265">
        <ele>1161.0</ele>
        <time>2018-05-26T11:44:56.678Z</time>
      </trkpt>
      <trkpt lat="40.82170333" lon="-4.175265">
        <ele>1161.0</ele>
        <time>2018-05-26T11:44:57.684Z</time>
      </trkpt>
      <trkpt lat="40.82172167" lon="-4.17510833">
        <ele>1162.0</ele>
        <time>2018-05-26T11:44:58.682Z</time>
      </trkpt>
      <trkpt lat="40.82172167" lon="-4.17510833">
        <ele>1162.0</ele>
        <time>2018-05-26T11:44:59.679Z</time>
      </trkpt>
      <trkpt lat="40.82174167" lon="-4.17495167">
        <ele>1162.0</ele>
        <time>2018-05-26T11:45:00.707Z</time>
      </trkpt>
      <trkpt lat="40.82174167" lon="-4.17495167">
        <ele>1162.0</ele>
        <time>2018-05-26T11:45:01.680Z</time>
      </trkpt>
      <trkpt lat="40.82176" lon="-4.17479333">
        <ele>1162.0</ele>
        <time>2018-05-26T11:45:02.694Z</time>
      </trkpt>
      <trkpt lat="40.82176833" lon="-4.174715">
        <ele>1162.0</ele>
        <time>2018-05-26T11:45:03.683Z</time>
      </trkpt>
      <trkpt lat="40.82176833" lon="-4.174715">
        <ele>1162.0</ele>
        <time>2018-05-26T11:45:04.711Z</time>
      </trkpt>
      <trkpt lat="40.82178833" lon="-4.174555">
        <ele>1162.0</ele>
        <time>2018-05-26T11:45:05.678Z</time>
      </trkpt>
      <trkpt lat="40.82180333" lon="-4.174475">
        <ele>1162.0</ele>
        <time>2018-05-26T11:45:06.687Z</time>
      </trkpt>
      <trkpt lat="40.82180333" lon="-4.174475">
        <ele>1162.0</ele>
        <time>2018-05-26T11:45:07.677Z</time>
      </trkpt>
      <trkpt lat="40.82182667" lon="-4.17431333">
        <ele>1162.0</ele>
        <time>2018-05-26T11:45:08.683Z</time>
      </trkpt>
      <trkpt lat="40.82182667" lon="-4.17431333">
        <ele>1162.0</ele>
        <time>2018-05-26T11:45:09.690Z</time>
      </trkpt>
      <trkpt lat="40.82185167" lon="-4.17415167">
        <ele>1162.0</ele>
        <time>2018-05-26T11:45:10.679Z</time>
      </trkpt>
      <trkpt lat="40.82185167" lon="-4.17415167">
        <ele>1162.0</ele>
        <time>2018-05-26T11:45:11.680Z</time>
      </trkpt>
      <trkpt lat="40.82186167" lon="-4.17399167">
        <ele>1162.0</ele>
        <time>2018-05-26T11:45:12.694Z</time>
      </trkpt>
      <trkpt lat="40.82186333" lon="-4.17391">
        <ele>1162.0</ele>
        <time>2018-05-26T11:45:13.696Z</time>
      </trkpt>
      <trkpt lat="40.82186333" lon="-4.17391">
        <ele>1162.0</ele>
        <time>2018-05-26T11:45:14.698Z</time>
      </trkpt>
      <trkpt lat="40.821865" lon="-4.17374833">
        <ele>1161.0</ele>
        <time>2018-05-26T11:45:15.709Z</time>
      </trkpt>
      <trkpt lat="40.82186333" lon="-4.17366833">
        <ele>1161.0</ele>
        <time>2018-05-26T11:45:16.678Z</time>
      </trkpt>
      <trkpt lat="40.82186333" lon="-4.17366833">
        <ele>1161.0</ele>
        <time>2018-05-26T11:45:17.676Z</time>
      </trkpt>
      <trkpt lat="40.82185667" lon="-4.17350667">
        <ele>1161.0</ele>
        <time>2018-05-26T11:45:18.684Z</time>
      </trkpt>
      <trkpt lat="40.82185833" lon="-4.173425">
        <ele>1160.0</ele>
        <time>2018-05-26T11:45:19.691Z</time>
      </trkpt>
      <trkpt lat="40.82185833" lon="-4.173425">
        <ele>1160.0</ele>
        <time>2018-05-26T11:45:20.700Z</time>
      </trkpt>
      <trkpt lat="40.821855" lon="-4.173255">
        <ele>1160.0</ele>
        <time>2018-05-26T11:45:21.712Z</time>
      </trkpt>
      <trkpt lat="40.82184667" lon="-4.17317333">
        <ele>1160.0</ele>
        <time>2018-05-26T11:45:22.685Z</time>
      </trkpt>
      <trkpt lat="40.82184667" lon="-4.17317333">
        <ele>1160.0</ele>
        <time>2018-05-26T11:45:23.675Z</time>
      </trkpt>
      <trkpt lat="40.82182333" lon="-4.17301167">
        <ele>1160.0</ele>
        <time>2018-05-26T11:45:24.687Z</time>
      </trkpt>
      <trkpt lat="40.82182333" lon="-4.17301167">
        <ele>1160.0</ele>
        <time>2018-05-26T11:45:25.712Z</time>
      </trkpt>
      <trkpt lat="40.82182167" lon="-4.17285">
        <ele>1160.0</ele>
        <time>2018-05-26T11:45:26.678Z</time>
      </trkpt>
      <trkpt lat="40.82181833" lon="-4.17277">
        <ele>1160.0</ele>
        <time>2018-05-26T11:45:27.704Z</time>
      </trkpt>
      <trkpt lat="40.821815" lon="-4.17269">
        <ele>1159.0</ele>
        <time>2018-05-26T11:45:28.691Z</time>
      </trkpt>
      <trkpt lat="40.821815" lon="-4.17269">
        <ele>1159.0</ele>
        <time>2018-05-26T11:45:29.695Z</time>
      </trkpt>
      <trkpt lat="40.82181167" lon="-4.17253833">
        <ele>1159.0</ele>
        <time>2018-05-26T11:45:30.684Z</time>
      </trkpt>
      <trkpt lat="40.82181167" lon="-4.17253833">
        <ele>1159.0</ele>
        <time>2018-05-26T11:45:31.699Z</time>
      </trkpt>
      <trkpt lat="40.821805" lon="-4.17240667">
        <ele>1158.0</ele>
        <time>2018-05-26T11:45:32.697Z</time>
      </trkpt>
      <trkpt lat="40.821805" lon="-4.17240667">
        <ele>1158.0</ele>
        <time>2018-05-26T11:45:33.677Z</time>
      </trkpt>
      <trkpt lat="40.82177167" lon="-4.17232">
        <ele>1158.0</ele>
        <time>2018-05-26T11:45:34.698Z</time>
      </trkpt>
      <trkpt lat="40.82177167" lon="-4.17232">
        <ele>1158.0</ele>
        <time>2018-05-26T11:45:35.711Z</time>
      </trkpt>
      <trkpt lat="40.82169667" lon="-4.172285">
        <ele>1157.0</ele>
        <time>2018-05-26T11:45:36.678Z</time>
      </trkpt>
      <trkpt lat="40.82166667" lon="-4.17227333">
        <ele>1157.0</ele>
        <time>2018-05-26T11:45:37.707Z</time>
      </trkpt>
      <trkpt lat="40.82166667" lon="-4.17227333">
        <ele>1157.0</ele>
        <time>2018-05-26T11:45:38.675Z</time>
      </trkpt>
      <trkpt lat="40.82159" lon="-4.17225333">
        <ele>1156.0</ele>
        <time>2018-05-26T11:45:39.686Z</time>
      </trkpt>
      <trkpt lat="40.82159" lon="-4.17225333">
        <ele>1156.0</ele>
        <time>2018-05-26T11:45:40.690Z</time>
      </trkpt>
      <trkpt lat="40.821525" lon="-4.172255">
        <ele>1156.0</ele>
        <time>2018-05-26T11:45:41.697Z</time>
      </trkpt>
      <trkpt lat="40.821525" lon="-4.172255">
        <ele>1156.0</ele>
        <time>2018-05-26T11:45:42.682Z</time>
      </trkpt>
      <trkpt lat="40.82147333" lon="-4.172245">
        <ele>1157.0</ele>
        <time>2018-05-26T11:45:43.683Z</time>
      </trkpt>
      <trkpt lat="40.82147333" lon="-4.172245">
        <ele>1157.0</ele>
        <time>2018-05-26T11:45:44.692Z</time>
      </trkpt>
      <trkpt lat="40.82144833" lon="-4.17221667">
        <ele>1157.0</ele>
        <time>2018-05-26T11:45:45.699Z</time>
      </trkpt>
      <trkpt lat="40.82143667" lon="-4.17219333">
        <ele>1158.0</ele>
        <time>2018-05-26T11:45:46.694Z</time>
      </trkpt>
      <trkpt lat="40.82143667" lon="-4.17219333">
        <ele>1158.0</ele>
        <time>2018-05-26T11:45:47.690Z</time>
      </trkpt>
      <trkpt lat="40.82141667" lon="-4.17214667">
        <ele>1159.0</ele>
        <time>2018-05-26T11:45:48.698Z</time>
      </trkpt>
      <trkpt lat="40.82140667" lon="-4.17212">
        <ele>1159.0</ele>
        <time>2018-05-26T11:45:49.687Z</time>
      </trkpt>
      <trkpt lat="40.8214" lon="-4.17209">
        <ele>1160.0</ele>
        <time>2018-05-26T11:45:50.688Z</time>
      </trkpt>
      <trkpt lat="40.8214" lon="-4.17209">
        <ele>1160.0</ele>
        <time>2018-05-26T11:45:51.710Z</time>
      </trkpt>
      <trkpt lat="40.8214" lon="-4.172035">
        <ele>1160.0</ele>
        <time>2018-05-26T11:45:52.678Z</time>
      </trkpt>
      <trkpt lat="40.8214" lon="-4.172035">
        <ele>1160.0</ele>
        <time>2018-05-26T11:45:53.688Z</time>
      </trkpt>
      <trkpt lat="40.82139833" lon="-4.171975">
        <ele>1161.0</ele>
        <time>2018-05-26T11:45:54.706Z</time>
      </trkpt>
      <trkpt lat="40.82139833" lon="-4.171975">
        <ele>1161.0</ele>
        <time>2018-05-26T11:45:55.682Z</time>
      </trkpt>
      <trkpt lat="40.82140167" lon="-4.1719">
        <ele>1161.0</ele>
        <time>2018-05-26T11:45:56.688Z</time>
      </trkpt>
      <trkpt lat="40.82140167" lon="-4.1719">
        <ele>1161.0</ele>
        <time>2018-05-26T11:45:57.704Z</time>
      </trkpt>
      <trkpt lat="40.82142167" lon="-4.17181833">
        <ele>1162.0</ele>
        <time>2018-05-26T11:45:58.686Z</time>
      </trkpt>
      <trkpt lat="40.82143" lon="-4.17177667">
        <ele>1162.0</ele>
        <time>2018-05-26T11:45:59.704Z</time>
      </trkpt>
      <trkpt lat="40.82143" lon="-4.17177667">
        <ele>1162.0</ele>
        <time>2018-05-26T11:46:00.679Z</time>
      </trkpt>
      <trkpt lat="40.82144833" lon="-4.17168833">
        <ele>1163.0</ele>
        <time>2018-05-26T11:46:01.685Z</time>
      </trkpt>
      <trkpt lat="40.82144833" lon="-4.17168833">
        <ele>1163.0</ele>
        <time>2018-05-26T11:46:02.691Z</time>
      </trkpt>
      <trkpt lat="40.82145833" lon="-4.17159833">
        <ele>1163.0</ele>
        <time>2018-05-26T11:46:03.690Z</time>
      </trkpt>
      <trkpt lat="40.82145833" lon="-4.17159833">
        <ele>1163.0</ele>
        <time>2018-05-26T11:46:04.693Z</time>
      </trkpt>
      <trkpt lat="40.82145833" lon="-4.17151167">
        <ele>1163.0</ele>
        <time>2018-05-26T11:46:05.712Z</time>
      </trkpt>
      <trkpt lat="40.82145167" lon="-4.17147333">
        <ele>1164.0</ele>
        <time>2018-05-26T11:46:06.696Z</time>
      </trkpt>
      <trkpt lat="40.82144" lon="-4.17143667">
        <ele>1164.0</ele>
        <time>2018-05-26T11:46:07.712Z</time>
      </trkpt>
      <trkpt lat="40.82144" lon="-4.17143667">
        <ele>1164.0</ele>
        <time>2018-05-26T11:46:08.687Z</time>
      </trkpt>
      <trkpt lat="40.82142167" lon="-4.171375">
        <ele>1164.0</ele>
        <time>2018-05-26T11:46:09.694Z</time>
      </trkpt>
      <trkpt lat="40.82141333" lon="-4.171345">
        <ele>1165.0</ele>
        <time>2018-05-26T11:46:10.704Z</time>
      </trkpt>
      <trkpt lat="40.82140333" lon="-4.171315">
        <ele>1165.0</ele>
        <time>2018-05-26T11:46:11.695Z</time>
      </trkpt>
      <trkpt lat="40.82139167" lon="-4.17128833">
        <ele>1165.0</ele>
        <time>2018-05-26T11:46:12.695Z</time>
      </trkpt>
      <trkpt lat="40.82139167" lon="-4.17128833">
        <ele>1165.0</ele>
        <time>2018-05-26T11:46:13.689Z</time>
      </trkpt>
      <trkpt lat="40.82136833" lon="-4.17124">
        <ele>1166.0</ele>
        <time>2018-05-26T11:46:14.695Z</time>
      </trkpt>
      <trkpt lat="40.82136833" lon="-4.17124">
        <ele>1166.0</ele>
        <time>2018-05-26T11:46:15.678Z</time>
      </trkpt>
      <trkpt lat="40.82133333" lon="-4.17119667">
        <ele>1167.0</ele>
        <time>2018-05-26T11:46:16.686Z</time>
      </trkpt>
      <trkpt lat="40.82133333" lon="-4.17119667">
        <ele>1167.0</ele>
        <time>2018-05-26T11:46:17.693Z</time>
      </trkpt>
      <trkpt lat="40.821295" lon="-4.17116167">
        <ele>1167.0</ele>
        <time>2018-05-26T11:46:18.693Z</time>
      </trkpt>
      <trkpt lat="40.821295" lon="-4.17116167">
        <ele>1167.0</ele>
        <time>2018-05-26T11:46:19.696Z</time>
      </trkpt>
      <trkpt lat="40.82125333" lon="-4.17112167">
        <ele>1168.0</ele>
        <time>2018-05-26T11:46:20.702Z</time>
      </trkpt>
      <trkpt lat="40.821235" lon="-4.17110167">
        <ele>1168.0</ele>
        <time>2018-05-26T11:46:21.697Z</time>
      </trkpt>
      <trkpt lat="40.821235" lon="-4.17110167">
        <ele>1168.0</ele>
        <time>2018-05-26T11:46:22.678Z</time>
      </trkpt>
      <trkpt lat="40.82119167" lon="-4.17107">
        <ele>1169.0</ele>
        <time>2018-05-26T11:46:23.685Z</time>
      </trkpt>
      <trkpt lat="40.82119167" lon="-4.17107">
        <ele>1169.0</ele>
        <time>2018-05-26T11:46:24.690Z</time>
      </trkpt>
      <trkpt lat="40.821155" lon="-4.17104833">
        <ele>1169.0</ele>
        <time>2018-05-26T11:46:25.683Z</time>
      </trkpt>
      <trkpt lat="40.821155" lon="-4.17104833">
        <ele>1169.0</ele>
        <time>2018-05-26T11:46:26.713Z</time>
      </trkpt>
      <trkpt lat="40.82112" lon="-4.17102333">
        <ele>1170.0</ele>
        <time>2018-05-26T11:46:27.679Z</time>
      </trkpt>
      <trkpt lat="40.82110333" lon="-4.17100833">
        <ele>1170.0</ele>
        <time>2018-05-26T11:46:28.696Z</time>
      </trkpt>
      <trkpt lat="40.82110333" lon="-4.17100833">
        <ele>1170.0</ele>
        <time>2018-05-26T11:46:29.679Z</time>
      </trkpt>
      <trkpt lat="40.82107167" lon="-4.170975">
        <ele>1171.0</ele>
        <time>2018-05-26T11:46:30.707Z</time>
      </trkpt>
      <trkpt lat="40.821055" lon="-4.17096167">
        <ele>1171.0</ele>
        <time>2018-05-26T11:46:31.701Z</time>
      </trkpt>
      <trkpt lat="40.821055" lon="-4.17096167">
        <ele>1171.0</ele>
        <time>2018-05-26T11:46:32.700Z</time>
      </trkpt>
      <trkpt lat="40.821025" lon="-4.17094">
        <ele>1172.0</ele>
        <time>2018-05-26T11:46:33.709Z</time>
      </trkpt>
      <trkpt lat="40.821025" lon="-4.17094">
        <ele>1172.0</ele>
        <time>2018-05-26T11:46:34.681Z</time>
      </trkpt>
      <trkpt lat="40.82099667" lon="-4.17091667">
        <ele>1172.0</ele>
        <time>2018-05-26T11:46:35.687Z</time>
      </trkpt>
      <trkpt lat="40.82098" lon="-4.17090333">
        <ele>1172.0</ele>
        <time>2018-05-26T11:46:36.695Z</time>
      </trkpt>
      <trkpt lat="40.82096667" lon="-4.17088833">
        <ele>1173.0</ele>
        <time>2018-05-26T11:46:37.692Z</time>
      </trkpt>
      <trkpt lat="40.82095" lon="-4.17087333">
        <ele>1173.0</ele>
        <time>2018-05-26T11:46:38.675Z</time>
      </trkpt>
      <trkpt lat="40.82095" lon="-4.17087333">
        <ele>1173.0</ele>
        <time>2018-05-26T11:46:39.689Z</time>
      </trkpt>
      <trkpt lat="40.82091833" lon="-4.17084333">
        <ele>1173.0</ele>
        <time>2018-05-26T11:46:40.686Z</time>
      </trkpt>
      <trkpt lat="40.82091833" lon="-4.17084333">
        <ele>1173.0</ele>
        <time>2018-05-26T11:46:41.692Z</time>
      </trkpt>
      <trkpt lat="40.82089333" lon="-4.170805">
        <ele>1173.0</ele>
        <time>2018-05-26T11:46:42.711Z</time>
      </trkpt>
      <trkpt lat="40.82088" lon="-4.17078833">
        <ele>1174.0</ele>
        <time>2018-05-26T11:46:43.681Z</time>
      </trkpt>
      <trkpt lat="40.82088" lon="-4.17078833">
        <ele>1174.0</ele>
        <time>2018-05-26T11:46:44.697Z</time>
      </trkpt>
      <trkpt lat="40.82085667" lon="-4.17076333">
        <ele>1174.0</ele>
        <time>2018-05-26T11:46:45.712Z</time>
      </trkpt>
      <trkpt lat="40.82085667" lon="-4.17076333">
        <ele>1174.0</ele>
        <time>2018-05-26T11:46:46.696Z</time>
      </trkpt>
      <trkpt lat="40.82085" lon="-4.17076">
        <ele>1174.0</ele>
        <time>2018-05-26T11:46:47.709Z</time>
      </trkpt>
      <trkpt lat="40.82085" lon="-4.17076">
        <ele>1174.0</ele>
        <time>2018-05-26T11:46:48.683Z</time>
      </trkpt>
      <trkpt lat="40.82085" lon="-4.17076">
        <ele>1174.0</ele>
        <time>2018-05-26T11:46:49.676Z</time>
      </trkpt>
      <trkpt lat="40.820805" lon="-4.17065833">
        <ele>1175.0</ele>
        <time>2018-05-26T11:46:50.702Z</time>
      </trkpt>
      <trkpt lat="40.820805" lon="-4.17065833">
        <ele>1175.0</ele>
        <time>2018-05-26T11:46:51.714Z</time>
      </trkpt>
      <trkpt lat="40.82079167" lon="-4.17064">
        <ele>1175.0</ele>
        <time>2018-05-26T11:46:52.681Z</time>
      </trkpt>
      <trkpt lat="40.82078833" lon="-4.17063667">
        <ele>1175.0</ele>
        <time>2018-05-26T11:46:53.695Z</time>
      </trkpt>
      <trkpt lat="40.82078667" lon="-4.17063667">
        <ele>1175.0</ele>
        <time>2018-05-26T11:46:54.695Z</time>
      </trkpt>
      <trkpt lat="40.8207" lon="-4.17060333">
        <ele>1175.0</ele>
        <time>2018-05-26T11:46:55.686Z</time>
      </trkpt>
      <trkpt lat="40.8207" lon="-4.17060333">
        <ele>1175.0</ele>
        <time>2018-05-26T11:46:56.677Z</time>
      </trkpt>
      <trkpt lat="40.82066667" lon="-4.17057167">
        <ele>1176.0</ele>
        <time>2018-05-26T11:46:57.683Z</time>
      </trkpt>
      <trkpt lat="40.82066667" lon="-4.17057167">
        <ele>1176.0</ele>
        <time>2018-05-26T11:46:58.676Z</time>
      </trkpt>
      <trkpt lat="40.82063167" lon="-4.17054167">
        <ele>1176.0</ele>
        <time>2018-05-26T11:46:59.713Z</time>
      </trkpt>
      <trkpt lat="40.82063167" lon="-4.17054167">
        <ele>1176.0</ele>
        <time>2018-05-26T11:47:00.681Z</time>
      </trkpt>
      <trkpt lat="40.82059667" lon="-4.17051333">
        <ele>1177.0</ele>
        <time>2018-05-26T11:47:01.712Z</time>
      </trkpt>
      <trkpt lat="40.82058167" lon="-4.170505">
        <ele>1177.0</ele>
        <time>2018-05-26T11:47:02.711Z</time>
      </trkpt>
      <trkpt lat="40.820565" lon="-4.170495">
        <ele>1178.0</ele>
        <time>2018-05-26T11:47:03.687Z</time>
      </trkpt>
      <trkpt lat="40.820565" lon="-4.170495">
        <ele>1178.0</ele>
        <time>2018-05-26T11:47:04.694Z</time>
      </trkpt>
      <trkpt lat="40.820535" lon="-4.17047">
        <ele>1178.0</ele>
        <time>2018-05-26T11:47:05.701Z</time>
      </trkpt>
      <trkpt lat="40.82052" lon="-4.170455">
        <ele>1178.0</ele>
        <time>2018-05-26T11:47:06.687Z</time>
      </trkpt>
      <trkpt lat="40.82052" lon="-4.170455">
        <ele>1178.0</ele>
        <time>2018-05-26T11:47:07.678Z</time>
      </trkpt>
      <trkpt lat="40.82049" lon="-4.17042333">
        <ele>1179.0</ele>
        <time>2018-05-26T11:47:08.715Z</time>
      </trkpt>
      <trkpt lat="40.82049" lon="-4.17042333">
        <ele>1179.0</ele>
        <time>2018-05-26T11:47:09.681Z</time>
      </trkpt>
      <trkpt lat="40.82046333" lon="-4.17039">
        <ele>1179.0</ele>
        <time>2018-05-26T11:47:10.689Z</time>
      </trkpt>
      <trkpt lat="40.82044833" lon="-4.17038">
        <ele>1180.0</ele>
        <time>2018-05-26T11:47:11.705Z</time>
      </trkpt>
      <trkpt lat="40.82044833" lon="-4.17038">
        <ele>1180.0</ele>
        <time>2018-05-26T11:47:12.694Z</time>
      </trkpt>
      <trkpt lat="40.82041167" lon="-4.17036167">
        <ele>1180.0</ele>
        <time>2018-05-26T11:47:13.709Z</time>
      </trkpt>
      <trkpt lat="40.82041167" lon="-4.17036167">
        <ele>1180.0</ele>
        <time>2018-05-26T11:47:14.676Z</time>
      </trkpt>
      <trkpt lat="40.82037667" lon="-4.17033833">
        <ele>1180.0</ele>
        <time>2018-05-26T11:47:15.683Z</time>
      </trkpt>
      <trkpt lat="40.82037667" lon="-4.17033833">
        <ele>1180.0</ele>
        <time>2018-05-26T11:47:16.676Z</time>
      </trkpt>
      <trkpt lat="40.82035333" lon="-4.17031167">
        <ele>1181.0</ele>
        <time>2018-05-26T11:47:17.694Z</time>
      </trkpt>
      <trkpt lat="40.82035333" lon="-4.17031167">
        <ele>1181.0</ele>
        <time>2018-05-26T11:47:18.683Z</time>
      </trkpt>
      <trkpt lat="40.82033333" lon="-4.17028">
        <ele>1181.0</ele>
        <time>2018-05-26T11:47:19.712Z</time>
      </trkpt>
      <trkpt lat="40.82033333" lon="-4.17028">
        <ele>1181.0</ele>
        <time>2018-05-26T11:47:20.701Z</time>
      </trkpt>
      <trkpt lat="40.82030833" lon="-4.17025">
        <ele>1181.0</ele>
        <time>2018-05-26T11:47:21.712Z</time>
      </trkpt>
      <trkpt lat="40.82030833" lon="-4.17025">
        <ele>1181.0</ele>
        <time>2018-05-26T11:47:22.676Z</time>
      </trkpt>
      <trkpt lat="40.82028" lon="-4.170225">
        <ele>1181.0</ele>
        <time>2018-05-26T11:47:23.679Z</time>
      </trkpt>
      <trkpt lat="40.82028" lon="-4.170225">
        <ele>1181.0</ele>
        <time>2018-05-26T11:47:24.685Z</time>
      </trkpt>
      <trkpt lat="40.82025833" lon="-4.17019">
        <ele>1182.0</ele>
        <time>2018-05-26T11:47:25.692Z</time>
      </trkpt>
      <trkpt lat="40.82025167" lon="-4.170175">
        <ele>1182.0</ele>
        <time>2018-05-26T11:47:26.677Z</time>
      </trkpt>
      <trkpt lat="40.820245" lon="-4.17015833">
        <ele>1182.0</ele>
        <time>2018-05-26T11:47:27.712Z</time>
      </trkpt>
      <trkpt lat="40.820245" lon="-4.17015833">
        <ele>1182.0</ele>
        <time>2018-05-26T11:47:28.677Z</time>
      </trkpt>
      <trkpt lat="40.82023" lon="-4.17013">
        <ele>1182.0</ele>
        <time>2018-05-26T11:47:29.682Z</time>
      </trkpt>
      <trkpt lat="40.82021833" lon="-4.17011667">
        <ele>1182.0</ele>
        <time>2018-05-26T11:47:30.687Z</time>
      </trkpt>
      <trkpt lat="40.82020333" lon="-4.17010167">
        <ele>1182.0</ele>
        <time>2018-05-26T11:47:31.694Z</time>
      </trkpt>
      <trkpt lat="40.82020333" lon="-4.17010167">
        <ele>1182.0</ele>
        <time>2018-05-26T11:47:32.711Z</time>
      </trkpt>
      <trkpt lat="40.82017667" lon="-4.17007833">
        <ele>1183.0</ele>
        <time>2018-05-26T11:47:33.681Z</time>
      </trkpt>
      <trkpt lat="40.820165" lon="-4.170065">
        <ele>1183.0</ele>
        <time>2018-05-26T11:47:34.690Z</time>
      </trkpt>
      <trkpt lat="40.820155" lon="-4.17004833">
        <ele>1183.0</ele>
        <time>2018-05-26T11:47:35.683Z</time>
      </trkpt>
      <trkpt lat="40.820155" lon="-4.17004833">
        <ele>1183.0</ele>
        <time>2018-05-26T11:47:36.676Z</time>
      </trkpt>
      <trkpt lat="40.82013" lon="-4.17002667">
        <ele>1183.0</ele>
        <time>2018-05-26T11:47:37.711Z</time>
      </trkpt>
      <trkpt lat="40.82011333" lon="-4.17001833">
        <ele>1183.0</ele>
        <time>2018-05-26T11:47:38.687Z</time>
      </trkpt>
      <trkpt lat="40.820095" lon="-4.17001333">
        <ele>1183.0</ele>
        <time>2018-05-26T11:47:39.702Z</time>
      </trkpt>
      <trkpt lat="40.820095" lon="-4.17001333">
        <ele>1183.0</ele>
        <time>2018-05-26T11:47:40.708Z</time>
      </trkpt>
      <trkpt lat="40.82005667" lon="-4.17000333">
        <ele>1184.0</ele>
        <time>2018-05-26T11:47:41.678Z</time>
      </trkpt>
      <trkpt lat="40.82005667" lon="-4.17000333">
        <ele>1184.0</ele>
        <time>2018-05-26T11:47:42.684Z</time>
      </trkpt>
      <trkpt lat="40.82002167" lon="-4.16998">
        <ele>1184.0</ele>
        <time>2018-05-26T11:47:43.711Z</time>
      </trkpt>
      <trkpt lat="40.82002167" lon="-4.16998">
        <ele>1184.0</ele>
        <time>2018-05-26T11:47:44.677Z</time>
      </trkpt>
      <trkpt lat="40.81999333" lon="-4.16993667">
        <ele>1184.0</ele>
        <time>2018-05-26T11:47:45.684Z</time>
      </trkpt>
      <trkpt lat="40.81999333" lon="-4.16993667">
        <ele>1184.0</ele>
        <time>2018-05-26T11:47:46.689Z</time>
      </trkpt>
      <trkpt lat="40.81998833" lon="-4.16988667">
        <ele>1185.0</ele>
        <time>2018-05-26T11:47:47.676Z</time>
      </trkpt>
      <trkpt lat="40.81998833" lon="-4.16988667">
        <ele>1185.0</ele>
        <time>2018-05-26T11:47:48.678Z</time>
      </trkpt>
      <trkpt lat="40.81998167" lon="-4.16982333">
        <ele>1185.0</ele>
        <time>2018-05-26T11:47:49.701Z</time>
      </trkpt>
      <trkpt lat="40.81998167" lon="-4.16982333">
        <ele>1185.0</ele>
        <time>2018-05-26T11:47:50.709Z</time>
      </trkpt>
      <trkpt lat="40.81997667" lon="-4.16976667">
        <ele>1186.0</ele>
        <time>2018-05-26T11:47:51.681Z</time>
      </trkpt>
      <trkpt lat="40.81997667" lon="-4.16976667">
        <ele>1186.0</ele>
        <time>2018-05-26T11:47:52.709Z</time>
      </trkpt>
      <trkpt lat="40.81997667" lon="-4.16971333">
        <ele>1186.0</ele>
        <time>2018-05-26T11:47:53.679Z</time>
      </trkpt>
      <trkpt lat="40.81997667" lon="-4.16971333">
        <ele>1186.0</ele>
        <time>2018-05-26T11:47:54.686Z</time>
      </trkpt>
      <trkpt lat="40.81998667" lon="-4.16965833">
        <ele>1187.0</ele>
        <time>2018-05-26T11:47:55.711Z</time>
      </trkpt>
      <trkpt lat="40.81998667" lon="-4.16965833">
        <ele>1187.0</ele>
        <time>2018-05-26T11:47:56.678Z</time>
      </trkpt>
      <trkpt lat="40.820005" lon="-4.16960333">
        <ele>1187.0</ele>
        <time>2018-05-26T11:47:57.712Z</time>
      </trkpt>
      <trkpt lat="40.820005" lon="-4.16960333">
        <ele>1187.0</ele>
        <time>2018-05-26T11:47:58.688Z</time>
      </trkpt>
      <trkpt lat="40.82002" lon="-4.16954333">
        <ele>1187.0</ele>
        <time>2018-05-26T11:47:59.678Z</time>
      </trkpt>
      <trkpt lat="40.82002" lon="-4.16954333">
        <ele>1187.0</ele>
        <time>2018-05-26T11:48:00.685Z</time>
      </trkpt>
      <trkpt lat="40.82004167" lon="-4.16947667">
        <ele>1188.0</ele>
        <time>2018-05-26T11:48:01.691Z</time>
      </trkpt>
      <trkpt lat="40.82004167" lon="-4.16947667">
        <ele>1188.0</ele>
        <time>2018-05-26T11:48:02.697Z</time>
      </trkpt>
      <trkpt lat="40.82004833" lon="-4.16939833">
        <ele>1188.0</ele>
        <time>2018-05-26T11:48:03.713Z</time>
      </trkpt>
      <trkpt lat="40.82004833" lon="-4.16939833">
        <ele>1188.0</ele>
        <time>2018-05-26T11:48:04.679Z</time>
      </trkpt>
      <trkpt lat="40.82005167" lon="-4.16931333">
        <ele>1188.0</ele>
        <time>2018-05-26T11:48:05.687Z</time>
      </trkpt>
      <trkpt lat="40.820055" lon="-4.16927167">
        <ele>1188.0</ele>
        <time>2018-05-26T11:48:06.706Z</time>
      </trkpt>
      <trkpt lat="40.820055" lon="-4.16927167">
        <ele>1188.0</ele>
        <time>2018-05-26T11:48:07.695Z</time>
      </trkpt>
      <trkpt lat="40.820065" lon="-4.169185">
        <ele>1189.0</ele>
        <time>2018-05-26T11:48:08.696Z</time>
      </trkpt>
      <trkpt lat="40.82007167" lon="-4.16914167">
        <ele>1189.0</ele>
        <time>2018-05-26T11:48:09.698Z</time>
      </trkpt>
      <trkpt lat="40.82007167" lon="-4.16914167">
        <ele>1189.0</ele>
        <time>2018-05-26T11:48:10.692Z</time>
      </trkpt>
      <trkpt lat="40.82008667" lon="-4.16905167">
        <ele>1189.0</ele>
        <time>2018-05-26T11:48:11.688Z</time>
      </trkpt>
      <trkpt lat="40.82008667" lon="-4.16905167">
        <ele>1189.0</ele>
        <time>2018-05-26T11:48:12.678Z</time>
      </trkpt>
      <trkpt lat="40.82010333" lon="-4.16894833">
        <ele>1189.0</ele>
        <time>2018-05-26T11:48:13.712Z</time>
      </trkpt>
      <trkpt lat="40.82010333" lon="-4.16894833">
        <ele>1189.0</ele>
        <time>2018-05-26T11:48:14.679Z</time>
      </trkpt>
      <trkpt lat="40.82011833" lon="-4.16884">
        <ele>1189.0</ele>
        <time>2018-05-26T11:48:15.686Z</time>
      </trkpt>
      <trkpt lat="40.82011833" lon="-4.16884">
        <ele>1189.0</ele>
        <time>2018-05-26T11:48:16.692Z</time>
      </trkpt>
      <trkpt lat="40.82013" lon="-4.16872667">
        <ele>1189.0</ele>
        <time>2018-05-26T11:48:17.677Z</time>
      </trkpt>
      <trkpt lat="40.82013" lon="-4.16872667">
        <ele>1189.0</ele>
        <time>2018-05-26T11:48:18.676Z</time>
      </trkpt>
      <trkpt lat="40.82011333" lon="-4.168615">
        <ele>1189.0</ele>
        <time>2018-05-26T11:48:19.688Z</time>
      </trkpt>
      <trkpt lat="40.82011333" lon="-4.168615">
        <ele>1189.0</ele>
        <time>2018-05-26T11:48:20.695Z</time>
      </trkpt>
      <trkpt lat="40.82006833" lon="-4.16852667">
        <ele>1189.0</ele>
        <time>2018-05-26T11:48:21.707Z</time>
      </trkpt>
      <trkpt lat="40.82006833" lon="-4.16852667">
        <ele>1189.0</ele>
        <time>2018-05-26T11:48:22.703Z</time>
      </trkpt>
      <trkpt lat="40.82003833" lon="-4.16844833">
        <ele>1190.0</ele>
        <time>2018-05-26T11:48:23.705Z</time>
      </trkpt>
      <trkpt lat="40.82003833" lon="-4.16844833">
        <ele>1190.0</ele>
        <time>2018-05-26T11:48:24.712Z</time>
      </trkpt>
      <trkpt lat="40.82001333" lon="-4.16837333">
        <ele>1190.0</ele>
        <time>2018-05-26T11:48:25.680Z</time>
      </trkpt>
      <trkpt lat="40.82001333" lon="-4.16837333">
        <ele>1190.0</ele>
        <time>2018-05-26T11:48:26.686Z</time>
      </trkpt>
      <trkpt lat="40.81998833" lon="-4.168295">
        <ele>1190.0</ele>
        <time>2018-05-26T11:48:27.699Z</time>
      </trkpt>
      <trkpt lat="40.81998833" lon="-4.168295">
        <ele>1190.0</ele>
        <time>2018-05-26T11:48:28.706Z</time>
      </trkpt>
      <trkpt lat="40.81996333" lon="-4.16822833">
        <ele>1191.0</ele>
        <time>2018-05-26T11:48:29.700Z</time>
      </trkpt>
      <trkpt lat="40.81995333" lon="-4.16820167">
        <ele>1191.0</ele>
        <time>2018-05-26T11:48:30.677Z</time>
      </trkpt>
      <trkpt lat="40.81994167" lon="-4.16817667">
        <ele>1192.0</ele>
        <time>2018-05-26T11:48:31.677Z</time>
      </trkpt>
      <trkpt lat="40.81994167" lon="-4.16817667">
        <ele>1192.0</ele>
        <time>2018-05-26T11:48:32.712Z</time>
      </trkpt>
      <trkpt lat="40.81991667" lon="-4.16813167">
        <ele>1192.0</ele>
        <time>2018-05-26T11:48:33.676Z</time>
      </trkpt>
      <trkpt lat="40.81991667" lon="-4.16813167">
        <ele>1192.0</ele>
        <time>2018-05-26T11:48:34.687Z</time>
      </trkpt>
      <trkpt lat="40.81989" lon="-4.16809">
        <ele>1193.0</ele>
        <time>2018-05-26T11:48:35.684Z</time>
      </trkpt>
      <trkpt lat="40.81989" lon="-4.16809">
        <ele>1193.0</ele>
        <time>2018-05-26T11:48:36.678Z</time>
      </trkpt>
      <trkpt lat="40.81986333" lon="-4.16804667">
        <ele>1194.0</ele>
        <time>2018-05-26T11:48:37.699Z</time>
      </trkpt>
      <trkpt lat="40.81986333" lon="-4.16804667">
        <ele>1194.0</ele>
        <time>2018-05-26T11:48:38.708Z</time>
      </trkpt>
      <trkpt lat="40.81983833" lon="-4.16800167">
        <ele>1195.0</ele>
        <time>2018-05-26T11:48:39.676Z</time>
      </trkpt>
      <trkpt lat="40.81983833" lon="-4.16800167">
        <ele>1195.0</ele>
        <time>2018-05-26T11:48:40.687Z</time>
      </trkpt>
      <trkpt lat="40.81981667" lon="-4.16795833">
        <ele>1195.0</ele>
        <time>2018-05-26T11:48:41.677Z</time>
      </trkpt>
      <trkpt lat="40.81981667" lon="-4.16795833">
        <ele>1195.0</ele>
        <time>2018-05-26T11:48:42.678Z</time>
      </trkpt>
      <trkpt lat="40.81979833" lon="-4.16791">
        <ele>1196.0</ele>
        <time>2018-05-26T11:48:43.714Z</time>
      </trkpt>
      <trkpt lat="40.81979833" lon="-4.16791">
        <ele>1196.0</ele>
        <time>2018-05-26T11:48:44.681Z</time>
      </trkpt>
      <trkpt lat="40.81978833" lon="-4.16785333">
        <ele>1196.0</ele>
        <time>2018-05-26T11:48:45.688Z</time>
      </trkpt>
      <trkpt lat="40.81978833" lon="-4.16785333">
        <ele>1196.0</ele>
        <time>2018-05-26T11:48:46.694Z</time>
      </trkpt>
      <trkpt lat="40.81979" lon="-4.16779">
        <ele>1196.0</ele>
        <time>2018-05-26T11:48:47.700Z</time>
      </trkpt>
      <trkpt lat="40.81979" lon="-4.16779">
        <ele>1196.0</ele>
        <time>2018-05-26T11:48:48.712Z</time>
      </trkpt>
      <trkpt lat="40.8198" lon="-4.16771667">
        <ele>1197.0</ele>
        <time>2018-05-26T11:48:49.681Z</time>
      </trkpt>
      <trkpt lat="40.81980833" lon="-4.16768">
        <ele>1197.0</ele>
        <time>2018-05-26T11:48:50.690Z</time>
      </trkpt>
      <trkpt lat="40.81980833" lon="-4.16768">
        <ele>1197.0</ele>
        <time>2018-05-26T11:48:51.703Z</time>
      </trkpt>
      <trkpt lat="40.81981833" lon="-4.16760833">
        <ele>1198.0</ele>
        <time>2018-05-26T11:48:52.712Z</time>
      </trkpt>
      <trkpt lat="40.81981833" lon="-4.16760833">
        <ele>1198.0</ele>
        <time>2018-05-26T11:48:53.680Z</time>
      </trkpt>
      <trkpt lat="40.81982" lon="-4.16753333">
        <ele>1198.0</ele>
        <time>2018-05-26T11:48:54.699Z</time>
      </trkpt>
      <trkpt lat="40.81982" lon="-4.16753333">
        <ele>1198.0</ele>
        <time>2018-05-26T11:48:55.708Z</time>
      </trkpt>
      <trkpt lat="40.81982" lon="-4.167455">
        <ele>1198.0</ele>
        <time>2018-05-26T11:48:56.675Z</time>
      </trkpt>
      <trkpt lat="40.81981667" lon="-4.167415">
        <ele>1198.0</ele>
        <time>2018-05-26T11:48:57.677Z</time>
      </trkpt>
      <trkpt lat="40.81981667" lon="-4.167415">
        <ele>1198.0</ele>
        <time>2018-05-26T11:48:58.676Z</time>
      </trkpt>
      <trkpt lat="40.81980667" lon="-4.167335">
        <ele>1199.0</ele>
        <time>2018-05-26T11:48:59.703Z</time>
      </trkpt>
      <trkpt lat="40.81980667" lon="-4.167335">
        <ele>1199.0</ele>
        <time>2018-05-26T11:49:00.691Z</time>
      </trkpt>
      <trkpt lat="40.81979833" lon="-4.16725667">
        <ele>1199.0</ele>
        <time>2018-05-26T11:49:01.707Z</time>
      </trkpt>
      <trkpt lat="40.819795" lon="-4.16721833">
        <ele>1199.0</ele>
        <time>2018-05-26T11:49:02.677Z</time>
      </trkpt>
      <trkpt lat="40.81979167" lon="-4.16718">
        <ele>1199.0</ele>
        <time>2018-05-26T11:49:03.676Z</time>
      </trkpt>
      <trkpt lat="40.81979167" lon="-4.16718">
        <ele>1199.0</ele>
        <time>2018-05-26T11:49:04.678Z</time>
      </trkpt>
      <trkpt lat="40.81979167" lon="-4.167105">
        <ele>1200.0</ele>
        <time>2018-05-26T11:49:05.682Z</time>
      </trkpt>
      <trkpt lat="40.81979167" lon="-4.167105">
        <ele>1200.0</ele>
        <time>2018-05-26T11:49:06.680Z</time>
      </trkpt>
      <trkpt lat="40.81979667" lon="-4.167025">
        <ele>1200.0</ele>
        <time>2018-05-26T11:49:07.677Z</time>
      </trkpt>
      <trkpt lat="40.81979833" lon="-4.16698167">
        <ele>1200.0</ele>
        <time>2018-05-26T11:49:08.706Z</time>
      </trkpt>
      <trkpt lat="40.81979833" lon="-4.16698167">
        <ele>1200.0</ele>
        <time>2018-05-26T11:49:09.713Z</time>
      </trkpt>
      <trkpt lat="40.81980667" lon="-4.16689167">
        <ele>1200.0</ele>
        <time>2018-05-26T11:49:10.688Z</time>
      </trkpt>
      <trkpt lat="40.81980667" lon="-4.16689167">
        <ele>1200.0</ele>
        <time>2018-05-26T11:49:11.682Z</time>
      </trkpt>
      <trkpt lat="40.81981667" lon="-4.1668">
        <ele>1201.0</ele>
        <time>2018-05-26T11:49:12.708Z</time>
      </trkpt>
      <trkpt lat="40.81981667" lon="-4.1668">
        <ele>1201.0</ele>
        <time>2018-05-26T11:49:13.675Z</time>
      </trkpt>
      <trkpt lat="40.81981833" lon="-4.16671">
        <ele>1201.0</ele>
        <time>2018-05-26T11:49:14.707Z</time>
      </trkpt>
      <trkpt lat="40.819815" lon="-4.166665">
        <ele>1201.0</ele>
        <time>2018-05-26T11:49:15.675Z</time>
      </trkpt>
      <trkpt lat="40.819815" lon="-4.166665">
        <ele>1201.0</ele>
        <time>2018-05-26T11:49:16.682Z</time>
      </trkpt>
      <trkpt lat="40.81980833" lon="-4.16658">
        <ele>1201.0</ele>
        <time>2018-05-26T11:49:17.690Z</time>
      </trkpt>
      <trkpt lat="40.81980833" lon="-4.16658">
        <ele>1201.0</ele>
        <time>2018-05-26T11:49:18.698Z</time>
      </trkpt>
      <trkpt lat="40.81979833" lon="-4.16649833">
        <ele>1201.0</ele>
        <time>2018-05-26T11:49:19.711Z</time>
      </trkpt>
      <trkpt lat="40.81979833" lon="-4.16649833">
        <ele>1201.0</ele>
        <time>2018-05-26T11:49:20.696Z</time>
      </trkpt>
      <trkpt lat="40.81979" lon="-4.16641833">
        <ele>1202.0</ele>
        <time>2018-05-26T11:49:21.701Z</time>
      </trkpt>
      <trkpt lat="40.81979" lon="-4.16641833">
        <ele>1202.0</ele>
        <time>2018-05-26T11:49:22.711Z</time>
      </trkpt>
      <trkpt lat="40.81978333" lon="-4.16634333">
        <ele>1202.0</ele>
        <time>2018-05-26T11:49:23.680Z</time>
      </trkpt>
      <trkpt lat="40.81978167" lon="-4.16630667">
        <ele>1202.0</ele>
        <time>2018-05-26T11:49:24.711Z</time>
      </trkpt>
      <trkpt lat="40.81978167" lon="-4.16630667">
        <ele>1202.0</ele>
        <time>2018-05-26T11:49:25.675Z</time>
      </trkpt>
      <trkpt lat="40.819785" lon="-4.16623167">
        <ele>1202.0</ele>
        <time>2018-05-26T11:49:26.705Z</time>
      </trkpt>
      <trkpt lat="40.81978833" lon="-4.16619167">
        <ele>1202.0</ele>
        <time>2018-05-26T11:49:27.694Z</time>
      </trkpt>
      <trkpt lat="40.81978833" lon="-4.16619167">
        <ele>1202.0</ele>
        <time>2018-05-26T11:49:28.702Z</time>
      </trkpt>
      <trkpt lat="40.81979667" lon="-4.16611333">
        <ele>1203.0</ele>
        <time>2018-05-26T11:49:29.697Z</time>
      </trkpt>
      <trkpt lat="40.819805" lon="-4.166075">
        <ele>1203.0</ele>
        <time>2018-05-26T11:49:30.678Z</time>
      </trkpt>
      <trkpt lat="40.819805" lon="-4.166075">
        <ele>1203.0</ele>
        <time>2018-05-26T11:49:31.684Z</time>
      </trkpt>
      <trkpt lat="40.81982" lon="-4.16599667">
        <ele>1203.0</ele>
        <time>2018-05-26T11:49:32.709Z</time>
      </trkpt>
      <trkpt lat="40.81982833" lon="-4.16595667">
        <ele>1202.0</ele>
        <time>2018-05-26T11:49:33.709Z</time>
      </trkpt>
      <trkpt lat="40.81982833" lon="-4.16595667">
        <ele>1202.0</ele>
        <time>2018-05-26T11:49:34.675Z</time>
      </trkpt>
      <trkpt lat="40.81984833" lon="-4.16587">
        <ele>1202.0</ele>
        <time>2018-05-26T11:49:35.682Z</time>
      </trkpt>
      <trkpt lat="40.81986167" lon="-4.16582667">
        <ele>1202.0</ele>
        <time>2018-05-26T11:49:36.699Z</time>
      </trkpt>
      <trkpt lat="40.81986167" lon="-4.16582667">
        <ele>1202.0</ele>
        <time>2018-05-26T11:49:37.709Z</time>
      </trkpt>
      <trkpt lat="40.81989333" lon="-4.16574">
        <ele>1202.0</ele>
        <time>2018-05-26T11:49:38.676Z</time>
      </trkpt>
      <trkpt lat="40.81990833" lon="-4.16569667">
        <ele>1202.0</ele>
        <time>2018-05-26T11:49:39.702Z</time>
      </trkpt>
      <trkpt lat="40.81990833" lon="-4.16569667">
        <ele>1202.0</ele>
        <time>2018-05-26T11:49:40.711Z</time>
      </trkpt>
      <trkpt lat="40.81993833" lon="-4.16559833">
        <ele>1202.0</ele>
        <time>2018-05-26T11:49:41.681Z</time>
      </trkpt>
      <trkpt lat="40.81993833" lon="-4.16559833">
        <ele>1202.0</ele>
        <time>2018-05-26T11:49:42.687Z</time>
      </trkpt>
      <trkpt lat="40.81997333" lon="-4.16548">
        <ele>1201.0</ele>
        <time>2018-05-26T11:49:43.708Z</time>
      </trkpt>
      <trkpt lat="40.81997333" lon="-4.16548">
        <ele>1201.0</ele>
        <time>2018-05-26T11:49:44.714Z</time>
      </trkpt>
      <trkpt lat="40.82001833" lon="-4.16536667">
        <ele>1201.0</ele>
        <time>2018-05-26T11:49:45.682Z</time>
      </trkpt>
      <trkpt lat="40.82001833" lon="-4.16536667">
        <ele>1201.0</ele>
        <time>2018-05-26T11:49:46.689Z</time>
      </trkpt>
      <trkpt lat="40.82007167" lon="-4.16525833">
        <ele>1201.0</ele>
        <time>2018-05-26T11:49:47.682Z</time>
      </trkpt>
      <trkpt lat="40.82007167" lon="-4.16525833">
        <ele>1201.0</ele>
        <time>2018-05-26T11:49:48.676Z</time>
      </trkpt>
      <trkpt lat="40.82010833" lon="-4.16514167">
        <ele>1202.0</ele>
        <time>2018-05-26T11:49:49.677Z</time>
      </trkpt>
      <trkpt lat="40.82010833" lon="-4.16514167">
        <ele>1202.0</ele>
        <time>2018-05-26T11:49:50.677Z</time>
      </trkpt>
      <trkpt lat="40.82010667" lon="-4.16502167">
        <ele>1202.0</ele>
        <time>2018-05-26T11:49:51.698Z</time>
      </trkpt>
      <trkpt lat="40.82010667" lon="-4.16502167">
        <ele>1202.0</ele>
        <time>2018-05-26T11:49:52.705Z</time>
      </trkpt>
      <trkpt lat="40.82008" lon="-4.16493833">
        <ele>1204.0</ele>
        <time>2018-05-26T11:49:53.680Z</time>
      </trkpt>
      <trkpt lat="40.820065" lon="-4.16490833">
        <ele>1204.0</ele>
        <time>2018-05-26T11:49:54.704Z</time>
      </trkpt>
      <trkpt lat="40.820065" lon="-4.16490833">
        <ele>1204.0</ele>
        <time>2018-05-26T11:49:55.692Z</time>
      </trkpt>
      <trkpt lat="40.82003167" lon="-4.16484167">
        <ele>1205.0</ele>
        <time>2018-05-26T11:49:56.713Z</time>
      </trkpt>
      <trkpt lat="40.820015" lon="-4.16480833">
        <ele>1205.0</ele>
        <time>2018-05-26T11:49:57.696Z</time>
      </trkpt>
      <trkpt lat="40.820015" lon="-4.16480833">
        <ele>1205.0</ele>
        <time>2018-05-26T11:49:58.711Z</time>
      </trkpt>
      <trkpt lat="40.81998667" lon="-4.16474333">
        <ele>1205.0</ele>
        <time>2018-05-26T11:49:59.697Z</time>
      </trkpt>
      <trkpt lat="40.819975" lon="-4.16470833">
        <ele>1206.0</ele>
        <time>2018-05-26T11:50:00.676Z</time>
      </trkpt>
      <trkpt lat="40.819975" lon="-4.16470833">
        <ele>1206.0</ele>
        <time>2018-05-26T11:50:01.682Z</time>
      </trkpt>
      <trkpt lat="40.81996167" lon="-4.16463">
        <ele>1206.0</ele>
        <time>2018-05-26T11:50:02.689Z</time>
      </trkpt>
      <trkpt lat="40.81996" lon="-4.16459">
        <ele>1206.0</ele>
        <time>2018-05-26T11:50:03.688Z</time>
      </trkpt>
      <trkpt lat="40.81996" lon="-4.16459">
        <ele>1206.0</ele>
        <time>2018-05-26T11:50:04.694Z</time>
      </trkpt>
      <trkpt lat="40.81996333" lon="-4.164505">
        <ele>1206.0</ele>
        <time>2018-05-26T11:50:05.701Z</time>
      </trkpt>
      <trkpt lat="40.81996333" lon="-4.164505">
        <ele>1206.0</ele>
        <time>2018-05-26T11:50:06.678Z</time>
      </trkpt>
      <trkpt lat="40.81997" lon="-4.16441333">
        <ele>1206.0</ele>
        <time>2018-05-26T11:50:07.690Z</time>
      </trkpt>
      <trkpt lat="40.819975" lon="-4.164365">
        <ele>1206.0</ele>
        <time>2018-05-26T11:50:08.704Z</time>
      </trkpt>
      <trkpt lat="40.819975" lon="-4.164365">
        <ele>1206.0</ele>
        <time>2018-05-26T11:50:09.712Z</time>
      </trkpt>
      <trkpt lat="40.819985" lon="-4.16426833">
        <ele>1206.0</ele>
        <time>2018-05-26T11:50:10.679Z</time>
      </trkpt>
      <trkpt lat="40.819985" lon="-4.16426833">
        <ele>1206.0</ele>
        <time>2018-05-26T11:50:11.685Z</time>
      </trkpt>
      <trkpt lat="40.819995" lon="-4.16417167">
        <ele>1206.0</ele>
        <time>2018-05-26T11:50:12.687Z</time>
      </trkpt>
      <trkpt lat="40.819995" lon="-4.16417167">
        <ele>1206.0</ele>
        <time>2018-05-26T11:50:13.695Z</time>
      </trkpt>
      <trkpt lat="40.82001333" lon="-4.16407167">
        <ele>1206.0</ele>
        <time>2018-05-26T11:50:14.707Z</time>
      </trkpt>
      <trkpt lat="40.82002833" lon="-4.16402333">
        <ele>1206.0</ele>
        <time>2018-05-26T11:50:15.714Z</time>
      </trkpt>
      <trkpt lat="40.82002833" lon="-4.16402333">
        <ele>1206.0</ele>
        <time>2018-05-26T11:50:16.676Z</time>
      </trkpt>
      <trkpt lat="40.82008333" lon="-4.16394">
        <ele>1206.0</ele>
        <time>2018-05-26T11:50:17.675Z</time>
      </trkpt>
      <trkpt lat="40.82008333" lon="-4.16394">
        <ele>1206.0</ele>
        <time>2018-05-26T11:50:18.681Z</time>
      </trkpt>
      <trkpt lat="40.82016333" lon="-4.16388667">
        <ele>1206.0</ele>
        <time>2018-05-26T11:50:19.697Z</time>
      </trkpt>
      <trkpt lat="40.82016333" lon="-4.16388667">
        <ele>1206.0</ele>
        <time>2018-05-26T11:50:20.705Z</time>
      </trkpt>
      <trkpt lat="40.82026167" lon="-4.16385667">
        <ele>1205.0</ele>
        <time>2018-05-26T11:50:21.708Z</time>
      </trkpt>
      <trkpt lat="40.82026167" lon="-4.16385667">
        <ele>1205.0</ele>
        <time>2018-05-26T11:50:22.713Z</time>
      </trkpt>
      <trkpt lat="40.820365" lon="-4.1638">
        <ele>1204.0</ele>
        <time>2018-05-26T11:50:23.680Z</time>
      </trkpt>
      <trkpt lat="40.82040667" lon="-4.16374333">
        <ele>1204.0</ele>
        <time>2018-05-26T11:50:24.701Z</time>
      </trkpt>
      <trkpt lat="40.82040667" lon="-4.16374333">
        <ele>1204.0</ele>
        <time>2018-05-26T11:50:25.707Z</time>
      </trkpt>
      <trkpt lat="40.82045" lon="-4.16360167">
        <ele>1204.0</ele>
        <time>2018-05-26T11:50:26.690Z</time>
      </trkpt>
      <trkpt lat="40.82045833" lon="-4.16352833">
        <ele>1204.0</ele>
        <time>2018-05-26T11:50:27.675Z</time>
      </trkpt>
      <trkpt lat="40.82045833" lon="-4.16352833">
        <ele>1204.0</ele>
        <time>2018-05-26T11:50:28.682Z</time>
      </trkpt>
      <trkpt lat="40.82046333" lon="-4.16339167">
        <ele>1204.0</ele>
        <time>2018-05-26T11:50:29.689Z</time>
      </trkpt>
      <trkpt lat="40.82046333" lon="-4.16339167">
        <ele>1204.0</ele>
        <time>2018-05-26T11:50:30.695Z</time>
      </trkpt>
      <trkpt lat="40.82046333" lon="-4.16326167">
        <ele>1204.0</ele>
        <time>2018-05-26T11:50:31.713Z</time>
      </trkpt>
      <trkpt lat="40.82046333" lon="-4.16326167">
        <ele>1204.0</ele>
        <time>2018-05-26T11:50:32.694Z</time>
      </trkpt>
      <trkpt lat="40.82046333" lon="-4.16312167">
        <ele>1203.0</ele>
        <time>2018-05-26T11:50:33.708Z</time>
      </trkpt>
      <trkpt lat="40.82046333" lon="-4.16312167">
        <ele>1203.0</ele>
        <time>2018-05-26T11:50:34.696Z</time>
      </trkpt>
      <trkpt lat="40.82047833" lon="-4.16297">
        <ele>1202.0</ele>
        <time>2018-05-26T11:50:35.708Z</time>
      </trkpt>
      <trkpt lat="40.82047833" lon="-4.16297">
        <ele>1202.0</ele>
        <time>2018-05-26T11:50:36.714Z</time>
      </trkpt>
      <trkpt lat="40.82050667" lon="-4.16282333">
        <ele>1202.0</ele>
        <time>2018-05-26T11:50:37.682Z</time>
      </trkpt>
      <trkpt lat="40.82050667" lon="-4.16282333">
        <ele>1202.0</ele>
        <time>2018-05-26T11:50:38.688Z</time>
      </trkpt>
      <trkpt lat="40.820525" lon="-4.16269667">
        <ele>1203.0</ele>
        <time>2018-05-26T11:50:39.698Z</time>
      </trkpt>
      <trkpt lat="40.820525" lon="-4.16269667">
        <ele>1203.0</ele>
        <time>2018-05-26T11:50:40.709Z</time>
      </trkpt>
      <trkpt lat="40.82054333" lon="-4.162605">
        <ele>1204.0</ele>
        <time>2018-05-26T11:50:41.676Z</time>
      </trkpt>
      <trkpt lat="40.82054333" lon="-4.162605">
        <ele>1204.0</ele>
        <time>2018-05-26T11:50:42.683Z</time>
      </trkpt>
      <trkpt lat="40.82054" lon="-4.16252167">
        <ele>1205.0</ele>
        <time>2018-05-26T11:50:43.707Z</time>
      </trkpt>
      <trkpt lat="40.82054" lon="-4.16252167">
        <ele>1205.0</ele>
        <time>2018-05-26T11:50:44.713Z</time>
      </trkpt>
      <trkpt lat="40.82053167" lon="-4.162435">
        <ele>1205.0</ele>
        <time>2018-05-26T11:50:45.679Z</time>
      </trkpt>
      <trkpt lat="40.82053167" lon="-4.162435">
        <ele>1205.0</ele>
        <time>2018-05-26T11:50:46.689Z</time>
      </trkpt>
      <trkpt lat="40.82051833" lon="-4.16234833">
        <ele>1205.0</ele>
        <time>2018-05-26T11:50:47.699Z</time>
      </trkpt>
      <trkpt lat="40.82051833" lon="-4.16234833">
        <ele>1205.0</ele>
        <time>2018-05-26T11:50:48.709Z</time>
      </trkpt>
      <trkpt lat="40.82050667" lon="-4.16225167">
        <ele>1206.0</ele>
        <time>2018-05-26T11:50:49.712Z</time>
      </trkpt>
      <trkpt lat="40.82050333" lon="-4.16219833">
        <ele>1206.0</ele>
        <time>2018-05-26T11:50:50.699Z</time>
      </trkpt>
      <trkpt lat="40.82050667" lon="-4.16214833">
        <ele>1206.0</ele>
        <time>2018-05-26T11:50:51.706Z</time>
      </trkpt>
      <trkpt lat="40.82050667" lon="-4.16214833">
        <ele>1206.0</ele>
        <time>2018-05-26T11:50:52.713Z</time>
      </trkpt>
      <trkpt lat="40.82052167" lon="-4.162045">
        <ele>1206.0</ele>
        <time>2018-05-26T11:50:53.689Z</time>
      </trkpt>
      <trkpt lat="40.82052167" lon="-4.162045">
        <ele>1206.0</ele>
        <time>2018-05-26T11:50:54.695Z</time>
      </trkpt>
      <trkpt lat="40.820545" lon="-4.16195">
        <ele>1207.0</ele>
        <time>2018-05-26T11:50:55.702Z</time>
      </trkpt>
      <trkpt lat="40.82056" lon="-4.16190833">
        <ele>1207.0</ele>
        <time>2018-05-26T11:50:56.695Z</time>
      </trkpt>
      <trkpt lat="40.82056" lon="-4.16190833">
        <ele>1207.0</ele>
        <time>2018-05-26T11:50:57.702Z</time>
      </trkpt>
      <trkpt lat="40.82059333" lon="-4.16183">
        <ele>1207.0</ele>
        <time>2018-05-26T11:50:58.711Z</time>
      </trkpt>
      <trkpt lat="40.82061" lon="-4.16178833">
        <ele>1208.0</ele>
        <time>2018-05-26T11:50:59.706Z</time>
      </trkpt>
      <trkpt lat="40.82061" lon="-4.16178833">
        <ele>1208.0</ele>
        <time>2018-05-26T11:51:00.713Z</time>
      </trkpt>
      <trkpt lat="40.82064833" lon="-4.16170667">
        <ele>1208.0</ele>
        <time>2018-05-26T11:51:01.680Z</time>
      </trkpt>
      <trkpt lat="40.82064833" lon="-4.16170667">
        <ele>1208.0</ele>
        <time>2018-05-26T11:51:02.686Z</time>
      </trkpt>
      <trkpt lat="40.82068833" lon="-4.16162833">
        <ele>1208.0</ele>
        <time>2018-05-26T11:51:03.678Z</time>
      </trkpt>
      <trkpt lat="40.82068833" lon="-4.16162833">
        <ele>1208.0</ele>
        <time>2018-05-26T11:51:04.684Z</time>
      </trkpt>
      <trkpt lat="40.82072667" lon="-4.16154667">
        <ele>1208.0</ele>
        <time>2018-05-26T11:51:05.704Z</time>
      </trkpt>
      <trkpt lat="40.82074333" lon="-4.16150667">
        <ele>1209.0</ele>
        <time>2018-05-26T11:51:06.677Z</time>
      </trkpt>
      <trkpt lat="40.82074333" lon="-4.16150667">
        <ele>1209.0</ele>
        <time>2018-05-26T11:51:07.677Z</time>
      </trkpt>
      <trkpt lat="40.82078" lon="-4.16142833">
        <ele>1209.0</ele>
        <time>2018-05-26T11:51:08.707Z</time>
      </trkpt>
      <trkpt lat="40.82078" lon="-4.16142833">
        <ele>1209.0</ele>
        <time>2018-05-26T11:51:09.714Z</time>
      </trkpt>
      <trkpt lat="40.82081667" lon="-4.16135167">
        <ele>1210.0</ele>
        <time>2018-05-26T11:51:10.680Z</time>
      </trkpt>
      <trkpt lat="40.820835" lon="-4.161315">
        <ele>1210.0</ele>
        <time>2018-05-26T11:51:11.700Z</time>
      </trkpt>
      <trkpt lat="40.82085" lon="-4.16128">
        <ele>1211.0</ele>
        <time>2018-05-26T11:51:12.710Z</time>
      </trkpt>
      <trkpt lat="40.82085" lon="-4.16128">
        <ele>1211.0</ele>
        <time>2018-05-26T11:51:13.676Z</time>
      </trkpt>
      <trkpt lat="40.820875" lon="-4.16122667">
        <ele>1211.0</ele>
        <time>2018-05-26T11:51:14.687Z</time>
      </trkpt>
      <trkpt lat="40.82088667" lon="-4.16120333">
        <ele>1212.0</ele>
        <time>2018-05-26T11:51:15.707Z</time>
      </trkpt>
      <trkpt lat="40.82088667" lon="-4.16120333">
        <ele>1212.0</ele>
        <time>2018-05-26T11:51:16.714Z</time>
      </trkpt>
      <trkpt lat="40.82091" lon="-4.16115333">
        <ele>1212.0</ele>
        <time>2018-05-26T11:51:17.681Z</time>
      </trkpt>
      <trkpt lat="40.82091" lon="-4.16115333">
        <ele>1212.0</ele>
        <time>2018-05-26T11:51:18.686Z</time>
      </trkpt>
      <trkpt lat="40.820935" lon="-4.161105">
        <ele>1213.0</ele>
        <time>2018-05-26T11:51:19.677Z</time>
      </trkpt>
      <trkpt lat="40.820935" lon="-4.161105">
        <ele>1213.0</ele>
        <time>2018-05-26T11:51:20.683Z</time>
      </trkpt>
      <trkpt lat="40.820955" lon="-4.16104833">
        <ele>1214.0</ele>
        <time>2018-05-26T11:51:21.690Z</time>
      </trkpt>
      <trkpt lat="40.820955" lon="-4.16104833">
        <ele>1214.0</ele>
        <time>2018-05-26T11:51:22.696Z</time>
      </trkpt>
      <trkpt lat="40.82097333" lon="-4.16098833">
        <ele>1214.0</ele>
        <time>2018-05-26T11:51:23.708Z</time>
      </trkpt>
      <trkpt lat="40.82097333" lon="-4.16098833">
        <ele>1214.0</ele>
        <time>2018-05-26T11:51:24.675Z</time>
      </trkpt>
      <trkpt lat="40.82099167" lon="-4.16092833">
        <ele>1214.0</ele>
        <time>2018-05-26T11:51:25.682Z</time>
      </trkpt>
      <trkpt lat="40.82099667" lon="-4.16089667">
        <ele>1215.0</ele>
        <time>2018-05-26T11:51:26.698Z</time>
      </trkpt>
      <trkpt lat="40.821" lon="-4.16086">
        <ele>1215.0</ele>
        <time>2018-05-26T11:51:27.694Z</time>
      </trkpt>
      <trkpt lat="40.821" lon="-4.16086">
        <ele>1215.0</ele>
        <time>2018-05-26T11:51:28.700Z</time>
      </trkpt>
      <trkpt lat="40.82101167" lon="-4.16078167">
        <ele>1216.0</ele>
        <time>2018-05-26T11:51:29.689Z</time>
      </trkpt>
      <trkpt lat="40.82102" lon="-4.16074167">
        <ele>1216.0</ele>
        <time>2018-05-26T11:51:30.705Z</time>
      </trkpt>
      <trkpt lat="40.82103167" lon="-4.16070333">
        <ele>1216.0</ele>
        <time>2018-05-26T11:51:31.677Z</time>
      </trkpt>
      <trkpt lat="40.82103167" lon="-4.16070333">
        <ele>1216.0</ele>
        <time>2018-05-26T11:51:32.693Z</time>
      </trkpt>
      <trkpt lat="40.82105" lon="-4.16062667">
        <ele>1216.0</ele>
        <time>2018-05-26T11:51:33.700Z</time>
      </trkpt>
      <trkpt lat="40.82105" lon="-4.16062667">
        <ele>1216.0</ele>
        <time>2018-05-26T11:51:34.706Z</time>
      </trkpt>
      <trkpt lat="40.82107" lon="-4.16054333">
        <ele>1217.0</ele>
        <time>2018-05-26T11:51:35.713Z</time>
      </trkpt>
      <trkpt lat="40.82107" lon="-4.16054333">
        <ele>1217.0</ele>
        <time>2018-05-26T11:51:36.678Z</time>
      </trkpt>
      <trkpt lat="40.82109167" lon="-4.16046">
        <ele>1217.0</ele>
        <time>2018-05-26T11:51:37.678Z</time>
      </trkpt>
      <trkpt lat="40.82110167" lon="-4.16041667">
        <ele>1217.0</ele>
        <time>2018-05-26T11:51:38.684Z</time>
      </trkpt>
      <trkpt lat="40.82110167" lon="-4.16041667">
        <ele>1217.0</ele>
        <time>2018-05-26T11:51:39.691Z</time>
      </trkpt>
      <trkpt lat="40.82112" lon="-4.16032167">
        <ele>1217.0</ele>
        <time>2018-05-26T11:51:40.680Z</time>
      </trkpt>
      <trkpt lat="40.82112" lon="-4.16032167">
        <ele>1217.0</ele>
        <time>2018-05-26T11:51:41.685Z</time>
      </trkpt>
      <trkpt lat="40.82113167" lon="-4.160225">
        <ele>1217.0</ele>
        <time>2018-05-26T11:51:42.705Z</time>
      </trkpt>
      <trkpt lat="40.82113667" lon="-4.16017333">
        <ele>1217.0</ele>
        <time>2018-05-26T11:51:43.703Z</time>
      </trkpt>
      <trkpt lat="40.82113667" lon="-4.16017333">
        <ele>1217.0</ele>
        <time>2018-05-26T11:51:44.711Z</time>
      </trkpt>
      <trkpt lat="40.82115" lon="-4.16007333">
        <ele>1217.0</ele>
        <time>2018-05-26T11:51:45.678Z</time>
      </trkpt>
      <trkpt lat="40.82115" lon="-4.16007333">
        <ele>1217.0</ele>
        <time>2018-05-26T11:51:46.683Z</time>
      </trkpt>
      <trkpt lat="40.82116667" lon="-4.159975">
        <ele>1217.0</ele>
        <time>2018-05-26T11:51:47.678Z</time>
      </trkpt>
      <trkpt lat="40.82116667" lon="-4.159975">
        <ele>1217.0</ele>
        <time>2018-05-26T11:51:48.684Z</time>
      </trkpt>
      <trkpt lat="40.82118833" lon="-4.15988">
        <ele>1217.0</ele>
        <time>2018-05-26T11:51:49.692Z</time>
      </trkpt>
      <trkpt lat="40.82118833" lon="-4.15988">
        <ele>1217.0</ele>
        <time>2018-05-26T11:51:50.701Z</time>
      </trkpt>
      <trkpt lat="40.82121167" lon="-4.159785">
        <ele>1217.0</ele>
        <time>2018-05-26T11:51:51.688Z</time>
      </trkpt>
      <trkpt lat="40.82121167" lon="-4.159785">
        <ele>1217.0</ele>
        <time>2018-05-26T11:51:52.694Z</time>
      </trkpt>
      <trkpt lat="40.82124333" lon="-4.1597">
        <ele>1218.0</ele>
        <time>2018-05-26T11:51:53.708Z</time>
      </trkpt>
      <trkpt lat="40.82124333" lon="-4.1597">
        <ele>1218.0</ele>
        <time>2018-05-26T11:51:54.676Z</time>
      </trkpt>
      <trkpt lat="40.82128167" lon="-4.15962833">
        <ele>1218.0</ele>
        <time>2018-05-26T11:51:55.710Z</time>
      </trkpt>
      <trkpt lat="40.82128167" lon="-4.15962833">
        <ele>1218.0</ele>
        <time>2018-05-26T11:51:56.676Z</time>
      </trkpt>
      <trkpt lat="40.82131667" lon="-4.15955833">
        <ele>1218.0</ele>
        <time>2018-05-26T11:51:57.685Z</time>
      </trkpt>
      <trkpt lat="40.82131667" lon="-4.15955833">
        <ele>1218.0</ele>
        <time>2018-05-26T11:51:58.692Z</time>
      </trkpt>
      <trkpt lat="40.82134833" lon="-4.15949">
        <ele>1219.0</ele>
        <time>2018-05-26T11:51:59.713Z</time>
      </trkpt>
      <trkpt lat="40.82134833" lon="-4.15949">
        <ele>1219.0</ele>
        <time>2018-05-26T11:52:00.680Z</time>
      </trkpt>
      <trkpt lat="40.82138" lon="-4.159425">
        <ele>1220.0</ele>
        <time>2018-05-26T11:52:01.686Z</time>
      </trkpt>
      <trkpt lat="40.82139667" lon="-4.159395">
        <ele>1221.0</ele>
        <time>2018-05-26T11:52:02.679Z</time>
      </trkpt>
      <trkpt lat="40.82141333" lon="-4.159365">
        <ele>1221.0</ele>
        <time>2018-05-26T11:52:03.688Z</time>
      </trkpt>
      <trkpt lat="40.82141333" lon="-4.159365">
        <ele>1221.0</ele>
        <time>2018-05-26T11:52:04.694Z</time>
      </trkpt>
      <trkpt lat="40.82144833" lon="-4.15929667">
        <ele>1221.0</ele>
        <time>2018-05-26T11:52:05.678Z</time>
      </trkpt>
      <trkpt lat="40.82144833" lon="-4.15929667">
        <ele>1221.0</ele>
        <time>2018-05-26T11:52:06.683Z</time>
      </trkpt>
      <trkpt lat="40.82147667" lon="-4.15921833">
        <ele>1221.0</ele>
        <time>2018-05-26T11:52:07.690Z</time>
      </trkpt>
      <trkpt lat="40.82147667" lon="-4.15921833">
        <ele>1221.0</ele>
        <time>2018-05-26T11:52:08.696Z</time>
      </trkpt>
      <trkpt lat="40.82150167" lon="-4.15913167">
        <ele>1221.0</ele>
        <time>2018-05-26T11:52:09.676Z</time>
      </trkpt>
      <trkpt lat="40.82150167" lon="-4.15913167">
        <ele>1221.0</ele>
        <time>2018-05-26T11:52:10.683Z</time>
      </trkpt>
      <trkpt lat="40.82152833" lon="-4.15903667">
        <ele>1221.0</ele>
        <time>2018-05-26T11:52:11.690Z</time>
      </trkpt>
      <trkpt lat="40.82154333" lon="-4.15898667">
        <ele>1221.0</ele>
        <time>2018-05-26T11:52:12.710Z</time>
      </trkpt>
      <trkpt lat="40.82154333" lon="-4.15898667">
        <ele>1221.0</ele>
        <time>2018-05-26T11:52:13.704Z</time>
      </trkpt>
      <trkpt lat="40.82156333" lon="-4.15889">
        <ele>1221.0</ele>
        <time>2018-05-26T11:52:14.698Z</time>
      </trkpt>
      <trkpt lat="40.82157167" lon="-4.158845">
        <ele>1221.0</ele>
        <time>2018-05-26T11:52:15.714Z</time>
      </trkpt>
      <trkpt lat="40.82157167" lon="-4.158845">
        <ele>1221.0</ele>
        <time>2018-05-26T11:52:16.681Z</time>
      </trkpt>
      <trkpt lat="40.82158" lon="-4.15875667">
        <ele>1220.0</ele>
        <time>2018-05-26T11:52:17.705Z</time>
      </trkpt>
      <trkpt lat="40.82158" lon="-4.15875667">
        <ele>1220.0</ele>
        <time>2018-05-26T11:52:18.712Z</time>
      </trkpt>
      <trkpt lat="40.821575" lon="-4.15866333">
        <ele>1220.0</ele>
        <time>2018-05-26T11:52:19.678Z</time>
      </trkpt>
      <trkpt lat="40.82157333" lon="-4.158615">
        <ele>1220.0</ele>
        <time>2018-05-26T11:52:20.701Z</time>
      </trkpt>
      <trkpt lat="40.82157167" lon="-4.158565">
        <ele>1220.0</ele>
        <time>2018-05-26T11:52:21.707Z</time>
      </trkpt>
      <trkpt lat="40.82157167" lon="-4.158565">
        <ele>1220.0</ele>
        <time>2018-05-26T11:52:22.714Z</time>
      </trkpt>
      <trkpt lat="40.821575" lon="-4.15846167">
        <ele>1220.0</ele>
        <time>2018-05-26T11:52:23.684Z</time>
      </trkpt>
      <trkpt lat="40.82157667" lon="-4.15841167">
        <ele>1220.0</ele>
        <time>2018-05-26T11:52:24.690Z</time>
      </trkpt>
      <trkpt lat="40.82157667" lon="-4.15841167">
        <ele>1220.0</ele>
        <time>2018-05-26T11:52:25.696Z</time>
      </trkpt>
      <trkpt lat="40.82158" lon="-4.15830667">
        <ele>1220.0</ele>
        <time>2018-05-26T11:52:26.708Z</time>
      </trkpt>
      <trkpt lat="40.821585" lon="-4.158255">
        <ele>1220.0</ele>
        <time>2018-05-26T11:52:27.675Z</time>
      </trkpt>
      <trkpt lat="40.821585" lon="-4.158255">
        <ele>1220.0</ele>
        <time>2018-05-26T11:52:28.681Z</time>
      </trkpt>
      <trkpt lat="40.82160333" lon="-4.15815833">
        <ele>1220.0</ele>
        <time>2018-05-26T11:52:29.708Z</time>
      </trkpt>
      <trkpt lat="40.82161833" lon="-4.15811333">
        <ele>1220.0</ele>
        <time>2018-05-26T11:52:30.675Z</time>
      </trkpt>
      <trkpt lat="40.82161833" lon="-4.15811333">
        <ele>1220.0</ele>
        <time>2018-05-26T11:52:31.713Z</time>
      </trkpt>
      <trkpt lat="40.82165833" lon="-4.158025">
        <ele>1220.0</ele>
        <time>2018-05-26T11:52:32.680Z</time>
      </trkpt>
      <trkpt lat="40.82165833" lon="-4.158025">
        <ele>1220.0</ele>
        <time>2018-05-26T11:52:33.711Z</time>
      </trkpt>
      <trkpt lat="40.82170833" lon="-4.15793833">
        <ele>1220.0</ele>
        <time>2018-05-26T11:52:34.698Z</time>
      </trkpt>
      <trkpt lat="40.82170833" lon="-4.15793833">
        <ele>1220.0</ele>
        <time>2018-05-26T11:52:35.706Z</time>
      </trkpt>
      <trkpt lat="40.821765" lon="-4.15785667">
        <ele>1220.0</ele>
        <time>2018-05-26T11:52:36.675Z</time>
      </trkpt>
      <trkpt lat="40.821765" lon="-4.15785667">
        <ele>1220.0</ele>
        <time>2018-05-26T11:52:37.681Z</time>
      </trkpt>
      <trkpt lat="40.82183333" lon="-4.15778667">
        <ele>1220.0</ele>
        <time>2018-05-26T11:52:38.678Z</time>
      </trkpt>
      <trkpt lat="40.82183333" lon="-4.15778667">
        <ele>1220.0</ele>
        <time>2018-05-26T11:52:39.683Z</time>
      </trkpt>
      <trkpt lat="40.82192667" lon="-4.15775833">
        <ele>1219.0</ele>
        <time>2018-05-26T11:52:40.690Z</time>
      </trkpt>
      <trkpt lat="40.82192667" lon="-4.15775833">
        <ele>1219.0</ele>
        <time>2018-05-26T11:52:41.695Z</time>
      </trkpt>
      <trkpt lat="40.82202333" lon="-4.15770833">
        <ele>1219.0</ele>
        <time>2018-05-26T11:52:42.708Z</time>
      </trkpt>
      <trkpt lat="40.82202333" lon="-4.15770833">
        <ele>1219.0</ele>
        <time>2018-05-26T11:52:43.714Z</time>
      </trkpt>
      <trkpt lat="40.82209667" lon="-4.15759667">
        <ele>1217.0</ele>
        <time>2018-05-26T11:52:44.687Z</time>
      </trkpt>
      <trkpt lat="40.82211833" lon="-4.15753167">
        <ele>1217.0</ele>
        <time>2018-05-26T11:52:45.687Z</time>
      </trkpt>
      <trkpt lat="40.82211833" lon="-4.15753167">
        <ele>1217.0</ele>
        <time>2018-05-26T11:52:46.694Z</time>
      </trkpt>
      <trkpt lat="40.82210833" lon="-4.15737667">
        <ele>1215.0</ele>
        <time>2018-05-26T11:52:47.700Z</time>
      </trkpt>
      <trkpt lat="40.82210833" lon="-4.15737667">
        <ele>1215.0</ele>
        <time>2018-05-26T11:52:48.710Z</time>
      </trkpt>
      <trkpt lat="40.82204167" lon="-4.15720667">
        <ele>1213.0</ele>
        <time>2018-05-26T11:52:49.699Z</time>
      </trkpt>
      <trkpt lat="40.82204167" lon="-4.15720667">
        <ele>1213.0</ele>
        <time>2018-05-26T11:52:50.711Z</time>
      </trkpt>
      <trkpt lat="40.82195167" lon="-4.15705333">
        <ele>1212.0</ele>
        <time>2018-05-26T11:52:51.678Z</time>
      </trkpt>
      <trkpt lat="40.82195167" lon="-4.15705333">
        <ele>1212.0</ele>
        <time>2018-05-26T11:52:52.684Z</time>
      </trkpt>
      <trkpt lat="40.82189167" lon="-4.15694">
        <ele>1211.0</ele>
        <time>2018-05-26T11:52:53.690Z</time>
      </trkpt>
      <trkpt lat="40.82187833" lon="-4.1569">
        <ele>1211.0</ele>
        <time>2018-05-26T11:52:54.676Z</time>
      </trkpt>
      <trkpt lat="40.82187833" lon="-4.1569">
        <ele>1211.0</ele>
        <time>2018-05-26T11:52:55.682Z</time>
      </trkpt>
      <trkpt lat="40.82186833" lon="-4.15683167">
        <ele>1211.0</ele>
        <time>2018-05-26T11:52:56.710Z</time>
      </trkpt>
      <trkpt lat="40.82186667" lon="-4.156805">
        <ele>1211.0</ele>
        <time>2018-05-26T11:52:57.678Z</time>
      </trkpt>
      <trkpt lat="40.82186667" lon="-4.156805">
        <ele>1211.0</ele>
        <time>2018-05-26T11:52:58.684Z</time>
      </trkpt>
      <trkpt lat="40.82187" lon="-4.15675833">
        <ele>1211.0</ele>
        <time>2018-05-26T11:52:59.679Z</time>
      </trkpt>
      <trkpt lat="40.82187" lon="-4.15675833">
        <ele>1211.0</ele>
        <time>2018-05-26T11:53:00.685Z</time>
      </trkpt>
      <trkpt lat="40.82188167" lon="-4.15671833">
        <ele>1211.0</ele>
        <time>2018-05-26T11:53:01.698Z</time>
      </trkpt>
      <trkpt lat="40.82189333" lon="-4.15669833">
        <ele>1211.0</ele>
        <time>2018-05-26T11:53:02.711Z</time>
      </trkpt>
      <trkpt lat="40.82190667" lon="-4.15667833">
        <ele>1211.0</ele>
        <time>2018-05-26T11:53:03.704Z</time>
      </trkpt>
      <trkpt lat="40.82190667" lon="-4.15667833">
        <ele>1211.0</ele>
        <time>2018-05-26T11:53:04.692Z</time>
      </trkpt>
      <trkpt lat="40.82193833" lon="-4.15664">
        <ele>1211.0</ele>
        <time>2018-05-26T11:53:05.675Z</time>
      </trkpt>
      <trkpt lat="40.82193833" lon="-4.15664">
        <ele>1211.0</ele>
        <time>2018-05-26T11:53:06.681Z</time>
      </trkpt>
      <trkpt lat="40.821985" lon="-4.15663333">
        <ele>1211.0</ele>
        <time>2018-05-26T11:53:07.687Z</time>
      </trkpt>
      <trkpt lat="40.82200667" lon="-4.15663667">
        <ele>1211.0</ele>
        <time>2018-05-26T11:53:08.676Z</time>
      </trkpt>
      <trkpt lat="40.82203" lon="-4.15664667">
        <ele>1211.0</ele>
        <time>2018-05-26T11:53:09.683Z</time>
      </trkpt>
      <trkpt lat="40.82203" lon="-4.15664667">
        <ele>1211.0</ele>
        <time>2018-05-26T11:53:10.689Z</time>
      </trkpt>
      <trkpt lat="40.82208" lon="-4.15666167">
        <ele>1211.0</ele>
        <time>2018-05-26T11:53:11.688Z</time>
      </trkpt>
      <trkpt lat="40.82208" lon="-4.15666167">
        <ele>1211.0</ele>
        <time>2018-05-26T11:53:12.694Z</time>
      </trkpt>
      <trkpt lat="40.82213167" lon="-4.15666333">
        <ele>1212.0</ele>
        <time>2018-05-26T11:53:13.708Z</time>
      </trkpt>
      <trkpt lat="40.82213167" lon="-4.15666333">
        <ele>1212.0</ele>
        <time>2018-05-26T11:53:14.714Z</time>
      </trkpt>
      <trkpt lat="40.82218667" lon="-4.15666667">
        <ele>1213.0</ele>
        <time>2018-05-26T11:53:15.702Z</time>
      </trkpt>
      <trkpt lat="40.82218667" lon="-4.15666667">
        <ele>1213.0</ele>
        <time>2018-05-26T11:53:16.708Z</time>
      </trkpt>
      <trkpt lat="40.82224667" lon="-4.15666">
        <ele>1214.0</ele>
        <time>2018-05-26T11:53:17.675Z</time>
      </trkpt>
      <trkpt lat="40.82224667" lon="-4.15666">
        <ele>1214.0</ele>
        <time>2018-05-26T11:53:18.681Z</time>
      </trkpt>
      <trkpt lat="40.822305" lon="-4.156635">
        <ele>1214.0</ele>
        <time>2018-05-26T11:53:19.702Z</time>
      </trkpt>
      <trkpt lat="40.822305" lon="-4.156635">
        <ele>1214.0</ele>
        <time>2018-05-26T11:53:20.710Z</time>
      </trkpt>
      <trkpt lat="40.822365" lon="-4.156605">
        <ele>1215.0</ele>
        <time>2018-05-26T11:53:21.677Z</time>
      </trkpt>
      <trkpt lat="40.822365" lon="-4.156605">
        <ele>1215.0</ele>
        <time>2018-05-26T11:53:22.683Z</time>
      </trkpt>
      <trkpt lat="40.82242333" lon="-4.156565">
        <ele>1216.0</ele>
        <time>2018-05-26T11:53:23.690Z</time>
      </trkpt>
      <trkpt lat="40.82242333" lon="-4.156565">
        <ele>1216.0</ele>
        <time>2018-05-26T11:53:24.695Z</time>
      </trkpt>
      <trkpt lat="40.82247667" lon="-4.156515">
        <ele>1217.0</ele>
        <time>2018-05-26T11:53:25.675Z</time>
      </trkpt>
      <trkpt lat="40.82250167" lon="-4.15649">
        <ele>1217.0</ele>
        <time>2018-05-26T11:53:26.677Z</time>
      </trkpt>
      <trkpt lat="40.82250167" lon="-4.15649">
        <ele>1217.0</ele>
        <time>2018-05-26T11:53:27.683Z</time>
      </trkpt>
      <trkpt lat="40.82255333" lon="-4.15643167">
        <ele>1218.0</ele>
        <time>2018-05-26T11:53:28.693Z</time>
      </trkpt>
      <trkpt lat="40.82257833" lon="-4.15640167">
        <ele>1218.0</ele>
        <time>2018-05-26T11:53:29.684Z</time>
      </trkpt>
      <trkpt lat="40.82260167" lon="-4.15637167">
        <ele>1218.0</ele>
        <time>2018-05-26T11:53:30.691Z</time>
      </trkpt>
      <trkpt lat="40.82260167" lon="-4.15637167">
        <ele>1218.0</ele>
        <time>2018-05-26T11:53:31.698Z</time>
      </trkpt>
      <trkpt lat="40.82264333" lon="-4.156295">
        <ele>1219.0</ele>
        <time>2018-05-26T11:53:32.695Z</time>
      </trkpt>
      <trkpt lat="40.82265833" lon="-4.156255">
        <ele>1219.0</ele>
        <time>2018-05-26T11:53:33.708Z</time>
      </trkpt>
      <trkpt lat="40.82265833" lon="-4.156255">
        <ele>1219.0</ele>
        <time>2018-05-26T11:53:34.676Z</time>
      </trkpt>
      <trkpt lat="40.82268167" lon="-4.15617167">
        <ele>1220.0</ele>
        <time>2018-05-26T11:53:35.707Z</time>
      </trkpt>
      <trkpt lat="40.82268167" lon="-4.15617167">
        <ele>1220.0</ele>
        <time>2018-05-26T11:53:36.714Z</time>
      </trkpt>
      <trkpt lat="40.82269833" lon="-4.156085">
        <ele>1220.0</ele>
        <time>2018-05-26T11:53:37.680Z</time>
      </trkpt>
      <trkpt lat="40.822705" lon="-4.15603833">
        <ele>1220.0</ele>
        <time>2018-05-26T11:53:38.687Z</time>
      </trkpt>
      <trkpt lat="40.822715" lon="-4.15599333">
        <ele>1220.0</ele>
        <time>2018-05-26T11:53:39.677Z</time>
      </trkpt>
      <trkpt lat="40.822715" lon="-4.15599333">
        <ele>1220.0</ele>
        <time>2018-05-26T11:53:40.684Z</time>
      </trkpt>
      <trkpt lat="40.82274" lon="-4.15590167">
        <ele>1220.0</ele>
        <time>2018-05-26T11:53:41.691Z</time>
      </trkpt>
      <trkpt lat="40.82275333" lon="-4.15585">
        <ele>1220.0</ele>
        <time>2018-05-26T11:53:42.714Z</time>
      </trkpt>
      <trkpt lat="40.82276833" lon="-4.15579667">
        <ele>1220.0</ele>
        <time>2018-05-26T11:53:43.708Z</time>
      </trkpt>
      <trkpt lat="40.82276833" lon="-4.15579667">
        <ele>1220.0</ele>
        <time>2018-05-26T11:53:44.675Z</time>
      </trkpt>
      <trkpt lat="40.82279833" lon="-4.15569">
        <ele>1221.0</ele>
        <time>2018-05-26T11:53:45.713Z</time>
      </trkpt>
      <trkpt lat="40.82279833" lon="-4.15569">
        <ele>1221.0</ele>
        <time>2018-05-26T11:53:46.680Z</time>
      </trkpt>
      <trkpt lat="40.82283" lon="-4.15557667">
        <ele>1220.0</ele>
        <time>2018-05-26T11:53:47.687Z</time>
      </trkpt>
      <trkpt lat="40.82284667" lon="-4.15551667">
        <ele>1220.0</ele>
        <time>2018-05-26T11:53:48.694Z</time>
      </trkpt>
      <trkpt lat="40.82286167" lon="-4.15545833">
        <ele>1220.0</ele>
        <time>2018-05-26T11:53:49.700Z</time>
      </trkpt>
      <trkpt lat="40.82286167" lon="-4.15545833">
        <ele>1220.0</ele>
        <time>2018-05-26T11:53:50.706Z</time>
      </trkpt>
      <trkpt lat="40.82289" lon="-4.15533667">
        <ele>1220.0</ele>
        <time>2018-05-26T11:53:51.696Z</time>
      </trkpt>
      <trkpt lat="40.82290833" lon="-4.155275">
        <ele>1220.0</ele>
        <time>2018-05-26T11:53:52.703Z</time>
      </trkpt>
      <trkpt lat="40.82290833" lon="-4.155275">
        <ele>1220.0</ele>
        <time>2018-05-26T11:53:53.710Z</time>
      </trkpt>
      <trkpt lat="40.82295" lon="-4.15515833">
        <ele>1220.0</ele>
        <time>2018-05-26T11:53:54.694Z</time>
      </trkpt>
      <trkpt lat="40.82296333" lon="-4.15509667">
        <ele>1220.0</ele>
        <time>2018-05-26T11:53:55.701Z</time>
      </trkpt>
      <trkpt lat="40.82296333" lon="-4.15509667">
        <ele>1220.0</ele>
        <time>2018-05-26T11:53:56.708Z</time>
      </trkpt>
      <trkpt lat="40.822985" lon="-4.15497">
        <ele>1220.0</ele>
        <time>2018-05-26T11:53:57.694Z</time>
      </trkpt>
      <trkpt lat="40.822985" lon="-4.15497">
        <ele>1220.0</ele>
        <time>2018-05-26T11:53:58.701Z</time>
      </trkpt>
      <trkpt lat="40.82301667" lon="-4.15484333">
        <ele>1220.0</ele>
        <time>2018-05-26T11:53:59.688Z</time>
      </trkpt>
      <trkpt lat="40.82301667" lon="-4.15484333">
        <ele>1220.0</ele>
        <time>2018-05-26T11:54:00.694Z</time>
      </trkpt>
      <trkpt lat="40.823055" lon="-4.15471833">
        <ele>1220.0</ele>
        <time>2018-05-26T11:54:01.688Z</time>
      </trkpt>
      <trkpt lat="40.823055" lon="-4.15471833">
        <ele>1220.0</ele>
        <time>2018-05-26T11:54:02.693Z</time>
      </trkpt>
      <trkpt lat="40.82308167" lon="-4.15459167">
        <ele>1221.0</ele>
        <time>2018-05-26T11:54:03.703Z</time>
      </trkpt>
      <trkpt lat="40.82308167" lon="-4.15459167">
        <ele>1221.0</ele>
        <time>2018-05-26T11:54:04.711Z</time>
      </trkpt>
      <trkpt lat="40.82309833" lon="-4.15445833">
        <ele>1220.0</ele>
        <time>2018-05-26T11:54:05.711Z</time>
      </trkpt>
      <trkpt lat="40.82309833" lon="-4.15445833">
        <ele>1220.0</ele>
        <time>2018-05-26T11:54:06.676Z</time>
      </trkpt>
      <trkpt lat="40.82311833" lon="-4.154325">
        <ele>1221.0</ele>
        <time>2018-05-26T11:54:07.683Z</time>
      </trkpt>
      <trkpt lat="40.82311833" lon="-4.154325">
        <ele>1221.0</ele>
        <time>2018-05-26T11:54:08.689Z</time>
      </trkpt>
      <trkpt lat="40.823145" lon="-4.15419667">
        <ele>1221.0</ele>
        <time>2018-05-26T11:54:09.712Z</time>
      </trkpt>
      <trkpt lat="40.823145" lon="-4.15419667">
        <ele>1221.0</ele>
        <time>2018-05-26T11:54:10.710Z</time>
      </trkpt>
      <trkpt lat="40.82317" lon="-4.154065">
        <ele>1221.0</ele>
        <time>2018-05-26T11:54:11.676Z</time>
      </trkpt>
      <trkpt lat="40.82317" lon="-4.154065">
        <ele>1221.0</ele>
        <time>2018-05-26T11:54:12.683Z</time>
      </trkpt>
      <trkpt lat="40.823195" lon="-4.15392167">
        <ele>1220.0</ele>
        <time>2018-05-26T11:54:13.675Z</time>
      </trkpt>
      <trkpt lat="40.823195" lon="-4.15392167">
        <ele>1220.0</ele>
        <time>2018-05-26T11:54:14.681Z</time>
      </trkpt>
      <trkpt lat="40.82321833" lon="-4.15377667">
        <ele>1220.0</ele>
        <time>2018-05-26T11:54:15.688Z</time>
      </trkpt>
      <trkpt lat="40.82321833" lon="-4.15377667">
        <ele>1220.0</ele>
        <time>2018-05-26T11:54:16.677Z</time>
      </trkpt>
      <trkpt lat="40.82324" lon="-4.15362833">
        <ele>1220.0</ele>
        <time>2018-05-26T11:54:17.686Z</time>
      </trkpt>
      <trkpt lat="40.82324" lon="-4.15362833">
        <ele>1220.0</ele>
        <time>2018-05-26T11:54:18.692Z</time>
      </trkpt>
      <trkpt lat="40.82328833" lon="-4.15349167">
        <ele>1220.0</ele>
        <time>2018-05-26T11:54:19.699Z</time>
      </trkpt>
      <trkpt lat="40.823315" lon="-4.153425">
        <ele>1220.0</ele>
        <time>2018-05-26T11:54:20.712Z</time>
      </trkpt>
      <trkpt lat="40.823315" lon="-4.153425">
        <ele>1220.0</ele>
        <time>2018-05-26T11:54:21.678Z</time>
      </trkpt>
      <trkpt lat="40.82335667" lon="-4.15327">
        <ele>1219.0</ele>
        <time>2018-05-26T11:54:22.685Z</time>
      </trkpt>
      <trkpt lat="40.82335667" lon="-4.15327">
        <ele>1219.0</ele>
        <time>2018-05-26T11:54:23.691Z</time>
      </trkpt>
      <trkpt lat="40.82339667" lon="-4.15311333">
        <ele>1219.0</ele>
        <time>2018-05-26T11:54:24.699Z</time>
      </trkpt>
      <trkpt lat="40.82339667" lon="-4.15311333">
        <ele>1219.0</ele>
        <time>2018-05-26T11:54:25.705Z</time>
      </trkpt>
      <trkpt lat="40.82343" lon="-4.15296667">
        <ele>1219.0</ele>
        <time>2018-05-26T11:54:26.712Z</time>
      </trkpt>
      <trkpt lat="40.823455" lon="-4.15290333">
        <ele>1218.0</ele>
        <time>2018-05-26T11:54:27.687Z</time>
      </trkpt>
      <trkpt lat="40.823455" lon="-4.15290333">
        <ele>1218.0</ele>
        <time>2018-05-26T11:54:28.677Z</time>
      </trkpt>
      <trkpt lat="40.82352" lon="-4.15276833">
        <ele>1218.0</ele>
        <time>2018-05-26T11:54:29.684Z</time>
      </trkpt>
      <trkpt lat="40.82352" lon="-4.15276833">
        <ele>1218.0</ele>
        <time>2018-05-26T11:54:30.689Z</time>
      </trkpt>
      <trkpt lat="40.82358833" lon="-4.15262333">
        <ele>1218.0</ele>
        <time>2018-05-26T11:54:31.696Z</time>
      </trkpt>
      <trkpt lat="40.82358833" lon="-4.15262333">
        <ele>1218.0</ele>
        <time>2018-05-26T11:54:32.687Z</time>
      </trkpt>
      <trkpt lat="40.823645" lon="-4.152465">
        <ele>1218.0</ele>
        <time>2018-05-26T11:54:33.712Z</time>
      </trkpt>
      <trkpt lat="40.823645" lon="-4.152465">
        <ele>1218.0</ele>
        <time>2018-05-26T11:54:34.689Z</time>
      </trkpt>
      <trkpt lat="40.823685" lon="-4.15230167">
        <ele>1218.0</ele>
        <time>2018-05-26T11:54:35.700Z</time>
      </trkpt>
      <trkpt lat="40.82370167" lon="-4.15222">
        <ele>1218.0</ele>
        <time>2018-05-26T11:54:36.679Z</time>
      </trkpt>
      <trkpt lat="40.82370167" lon="-4.15222">
        <ele>1218.0</ele>
        <time>2018-05-26T11:54:37.686Z</time>
      </trkpt>
      <trkpt lat="40.82373667" lon="-4.15205833">
        <ele>1218.0</ele>
        <time>2018-05-26T11:54:38.695Z</time>
      </trkpt>
      <trkpt lat="40.82376" lon="-4.15198">
        <ele>1218.0</ele>
        <time>2018-05-26T11:54:39.698Z</time>
      </trkpt>
      <trkpt lat="40.82376" lon="-4.15198">
        <ele>1218.0</ele>
        <time>2018-05-26T11:54:40.708Z</time>
      </trkpt>
      <trkpt lat="40.82381167" lon="-4.15181167">
        <ele>1218.0</ele>
        <time>2018-05-26T11:54:41.676Z</time>
      </trkpt>
      <trkpt lat="40.82383167" lon="-4.15173">
        <ele>1218.0</ele>
        <time>2018-05-26T11:54:42.683Z</time>
      </trkpt>
      <trkpt lat="40.82385167" lon="-4.15165167">
        <ele>1218.0</ele>
        <time>2018-05-26T11:54:43.714Z</time>
      </trkpt>
      <trkpt lat="40.82385167" lon="-4.15165167">
        <ele>1218.0</ele>
        <time>2018-05-26T11:54:44.682Z</time>
      </trkpt>
      <trkpt lat="40.82389167" lon="-4.15150167">
        <ele>1218.0</ele>
        <time>2018-05-26T11:54:45.677Z</time>
      </trkpt>
      <trkpt lat="40.82389167" lon="-4.15150167">
        <ele>1218.0</ele>
        <time>2018-05-26T11:54:46.690Z</time>
      </trkpt>
      <trkpt lat="40.82393" lon="-4.15136333">
        <ele>1219.0</ele>
        <time>2018-05-26T11:54:47.687Z</time>
      </trkpt>
      <trkpt lat="40.82393" lon="-4.15136333">
        <ele>1219.0</ele>
        <time>2018-05-26T11:54:48.694Z</time>
      </trkpt>
      <trkpt lat="40.823965" lon="-4.15124">
        <ele>1219.0</ele>
        <time>2018-05-26T11:54:49.702Z</time>
      </trkpt>
      <trkpt lat="40.82398" lon="-4.15118167">
        <ele>1219.0</ele>
        <time>2018-05-26T11:54:50.691Z</time>
      </trkpt>
      <trkpt lat="40.82399333" lon="-4.15112667">
        <ele>1219.0</ele>
        <time>2018-05-26T11:54:51.699Z</time>
      </trkpt>
      <trkpt lat="40.82399333" lon="-4.15112667">
        <ele>1219.0</ele>
        <time>2018-05-26T11:54:52.706Z</time>
      </trkpt>
      <trkpt lat="40.82402167" lon="-4.15101833">
        <ele>1219.0</ele>
        <time>2018-05-26T11:54:53.715Z</time>
      </trkpt>
      <trkpt lat="40.82403667" lon="-4.150965">
        <ele>1220.0</ele>
        <time>2018-05-26T11:54:54.705Z</time>
      </trkpt>
      <trkpt lat="40.82403667" lon="-4.150965">
        <ele>1220.0</ele>
        <time>2018-05-26T11:54:55.712Z</time>
      </trkpt>
      <trkpt lat="40.82406167" lon="-4.15085667">
        <ele>1221.0</ele>
        <time>2018-05-26T11:54:56.679Z</time>
      </trkpt>
      <trkpt lat="40.82407333" lon="-4.15080333">
        <ele>1222.0</ele>
        <time>2018-05-26T11:54:57.685Z</time>
      </trkpt>
      <trkpt lat="40.82408833" lon="-4.15075167">
        <ele>1222.0</ele>
        <time>2018-05-26T11:54:58.677Z</time>
      </trkpt>
      <trkpt lat="40.82408833" lon="-4.15075167">
        <ele>1222.0</ele>
        <time>2018-05-26T11:54:59.684Z</time>
      </trkpt>
      <trkpt lat="40.82411333" lon="-4.15065167">
        <ele>1222.0</ele>
        <time>2018-05-26T11:55:00.700Z</time>
      </trkpt>
      <trkpt lat="40.824125" lon="-4.15060333">
        <ele>1222.0</ele>
        <time>2018-05-26T11:55:01.706Z</time>
      </trkpt>
      <trkpt lat="40.824125" lon="-4.15060333">
        <ele>1222.0</ele>
        <time>2018-05-26T11:55:02.677Z</time>
      </trkpt>
      <trkpt lat="40.824145" lon="-4.150505">
        <ele>1223.0</ele>
        <time>2018-05-26T11:55:03.689Z</time>
      </trkpt>
      <trkpt lat="40.824145" lon="-4.150505">
        <ele>1223.0</ele>
        <time>2018-05-26T11:55:04.708Z</time>
      </trkpt>
      <trkpt lat="40.82416333" lon="-4.15040667">
        <ele>1223.0</ele>
        <time>2018-05-26T11:55:05.688Z</time>
      </trkpt>
      <trkpt lat="40.82416333" lon="-4.15040667">
        <ele>1223.0</ele>
        <time>2018-05-26T11:55:06.696Z</time>
      </trkpt>
      <trkpt lat="40.82417833" lon="-4.150315">
        <ele>1224.0</ele>
        <time>2018-05-26T11:55:07.713Z</time>
      </trkpt>
      <trkpt lat="40.82417833" lon="-4.150315">
        <ele>1224.0</ele>
        <time>2018-05-26T11:55:08.680Z</time>
      </trkpt>
      <trkpt lat="40.82419833" lon="-4.15022667">
        <ele>1224.0</ele>
        <time>2018-05-26T11:55:09.678Z</time>
      </trkpt>
      <trkpt lat="40.82419833" lon="-4.15022667">
        <ele>1224.0</ele>
        <time>2018-05-26T11:55:10.686Z</time>
      </trkpt>
      <trkpt lat="40.82421667" lon="-4.150135">
        <ele>1225.0</ele>
        <time>2018-05-26T11:55:11.703Z</time>
      </trkpt>
      <trkpt lat="40.82421667" lon="-4.150135">
        <ele>1225.0</ele>
        <time>2018-05-26T11:55:12.714Z</time>
      </trkpt>
      <trkpt lat="40.82423833" lon="-4.15004167">
        <ele>1225.0</ele>
        <time>2018-05-26T11:55:13.698Z</time>
      </trkpt>
      <trkpt lat="40.82423833" lon="-4.15004167">
        <ele>1225.0</ele>
        <time>2018-05-26T11:55:14.712Z</time>
      </trkpt>
      <trkpt lat="40.82426167" lon="-4.149955">
        <ele>1225.0</ele>
        <time>2018-05-26T11:55:15.681Z</time>
      </trkpt>
      <trkpt lat="40.82427667" lon="-4.14991167">
        <ele>1225.0</ele>
        <time>2018-05-26T11:55:16.699Z</time>
      </trkpt>
      <trkpt lat="40.82427667" lon="-4.14991167">
        <ele>1225.0</ele>
        <time>2018-05-26T11:55:17.709Z</time>
      </trkpt>
      <trkpt lat="40.82431" lon="-4.14983667">
        <ele>1226.0</ele>
        <time>2018-05-26T11:55:18.677Z</time>
      </trkpt>
      <trkpt lat="40.82431" lon="-4.14983667">
        <ele>1226.0</ele>
        <time>2018-05-26T11:55:19.685Z</time>
      </trkpt>
      <trkpt lat="40.82433667" lon="-4.14976167">
        <ele>1226.0</ele>
        <time>2018-05-26T11:55:20.689Z</time>
      </trkpt>
      <trkpt lat="40.82433667" lon="-4.14976167">
        <ele>1226.0</ele>
        <time>2018-05-26T11:55:21.695Z</time>
      </trkpt>
      <trkpt lat="40.82436167" lon="-4.149685">
        <ele>1227.0</ele>
        <time>2018-05-26T11:55:22.714Z</time>
      </trkpt>
      <trkpt lat="40.82436167" lon="-4.149685">
        <ele>1227.0</ele>
        <time>2018-05-26T11:55:23.680Z</time>
      </trkpt>
      <trkpt lat="40.82439167" lon="-4.14961333">
        <ele>1227.0</ele>
        <time>2018-05-26T11:55:24.684Z</time>
      </trkpt>
      <trkpt lat="40.82439167" lon="-4.14961333">
        <ele>1227.0</ele>
        <time>2018-05-26T11:55:25.693Z</time>
      </trkpt>
      <trkpt lat="40.82441667" lon="-4.14954167">
        <ele>1227.0</ele>
        <time>2018-05-26T11:55:26.702Z</time>
      </trkpt>
      <trkpt lat="40.82443" lon="-4.149505">
        <ele>1228.0</ele>
        <time>2018-05-26T11:55:27.712Z</time>
      </trkpt>
      <trkpt lat="40.82443" lon="-4.149505">
        <ele>1228.0</ele>
        <time>2018-05-26T11:55:28.681Z</time>
      </trkpt>
      <trkpt lat="40.824455" lon="-4.149435">
        <ele>1228.0</ele>
        <time>2018-05-26T11:55:29.689Z</time>
      </trkpt>
      <trkpt lat="40.82446833" lon="-4.14940167">
        <ele>1229.0</ele>
        <time>2018-05-26T11:55:30.708Z</time>
      </trkpt>
      <trkpt lat="40.82446833" lon="-4.14940167">
        <ele>1229.0</ele>
        <time>2018-05-26T11:55:31.678Z</time>
      </trkpt>
      <trkpt lat="40.82449333" lon="-4.149335">
        <ele>1229.0</ele>
        <time>2018-05-26T11:55:32.709Z</time>
      </trkpt>
      <trkpt lat="40.82449333" lon="-4.149335">
        <ele>1229.0</ele>
        <time>2018-05-26T11:55:33.678Z</time>
      </trkpt>
      <trkpt lat="40.82451667" lon="-4.149275">
        <ele>1230.0</ele>
        <time>2018-05-26T11:55:34.689Z</time>
      </trkpt>
      <trkpt lat="40.82451667" lon="-4.149275">
        <ele>1230.0</ele>
        <time>2018-05-26T11:55:35.697Z</time>
      </trkpt>
      <trkpt lat="40.82453333" lon="-4.149215">
        <ele>1231.0</ele>
        <time>2018-05-26T11:55:36.713Z</time>
      </trkpt>
      <trkpt lat="40.82453333" lon="-4.149215">
        <ele>1231.0</ele>
        <time>2018-05-26T11:55:37.683Z</time>
      </trkpt>
      <trkpt lat="40.82455333" lon="-4.149155">
        <ele>1231.0</ele>
        <time>2018-05-26T11:55:38.682Z</time>
      </trkpt>
      <trkpt lat="40.82455333" lon="-4.149155">
        <ele>1231.0</ele>
        <time>2018-05-26T11:55:39.692Z</time>
      </trkpt>
      <trkpt lat="40.824575" lon="-4.14909333">
        <ele>1232.0</ele>
        <time>2018-05-26T11:55:40.702Z</time>
      </trkpt>
      <trkpt lat="40.824585" lon="-4.14906">
        <ele>1232.0</ele>
        <time>2018-05-26T11:55:41.677Z</time>
      </trkpt>
      <trkpt lat="40.824585" lon="-4.14906">
        <ele>1232.0</ele>
        <time>2018-05-26T11:55:42.686Z</time>
      </trkpt>
      <trkpt lat="40.824605" lon="-4.14899167">
        <ele>1232.0</ele>
        <time>2018-05-26T11:55:43.704Z</time>
      </trkpt>
      <trkpt lat="40.82461167" lon="-4.148955">
        <ele>1233.0</ele>
        <time>2018-05-26T11:55:44.704Z</time>
      </trkpt>
      <trkpt lat="40.82462" lon="-4.14891667">
        <ele>1233.0</ele>
        <time>2018-05-26T11:55:45.677Z</time>
      </trkpt>
      <trkpt lat="40.82462" lon="-4.14891667">
        <ele>1233.0</ele>
        <time>2018-05-26T11:55:46.689Z</time>
      </trkpt>
      <trkpt lat="40.82463333" lon="-4.14883333">
        <ele>1233.0</ele>
        <time>2018-05-26T11:55:47.711Z</time>
      </trkpt>
      <trkpt lat="40.82463333" lon="-4.14883333">
        <ele>1233.0</ele>
        <time>2018-05-26T11:55:48.679Z</time>
      </trkpt>
      <trkpt lat="40.82464833" lon="-4.14875167">
        <ele>1233.0</ele>
        <time>2018-05-26T11:55:49.698Z</time>
      </trkpt>
      <trkpt lat="40.82465333" lon="-4.14871">
        <ele>1233.0</ele>
        <time>2018-05-26T11:55:50.699Z</time>
      </trkpt>
      <trkpt lat="40.82465333" lon="-4.14871">
        <ele>1233.0</ele>
        <time>2018-05-26T11:55:51.709Z</time>
      </trkpt>
      <trkpt lat="40.824665" lon="-4.14862833">
        <ele>1233.0</ele>
        <time>2018-05-26T11:55:52.676Z</time>
      </trkpt>
      <trkpt lat="40.824665" lon="-4.14862833">
        <ele>1233.0</ele>
        <time>2018-05-26T11:55:53.684Z</time>
      </trkpt>
      <trkpt lat="40.82467833" lon="-4.14854833">
        <ele>1234.0</ele>
        <time>2018-05-26T11:55:54.686Z</time>
      </trkpt>
      <trkpt lat="40.82467833" lon="-4.14854833">
        <ele>1234.0</ele>
        <time>2018-05-26T11:55:55.693Z</time>
      </trkpt>
      <trkpt lat="40.82469333" lon="-4.14847167">
        <ele>1234.0</ele>
        <time>2018-05-26T11:55:56.700Z</time>
      </trkpt>
      <trkpt lat="40.8247" lon="-4.14843333">
        <ele>1234.0</ele>
        <time>2018-05-26T11:55:57.696Z</time>
      </trkpt>
      <trkpt lat="40.8247" lon="-4.14843333">
        <ele>1234.0</ele>
        <time>2018-05-26T11:55:58.687Z</time>
      </trkpt>
      <trkpt lat="40.82471333" lon="-4.14835667">
        <ele>1234.0</ele>
        <time>2018-05-26T11:55:59.713Z</time>
      </trkpt>
      <trkpt lat="40.82471333" lon="-4.14835667">
        <ele>1234.0</ele>
        <time>2018-05-26T11:56:00.679Z</time>
      </trkpt>
      <trkpt lat="40.82473" lon="-4.14828">
        <ele>1235.0</ele>
        <time>2018-05-26T11:56:01.686Z</time>
      </trkpt>
      <trkpt lat="40.82473" lon="-4.14828">
        <ele>1235.0</ele>
        <time>2018-05-26T11:56:02.693Z</time>
      </trkpt>
      <trkpt lat="40.82474333" lon="-4.14820167">
        <ele>1235.0</ele>
        <time>2018-05-26T11:56:03.700Z</time>
      </trkpt>
      <trkpt lat="40.82474333" lon="-4.14820167">
        <ele>1235.0</ele>
        <time>2018-05-26T11:56:04.712Z</time>
      </trkpt>
      <trkpt lat="40.82475667" lon="-4.14812">
        <ele>1235.0</ele>
        <time>2018-05-26T11:56:05.692Z</time>
      </trkpt>
      <trkpt lat="40.82476333" lon="-4.14808">
        <ele>1235.0</ele>
        <time>2018-05-26T11:56:06.707Z</time>
      </trkpt>
      <trkpt lat="40.82476333" lon="-4.14808">
        <ele>1235.0</ele>
        <time>2018-05-26T11:56:07.675Z</time>
      </trkpt>
      <trkpt lat="40.824775" lon="-4.14799833">
        <ele>1236.0</ele>
        <time>2018-05-26T11:56:08.683Z</time>
      </trkpt>
      <trkpt lat="40.82478167" lon="-4.147955">
        <ele>1236.0</ele>
        <time>2018-05-26T11:56:09.709Z</time>
      </trkpt>
      <trkpt lat="40.82478167" lon="-4.147955">
        <ele>1236.0</ele>
        <time>2018-05-26T11:56:10.687Z</time>
      </trkpt>
      <trkpt lat="40.82479167" lon="-4.147875">
        <ele>1236.0</ele>
        <time>2018-05-26T11:56:11.696Z</time>
      </trkpt>
      <trkpt lat="40.82479667" lon="-4.147835">
        <ele>1236.0</ele>
        <time>2018-05-26T11:56:12.707Z</time>
      </trkpt>
      <trkpt lat="40.82480167" lon="-4.14779167">
        <ele>1236.0</ele>
        <time>2018-05-26T11:56:13.675Z</time>
      </trkpt>
      <trkpt lat="40.82480167" lon="-4.14779167">
        <ele>1236.0</ele>
        <time>2018-05-26T11:56:14.684Z</time>
      </trkpt>
      <trkpt lat="40.82481" lon="-4.14770167">
        <ele>1236.0</ele>
        <time>2018-05-26T11:56:15.700Z</time>
      </trkpt>
      <trkpt lat="40.824815" lon="-4.14765667">
        <ele>1236.0</ele>
        <time>2018-05-26T11:56:16.698Z</time>
      </trkpt>
      <trkpt lat="40.824815" lon="-4.14765667">
        <ele>1236.0</ele>
        <time>2018-05-26T11:56:17.709Z</time>
      </trkpt>
      <trkpt lat="40.82482" lon="-4.147565">
        <ele>1236.0</ele>
        <time>2018-05-26T11:56:18.678Z</time>
      </trkpt>
      <trkpt lat="40.82482" lon="-4.147515">
        <ele>1236.0</ele>
        <time>2018-05-26T11:56:19.676Z</time>
      </trkpt>
      <trkpt lat="40.824815" lon="-4.14746833">
        <ele>1236.0</ele>
        <time>2018-05-26T11:56:20.711Z</time>
      </trkpt>
      <trkpt lat="40.82480667" lon="-4.14742">
        <ele>1236.0</ele>
        <time>2018-05-26T11:56:21.680Z</time>
      </trkpt>
      <trkpt lat="40.82480667" lon="-4.14742">
        <ele>1236.0</ele>
        <time>2018-05-26T11:56:22.687Z</time>
      </trkpt>
      <trkpt lat="40.8248" lon="-4.14731167">
        <ele>1236.0</ele>
        <time>2018-05-26T11:56:23.679Z</time>
      </trkpt>
      <trkpt lat="40.82479833" lon="-4.14725333">
        <ele>1236.0</ele>
        <time>2018-05-26T11:56:24.687Z</time>
      </trkpt>
      <trkpt lat="40.82479833" lon="-4.14725333">
        <ele>1236.0</ele>
        <time>2018-05-26T11:56:25.694Z</time>
      </trkpt>
      <trkpt lat="40.824805" lon="-4.147135">
        <ele>1236.0</ele>
        <time>2018-05-26T11:56:26.702Z</time>
      </trkpt>
      <trkpt lat="40.824805" lon="-4.147135">
        <ele>1236.0</ele>
        <time>2018-05-26T11:56:27.707Z</time>
      </trkpt>
      <trkpt lat="40.82482667" lon="-4.14703333">
        <ele>1236.0</ele>
        <time>2018-05-26T11:56:28.689Z</time>
      </trkpt>
      <trkpt lat="40.82482667" lon="-4.14703333">
        <ele>1236.0</ele>
        <time>2018-05-26T11:56:29.696Z</time>
      </trkpt>
      <trkpt lat="40.82485667" lon="-4.14694667">
        <ele>1237.0</ele>
        <time>2018-05-26T11:56:30.687Z</time>
      </trkpt>
      <trkpt lat="40.82485667" lon="-4.14694667">
        <ele>1237.0</ele>
        <time>2018-05-26T11:56:31.695Z</time>
      </trkpt>
      <trkpt lat="40.82489167" lon="-4.14685833">
        <ele>1237.0</ele>
        <time>2018-05-26T11:56:32.676Z</time>
      </trkpt>
      <trkpt lat="40.824905" lon="-4.146815">
        <ele>1237.0</ele>
        <time>2018-05-26T11:56:33.706Z</time>
      </trkpt>
      <trkpt lat="40.824905" lon="-4.146815">
        <ele>1237.0</ele>
        <time>2018-05-26T11:56:34.713Z</time>
      </trkpt>
      <trkpt lat="40.824935" lon="-4.14672833">
        <ele>1237.0</ele>
        <time>2018-05-26T11:56:35.680Z</time>
      </trkpt>
      <trkpt lat="40.824935" lon="-4.14672833">
        <ele>1237.0</ele>
        <time>2018-05-26T11:56:36.687Z</time>
      </trkpt>
      <trkpt lat="40.824965" lon="-4.146645">
        <ele>1238.0</ele>
        <time>2018-05-26T11:56:37.698Z</time>
      </trkpt>
      <trkpt lat="40.824965" lon="-4.146645">
        <ele>1238.0</ele>
        <time>2018-05-26T11:56:38.704Z</time>
      </trkpt>
      <trkpt lat="40.82498833" lon="-4.14656667">
        <ele>1239.0</ele>
        <time>2018-05-26T11:56:39.677Z</time>
      </trkpt>
      <trkpt lat="40.82498833" lon="-4.14656667">
        <ele>1239.0</ele>
        <time>2018-05-26T11:56:40.683Z</time>
      </trkpt>
      <trkpt lat="40.82502167" lon="-4.14649833">
        <ele>1239.0</ele>
        <time>2018-05-26T11:56:41.708Z</time>
      </trkpt>
      <trkpt lat="40.82502167" lon="-4.14649833">
        <ele>1239.0</ele>
        <time>2018-05-26T11:56:42.714Z</time>
      </trkpt>
      <trkpt lat="40.82505833" lon="-4.14642667">
        <ele>1240.0</ele>
        <time>2018-05-26T11:56:43.682Z</time>
      </trkpt>
      <trkpt lat="40.82507333" lon="-4.14639167">
        <ele>1240.0</ele>
        <time>2018-05-26T11:56:44.676Z</time>
      </trkpt>
      <trkpt lat="40.82507333" lon="-4.14639167">
        <ele>1240.0</ele>
        <time>2018-05-26T11:56:45.683Z</time>
      </trkpt>
      <trkpt lat="40.8251" lon="-4.14631833">
        <ele>1241.0</ele>
        <time>2018-05-26T11:56:46.690Z</time>
      </trkpt>
      <trkpt lat="40.8251" lon="-4.14631833">
        <ele>1241.0</ele>
        <time>2018-05-26T11:56:47.701Z</time>
      </trkpt>
      <trkpt lat="40.82512333" lon="-4.14624167">
        <ele>1241.0</ele>
        <time>2018-05-26T11:56:48.695Z</time>
      </trkpt>
      <trkpt lat="40.82512333" lon="-4.14624167">
        <ele>1241.0</ele>
        <time>2018-05-26T11:56:49.703Z</time>
      </trkpt>
      <trkpt lat="40.82514" lon="-4.14616167">
        <ele>1241.0</ele>
        <time>2018-05-26T11:56:50.710Z</time>
      </trkpt>
      <trkpt lat="40.82514" lon="-4.14616167">
        <ele>1241.0</ele>
        <time>2018-05-26T11:56:51.676Z</time>
      </trkpt>
      <trkpt lat="40.82515" lon="-4.14608167">
        <ele>1242.0</ele>
        <time>2018-05-26T11:56:52.678Z</time>
      </trkpt>
      <trkpt lat="40.82515" lon="-4.14608167">
        <ele>1242.0</ele>
        <time>2018-05-26T11:56:53.684Z</time>
      </trkpt>
      <trkpt lat="40.825155" lon="-4.14600167">
        <ele>1242.0</ele>
        <time>2018-05-26T11:56:54.694Z</time>
      </trkpt>
      <trkpt lat="40.82515667" lon="-4.14596333">
        <ele>1242.0</ele>
        <time>2018-05-26T11:56:55.697Z</time>
      </trkpt>
      <trkpt lat="40.82515667" lon="-4.14596333">
        <ele>1242.0</ele>
        <time>2018-05-26T11:56:56.703Z</time>
      </trkpt>
      <trkpt lat="40.82515333" lon="-4.145905">
        <ele>1243.0</ele>
        <time>2018-05-26T11:56:57.713Z</time>
      </trkpt>
      <trkpt lat="40.82515333" lon="-4.145905">
        <ele>1243.0</ele>
        <time>2018-05-26T11:56:58.680Z</time>
      </trkpt>
      <trkpt lat="40.82514333" lon="-4.14584167">
        <ele>1243.0</ele>
        <time>2018-05-26T11:56:59.687Z</time>
      </trkpt>
      <trkpt lat="40.82514333" lon="-4.14584167">
        <ele>1243.0</ele>
        <time>2018-05-26T11:57:00.694Z</time>
      </trkpt>
      <trkpt lat="40.82513167" lon="-4.14577333">
        <ele>1244.0</ele>
        <time>2018-05-26T11:57:01.701Z</time>
      </trkpt>
      <trkpt lat="40.82513" lon="-4.14574">
        <ele>1244.0</ele>
        <time>2018-05-26T11:57:02.709Z</time>
      </trkpt>
      <trkpt lat="40.82512667" lon="-4.14571">
        <ele>1244.0</ele>
        <time>2018-05-26T11:57:03.708Z</time>
      </trkpt>
      <trkpt lat="40.82512667" lon="-4.14571">
        <ele>1244.0</ele>
        <time>2018-05-26T11:57:04.675Z</time>
      </trkpt>
      <trkpt lat="40.825125" lon="-4.14564667">
        <ele>1245.0</ele>
        <time>2018-05-26T11:57:05.706Z</time>
      </trkpt>
      <trkpt lat="40.825115" lon="-4.14561167">
        <ele>1245.0</ele>
        <time>2018-05-26T11:57:06.690Z</time>
      </trkpt>
      <trkpt lat="40.825115" lon="-4.14561167">
        <ele>1245.0</ele>
        <time>2018-05-26T11:57:07.697Z</time>
      </trkpt>
      <trkpt lat="40.82509833" lon="-4.14553667">
        <ele>1246.0</ele>
        <time>2018-05-26T11:57:08.706Z</time>
      </trkpt>
      <trkpt lat="40.825095" lon="-4.14549667">
        <ele>1246.0</ele>
        <time>2018-05-26T11:57:09.688Z</time>
      </trkpt>
      <trkpt lat="40.825095" lon="-4.14549667">
        <ele>1246.0</ele>
        <time>2018-05-26T11:57:10.695Z</time>
      </trkpt>
      <trkpt lat="40.82509" lon="-4.14541667">
        <ele>1246.0</ele>
        <time>2018-05-26T11:57:11.702Z</time>
      </trkpt>
      <trkpt lat="40.825095" lon="-4.14537333">
        <ele>1246.0</ele>
        <time>2018-05-26T11:57:12.677Z</time>
      </trkpt>
      <trkpt lat="40.825095" lon="-4.14537333">
        <ele>1246.0</ele>
        <time>2018-05-26T11:57:13.684Z</time>
      </trkpt>
      <trkpt lat="40.825105" lon="-4.145285">
        <ele>1247.0</ele>
        <time>2018-05-26T11:57:14.698Z</time>
      </trkpt>
      <trkpt lat="40.825105" lon="-4.145285">
        <ele>1247.0</ele>
        <time>2018-05-26T11:57:15.707Z</time>
      </trkpt>
      <trkpt lat="40.82511667" lon="-4.14519667">
        <ele>1247.0</ele>
        <time>2018-05-26T11:57:16.680Z</time>
      </trkpt>
      <trkpt lat="40.82511667" lon="-4.14519667">
        <ele>1247.0</ele>
        <time>2018-05-26T11:57:17.686Z</time>
      </trkpt>
      <trkpt lat="40.82513167" lon="-4.14509833">
        <ele>1247.0</ele>
        <time>2018-05-26T11:57:18.708Z</time>
      </trkpt>
      <trkpt lat="40.82513167" lon="-4.14509833">
        <ele>1247.0</ele>
        <time>2018-05-26T11:57:19.714Z</time>
      </trkpt>
      <trkpt lat="40.825155" lon="-4.14499">
        <ele>1247.0</ele>
        <time>2018-05-26T11:57:20.684Z</time>
      </trkpt>
      <trkpt lat="40.82517167" lon="-4.14493667">
        <ele>1247.0</ele>
        <time>2018-05-26T11:57:21.698Z</time>
      </trkpt>
      <trkpt lat="40.82517167" lon="-4.14493667">
        <ele>1247.0</ele>
        <time>2018-05-26T11:57:22.711Z</time>
      </trkpt>
      <trkpt lat="40.82521" lon="-4.14483167">
        <ele>1247.0</ele>
        <time>2018-05-26T11:57:23.684Z</time>
      </trkpt>
      <trkpt lat="40.82521" lon="-4.14483167">
        <ele>1247.0</ele>
        <time>2018-05-26T11:57:24.691Z</time>
      </trkpt>
      <trkpt lat="40.82524833" lon="-4.14473">
        <ele>1247.0</ele>
        <time>2018-05-26T11:57:25.704Z</time>
      </trkpt>
      <trkpt lat="40.82524833" lon="-4.14473">
        <ele>1247.0</ele>
        <time>2018-05-26T11:57:26.711Z</time>
      </trkpt>
      <trkpt lat="40.82528667" lon="-4.14462667">
        <ele>1247.0</ele>
        <time>2018-05-26T11:57:27.678Z</time>
      </trkpt>
      <trkpt lat="40.82528667" lon="-4.14462667">
        <ele>1247.0</ele>
        <time>2018-05-26T11:57:28.686Z</time>
      </trkpt>
      <trkpt lat="40.82531833" lon="-4.14452">
        <ele>1247.0</ele>
        <time>2018-05-26T11:57:29.688Z</time>
      </trkpt>
      <trkpt lat="40.82531833" lon="-4.14452">
        <ele>1247.0</ele>
        <time>2018-05-26T11:57:30.697Z</time>
      </trkpt>
      <trkpt lat="40.82534" lon="-4.14441">
        <ele>1247.0</ele>
        <time>2018-05-26T11:57:31.688Z</time>
      </trkpt>
      <trkpt lat="40.82534" lon="-4.14441">
        <ele>1247.0</ele>
        <time>2018-05-26T11:57:32.709Z</time>
      </trkpt>
      <trkpt lat="40.825355" lon="-4.14430333">
        <ele>1247.0</ele>
        <time>2018-05-26T11:57:33.684Z</time>
      </trkpt>
      <trkpt lat="40.825355" lon="-4.14430333">
        <ele>1247.0</ele>
        <time>2018-05-26T11:57:34.690Z</time>
      </trkpt>
      <trkpt lat="40.82538" lon="-4.14420167">
        <ele>1247.0</ele>
        <time>2018-05-26T11:57:35.685Z</time>
      </trkpt>
      <trkpt lat="40.82538" lon="-4.14420167">
        <ele>1247.0</ele>
        <time>2018-05-26T11:57:36.692Z</time>
      </trkpt>
      <trkpt lat="40.825415" lon="-4.144105">
        <ele>1246.0</ele>
        <time>2018-05-26T11:57:37.699Z</time>
      </trkpt>
      <trkpt lat="40.825415" lon="-4.144105">
        <ele>1246.0</ele>
        <time>2018-05-26T11:57:38.707Z</time>
      </trkpt>
      <trkpt lat="40.82546167" lon="-4.14400667">
        <ele>1246.0</ele>
        <time>2018-05-26T11:57:39.710Z</time>
      </trkpt>
      <trkpt lat="40.82546167" lon="-4.14400667">
        <ele>1246.0</ele>
        <time>2018-05-26T11:57:40.676Z</time>
      </trkpt>
      <trkpt lat="40.82551" lon="-4.14391">
        <ele>1246.0</ele>
        <time>2018-05-26T11:57:41.683Z</time>
      </trkpt>
      <trkpt lat="40.82551" lon="-4.14391">
        <ele>1246.0</ele>
        <time>2018-05-26T11:57:42.690Z</time>
      </trkpt>
      <trkpt lat="40.82556167" lon="-4.14381333">
        <ele>1245.0</ele>
        <time>2018-05-26T11:57:43.684Z</time>
      </trkpt>
      <trkpt lat="40.82556167" lon="-4.14381333">
        <ele>1245.0</ele>
        <time>2018-05-26T11:57:44.691Z</time>
      </trkpt>
      <trkpt lat="40.82560833" lon="-4.14371667">
        <ele>1245.0</ele>
        <time>2018-05-26T11:57:45.706Z</time>
      </trkpt>
      <trkpt lat="40.82562333" lon="-4.14366667">
        <ele>1246.0</ele>
        <time>2018-05-26T11:57:46.701Z</time>
      </trkpt>
      <trkpt lat="40.82562333" lon="-4.14366667">
        <ele>1246.0</ele>
        <time>2018-05-26T11:57:47.708Z</time>
      </trkpt>
      <trkpt lat="40.82565167" lon="-4.14356667">
        <ele>1246.0</ele>
        <time>2018-05-26T11:57:48.684Z</time>
      </trkpt>
      <trkpt lat="40.82566333" lon="-4.14352">
        <ele>1246.0</ele>
        <time>2018-05-26T11:57:49.684Z</time>
      </trkpt>
      <trkpt lat="40.825675" lon="-4.14347333">
        <ele>1246.0</ele>
        <time>2018-05-26T11:57:50.691Z</time>
      </trkpt>
      <trkpt lat="40.825675" lon="-4.14347333">
        <ele>1246.0</ele>
        <time>2018-05-26T11:57:51.697Z</time>
      </trkpt>
      <trkpt lat="40.82569667" lon="-4.14338167">
        <ele>1247.0</ele>
        <time>2018-05-26T11:57:52.698Z</time>
      </trkpt>
      <trkpt lat="40.82569667" lon="-4.14338167">
        <ele>1247.0</ele>
        <time>2018-05-26T11:57:53.704Z</time>
      </trkpt>
      <trkpt lat="40.82572333" lon="-4.14329333">
        <ele>1247.0</ele>
        <time>2018-05-26T11:57:54.714Z</time>
      </trkpt>
      <trkpt lat="40.82573667" lon="-4.14325167">
        <ele>1247.0</ele>
        <time>2018-05-26T11:57:55.681Z</time>
      </trkpt>
      <trkpt lat="40.82573667" lon="-4.14325167">
        <ele>1247.0</ele>
        <time>2018-05-26T11:57:56.712Z</time>
      </trkpt>
      <trkpt lat="40.82576" lon="-4.14317">
        <ele>1248.0</ele>
        <time>2018-05-26T11:57:57.680Z</time>
      </trkpt>
      <trkpt lat="40.82576" lon="-4.14317">
        <ele>1248.0</ele>
        <time>2018-05-26T11:57:58.687Z</time>
      </trkpt>
      <trkpt lat="40.82578667" lon="-4.143095">
        <ele>1248.0</ele>
        <time>2018-05-26T11:57:59.711Z</time>
      </trkpt>
      <trkpt lat="40.82578667" lon="-4.143095">
        <ele>1248.0</ele>
        <time>2018-05-26T11:58:00.677Z</time>
      </trkpt>
      <trkpt lat="40.82580833" lon="-4.14301833">
        <ele>1249.0</ele>
        <time>2018-05-26T11:58:01.684Z</time>
      </trkpt>
      <trkpt lat="40.82582" lon="-4.14297833">
        <ele>1249.0</ele>
        <time>2018-05-26T11:58:02.710Z</time>
      </trkpt>
      <trkpt lat="40.82583333" lon="-4.14294">
        <ele>1249.0</ele>
        <time>2018-05-26T11:58:03.710Z</time>
      </trkpt>
      <trkpt lat="40.82583333" lon="-4.14294">
        <ele>1249.0</ele>
        <time>2018-05-26T11:58:04.679Z</time>
      </trkpt>
      <trkpt lat="40.82585333" lon="-4.14286333">
        <ele>1250.0</ele>
        <time>2018-05-26T11:58:05.687Z</time>
      </trkpt>
      <trkpt lat="40.825865" lon="-4.14282667">
        <ele>1250.0</ele>
        <time>2018-05-26T11:58:06.703Z</time>
      </trkpt>
      <trkpt lat="40.825865" lon="-4.14282667">
        <ele>1250.0</ele>
        <time>2018-05-26T11:58:07.710Z</time>
      </trkpt>
      <trkpt lat="40.82588667" lon="-4.14275333">
        <ele>1250.0</ele>
        <time>2018-05-26T11:58:08.677Z</time>
      </trkpt>
      <trkpt lat="40.82589833" lon="-4.14271333">
        <ele>1250.0</ele>
        <time>2018-05-26T11:58:09.708Z</time>
      </trkpt>
      <trkpt lat="40.82589833" lon="-4.14271333">
        <ele>1250.0</ele>
        <time>2018-05-26T11:58:10.675Z</time>
      </trkpt>
      <trkpt lat="40.82591833" lon="-4.142635">
        <ele>1250.0</ele>
        <time>2018-05-26T11:58:11.683Z</time>
      </trkpt>
      <trkpt lat="40.82592833" lon="-4.14259833">
        <ele>1251.0</ele>
        <time>2018-05-26T11:58:12.698Z</time>
      </trkpt>
      <trkpt lat="40.82592833" lon="-4.14259833">
        <ele>1251.0</ele>
        <time>2018-05-26T11:58:13.692Z</time>
      </trkpt>
      <trkpt lat="40.82594667" lon="-4.14252333">
        <ele>1251.0</ele>
        <time>2018-05-26T11:58:14.688Z</time>
      </trkpt>
      <trkpt lat="40.82595333" lon="-4.142485">
        <ele>1251.0</ele>
        <time>2018-05-26T11:58:15.696Z</time>
      </trkpt>
      <trkpt lat="40.82595333" lon="-4.142485">
        <ele>1251.0</ele>
        <time>2018-05-26T11:58:16.709Z</time>
      </trkpt>
      <trkpt lat="40.82596833" lon="-4.14241167">
        <ele>1251.0</ele>
        <time>2018-05-26T11:58:17.690Z</time>
      </trkpt>
      <trkpt lat="40.82597833" lon="-4.142375">
        <ele>1251.0</ele>
        <time>2018-05-26T11:58:18.696Z</time>
      </trkpt>
      <trkpt lat="40.82597833" lon="-4.142375">
        <ele>1251.0</ele>
        <time>2018-05-26T11:58:19.708Z</time>
      </trkpt>
      <trkpt lat="40.82599667" lon="-4.14230333">
        <ele>1252.0</ele>
        <time>2018-05-26T11:58:20.685Z</time>
      </trkpt>
      <trkpt lat="40.82599667" lon="-4.14230333">
        <ele>1252.0</ele>
        <time>2018-05-26T11:58:21.693Z</time>
      </trkpt>
      <trkpt lat="40.82602" lon="-4.14222667">
        <ele>1252.0</ele>
        <time>2018-05-26T11:58:22.700Z</time>
      </trkpt>
      <trkpt lat="40.82602" lon="-4.14222667">
        <ele>1252.0</ele>
        <time>2018-05-26T11:58:23.709Z</time>
      </trkpt>
      <trkpt lat="40.82604167" lon="-4.142145">
        <ele>1252.0</ele>
        <time>2018-05-26T11:58:24.681Z</time>
      </trkpt>
      <trkpt lat="40.82605" lon="-4.1421">
        <ele>1252.0</ele>
        <time>2018-05-26T11:58:25.688Z</time>
      </trkpt>
      <trkpt lat="40.82605" lon="-4.1421">
        <ele>1252.0</ele>
        <time>2018-05-26T11:58:26.695Z</time>
      </trkpt>
      <trkpt lat="40.82605833" lon="-4.14202833">
        <ele>1252.0</ele>
        <time>2018-05-26T11:58:27.683Z</time>
      </trkpt>
      <trkpt lat="40.82605833" lon="-4.14202833">
        <ele>1252.0</ele>
        <time>2018-05-26T11:58:28.692Z</time>
      </trkpt>
      <trkpt lat="40.82605667" lon="-4.14197167">
        <ele>1252.0</ele>
        <time>2018-05-26T11:58:29.703Z</time>
      </trkpt>
      <trkpt lat="40.82605667" lon="-4.141945">
        <ele>1252.0</ele>
        <time>2018-05-26T11:58:30.675Z</time>
      </trkpt>
      <trkpt lat="40.82605667" lon="-4.141945">
        <ele>1252.0</ele>
        <time>2018-05-26T11:58:31.681Z</time>
      </trkpt>
      <trkpt lat="40.82604667" lon="-4.14189333">
        <ele>1252.0</ele>
        <time>2018-05-26T11:58:32.703Z</time>
      </trkpt>
      <trkpt lat="40.82604167" lon="-4.14186833">
        <ele>1253.0</ele>
        <time>2018-05-26T11:58:33.680Z</time>
      </trkpt>
      <trkpt lat="40.82604167" lon="-4.14186833">
        <ele>1253.0</ele>
        <time>2018-05-26T11:58:34.686Z</time>
      </trkpt>
      <trkpt lat="40.82603" lon="-4.14182">
        <ele>1253.0</ele>
        <time>2018-05-26T11:58:35.707Z</time>
      </trkpt>
      <trkpt lat="40.82602167" lon="-4.14179833">
        <ele>1254.0</ele>
        <time>2018-05-26T11:58:36.713Z</time>
      </trkpt>
      <trkpt lat="40.82602167" lon="-4.14179833">
        <ele>1254.0</ele>
        <time>2018-05-26T11:58:37.680Z</time>
      </trkpt>
      <trkpt lat="40.82600167" lon="-4.14175333">
        <ele>1255.0</ele>
        <time>2018-05-26T11:58:38.687Z</time>
      </trkpt>
      <trkpt lat="40.82599167" lon="-4.14173">
        <ele>1255.0</ele>
        <time>2018-05-26T11:58:39.712Z</time>
      </trkpt>
      <trkpt lat="40.82599167" lon="-4.14173">
        <ele>1255.0</ele>
        <time>2018-05-26T11:58:40.678Z</time>
      </trkpt>
      <trkpt lat="40.82597333" lon="-4.14167333">
        <ele>1256.0</ele>
        <time>2018-05-26T11:58:41.694Z</time>
      </trkpt>
      <trkpt lat="40.82597333" lon="-4.14167333">
        <ele>1256.0</ele>
        <time>2018-05-26T11:58:42.702Z</time>
      </trkpt>
      <trkpt lat="40.82596833" lon="-4.14160667">
        <ele>1257.0</ele>
        <time>2018-05-26T11:58:43.694Z</time>
      </trkpt>
      <trkpt lat="40.82596833" lon="-4.14160667">
        <ele>1257.0</ele>
        <time>2018-05-26T11:58:44.700Z</time>
      </trkpt>
      <trkpt lat="40.82598333" lon="-4.14153333">
        <ele>1257.0</ele>
        <time>2018-05-26T11:58:45.712Z</time>
      </trkpt>
      <trkpt lat="40.82599167" lon="-4.141495">
        <ele>1257.0</ele>
        <time>2018-05-26T11:58:46.677Z</time>
      </trkpt>
      <trkpt lat="40.82599167" lon="-4.141495">
        <ele>1257.0</ele>
        <time>2018-05-26T11:58:47.683Z</time>
      </trkpt>
      <trkpt lat="40.82600833" lon="-4.141415">
        <ele>1257.0</ele>
        <time>2018-05-26T11:58:48.700Z</time>
      </trkpt>
      <trkpt lat="40.82600833" lon="-4.141415">
        <ele>1257.0</ele>
        <time>2018-05-26T11:58:49.706Z</time>
      </trkpt>
      <trkpt lat="40.82602667" lon="-4.14132833">
        <ele>1257.0</ele>
        <time>2018-05-26T11:58:50.677Z</time>
      </trkpt>
      <trkpt lat="40.82603833" lon="-4.141285">
        <ele>1257.0</ele>
        <time>2018-05-26T11:58:51.700Z</time>
      </trkpt>
      <trkpt lat="40.82603833" lon="-4.141285">
        <ele>1257.0</ele>
        <time>2018-05-26T11:58:52.708Z</time>
      </trkpt>
      <trkpt lat="40.82605833" lon="-4.14119833">
        <ele>1256.0</ele>
        <time>2018-05-26T11:58:53.677Z</time>
      </trkpt>
      <trkpt lat="40.82605833" lon="-4.14119833">
        <ele>1256.0</ele>
        <time>2018-05-26T11:58:54.683Z</time>
      </trkpt>
      <trkpt lat="40.826085" lon="-4.1411">
        <ele>1256.0</ele>
        <time>2018-05-26T11:58:55.678Z</time>
      </trkpt>
      <trkpt lat="40.826085" lon="-4.1411">
        <ele>1256.0</ele>
        <time>2018-05-26T11:58:56.684Z</time>
      </trkpt>
      <trkpt lat="40.82612" lon="-4.141">
        <ele>1256.0</ele>
        <time>2018-05-26T11:58:57.692Z</time>
      </trkpt>
      <trkpt lat="40.82613833" lon="-4.140955">
        <ele>1256.0</ele>
        <time>2018-05-26T11:58:58.678Z</time>
      </trkpt>
      <trkpt lat="40.82613833" lon="-4.140955">
        <ele>1256.0</ele>
        <time>2018-05-26T11:58:59.685Z</time>
      </trkpt>
      <trkpt lat="40.826175" lon="-4.14088667">
        <ele>1256.0</ele>
        <time>2018-05-26T11:59:00.692Z</time>
      </trkpt>
      <trkpt lat="40.826175" lon="-4.14088667">
        <ele>1256.0</ele>
        <time>2018-05-26T11:59:01.702Z</time>
      </trkpt>
      <trkpt lat="40.82620667" lon="-4.140835">
        <ele>1257.0</ele>
        <time>2018-05-26T11:59:02.681Z</time>
      </trkpt>
      <trkpt lat="40.82620667" lon="-4.140835">
        <ele>1257.0</ele>
        <time>2018-05-26T11:59:03.688Z</time>
      </trkpt>
      <trkpt lat="40.82623333" lon="-4.14079">
        <ele>1258.0</ele>
        <time>2018-05-26T11:59:04.695Z</time>
      </trkpt>
      <trkpt lat="40.82624833" lon="-4.14076833">
        <ele>1258.0</ele>
        <time>2018-05-26T11:59:05.693Z</time>
      </trkpt>
      <trkpt lat="40.82624833" lon="-4.14076833">
        <ele>1258.0</ele>
        <time>2018-05-26T11:59:06.700Z</time>
      </trkpt>
      <trkpt lat="40.82627333" lon="-4.14072833">
        <ele>1259.0</ele>
        <time>2018-05-26T11:59:07.707Z</time>
      </trkpt>
      <trkpt lat="40.82627333" lon="-4.14072833">
        <ele>1259.0</ele>
        <time>2018-05-26T11:59:08.714Z</time>
      </trkpt>
      <trkpt lat="40.82629833" lon="-4.14068833">
        <ele>1260.0</ele>
        <time>2018-05-26T11:59:09.703Z</time>
      </trkpt>
      <trkpt lat="40.82629833" lon="-4.14068833">
        <ele>1260.0</ele>
        <time>2018-05-26T11:59:10.677Z</time>
      </trkpt>
      <trkpt lat="40.82632167" lon="-4.14064833">
        <ele>1260.0</ele>
        <time>2018-05-26T11:59:11.684Z</time>
      </trkpt>
      <trkpt lat="40.82632167" lon="-4.14064833">
        <ele>1260.0</ele>
        <time>2018-05-26T11:59:12.692Z</time>
      </trkpt>
      <trkpt lat="40.82635" lon="-4.14060667">
        <ele>1261.0</ele>
        <time>2018-05-26T11:59:13.679Z</time>
      </trkpt>
      <trkpt lat="40.82635" lon="-4.14060667">
        <ele>1261.0</ele>
        <time>2018-05-26T11:59:14.686Z</time>
      </trkpt>
      <trkpt lat="40.82637833" lon="-4.14056333">
        <ele>1262.0</ele>
        <time>2018-05-26T11:59:15.694Z</time>
      </trkpt>
      <trkpt lat="40.82637833" lon="-4.14056333">
        <ele>1262.0</ele>
        <time>2018-05-26T11:59:16.707Z</time>
      </trkpt>
      <trkpt lat="40.82640667" lon="-4.14051833">
        <ele>1262.0</ele>
        <time>2018-05-26T11:59:17.693Z</time>
      </trkpt>
      <trkpt lat="40.82640667" lon="-4.14051833">
        <ele>1262.0</ele>
        <time>2018-05-26T11:59:18.699Z</time>
      </trkpt>
      <trkpt lat="40.826435" lon="-4.14046667">
        <ele>1263.0</ele>
        <time>2018-05-26T11:59:19.711Z</time>
      </trkpt>
      <trkpt lat="40.82644667" lon="-4.14044167">
        <ele>1263.0</ele>
        <time>2018-05-26T11:59:20.696Z</time>
      </trkpt>
      <trkpt lat="40.82644667" lon="-4.14044167">
        <ele>1263.0</ele>
        <time>2018-05-26T11:59:21.704Z</time>
      </trkpt>
      <trkpt lat="40.82646833" lon="-4.14039167">
        <ele>1264.0</ele>
        <time>2018-05-26T11:59:22.711Z</time>
      </trkpt>
      <trkpt lat="40.82648" lon="-4.14036333">
        <ele>1264.0</ele>
        <time>2018-05-26T11:59:23.696Z</time>
      </trkpt>
      <trkpt lat="40.82648" lon="-4.14036333">
        <ele>1264.0</ele>
        <time>2018-05-26T11:59:24.708Z</time>
      </trkpt>
      <trkpt lat="40.82650667" lon="-4.14030333">
        <ele>1265.0</ele>
        <time>2018-05-26T11:59:25.676Z</time>
      </trkpt>
      <trkpt lat="40.82652167" lon="-4.14027667">
        <ele>1265.0</ele>
        <time>2018-05-26T11:59:26.695Z</time>
      </trkpt>
      <trkpt lat="40.82653833" lon="-4.14025">
        <ele>1265.0</ele>
        <time>2018-05-26T11:59:27.703Z</time>
      </trkpt>
      <trkpt lat="40.82653833" lon="-4.14025">
        <ele>1265.0</ele>
        <time>2018-05-26T11:59:28.711Z</time>
      </trkpt>
      <trkpt lat="40.82657667" lon="-4.140205">
        <ele>1265.0</ele>
        <time>2018-05-26T11:59:29.677Z</time>
      </trkpt>
      <trkpt lat="40.82657667" lon="-4.140205">
        <ele>1265.0</ele>
        <time>2018-05-26T11:59:30.683Z</time>
      </trkpt>
      <trkpt lat="40.82661667" lon="-4.14016833">
        <ele>1265.0</ele>
        <time>2018-05-26T11:59:31.691Z</time>
      </trkpt>
      <trkpt lat="40.82661667" lon="-4.14016833">
        <ele>1265.0</ele>
        <time>2018-05-26T11:59:32.710Z</time>
      </trkpt>
      <trkpt lat="40.82666" lon="-4.14012333">
        <ele>1265.0</ele>
        <time>2018-05-26T11:59:33.701Z</time>
      </trkpt>
      <trkpt lat="40.82668167" lon="-4.14010167">
        <ele>1265.0</ele>
        <time>2018-05-26T11:59:34.708Z</time>
      </trkpt>
      <trkpt lat="40.82668167" lon="-4.14010167">
        <ele>1265.0</ele>
        <time>2018-05-26T11:59:35.714Z</time>
      </trkpt>
      <trkpt lat="40.826725" lon="-4.14005333">
        <ele>1265.0</ele>
        <time>2018-05-26T11:59:36.714Z</time>
      </trkpt>
      <trkpt lat="40.826725" lon="-4.14005333">
        <ele>1265.0</ele>
        <time>2018-05-26T11:59:37.681Z</time>
      </trkpt>
      <trkpt lat="40.82676333" lon="-4.139995">
        <ele>1266.0</ele>
        <time>2018-05-26T11:59:38.705Z</time>
      </trkpt>
      <trkpt lat="40.82677833" lon="-4.13996667">
        <ele>1266.0</ele>
        <time>2018-05-26T11:59:39.710Z</time>
      </trkpt>
      <trkpt lat="40.82677833" lon="-4.13996667">
        <ele>1266.0</ele>
        <time>2018-05-26T11:59:40.676Z</time>
      </trkpt>
      <trkpt lat="40.826805" lon="-4.13990667">
        <ele>1267.0</ele>
        <time>2018-05-26T11:59:41.698Z</time>
      </trkpt>
      <trkpt lat="40.826805" lon="-4.13990667">
        <ele>1267.0</ele>
        <time>2018-05-26T11:59:42.703Z</time>
      </trkpt>
      <trkpt lat="40.826825" lon="-4.13984667">
        <ele>1267.0</ele>
        <time>2018-05-26T11:59:43.690Z</time>
      </trkpt>
      <trkpt lat="40.826825" lon="-4.13984667">
        <ele>1267.0</ele>
        <time>2018-05-26T11:59:44.697Z</time>
      </trkpt>
      <trkpt lat="40.82684667" lon="-4.13978333">
        <ele>1268.0</ele>
        <time>2018-05-26T11:59:45.704Z</time>
      </trkpt>
      <trkpt lat="40.82684667" lon="-4.13978333">
        <ele>1268.0</ele>
        <time>2018-05-26T11:59:46.711Z</time>
      </trkpt>
      <trkpt lat="40.82687" lon="-4.139725">
        <ele>1269.0</ele>
        <time>2018-05-26T11:59:47.679Z</time>
      </trkpt>
      <trkpt lat="40.82687" lon="-4.139725">
        <ele>1269.0</ele>
        <time>2018-05-26T11:59:48.685Z</time>
      </trkpt>
      <trkpt lat="40.82689167" lon="-4.13966667">
        <ele>1269.0</ele>
        <time>2018-05-26T11:59:49.692Z</time>
      </trkpt>
      <trkpt lat="40.826905" lon="-4.13963833">
        <ele>1270.0</ele>
        <time>2018-05-26T11:59:50.708Z</time>
      </trkpt>
      <trkpt lat="40.82691167" lon="-4.13960833">
        <ele>1270.0</ele>
        <time>2018-05-26T11:59:51.676Z</time>
      </trkpt>
      <trkpt lat="40.82691167" lon="-4.13960833">
        <ele>1270.0</ele>
        <time>2018-05-26T11:59:52.682Z</time>
      </trkpt>
      <trkpt lat="40.82693833" lon="-4.13955">
        <ele>1270.0</ele>
        <time>2018-05-26T11:59:53.708Z</time>
      </trkpt>
      <trkpt lat="40.82695" lon="-4.13952167">
        <ele>1271.0</ele>
        <time>2018-05-26T11:59:54.679Z</time>
      </trkpt>
      <trkpt lat="40.82695" lon="-4.13952167">
        <ele>1271.0</ele>
        <time>2018-05-26T11:59:55.685Z</time>
      </trkpt>
      <trkpt lat="40.82697167" lon="-4.13946167">
        <ele>1271.0</ele>
        <time>2018-05-26T11:59:56.677Z</time>
      </trkpt>
      <trkpt lat="40.82697833" lon="-4.13943">
        <ele>1271.0</ele>
        <time>2018-05-26T11:59:57.683Z</time>
      </trkpt>
      <trkpt lat="40.82697833" lon="-4.13943">
        <ele>1271.0</ele>
        <time>2018-05-26T11:59:58.695Z</time>
      </trkpt>
      <trkpt lat="40.826995" lon="-4.13936833">
        <ele>1272.0</ele>
        <time>2018-05-26T11:59:59.714Z</time>
      </trkpt>
      <trkpt lat="40.826995" lon="-4.13936833">
        <ele>1272.0</ele>
        <time>2018-05-26T12:00:00.680Z</time>
      </trkpt>
      <trkpt lat="40.82702" lon="-4.139305">
        <ele>1272.0</ele>
        <time>2018-05-26T12:00:01.689Z</time>
      </trkpt>
      <trkpt lat="40.82702" lon="-4.139305">
        <ele>1272.0</ele>
        <time>2018-05-26T12:00:02.695Z</time>
      </trkpt>
      <trkpt lat="40.82705" lon="-4.13924333">
        <ele>1273.0</ele>
        <time>2018-05-26T12:00:03.678Z</time>
      </trkpt>
      <trkpt lat="40.82705" lon="-4.13924333">
        <ele>1273.0</ele>
        <time>2018-05-26T12:00:04.682Z</time>
      </trkpt>
      <trkpt lat="40.827075" lon="-4.139185">
        <ele>1273.0</ele>
        <time>2018-05-26T12:00:05.689Z</time>
      </trkpt>
      <trkpt lat="40.827075" lon="-4.139185">
        <ele>1273.0</ele>
        <time>2018-05-26T12:00:06.695Z</time>
      </trkpt>
      <trkpt lat="40.8271" lon="-4.13912333">
        <ele>1274.0</ele>
        <time>2018-05-26T12:00:07.686Z</time>
      </trkpt>
      <trkpt lat="40.82711333" lon="-4.13909333">
        <ele>1274.0</ele>
        <time>2018-05-26T12:00:08.707Z</time>
      </trkpt>
      <trkpt lat="40.82712833" lon="-4.13906333">
        <ele>1274.0</ele>
        <time>2018-05-26T12:00:09.676Z</time>
      </trkpt>
      <trkpt lat="40.82714667" lon="-4.13903">
        <ele>1274.0</ele>
        <time>2018-05-26T12:00:10.685Z</time>
      </trkpt>
      <trkpt lat="40.82714667" lon="-4.13903">
        <ele>1274.0</ele>
        <time>2018-05-26T12:00:11.692Z</time>
      </trkpt>
      <trkpt lat="40.82718167" lon="-4.13896167">
        <ele>1275.0</ele>
        <time>2018-05-26T12:00:12.712Z</time>
      </trkpt>
      <trkpt lat="40.82718167" lon="-4.13896167">
        <ele>1275.0</ele>
        <time>2018-05-26T12:00:13.679Z</time>
      </trkpt>
      <trkpt lat="40.82722167" lon="-4.13889167">
        <ele>1275.0</ele>
        <time>2018-05-26T12:00:14.677Z</time>
      </trkpt>
      <trkpt lat="40.82724167" lon="-4.138855">
        <ele>1275.0</ele>
        <time>2018-05-26T12:00:15.678Z</time>
      </trkpt>
      <trkpt lat="40.82724167" lon="-4.138855">
        <ele>1275.0</ele>
        <time>2018-05-26T12:00:16.684Z</time>
      </trkpt>
      <trkpt lat="40.82728333" lon="-4.138785">
        <ele>1275.0</ele>
        <time>2018-05-26T12:00:17.694Z</time>
      </trkpt>
      <trkpt lat="40.82728333" lon="-4.138785">
        <ele>1275.0</ele>
        <time>2018-05-26T12:00:18.701Z</time>
      </trkpt>
      <trkpt lat="40.82732167" lon="-4.13871667">
        <ele>1275.0</ele>
        <time>2018-05-26T12:00:19.708Z</time>
      </trkpt>
      <trkpt lat="40.82732167" lon="-4.13871667">
        <ele>1275.0</ele>
        <time>2018-05-26T12:00:20.714Z</time>
      </trkpt>
      <trkpt lat="40.82737" lon="-4.13864333">
        <ele>1275.0</ele>
        <time>2018-05-26T12:00:21.683Z</time>
      </trkpt>
      <trkpt lat="40.82739667" lon="-4.138605">
        <ele>1275.0</ele>
        <time>2018-05-26T12:00:22.714Z</time>
      </trkpt>
      <trkpt lat="40.82739667" lon="-4.138605">
        <ele>1275.0</ele>
        <time>2018-05-26T12:00:23.680Z</time>
      </trkpt>
      <trkpt lat="40.82744667" lon="-4.138525">
        <ele>1275.0</ele>
        <time>2018-05-26T12:00:24.691Z</time>
      </trkpt>
      <trkpt lat="40.82744667" lon="-4.138525">
        <ele>1275.0</ele>
        <time>2018-05-26T12:00:25.677Z</time>
      </trkpt>
      <trkpt lat="40.82749" lon="-4.13843833">
        <ele>1275.0</ele>
        <time>2018-05-26T12:00:26.676Z</time>
      </trkpt>
      <trkpt lat="40.82751167" lon="-4.13839833">
        <ele>1275.0</ele>
        <time>2018-05-26T12:00:27.685Z</time>
      </trkpt>
      <trkpt lat="40.82751167" lon="-4.13839833">
        <ele>1275.0</ele>
        <time>2018-05-26T12:00:28.692Z</time>
      </trkpt>
      <trkpt lat="40.827565" lon="-4.138315">
        <ele>1275.0</ele>
        <time>2018-05-26T12:00:29.677Z</time>
      </trkpt>
      <trkpt lat="40.827565" lon="-4.138315">
        <ele>1275.0</ele>
        <time>2018-05-26T12:00:30.684Z</time>
      </trkpt>
      <trkpt lat="40.82761667" lon="-4.13823167">
        <ele>1275.0</ele>
        <time>2018-05-26T12:00:31.691Z</time>
      </trkpt>
      <trkpt lat="40.82764167" lon="-4.13818833">
        <ele>1275.0</ele>
        <time>2018-05-26T12:00:32.702Z</time>
      </trkpt>
      <trkpt lat="40.82764167" lon="-4.13818833">
        <ele>1275.0</ele>
        <time>2018-05-26T12:00:33.710Z</time>
      </trkpt>
      <trkpt lat="40.82769833" lon="-4.138105">
        <ele>1275.0</ele>
        <time>2018-05-26T12:00:34.691Z</time>
      </trkpt>
      <trkpt lat="40.82772667" lon="-4.13806167">
        <ele>1275.0</ele>
        <time>2018-05-26T12:00:35.714Z</time>
      </trkpt>
      <trkpt lat="40.82772667" lon="-4.13806167">
        <ele>1275.0</ele>
        <time>2018-05-26T12:00:36.679Z</time>
      </trkpt>
      <trkpt lat="40.82777667" lon="-4.13797333">
        <ele>1275.0</ele>
        <time>2018-05-26T12:00:37.699Z</time>
      </trkpt>
      <trkpt lat="40.8278" lon="-4.13792667">
        <ele>1275.0</ele>
        <time>2018-05-26T12:00:38.678Z</time>
      </trkpt>
      <trkpt lat="40.82781833" lon="-4.13787667">
        <ele>1275.0</ele>
        <time>2018-05-26T12:00:39.684Z</time>
      </trkpt>
      <trkpt lat="40.82781833" lon="-4.13787667">
        <ele>1275.0</ele>
        <time>2018-05-26T12:00:40.691Z</time>
      </trkpt>
      <trkpt lat="40.82785" lon="-4.13777333">
        <ele>1275.0</ele>
        <time>2018-05-26T12:00:41.677Z</time>
      </trkpt>
      <trkpt lat="40.82787" lon="-4.13772833">
        <ele>1275.0</ele>
        <time>2018-05-26T12:00:42.708Z</time>
      </trkpt>
      <trkpt lat="40.82787" lon="-4.13772833">
        <ele>1275.0</ele>
        <time>2018-05-26T12:00:43.687Z</time>
      </trkpt>
      <trkpt lat="40.82791833" lon="-4.13764667">
        <ele>1276.0</ele>
        <time>2018-05-26T12:00:44.693Z</time>
      </trkpt>
      <trkpt lat="40.827945" lon="-4.13760333">
        <ele>1276.0</ele>
        <time>2018-05-26T12:00:45.686Z</time>
      </trkpt>
      <trkpt lat="40.827945" lon="-4.13760333">
        <ele>1276.0</ele>
        <time>2018-05-26T12:00:46.692Z</time>
      </trkpt>
      <trkpt lat="40.82799833" lon="-4.13751333">
        <ele>1276.0</ele>
        <time>2018-05-26T12:00:47.708Z</time>
      </trkpt>
      <trkpt lat="40.82802667" lon="-4.13746667">
        <ele>1276.0</ele>
        <time>2018-05-26T12:00:48.688Z</time>
      </trkpt>
      <trkpt lat="40.82802667" lon="-4.13746667">
        <ele>1276.0</ele>
        <time>2018-05-26T12:00:49.695Z</time>
      </trkpt>
      <trkpt lat="40.828085" lon="-4.13737">
        <ele>1276.0</ele>
        <time>2018-05-26T12:00:50.708Z</time>
      </trkpt>
      <trkpt lat="40.828115" lon="-4.13732333">
        <ele>1275.0</ele>
        <time>2018-05-26T12:00:51.707Z</time>
      </trkpt>
      <trkpt lat="40.828115" lon="-4.13732333">
        <ele>1275.0</ele>
        <time>2018-05-26T12:00:52.714Z</time>
      </trkpt>
      <trkpt lat="40.82818333" lon="-4.13723">
        <ele>1275.0</ele>
        <time>2018-05-26T12:00:53.683Z</time>
      </trkpt>
      <trkpt lat="40.82818333" lon="-4.13723">
        <ele>1275.0</ele>
        <time>2018-05-26T12:00:54.689Z</time>
      </trkpt>
      <trkpt lat="40.82825167" lon="-4.13714167">
        <ele>1275.0</ele>
        <time>2018-05-26T12:00:55.695Z</time>
      </trkpt>
      <trkpt lat="40.82825167" lon="-4.13714167">
        <ele>1275.0</ele>
        <time>2018-05-26T12:00:56.701Z</time>
      </trkpt>
      <trkpt lat="40.828325" lon="-4.13705833">
        <ele>1275.0</ele>
        <time>2018-05-26T12:00:57.678Z</time>
      </trkpt>
      <trkpt lat="40.828325" lon="-4.13705833">
        <ele>1275.0</ele>
        <time>2018-05-26T12:00:58.685Z</time>
      </trkpt>
      <trkpt lat="40.828395" lon="-4.136975">
        <ele>1275.0</ele>
        <time>2018-05-26T12:00:59.684Z</time>
      </trkpt>
      <trkpt lat="40.828395" lon="-4.136975">
        <ele>1275.0</ele>
        <time>2018-05-26T12:01:00.690Z</time>
      </trkpt>
      <trkpt lat="40.82846667" lon="-4.136885">
        <ele>1274.0</ele>
        <time>2018-05-26T12:01:01.697Z</time>
      </trkpt>
      <trkpt lat="40.82850833" lon="-4.136835">
        <ele>1274.0</ele>
        <time>2018-05-26T12:01:02.699Z</time>
      </trkpt>
      <trkpt lat="40.82850833" lon="-4.136835">
        <ele>1274.0</ele>
        <time>2018-05-26T12:01:03.706Z</time>
      </trkpt>
      <trkpt lat="40.82859667" lon="-4.13672667">
        <ele>1273.0</ele>
        <time>2018-05-26T12:01:04.714Z</time>
      </trkpt>
      <trkpt lat="40.82859667" lon="-4.13672667">
        <ele>1273.0</ele>
        <time>2018-05-26T12:01:05.680Z</time>
      </trkpt>
      <trkpt lat="40.82869167" lon="-4.13660667">
        <ele>1272.0</ele>
        <time>2018-05-26T12:01:06.691Z</time>
      </trkpt>
      <trkpt lat="40.82869167" lon="-4.13660667">
        <ele>1272.0</ele>
        <time>2018-05-26T12:01:07.698Z</time>
      </trkpt>
      <trkpt lat="40.82877167" lon="-4.13646667">
        <ele>1271.0</ele>
        <time>2018-05-26T12:01:08.710Z</time>
      </trkpt>
      <trkpt lat="40.82877167" lon="-4.13646667">
        <ele>1271.0</ele>
        <time>2018-05-26T12:01:09.681Z</time>
      </trkpt>
      <trkpt lat="40.828825" lon="-4.13630667">
        <ele>1270.0</ele>
        <time>2018-05-26T12:01:10.704Z</time>
      </trkpt>
      <trkpt lat="40.828825" lon="-4.13630667">
        <ele>1270.0</ele>
        <time>2018-05-26T12:01:11.711Z</time>
      </trkpt>
      <trkpt lat="40.82890833" lon="-4.13614333">
        <ele>1269.0</ele>
        <time>2018-05-26T12:01:12.678Z</time>
      </trkpt>
      <trkpt lat="40.82890833" lon="-4.13614333">
        <ele>1269.0</ele>
        <time>2018-05-26T12:01:13.685Z</time>
      </trkpt>
      <trkpt lat="40.82903667" lon="-4.13600167">
        <ele>1268.0</ele>
        <time>2018-05-26T12:01:14.688Z</time>
      </trkpt>
      <trkpt lat="40.82903667" lon="-4.13600167">
        <ele>1268.0</ele>
        <time>2018-05-26T12:01:15.693Z</time>
      </trkpt>
      <trkpt lat="40.82915833" lon="-4.13583833">
        <ele>1267.0</ele>
        <time>2018-05-26T12:01:16.701Z</time>
      </trkpt>
      <trkpt lat="40.82915833" lon="-4.13583833">
        <ele>1267.0</ele>
        <time>2018-05-26T12:01:17.709Z</time>
      </trkpt>
      <trkpt lat="40.82925667" lon="-4.13564833">
        <ele>1267.0</ele>
        <time>2018-05-26T12:01:18.687Z</time>
      </trkpt>
      <trkpt lat="40.82925667" lon="-4.13564833">
        <ele>1267.0</ele>
        <time>2018-05-26T12:01:19.694Z</time>
      </trkpt>
      <trkpt lat="40.82933167" lon="-4.13545833">
        <ele>1266.0</ele>
        <time>2018-05-26T12:01:20.701Z</time>
      </trkpt>
      <trkpt lat="40.82935333" lon="-4.13537167">
        <ele>1265.0</ele>
        <time>2018-05-26T12:01:21.692Z</time>
      </trkpt>
      <trkpt lat="40.82935333" lon="-4.13537167">
        <ele>1265.0</ele>
        <time>2018-05-26T12:01:22.699Z</time>
      </trkpt>
      <trkpt lat="40.82935" lon="-4.13522667">
        <ele>1264.0</ele>
        <time>2018-05-26T12:01:23.676Z</time>
      </trkpt>
      <trkpt lat="40.82935" lon="-4.13522667">
        <ele>1264.0</ele>
        <time>2018-05-26T12:01:24.682Z</time>
      </trkpt>
      <trkpt lat="40.82926667" lon="-4.13512">
        <ele>1263.0</ele>
        <time>2018-05-26T12:01:25.708Z</time>
      </trkpt>
      <trkpt lat="40.82926667" lon="-4.13512">
        <ele>1263.0</ele>
        <time>2018-05-26T12:01:26.714Z</time>
      </trkpt>
      <trkpt lat="40.829155" lon="-4.135025">
        <ele>1262.0</ele>
        <time>2018-05-26T12:01:27.680Z</time>
      </trkpt>
      <trkpt lat="40.829155" lon="-4.135025">
        <ele>1262.0</ele>
        <time>2018-05-26T12:01:28.686Z</time>
      </trkpt>
      <trkpt lat="40.829075" lon="-4.13488">
        <ele>1262.0</ele>
        <time>2018-05-26T12:01:29.678Z</time>
      </trkpt>
      <trkpt lat="40.829075" lon="-4.13488">
        <ele>1262.0</ele>
        <time>2018-05-26T12:01:30.683Z</time>
      </trkpt>
      <trkpt lat="40.82908833" lon="-4.13471667">
        <ele>1261.0</ele>
        <time>2018-05-26T12:01:31.690Z</time>
      </trkpt>
      <trkpt lat="40.82908833" lon="-4.13471667">
        <ele>1261.0</ele>
        <time>2018-05-26T12:01:32.676Z</time>
      </trkpt>
      <trkpt lat="40.829165" lon="-4.13459167">
        <ele>1261.0</ele>
        <time>2018-05-26T12:01:33.710Z</time>
      </trkpt>
      <trkpt lat="40.829165" lon="-4.13459167">
        <ele>1261.0</ele>
        <time>2018-05-26T12:01:34.676Z</time>
      </trkpt>
      <trkpt lat="40.82925833" lon="-4.13448833">
        <ele>1261.0</ele>
        <time>2018-05-26T12:01:35.683Z</time>
      </trkpt>
      <trkpt lat="40.829315" lon="-4.13445333">
        <ele>1262.0</ele>
        <time>2018-05-26T12:01:36.711Z</time>
      </trkpt>
      <trkpt lat="40.829315" lon="-4.13445333">
        <ele>1262.0</ele>
        <time>2018-05-26T12:01:37.678Z</time>
      </trkpt>
      <trkpt lat="40.829425" lon="-4.13439667">
        <ele>1262.0</ele>
        <time>2018-05-26T12:01:38.683Z</time>
      </trkpt>
      <trkpt lat="40.82948" lon="-4.13437667">
        <ele>1262.0</ele>
        <time>2018-05-26T12:01:39.711Z</time>
      </trkpt>
      <trkpt lat="40.82948" lon="-4.13437667">
        <ele>1262.0</ele>
        <time>2018-05-26T12:01:40.678Z</time>
      </trkpt>
      <trkpt lat="40.82959333" lon="-4.13433833">
        <ele>1262.0</ele>
        <time>2018-05-26T12:01:41.689Z</time>
      </trkpt>
      <trkpt lat="40.82965333" lon="-4.13432333">
        <ele>1262.0</ele>
        <time>2018-05-26T12:01:42.680Z</time>
      </trkpt>
      <trkpt lat="40.82965333" lon="-4.13432333">
        <ele>1262.0</ele>
        <time>2018-05-26T12:01:43.693Z</time>
      </trkpt>
      <trkpt lat="40.82977667" lon="-4.13430333">
        <ele>1261.0</ele>
        <time>2018-05-26T12:01:44.700Z</time>
      </trkpt>
      <trkpt lat="40.82984" lon="-4.13429667">
        <ele>1261.0</ele>
        <time>2018-05-26T12:01:45.713Z</time>
      </trkpt>
      <trkpt lat="40.82984" lon="-4.13429667">
        <ele>1261.0</ele>
        <time>2018-05-26T12:01:46.680Z</time>
      </trkpt>
      <trkpt lat="40.829965" lon="-4.13426333">
        <ele>1260.0</ele>
        <time>2018-05-26T12:01:47.688Z</time>
      </trkpt>
      <trkpt lat="40.83002333" lon="-4.13423">
        <ele>1260.0</ele>
        <time>2018-05-26T12:01:48.704Z</time>
      </trkpt>
      <trkpt lat="40.83002333" lon="-4.13423">
        <ele>1260.0</ele>
        <time>2018-05-26T12:01:49.712Z</time>
      </trkpt>
      <trkpt lat="40.830115" lon="-4.13412833">
        <ele>1259.0</ele>
        <time>2018-05-26T12:01:50.679Z</time>
      </trkpt>
      <trkpt lat="40.83013667" lon="-4.13406333">
        <ele>1259.0</ele>
        <time>2018-05-26T12:01:51.708Z</time>
      </trkpt>
      <trkpt lat="40.83013667" lon="-4.13406333">
        <ele>1259.0</ele>
        <time>2018-05-26T12:01:52.714Z</time>
      </trkpt>
      <trkpt lat="40.83014833" lon="-4.13391667">
        <ele>1257.0</ele>
        <time>2018-05-26T12:01:53.688Z</time>
      </trkpt>
      <trkpt lat="40.83014833" lon="-4.13391667">
        <ele>1257.0</ele>
        <time>2018-05-26T12:01:54.694Z</time>
      </trkpt>
      <trkpt lat="40.830135" lon="-4.13374667">
        <ele>1255.0</ele>
        <time>2018-05-26T12:01:55.680Z</time>
      </trkpt>
      <trkpt lat="40.830135" lon="-4.13374667">
        <ele>1255.0</ele>
        <time>2018-05-26T12:01:56.686Z</time>
      </trkpt>
      <trkpt lat="40.83019167" lon="-4.13357667">
        <ele>1255.0</ele>
        <time>2018-05-26T12:01:57.693Z</time>
      </trkpt>
      <trkpt lat="40.83019167" lon="-4.13357667">
        <ele>1255.0</ele>
        <time>2018-05-26T12:01:58.702Z</time>
      </trkpt>
      <trkpt lat="40.83030333" lon="-4.13345667">
        <ele>1254.0</ele>
        <time>2018-05-26T12:01:59.708Z</time>
      </trkpt>
      <trkpt lat="40.83030333" lon="-4.13345667">
        <ele>1254.0</ele>
        <time>2018-05-26T12:02:00.714Z</time>
      </trkpt>
      <trkpt lat="40.83043833" lon="-4.13344">
        <ele>1254.0</ele>
        <time>2018-05-26T12:02:01.680Z</time>
      </trkpt>
      <trkpt lat="40.83043833" lon="-4.13344">
        <ele>1254.0</ele>
        <time>2018-05-26T12:02:02.687Z</time>
      </trkpt>
      <trkpt lat="40.83056" lon="-4.13349">
        <ele>1255.0</ele>
        <time>2018-05-26T12:02:03.692Z</time>
      </trkpt>
      <trkpt lat="40.83056" lon="-4.13349">
        <ele>1255.0</ele>
        <time>2018-05-26T12:02:04.699Z</time>
      </trkpt>
      <trkpt lat="40.830665" lon="-4.13352167">
        <ele>1255.0</ele>
        <time>2018-05-26T12:02:05.706Z</time>
      </trkpt>
      <trkpt lat="40.83070667" lon="-4.133515">
        <ele>1255.0</ele>
        <time>2018-05-26T12:02:06.700Z</time>
      </trkpt>
      <trkpt lat="40.83070667" lon="-4.133515">
        <ele>1255.0</ele>
        <time>2018-05-26T12:02:07.694Z</time>
      </trkpt>
      <trkpt lat="40.83075" lon="-4.13345667">
        <ele>1256.0</ele>
        <time>2018-05-26T12:02:08.676Z</time>
      </trkpt>
      <trkpt lat="40.83075833" lon="-4.13342167">
        <ele>1256.0</ele>
        <time>2018-05-26T12:02:09.683Z</time>
      </trkpt>
      <trkpt lat="40.83075833" lon="-4.13342167">
        <ele>1256.0</ele>
        <time>2018-05-26T12:02:10.695Z</time>
      </trkpt>
      <trkpt lat="40.83077333" lon="-4.133355">
        <ele>1258.0</ele>
        <time>2018-05-26T12:02:11.688Z</time>
      </trkpt>
      <trkpt lat="40.83077333" lon="-4.133355">
        <ele>1258.0</ele>
        <time>2018-05-26T12:02:12.693Z</time>
      </trkpt>
      <trkpt lat="40.8308" lon="-4.133295">
        <ele>1259.0</ele>
        <time>2018-05-26T12:02:13.708Z</time>
      </trkpt>
      <trkpt lat="40.8308" lon="-4.133295">
        <ele>1259.0</ele>
        <time>2018-05-26T12:02:14.675Z</time>
      </trkpt>
      <trkpt lat="40.83081833" lon="-4.13323333">
        <ele>1259.0</ele>
        <time>2018-05-26T12:02:15.683Z</time>
      </trkpt>
      <trkpt lat="40.83081833" lon="-4.13323333">
        <ele>1259.0</ele>
        <time>2018-05-26T12:02:16.691Z</time>
      </trkpt>
      <trkpt lat="40.83084667" lon="-4.13317333">
        <ele>1260.0</ele>
        <time>2018-05-26T12:02:17.698Z</time>
      </trkpt>
      <trkpt lat="40.83086167" lon="-4.133145">
        <ele>1260.0</ele>
        <time>2018-05-26T12:02:18.708Z</time>
      </trkpt>
      <trkpt lat="40.83086167" lon="-4.133145">
        <ele>1260.0</ele>
        <time>2018-05-26T12:02:19.675Z</time>
      </trkpt>
      <trkpt lat="40.83089667" lon="-4.13307833">
        <ele>1261.0</ele>
        <time>2018-05-26T12:02:20.682Z</time>
      </trkpt>
      <trkpt lat="40.83091667" lon="-4.13304833">
        <ele>1261.0</ele>
        <time>2018-05-26T12:02:21.676Z</time>
      </trkpt>
      <trkpt lat="40.83091667" lon="-4.13304833">
        <ele>1261.0</ele>
        <time>2018-05-26T12:02:22.683Z</time>
      </trkpt>
      <trkpt lat="40.83096" lon="-4.13298667">
        <ele>1261.0</ele>
        <time>2018-05-26T12:02:23.690Z</time>
      </trkpt>
      <trkpt lat="40.83098333" lon="-4.13295667">
        <ele>1261.0</ele>
        <time>2018-05-26T12:02:24.675Z</time>
      </trkpt>
      <trkpt lat="40.83098333" lon="-4.13295667">
        <ele>1261.0</ele>
        <time>2018-05-26T12:02:25.682Z</time>
      </trkpt>
      <trkpt lat="40.83103333" lon="-4.13289667">
        <ele>1262.0</ele>
        <time>2018-05-26T12:02:26.689Z</time>
      </trkpt>
      <trkpt lat="40.83105833" lon="-4.13286667">
        <ele>1263.0</ele>
        <time>2018-05-26T12:02:27.713Z</time>
      </trkpt>
      <trkpt lat="40.83105833" lon="-4.13286667">
        <ele>1263.0</ele>
        <time>2018-05-26T12:02:28.691Z</time>
      </trkpt>
      <trkpt lat="40.83110667" lon="-4.13280667">
        <ele>1264.0</ele>
        <time>2018-05-26T12:02:29.700Z</time>
      </trkpt>
      <trkpt lat="40.83113167" lon="-4.13277833">
        <ele>1264.0</ele>
        <time>2018-05-26T12:02:30.688Z</time>
      </trkpt>
      <trkpt lat="40.83113167" lon="-4.13277833">
        <ele>1264.0</ele>
        <time>2018-05-26T12:02:31.695Z</time>
      </trkpt>
      <trkpt lat="40.83117667" lon="-4.13272667">
        <ele>1264.0</ele>
        <time>2018-05-26T12:02:32.714Z</time>
      </trkpt>
      <trkpt lat="40.83119833" lon="-4.13270333">
        <ele>1264.0</ele>
        <time>2018-05-26T12:02:33.704Z</time>
      </trkpt>
      <trkpt lat="40.83119833" lon="-4.13270333">
        <ele>1264.0</ele>
        <time>2018-05-26T12:02:34.711Z</time>
      </trkpt>
      <trkpt lat="40.83124333" lon="-4.13265167">
        <ele>1265.0</ele>
        <time>2018-05-26T12:02:35.678Z</time>
      </trkpt>
      <trkpt lat="40.83124333" lon="-4.13265167">
        <ele>1265.0</ele>
        <time>2018-05-26T12:02:36.684Z</time>
      </trkpt>
      <trkpt lat="40.83129" lon="-4.13259667">
        <ele>1265.0</ele>
        <time>2018-05-26T12:02:37.707Z</time>
      </trkpt>
      <trkpt lat="40.83129" lon="-4.13259667">
        <ele>1265.0</ele>
        <time>2018-05-26T12:02:38.714Z</time>
      </trkpt>
      <trkpt lat="40.83133167" lon="-4.132535">
        <ele>1266.0</ele>
        <time>2018-05-26T12:02:39.689Z</time>
      </trkpt>
      <trkpt lat="40.83133167" lon="-4.132535">
        <ele>1266.0</ele>
        <time>2018-05-26T12:02:40.685Z</time>
      </trkpt>
      <trkpt lat="40.83137833" lon="-4.132475">
        <ele>1266.0</ele>
        <time>2018-05-26T12:02:41.677Z</time>
      </trkpt>
      <trkpt lat="40.83140167" lon="-4.132445">
        <ele>1266.0</ele>
        <time>2018-05-26T12:02:42.684Z</time>
      </trkpt>
      <trkpt lat="40.83140167" lon="-4.132445">
        <ele>1266.0</ele>
        <time>2018-05-26T12:02:43.691Z</time>
      </trkpt>
      <trkpt lat="40.83144" lon="-4.13237833">
        <ele>1266.0</ele>
        <time>2018-05-26T12:02:44.699Z</time>
      </trkpt>
      <trkpt lat="40.83144" lon="-4.13237833">
        <ele>1266.0</ele>
        <time>2018-05-26T12:02:45.706Z</time>
      </trkpt>
      <trkpt lat="40.83148" lon="-4.13231">
        <ele>1267.0</ele>
        <time>2018-05-26T12:02:46.714Z</time>
      </trkpt>
      <trkpt lat="40.83148" lon="-4.13231">
        <ele>1267.0</ele>
        <time>2018-05-26T12:02:47.680Z</time>
      </trkpt>
      <trkpt lat="40.83151667" lon="-4.132235">
        <ele>1267.0</ele>
        <time>2018-05-26T12:02:48.684Z</time>
      </trkpt>
      <trkpt lat="40.83151667" lon="-4.132235">
        <ele>1267.0</ele>
        <time>2018-05-26T12:02:49.691Z</time>
      </trkpt>
      <trkpt lat="40.83155" lon="-4.13215833">
        <ele>1267.0</ele>
        <time>2018-05-26T12:02:50.699Z</time>
      </trkpt>
      <trkpt lat="40.83156167" lon="-4.13211833">
        <ele>1267.0</ele>
        <time>2018-05-26T12:02:51.695Z</time>
      </trkpt>
      <trkpt lat="40.83156167" lon="-4.13211833">
        <ele>1267.0</ele>
        <time>2018-05-26T12:02:52.702Z</time>
      </trkpt>
      <trkpt lat="40.831585" lon="-4.13202833">
        <ele>1269.0</ele>
        <time>2018-05-26T12:02:53.677Z</time>
      </trkpt>
      <trkpt lat="40.83159667" lon="-4.131985">
        <ele>1268.0</ele>
        <time>2018-05-26T12:02:54.708Z</time>
      </trkpt>
      <trkpt lat="40.83159667" lon="-4.131985">
        <ele>1268.0</ele>
        <time>2018-05-26T12:02:55.675Z</time>
      </trkpt>
      <trkpt lat="40.831615" lon="-4.13189667">
        <ele>1268.0</ele>
        <time>2018-05-26T12:02:56.681Z</time>
      </trkpt>
      <trkpt lat="40.83162167" lon="-4.13185333">
        <ele>1268.0</ele>
        <time>2018-05-26T12:02:57.698Z</time>
      </trkpt>
      <trkpt lat="40.83162167" lon="-4.13185333">
        <ele>1268.0</ele>
        <time>2018-05-26T12:02:58.705Z</time>
      </trkpt>
      <trkpt lat="40.83163333" lon="-4.131765">
        <ele>1268.0</ele>
        <time>2018-05-26T12:02:59.680Z</time>
      </trkpt>
      <trkpt lat="40.83163333" lon="-4.131765">
        <ele>1268.0</ele>
        <time>2018-05-26T12:03:00.676Z</time>
      </trkpt>
      <trkpt lat="40.83164" lon="-4.13167333">
        <ele>1268.0</ele>
        <time>2018-05-26T12:03:01.676Z</time>
      </trkpt>
      <trkpt lat="40.83164" lon="-4.13167333">
        <ele>1268.0</ele>
        <time>2018-05-26T12:03:02.683Z</time>
      </trkpt>
      <trkpt lat="40.83165" lon="-4.13157667">
        <ele>1268.0</ele>
        <time>2018-05-26T12:03:03.690Z</time>
      </trkpt>
      <trkpt lat="40.83165" lon="-4.13157667">
        <ele>1268.0</ele>
        <time>2018-05-26T12:03:04.696Z</time>
      </trkpt>
      <trkpt lat="40.83165667" lon="-4.13148167">
        <ele>1268.0</ele>
        <time>2018-05-26T12:03:05.678Z</time>
      </trkpt>
      <trkpt lat="40.83165667" lon="-4.13148167">
        <ele>1268.0</ele>
        <time>2018-05-26T12:03:06.695Z</time>
      </trkpt>
      <trkpt lat="40.831665" lon="-4.13139">
        <ele>1268.0</ele>
        <time>2018-05-26T12:03:07.702Z</time>
      </trkpt>
      <trkpt lat="40.83167333" lon="-4.13134333">
        <ele>1267.0</ele>
        <time>2018-05-26T12:03:08.675Z</time>
      </trkpt>
      <trkpt lat="40.83168333" lon="-4.13129833">
        <ele>1267.0</ele>
        <time>2018-05-26T12:03:09.681Z</time>
      </trkpt>
      <trkpt lat="40.83168333" lon="-4.13129833">
        <ele>1267.0</ele>
        <time>2018-05-26T12:03:10.688Z</time>
      </trkpt>
      <trkpt lat="40.831715" lon="-4.13121">
        <ele>1267.0</ele>
        <time>2018-05-26T12:03:11.712Z</time>
      </trkpt>
      <trkpt lat="40.831735" lon="-4.13116167">
        <ele>1267.0</ele>
        <time>2018-05-26T12:03:12.694Z</time>
      </trkpt>
      <trkpt lat="40.831735" lon="-4.13116167">
        <ele>1267.0</ele>
        <time>2018-05-26T12:03:13.700Z</time>
      </trkpt>
      <trkpt lat="40.83177833" lon="-4.13105167">
        <ele>1266.0</ele>
        <time>2018-05-26T12:03:14.705Z</time>
      </trkpt>
      <trkpt lat="40.83179667" lon="-4.130995">
        <ele>1266.0</ele>
        <time>2018-05-26T12:03:15.714Z</time>
      </trkpt>
      <trkpt lat="40.83179667" lon="-4.130995">
        <ele>1266.0</ele>
        <time>2018-05-26T12:03:16.680Z</time>
      </trkpt>
      <trkpt lat="40.83182667" lon="-4.130885">
        <ele>1267.0</ele>
        <time>2018-05-26T12:03:17.698Z</time>
      </trkpt>
      <trkpt lat="40.83184" lon="-4.13083333">
        <ele>1267.0</ele>
        <time>2018-05-26T12:03:18.708Z</time>
      </trkpt>
      <trkpt lat="40.83184" lon="-4.13083333">
        <ele>1267.0</ele>
        <time>2018-05-26T12:03:19.676Z</time>
      </trkpt>
      <trkpt lat="40.831875" lon="-4.13074667">
        <ele>1267.0</ele>
        <time>2018-05-26T12:03:20.684Z</time>
      </trkpt>
      <trkpt lat="40.83189833" lon="-4.13071833">
        <ele>1268.0</ele>
        <time>2018-05-26T12:03:21.699Z</time>
      </trkpt>
      <trkpt lat="40.83189833" lon="-4.13071833">
        <ele>1268.0</ele>
        <time>2018-05-26T12:03:22.709Z</time>
      </trkpt>
      <trkpt lat="40.831955" lon="-4.13069167">
        <ele>1268.0</ele>
        <time>2018-05-26T12:03:23.678Z</time>
      </trkpt>
      <trkpt lat="40.831955" lon="-4.13069167">
        <ele>1268.0</ele>
        <time>2018-05-26T12:03:24.684Z</time>
      </trkpt>
      <trkpt lat="40.83202667" lon="-4.13069333">
        <ele>1269.0</ele>
        <time>2018-05-26T12:03:25.678Z</time>
      </trkpt>
      <trkpt lat="40.832065" lon="-4.13069667">
        <ele>1269.0</ele>
        <time>2018-05-26T12:03:26.684Z</time>
      </trkpt>
      <trkpt lat="40.832065" lon="-4.13069667">
        <ele>1269.0</ele>
        <time>2018-05-26T12:03:27.690Z</time>
      </trkpt>
      <trkpt lat="40.83213833" lon="-4.13068667">
        <ele>1269.0</ele>
        <time>2018-05-26T12:03:28.688Z</time>
      </trkpt>
      <trkpt lat="40.83217" lon="-4.13066833">
        <ele>1269.0</ele>
        <time>2018-05-26T12:03:29.709Z</time>
      </trkpt>
      <trkpt lat="40.83217" lon="-4.13066833">
        <ele>1269.0</ele>
        <time>2018-05-26T12:03:30.714Z</time>
      </trkpt>
      <trkpt lat="40.83222" lon="-4.13061833">
        <ele>1269.0</ele>
        <time>2018-05-26T12:03:31.682Z</time>
      </trkpt>
      <trkpt lat="40.83222" lon="-4.13061833">
        <ele>1269.0</ele>
        <time>2018-05-26T12:03:32.691Z</time>
      </trkpt>
      <trkpt lat="40.83226" lon="-4.13058667">
        <ele>1269.0</ele>
        <time>2018-05-26T12:03:33.711Z</time>
      </trkpt>
      <trkpt lat="40.83226" lon="-4.13058667">
        <ele>1269.0</ele>
        <time>2018-05-26T12:03:34.677Z</time>
      </trkpt>
      <trkpt lat="40.83230833" lon="-4.13055833">
        <ele>1270.0</ele>
        <time>2018-05-26T12:03:35.677Z</time>
      </trkpt>
      <trkpt lat="40.83230833" lon="-4.13055833">
        <ele>1270.0</ele>
        <time>2018-05-26T12:03:36.684Z</time>
      </trkpt>
      <trkpt lat="40.83235833" lon="-4.130525">
        <ele>1270.0</ele>
        <time>2018-05-26T12:03:37.692Z</time>
      </trkpt>
      <trkpt lat="40.83238" lon="-4.130505">
        <ele>1271.0</ele>
        <time>2018-05-26T12:03:38.709Z</time>
      </trkpt>
      <trkpt lat="40.83240167" lon="-4.13048333">
        <ele>1271.0</ele>
        <time>2018-05-26T12:03:39.680Z</time>
      </trkpt>
      <trkpt lat="40.83240167" lon="-4.13048333">
        <ele>1271.0</ele>
        <time>2018-05-26T12:03:40.687Z</time>
      </trkpt>
      <trkpt lat="40.83244167" lon="-4.13043833">
        <ele>1272.0</ele>
        <time>2018-05-26T12:03:41.694Z</time>
      </trkpt>
      <trkpt lat="40.83244167" lon="-4.13043833">
        <ele>1272.0</ele>
        <time>2018-05-26T12:03:42.701Z</time>
      </trkpt>
      <trkpt lat="40.83247833" lon="-4.13038667">
        <ele>1273.0</ele>
        <time>2018-05-26T12:03:43.678Z</time>
      </trkpt>
      <trkpt lat="40.83247833" lon="-4.13038667">
        <ele>1273.0</ele>
        <time>2018-05-26T12:03:44.684Z</time>
      </trkpt>
      <trkpt lat="40.83250833" lon="-4.13033333">
        <ele>1274.0</ele>
        <time>2018-05-26T12:03:45.707Z</time>
      </trkpt>
      <trkpt lat="40.83252333" lon="-4.130305">
        <ele>1274.0</ele>
        <time>2018-05-26T12:03:46.713Z</time>
      </trkpt>
      <trkpt lat="40.83252333" lon="-4.130305">
        <ele>1274.0</ele>
        <time>2018-05-26T12:03:47.682Z</time>
      </trkpt>
      <trkpt lat="40.83254833" lon="-4.13023667">
        <ele>1275.0</ele>
        <time>2018-05-26T12:03:48.689Z</time>
      </trkpt>
      <trkpt lat="40.83254833" lon="-4.13023667">
        <ele>1275.0</ele>
        <time>2018-05-26T12:03:49.696Z</time>
      </trkpt>
      <trkpt lat="40.832575" lon="-4.13017">
        <ele>1275.0</ele>
        <time>2018-05-26T12:03:50.702Z</time>
      </trkpt>
      <trkpt lat="40.83258333" lon="-4.130135">
        <ele>1276.0</ele>
        <time>2018-05-26T12:03:51.697Z</time>
      </trkpt>
      <trkpt lat="40.83258333" lon="-4.130135">
        <ele>1276.0</ele>
        <time>2018-05-26T12:03:52.705Z</time>
      </trkpt>
      <trkpt lat="40.83260167" lon="-4.13007167">
        <ele>1276.0</ele>
        <time>2018-05-26T12:03:53.676Z</time>
      </trkpt>
      <trkpt lat="40.83261167" lon="-4.13004">
        <ele>1277.0</ele>
        <time>2018-05-26T12:03:54.701Z</time>
      </trkpt>
      <trkpt lat="40.83261167" lon="-4.13004">
        <ele>1277.0</ele>
        <time>2018-05-26T12:03:55.708Z</time>
      </trkpt>
      <trkpt lat="40.83263" lon="-4.12997167">
        <ele>1277.0</ele>
        <time>2018-05-26T12:03:56.714Z</time>
      </trkpt>
      <trkpt lat="40.83263833" lon="-4.12993833">
        <ele>1277.0</ele>
        <time>2018-05-26T12:03:57.695Z</time>
      </trkpt>
      <trkpt lat="40.83263833" lon="-4.12993833">
        <ele>1277.0</ele>
        <time>2018-05-26T12:03:58.683Z</time>
      </trkpt>
      <trkpt lat="40.83265" lon="-4.12986667">
        <ele>1277.0</ele>
        <time>2018-05-26T12:03:59.696Z</time>
      </trkpt>
      <trkpt lat="40.83265167" lon="-4.12983">
        <ele>1278.0</ele>
        <time>2018-05-26T12:04:00.702Z</time>
      </trkpt>
      <trkpt lat="40.83265167" lon="-4.12983">
        <ele>1278.0</ele>
        <time>2018-05-26T12:04:01.709Z</time>
      </trkpt>
      <trkpt lat="40.832655" lon="-4.12976667">
        <ele>1278.0</ele>
        <time>2018-05-26T12:04:02.697Z</time>
      </trkpt>
      <trkpt lat="40.832655" lon="-4.12976667">
        <ele>1278.0</ele>
        <time>2018-05-26T12:04:03.703Z</time>
      </trkpt>
      <trkpt lat="40.83265833" lon="-4.12970167">
        <ele>1279.0</ele>
        <time>2018-05-26T12:04:04.687Z</time>
      </trkpt>
      <trkpt lat="40.83266167" lon="-4.12966833">
        <ele>1279.0</ele>
        <time>2018-05-26T12:04:05.689Z</time>
      </trkpt>
      <trkpt lat="40.83266167" lon="-4.12966833">
        <ele>1279.0</ele>
        <time>2018-05-26T12:04:06.696Z</time>
      </trkpt>
      <trkpt lat="40.832675" lon="-4.1296">
        <ele>1279.0</ele>
        <time>2018-05-26T12:04:07.703Z</time>
      </trkpt>
      <trkpt lat="40.83268333" lon="-4.129565">
        <ele>1279.0</ele>
        <time>2018-05-26T12:04:08.692Z</time>
      </trkpt>
      <trkpt lat="40.83269333" lon="-4.12953167">
        <ele>1279.0</ele>
        <time>2018-05-26T12:04:09.694Z</time>
      </trkpt>
      <trkpt lat="40.83269333" lon="-4.12953167">
        <ele>1279.0</ele>
        <time>2018-05-26T12:04:10.700Z</time>
      </trkpt>
      <trkpt lat="40.83272" lon="-4.12946167">
        <ele>1280.0</ele>
        <time>2018-05-26T12:04:11.709Z</time>
      </trkpt>
      <trkpt lat="40.83272" lon="-4.12946167">
        <ele>1280.0</ele>
        <time>2018-05-26T12:04:12.714Z</time>
      </trkpt>
      <trkpt lat="40.83275" lon="-4.12938667">
        <ele>1280.0</ele>
        <time>2018-05-26T12:04:13.714Z</time>
      </trkpt>
      <trkpt lat="40.83275" lon="-4.12938667">
        <ele>1280.0</ele>
        <time>2018-05-26T12:04:14.680Z</time>
      </trkpt>
      <trkpt lat="40.832775" lon="-4.12931167">
        <ele>1281.0</ele>
        <time>2018-05-26T12:04:15.687Z</time>
      </trkpt>
      <trkpt lat="40.832775" lon="-4.12931167">
        <ele>1281.0</ele>
        <time>2018-05-26T12:04:16.692Z</time>
      </trkpt>
      <trkpt lat="40.832805" lon="-4.12923833">
        <ele>1281.0</ele>
        <time>2018-05-26T12:04:17.705Z</time>
      </trkpt>
      <trkpt lat="40.832805" lon="-4.12923833">
        <ele>1281.0</ele>
        <time>2018-05-26T12:04:18.712Z</time>
      </trkpt>
      <trkpt lat="40.83283833" lon="-4.12916833">
        <ele>1281.0</ele>
        <time>2018-05-26T12:04:19.696Z</time>
      </trkpt>
      <trkpt lat="40.83283833" lon="-4.12916833">
        <ele>1281.0</ele>
        <time>2018-05-26T12:04:20.684Z</time>
      </trkpt>
      <trkpt lat="40.83286667" lon="-4.129105">
        <ele>1281.0</ele>
        <time>2018-05-26T12:04:21.676Z</time>
      </trkpt>
      <trkpt lat="40.83286667" lon="-4.129105">
        <ele>1281.0</ele>
        <time>2018-05-26T12:04:22.683Z</time>
      </trkpt>
      <trkpt lat="40.832895" lon="-4.12903833">
        <ele>1281.0</ele>
        <time>2018-05-26T12:04:23.689Z</time>
      </trkpt>
      <trkpt lat="40.832895" lon="-4.12903833">
        <ele>1281.0</ele>
        <time>2018-05-26T12:04:24.695Z</time>
      </trkpt>
      <trkpt lat="40.83293333" lon="-4.12897667">
        <ele>1281.0</ele>
        <time>2018-05-26T12:04:25.689Z</time>
      </trkpt>
      <trkpt lat="40.83293333" lon="-4.12897667">
        <ele>1281.0</ele>
        <time>2018-05-26T12:04:26.695Z</time>
      </trkpt>
      <trkpt lat="40.83297167" lon="-4.12891167">
        <ele>1282.0</ele>
        <time>2018-05-26T12:04:27.702Z</time>
      </trkpt>
      <trkpt lat="40.83297167" lon="-4.12891167">
        <ele>1282.0</ele>
        <time>2018-05-26T12:04:28.708Z</time>
      </trkpt>
      <trkpt lat="40.83299667" lon="-4.12883667">
        <ele>1282.0</ele>
        <time>2018-05-26T12:04:29.700Z</time>
      </trkpt>
      <trkpt lat="40.83299667" lon="-4.12883667">
        <ele>1282.0</ele>
        <time>2018-05-26T12:04:30.714Z</time>
      </trkpt>
      <trkpt lat="40.83301833" lon="-4.12875833">
        <ele>1282.0</ele>
        <time>2018-05-26T12:04:31.688Z</time>
      </trkpt>
      <trkpt lat="40.83303333" lon="-4.12871667">
        <ele>1282.0</ele>
        <time>2018-05-26T12:04:32.708Z</time>
      </trkpt>
      <trkpt lat="40.83305667" lon="-4.128675">
        <ele>1282.0</ele>
        <time>2018-05-26T12:04:33.680Z</time>
      </trkpt>
      <trkpt lat="40.83305667" lon="-4.128675">
        <ele>1282.0</ele>
        <time>2018-05-26T12:04:34.686Z</time>
      </trkpt>
      <trkpt lat="40.83311" lon="-4.12861167">
        <ele>1281.0</ele>
        <time>2018-05-26T12:04:35.693Z</time>
      </trkpt>
      <trkpt lat="40.83311" lon="-4.12861167">
        <ele>1281.0</ele>
        <time>2018-05-26T12:04:36.700Z</time>
      </trkpt>
      <trkpt lat="40.83316667" lon="-4.12855333">
        <ele>1282.0</ele>
        <time>2018-05-26T12:04:37.678Z</time>
      </trkpt>
      <trkpt lat="40.833195" lon="-4.128525">
        <ele>1282.0</ele>
        <time>2018-05-26T12:04:38.685Z</time>
      </trkpt>
      <trkpt lat="40.833195" lon="-4.128525">
        <ele>1282.0</ele>
        <time>2018-05-26T12:04:39.692Z</time>
      </trkpt>
      <trkpt lat="40.833255" lon="-4.12847667">
        <ele>1282.0</ele>
        <time>2018-05-26T12:04:40.675Z</time>
      </trkpt>
      <trkpt lat="40.833255" lon="-4.12847667">
        <ele>1282.0</ele>
        <time>2018-05-26T12:04:41.681Z</time>
      </trkpt>
      <trkpt lat="40.83331333" lon="-4.12843333">
        <ele>1282.0</ele>
        <time>2018-05-26T12:04:42.691Z</time>
      </trkpt>
      <trkpt lat="40.83331333" lon="-4.12843333">
        <ele>1282.0</ele>
        <time>2018-05-26T12:04:43.701Z</time>
      </trkpt>
      <trkpt lat="40.83336667" lon="-4.12839667">
        <ele>1282.0</ele>
        <time>2018-05-26T12:04:44.714Z</time>
      </trkpt>
      <trkpt lat="40.83339333" lon="-4.12837833">
        <ele>1283.0</ele>
        <time>2018-05-26T12:04:45.681Z</time>
      </trkpt>
      <trkpt lat="40.83339333" lon="-4.12837833">
        <ele>1283.0</ele>
        <time>2018-05-26T12:04:46.688Z</time>
      </trkpt>
      <trkpt lat="40.83343333" lon="-4.12833167">
        <ele>1283.0</ele>
        <time>2018-05-26T12:04:47.684Z</time>
      </trkpt>
      <trkpt lat="40.83343333" lon="-4.12833167">
        <ele>1283.0</ele>
        <time>2018-05-26T12:04:48.690Z</time>
      </trkpt>
      <trkpt lat="40.83346667" lon="-4.128285">
        <ele>1284.0</ele>
        <time>2018-05-26T12:04:49.711Z</time>
      </trkpt>
      <trkpt lat="40.83348167" lon="-4.12826">
        <ele>1284.0</ele>
        <time>2018-05-26T12:04:50.699Z</time>
      </trkpt>
      <trkpt lat="40.833495" lon="-4.128235">
        <ele>1284.0</ele>
        <time>2018-05-26T12:04:51.706Z</time>
      </trkpt>
      <trkpt lat="40.833495" lon="-4.128235">
        <ele>1284.0</ele>
        <time>2018-05-26T12:04:52.713Z</time>
      </trkpt>
      <trkpt lat="40.83351667" lon="-4.12817833">
        <ele>1285.0</ele>
        <time>2018-05-26T12:04:53.700Z</time>
      </trkpt>
      <trkpt lat="40.83351667" lon="-4.12817833">
        <ele>1285.0</ele>
        <time>2018-05-26T12:04:54.705Z</time>
      </trkpt>
      <trkpt lat="40.83354167" lon="-4.12812333">
        <ele>1285.0</ele>
        <time>2018-05-26T12:04:55.681Z</time>
      </trkpt>
      <trkpt lat="40.83354167" lon="-4.12812333">
        <ele>1285.0</ele>
        <time>2018-05-26T12:04:56.686Z</time>
      </trkpt>
      <trkpt lat="40.83357167" lon="-4.12807333">
        <ele>1286.0</ele>
        <time>2018-05-26T12:04:57.679Z</time>
      </trkpt>
      <trkpt lat="40.83357167" lon="-4.12807333">
        <ele>1286.0</ele>
        <time>2018-05-26T12:04:58.686Z</time>
      </trkpt>
      <trkpt lat="40.83360333" lon="-4.128025">
        <ele>1286.0</ele>
        <time>2018-05-26T12:04:59.698Z</time>
      </trkpt>
      <trkpt lat="40.83361833" lon="-4.128">
        <ele>1286.0</ele>
        <time>2018-05-26T12:05:00.691Z</time>
      </trkpt>
      <trkpt lat="40.83361833" lon="-4.128">
        <ele>1286.0</ele>
        <time>2018-05-26T12:05:01.698Z</time>
      </trkpt>
      <trkpt lat="40.833655" lon="-4.12795333">
        <ele>1287.0</ele>
        <time>2018-05-26T12:05:02.707Z</time>
      </trkpt>
      <trkpt lat="40.83367333" lon="-4.12793">
        <ele>1287.0</ele>
        <time>2018-05-26T12:05:03.708Z</time>
      </trkpt>
      <trkpt lat="40.83367333" lon="-4.12793">
        <ele>1287.0</ele>
        <time>2018-05-26T12:05:04.702Z</time>
      </trkpt>
      <trkpt lat="40.83370833" lon="-4.12788167">
        <ele>1288.0</ele>
        <time>2018-05-26T12:05:05.686Z</time>
      </trkpt>
      <trkpt lat="40.83370833" lon="-4.12788167">
        <ele>1288.0</ele>
        <time>2018-05-26T12:05:06.692Z</time>
      </trkpt>
      <trkpt lat="40.833735" lon="-4.12783167">
        <ele>1288.0</ele>
        <time>2018-05-26T12:05:07.699Z</time>
      </trkpt>
      <trkpt lat="40.833735" lon="-4.12783167">
        <ele>1288.0</ele>
        <time>2018-05-26T12:05:08.710Z</time>
      </trkpt>
      <trkpt lat="40.83375667" lon="-4.12778">
        <ele>1289.0</ele>
        <time>2018-05-26T12:05:09.701Z</time>
      </trkpt>
      <trkpt lat="40.83375667" lon="-4.12778">
        <ele>1289.0</ele>
        <time>2018-05-26T12:05:10.708Z</time>
      </trkpt>
      <trkpt lat="40.83377333" lon="-4.12773">
        <ele>1289.0</ele>
        <time>2018-05-26T12:05:11.675Z</time>
      </trkpt>
      <trkpt lat="40.83378333" lon="-4.12770333">
        <ele>1290.0</ele>
        <time>2018-05-26T12:05:12.696Z</time>
      </trkpt>
      <trkpt lat="40.83378333" lon="-4.12770333">
        <ele>1290.0</ele>
        <time>2018-05-26T12:05:13.702Z</time>
      </trkpt>
      <trkpt lat="40.8338" lon="-4.12765">
        <ele>1290.0</ele>
        <time>2018-05-26T12:05:14.681Z</time>
      </trkpt>
      <trkpt lat="40.833805" lon="-4.127625">
        <ele>1291.0</ele>
        <time>2018-05-26T12:05:15.684Z</time>
      </trkpt>
      <trkpt lat="40.833805" lon="-4.127625">
        <ele>1291.0</ele>
        <time>2018-05-26T12:05:16.691Z</time>
      </trkpt>
      <trkpt lat="40.83381167" lon="-4.12757667">
        <ele>1291.0</ele>
        <time>2018-05-26T12:05:17.698Z</time>
      </trkpt>
      <trkpt lat="40.83381167" lon="-4.12757667">
        <ele>1291.0</ele>
        <time>2018-05-26T12:05:18.705Z</time>
      </trkpt>
      <trkpt lat="40.83382333" lon="-4.12753">
        <ele>1292.0</ele>
        <time>2018-05-26T12:05:19.707Z</time>
      </trkpt>
      <trkpt lat="40.83382333" lon="-4.12753">
        <ele>1292.0</ele>
        <time>2018-05-26T12:05:20.714Z</time>
      </trkpt>
      <trkpt lat="40.83383667" lon="-4.12748">
        <ele>1292.0</ele>
        <time>2018-05-26T12:05:21.681Z</time>
      </trkpt>
      <trkpt lat="40.83383667" lon="-4.12748">
        <ele>1292.0</ele>
        <time>2018-05-26T12:05:22.687Z</time>
      </trkpt>
      <trkpt lat="40.83385333" lon="-4.12743167">
        <ele>1293.0</ele>
        <time>2018-05-26T12:05:23.690Z</time>
      </trkpt>
      <trkpt lat="40.83385333" lon="-4.12743167">
        <ele>1293.0</ele>
        <time>2018-05-26T12:05:24.697Z</time>
      </trkpt>
      <trkpt lat="40.83387167" lon="-4.12737667">
        <ele>1293.0</ele>
        <time>2018-05-26T12:05:25.712Z</time>
      </trkpt>
      <trkpt lat="40.83388333" lon="-4.12735167">
        <ele>1294.0</ele>
        <time>2018-05-26T12:05:26.676Z</time>
      </trkpt>
      <trkpt lat="40.83388333" lon="-4.12735167">
        <ele>1294.0</ele>
        <time>2018-05-26T12:05:27.682Z</time>
      </trkpt>
      <trkpt lat="40.833915" lon="-4.12729833">
        <ele>1294.0</ele>
        <time>2018-05-26T12:05:28.689Z</time>
      </trkpt>
      <trkpt lat="40.83393167" lon="-4.12726833">
        <ele>1294.0</ele>
        <time>2018-05-26T12:05:29.677Z</time>
      </trkpt>
      <trkpt lat="40.83393167" lon="-4.12726833">
        <ele>1294.0</ele>
        <time>2018-05-26T12:05:30.690Z</time>
      </trkpt>
      <trkpt lat="40.83395833" lon="-4.12720833">
        <ele>1295.0</ele>
        <time>2018-05-26T12:05:31.707Z</time>
      </trkpt>
      <trkpt lat="40.83395833" lon="-4.12720833">
        <ele>1295.0</ele>
        <time>2018-05-26T12:05:32.680Z</time>
      </trkpt>
      <trkpt lat="40.83398333" lon="-4.12715333">
        <ele>1295.0</ele>
        <time>2018-05-26T12:05:33.693Z</time>
      </trkpt>
      <trkpt lat="40.83398333" lon="-4.12715333">
        <ele>1295.0</ele>
        <time>2018-05-26T12:05:34.702Z</time>
      </trkpt>
      <trkpt lat="40.834015" lon="-4.12709833">
        <ele>1295.0</ele>
        <time>2018-05-26T12:05:35.710Z</time>
      </trkpt>
      <trkpt lat="40.834015" lon="-4.12709833">
        <ele>1295.0</ele>
        <time>2018-05-26T12:05:36.679Z</time>
      </trkpt>
      <trkpt lat="40.83406" lon="-4.12702">
        <ele>1295.0</ele>
        <time>2018-05-26T12:05:37.686Z</time>
      </trkpt>
      <trkpt lat="40.83406" lon="-4.12702">
        <ele>1295.0</ele>
        <time>2018-05-26T12:05:38.692Z</time>
      </trkpt>
      <trkpt lat="40.83410833" lon="-4.12694333">
        <ele>1295.0</ele>
        <time>2018-05-26T12:05:39.689Z</time>
      </trkpt>
      <trkpt lat="40.83410833" lon="-4.12694333">
        <ele>1295.0</ele>
        <time>2018-05-26T12:05:40.696Z</time>
      </trkpt>
      <trkpt lat="40.83416167" lon="-4.12687333">
        <ele>1295.0</ele>
        <time>2018-05-26T12:05:41.703Z</time>
      </trkpt>
      <trkpt lat="40.83416167" lon="-4.12687333">
        <ele>1295.0</ele>
        <time>2018-05-26T12:05:42.711Z</time>
      </trkpt>
      <trkpt lat="40.834215" lon="-4.12680667">
        <ele>1296.0</ele>
        <time>2018-05-26T12:05:43.708Z</time>
      </trkpt>
      <trkpt lat="40.834215" lon="-4.12680667">
        <ele>1296.0</ele>
        <time>2018-05-26T12:05:44.714Z</time>
      </trkpt>
      <trkpt lat="40.83426667" lon="-4.12673">
        <ele>1295.0</ele>
        <time>2018-05-26T12:05:45.681Z</time>
      </trkpt>
      <trkpt lat="40.83429" lon="-4.126685">
        <ele>1295.0</ele>
        <time>2018-05-26T12:05:46.699Z</time>
      </trkpt>
      <trkpt lat="40.83429" lon="-4.126685">
        <ele>1295.0</ele>
        <time>2018-05-26T12:05:47.708Z</time>
      </trkpt>
      <trkpt lat="40.83433333" lon="-4.12659333">
        <ele>1295.0</ele>
        <time>2018-05-26T12:05:48.675Z</time>
      </trkpt>
      <trkpt lat="40.83433333" lon="-4.12659333">
        <ele>1295.0</ele>
        <time>2018-05-26T12:05:49.681Z</time>
      </trkpt>
      <trkpt lat="40.834375" lon="-4.12649667">
        <ele>1295.0</ele>
        <time>2018-05-26T12:05:50.699Z</time>
      </trkpt>
      <trkpt lat="40.834375" lon="-4.12649667">
        <ele>1295.0</ele>
        <time>2018-05-26T12:05:51.709Z</time>
      </trkpt>
      <trkpt lat="40.83442667" lon="-4.12640333">
        <ele>1295.0</ele>
        <time>2018-05-26T12:05:52.694Z</time>
      </trkpt>
      <trkpt lat="40.83442667" lon="-4.12640333">
        <ele>1295.0</ele>
        <time>2018-05-26T12:05:53.700Z</time>
      </trkpt>
      <trkpt lat="40.834495" lon="-4.126325">
        <ele>1294.0</ele>
        <time>2018-05-26T12:05:54.703Z</time>
      </trkpt>
      <trkpt lat="40.834495" lon="-4.126325">
        <ele>1294.0</ele>
        <time>2018-05-26T12:05:55.711Z</time>
      </trkpt>
      <trkpt lat="40.83457" lon="-4.12625">
        <ele>1294.0</ele>
        <time>2018-05-26T12:05:56.678Z</time>
      </trkpt>
      <trkpt lat="40.83460833" lon="-4.12621333">
        <ele>1294.0</ele>
        <time>2018-05-26T12:05:57.708Z</time>
      </trkpt>
      <trkpt lat="40.83460833" lon="-4.12621333">
        <ele>1294.0</ele>
        <time>2018-05-26T12:05:58.714Z</time>
      </trkpt>
      <trkpt lat="40.83468167" lon="-4.12613333">
        <ele>1293.0</ele>
        <time>2018-05-26T12:05:59.681Z</time>
      </trkpt>
      <trkpt lat="40.83471333" lon="-4.12609167">
        <ele>1293.0</ele>
        <time>2018-05-26T12:06:00.685Z</time>
      </trkpt>
      <trkpt lat="40.83471333" lon="-4.12609167">
        <ele>1293.0</ele>
        <time>2018-05-26T12:06:01.692Z</time>
      </trkpt>
      <trkpt lat="40.83476333" lon="-4.12601167">
        <ele>1293.0</ele>
        <time>2018-05-26T12:06:02.699Z</time>
      </trkpt>
      <trkpt lat="40.834795" lon="-4.12597667">
        <ele>1292.0</ele>
        <time>2018-05-26T12:06:03.697Z</time>
      </trkpt>
      <trkpt lat="40.834795" lon="-4.12597667">
        <ele>1292.0</ele>
        <time>2018-05-26T12:06:04.709Z</time>
      </trkpt>
      <trkpt lat="40.834865" lon="-4.12589667">
        <ele>1292.0</ele>
        <time>2018-05-26T12:06:05.675Z</time>
      </trkpt>
      <trkpt lat="40.83489833" lon="-4.12585167">
        <ele>1292.0</ele>
        <time>2018-05-26T12:06:06.712Z</time>
      </trkpt>
      <trkpt lat="40.83489833" lon="-4.12585167">
        <ele>1292.0</ele>
        <time>2018-05-26T12:06:07.678Z</time>
      </trkpt>
      <trkpt lat="40.83496167" lon="-4.12576">
        <ele>1292.0</ele>
        <time>2018-05-26T12:06:08.685Z</time>
      </trkpt>
      <trkpt lat="40.83499333" lon="-4.12571">
        <ele>1292.0</ele>
        <time>2018-05-26T12:06:09.681Z</time>
      </trkpt>
      <trkpt lat="40.83499333" lon="-4.12571">
        <ele>1292.0</ele>
        <time>2018-05-26T12:06:10.688Z</time>
      </trkpt>
      <trkpt lat="40.83505333" lon="-4.12559833">
        <ele>1291.0</ele>
        <time>2018-05-26T12:06:11.696Z</time>
      </trkpt>
      <trkpt lat="40.83505333" lon="-4.12559833">
        <ele>1291.0</ele>
        <time>2018-05-26T12:06:12.702Z</time>
      </trkpt>
      <trkpt lat="40.83510833" lon="-4.12546833">
        <ele>1291.0</ele>
        <time>2018-05-26T12:06:13.684Z</time>
      </trkpt>
      <trkpt lat="40.83510833" lon="-4.12546833">
        <ele>1291.0</ele>
        <time>2018-05-26T12:06:14.691Z</time>
      </trkpt>
      <trkpt lat="40.83516333" lon="-4.12532667">
        <ele>1290.0</ele>
        <time>2018-05-26T12:06:15.715Z</time>
      </trkpt>
      <trkpt lat="40.83516333" lon="-4.12532667">
        <ele>1290.0</ele>
        <time>2018-05-26T12:06:16.686Z</time>
      </trkpt>
      <trkpt lat="40.835245" lon="-4.1252">
        <ele>1289.0</ele>
        <time>2018-05-26T12:06:17.695Z</time>
      </trkpt>
      <trkpt lat="40.83528167" lon="-4.12513333">
        <ele>1289.0</ele>
        <time>2018-05-26T12:06:18.700Z</time>
      </trkpt>
      <trkpt lat="40.83528167" lon="-4.12513333">
        <ele>1289.0</ele>
        <time>2018-05-26T12:06:19.711Z</time>
      </trkpt>
      <trkpt lat="40.83532" lon="-4.12496667">
        <ele>1287.0</ele>
        <time>2018-05-26T12:06:20.712Z</time>
      </trkpt>
      <trkpt lat="40.83533667" lon="-4.12487333">
        <ele>1287.0</ele>
        <time>2018-05-26T12:06:21.682Z</time>
      </trkpt>
      <trkpt lat="40.83533667" lon="-4.12487333">
        <ele>1287.0</ele>
        <time>2018-05-26T12:06:22.688Z</time>
      </trkpt>
      <trkpt lat="40.8354" lon="-4.12472333">
        <ele>1286.0</ele>
        <time>2018-05-26T12:06:23.687Z</time>
      </trkpt>
      <trkpt lat="40.83543333" lon="-4.12466833">
        <ele>1286.0</ele>
        <time>2018-05-26T12:06:24.693Z</time>
      </trkpt>
      <trkpt lat="40.83543333" lon="-4.12466833">
        <ele>1286.0</ele>
        <time>2018-05-26T12:06:25.700Z</time>
      </trkpt>
      <trkpt lat="40.83551667" lon="-4.124595">
        <ele>1286.0</ele>
        <time>2018-05-26T12:06:26.698Z</time>
      </trkpt>
      <trkpt lat="40.83556333" lon="-4.12458167">
        <ele>1286.0</ele>
        <time>2018-05-26T12:06:27.688Z</time>
      </trkpt>
      <trkpt lat="40.83556333" lon="-4.12458167">
        <ele>1286.0</ele>
        <time>2018-05-26T12:06:28.695Z</time>
      </trkpt>
      <trkpt lat="40.83565667" lon="-4.12456167">
        <ele>1286.0</ele>
        <time>2018-05-26T12:06:29.702Z</time>
      </trkpt>
      <trkpt lat="40.83570333" lon="-4.12454667">
        <ele>1286.0</ele>
        <time>2018-05-26T12:06:30.708Z</time>
      </trkpt>
      <trkpt lat="40.83570333" lon="-4.12454667">
        <ele>1286.0</ele>
        <time>2018-05-26T12:06:31.685Z</time>
      </trkpt>
      <trkpt lat="40.83580333" lon="-4.12448833">
        <ele>1286.0</ele>
        <time>2018-05-26T12:06:32.712Z</time>
      </trkpt>
      <trkpt lat="40.835855" lon="-4.12445">
        <ele>1286.0</ele>
        <time>2018-05-26T12:06:33.687Z</time>
      </trkpt>
      <trkpt lat="40.835855" lon="-4.12445">
        <ele>1286.0</ele>
        <time>2018-05-26T12:06:34.693Z</time>
      </trkpt>
      <trkpt lat="40.83595333" lon="-4.124365">
        <ele>1285.0</ele>
        <time>2018-05-26T12:06:35.687Z</time>
      </trkpt>
      <trkpt lat="40.83595333" lon="-4.124365">
        <ele>1285.0</ele>
        <time>2018-05-26T12:06:36.694Z</time>
      </trkpt>
      <trkpt lat="40.83605" lon="-4.12426">
        <ele>1285.0</ele>
        <time>2018-05-26T12:06:37.701Z</time>
      </trkpt>
      <trkpt lat="40.83609167" lon="-4.124195">
        <ele>1286.0</ele>
        <time>2018-05-26T12:06:38.687Z</time>
      </trkpt>
      <trkpt lat="40.83613" lon="-4.12412167">
        <ele>1286.0</ele>
        <time>2018-05-26T12:06:39.678Z</time>
      </trkpt>
      <trkpt lat="40.83613" lon="-4.12412167">
        <ele>1286.0</ele>
        <time>2018-05-26T12:06:40.684Z</time>
      </trkpt>
      <trkpt lat="40.8362" lon="-4.12397333">
        <ele>1287.0</ele>
        <time>2018-05-26T12:06:41.691Z</time>
      </trkpt>
      <trkpt lat="40.8362" lon="-4.12397333">
        <ele>1287.0</ele>
        <time>2018-05-26T12:06:42.701Z</time>
      </trkpt>
      <trkpt lat="40.83629333" lon="-4.123855">
        <ele>1286.0</ele>
        <time>2018-05-26T12:06:43.697Z</time>
      </trkpt>
      <trkpt lat="40.83629333" lon="-4.123855">
        <ele>1286.0</ele>
        <time>2018-05-26T12:06:44.706Z</time>
      </trkpt>
      <trkpt lat="40.836365" lon="-4.12373833">
        <ele>1286.0</ele>
        <time>2018-05-26T12:06:45.676Z</time>
      </trkpt>
      <trkpt lat="40.836365" lon="-4.12373833">
        <ele>1286.0</ele>
        <time>2018-05-26T12:06:46.682Z</time>
      </trkpt>
      <trkpt lat="40.83642167" lon="-4.12363333">
        <ele>1286.0</ele>
        <time>2018-05-26T12:06:47.696Z</time>
      </trkpt>
      <trkpt lat="40.83642167" lon="-4.12363333">
        <ele>1286.0</ele>
        <time>2018-05-26T12:06:48.703Z</time>
      </trkpt>
      <trkpt lat="40.83647" lon="-4.12355333">
        <ele>1286.0</ele>
        <time>2018-05-26T12:06:49.675Z</time>
      </trkpt>
      <trkpt lat="40.83649667" lon="-4.12352167">
        <ele>1286.0</ele>
        <time>2018-05-26T12:06:50.688Z</time>
      </trkpt>
      <trkpt lat="40.83649667" lon="-4.12352167">
        <ele>1286.0</ele>
        <time>2018-05-26T12:06:51.694Z</time>
      </trkpt>
      <trkpt lat="40.83655333" lon="-4.12346833">
        <ele>1285.0</ele>
        <time>2018-05-26T12:06:52.702Z</time>
      </trkpt>
      <trkpt lat="40.83655333" lon="-4.12346833">
        <ele>1285.0</ele>
        <time>2018-05-26T12:06:53.704Z</time>
      </trkpt>
      <trkpt lat="40.83662167" lon="-4.12343333">
        <ele>1285.0</ele>
        <time>2018-05-26T12:06:54.680Z</time>
      </trkpt>
      <trkpt lat="40.83662167" lon="-4.12343333">
        <ele>1285.0</ele>
        <time>2018-05-26T12:06:55.686Z</time>
      </trkpt>
      <trkpt lat="40.83669833" lon="-4.12339333">
        <ele>1285.0</ele>
        <time>2018-05-26T12:06:56.693Z</time>
      </trkpt>
      <trkpt lat="40.83673333" lon="-4.12336667">
        <ele>1285.0</ele>
        <time>2018-05-26T12:06:57.699Z</time>
      </trkpt>
      <trkpt lat="40.83673333" lon="-4.12336667">
        <ele>1285.0</ele>
        <time>2018-05-26T12:06:58.707Z</time>
      </trkpt>
      <trkpt lat="40.83680667" lon="-4.1233">
        <ele>1285.0</ele>
        <time>2018-05-26T12:06:59.684Z</time>
      </trkpt>
      <trkpt lat="40.83680667" lon="-4.1233">
        <ele>1285.0</ele>
        <time>2018-05-26T12:07:00.690Z</time>
      </trkpt>
      <trkpt lat="40.836875" lon="-4.12322167">
        <ele>1286.0</ele>
        <time>2018-05-26T12:07:01.697Z</time>
      </trkpt>
      <trkpt lat="40.836875" lon="-4.12322167">
        <ele>1286.0</ele>
        <time>2018-05-26T12:07:02.706Z</time>
      </trkpt>
      <trkpt lat="40.83695167" lon="-4.123155">
        <ele>1285.0</ele>
        <time>2018-05-26T12:07:03.695Z</time>
      </trkpt>
      <trkpt lat="40.83695167" lon="-4.123155">
        <ele>1285.0</ele>
        <time>2018-05-26T12:07:04.702Z</time>
      </trkpt>
      <trkpt lat="40.83704667" lon="-4.123105">
        <ele>1284.0</ele>
        <time>2018-05-26T12:07:05.710Z</time>
      </trkpt>
      <trkpt lat="40.83704667" lon="-4.123105">
        <ele>1284.0</ele>
        <time>2018-05-26T12:07:06.676Z</time>
      </trkpt>
      <trkpt lat="40.83715167" lon="-4.12305167">
        <ele>1284.0</ele>
        <time>2018-05-26T12:07:07.714Z</time>
      </trkpt>
      <trkpt lat="40.83715167" lon="-4.12305167">
        <ele>1284.0</ele>
        <time>2018-05-26T12:07:08.680Z</time>
      </trkpt>
      <trkpt lat="40.83727167" lon="-4.12299667">
        <ele>1283.0</ele>
        <time>2018-05-26T12:07:09.691Z</time>
      </trkpt>
      <trkpt lat="40.83727167" lon="-4.12299667">
        <ele>1283.0</ele>
        <time>2018-05-26T12:07:10.688Z</time>
      </trkpt>
      <trkpt lat="40.83739667" lon="-4.12294167">
        <ele>1282.0</ele>
        <time>2018-05-26T12:07:11.713Z</time>
      </trkpt>
      <trkpt lat="40.83739667" lon="-4.12294167">
        <ele>1282.0</ele>
        <time>2018-05-26T12:07:12.678Z</time>
      </trkpt>
      <trkpt lat="40.83751833" lon="-4.12287">
        <ele>1281.0</ele>
        <time>2018-05-26T12:07:13.686Z</time>
      </trkpt>
      <trkpt lat="40.83757167" lon="-4.12281667">
        <ele>1281.0</ele>
        <time>2018-05-26T12:07:14.678Z</time>
      </trkpt>
      <trkpt lat="40.83762" lon="-4.122755">
        <ele>1281.0</ele>
        <time>2018-05-26T12:07:15.684Z</time>
      </trkpt>
      <trkpt lat="40.83762" lon="-4.122755">
        <ele>1281.0</ele>
        <time>2018-05-26T12:07:16.690Z</time>
      </trkpt>
      <trkpt lat="40.83771167" lon="-4.12262833">
        <ele>1281.0</ele>
        <time>2018-05-26T12:07:17.687Z</time>
      </trkpt>
      <trkpt lat="40.837755" lon="-4.12256">
        <ele>1280.0</ele>
        <time>2018-05-26T12:07:18.694Z</time>
      </trkpt>
      <trkpt lat="40.837755" lon="-4.12256">
        <ele>1280.0</ele>
        <time>2018-05-26T12:07:19.701Z</time>
      </trkpt>
      <trkpt lat="40.83784667" lon="-4.12240167">
        <ele>1279.0</ele>
        <time>2018-05-26T12:07:20.707Z</time>
      </trkpt>
      <trkpt lat="40.83789833" lon="-4.12231333">
        <ele>1278.0</ele>
        <time>2018-05-26T12:07:21.687Z</time>
      </trkpt>
      <trkpt lat="40.83789833" lon="-4.12231333">
        <ele>1278.0</ele>
        <time>2018-05-26T12:07:22.694Z</time>
      </trkpt>
      <trkpt lat="40.83802667" lon="-4.12212833">
        <ele>1275.0</ele>
        <time>2018-05-26T12:07:23.701Z</time>
      </trkpt>
      <trkpt lat="40.838095" lon="-4.12203">
        <ele>1275.0</ele>
        <time>2018-05-26T12:07:24.692Z</time>
      </trkpt>
      <trkpt lat="40.838095" lon="-4.12203">
        <ele>1275.0</ele>
        <time>2018-05-26T12:07:25.699Z</time>
      </trkpt>
      <trkpt lat="40.83823667" lon="-4.12181667">
        <ele>1272.0</ele>
        <time>2018-05-26T12:07:26.675Z</time>
      </trkpt>
      <trkpt lat="40.83831667" lon="-4.12170833">
        <ele>1271.0</ele>
        <time>2018-05-26T12:07:27.706Z</time>
      </trkpt>
      <trkpt lat="40.83831667" lon="-4.12170833">
        <ele>1271.0</ele>
        <time>2018-05-26T12:07:28.713Z</time>
      </trkpt>
      <trkpt lat="40.83850167" lon="-4.12148167">
        <ele>1268.0</ele>
        <time>2018-05-26T12:07:29.679Z</time>
      </trkpt>
      <trkpt lat="40.838595" lon="-4.12135833">
        <ele>1266.0</ele>
        <time>2018-05-26T12:07:30.707Z</time>
      </trkpt>
      <trkpt lat="40.838595" lon="-4.12135833">
        <ele>1266.0</ele>
        <time>2018-05-26T12:07:31.702Z</time>
      </trkpt>
      <trkpt lat="40.83875333" lon="-4.12108833">
        <ele>1267.0</ele>
        <time>2018-05-26T12:07:32.686Z</time>
      </trkpt>
      <trkpt lat="40.83875333" lon="-4.12108833">
        <ele>1267.0</ele>
        <time>2018-05-26T12:07:33.699Z</time>
      </trkpt>
      <trkpt lat="40.83888833" lon="-4.12086333">
        <ele>1268.0</ele>
        <time>2018-05-26T12:07:34.682Z</time>
      </trkpt>
      <trkpt lat="40.83888833" lon="-4.12086333">
        <ele>1268.0</ele>
        <time>2018-05-26T12:07:35.688Z</time>
      </trkpt>
      <trkpt lat="40.83902333" lon="-4.12068167">
        <ele>1269.0</ele>
        <time>2018-05-26T12:07:36.695Z</time>
      </trkpt>
      <trkpt lat="40.83908833" lon="-4.1206">
        <ele>1269.0</ele>
        <time>2018-05-26T12:07:37.714Z</time>
      </trkpt>
      <trkpt lat="40.83915" lon="-4.12052167">
        <ele>1270.0</ele>
        <time>2018-05-26T12:07:38.680Z</time>
      </trkpt>
      <trkpt lat="40.83915" lon="-4.12052167">
        <ele>1270.0</ele>
        <time>2018-05-26T12:07:39.686Z</time>
      </trkpt>
      <trkpt lat="40.83925" lon="-4.12036167">
        <ele>1270.0</ele>
        <time>2018-05-26T12:07:40.678Z</time>
      </trkpt>
      <trkpt lat="40.83925" lon="-4.12036167">
        <ele>1270.0</ele>
        <time>2018-05-26T12:07:41.685Z</time>
      </trkpt>
      <trkpt lat="40.83934167" lon="-4.12019667">
        <ele>1270.0</ele>
        <time>2018-05-26T12:07:42.691Z</time>
      </trkpt>
      <trkpt lat="40.83934167" lon="-4.12019667">
        <ele>1270.0</ele>
        <time>2018-05-26T12:07:43.701Z</time>
      </trkpt>
      <trkpt lat="40.83943333" lon="-4.12003167">
        <ele>1269.0</ele>
        <time>2018-05-26T12:07:44.685Z</time>
      </trkpt>
      <trkpt lat="40.83943333" lon="-4.12003167">
        <ele>1269.0</ele>
        <time>2018-05-26T12:07:45.691Z</time>
      </trkpt>
      <trkpt lat="40.83952833" lon="-4.11984667">
        <ele>1267.0</ele>
        <time>2018-05-26T12:07:46.699Z</time>
      </trkpt>
      <trkpt lat="40.83952833" lon="-4.11984667">
        <ele>1267.0</ele>
        <time>2018-05-26T12:07:47.709Z</time>
      </trkpt>
      <trkpt lat="40.83962833" lon="-4.11966">
        <ele>1267.0</ele>
        <time>2018-05-26T12:07:48.686Z</time>
      </trkpt>
      <trkpt lat="40.83962833" lon="-4.11966">
        <ele>1267.0</ele>
        <time>2018-05-26T12:07:49.693Z</time>
      </trkpt>
      <trkpt lat="40.83971667" lon="-4.11948333">
        <ele>1267.0</ele>
        <time>2018-05-26T12:07:50.700Z</time>
      </trkpt>
      <trkpt lat="40.83975667" lon="-4.11939833">
        <ele>1267.0</ele>
        <time>2018-05-26T12:07:51.700Z</time>
      </trkpt>
      <trkpt lat="40.83975667" lon="-4.11939833">
        <ele>1267.0</ele>
        <time>2018-05-26T12:07:52.712Z</time>
      </trkpt>
      <trkpt lat="40.83984" lon="-4.11924333">
        <ele>1267.0</ele>
        <time>2018-05-26T12:07:53.679Z</time>
      </trkpt>
      <trkpt lat="40.83984" lon="-4.11924333">
        <ele>1267.0</ele>
        <time>2018-05-26T12:07:54.710Z</time>
      </trkpt>
      <trkpt lat="40.83992833" lon="-4.11910167">
        <ele>1267.0</ele>
        <time>2018-05-26T12:07:55.677Z</time>
      </trkpt>
      <trkpt lat="40.83997667" lon="-4.11903167">
        <ele>1266.0</ele>
        <time>2018-05-26T12:07:56.684Z</time>
      </trkpt>
      <trkpt lat="40.84002833" lon="-4.118965">
        <ele>1266.0</ele>
        <time>2018-05-26T12:07:57.690Z</time>
      </trkpt>
      <trkpt lat="40.84002833" lon="-4.118965">
        <ele>1266.0</ele>
        <time>2018-05-26T12:07:58.696Z</time>
      </trkpt>
      <trkpt lat="40.84014667" lon="-4.11882333">
        <ele>1264.0</ele>
        <time>2018-05-26T12:07:59.701Z</time>
      </trkpt>
      <trkpt lat="40.84014667" lon="-4.11882333">
        <ele>1264.0</ele>
        <time>2018-05-26T12:08:00.707Z</time>
      </trkpt>
      <trkpt lat="40.84028667" lon="-4.11865167">
        <ele>1261.0</ele>
        <time>2018-05-26T12:08:01.677Z</time>
      </trkpt>
      <trkpt lat="40.84028667" lon="-4.11865167">
        <ele>1261.0</ele>
        <time>2018-05-26T12:08:02.682Z</time>
      </trkpt>
      <trkpt lat="40.840435" lon="-4.118455">
        <ele>1258.0</ele>
        <time>2018-05-26T12:08:03.680Z</time>
      </trkpt>
      <trkpt lat="40.840435" lon="-4.118455">
        <ele>1258.0</ele>
        <time>2018-05-26T12:08:04.698Z</time>
      </trkpt>
      <trkpt lat="40.84059333" lon="-4.11824667">
        <ele>1255.0</ele>
        <time>2018-05-26T12:08:05.705Z</time>
      </trkpt>
      <trkpt lat="40.840675" lon="-4.11813667">
        <ele>1254.0</ele>
        <time>2018-05-26T12:08:06.704Z</time>
      </trkpt>
      <trkpt lat="40.840755" lon="-4.118025">
        <ele>1253.0</ele>
        <time>2018-05-26T12:08:07.679Z</time>
      </trkpt>
      <trkpt lat="40.840755" lon="-4.118025">
        <ele>1253.0</ele>
        <time>2018-05-26T12:08:08.684Z</time>
      </trkpt>
      <trkpt lat="40.84090667" lon="-4.11779667">
        <ele>1251.0</ele>
        <time>2018-05-26T12:08:09.691Z</time>
      </trkpt>
      <trkpt lat="40.84090667" lon="-4.11779667">
        <ele>1251.0</ele>
        <time>2018-05-26T12:08:10.702Z</time>
      </trkpt>
      <trkpt lat="40.84103167" lon="-4.117595">
        <ele>1249.0</ele>
        <time>2018-05-26T12:08:11.689Z</time>
      </trkpt>
      <trkpt lat="40.84103167" lon="-4.117595">
        <ele>1249.0</ele>
        <time>2018-05-26T12:08:12.695Z</time>
      </trkpt>
      <trkpt lat="40.84114167" lon="-4.11737833">
        <ele>1248.0</ele>
        <time>2018-05-26T12:08:13.703Z</time>
      </trkpt>
      <trkpt lat="40.84120333" lon="-4.11727667">
        <ele>1248.0</ele>
        <time>2018-05-26T12:08:14.693Z</time>
      </trkpt>
      <trkpt lat="40.84120333" lon="-4.11727667">
        <ele>1248.0</ele>
        <time>2018-05-26T12:08:15.700Z</time>
      </trkpt>
      <trkpt lat="40.841335" lon="-4.1171">
        <ele>1247.0</ele>
        <time>2018-05-26T12:08:16.711Z</time>
      </trkpt>
      <trkpt lat="40.841335" lon="-4.1171">
        <ele>1247.0</ele>
        <time>2018-05-26T12:08:17.677Z</time>
      </trkpt>
      <trkpt lat="40.84144167" lon="-4.11693">
        <ele>1247.0</ele>
        <time>2018-05-26T12:08:18.689Z</time>
      </trkpt>
      <trkpt lat="40.84144167" lon="-4.11693">
        <ele>1247.0</ele>
        <time>2018-05-26T12:08:19.695Z</time>
      </trkpt>
      <trkpt lat="40.84153" lon="-4.11675833">
        <ele>1247.0</ele>
        <time>2018-05-26T12:08:20.702Z</time>
      </trkpt>
      <trkpt lat="40.841585" lon="-4.11668">
        <ele>1247.0</ele>
        <time>2018-05-26T12:08:21.686Z</time>
      </trkpt>
      <trkpt lat="40.841585" lon="-4.11668">
        <ele>1247.0</ele>
        <time>2018-05-26T12:08:22.693Z</time>
      </trkpt>
      <trkpt lat="40.8417" lon="-4.11651667">
        <ele>1246.0</ele>
        <time>2018-05-26T12:08:23.707Z</time>
      </trkpt>
      <trkpt lat="40.84176167" lon="-4.11643667">
        <ele>1245.0</ele>
        <time>2018-05-26T12:08:24.698Z</time>
      </trkpt>
      <trkpt lat="40.84176167" lon="-4.11643667">
        <ele>1245.0</ele>
        <time>2018-05-26T12:08:25.709Z</time>
      </trkpt>
      <trkpt lat="40.84188167" lon="-4.11627333">
        <ele>1244.0</ele>
        <time>2018-05-26T12:08:26.675Z</time>
      </trkpt>
      <trkpt lat="40.84193333" lon="-4.116185">
        <ele>1244.0</ele>
        <time>2018-05-26T12:08:27.706Z</time>
      </trkpt>
      <trkpt lat="40.84193333" lon="-4.116185">
        <ele>1244.0</ele>
        <time>2018-05-26T12:08:28.693Z</time>
      </trkpt>
      <trkpt lat="40.84202333" lon="-4.116005">
        <ele>1243.0</ele>
        <time>2018-05-26T12:08:29.713Z</time>
      </trkpt>
      <trkpt lat="40.84202333" lon="-4.116005">
        <ele>1243.0</ele>
        <time>2018-05-26T12:08:30.678Z</time>
      </trkpt>
      <trkpt lat="40.842095" lon="-4.11581833">
        <ele>1244.0</ele>
        <time>2018-05-26T12:08:31.685Z</time>
      </trkpt>
      <trkpt lat="40.84212333" lon="-4.11572333">
        <ele>1244.0</ele>
        <time>2018-05-26T12:08:32.691Z</time>
      </trkpt>
      <trkpt lat="40.84215" lon="-4.11563">
        <ele>1244.0</ele>
        <time>2018-05-26T12:08:33.700Z</time>
      </trkpt>
      <trkpt lat="40.84215" lon="-4.11563">
        <ele>1244.0</ele>
        <time>2018-05-26T12:08:34.711Z</time>
      </trkpt>
      <trkpt lat="40.84221" lon="-4.115455">
        <ele>1245.0</ele>
        <time>2018-05-26T12:08:35.688Z</time>
      </trkpt>
      <trkpt lat="40.84223833" lon="-4.11537333">
        <ele>1245.0</ele>
        <time>2018-05-26T12:08:36.694Z</time>
      </trkpt>
      <trkpt lat="40.84223833" lon="-4.11537333">
        <ele>1245.0</ele>
        <time>2018-05-26T12:08:37.701Z</time>
      </trkpt>
      <trkpt lat="40.84227167" lon="-4.11521167">
        <ele>1246.0</ele>
        <time>2018-05-26T12:08:38.680Z</time>
      </trkpt>
      <trkpt lat="40.84228833" lon="-4.11514333">
        <ele>1246.0</ele>
        <time>2018-05-26T12:08:39.678Z</time>
      </trkpt>
      <trkpt lat="40.84228833" lon="-4.11514333">
        <ele>1246.0</ele>
        <time>2018-05-26T12:08:40.684Z</time>
      </trkpt>
      <trkpt lat="40.84233833" lon="-4.11502167">
        <ele>1247.0</ele>
        <time>2018-05-26T12:08:41.691Z</time>
      </trkpt>
      <trkpt lat="40.84236833" lon="-4.11496667">
        <ele>1247.0</ele>
        <time>2018-05-26T12:08:42.690Z</time>
      </trkpt>
      <trkpt lat="40.84236833" lon="-4.11496667">
        <ele>1247.0</ele>
        <time>2018-05-26T12:08:43.696Z</time>
      </trkpt>
      <trkpt lat="40.84242" lon="-4.114865">
        <ele>1248.0</ele>
        <time>2018-05-26T12:08:44.704Z</time>
      </trkpt>
      <trkpt lat="40.84242" lon="-4.114865">
        <ele>1248.0</ele>
        <time>2018-05-26T12:08:45.677Z</time>
      </trkpt>
      <trkpt lat="40.84246667" lon="-4.11475833">
        <ele>1248.0</ele>
        <time>2018-05-26T12:08:46.710Z</time>
      </trkpt>
      <trkpt lat="40.84246667" lon="-4.11475833">
        <ele>1248.0</ele>
        <time>2018-05-26T12:08:47.675Z</time>
      </trkpt>
      <trkpt lat="40.84252333" lon="-4.11465833">
        <ele>1249.0</ele>
        <time>2018-05-26T12:08:48.682Z</time>
      </trkpt>
      <trkpt lat="40.84255333" lon="-4.114605">
        <ele>1249.0</ele>
        <time>2018-05-26T12:08:49.704Z</time>
      </trkpt>
      <trkpt lat="40.84255333" lon="-4.114605">
        <ele>1249.0</ele>
        <time>2018-05-26T12:08:50.712Z</time>
      </trkpt>
      <trkpt lat="40.842615" lon="-4.11449">
        <ele>1249.0</ele>
        <time>2018-05-26T12:08:51.683Z</time>
      </trkpt>
      <trkpt lat="40.842615" lon="-4.11449">
        <ele>1249.0</ele>
        <time>2018-05-26T12:08:52.703Z</time>
      </trkpt>
      <trkpt lat="40.84266667" lon="-4.11436">
        <ele>1249.0</ele>
        <time>2018-05-26T12:08:53.692Z</time>
      </trkpt>
      <trkpt lat="40.84266667" lon="-4.11436">
        <ele>1249.0</ele>
        <time>2018-05-26T12:08:54.698Z</time>
      </trkpt>
      <trkpt lat="40.84270167" lon="-4.11422667">
        <ele>1249.0</ele>
        <time>2018-05-26T12:08:55.707Z</time>
      </trkpt>
      <trkpt lat="40.842715" lon="-4.114165">
        <ele>1249.0</ele>
        <time>2018-05-26T12:08:56.687Z</time>
      </trkpt>
      <trkpt lat="40.84272833" lon="-4.11411">
        <ele>1249.0</ele>
        <time>2018-05-26T12:08:57.693Z</time>
      </trkpt>
      <trkpt lat="40.84272833" lon="-4.11411">
        <ele>1249.0</ele>
        <time>2018-05-26T12:08:58.699Z</time>
      </trkpt>
      <trkpt lat="40.84277167" lon="-4.11401">
        <ele>1249.0</ele>
        <time>2018-05-26T12:08:59.688Z</time>
      </trkpt>
      <trkpt lat="40.84277167" lon="-4.11401">
        <ele>1249.0</ele>
        <time>2018-05-26T12:09:00.693Z</time>
      </trkpt>
      <trkpt lat="40.842825" lon="-4.1139">
        <ele>1249.0</ele>
        <time>2018-05-26T12:09:01.701Z</time>
      </trkpt>
      <trkpt lat="40.842825" lon="-4.1139">
        <ele>1249.0</ele>
        <time>2018-05-26T12:09:02.711Z</time>
      </trkpt>
      <trkpt lat="40.842875" lon="-4.11379">
        <ele>1248.0</ele>
        <time>2018-05-26T12:09:03.707Z</time>
      </trkpt>
      <trkpt lat="40.842875" lon="-4.11379">
        <ele>1248.0</ele>
        <time>2018-05-26T12:09:04.714Z</time>
      </trkpt>
      <trkpt lat="40.84293333" lon="-4.11367667">
        <ele>1248.0</ele>
        <time>2018-05-26T12:09:05.680Z</time>
      </trkpt>
      <trkpt lat="40.84293333" lon="-4.11367667">
        <ele>1248.0</ele>
        <time>2018-05-26T12:09:06.687Z</time>
      </trkpt>
      <trkpt lat="40.84298667" lon="-4.11356">
        <ele>1247.0</ele>
        <time>2018-05-26T12:09:07.678Z</time>
      </trkpt>
      <trkpt lat="40.84298667" lon="-4.11356">
        <ele>1247.0</ele>
        <time>2018-05-26T12:09:08.684Z</time>
      </trkpt>
      <trkpt lat="40.84304" lon="-4.113405">
        <ele>1245.0</ele>
        <time>2018-05-26T12:09:09.692Z</time>
      </trkpt>
      <trkpt lat="40.84304" lon="-4.113405">
        <ele>1245.0</ele>
        <time>2018-05-26T12:09:10.702Z</time>
      </trkpt>
      <trkpt lat="40.84310333" lon="-4.11324667">
        <ele>1245.0</ele>
        <time>2018-05-26T12:09:11.706Z</time>
      </trkpt>
      <trkpt lat="40.84310333" lon="-4.11324667">
        <ele>1245.0</ele>
        <time>2018-05-26T12:09:12.713Z</time>
      </trkpt>
      <trkpt lat="40.84318333" lon="-4.11312667">
        <ele>1245.0</ele>
        <time>2018-05-26T12:09:13.684Z</time>
      </trkpt>
      <trkpt lat="40.84318333" lon="-4.11312667">
        <ele>1245.0</ele>
        <time>2018-05-26T12:09:14.704Z</time>
      </trkpt>
      <trkpt lat="40.843275" lon="-4.11302667">
        <ele>1245.0</ele>
        <time>2018-05-26T12:09:15.708Z</time>
      </trkpt>
      <trkpt lat="40.843275" lon="-4.11302667">
        <ele>1245.0</ele>
        <time>2018-05-26T12:09:16.714Z</time>
      </trkpt>
      <trkpt lat="40.84338333" lon="-4.112945">
        <ele>1244.0</ele>
        <time>2018-05-26T12:09:17.681Z</time>
      </trkpt>
      <trkpt lat="40.84338333" lon="-4.112945">
        <ele>1244.0</ele>
        <time>2018-05-26T12:09:18.686Z</time>
      </trkpt>
      <trkpt lat="40.84349667" lon="-4.11285167">
        <ele>1243.0</ele>
        <time>2018-05-26T12:09:19.679Z</time>
      </trkpt>
      <trkpt lat="40.84349667" lon="-4.11285167">
        <ele>1243.0</ele>
        <time>2018-05-26T12:09:20.685Z</time>
      </trkpt>
      <trkpt lat="40.84358833" lon="-4.11272333">
        <ele>1243.0</ele>
        <time>2018-05-26T12:09:21.692Z</time>
      </trkpt>
      <trkpt lat="40.84358833" lon="-4.11272333">
        <ele>1243.0</ele>
        <time>2018-05-26T12:09:22.702Z</time>
      </trkpt>
      <trkpt lat="40.84365167" lon="-4.11256333">
        <ele>1243.0</ele>
        <time>2018-05-26T12:09:23.683Z</time>
      </trkpt>
      <trkpt lat="40.84365167" lon="-4.11256333">
        <ele>1243.0</ele>
        <time>2018-05-26T12:09:24.690Z</time>
      </trkpt>
      <trkpt lat="40.84369" lon="-4.11239167">
        <ele>1243.0</ele>
        <time>2018-05-26T12:09:25.697Z</time>
      </trkpt>
      <trkpt lat="40.84369" lon="-4.11239167">
        <ele>1243.0</ele>
        <time>2018-05-26T12:09:26.680Z</time>
      </trkpt>
      <trkpt lat="40.84374" lon="-4.112245">
        <ele>1243.0</ele>
        <time>2018-05-26T12:09:27.678Z</time>
      </trkpt>
      <trkpt lat="40.84374" lon="-4.112245">
        <ele>1243.0</ele>
        <time>2018-05-26T12:09:28.684Z</time>
      </trkpt>
      <trkpt lat="40.84384" lon="-4.11214667">
        <ele>1243.0</ele>
        <time>2018-05-26T12:09:29.693Z</time>
      </trkpt>
      <trkpt lat="40.84384" lon="-4.11214667">
        <ele>1243.0</ele>
        <time>2018-05-26T12:09:30.701Z</time>
      </trkpt>
      <trkpt lat="40.84396167" lon="-4.11206167">
        <ele>1242.0</ele>
        <time>2018-05-26T12:09:31.698Z</time>
      </trkpt>
      <trkpt lat="40.84396167" lon="-4.11206167">
        <ele>1242.0</ele>
        <time>2018-05-26T12:09:32.689Z</time>
      </trkpt>
      <trkpt lat="40.84409" lon="-4.11195833">
        <ele>1241.0</ele>
        <time>2018-05-26T12:09:33.702Z</time>
      </trkpt>
      <trkpt lat="40.84415167" lon="-4.11188833">
        <ele>1241.0</ele>
        <time>2018-05-26T12:09:34.679Z</time>
      </trkpt>
      <trkpt lat="40.84415167" lon="-4.11188833">
        <ele>1241.0</ele>
        <time>2018-05-26T12:09:35.685Z</time>
      </trkpt>
      <trkpt lat="40.84425167" lon="-4.111725">
        <ele>1241.0</ele>
        <time>2018-05-26T12:09:36.692Z</time>
      </trkpt>
      <trkpt lat="40.84429" lon="-4.11164333">
        <ele>1241.0</ele>
        <time>2018-05-26T12:09:37.698Z</time>
      </trkpt>
      <trkpt lat="40.84429" lon="-4.11164333">
        <ele>1241.0</ele>
        <time>2018-05-26T12:09:38.710Z</time>
      </trkpt>
      <trkpt lat="40.84435833" lon="-4.11147333">
        <ele>1239.0</ele>
        <time>2018-05-26T12:09:39.677Z</time>
      </trkpt>
      <trkpt lat="40.84435833" lon="-4.11147333">
        <ele>1239.0</ele>
        <time>2018-05-26T12:09:40.684Z</time>
      </trkpt>
      <trkpt lat="40.844415" lon="-4.111285">
        <ele>1238.0</ele>
        <time>2018-05-26T12:09:41.691Z</time>
      </trkpt>
      <trkpt lat="40.844415" lon="-4.111285">
        <ele>1238.0</ele>
        <time>2018-05-26T12:09:42.698Z</time>
      </trkpt>
      <trkpt lat="40.844475" lon="-4.111105">
        <ele>1238.0</ele>
        <time>2018-05-26T12:09:43.708Z</time>
      </trkpt>
      <trkpt lat="40.844475" lon="-4.111105">
        <ele>1238.0</ele>
        <time>2018-05-26T12:09:44.714Z</time>
      </trkpt>
      <trkpt lat="40.84452833" lon="-4.11094">
        <ele>1238.0</ele>
        <time>2018-05-26T12:09:45.693Z</time>
      </trkpt>
      <trkpt lat="40.84452833" lon="-4.11094">
        <ele>1238.0</ele>
        <time>2018-05-26T12:09:46.700Z</time>
      </trkpt>
      <trkpt lat="40.84460167" lon="-4.11079167">
        <ele>1238.0</ele>
        <time>2018-05-26T12:09:47.711Z</time>
      </trkpt>
      <trkpt lat="40.84464" lon="-4.11072">
        <ele>1238.0</ele>
        <time>2018-05-26T12:09:48.703Z</time>
      </trkpt>
      <trkpt lat="40.84464" lon="-4.11072">
        <ele>1238.0</ele>
        <time>2018-05-26T12:09:49.711Z</time>
      </trkpt>
      <trkpt lat="40.844695" lon="-4.110575">
        <ele>1239.0</ele>
        <time>2018-05-26T12:09:50.678Z</time>
      </trkpt>
      <trkpt lat="40.84471167" lon="-4.110505">
        <ele>1238.0</ele>
        <time>2018-05-26T12:09:51.709Z</time>
      </trkpt>
      <trkpt lat="40.84471167" lon="-4.110505">
        <ele>1238.0</ele>
        <time>2018-05-26T12:09:52.676Z</time>
      </trkpt>
      <trkpt lat="40.844715" lon="-4.110365">
        <ele>1238.0</ele>
        <time>2018-05-26T12:09:53.689Z</time>
      </trkpt>
      <trkpt lat="40.844705" lon="-4.11028667">
        <ele>1237.0</ele>
        <time>2018-05-26T12:09:54.676Z</time>
      </trkpt>
      <trkpt lat="40.844705" lon="-4.11028667">
        <ele>1237.0</ele>
        <time>2018-05-26T12:09:55.683Z</time>
      </trkpt>
      <trkpt lat="40.844705" lon="-4.11010333">
        <ele>1235.0</ele>
        <time>2018-05-26T12:09:56.690Z</time>
      </trkpt>
      <trkpt lat="40.84470667" lon="-4.11001">
        <ele>1234.0</ele>
        <time>2018-05-26T12:09:57.687Z</time>
      </trkpt>
      <trkpt lat="40.84470667" lon="-4.11001">
        <ele>1234.0</ele>
        <time>2018-05-26T12:09:58.694Z</time>
      </trkpt>
      <trkpt lat="40.84471833" lon="-4.10984333">
        <ele>1233.0</ele>
        <time>2018-05-26T12:09:59.701Z</time>
      </trkpt>
      <trkpt lat="40.84471833" lon="-4.10984333">
        <ele>1233.0</ele>
        <time>2018-05-26T12:10:00.708Z</time>
      </trkpt>
      <trkpt lat="40.844795" lon="-4.10975333">
        <ele>1232.0</ele>
        <time>2018-05-26T12:10:01.695Z</time>
      </trkpt>
      <trkpt lat="40.844795" lon="-4.10975333">
        <ele>1232.0</ele>
        <time>2018-05-26T12:10:02.701Z</time>
      </trkpt>
      <trkpt lat="40.844885" lon="-4.109745">
        <ele>1232.0</ele>
        <time>2018-05-26T12:10:03.692Z</time>
      </trkpt>
      <trkpt lat="40.844885" lon="-4.109745">
        <ele>1232.0</ele>
        <time>2018-05-26T12:10:04.702Z</time>
      </trkpt>
      <trkpt lat="40.844965" lon="-4.10975333">
        <ele>1231.0</ele>
        <time>2018-05-26T12:10:05.709Z</time>
      </trkpt>
      <trkpt lat="40.844965" lon="-4.10975333">
        <ele>1231.0</ele>
        <time>2018-05-26T12:10:06.714Z</time>
      </trkpt>
      <trkpt lat="40.845035" lon="-4.10975833">
        <ele>1232.0</ele>
        <time>2018-05-26T12:10:07.681Z</time>
      </trkpt>
      <trkpt lat="40.845065" lon="-4.10975333">
        <ele>1232.0</ele>
        <time>2018-05-26T12:10:08.702Z</time>
      </trkpt>
      <trkpt lat="40.84508833" lon="-4.10974333">
        <ele>1233.0</ele>
        <time>2018-05-26T12:10:09.711Z</time>
      </trkpt>
      <trkpt lat="40.84508833" lon="-4.10974333">
        <ele>1233.0</ele>
        <time>2018-05-26T12:10:10.677Z</time>
      </trkpt>
      <trkpt lat="40.845125" lon="-4.10972167">
        <ele>1233.0</ele>
        <time>2018-05-26T12:10:11.687Z</time>
      </trkpt>
      <trkpt lat="40.845125" lon="-4.10972167">
        <ele>1233.0</ele>
        <time>2018-05-26T12:10:12.692Z</time>
      </trkpt>
      <trkpt lat="40.845155" lon="-4.109695">
        <ele>1235.0</ele>
        <time>2018-05-26T12:10:13.699Z</time>
      </trkpt>
      <trkpt lat="40.84516833" lon="-4.10967667">
        <ele>1235.0</ele>
        <time>2018-05-26T12:10:14.680Z</time>
      </trkpt>
      <trkpt lat="40.84518167" lon="-4.10966">
        <ele>1236.0</ele>
        <time>2018-05-26T12:10:15.686Z</time>
      </trkpt>
      <trkpt lat="40.84518167" lon="-4.10966">
        <ele>1236.0</ele>
        <time>2018-05-26T12:10:16.692Z</time>
      </trkpt>
      <trkpt lat="40.84520167" lon="-4.10962167">
        <ele>1236.0</ele>
        <time>2018-05-26T12:10:17.675Z</time>
      </trkpt>
      <trkpt lat="40.84521167" lon="-4.10959833">
        <ele>1237.0</ele>
        <time>2018-05-26T12:10:18.678Z</time>
      </trkpt>
      <trkpt lat="40.84521167" lon="-4.10959833">
        <ele>1237.0</ele>
        <time>2018-05-26T12:10:19.684Z</time>
      </trkpt>
      <trkpt lat="40.84523333" lon="-4.10955667">
        <ele>1237.0</ele>
        <time>2018-05-26T12:10:20.691Z</time>
      </trkpt>
      <trkpt lat="40.84524333" lon="-4.10953667">
        <ele>1238.0</ele>
        <time>2018-05-26T12:10:21.688Z</time>
      </trkpt>
      <trkpt lat="40.84524333" lon="-4.10953667">
        <ele>1238.0</ele>
        <time>2018-05-26T12:10:22.695Z</time>
      </trkpt>
      <trkpt lat="40.845265" lon="-4.10949667">
        <ele>1238.0</ele>
        <time>2018-05-26T12:10:23.708Z</time>
      </trkpt>
      <trkpt lat="40.845265" lon="-4.10949667">
        <ele>1238.0</ele>
        <time>2018-05-26T12:10:24.714Z</time>
      </trkpt>
      <trkpt lat="40.84528667" lon="-4.10945667">
        <ele>1239.0</ele>
        <time>2018-05-26T12:10:25.708Z</time>
      </trkpt>
      <trkpt lat="40.84529667" lon="-4.109435">
        <ele>1239.0</ele>
        <time>2018-05-26T12:10:26.714Z</time>
      </trkpt>
      <trkpt lat="40.84529667" lon="-4.109435">
        <ele>1239.0</ele>
        <time>2018-05-26T12:10:27.680Z</time>
      </trkpt>
      <trkpt lat="40.84531833" lon="-4.109395">
        <ele>1240.0</ele>
        <time>2018-05-26T12:10:28.708Z</time>
      </trkpt>
      <trkpt lat="40.84533" lon="-4.10937667">
        <ele>1240.0</ele>
        <time>2018-05-26T12:10:29.715Z</time>
      </trkpt>
      <trkpt lat="40.84534167" lon="-4.10936">
        <ele>1240.0</ele>
        <time>2018-05-26T12:10:30.682Z</time>
      </trkpt>
      <trkpt lat="40.84534167" lon="-4.10936">
        <ele>1240.0</ele>
        <time>2018-05-26T12:10:31.688Z</time>
      </trkpt>
      <trkpt lat="40.84536" lon="-4.10932333">
        <ele>1241.0</ele>
        <time>2018-05-26T12:10:32.707Z</time>
      </trkpt>
      <trkpt lat="40.84536" lon="-4.10932333">
        <ele>1241.0</ele>
        <time>2018-05-26T12:10:33.676Z</time>
      </trkpt>
      <trkpt lat="40.845385" lon="-4.10928333">
        <ele>1241.0</ele>
        <time>2018-05-26T12:10:34.708Z</time>
      </trkpt>
      <trkpt lat="40.8454" lon="-4.109265">
        <ele>1242.0</ele>
        <time>2018-05-26T12:10:35.675Z</time>
      </trkpt>
      <trkpt lat="40.8454" lon="-4.109265">
        <ele>1242.0</ele>
        <time>2018-05-26T12:10:36.682Z</time>
      </trkpt>
      <trkpt lat="40.84542667" lon="-4.10922667">
        <ele>1242.0</ele>
        <time>2018-05-26T12:10:37.694Z</time>
      </trkpt>
      <trkpt lat="40.84544" lon="-4.109205">
        <ele>1242.0</ele>
        <time>2018-05-26T12:10:38.710Z</time>
      </trkpt>
      <trkpt lat="40.84544" lon="-4.109205">
        <ele>1242.0</ele>
        <time>2018-05-26T12:10:39.675Z</time>
      </trkpt>
      <trkpt lat="40.84546333" lon="-4.10916">
        <ele>1242.0</ele>
        <time>2018-05-26T12:10:40.682Z</time>
      </trkpt>
      <trkpt lat="40.84546333" lon="-4.10916">
        <ele>1242.0</ele>
        <time>2018-05-26T12:10:41.687Z</time>
      </trkpt>
      <trkpt lat="40.84549" lon="-4.109115">
        <ele>1243.0</ele>
        <time>2018-05-26T12:10:42.681Z</time>
      </trkpt>
      <trkpt lat="40.84549" lon="-4.109115">
        <ele>1243.0</ele>
        <time>2018-05-26T12:10:43.686Z</time>
      </trkpt>
      <trkpt lat="40.84551333" lon="-4.10907167">
        <ele>1243.0</ele>
        <time>2018-05-26T12:10:44.693Z</time>
      </trkpt>
      <trkpt lat="40.84552667" lon="-4.10904833">
        <ele>1244.0</ele>
        <time>2018-05-26T12:10:45.678Z</time>
      </trkpt>
      <trkpt lat="40.84552667" lon="-4.10904833">
        <ele>1244.0</ele>
        <time>2018-05-26T12:10:46.683Z</time>
      </trkpt>
      <trkpt lat="40.84555333" lon="-4.10900833">
        <ele>1244.0</ele>
        <time>2018-05-26T12:10:47.714Z</time>
      </trkpt>
      <trkpt lat="40.84555333" lon="-4.10900833">
        <ele>1244.0</ele>
        <time>2018-05-26T12:10:48.680Z</time>
      </trkpt>
      <trkpt lat="40.84558" lon="-4.10896833">
        <ele>1245.0</ele>
        <time>2018-05-26T12:10:49.706Z</time>
      </trkpt>
      <trkpt lat="40.84558" lon="-4.10896833">
        <ele>1245.0</ele>
        <time>2018-05-26T12:10:50.712Z</time>
      </trkpt>
      <trkpt lat="40.84559833" lon="-4.10892167">
        <ele>1245.0</ele>
        <time>2018-05-26T12:10:51.679Z</time>
      </trkpt>
      <trkpt lat="40.84559833" lon="-4.10892167">
        <ele>1245.0</ele>
        <time>2018-05-26T12:10:52.686Z</time>
      </trkpt>
      <trkpt lat="40.84561833" lon="-4.10887">
        <ele>1245.0</ele>
        <time>2018-05-26T12:10:53.687Z</time>
      </trkpt>
      <trkpt lat="40.84563167" lon="-4.10884333">
        <ele>1245.0</ele>
        <time>2018-05-26T12:10:54.700Z</time>
      </trkpt>
      <trkpt lat="40.84563167" lon="-4.10884333">
        <ele>1245.0</ele>
        <time>2018-05-26T12:10:55.707Z</time>
      </trkpt>
      <trkpt lat="40.84566333" lon="-4.10879333">
        <ele>1246.0</ele>
        <time>2018-05-26T12:10:56.715Z</time>
      </trkpt>
      <trkpt lat="40.84566333" lon="-4.10879333">
        <ele>1246.0</ele>
        <time>2018-05-26T12:10:57.680Z</time>
      </trkpt>
      <trkpt lat="40.845695" lon="-4.10874833">
        <ele>1246.0</ele>
        <time>2018-05-26T12:10:58.687Z</time>
      </trkpt>
      <trkpt lat="40.845695" lon="-4.10874833">
        <ele>1246.0</ele>
        <time>2018-05-26T12:10:59.693Z</time>
      </trkpt>
      <trkpt lat="40.845725" lon="-4.10870333">
        <ele>1247.0</ele>
        <time>2018-05-26T12:11:00.685Z</time>
      </trkpt>
      <trkpt lat="40.845725" lon="-4.10870333">
        <ele>1247.0</ele>
        <time>2018-05-26T12:11:01.692Z</time>
      </trkpt>
      <trkpt lat="40.845755" lon="-4.10865167">
        <ele>1247.0</ele>
        <time>2018-05-26T12:11:02.700Z</time>
      </trkpt>
      <trkpt lat="40.84577" lon="-4.108625">
        <ele>1247.0</ele>
        <time>2018-05-26T12:11:03.713Z</time>
      </trkpt>
      <trkpt lat="40.84577" lon="-4.108625">
        <ele>1247.0</ele>
        <time>2018-05-26T12:11:04.675Z</time>
      </trkpt>
      <trkpt lat="40.8458" lon="-4.10856833">
        <ele>1248.0</ele>
        <time>2018-05-26T12:11:05.697Z</time>
      </trkpt>
      <trkpt lat="40.8458" lon="-4.10856833">
        <ele>1248.0</ele>
        <time>2018-05-26T12:11:06.708Z</time>
      </trkpt>
      <trkpt lat="40.84583167" lon="-4.10851167">
        <ele>1248.0</ele>
        <time>2018-05-26T12:11:07.675Z</time>
      </trkpt>
      <trkpt lat="40.84583167" lon="-4.10851167">
        <ele>1248.0</ele>
        <time>2018-05-26T12:11:08.681Z</time>
      </trkpt>
      <trkpt lat="40.84586333" lon="-4.10845333">
        <ele>1248.0</ele>
        <time>2018-05-26T12:11:09.679Z</time>
      </trkpt>
      <trkpt lat="40.84588" lon="-4.108425">
        <ele>1249.0</ele>
        <time>2018-05-26T12:11:10.684Z</time>
      </trkpt>
      <trkpt lat="40.84588" lon="-4.108425">
        <ele>1249.0</ele>
        <time>2018-05-26T12:11:11.691Z</time>
      </trkpt>
      <trkpt lat="40.84591333" lon="-4.108365">
        <ele>1249.0</ele>
        <time>2018-05-26T12:11:12.698Z</time>
      </trkpt>
      <trkpt lat="40.84591333" lon="-4.108365">
        <ele>1249.0</ele>
        <time>2018-05-26T12:11:13.704Z</time>
      </trkpt>
      <trkpt lat="40.845945" lon="-4.108305">
        <ele>1249.0</ele>
        <time>2018-05-26T12:11:14.675Z</time>
      </trkpt>
      <trkpt lat="40.84596167" lon="-4.10827333">
        <ele>1249.0</ele>
        <time>2018-05-26T12:11:15.682Z</time>
      </trkpt>
      <trkpt lat="40.84596167" lon="-4.10827333">
        <ele>1249.0</ele>
        <time>2018-05-26T12:11:16.687Z</time>
      </trkpt>
      <trkpt lat="40.84599833" lon="-4.10820667">
        <ele>1249.0</ele>
        <time>2018-05-26T12:11:17.694Z</time>
      </trkpt>
      <trkpt lat="40.84601667" lon="-4.108175">
        <ele>1250.0</ele>
        <time>2018-05-26T12:11:18.677Z</time>
      </trkpt>
      <trkpt lat="40.84601667" lon="-4.108175">
        <ele>1250.0</ele>
        <time>2018-05-26T12:11:19.683Z</time>
      </trkpt>
      <trkpt lat="40.84605167" lon="-4.10811167">
        <ele>1250.0</ele>
        <time>2018-05-26T12:11:20.690Z</time>
      </trkpt>
      <trkpt lat="40.84607167" lon="-4.10808">
        <ele>1250.0</ele>
        <time>2018-05-26T12:11:21.713Z</time>
      </trkpt>
      <trkpt lat="40.84607167" lon="-4.10808">
        <ele>1250.0</ele>
        <time>2018-05-26T12:11:22.680Z</time>
      </trkpt>
      <trkpt lat="40.84610833" lon="-4.108015">
        <ele>1251.0</ele>
        <time>2018-05-26T12:11:23.688Z</time>
      </trkpt>
      <trkpt lat="40.84612833" lon="-4.107985">
        <ele>1251.0</ele>
        <time>2018-05-26T12:11:24.677Z</time>
      </trkpt>
      <trkpt lat="40.84614667" lon="-4.107955">
        <ele>1252.0</ele>
        <time>2018-05-26T12:11:25.689Z</time>
      </trkpt>
      <trkpt lat="40.84614667" lon="-4.107955">
        <ele>1252.0</ele>
        <time>2018-05-26T12:11:26.695Z</time>
      </trkpt>
      <trkpt lat="40.84618167" lon="-4.10789">
        <ele>1252.0</ele>
        <time>2018-05-26T12:11:27.701Z</time>
      </trkpt>
      <trkpt lat="40.84618167" lon="-4.10789">
        <ele>1252.0</ele>
        <time>2018-05-26T12:11:28.706Z</time>
      </trkpt>
      <trkpt lat="40.84621667" lon="-4.10782667">
        <ele>1252.0</ele>
        <time>2018-05-26T12:11:29.692Z</time>
      </trkpt>
      <trkpt lat="40.84621667" lon="-4.10782667">
        <ele>1252.0</ele>
        <time>2018-05-26T12:11:30.697Z</time>
      </trkpt>
      <trkpt lat="40.84625167" lon="-4.10776333">
        <ele>1253.0</ele>
        <time>2018-05-26T12:11:31.711Z</time>
      </trkpt>
      <trkpt lat="40.84626667" lon="-4.10773">
        <ele>1253.0</ele>
        <time>2018-05-26T12:11:32.690Z</time>
      </trkpt>
      <trkpt lat="40.84626667" lon="-4.10773">
        <ele>1253.0</ele>
        <time>2018-05-26T12:11:33.698Z</time>
      </trkpt>
      <trkpt lat="40.84630333" lon="-4.107665">
        <ele>1254.0</ele>
        <time>2018-05-26T12:11:34.679Z</time>
      </trkpt>
      <trkpt lat="40.84631833" lon="-4.10763167">
        <ele>1254.0</ele>
        <time>2018-05-26T12:11:35.687Z</time>
      </trkpt>
      <trkpt lat="40.84631833" lon="-4.10763167">
        <ele>1254.0</ele>
        <time>2018-05-26T12:11:36.693Z</time>
      </trkpt>
      <trkpt lat="40.84634333" lon="-4.107565">
        <ele>1254.0</ele>
        <time>2018-05-26T12:11:37.700Z</time>
      </trkpt>
      <trkpt lat="40.846355" lon="-4.107535">
        <ele>1254.0</ele>
        <time>2018-05-26T12:11:38.680Z</time>
      </trkpt>
      <trkpt lat="40.84636667" lon="-4.10750667">
        <ele>1254.0</ele>
        <time>2018-05-26T12:11:39.678Z</time>
      </trkpt>
      <trkpt lat="40.84636667" lon="-4.10750667">
        <ele>1254.0</ele>
        <time>2018-05-26T12:11:40.684Z</time>
      </trkpt>
      <trkpt lat="40.84638167" lon="-4.10745667">
        <ele>1254.0</ele>
        <time>2018-05-26T12:11:41.691Z</time>
      </trkpt>
      <trkpt lat="40.84638833" lon="-4.10743333">
        <ele>1254.0</ele>
        <time>2018-05-26T12:11:42.697Z</time>
      </trkpt>
      <trkpt lat="40.84638833" lon="-4.10743333">
        <ele>1254.0</ele>
        <time>2018-05-26T12:11:43.689Z</time>
      </trkpt>
      <trkpt lat="40.846405" lon="-4.10739">
        <ele>1254.0</ele>
        <time>2018-05-26T12:11:44.689Z</time>
      </trkpt>
      <trkpt lat="40.84641167" lon="-4.10736833">
        <ele>1254.0</ele>
        <time>2018-05-26T12:11:45.695Z</time>
      </trkpt>
      <trkpt lat="40.84641167" lon="-4.10736833">
        <ele>1254.0</ele>
        <time>2018-05-26T12:11:46.700Z</time>
      </trkpt>
      <trkpt lat="40.84642333" lon="-4.10732333">
        <ele>1253.0</ele>
        <time>2018-05-26T12:11:47.712Z</time>
      </trkpt>
      <trkpt lat="40.84642333" lon="-4.10732333">
        <ele>1253.0</ele>
        <time>2018-05-26T12:11:48.677Z</time>
      </trkpt>
      <trkpt lat="40.84643167" lon="-4.10728167">
        <ele>1253.0</ele>
        <time>2018-05-26T12:11:49.699Z</time>
      </trkpt>
      <trkpt lat="40.84643167" lon="-4.10728167">
        <ele>1253.0</ele>
        <time>2018-05-26T12:11:50.706Z</time>
      </trkpt>
      <trkpt lat="40.84644333" lon="-4.10723833">
        <ele>1252.0</ele>
        <time>2018-05-26T12:11:51.676Z</time>
      </trkpt>
      <trkpt lat="40.84645" lon="-4.10721667">
        <ele>1252.0</ele>
        <time>2018-05-26T12:11:52.682Z</time>
      </trkpt>
      <trkpt lat="40.84645" lon="-4.10721667">
        <ele>1252.0</ele>
        <time>2018-05-26T12:11:53.687Z</time>
      </trkpt>
      <trkpt lat="40.84646833" lon="-4.10716">
        <ele>1251.0</ele>
        <time>2018-05-26T12:11:54.686Z</time>
      </trkpt>
      <trkpt lat="40.84646833" lon="-4.10716">
        <ele>1251.0</ele>
        <time>2018-05-26T12:11:55.692Z</time>
      </trkpt>
      <trkpt lat="40.8465" lon="-4.10707167">
        <ele>1250.0</ele>
        <time>2018-05-26T12:11:56.699Z</time>
      </trkpt>
      <trkpt lat="40.84651667" lon="-4.10702333">
        <ele>1249.0</ele>
        <time>2018-05-26T12:11:57.708Z</time>
      </trkpt>
      <trkpt lat="40.84651667" lon="-4.10702333">
        <ele>1249.0</ele>
        <time>2018-05-26T12:11:58.679Z</time>
      </trkpt>
      <trkpt lat="40.84653833" lon="-4.10694667">
        <ele>1249.0</ele>
        <time>2018-05-26T12:11:59.709Z</time>
      </trkpt>
      <trkpt lat="40.84653833" lon="-4.10694667">
        <ele>1249.0</ele>
        <time>2018-05-26T12:12:00.714Z</time>
      </trkpt>
      <trkpt lat="40.846565" lon="-4.10689667">
        <ele>1248.0</ele>
        <time>2018-05-26T12:12:01.681Z</time>
      </trkpt>
      <trkpt lat="40.846575" lon="-4.10688">
        <ele>1248.0</ele>
        <time>2018-05-26T12:12:02.677Z</time>
      </trkpt>
      <trkpt lat="40.84658167" lon="-4.10686667">
        <ele>1248.0</ele>
        <time>2018-05-26T12:12:03.690Z</time>
      </trkpt>
      <trkpt lat="40.84658167" lon="-4.10686667">
        <ele>1248.0</ele>
        <time>2018-05-26T12:12:04.696Z</time>
      </trkpt>
      <trkpt lat="40.84659667" lon="-4.10684">
        <ele>1248.0</ele>
        <time>2018-05-26T12:12:05.698Z</time>
      </trkpt>
      <trkpt lat="40.84659667" lon="-4.10684">
        <ele>1248.0</ele>
        <time>2018-05-26T12:12:06.704Z</time>
      </trkpt>
      <trkpt lat="40.84662" lon="-4.10681333">
        <ele>1248.0</ele>
        <time>2018-05-26T12:12:07.711Z</time>
      </trkpt>
      <trkpt lat="40.846635" lon="-4.10680333">
        <ele>1248.0</ele>
        <time>2018-05-26T12:12:08.678Z</time>
      </trkpt>
      <trkpt lat="40.84665" lon="-4.10679">
        <ele>1248.0</ele>
        <time>2018-05-26T12:12:09.685Z</time>
      </trkpt>
      <trkpt lat="40.84665" lon="-4.10679">
        <ele>1248.0</ele>
        <time>2018-05-26T12:12:10.691Z</time>
      </trkpt>
      <trkpt lat="40.84666833" lon="-4.10676333">
        <ele>1247.0</ele>
        <time>2018-05-26T12:12:11.699Z</time>
      </trkpt>
      <trkpt lat="40.84667167" lon="-4.10675">
        <ele>1247.0</ele>
        <time>2018-05-26T12:12:12.707Z</time>
      </trkpt>
      <trkpt lat="40.84667167" lon="-4.10675">
        <ele>1247.0</ele>
        <time>2018-05-26T12:12:13.714Z</time>
      </trkpt>
      <trkpt lat="40.84668833" lon="-4.10672333">
        <ele>1248.0</ele>
        <time>2018-05-26T12:12:14.687Z</time>
      </trkpt>
      <trkpt lat="40.84669667" lon="-4.10670333">
        <ele>1248.0</ele>
        <time>2018-05-26T12:12:15.704Z</time>
      </trkpt>
      <trkpt lat="40.84669667" lon="-4.10670333">
        <ele>1248.0</ele>
        <time>2018-05-26T12:12:16.711Z</time>
      </trkpt>
      <trkpt lat="40.84671" lon="-4.106665">
        <ele>1248.0</ele>
        <time>2018-05-26T12:12:17.677Z</time>
      </trkpt>
      <trkpt lat="40.84671833" lon="-4.10665">
        <ele>1249.0</ele>
        <time>2018-05-26T12:12:18.708Z</time>
      </trkpt>
      <trkpt lat="40.84671833" lon="-4.10665">
        <ele>1249.0</ele>
        <time>2018-05-26T12:12:19.715Z</time>
      </trkpt>
      <trkpt lat="40.84673667" lon="-4.10662">
        <ele>1248.0</ele>
        <time>2018-05-26T12:12:20.681Z</time>
      </trkpt>
      <trkpt lat="40.84674333" lon="-4.10660333">
        <ele>1249.0</ele>
        <time>2018-05-26T12:12:21.678Z</time>
      </trkpt>
      <trkpt lat="40.84674333" lon="-4.10660333">
        <ele>1249.0</ele>
        <time>2018-05-26T12:12:22.683Z</time>
      </trkpt>
      <trkpt lat="40.84676" lon="-4.10656833">
        <ele>1249.0</ele>
        <time>2018-05-26T12:12:23.696Z</time>
      </trkpt>
      <trkpt lat="40.84676" lon="-4.10656833">
        <ele>1249.0</ele>
        <time>2018-05-26T12:12:24.702Z</time>
      </trkpt>
      <trkpt lat="40.846775" lon="-4.10653667">
        <ele>1250.0</ele>
        <time>2018-05-26T12:12:25.698Z</time>
      </trkpt>
      <trkpt lat="40.846775" lon="-4.10653667">
        <ele>1250.0</ele>
        <time>2018-05-26T12:12:26.710Z</time>
      </trkpt>
      <trkpt lat="40.84678833" lon="-4.10650333">
        <ele>1250.0</ele>
        <time>2018-05-26T12:12:27.678Z</time>
      </trkpt>
      <trkpt lat="40.84678833" lon="-4.10650333">
        <ele>1250.0</ele>
        <time>2018-05-26T12:12:28.684Z</time>
      </trkpt>
      <trkpt lat="40.84679833" lon="-4.10646833">
        <ele>1251.0</ele>
        <time>2018-05-26T12:12:29.684Z</time>
      </trkpt>
      <trkpt lat="40.84679833" lon="-4.10646833">
        <ele>1251.0</ele>
        <time>2018-05-26T12:12:30.689Z</time>
      </trkpt>
      <trkpt lat="40.84681167" lon="-4.106435">
        <ele>1252.0</ele>
        <time>2018-05-26T12:12:31.696Z</time>
      </trkpt>
      <trkpt lat="40.84681167" lon="-4.106435">
        <ele>1252.0</ele>
        <time>2018-05-26T12:12:32.711Z</time>
      </trkpt>
      <trkpt lat="40.846825" lon="-4.10640833">
        <ele>1253.0</ele>
        <time>2018-05-26T12:12:33.683Z</time>
      </trkpt>
      <trkpt lat="40.846825" lon="-4.10640833">
        <ele>1253.0</ele>
        <time>2018-05-26T12:12:34.689Z</time>
      </trkpt>
      <trkpt lat="40.84683833" lon="-4.10638167">
        <ele>1254.0</ele>
        <time>2018-05-26T12:12:35.696Z</time>
      </trkpt>
      <trkpt lat="40.84683833" lon="-4.10638167">
        <ele>1254.0</ele>
        <time>2018-05-26T12:12:36.703Z</time>
      </trkpt>
      <trkpt lat="40.84684833" lon="-4.10635167">
        <ele>1254.0</ele>
        <time>2018-05-26T12:12:37.694Z</time>
      </trkpt>
      <trkpt lat="40.84684833" lon="-4.10635167">
        <ele>1254.0</ele>
        <time>2018-05-26T12:12:38.700Z</time>
      </trkpt>
      <trkpt lat="40.84686167" lon="-4.10632">
        <ele>1255.0</ele>
        <time>2018-05-26T12:12:39.713Z</time>
      </trkpt>
      <trkpt lat="40.84686167" lon="-4.10632">
        <ele>1255.0</ele>
        <time>2018-05-26T12:12:40.678Z</time>
      </trkpt>
      <trkpt lat="40.84687667" lon="-4.10629">
        <ele>1256.0</ele>
        <time>2018-05-26T12:12:41.711Z</time>
      </trkpt>
      <trkpt lat="40.84687667" lon="-4.10629">
        <ele>1256.0</ele>
        <time>2018-05-26T12:12:42.678Z</time>
      </trkpt>
      <trkpt lat="40.84688667" lon="-4.10625833">
        <ele>1257.0</ele>
        <time>2018-05-26T12:12:43.689Z</time>
      </trkpt>
      <trkpt lat="40.84688667" lon="-4.10625833">
        <ele>1257.0</ele>
        <time>2018-05-26T12:12:44.704Z</time>
      </trkpt>
      <trkpt lat="40.8469" lon="-4.10622833">
        <ele>1257.0</ele>
        <time>2018-05-26T12:12:45.677Z</time>
      </trkpt>
      <trkpt lat="40.8469" lon="-4.10622833">
        <ele>1257.0</ele>
        <time>2018-05-26T12:12:46.683Z</time>
      </trkpt>
      <trkpt lat="40.84691167" lon="-4.10619667">
        <ele>1258.0</ele>
        <time>2018-05-26T12:12:47.690Z</time>
      </trkpt>
      <trkpt lat="40.84691833" lon="-4.10618167">
        <ele>1258.0</ele>
        <time>2018-05-26T12:12:48.696Z</time>
      </trkpt>
      <trkpt lat="40.846925" lon="-4.10617">
        <ele>1259.0</ele>
        <time>2018-05-26T12:12:49.700Z</time>
      </trkpt>
      <trkpt lat="40.846925" lon="-4.10617">
        <ele>1259.0</ele>
        <time>2018-05-26T12:12:50.709Z</time>
      </trkpt>
      <trkpt lat="40.846935" lon="-4.10614333">
        <ele>1259.0</ele>
        <time>2018-05-26T12:12:51.676Z</time>
      </trkpt>
      <trkpt lat="40.846935" lon="-4.10614333">
        <ele>1259.0</ele>
        <time>2018-05-26T12:12:52.681Z</time>
      </trkpt>
      <trkpt lat="40.84695" lon="-4.10611667">
        <ele>1260.0</ele>
        <time>2018-05-26T12:12:53.677Z</time>
      </trkpt>
      <trkpt lat="40.84695" lon="-4.10611667">
        <ele>1260.0</ele>
        <time>2018-05-26T12:12:54.682Z</time>
      </trkpt>
      <trkpt lat="40.84696333" lon="-4.10609167">
        <ele>1260.0</ele>
        <time>2018-05-26T12:12:55.689Z</time>
      </trkpt>
      <trkpt lat="40.84697" lon="-4.10607833">
        <ele>1260.0</ele>
        <time>2018-05-26T12:12:56.702Z</time>
      </trkpt>
      <trkpt lat="40.846975" lon="-4.106065">
        <ele>1261.0</ele>
        <time>2018-05-26T12:12:57.676Z</time>
      </trkpt>
      <trkpt lat="40.846975" lon="-4.106065">
        <ele>1261.0</ele>
        <time>2018-05-26T12:12:58.682Z</time>
      </trkpt>
      <trkpt lat="40.84698833" lon="-4.10604">
        <ele>1261.0</ele>
        <time>2018-05-26T12:12:59.688Z</time>
      </trkpt>
      <trkpt lat="40.84698833" lon="-4.10604">
        <ele>1261.0</ele>
        <time>2018-05-26T12:13:00.694Z</time>
      </trkpt>
      <trkpt lat="40.84699667" lon="-4.10601333">
        <ele>1262.0</ele>
        <time>2018-05-26T12:13:01.678Z</time>
      </trkpt>
      <trkpt lat="40.84699667" lon="-4.10601333">
        <ele>1262.0</ele>
        <time>2018-05-26T12:13:02.683Z</time>
      </trkpt>
      <trkpt lat="40.84700833" lon="-4.10598667">
        <ele>1262.0</ele>
        <time>2018-05-26T12:13:03.691Z</time>
      </trkpt>
      <trkpt lat="40.84701667" lon="-4.10597333">
        <ele>1262.0</ele>
        <time>2018-05-26T12:13:04.679Z</time>
      </trkpt>
      <trkpt lat="40.84701667" lon="-4.10597333">
        <ele>1262.0</ele>
        <time>2018-05-26T12:13:05.685Z</time>
      </trkpt>
      <trkpt lat="40.847035" lon="-4.10595">
        <ele>1263.0</ele>
        <time>2018-05-26T12:13:06.692Z</time>
      </trkpt>
      <trkpt lat="40.847045" lon="-4.10593833">
        <ele>1263.0</ele>
        <time>2018-05-26T12:13:07.710Z</time>
      </trkpt>
      <trkpt lat="40.847045" lon="-4.10593833">
        <ele>1263.0</ele>
        <time>2018-05-26T12:13:08.696Z</time>
      </trkpt>
      <trkpt lat="40.84706333" lon="-4.10592">
        <ele>1263.0</ele>
        <time>2018-05-26T12:13:09.693Z</time>
      </trkpt>
      <trkpt lat="40.84706333" lon="-4.10592">
        <ele>1263.0</ele>
        <time>2018-05-26T12:13:10.699Z</time>
      </trkpt>
      <trkpt lat="40.84708333" lon="-4.10590333">
        <ele>1264.0</ele>
        <time>2018-05-26T12:13:11.711Z</time>
      </trkpt>
      <trkpt lat="40.84708333" lon="-4.10590333">
        <ele>1264.0</ele>
        <time>2018-05-26T12:13:12.689Z</time>
      </trkpt>
      <trkpt lat="40.8471" lon="-4.10588167">
        <ele>1264.0</ele>
        <time>2018-05-26T12:13:13.680Z</time>
      </trkpt>
      <trkpt lat="40.8471" lon="-4.10588167">
        <ele>1264.0</ele>
        <time>2018-05-26T12:13:14.687Z</time>
      </trkpt>
      <trkpt lat="40.84712" lon="-4.10586333">
        <ele>1265.0</ele>
        <time>2018-05-26T12:13:15.695Z</time>
      </trkpt>
      <trkpt lat="40.84712" lon="-4.10586333">
        <ele>1265.0</ele>
        <time>2018-05-26T12:13:16.701Z</time>
      </trkpt>
      <trkpt lat="40.84714667" lon="-4.10585">
        <ele>1265.0</ele>
        <time>2018-05-26T12:13:17.708Z</time>
      </trkpt>
      <trkpt lat="40.84714667" lon="-4.10585">
        <ele>1265.0</ele>
        <time>2018-05-26T12:13:18.689Z</time>
      </trkpt>
      <trkpt lat="40.847175" lon="-4.10584333">
        <ele>1266.0</ele>
        <time>2018-05-26T12:13:19.708Z</time>
      </trkpt>
      <trkpt lat="40.847175" lon="-4.10584333">
        <ele>1266.0</ele>
        <time>2018-05-26T12:13:20.692Z</time>
      </trkpt>
      <trkpt lat="40.84720167" lon="-4.10583833">
        <ele>1266.0</ele>
        <time>2018-05-26T12:13:21.704Z</time>
      </trkpt>
      <trkpt lat="40.84720167" lon="-4.10583833">
        <ele>1266.0</ele>
        <time>2018-05-26T12:13:22.709Z</time>
      </trkpt>
      <trkpt lat="40.84722833" lon="-4.10582667">
        <ele>1266.0</ele>
        <time>2018-05-26T12:13:23.688Z</time>
      </trkpt>
      <trkpt lat="40.84722833" lon="-4.10582667">
        <ele>1266.0</ele>
        <time>2018-05-26T12:13:24.694Z</time>
      </trkpt>
      <trkpt lat="40.84725167" lon="-4.10581167">
        <ele>1267.0</ele>
        <time>2018-05-26T12:13:25.675Z</time>
      </trkpt>
      <trkpt lat="40.84725167" lon="-4.10581167">
        <ele>1267.0</ele>
        <time>2018-05-26T12:13:26.681Z</time>
      </trkpt>
      <trkpt lat="40.84728" lon="-4.10579333">
        <ele>1267.0</ele>
        <time>2018-05-26T12:13:27.687Z</time>
      </trkpt>
      <trkpt lat="40.84728" lon="-4.10579333">
        <ele>1267.0</ele>
        <time>2018-05-26T12:13:28.693Z</time>
      </trkpt>
      <trkpt lat="40.84730833" lon="-4.10577167">
        <ele>1267.0</ele>
        <time>2018-05-26T12:13:29.708Z</time>
      </trkpt>
      <trkpt lat="40.84730833" lon="-4.10577167">
        <ele>1267.0</ele>
        <time>2018-05-26T12:13:30.714Z</time>
      </trkpt>
      <trkpt lat="40.847335" lon="-4.10574333">
        <ele>1267.0</ele>
        <time>2018-05-26T12:13:31.683Z</time>
      </trkpt>
      <trkpt lat="40.84734833" lon="-4.10572833">
        <ele>1268.0</ele>
        <time>2018-05-26T12:13:32.709Z</time>
      </trkpt>
      <trkpt lat="40.84734833" lon="-4.10572833">
        <ele>1268.0</ele>
        <time>2018-05-26T12:13:33.708Z</time>
      </trkpt>
      <trkpt lat="40.84737833" lon="-4.105705">
        <ele>1268.0</ele>
        <time>2018-05-26T12:13:34.679Z</time>
      </trkpt>
      <trkpt lat="40.84737833" lon="-4.105705">
        <ele>1268.0</ele>
        <time>2018-05-26T12:13:35.685Z</time>
      </trkpt>
      <trkpt lat="40.84741" lon="-4.10567833">
        <ele>1268.0</ele>
        <time>2018-05-26T12:13:36.687Z</time>
      </trkpt>
      <trkpt lat="40.84741" lon="-4.10567833">
        <ele>1268.0</ele>
        <time>2018-05-26T12:13:37.693Z</time>
      </trkpt>
      <trkpt lat="40.84744167" lon="-4.10564833">
        <ele>1269.0</ele>
        <time>2018-05-26T12:13:38.700Z</time>
      </trkpt>
      <trkpt lat="40.84744167" lon="-4.10564833">
        <ele>1269.0</ele>
        <time>2018-05-26T12:13:39.707Z</time>
      </trkpt>
      <trkpt lat="40.847475" lon="-4.10562167">
        <ele>1269.0</ele>
        <time>2018-05-26T12:13:40.677Z</time>
      </trkpt>
      <trkpt lat="40.847475" lon="-4.10562167">
        <ele>1269.0</ele>
        <time>2018-05-26T12:13:41.683Z</time>
      </trkpt>
      <trkpt lat="40.84750833" lon="-4.10559167">
        <ele>1270.0</ele>
        <time>2018-05-26T12:13:42.689Z</time>
      </trkpt>
      <trkpt lat="40.84752667" lon="-4.10557667">
        <ele>1270.0</ele>
        <time>2018-05-26T12:13:43.707Z</time>
      </trkpt>
      <trkpt lat="40.847545" lon="-4.10556">
        <ele>1270.0</ele>
        <time>2018-05-26T12:13:44.680Z</time>
      </trkpt>
      <trkpt lat="40.847545" lon="-4.10556">
        <ele>1270.0</ele>
        <time>2018-05-26T12:13:45.686Z</time>
      </trkpt>
      <trkpt lat="40.84758833" lon="-4.10552">
        <ele>1270.0</ele>
        <time>2018-05-26T12:13:46.693Z</time>
      </trkpt>
      <trkpt lat="40.84758833" lon="-4.10552">
        <ele>1270.0</ele>
        <time>2018-05-26T12:13:47.701Z</time>
      </trkpt>
      <trkpt lat="40.84763167" lon="-4.10547667">
        <ele>1270.0</ele>
        <time>2018-05-26T12:13:48.686Z</time>
      </trkpt>
      <trkpt lat="40.84763167" lon="-4.10547667">
        <ele>1270.0</ele>
        <time>2018-05-26T12:13:49.694Z</time>
      </trkpt>
      <trkpt lat="40.84767667" lon="-4.10543167">
        <ele>1270.0</ele>
        <time>2018-05-26T12:13:50.700Z</time>
      </trkpt>
      <trkpt lat="40.84769833" lon="-4.10540833">
        <ele>1270.0</ele>
        <time>2018-05-26T12:13:51.710Z</time>
      </trkpt>
      <trkpt lat="40.84769833" lon="-4.10540833">
        <ele>1270.0</ele>
        <time>2018-05-26T12:13:52.675Z</time>
      </trkpt>
      <trkpt lat="40.84774667" lon="-4.10535833">
        <ele>1271.0</ele>
        <time>2018-05-26T12:13:53.689Z</time>
      </trkpt>
      <trkpt lat="40.84777" lon="-4.105335">
        <ele>1271.0</ele>
        <time>2018-05-26T12:13:54.688Z</time>
      </trkpt>
      <trkpt lat="40.84777" lon="-4.105335">
        <ele>1271.0</ele>
        <time>2018-05-26T12:13:55.693Z</time>
      </trkpt>
      <trkpt lat="40.84781833" lon="-4.10529167">
        <ele>1271.0</ele>
        <time>2018-05-26T12:13:56.699Z</time>
      </trkpt>
      <trkpt lat="40.84784" lon="-4.10527">
        <ele>1272.0</ele>
        <time>2018-05-26T12:13:57.711Z</time>
      </trkpt>
      <trkpt lat="40.84784" lon="-4.10527">
        <ele>1272.0</ele>
        <time>2018-05-26T12:13:58.702Z</time>
      </trkpt>
      <trkpt lat="40.84788" lon="-4.105225">
        <ele>1272.0</ele>
        <time>2018-05-26T12:13:59.687Z</time>
      </trkpt>
      <trkpt lat="40.84788" lon="-4.105225">
        <ele>1272.0</ele>
        <time>2018-05-26T12:14:00.693Z</time>
      </trkpt>
      <trkpt lat="40.84791833" lon="-4.10518">
        <ele>1273.0</ele>
        <time>2018-05-26T12:14:01.700Z</time>
      </trkpt>
      <trkpt lat="40.84791833" lon="-4.10518">
        <ele>1273.0</ele>
        <time>2018-05-26T12:14:02.676Z</time>
      </trkpt>
      <trkpt lat="40.847965" lon="-4.105135">
        <ele>1273.0</ele>
        <time>2018-05-26T12:14:03.715Z</time>
      </trkpt>
      <trkpt lat="40.84799167" lon="-4.10511667">
        <ele>1273.0</ele>
        <time>2018-05-26T12:14:04.687Z</time>
      </trkpt>
      <trkpt lat="40.84799167" lon="-4.10511667">
        <ele>1273.0</ele>
        <time>2018-05-26T12:14:05.693Z</time>
      </trkpt>
      <trkpt lat="40.84805333" lon="-4.10508167">
        <ele>1273.0</ele>
        <time>2018-05-26T12:14:06.678Z</time>
      </trkpt>
      <trkpt lat="40.84805333" lon="-4.10508167">
        <ele>1273.0</ele>
        <time>2018-05-26T12:14:07.684Z</time>
      </trkpt>
      <trkpt lat="40.84811667" lon="-4.10504333">
        <ele>1273.0</ele>
        <time>2018-05-26T12:14:08.691Z</time>
      </trkpt>
      <trkpt lat="40.84815" lon="-4.10502167">
        <ele>1273.0</ele>
        <time>2018-05-26T12:14:09.712Z</time>
      </trkpt>
      <trkpt lat="40.84815" lon="-4.10502167">
        <ele>1273.0</ele>
        <time>2018-05-26T12:14:10.678Z</time>
      </trkpt>
      <trkpt lat="40.84821333" lon="-4.10496667">
        <ele>1273.0</ele>
        <time>2018-05-26T12:14:11.689Z</time>
      </trkpt>
      <trkpt lat="40.84824167" lon="-4.10493667">
        <ele>1273.0</ele>
        <time>2018-05-26T12:14:12.689Z</time>
      </trkpt>
      <trkpt lat="40.84824167" lon="-4.10493667">
        <ele>1273.0</ele>
        <time>2018-05-26T12:14:13.701Z</time>
      </trkpt>
      <trkpt lat="40.84829667" lon="-4.10487">
        <ele>1273.0</ele>
        <time>2018-05-26T12:14:14.686Z</time>
      </trkpt>
      <trkpt lat="40.84829667" lon="-4.10487">
        <ele>1273.0</ele>
        <time>2018-05-26T12:14:15.692Z</time>
      </trkpt>
      <trkpt lat="40.84835667" lon="-4.10480167">
        <ele>1273.0</ele>
        <time>2018-05-26T12:14:16.683Z</time>
      </trkpt>
      <trkpt lat="40.84835667" lon="-4.10480167">
        <ele>1273.0</ele>
        <time>2018-05-26T12:14:17.690Z</time>
      </trkpt>
      <trkpt lat="40.84841333" lon="-4.10472833">
        <ele>1273.0</ele>
        <time>2018-05-26T12:14:18.697Z</time>
      </trkpt>
      <trkpt lat="40.84841333" lon="-4.10472833">
        <ele>1273.0</ele>
        <time>2018-05-26T12:14:19.711Z</time>
      </trkpt>
      <trkpt lat="40.848465" lon="-4.10465">
        <ele>1273.0</ele>
        <time>2018-05-26T12:14:20.686Z</time>
      </trkpt>
      <trkpt lat="40.848465" lon="-4.10465">
        <ele>1273.0</ele>
        <time>2018-05-26T12:14:21.692Z</time>
      </trkpt>
      <trkpt lat="40.84851333" lon="-4.10456667">
        <ele>1273.0</ele>
        <time>2018-05-26T12:14:22.699Z</time>
      </trkpt>
      <trkpt lat="40.84851333" lon="-4.10456667">
        <ele>1273.0</ele>
        <time>2018-05-26T12:14:23.705Z</time>
      </trkpt>
      <trkpt lat="40.848555" lon="-4.10449">
        <ele>1274.0</ele>
        <time>2018-05-26T12:14:24.704Z</time>
      </trkpt>
      <trkpt lat="40.848555" lon="-4.10449">
        <ele>1274.0</ele>
        <time>2018-05-26T12:14:25.711Z</time>
      </trkpt>
      <trkpt lat="40.84859333" lon="-4.10442833">
        <ele>1274.0</ele>
        <time>2018-05-26T12:14:26.678Z</time>
      </trkpt>
      <trkpt lat="40.84861333" lon="-4.10439833">
        <ele>1274.0</ele>
        <time>2018-05-26T12:14:27.679Z</time>
      </trkpt>
      <trkpt lat="40.84861333" lon="-4.10439833">
        <ele>1274.0</ele>
        <time>2018-05-26T12:14:28.686Z</time>
      </trkpt>
      <trkpt lat="40.84866167" lon="-4.10434167">
        <ele>1274.0</ele>
        <time>2018-05-26T12:14:29.699Z</time>
      </trkpt>
      <trkpt lat="40.84866167" lon="-4.10434167">
        <ele>1274.0</ele>
        <time>2018-05-26T12:14:30.708Z</time>
      </trkpt>
      <trkpt lat="40.84871" lon="-4.10429167">
        <ele>1275.0</ele>
        <time>2018-05-26T12:14:31.689Z</time>
      </trkpt>
      <trkpt lat="40.84871" lon="-4.10429167">
        <ele>1275.0</ele>
        <time>2018-05-26T12:14:32.709Z</time>
      </trkpt>
      <trkpt lat="40.84875833" lon="-4.104235">
        <ele>1275.0</ele>
        <time>2018-05-26T12:14:33.688Z</time>
      </trkpt>
      <trkpt lat="40.84875833" lon="-4.104235">
        <ele>1275.0</ele>
        <time>2018-05-26T12:14:34.694Z</time>
      </trkpt>
      <trkpt lat="40.84880833" lon="-4.10416667">
        <ele>1275.0</ele>
        <time>2018-05-26T12:14:35.688Z</time>
      </trkpt>
      <trkpt lat="40.84880833" lon="-4.10416667">
        <ele>1275.0</ele>
        <time>2018-05-26T12:14:36.694Z</time>
      </trkpt>
      <trkpt lat="40.848855" lon="-4.1041">
        <ele>1275.0</ele>
        <time>2018-05-26T12:14:37.702Z</time>
      </trkpt>
      <trkpt lat="40.84887833" lon="-4.10406833">
        <ele>1275.0</ele>
        <time>2018-05-26T12:14:38.708Z</time>
      </trkpt>
      <trkpt lat="40.8489" lon="-4.10403667">
        <ele>1275.0</ele>
        <time>2018-05-26T12:14:39.676Z</time>
      </trkpt>
      <trkpt lat="40.8489" lon="-4.10403667">
        <ele>1275.0</ele>
        <time>2018-05-26T12:14:40.683Z</time>
      </trkpt>
      <trkpt lat="40.84895333" lon="-4.10396833">
        <ele>1275.0</ele>
        <time>2018-05-26T12:14:41.689Z</time>
      </trkpt>
      <trkpt lat="40.84898167" lon="-4.10393333">
        <ele>1275.0</ele>
        <time>2018-05-26T12:14:42.691Z</time>
      </trkpt>
      <trkpt lat="40.84898167" lon="-4.10393333">
        <ele>1275.0</ele>
        <time>2018-05-26T12:14:43.697Z</time>
      </trkpt>
      <trkpt lat="40.84903333" lon="-4.10386333">
        <ele>1275.0</ele>
        <time>2018-05-26T12:14:44.712Z</time>
      </trkpt>
      <trkpt lat="40.849055" lon="-4.10383">
        <ele>1275.0</ele>
        <time>2018-05-26T12:14:45.684Z</time>
      </trkpt>
      <trkpt lat="40.849055" lon="-4.10383">
        <ele>1275.0</ele>
        <time>2018-05-26T12:14:46.690Z</time>
      </trkpt>
      <trkpt lat="40.84909833" lon="-4.10377167">
        <ele>1276.0</ele>
        <time>2018-05-26T12:14:47.697Z</time>
      </trkpt>
      <trkpt lat="40.84911833" lon="-4.103745">
        <ele>1276.0</ele>
        <time>2018-05-26T12:14:48.675Z</time>
      </trkpt>
      <trkpt lat="40.84911833" lon="-4.103745">
        <ele>1276.0</ele>
        <time>2018-05-26T12:14:49.686Z</time>
      </trkpt>
      <trkpt lat="40.84915333" lon="-4.10368667">
        <ele>1276.0</ele>
        <time>2018-05-26T12:14:50.705Z</time>
      </trkpt>
      <trkpt lat="40.84915333" lon="-4.10368667">
        <ele>1276.0</ele>
        <time>2018-05-26T12:14:51.712Z</time>
      </trkpt>
      <trkpt lat="40.84918667" lon="-4.10362">
        <ele>1277.0</ele>
        <time>2018-05-26T12:14:52.679Z</time>
      </trkpt>
      <trkpt lat="40.84918667" lon="-4.10362">
        <ele>1277.0</ele>
        <time>2018-05-26T12:14:53.684Z</time>
      </trkpt>
      <trkpt lat="40.84922" lon="-4.10355667">
        <ele>1277.0</ele>
        <time>2018-05-26T12:14:54.709Z</time>
      </trkpt>
      <trkpt lat="40.84922" lon="-4.10355667">
        <ele>1277.0</ele>
        <time>2018-05-26T12:14:55.714Z</time>
      </trkpt>
      <trkpt lat="40.849255" lon="-4.10349333">
        <ele>1278.0</ele>
        <time>2018-05-26T12:14:56.681Z</time>
      </trkpt>
      <trkpt lat="40.849275" lon="-4.10346167">
        <ele>1278.0</ele>
        <time>2018-05-26T12:14:57.676Z</time>
      </trkpt>
      <trkpt lat="40.849275" lon="-4.10346167">
        <ele>1278.0</ele>
        <time>2018-05-26T12:14:58.682Z</time>
      </trkpt>
      <trkpt lat="40.84930833" lon="-4.10340833">
        <ele>1278.0</ele>
        <time>2018-05-26T12:14:59.689Z</time>
      </trkpt>
      <trkpt lat="40.84930833" lon="-4.10340833">
        <ele>1278.0</ele>
        <time>2018-05-26T12:15:00.695Z</time>
      </trkpt>
      <trkpt lat="40.84933833" lon="-4.103355">
        <ele>1279.0</ele>
        <time>2018-05-26T12:15:01.698Z</time>
      </trkpt>
      <trkpt lat="40.84933833" lon="-4.103355">
        <ele>1279.0</ele>
        <time>2018-05-26T12:15:02.703Z</time>
      </trkpt>
      <trkpt lat="40.84936833" lon="-4.1033">
        <ele>1279.0</ele>
        <time>2018-05-26T12:15:03.713Z</time>
      </trkpt>
      <trkpt lat="40.84936833" lon="-4.1033">
        <ele>1279.0</ele>
        <time>2018-05-26T12:15:04.679Z</time>
      </trkpt>
      <trkpt lat="40.84939667" lon="-4.10324">
        <ele>1280.0</ele>
        <time>2018-05-26T12:15:05.677Z</time>
      </trkpt>
      <trkpt lat="40.84940833" lon="-4.10321">
        <ele>1280.0</ele>
        <time>2018-05-26T12:15:06.684Z</time>
      </trkpt>
      <trkpt lat="40.84940833" lon="-4.10321">
        <ele>1280.0</ele>
        <time>2018-05-26T12:15:07.689Z</time>
      </trkpt>
      <trkpt lat="40.84943167" lon="-4.10314833">
        <ele>1281.0</ele>
        <time>2018-05-26T12:15:08.697Z</time>
      </trkpt>
      <trkpt lat="40.84944333" lon="-4.10312167">
        <ele>1281.0</ele>
        <time>2018-05-26T12:15:09.708Z</time>
      </trkpt>
      <trkpt lat="40.84944333" lon="-4.10312167">
        <ele>1281.0</ele>
        <time>2018-05-26T12:15:10.713Z</time>
      </trkpt>
      <trkpt lat="40.84947" lon="-4.10306167">
        <ele>1282.0</ele>
        <time>2018-05-26T12:15:11.686Z</time>
      </trkpt>
      <trkpt lat="40.84947" lon="-4.10306167">
        <ele>1282.0</ele>
        <time>2018-05-26T12:15:12.692Z</time>
      </trkpt>
      <trkpt lat="40.849495" lon="-4.10299833">
        <ele>1282.0</ele>
        <time>2018-05-26T12:15:13.687Z</time>
      </trkpt>
      <trkpt lat="40.849495" lon="-4.10299833">
        <ele>1282.0</ele>
        <time>2018-05-26T12:15:14.692Z</time>
      </trkpt>
      <trkpt lat="40.84952167" lon="-4.102935">
        <ele>1282.0</ele>
        <time>2018-05-26T12:15:15.707Z</time>
      </trkpt>
      <trkpt lat="40.84953333" lon="-4.1029">
        <ele>1283.0</ele>
        <time>2018-05-26T12:15:16.715Z</time>
      </trkpt>
      <trkpt lat="40.84953333" lon="-4.1029">
        <ele>1283.0</ele>
        <time>2018-05-26T12:15:17.681Z</time>
      </trkpt>
      <trkpt lat="40.84955833" lon="-4.10282">
        <ele>1283.0</ele>
        <time>2018-05-26T12:15:18.688Z</time>
      </trkpt>
      <trkpt lat="40.84957" lon="-4.10277833">
        <ele>1283.0</ele>
        <time>2018-05-26T12:15:19.708Z</time>
      </trkpt>
      <trkpt lat="40.84957" lon="-4.10277833">
        <ele>1283.0</ele>
        <time>2018-05-26T12:15:20.675Z</time>
      </trkpt>
      <trkpt lat="40.84959667" lon="-4.10268333">
        <ele>1283.0</ele>
        <time>2018-05-26T12:15:21.682Z</time>
      </trkpt>
      <trkpt lat="40.84959667" lon="-4.10268333">
        <ele>1283.0</ele>
        <time>2018-05-26T12:15:22.675Z</time>
      </trkpt>
      <trkpt lat="40.849615" lon="-4.10257">
        <ele>1283.0</ele>
        <time>2018-05-26T12:15:23.710Z</time>
      </trkpt>
      <trkpt lat="40.849615" lon="-4.10257">
        <ele>1283.0</ele>
        <time>2018-05-26T12:15:24.676Z</time>
      </trkpt>
      <trkpt lat="40.849635" lon="-4.10244833">
        <ele>1283.0</ele>
        <time>2018-05-26T12:15:25.706Z</time>
      </trkpt>
      <trkpt lat="40.849635" lon="-4.10244833">
        <ele>1283.0</ele>
        <time>2018-05-26T12:15:26.713Z</time>
      </trkpt>
      <trkpt lat="40.84965167" lon="-4.10232833">
        <ele>1283.0</ele>
        <time>2018-05-26T12:15:27.679Z</time>
      </trkpt>
      <trkpt lat="40.84965167" lon="-4.10232833">
        <ele>1283.0</ele>
        <time>2018-05-26T12:15:28.684Z</time>
      </trkpt>
      <trkpt lat="40.849665" lon="-4.10220667">
        <ele>1283.0</ele>
        <time>2018-05-26T12:15:29.684Z</time>
      </trkpt>
      <trkpt lat="40.84966833" lon="-4.10214667">
        <ele>1283.0</ele>
        <time>2018-05-26T12:15:30.694Z</time>
      </trkpt>
      <trkpt lat="40.84966833" lon="-4.10214667">
        <ele>1283.0</ele>
        <time>2018-05-26T12:15:31.700Z</time>
      </trkpt>
      <trkpt lat="40.84967333" lon="-4.10202667">
        <ele>1283.0</ele>
        <time>2018-05-26T12:15:32.683Z</time>
      </trkpt>
      <trkpt lat="40.849675" lon="-4.10196833">
        <ele>1283.0</ele>
        <time>2018-05-26T12:15:33.706Z</time>
      </trkpt>
      <trkpt lat="40.849675" lon="-4.10191167">
        <ele>1283.0</ele>
        <time>2018-05-26T12:15:34.714Z</time>
      </trkpt>
      <trkpt lat="40.849675" lon="-4.101855">
        <ele>1283.0</ele>
        <time>2018-05-26T12:15:35.700Z</time>
      </trkpt>
      <trkpt lat="40.849675" lon="-4.101855">
        <ele>1283.0</ele>
        <time>2018-05-26T12:15:36.706Z</time>
      </trkpt>
      <trkpt lat="40.849675" lon="-4.10175167">
        <ele>1284.0</ele>
        <time>2018-05-26T12:15:37.688Z</time>
      </trkpt>
      <trkpt lat="40.849675" lon="-4.10175167">
        <ele>1284.0</ele>
        <time>2018-05-26T12:15:38.694Z</time>
      </trkpt>
      <trkpt lat="40.84967333" lon="-4.10166167">
        <ele>1284.0</ele>
        <time>2018-05-26T12:15:39.709Z</time>
      </trkpt>
      <trkpt lat="40.84967333" lon="-4.10166167">
        <ele>1284.0</ele>
        <time>2018-05-26T12:15:40.715Z</time>
      </trkpt>
      <trkpt lat="40.84967667" lon="-4.10157333">
        <ele>1284.0</ele>
        <time>2018-05-26T12:15:41.682Z</time>
      </trkpt>
      <trkpt lat="40.84967667" lon="-4.10157333">
        <ele>1284.0</ele>
        <time>2018-05-26T12:15:42.689Z</time>
      </trkpt>
      <trkpt lat="40.84967333" lon="-4.10148833">
        <ele>1284.0</ele>
        <time>2018-05-26T12:15:43.678Z</time>
      </trkpt>
      <trkpt lat="40.84967333" lon="-4.10148833">
        <ele>1284.0</ele>
        <time>2018-05-26T12:15:44.685Z</time>
      </trkpt>
      <trkpt lat="40.849665" lon="-4.10140333">
        <ele>1284.0</ele>
        <time>2018-05-26T12:15:45.696Z</time>
      </trkpt>
      <trkpt lat="40.849665" lon="-4.10140333">
        <ele>1284.0</ele>
        <time>2018-05-26T12:15:46.703Z</time>
      </trkpt>
      <trkpt lat="40.84965833" lon="-4.10130833">
        <ele>1284.0</ele>
        <time>2018-05-26T12:15:47.698Z</time>
      </trkpt>
      <trkpt lat="40.84965833" lon="-4.10130833">
        <ele>1284.0</ele>
        <time>2018-05-26T12:15:48.705Z</time>
      </trkpt>
      <trkpt lat="40.849655" lon="-4.10120667">
        <ele>1284.0</ele>
        <time>2018-05-26T12:15:49.714Z</time>
      </trkpt>
      <trkpt lat="40.849655" lon="-4.10120667">
        <ele>1284.0</ele>
        <time>2018-05-26T12:15:50.689Z</time>
      </trkpt>
      <trkpt lat="40.849655" lon="-4.10109667">
        <ele>1284.0</ele>
        <time>2018-05-26T12:15:51.680Z</time>
      </trkpt>
      <trkpt lat="40.849655" lon="-4.10109667">
        <ele>1284.0</ele>
        <time>2018-05-26T12:15:52.685Z</time>
      </trkpt>
      <trkpt lat="40.84966333" lon="-4.100975">
        <ele>1283.0</ele>
        <time>2018-05-26T12:15:53.692Z</time>
      </trkpt>
      <trkpt lat="40.849665" lon="-4.10091333">
        <ele>1283.0</ele>
        <time>2018-05-26T12:15:54.684Z</time>
      </trkpt>
      <trkpt lat="40.849665" lon="-4.10091333">
        <ele>1283.0</ele>
        <time>2018-05-26T12:15:55.689Z</time>
      </trkpt>
      <trkpt lat="40.84966167" lon="-4.10079667">
        <ele>1283.0</ele>
        <time>2018-05-26T12:15:56.697Z</time>
      </trkpt>
      <trkpt lat="40.84965167" lon="-4.10074">
        <ele>1283.0</ele>
        <time>2018-05-26T12:15:57.679Z</time>
      </trkpt>
      <trkpt lat="40.84965167" lon="-4.10074">
        <ele>1283.0</ele>
        <time>2018-05-26T12:15:58.685Z</time>
      </trkpt>
      <trkpt lat="40.84961333" lon="-4.100635">
        <ele>1283.0</ele>
        <time>2018-05-26T12:15:59.698Z</time>
      </trkpt>
      <trkpt lat="40.84959167" lon="-4.10058667">
        <ele>1284.0</ele>
        <time>2018-05-26T12:16:00.687Z</time>
      </trkpt>
      <trkpt lat="40.84959167" lon="-4.10058667">
        <ele>1284.0</ele>
        <time>2018-05-26T12:16:01.694Z</time>
      </trkpt>
      <trkpt lat="40.84956333" lon="-4.10048">
        <ele>1284.0</ele>
        <time>2018-05-26T12:16:02.702Z</time>
      </trkpt>
      <trkpt lat="40.84955667" lon="-4.10042">
        <ele>1284.0</ele>
        <time>2018-05-26T12:16:03.678Z</time>
      </trkpt>
      <trkpt lat="40.84955667" lon="-4.10042">
        <ele>1284.0</ele>
        <time>2018-05-26T12:16:04.680Z</time>
      </trkpt>
      <trkpt lat="40.84954333" lon="-4.10030167">
        <ele>1283.0</ele>
        <time>2018-05-26T12:16:05.692Z</time>
      </trkpt>
      <trkpt lat="40.84954333" lon="-4.10030167">
        <ele>1283.0</ele>
        <time>2018-05-26T12:16:06.698Z</time>
      </trkpt>
      <trkpt lat="40.8495" lon="-4.10018833">
        <ele>1283.0</ele>
        <time>2018-05-26T12:16:07.707Z</time>
      </trkpt>
      <trkpt lat="40.8495" lon="-4.10018833">
        <ele>1283.0</ele>
        <time>2018-05-26T12:16:08.680Z</time>
      </trkpt>
      <trkpt lat="40.84945667" lon="-4.10006167">
        <ele>1281.0</ele>
        <time>2018-05-26T12:16:09.714Z</time>
      </trkpt>
      <trkpt lat="40.84945667" lon="-4.10006167">
        <ele>1281.0</ele>
        <time>2018-05-26T12:16:10.681Z</time>
      </trkpt>
      <trkpt lat="40.84942667" lon="-4.09990833">
        <ele>1279.0</ele>
        <time>2018-05-26T12:16:11.688Z</time>
      </trkpt>
      <trkpt lat="40.84941667" lon="-4.09982833">
        <ele>1279.0</ele>
        <time>2018-05-26T12:16:12.706Z</time>
      </trkpt>
      <trkpt lat="40.84941667" lon="-4.09982833">
        <ele>1279.0</ele>
        <time>2018-05-26T12:16:13.714Z</time>
      </trkpt>
      <trkpt lat="40.84941667" lon="-4.099665">
        <ele>1277.0</ele>
        <time>2018-05-26T12:16:14.682Z</time>
      </trkpt>
      <trkpt lat="40.84942" lon="-4.09957833">
        <ele>1277.0</ele>
        <time>2018-05-26T12:16:15.712Z</time>
      </trkpt>
      <trkpt lat="40.84942" lon="-4.09957833">
        <ele>1277.0</ele>
        <time>2018-05-26T12:16:16.678Z</time>
      </trkpt>
      <trkpt lat="40.84944667" lon="-4.09941">
        <ele>1277.0</ele>
        <time>2018-05-26T12:16:17.685Z</time>
      </trkpt>
      <trkpt lat="40.84944667" lon="-4.09941">
        <ele>1277.0</ele>
        <time>2018-05-26T12:16:18.691Z</time>
      </trkpt>
      <trkpt lat="40.84947167" lon="-4.09928">
        <ele>1277.0</ele>
        <time>2018-05-26T12:16:19.700Z</time>
      </trkpt>
      <trkpt lat="40.84947167" lon="-4.09928">
        <ele>1277.0</ele>
        <time>2018-05-26T12:16:20.706Z</time>
      </trkpt>
      <trkpt lat="40.84949667" lon="-4.09917667">
        <ele>1277.0</ele>
        <time>2018-05-26T12:16:21.713Z</time>
      </trkpt>
      <trkpt lat="40.84949667" lon="-4.09917667">
        <ele>1277.0</ele>
        <time>2018-05-26T12:16:22.679Z</time>
      </trkpt>
      <trkpt lat="40.84952667" lon="-4.09908833">
        <ele>1277.0</ele>
        <time>2018-05-26T12:16:23.706Z</time>
      </trkpt>
      <trkpt lat="40.84952667" lon="-4.09908833">
        <ele>1277.0</ele>
        <time>2018-05-26T12:16:24.712Z</time>
      </trkpt>
      <trkpt lat="40.849565" lon="-4.09899833">
        <ele>1276.0</ele>
        <time>2018-05-26T12:16:25.700Z</time>
      </trkpt>
      <trkpt lat="40.849565" lon="-4.09899833">
        <ele>1276.0</ele>
        <time>2018-05-26T12:16:26.707Z</time>
      </trkpt>
      <trkpt lat="40.84959333" lon="-4.09889333">
        <ele>1276.0</ele>
        <time>2018-05-26T12:16:27.682Z</time>
      </trkpt>
      <trkpt lat="40.84959333" lon="-4.09889333">
        <ele>1276.0</ele>
        <time>2018-05-26T12:16:28.688Z</time>
      </trkpt>
      <trkpt lat="40.84962" lon="-4.09879">
        <ele>1276.0</ele>
        <time>2018-05-26T12:16:29.696Z</time>
      </trkpt>
      <trkpt lat="40.84962" lon="-4.09879">
        <ele>1276.0</ele>
        <time>2018-05-26T12:16:30.706Z</time>
      </trkpt>
      <trkpt lat="40.84963833" lon="-4.09868333">
        <ele>1276.0</ele>
        <time>2018-05-26T12:16:31.714Z</time>
      </trkpt>
      <trkpt lat="40.84963833" lon="-4.09868333">
        <ele>1276.0</ele>
        <time>2018-05-26T12:16:32.690Z</time>
      </trkpt>
      <trkpt lat="40.84965667" lon="-4.09856667">
        <ele>1276.0</ele>
        <time>2018-05-26T12:16:33.699Z</time>
      </trkpt>
      <trkpt lat="40.84965667" lon="-4.09856667">
        <ele>1276.0</ele>
        <time>2018-05-26T12:16:34.678Z</time>
      </trkpt>
      <trkpt lat="40.84967167" lon="-4.09843667">
        <ele>1276.0</ele>
        <time>2018-05-26T12:16:35.708Z</time>
      </trkpt>
      <trkpt lat="40.84967167" lon="-4.09843667">
        <ele>1276.0</ele>
        <time>2018-05-26T12:16:36.714Z</time>
      </trkpt>
      <trkpt lat="40.84971333" lon="-4.09829167">
        <ele>1275.0</ele>
        <time>2018-05-26T12:16:37.687Z</time>
      </trkpt>
      <trkpt lat="40.84974333" lon="-4.09821833">
        <ele>1275.0</ele>
        <time>2018-05-26T12:16:38.690Z</time>
      </trkpt>
      <trkpt lat="40.849775" lon="-4.098145">
        <ele>1274.0</ele>
        <time>2018-05-26T12:16:39.698Z</time>
      </trkpt>
      <trkpt lat="40.849775" lon="-4.098145">
        <ele>1274.0</ele>
        <time>2018-05-26T12:16:40.709Z</time>
      </trkpt>
      <trkpt lat="40.849835" lon="-4.09799833">
        <ele>1274.0</ele>
        <time>2018-05-26T12:16:41.698Z</time>
      </trkpt>
      <trkpt lat="40.849835" lon="-4.09799833">
        <ele>1274.0</ele>
        <time>2018-05-26T12:16:42.705Z</time>
      </trkpt>
      <trkpt lat="40.84988167" lon="-4.09784">
        <ele>1274.0</ele>
        <time>2018-05-26T12:16:43.678Z</time>
      </trkpt>
      <trkpt lat="40.84989833" lon="-4.09775333">
        <ele>1273.0</ele>
        <time>2018-05-26T12:16:44.703Z</time>
      </trkpt>
      <trkpt lat="40.84991167" lon="-4.09766167">
        <ele>1273.0</ele>
        <time>2018-05-26T12:16:45.710Z</time>
      </trkpt>
      <trkpt lat="40.84991167" lon="-4.09766167">
        <ele>1273.0</ele>
        <time>2018-05-26T12:16:46.695Z</time>
      </trkpt>
      <trkpt lat="40.84994833" lon="-4.09746833">
        <ele>1272.0</ele>
        <time>2018-05-26T12:16:47.679Z</time>
      </trkpt>
      <trkpt lat="40.849975" lon="-4.09737333">
        <ele>1272.0</ele>
        <time>2018-05-26T12:16:48.686Z</time>
      </trkpt>
      <trkpt lat="40.85000333" lon="-4.09727667">
        <ele>1272.0</ele>
        <time>2018-05-26T12:16:49.694Z</time>
      </trkpt>
      <trkpt lat="40.85000333" lon="-4.09727667">
        <ele>1272.0</ele>
        <time>2018-05-26T12:16:50.701Z</time>
      </trkpt>
      <trkpt lat="40.85006167" lon="-4.09708">
        <ele>1271.0</ele>
        <time>2018-05-26T12:16:51.713Z</time>
      </trkpt>
      <trkpt lat="40.85006167" lon="-4.09708">
        <ele>1271.0</ele>
        <time>2018-05-26T12:16:52.680Z</time>
      </trkpt>
      <trkpt lat="40.85013667" lon="-4.09688833">
        <ele>1270.0</ele>
        <time>2018-05-26T12:16:53.708Z</time>
      </trkpt>
      <trkpt lat="40.85013667" lon="-4.09688833">
        <ele>1270.0</ele>
        <time>2018-05-26T12:16:54.714Z</time>
      </trkpt>
      <trkpt lat="40.850215" lon="-4.09671">
        <ele>1269.0</ele>
        <time>2018-05-26T12:16:55.681Z</time>
      </trkpt>
      <trkpt lat="40.850215" lon="-4.09671">
        <ele>1269.0</ele>
        <time>2018-05-26T12:16:56.687Z</time>
      </trkpt>
      <trkpt lat="40.85022833" lon="-4.09655">
        <ele>1267.0</ele>
        <time>2018-05-26T12:16:57.708Z</time>
      </trkpt>
      <trkpt lat="40.85022833" lon="-4.09655">
        <ele>1267.0</ele>
        <time>2018-05-26T12:16:58.713Z</time>
      </trkpt>
      <trkpt lat="40.85019" lon="-4.096425">
        <ele>1267.0</ele>
        <time>2018-05-26T12:16:59.679Z</time>
      </trkpt>
      <trkpt lat="40.850175" lon="-4.09637167">
        <ele>1267.0</ele>
        <time>2018-05-26T12:17:00.707Z</time>
      </trkpt>
      <trkpt lat="40.850175" lon="-4.09637167">
        <ele>1267.0</ele>
        <time>2018-05-26T12:17:01.714Z</time>
      </trkpt>
      <trkpt lat="40.85017667" lon="-4.09624833">
        <ele>1268.0</ele>
        <time>2018-05-26T12:17:02.680Z</time>
      </trkpt>
      <trkpt lat="40.85020167" lon="-4.09618833">
        <ele>1268.0</ele>
        <time>2018-05-26T12:17:03.708Z</time>
      </trkpt>
      <trkpt lat="40.85020167" lon="-4.09618833">
        <ele>1268.0</ele>
        <time>2018-05-26T12:17:04.696Z</time>
      </trkpt>
      <trkpt lat="40.85024667" lon="-4.09611333">
        <ele>1267.0</ele>
        <time>2018-05-26T12:17:05.703Z</time>
      </trkpt>
      <trkpt lat="40.85024667" lon="-4.09611333">
        <ele>1267.0</ele>
        <time>2018-05-26T12:17:06.709Z</time>
      </trkpt>
      <trkpt lat="40.85027833" lon="-4.09604333">
        <ele>1268.0</ele>
        <time>2018-05-26T12:17:07.676Z</time>
      </trkpt>
      <trkpt lat="40.850305" lon="-4.096015">
        <ele>1268.0</ele>
        <time>2018-05-26T12:17:08.706Z</time>
      </trkpt>
      <trkpt lat="40.85033833" lon="-4.09599167">
        <ele>1268.0</ele>
        <time>2018-05-26T12:17:09.714Z</time>
      </trkpt>
      <trkpt lat="40.85033833" lon="-4.09599167">
        <ele>1268.0</ele>
        <time>2018-05-26T12:17:10.680Z</time>
      </trkpt>
      <trkpt lat="40.85040833" lon="-4.09594167">
        <ele>1268.0</ele>
        <time>2018-05-26T12:17:11.707Z</time>
      </trkpt>
      <trkpt lat="40.85040833" lon="-4.09594167">
        <ele>1268.0</ele>
        <time>2018-05-26T12:17:12.713Z</time>
      </trkpt>
      <trkpt lat="40.85048333" lon="-4.09587167">
        <ele>1268.0</ele>
        <time>2018-05-26T12:17:13.690Z</time>
      </trkpt>
      <trkpt lat="40.85048333" lon="-4.09587167">
        <ele>1268.0</ele>
        <time>2018-05-26T12:17:14.697Z</time>
      </trkpt>
      <trkpt lat="40.85056333" lon="-4.09579167">
        <ele>1267.0</ele>
        <time>2018-05-26T12:17:15.707Z</time>
      </trkpt>
      <trkpt lat="40.85056333" lon="-4.09579167">
        <ele>1267.0</ele>
        <time>2018-05-26T12:17:16.712Z</time>
      </trkpt>
      <trkpt lat="40.850645" lon="-4.09569167">
        <ele>1267.0</ele>
        <time>2018-05-26T12:17:17.680Z</time>
      </trkpt>
      <trkpt lat="40.850645" lon="-4.09569167">
        <ele>1267.0</ele>
        <time>2018-05-26T12:17:18.686Z</time>
      </trkpt>
      <trkpt lat="40.85073667" lon="-4.09559167">
        <ele>1266.0</ele>
        <time>2018-05-26T12:17:19.678Z</time>
      </trkpt>
      <trkpt lat="40.85073667" lon="-4.09559167">
        <ele>1266.0</ele>
        <time>2018-05-26T12:17:20.683Z</time>
      </trkpt>
      <trkpt lat="40.85084" lon="-4.09549667">
        <ele>1266.0</ele>
        <time>2018-05-26T12:17:21.690Z</time>
      </trkpt>
      <trkpt lat="40.85084" lon="-4.09549667">
        <ele>1266.0</ele>
        <time>2018-05-26T12:17:22.678Z</time>
      </trkpt>
      <trkpt lat="40.85094" lon="-4.09540333">
        <ele>1266.0</ele>
        <time>2018-05-26T12:17:23.687Z</time>
      </trkpt>
      <trkpt lat="40.85094" lon="-4.09540333">
        <ele>1266.0</ele>
        <time>2018-05-26T12:17:24.694Z</time>
      </trkpt>
      <trkpt lat="40.85103333" lon="-4.09531">
        <ele>1265.0</ele>
        <time>2018-05-26T12:17:25.701Z</time>
      </trkpt>
      <trkpt lat="40.85103333" lon="-4.09531">
        <ele>1265.0</ele>
        <time>2018-05-26T12:17:26.709Z</time>
      </trkpt>
      <trkpt lat="40.85112667" lon="-4.095215">
        <ele>1265.0</ele>
        <time>2018-05-26T12:17:27.677Z</time>
      </trkpt>
      <trkpt lat="40.85112667" lon="-4.095215">
        <ele>1265.0</ele>
        <time>2018-05-26T12:17:28.684Z</time>
      </trkpt>
      <trkpt lat="40.851225" lon="-4.09510667">
        <ele>1263.0</ele>
        <time>2018-05-26T12:17:29.691Z</time>
      </trkpt>
      <trkpt lat="40.85127333" lon="-4.095045">
        <ele>1263.0</ele>
        <time>2018-05-26T12:17:30.712Z</time>
      </trkpt>
      <trkpt lat="40.85127333" lon="-4.095045">
        <ele>1263.0</ele>
        <time>2018-05-26T12:17:31.678Z</time>
      </trkpt>
      <trkpt lat="40.85137" lon="-4.09489667">
        <ele>1262.0</ele>
        <time>2018-05-26T12:17:32.706Z</time>
      </trkpt>
      <trkpt lat="40.85141833" lon="-4.09481167">
        <ele>1261.0</ele>
        <time>2018-05-26T12:17:33.693Z</time>
      </trkpt>
      <trkpt lat="40.85141833" lon="-4.09481167">
        <ele>1261.0</ele>
        <time>2018-05-26T12:17:34.700Z</time>
      </trkpt>
      <trkpt lat="40.85152167" lon="-4.09462833">
        <ele>1259.0</ele>
        <time>2018-05-26T12:17:35.689Z</time>
      </trkpt>
      <trkpt lat="40.85157667" lon="-4.09452833">
        <ele>1258.0</ele>
        <time>2018-05-26T12:17:36.703Z</time>
      </trkpt>
      <trkpt lat="40.85157667" lon="-4.09452833">
        <ele>1258.0</ele>
        <time>2018-05-26T12:17:37.710Z</time>
      </trkpt>
      <trkpt lat="40.85168667" lon="-4.094315">
        <ele>1256.0</ele>
        <time>2018-05-26T12:17:38.682Z</time>
      </trkpt>
      <trkpt lat="40.85174833" lon="-4.09420667">
        <ele>1254.0</ele>
        <time>2018-05-26T12:17:39.703Z</time>
      </trkpt>
      <trkpt lat="40.85174833" lon="-4.09420667">
        <ele>1254.0</ele>
        <time>2018-05-26T12:17:40.710Z</time>
      </trkpt>
      <trkpt lat="40.851875" lon="-4.09398333">
        <ele>1252.0</ele>
        <time>2018-05-26T12:17:41.678Z</time>
      </trkpt>
      <trkpt lat="40.85194" lon="-4.09386833">
        <ele>1250.0</ele>
        <time>2018-05-26T12:17:42.710Z</time>
      </trkpt>
      <trkpt lat="40.85194" lon="-4.09386833">
        <ele>1250.0</ele>
        <time>2018-05-26T12:17:43.675Z</time>
      </trkpt>
      <trkpt lat="40.852065" lon="-4.093635">
        <ele>1248.0</ele>
        <time>2018-05-26T12:17:44.690Z</time>
      </trkpt>
      <trkpt lat="40.85212167" lon="-4.09351167">
        <ele>1247.0</ele>
        <time>2018-05-26T12:17:45.708Z</time>
      </trkpt>
      <trkpt lat="40.85212167" lon="-4.09351167">
        <ele>1247.0</ele>
        <time>2018-05-26T12:17:46.713Z</time>
      </trkpt>
      <trkpt lat="40.852235" lon="-4.09325833">
        <ele>1245.0</ele>
        <time>2018-05-26T12:17:47.680Z</time>
      </trkpt>
      <trkpt lat="40.85228833" lon="-4.09314667">
        <ele>1244.0</ele>
        <time>2018-05-26T12:17:48.688Z</time>
      </trkpt>
      <trkpt lat="40.85228833" lon="-4.09314667">
        <ele>1244.0</ele>
        <time>2018-05-26T12:17:49.682Z</time>
      </trkpt>
      <trkpt lat="40.85236" lon="-4.09299833">
        <ele>1244.0</ele>
        <time>2018-05-26T12:17:50.712Z</time>
      </trkpt>
      <trkpt lat="40.85238833" lon="-4.09294667">
        <ele>1243.0</ele>
        <time>2018-05-26T12:17:51.682Z</time>
      </trkpt>
      <trkpt lat="40.85238833" lon="-4.09294667">
        <ele>1243.0</ele>
        <time>2018-05-26T12:17:52.689Z</time>
      </trkpt>
      <trkpt lat="40.85243833" lon="-4.09285333">
        <ele>1243.0</ele>
        <time>2018-05-26T12:17:53.690Z</time>
      </trkpt>
      <trkpt lat="40.85243833" lon="-4.09285333">
        <ele>1243.0</ele>
        <time>2018-05-26T12:17:54.697Z</time>
      </trkpt>
      <trkpt lat="40.85248833" lon="-4.092795">
        <ele>1242.0</ele>
        <time>2018-05-26T12:17:55.713Z</time>
      </trkpt>
      <trkpt lat="40.85251" lon="-4.09277167">
        <ele>1242.0</ele>
        <time>2018-05-26T12:17:56.713Z</time>
      </trkpt>
      <trkpt lat="40.85253167" lon="-4.09274333">
        <ele>1242.0</ele>
        <time>2018-05-26T12:17:57.679Z</time>
      </trkpt>
      <trkpt lat="40.85253167" lon="-4.09274333">
        <ele>1242.0</ele>
        <time>2018-05-26T12:17:58.685Z</time>
      </trkpt>
      <trkpt lat="40.85257" lon="-4.09265167">
        <ele>1241.0</ele>
        <time>2018-05-26T12:17:59.708Z</time>
      </trkpt>
      <trkpt lat="40.85257" lon="-4.09265167">
        <ele>1241.0</ele>
        <time>2018-05-26T12:18:00.678Z</time>
      </trkpt>
      <trkpt lat="40.85261167" lon="-4.092545">
        <ele>1241.0</ele>
        <time>2018-05-26T12:18:01.690Z</time>
      </trkpt>
      <trkpt lat="40.85264167" lon="-4.092495">
        <ele>1241.0</ele>
        <time>2018-05-26T12:18:02.675Z</time>
      </trkpt>
      <trkpt lat="40.85267167" lon="-4.09245167">
        <ele>1240.0</ele>
        <time>2018-05-26T12:18:03.700Z</time>
      </trkpt>
      <trkpt lat="40.85267167" lon="-4.09245167">
        <ele>1240.0</ele>
        <time>2018-05-26T12:18:04.706Z</time>
      </trkpt>
      <trkpt lat="40.85272833" lon="-4.09235167">
        <ele>1239.0</ele>
        <time>2018-05-26T12:18:05.713Z</time>
      </trkpt>
      <trkpt lat="40.85272833" lon="-4.09235167">
        <ele>1239.0</ele>
        <time>2018-05-26T12:18:06.679Z</time>
      </trkpt>
      <trkpt lat="40.852785" lon="-4.09223667">
        <ele>1239.0</ele>
        <time>2018-05-26T12:18:07.712Z</time>
      </trkpt>
      <trkpt lat="40.852785" lon="-4.09223667">
        <ele>1239.0</ele>
        <time>2018-05-26T12:18:08.678Z</time>
      </trkpt>
      <trkpt lat="40.85284667" lon="-4.09210833">
        <ele>1238.0</ele>
        <time>2018-05-26T12:18:09.685Z</time>
      </trkpt>
      <trkpt lat="40.85284667" lon="-4.09210833">
        <ele>1238.0</ele>
        <time>2018-05-26T12:18:10.690Z</time>
      </trkpt>
      <trkpt lat="40.85292" lon="-4.09198">
        <ele>1237.0</ele>
        <time>2018-05-26T12:18:11.684Z</time>
      </trkpt>
      <trkpt lat="40.85292" lon="-4.09198">
        <ele>1237.0</ele>
        <time>2018-05-26T12:18:12.691Z</time>
      </trkpt>
      <trkpt lat="40.852995" lon="-4.09185167">
        <ele>1237.0</ele>
        <time>2018-05-26T12:18:13.698Z</time>
      </trkpt>
      <trkpt lat="40.85303167" lon="-4.09178833">
        <ele>1237.0</ele>
        <time>2018-05-26T12:18:14.688Z</time>
      </trkpt>
      <trkpt lat="40.85306833" lon="-4.09172667">
        <ele>1236.0</ele>
        <time>2018-05-26T12:18:15.695Z</time>
      </trkpt>
      <trkpt lat="40.85306833" lon="-4.09172667">
        <ele>1236.0</ele>
        <time>2018-05-26T12:18:16.701Z</time>
      </trkpt>
      <trkpt lat="40.853145" lon="-4.09160333">
        <ele>1236.0</ele>
        <time>2018-05-26T12:18:17.710Z</time>
      </trkpt>
      <trkpt lat="40.853145" lon="-4.09160333">
        <ele>1236.0</ele>
        <time>2018-05-26T12:18:18.703Z</time>
      </trkpt>
      <trkpt lat="40.85322833" lon="-4.091475">
        <ele>1235.0</ele>
        <time>2018-05-26T12:18:19.677Z</time>
      </trkpt>
      <trkpt lat="40.85322833" lon="-4.091475">
        <ele>1235.0</ele>
        <time>2018-05-26T12:18:20.682Z</time>
      </trkpt>
      <trkpt lat="40.85331333" lon="-4.09134667">
        <ele>1235.0</ele>
        <time>2018-05-26T12:18:21.689Z</time>
      </trkpt>
      <trkpt lat="40.85331333" lon="-4.09134667">
        <ele>1235.0</ele>
        <time>2018-05-26T12:18:22.695Z</time>
      </trkpt>
      <trkpt lat="40.85341667" lon="-4.09123833">
        <ele>1234.0</ele>
        <time>2018-05-26T12:18:23.687Z</time>
      </trkpt>
      <trkpt lat="40.85341667" lon="-4.09123833">
        <ele>1234.0</ele>
        <time>2018-05-26T12:18:24.693Z</time>
      </trkpt>
      <trkpt lat="40.85352667" lon="-4.091135">
        <ele>1234.0</ele>
        <time>2018-05-26T12:18:25.700Z</time>
      </trkpt>
      <trkpt lat="40.85352667" lon="-4.091135">
        <ele>1234.0</ele>
        <time>2018-05-26T12:18:26.712Z</time>
      </trkpt>
      <trkpt lat="40.85364167" lon="-4.09103167">
        <ele>1233.0</ele>
        <time>2018-05-26T12:18:27.681Z</time>
      </trkpt>
      <trkpt lat="40.85364167" lon="-4.09103167">
        <ele>1233.0</ele>
        <time>2018-05-26T12:18:28.687Z</time>
      </trkpt>
      <trkpt lat="40.85376" lon="-4.09093667">
        <ele>1233.0</ele>
        <time>2018-05-26T12:18:29.694Z</time>
      </trkpt>
      <trkpt lat="40.85376" lon="-4.09093667">
        <ele>1233.0</ele>
        <time>2018-05-26T12:18:30.701Z</time>
      </trkpt>
      <trkpt lat="40.853885" lon="-4.09084833">
        <ele>1232.0</ele>
        <time>2018-05-26T12:18:31.696Z</time>
      </trkpt>
      <trkpt lat="40.853885" lon="-4.09084833">
        <ele>1232.0</ele>
        <time>2018-05-26T12:18:32.709Z</time>
      </trkpt>
      <trkpt lat="40.85401667" lon="-4.09076">
        <ele>1230.0</ele>
        <time>2018-05-26T12:18:33.690Z</time>
      </trkpt>
      <trkpt lat="40.85401667" lon="-4.09076">
        <ele>1230.0</ele>
        <time>2018-05-26T12:18:34.696Z</time>
      </trkpt>
      <trkpt lat="40.85413833" lon="-4.09067167">
        <ele>1230.0</ele>
        <time>2018-05-26T12:18:35.697Z</time>
      </trkpt>
      <trkpt lat="40.85413833" lon="-4.09067167">
        <ele>1230.0</ele>
        <time>2018-05-26T12:18:36.704Z</time>
      </trkpt>
      <trkpt lat="40.85425333" lon="-4.09058833">
        <ele>1229.0</ele>
        <time>2018-05-26T12:18:37.715Z</time>
      </trkpt>
      <trkpt lat="40.85425333" lon="-4.09058833">
        <ele>1229.0</ele>
        <time>2018-05-26T12:18:38.681Z</time>
      </trkpt>
      <trkpt lat="40.85437" lon="-4.09049333">
        <ele>1228.0</ele>
        <time>2018-05-26T12:18:39.688Z</time>
      </trkpt>
      <trkpt lat="40.85437" lon="-4.09049333">
        <ele>1228.0</ele>
        <time>2018-05-26T12:18:40.693Z</time>
      </trkpt>
      <trkpt lat="40.85448333" lon="-4.09039333">
        <ele>1226.0</ele>
        <time>2018-05-26T12:18:41.701Z</time>
      </trkpt>
      <trkpt lat="40.85448333" lon="-4.09039333">
        <ele>1226.0</ele>
        <time>2018-05-26T12:18:42.709Z</time>
      </trkpt>
      <trkpt lat="40.854615" lon="-4.09030167">
        <ele>1225.0</ele>
        <time>2018-05-26T12:18:43.711Z</time>
      </trkpt>
      <trkpt lat="40.854615" lon="-4.09030167">
        <ele>1225.0</ele>
        <time>2018-05-26T12:18:44.676Z</time>
      </trkpt>
      <trkpt lat="40.854765" lon="-4.090225">
        <ele>1222.0</ele>
        <time>2018-05-26T12:18:45.683Z</time>
      </trkpt>
      <trkpt lat="40.85483833" lon="-4.090195">
        <ele>1222.0</ele>
        <time>2018-05-26T12:18:46.712Z</time>
      </trkpt>
      <trkpt lat="40.85483833" lon="-4.090195">
        <ele>1222.0</ele>
        <time>2018-05-26T12:18:47.682Z</time>
      </trkpt>
      <trkpt lat="40.85497167" lon="-4.09013">
        <ele>1219.0</ele>
        <time>2018-05-26T12:18:48.709Z</time>
      </trkpt>
      <trkpt lat="40.85497167" lon="-4.09013">
        <ele>1219.0</ele>
        <time>2018-05-26T12:18:49.675Z</time>
      </trkpt>
      <trkpt lat="40.85507167" lon="-4.09005333">
        <ele>1217.0</ele>
        <time>2018-05-26T12:18:50.708Z</time>
      </trkpt>
      <trkpt lat="40.85511167" lon="-4.090015">
        <ele>1216.0</ele>
        <time>2018-05-26T12:18:51.676Z</time>
      </trkpt>
      <trkpt lat="40.85511167" lon="-4.090015">
        <ele>1216.0</ele>
        <time>2018-05-26T12:18:52.681Z</time>
      </trkpt>
      <trkpt lat="40.85517333" lon="-4.08992">
        <ele>1214.0</ele>
        <time>2018-05-26T12:18:53.677Z</time>
      </trkpt>
      <trkpt lat="40.85520667" lon="-4.08986833">
        <ele>1213.0</ele>
        <time>2018-05-26T12:18:54.714Z</time>
      </trkpt>
      <trkpt lat="40.85520667" lon="-4.08986833">
        <ele>1213.0</ele>
        <time>2018-05-26T12:18:55.681Z</time>
      </trkpt>
      <trkpt lat="40.85527" lon="-4.08978">
        <ele>1211.0</ele>
        <time>2018-05-26T12:18:56.689Z</time>
      </trkpt>
      <trkpt lat="40.85530667" lon="-4.08973667">
        <ele>1210.0</ele>
        <time>2018-05-26T12:18:57.696Z</time>
      </trkpt>
      <trkpt lat="40.85530667" lon="-4.08973667">
        <ele>1210.0</ele>
        <time>2018-05-26T12:18:58.703Z</time>
      </trkpt>
      <trkpt lat="40.85536167" lon="-4.08964333">
        <ele>1208.0</ele>
        <time>2018-05-26T12:18:59.684Z</time>
      </trkpt>
      <trkpt lat="40.85536167" lon="-4.08964333">
        <ele>1208.0</ele>
        <time>2018-05-26T12:19:00.691Z</time>
      </trkpt>
      <trkpt lat="40.85539" lon="-4.08954167">
        <ele>1206.0</ele>
        <time>2018-05-26T12:19:01.698Z</time>
      </trkpt>
      <trkpt lat="40.85540333" lon="-4.089475">
        <ele>1204.0</ele>
        <time>2018-05-26T12:19:02.687Z</time>
      </trkpt>
      <trkpt lat="40.85542" lon="-4.08940333">
        <ele>1203.0</ele>
        <time>2018-05-26T12:19:03.694Z</time>
      </trkpt>
      <trkpt lat="40.85542" lon="-4.08940333">
        <ele>1203.0</ele>
        <time>2018-05-26T12:19:04.701Z</time>
      </trkpt>
      <trkpt lat="40.85545167" lon="-4.08923167">
        <ele>1200.0</ele>
        <time>2018-05-26T12:19:05.697Z</time>
      </trkpt>
      <trkpt lat="40.85546333" lon="-4.08912833">
        <ele>1199.0</ele>
        <time>2018-05-26T12:19:06.705Z</time>
      </trkpt>
      <trkpt lat="40.85546333" lon="-4.08912833">
        <ele>1199.0</ele>
        <time>2018-05-26T12:19:07.712Z</time>
      </trkpt>
      <trkpt lat="40.8555" lon="-4.08893833">
        <ele>1196.0</ele>
        <time>2018-05-26T12:19:08.687Z</time>
      </trkpt>
      <trkpt lat="40.855525" lon="-4.08883833">
        <ele>1196.0</ele>
        <time>2018-05-26T12:19:09.696Z</time>
      </trkpt>
      <trkpt lat="40.855525" lon="-4.08883833">
        <ele>1196.0</ele>
        <time>2018-05-26T12:19:10.702Z</time>
      </trkpt>
      <trkpt lat="40.85561833" lon="-4.08866167">
        <ele>1194.0</ele>
        <time>2018-05-26T12:19:11.710Z</time>
      </trkpt>
      <trkpt lat="40.85561833" lon="-4.08866167">
        <ele>1194.0</ele>
        <time>2018-05-26T12:19:12.676Z</time>
      </trkpt>
      <trkpt lat="40.85571" lon="-4.08857167">
        <ele>1193.0</ele>
        <time>2018-05-26T12:19:13.688Z</time>
      </trkpt>
      <trkpt lat="40.85571" lon="-4.08857167">
        <ele>1193.0</ele>
        <time>2018-05-26T12:19:14.694Z</time>
      </trkpt>
      <trkpt lat="40.855775" lon="-4.08852167">
        <ele>1193.0</ele>
        <time>2018-05-26T12:19:15.702Z</time>
      </trkpt>
      <trkpt lat="40.855775" lon="-4.08852167">
        <ele>1193.0</ele>
        <time>2018-05-26T12:19:16.709Z</time>
      </trkpt>
      <trkpt lat="40.85581833" lon="-4.08847833">
        <ele>1192.0</ele>
        <time>2018-05-26T12:19:17.687Z</time>
      </trkpt>
      <trkpt lat="40.85581833" lon="-4.08847833">
        <ele>1192.0</ele>
        <time>2018-05-26T12:19:18.694Z</time>
      </trkpt>
      <trkpt lat="40.85584667" lon="-4.08843333">
        <ele>1194.0</ele>
        <time>2018-05-26T12:19:19.709Z</time>
      </trkpt>
      <trkpt lat="40.85586167" lon="-4.08841167">
        <ele>1194.0</ele>
        <time>2018-05-26T12:19:20.694Z</time>
      </trkpt>
      <trkpt lat="40.85586167" lon="-4.08841167">
        <ele>1194.0</ele>
        <time>2018-05-26T12:19:21.701Z</time>
      </trkpt>
      <trkpt lat="40.85588833" lon="-4.08837333">
        <ele>1195.0</ele>
        <time>2018-05-26T12:19:22.712Z</time>
      </trkpt>
      <trkpt lat="40.85588833" lon="-4.08837333">
        <ele>1195.0</ele>
        <time>2018-05-26T12:19:23.679Z</time>
      </trkpt>
      <trkpt lat="40.85592333" lon="-4.088355">
        <ele>1195.0</ele>
        <time>2018-05-26T12:19:24.677Z</time>
      </trkpt>
      <trkpt lat="40.85592333" lon="-4.088355">
        <ele>1195.0</ele>
        <time>2018-05-26T12:19:25.683Z</time>
      </trkpt>
      <trkpt lat="40.85594833" lon="-4.08833333">
        <ele>1196.0</ele>
        <time>2018-05-26T12:19:26.690Z</time>
      </trkpt>
      <trkpt lat="40.85596167" lon="-4.08833">
        <ele>1196.0</ele>
        <time>2018-05-26T12:19:27.691Z</time>
      </trkpt>
      <trkpt lat="40.85596167" lon="-4.08833">
        <ele>1196.0</ele>
        <time>2018-05-26T12:19:28.698Z</time>
      </trkpt>
      <trkpt lat="40.85597833" lon="-4.0883">
        <ele>1197.0</ele>
        <time>2018-05-26T12:19:29.710Z</time>
      </trkpt>
      <trkpt lat="40.85597833" lon="-4.0883">
        <ele>1197.0</ele>
        <time>2018-05-26T12:19:30.676Z</time>
      </trkpt>
      <trkpt lat="40.85598333" lon="-4.088265">
        <ele>1198.0</ele>
        <time>2018-05-26T12:19:31.699Z</time>
      </trkpt>
      <trkpt lat="40.85598333" lon="-4.088265">
        <ele>1198.0</ele>
        <time>2018-05-26T12:19:32.675Z</time>
      </trkpt>
      <trkpt lat="40.85598333" lon="-4.088255">
        <ele>1199.0</ele>
        <time>2018-05-26T12:19:33.694Z</time>
      </trkpt>
      <trkpt lat="40.85599333" lon="-4.08826167">
        <ele>1199.0</ele>
        <time>2018-05-26T12:19:34.701Z</time>
      </trkpt>
      <trkpt lat="40.85599333" lon="-4.08826167">
        <ele>1199.0</ele>
        <time>2018-05-26T12:19:35.709Z</time>
      </trkpt>
      <trkpt lat="40.856015" lon="-4.08825333">
        <ele>1200.0</ele>
        <time>2018-05-26T12:19:36.677Z</time>
      </trkpt>
      <trkpt lat="40.85602833" lon="-4.08824833">
        <ele>1200.0</ele>
        <time>2018-05-26T12:19:37.691Z</time>
      </trkpt>
      <trkpt lat="40.85602833" lon="-4.08824833">
        <ele>1200.0</ele>
        <time>2018-05-26T12:19:38.697Z</time>
      </trkpt>
      <trkpt lat="40.85606" lon="-4.08824">
        <ele>1200.0</ele>
        <time>2018-05-26T12:19:39.704Z</time>
      </trkpt>
      <trkpt lat="40.85606" lon="-4.08824">
        <ele>1200.0</ele>
        <time>2018-05-26T12:19:40.710Z</time>
      </trkpt>
      <trkpt lat="40.85608667" lon="-4.08821">
        <ele>1200.0</ele>
        <time>2018-05-26T12:19:41.704Z</time>
      </trkpt>
      <trkpt lat="40.85608667" lon="-4.08821">
        <ele>1200.0</ele>
        <time>2018-05-26T12:19:42.697Z</time>
      </trkpt>
      <trkpt lat="40.8561" lon="-4.08818167">
        <ele>1200.0</ele>
        <time>2018-05-26T12:19:43.677Z</time>
      </trkpt>
      <trkpt lat="40.8561" lon="-4.08818167">
        <ele>1200.0</ele>
        <time>2018-05-26T12:19:44.684Z</time>
      </trkpt>
      <trkpt lat="40.85610833" lon="-4.08813667">
        <ele>1199.0</ele>
        <time>2018-05-26T12:19:45.678Z</time>
      </trkpt>
      <trkpt lat="40.85610833" lon="-4.08813667">
        <ele>1199.0</ele>
        <time>2018-05-26T12:19:46.684Z</time>
      </trkpt>
      <trkpt lat="40.85611333" lon="-4.08807833">
        <ele>1200.0</ele>
        <time>2018-05-26T12:19:47.702Z</time>
      </trkpt>
      <trkpt lat="40.85611333" lon="-4.08807833">
        <ele>1200.0</ele>
        <time>2018-05-26T12:19:48.711Z</time>
      </trkpt>
      <trkpt lat="40.85611" lon="-4.08801">
        <ele>1199.0</ele>
        <time>2018-05-26T12:19:49.714Z</time>
      </trkpt>
      <trkpt lat="40.85611" lon="-4.08801">
        <ele>1199.0</ele>
        <time>2018-05-26T12:19:50.680Z</time>
      </trkpt>
      <trkpt lat="40.85608167" lon="-4.087925">
        <ele>1199.0</ele>
        <time>2018-05-26T12:19:51.687Z</time>
      </trkpt>
      <trkpt lat="40.85608167" lon="-4.087925">
        <ele>1199.0</ele>
        <time>2018-05-26T12:19:52.692Z</time>
      </trkpt>
      <trkpt lat="40.85604667" lon="-4.087795">
        <ele>1198.0</ele>
        <time>2018-05-26T12:19:53.684Z</time>
      </trkpt>
      <trkpt lat="40.85604667" lon="-4.087795">
        <ele>1198.0</ele>
        <time>2018-05-26T12:19:54.691Z</time>
      </trkpt>
      <trkpt lat="40.85601167" lon="-4.08761">
        <ele>1197.0</ele>
        <time>2018-05-26T12:19:55.698Z</time>
      </trkpt>
      <trkpt lat="40.85601167" lon="-4.08761">
        <ele>1197.0</ele>
        <time>2018-05-26T12:19:56.705Z</time>
      </trkpt>
      <trkpt lat="40.85598167" lon="-4.08746167">
        <ele>1196.0</ele>
        <time>2018-05-26T12:19:57.707Z</time>
      </trkpt>
      <trkpt lat="40.85598167" lon="-4.08746167">
        <ele>1196.0</ele>
        <time>2018-05-26T12:19:58.714Z</time>
      </trkpt>
      <trkpt lat="40.85599167" lon="-4.087375">
        <ele>1195.0</ele>
        <time>2018-05-26T12:19:59.685Z</time>
      </trkpt>
      <trkpt lat="40.85599833" lon="-4.08732667">
        <ele>1194.0</ele>
        <time>2018-05-26T12:20:00.698Z</time>
      </trkpt>
      <trkpt lat="40.85599833" lon="-4.08732667">
        <ele>1194.0</ele>
        <time>2018-05-26T12:20:01.705Z</time>
      </trkpt>
      <trkpt lat="40.856035" lon="-4.08723333">
        <ele>1194.0</ele>
        <time>2018-05-26T12:20:02.712Z</time>
      </trkpt>
      <trkpt lat="40.85603333" lon="-4.08720667">
        <ele>1193.0</ele>
        <time>2018-05-26T12:20:03.697Z</time>
      </trkpt>
      <trkpt lat="40.85603333" lon="-4.08720667">
        <ele>1193.0</ele>
        <time>2018-05-26T12:20:04.686Z</time>
      </trkpt>
      <trkpt lat="40.85604" lon="-4.08719833">
        <ele>1193.0</ele>
        <time>2018-05-26T12:20:05.679Z</time>
      </trkpt>
      <trkpt lat="40.85604" lon="-4.08719833">
        <ele>1193.0</ele>
        <time>2018-05-26T12:20:06.685Z</time>
      </trkpt>
      <trkpt lat="40.85606" lon="-4.08718167">
        <ele>1193.0</ele>
        <time>2018-05-26T12:20:07.692Z</time>
      </trkpt>
      <trkpt lat="40.85606" lon="-4.08718167">
        <ele>1193.0</ele>
        <time>2018-05-26T12:20:08.698Z</time>
      </trkpt>
      <trkpt lat="40.85608167" lon="-4.08716333">
        <ele>1193.0</ele>
        <time>2018-05-26T12:20:09.683Z</time>
      </trkpt>
      <trkpt lat="40.85608167" lon="-4.08716333">
        <ele>1193.0</ele>
        <time>2018-05-26T12:20:10.690Z</time>
      </trkpt>
      <trkpt lat="40.85609667" lon="-4.08715">
        <ele>1192.0</ele>
        <time>2018-05-26T12:20:11.697Z</time>
      </trkpt>
      <trkpt lat="40.85609667" lon="-4.08715">
        <ele>1192.0</ele>
        <time>2018-05-26T12:20:12.705Z</time>
      </trkpt>
      <trkpt lat="40.85609833" lon="-4.087115">
        <ele>1192.0</ele>
        <time>2018-05-26T12:20:13.676Z</time>
      </trkpt>
      <trkpt lat="40.85609833" lon="-4.087095">
        <ele>1192.0</ele>
        <time>2018-05-26T12:20:14.708Z</time>
      </trkpt>
      <trkpt lat="40.85609833" lon="-4.087095">
        <ele>1192.0</ele>
        <time>2018-05-26T12:20:15.699Z</time>
      </trkpt>
      <trkpt lat="40.85612" lon="-4.087065">
        <ele>1192.0</ele>
        <time>2018-05-26T12:20:16.690Z</time>
      </trkpt>
      <trkpt lat="40.85612" lon="-4.087065">
        <ele>1192.0</ele>
        <time>2018-05-26T12:20:17.696Z</time>
      </trkpt>
      <trkpt lat="40.85612" lon="-4.08702833">
        <ele>1191.0</ele>
        <time>2018-05-26T12:20:18.702Z</time>
      </trkpt>
      <trkpt lat="40.85612" lon="-4.08702833">
        <ele>1191.0</ele>
        <time>2018-05-26T12:20:19.677Z</time>
      </trkpt>
      <trkpt lat="40.85611667" lon="-4.08698833">
        <ele>1190.0</ele>
        <time>2018-05-26T12:20:20.705Z</time>
      </trkpt>
      <trkpt lat="40.85611667" lon="-4.08698833">
        <ele>1190.0</ele>
        <time>2018-05-26T12:20:21.713Z</time>
      </trkpt>
      <trkpt lat="40.85611167" lon="-4.08695333">
        <ele>1189.0</ele>
        <time>2018-05-26T12:20:22.679Z</time>
      </trkpt>
      <trkpt lat="40.85611667" lon="-4.08692833">
        <ele>1188.0</ele>
        <time>2018-05-26T12:20:23.698Z</time>
      </trkpt>
      <trkpt lat="40.856125" lon="-4.086895">
        <ele>1188.0</ele>
        <time>2018-05-26T12:20:24.688Z</time>
      </trkpt>
      <trkpt lat="40.856125" lon="-4.086895">
        <ele>1188.0</ele>
        <time>2018-05-26T12:20:25.693Z</time>
      </trkpt>
      <trkpt lat="40.85615167" lon="-4.08683167">
        <ele>1187.0</ele>
        <time>2018-05-26T12:20:26.700Z</time>
      </trkpt>
      <trkpt lat="40.85617167" lon="-4.08680333">
        <ele>1186.0</ele>
        <time>2018-05-26T12:20:27.677Z</time>
      </trkpt>
      <trkpt lat="40.85619167" lon="-4.08678333">
        <ele>1185.0</ele>
        <time>2018-05-26T12:20:28.688Z</time>
      </trkpt>
      <trkpt lat="40.85619167" lon="-4.08678333">
        <ele>1185.0</ele>
        <time>2018-05-26T12:20:29.694Z</time>
      </trkpt>
      <trkpt lat="40.85622" lon="-4.086755">
        <ele>1184.0</ele>
        <time>2018-05-26T12:20:30.701Z</time>
      </trkpt>
      <trkpt lat="40.85623" lon="-4.086735">
        <ele>1184.0</ele>
        <time>2018-05-26T12:20:31.675Z</time>
      </trkpt>
      <trkpt lat="40.85623" lon="-4.086735">
        <ele>1184.0</ele>
        <time>2018-05-26T12:20:32.692Z</time>
      </trkpt>
      <trkpt lat="40.85626167" lon="-4.08669833">
        <ele>1184.0</ele>
        <time>2018-05-26T12:20:33.704Z</time>
      </trkpt>
      <trkpt lat="40.85626167" lon="-4.08669833">
        <ele>1184.0</ele>
        <time>2018-05-26T12:20:34.713Z</time>
      </trkpt>
      <trkpt lat="40.85628833" lon="-4.08666333">
        <ele>1183.0</ele>
        <time>2018-05-26T12:20:35.708Z</time>
      </trkpt>
      <trkpt lat="40.85628833" lon="-4.08666333">
        <ele>1183.0</ele>
        <time>2018-05-26T12:20:36.715Z</time>
      </trkpt>
      <trkpt lat="40.85629167" lon="-4.08663333">
        <ele>1182.0</ele>
        <time>2018-05-26T12:20:37.689Z</time>
      </trkpt>
      <trkpt lat="40.85629167" lon="-4.08663333">
        <ele>1182.0</ele>
        <time>2018-05-26T12:20:38.695Z</time>
      </trkpt>
      <trkpt lat="40.85629" lon="-4.08659833">
        <ele>1182.0</ele>
        <time>2018-05-26T12:20:39.709Z</time>
      </trkpt>
      <trkpt lat="40.85629" lon="-4.08659833">
        <ele>1182.0</ele>
        <time>2018-05-26T12:20:40.675Z</time>
      </trkpt>
      <trkpt lat="40.856295" lon="-4.08657">
        <ele>1181.0</ele>
        <time>2018-05-26T12:20:41.685Z</time>
      </trkpt>
      <trkpt lat="40.856295" lon="-4.08657">
        <ele>1181.0</ele>
        <time>2018-05-26T12:20:42.691Z</time>
      </trkpt>
      <trkpt lat="40.85634" lon="-4.08655167">
        <ele>1181.0</ele>
        <time>2018-05-26T12:20:43.688Z</time>
      </trkpt>
      <trkpt lat="40.85635667" lon="-4.086545">
        <ele>1181.0</ele>
        <time>2018-05-26T12:20:44.695Z</time>
      </trkpt>
      <trkpt lat="40.85635667" lon="-4.086545">
        <ele>1181.0</ele>
        <time>2018-05-26T12:20:45.701Z</time>
      </trkpt>
      <trkpt lat="40.85637833" lon="-4.086535">
        <ele>1181.0</ele>
        <time>2018-05-26T12:20:46.676Z</time>
      </trkpt>
      <trkpt lat="40.85637833" lon="-4.086535">
        <ele>1181.0</ele>
        <time>2018-05-26T12:20:47.682Z</time>
      </trkpt>
      <trkpt lat="40.85637833" lon="-4.08649333">
        <ele>1181.0</ele>
        <time>2018-05-26T12:20:48.689Z</time>
      </trkpt>
      <trkpt lat="40.856395" lon="-4.08645">
        <ele>1182.0</ele>
        <time>2018-05-26T12:20:49.678Z</time>
      </trkpt>
      <trkpt lat="40.85639667" lon="-4.08642167">
        <ele>1182.0</ele>
        <time>2018-05-26T12:20:50.686Z</time>
      </trkpt>
      <trkpt lat="40.85638667" lon="-4.08639167">
        <ele>1182.0</ele>
        <time>2018-05-26T12:20:51.693Z</time>
      </trkpt>
      <trkpt lat="40.85638667" lon="-4.08639167">
        <ele>1182.0</ele>
        <time>2018-05-26T12:20:52.699Z</time>
      </trkpt>
      <trkpt lat="40.85645667" lon="-4.08635333">
        <ele>1183.0</ele>
        <time>2018-05-26T12:20:53.687Z</time>
      </trkpt>
      <trkpt lat="40.85647" lon="-4.08635">
        <ele>1184.0</ele>
        <time>2018-05-26T12:20:54.688Z</time>
      </trkpt>
      <trkpt lat="40.85647" lon="-4.08635">
        <ele>1184.0</ele>
        <time>2018-05-26T12:20:55.693Z</time>
      </trkpt>
      <trkpt lat="40.85649667" lon="-4.08634833">
        <ele>1183.0</ele>
        <time>2018-05-26T12:20:56.700Z</time>
      </trkpt>
      <trkpt lat="40.85649667" lon="-4.08634833">
        <ele>1183.0</ele>
        <time>2018-05-26T12:20:57.689Z</time>
      </trkpt>
      <trkpt lat="40.85649667" lon="-4.08634833">
        <ele>1183.0</ele>
        <time>2018-05-26T12:20:58.696Z</time>
      </trkpt>
      <trkpt lat="40.85653" lon="-4.08632167">
        <ele>1184.0</ele>
        <time>2018-05-26T12:20:59.703Z</time>
      </trkpt>
      <trkpt lat="40.85653" lon="-4.08632167">
        <ele>1184.0</ele>
        <time>2018-05-26T12:21:00.709Z</time>
      </trkpt>
      <trkpt lat="40.85655333" lon="-4.08631">
        <ele>1184.0</ele>
        <time>2018-05-26T12:21:01.677Z</time>
      </trkpt>
      <trkpt lat="40.85655333" lon="-4.08631">
        <ele>1184.0</ele>
        <time>2018-05-26T12:21:02.684Z</time>
      </trkpt>
      <trkpt lat="40.856575" lon="-4.086305">
        <ele>1184.0</ele>
        <time>2018-05-26T12:21:03.692Z</time>
      </trkpt>
      <trkpt lat="40.856575" lon="-4.086305">
        <ele>1184.0</ele>
        <time>2018-05-26T12:21:04.698Z</time>
      </trkpt>
      <trkpt lat="40.85659" lon="-4.086305">
        <ele>1184.0</ele>
        <time>2018-05-26T12:21:05.703Z</time>
      </trkpt>
      <trkpt lat="40.85659" lon="-4.086305">
        <ele>1184.0</ele>
        <time>2018-05-26T12:21:06.709Z</time>
      </trkpt>
      <trkpt lat="40.85660833" lon="-4.08629333">
        <ele>1185.0</ele>
        <time>2018-05-26T12:21:07.678Z</time>
      </trkpt>
      <trkpt lat="40.85660833" lon="-4.08629333">
        <ele>1185.0</ele>
        <time>2018-05-26T12:21:08.684Z</time>
      </trkpt>
      <trkpt lat="40.85662" lon="-4.08627167">
        <ele>1185.0</ele>
        <time>2018-05-26T12:21:09.711Z</time>
      </trkpt>
      <trkpt lat="40.85662" lon="-4.08627167">
        <ele>1185.0</ele>
        <time>2018-05-26T12:21:10.677Z</time>
      </trkpt>
      <trkpt lat="40.856635" lon="-4.08625167">
        <ele>1186.0</ele>
        <time>2018-05-26T12:21:11.684Z</time>
      </trkpt>
      <trkpt lat="40.856635" lon="-4.08625167">
        <ele>1186.0</ele>
        <time>2018-05-26T12:21:12.690Z</time>
      </trkpt>
      <trkpt lat="40.85665" lon="-4.08624167">
        <ele>1186.0</ele>
        <time>2018-05-26T12:21:13.677Z</time>
      </trkpt>
      <trkpt lat="40.85665" lon="-4.08624167">
        <ele>1186.0</ele>
        <time>2018-05-26T12:21:14.684Z</time>
      </trkpt>
      <trkpt lat="40.856665" lon="-4.08624">
        <ele>1186.0</ele>
        <time>2018-05-26T12:21:15.691Z</time>
      </trkpt>
      <trkpt lat="40.856665" lon="-4.08624">
        <ele>1186.0</ele>
        <time>2018-05-26T12:21:16.696Z</time>
      </trkpt>
      <trkpt lat="40.85668667" lon="-4.08623833">
        <ele>1187.0</ele>
        <time>2018-05-26T12:21:17.680Z</time>
      </trkpt>
      <trkpt lat="40.85668667" lon="-4.08623833">
        <ele>1187.0</ele>
        <time>2018-05-26T12:21:18.686Z</time>
      </trkpt>
      <trkpt lat="40.856705" lon="-4.08625167">
        <ele>1187.0</ele>
        <time>2018-05-26T12:21:19.694Z</time>
      </trkpt>
      <trkpt lat="40.85670833" lon="-4.08625833">
        <ele>1187.0</ele>
        <time>2018-05-26T12:21:20.688Z</time>
      </trkpt>
      <trkpt lat="40.85670833" lon="-4.08625833">
        <ele>1187.0</ele>
        <time>2018-05-26T12:21:21.694Z</time>
      </trkpt>
      <trkpt lat="40.85673" lon="-4.08627833">
        <ele>1187.0</ele>
        <time>2018-05-26T12:21:22.708Z</time>
      </trkpt>
      <trkpt lat="40.85673" lon="-4.08627833">
        <ele>1187.0</ele>
        <time>2018-05-26T12:21:23.714Z</time>
      </trkpt>
      <trkpt lat="40.85675167" lon="-4.086295">
        <ele>1187.0</ele>
        <time>2018-05-26T12:21:24.702Z</time>
      </trkpt>
      <trkpt lat="40.85675167" lon="-4.086295">
        <ele>1187.0</ele>
        <time>2018-05-26T12:21:25.712Z</time>
      </trkpt>
      <trkpt lat="40.85677" lon="-4.08631333">
        <ele>1187.0</ele>
        <time>2018-05-26T12:21:26.678Z</time>
      </trkpt>
      <trkpt lat="40.85677333" lon="-4.08631667">
        <ele>1187.0</ele>
        <time>2018-05-26T12:21:27.688Z</time>
      </trkpt>
      <trkpt lat="40.856775" lon="-4.08632667">
        <ele>1187.0</ele>
        <time>2018-05-26T12:21:28.707Z</time>
      </trkpt>
      <trkpt lat="40.856775" lon="-4.08632667">
        <ele>1187.0</ele>
        <time>2018-05-26T12:21:29.714Z</time>
      </trkpt>
      <trkpt lat="40.85677667" lon="-4.08636">
        <ele>1187.0</ele>
        <time>2018-05-26T12:21:30.682Z</time>
      </trkpt>
      <trkpt lat="40.85678167" lon="-4.08637833">
        <ele>1187.0</ele>
        <time>2018-05-26T12:21:31.688Z</time>
      </trkpt>
      <trkpt lat="40.85679167" lon="-4.0864">
        <ele>1186.0</ele>
        <time>2018-05-26T12:21:32.707Z</time>
      </trkpt>
      <trkpt lat="40.85679167" lon="-4.0864">
        <ele>1186.0</ele>
        <time>2018-05-26T12:21:33.676Z</time>
      </trkpt>
      <trkpt lat="40.85681667" lon="-4.086445">
        <ele>1186.0</ele>
        <time>2018-05-26T12:21:34.712Z</time>
      </trkpt>
      <trkpt lat="40.85681667" lon="-4.086445">
        <ele>1186.0</ele>
        <time>2018-05-26T12:21:35.679Z</time>
      </trkpt>
      <trkpt lat="40.85684667" lon="-4.086495">
        <ele>1186.0</ele>
        <time>2018-05-26T12:21:36.686Z</time>
      </trkpt>
      <trkpt lat="40.85684667" lon="-4.086495">
        <ele>1186.0</ele>
        <time>2018-05-26T12:21:37.692Z</time>
      </trkpt>
      <trkpt lat="40.85687667" lon="-4.08654667">
        <ele>1186.0</ele>
        <time>2018-05-26T12:21:38.707Z</time>
      </trkpt>
      <trkpt lat="40.85689167" lon="-4.08657333">
        <ele>1186.0</ele>
        <time>2018-05-26T12:21:39.677Z</time>
      </trkpt>
      <trkpt lat="40.85689167" lon="-4.08657333">
        <ele>1186.0</ele>
        <time>2018-05-26T12:21:40.682Z</time>
      </trkpt>
      <trkpt lat="40.85692167" lon="-4.08662333">
        <ele>1186.0</ele>
        <time>2018-05-26T12:21:41.710Z</time>
      </trkpt>
      <trkpt lat="40.85692167" lon="-4.08662333">
        <ele>1186.0</ele>
        <time>2018-05-26T12:21:42.676Z</time>
      </trkpt>
      <trkpt lat="40.85695" lon="-4.08667">
        <ele>1186.0</ele>
        <time>2018-05-26T12:21:43.688Z</time>
      </trkpt>
      <trkpt lat="40.85695" lon="-4.08667">
        <ele>1186.0</ele>
        <time>2018-05-26T12:21:44.694Z</time>
      </trkpt>
      <trkpt lat="40.85698" lon="-4.08672">
        <ele>1186.0</ele>
        <time>2018-05-26T12:21:45.704Z</time>
      </trkpt>
      <trkpt lat="40.85698" lon="-4.08672">
        <ele>1186.0</ele>
        <time>2018-05-26T12:21:46.711Z</time>
      </trkpt>
      <trkpt lat="40.85700833" lon="-4.08678667">
        <ele>1186.0</ele>
        <time>2018-05-26T12:21:47.678Z</time>
      </trkpt>
      <trkpt lat="40.85702667" lon="-4.08683">
        <ele>1186.0</ele>
        <time>2018-05-26T12:21:48.690Z</time>
      </trkpt>
      <trkpt lat="40.85702667" lon="-4.08683">
        <ele>1186.0</ele>
        <time>2018-05-26T12:21:49.697Z</time>
      </trkpt>
      <trkpt lat="40.85706667" lon="-4.08691333">
        <ele>1186.0</ele>
        <time>2018-05-26T12:21:50.685Z</time>
      </trkpt>
      <trkpt lat="40.85709167" lon="-4.08695167">
        <ele>1185.0</ele>
        <time>2018-05-26T12:21:51.677Z</time>
      </trkpt>
      <trkpt lat="40.85709167" lon="-4.08695167">
        <ele>1185.0</ele>
        <time>2018-05-26T12:21:52.684Z</time>
      </trkpt>
      <trkpt lat="40.85714667" lon="-4.08702333">
        <ele>1185.0</ele>
        <time>2018-05-26T12:21:53.693Z</time>
      </trkpt>
      <trkpt lat="40.85717667" lon="-4.08705333">
        <ele>1185.0</ele>
        <time>2018-05-26T12:21:54.687Z</time>
      </trkpt>
      <trkpt lat="40.85720833" lon="-4.08707833">
        <ele>1185.0</ele>
        <time>2018-05-26T12:21:55.694Z</time>
      </trkpt>
      <trkpt lat="40.85720833" lon="-4.08707833">
        <ele>1185.0</ele>
        <time>2018-05-26T12:21:56.700Z</time>
      </trkpt>
      <trkpt lat="40.85726667" lon="-4.08712333">
        <ele>1185.0</ele>
        <time>2018-05-26T12:21:57.704Z</time>
      </trkpt>
      <trkpt lat="40.85726667" lon="-4.08712333">
        <ele>1185.0</ele>
        <time>2018-05-26T12:21:58.682Z</time>
      </trkpt>
      <trkpt lat="40.85731167" lon="-4.08714667">
        <ele>1185.0</ele>
        <time>2018-05-26T12:21:59.684Z</time>
      </trkpt>
      <trkpt lat="40.85731167" lon="-4.08714667">
        <ele>1185.0</ele>
        <time>2018-05-26T12:22:00.691Z</time>
      </trkpt>
      <trkpt lat="40.857315" lon="-4.08714833">
        <ele>1185.0</ele>
        <time>2018-05-26T12:22:01.698Z</time>
      </trkpt>
      <trkpt lat="40.857315" lon="-4.08714833">
        <ele>1185.0</ele>
        <time>2018-05-26T12:22:02.710Z</time>
      </trkpt>
      <trkpt lat="40.857315" lon="-4.08715">
        <ele>1185.0</ele>
        <time>2018-05-26T12:22:03.680Z</time>
      </trkpt>
      <trkpt lat="40.857315" lon="-4.08715">
        <ele>1185.0</ele>
        <time>2018-05-26T12:22:04.681Z</time>
      </trkpt>
      <trkpt lat="40.85739333" lon="-4.08718167">
        <ele>1184.0</ele>
        <time>2018-05-26T12:22:05.679Z</time>
      </trkpt>
      <trkpt lat="40.85741667" lon="-4.0872">
        <ele>1184.0</ele>
        <time>2018-05-26T12:22:06.714Z</time>
      </trkpt>
      <trkpt lat="40.85741667" lon="-4.0872">
        <ele>1184.0</ele>
        <time>2018-05-26T12:22:07.707Z</time>
      </trkpt>
      <trkpt lat="40.85746667" lon="-4.08723333">
        <ele>1184.0</ele>
        <time>2018-05-26T12:22:08.676Z</time>
      </trkpt>
      <trkpt lat="40.85746667" lon="-4.08723333">
        <ele>1184.0</ele>
        <time>2018-05-26T12:22:09.683Z</time>
      </trkpt>
      <trkpt lat="40.857525" lon="-4.087265">
        <ele>1183.0</ele>
        <time>2018-05-26T12:22:10.690Z</time>
      </trkpt>
      <trkpt lat="40.857525" lon="-4.087265">
        <ele>1183.0</ele>
        <time>2018-05-26T12:22:11.708Z</time>
      </trkpt>
      <trkpt lat="40.85758333" lon="-4.087305">
        <ele>1183.0</ele>
        <time>2018-05-26T12:22:12.692Z</time>
      </trkpt>
      <trkpt lat="40.85758333" lon="-4.087305">
        <ele>1183.0</ele>
        <time>2018-05-26T12:22:13.700Z</time>
      </trkpt>
      <trkpt lat="40.85764167" lon="-4.08735">
        <ele>1183.0</ele>
        <time>2018-05-26T12:22:14.708Z</time>
      </trkpt>
      <trkpt lat="40.85764167" lon="-4.08735">
        <ele>1183.0</ele>
        <time>2018-05-26T12:22:15.714Z</time>
      </trkpt>
      <trkpt lat="40.85770333" lon="-4.08739167">
        <ele>1183.0</ele>
        <time>2018-05-26T12:22:16.709Z</time>
      </trkpt>
      <trkpt lat="40.85770333" lon="-4.08739167">
        <ele>1183.0</ele>
        <time>2018-05-26T12:22:17.675Z</time>
      </trkpt>
      <trkpt lat="40.85777" lon="-4.08742">
        <ele>1183.0</ele>
        <time>2018-05-26T12:22:18.682Z</time>
      </trkpt>
      <trkpt lat="40.85777" lon="-4.08742">
        <ele>1183.0</ele>
        <time>2018-05-26T12:22:19.698Z</time>
      </trkpt>
      <trkpt lat="40.85783333" lon="-4.087455">
        <ele>1182.0</ele>
        <time>2018-05-26T12:22:20.709Z</time>
      </trkpt>
      <trkpt lat="40.85783333" lon="-4.087455">
        <ele>1182.0</ele>
        <time>2018-05-26T12:22:21.675Z</time>
      </trkpt>
      <trkpt lat="40.8579" lon="-4.08749333">
        <ele>1182.0</ele>
        <time>2018-05-26T12:22:22.690Z</time>
      </trkpt>
      <trkpt lat="40.857935" lon="-4.087515">
        <ele>1182.0</ele>
        <time>2018-05-26T12:22:23.713Z</time>
      </trkpt>
      <trkpt lat="40.85797333" lon="-4.08753333">
        <ele>1182.0</ele>
        <time>2018-05-26T12:22:24.709Z</time>
      </trkpt>
      <trkpt lat="40.85797333" lon="-4.08753333">
        <ele>1182.0</ele>
        <time>2018-05-26T12:22:25.675Z</time>
      </trkpt>
      <trkpt lat="40.85805" lon="-4.08756333">
        <ele>1182.0</ele>
        <time>2018-05-26T12:22:26.682Z</time>
      </trkpt>
      <trkpt lat="40.85808833" lon="-4.087575">
        <ele>1182.0</ele>
        <time>2018-05-26T12:22:27.689Z</time>
      </trkpt>
      <trkpt lat="40.85808833" lon="-4.087575">
        <ele>1182.0</ele>
        <time>2018-05-26T12:22:28.700Z</time>
      </trkpt>
      <trkpt lat="40.858175" lon="-4.08759167">
        <ele>1182.0</ele>
        <time>2018-05-26T12:22:29.711Z</time>
      </trkpt>
      <trkpt lat="40.858175" lon="-4.08759167">
        <ele>1182.0</ele>
        <time>2018-05-26T12:22:30.677Z</time>
      </trkpt>
      <trkpt lat="40.85826833" lon="-4.08762">
        <ele>1182.0</ele>
        <time>2018-05-26T12:22:31.699Z</time>
      </trkpt>
      <trkpt lat="40.85826833" lon="-4.08762">
        <ele>1182.0</ele>
        <time>2018-05-26T12:22:32.675Z</time>
      </trkpt>
      <trkpt lat="40.85836167" lon="-4.08765">
        <ele>1182.0</ele>
        <time>2018-05-26T12:22:33.685Z</time>
      </trkpt>
      <trkpt lat="40.85836167" lon="-4.08765">
        <ele>1182.0</ele>
        <time>2018-05-26T12:22:34.693Z</time>
      </trkpt>
      <trkpt lat="40.85845333" lon="-4.08768833">
        <ele>1182.0</ele>
        <time>2018-05-26T12:22:35.688Z</time>
      </trkpt>
      <trkpt lat="40.85845333" lon="-4.08768833">
        <ele>1182.0</ele>
        <time>2018-05-26T12:22:36.701Z</time>
      </trkpt>
      <trkpt lat="40.85854167" lon="-4.08773667">
        <ele>1182.0</ele>
        <time>2018-05-26T12:22:37.713Z</time>
      </trkpt>
      <trkpt lat="40.85858333" lon="-4.08776167">
        <ele>1182.0</ele>
        <time>2018-05-26T12:22:38.683Z</time>
      </trkpt>
      <trkpt lat="40.85862" lon="-4.08779">
        <ele>1182.0</ele>
        <time>2018-05-26T12:22:39.677Z</time>
      </trkpt>
      <trkpt lat="40.85862" lon="-4.08779">
        <ele>1182.0</ele>
        <time>2018-05-26T12:22:40.684Z</time>
      </trkpt>
      <trkpt lat="40.85869833" lon="-4.08785667">
        <ele>1181.0</ele>
        <time>2018-05-26T12:22:41.692Z</time>
      </trkpt>
      <trkpt lat="40.85869833" lon="-4.08785667">
        <ele>1181.0</ele>
        <time>2018-05-26T12:22:42.698Z</time>
      </trkpt>
      <trkpt lat="40.85878333" lon="-4.08792">
        <ele>1181.0</ele>
        <time>2018-05-26T12:22:43.696Z</time>
      </trkpt>
      <trkpt lat="40.85878333" lon="-4.08792">
        <ele>1181.0</ele>
        <time>2018-05-26T12:22:44.703Z</time>
      </trkpt>
      <trkpt lat="40.85887" lon="-4.08797833">
        <ele>1182.0</ele>
        <time>2018-05-26T12:22:45.684Z</time>
      </trkpt>
      <trkpt lat="40.85887" lon="-4.08797833">
        <ele>1182.0</ele>
        <time>2018-05-26T12:22:46.690Z</time>
      </trkpt>
      <trkpt lat="40.85896833" lon="-4.088025">
        <ele>1181.0</ele>
        <time>2018-05-26T12:22:47.676Z</time>
      </trkpt>
      <trkpt lat="40.85896833" lon="-4.088025">
        <ele>1181.0</ele>
        <time>2018-05-26T12:22:48.682Z</time>
      </trkpt>
      <trkpt lat="40.85907333" lon="-4.08805667">
        <ele>1181.0</ele>
        <time>2018-05-26T12:22:49.690Z</time>
      </trkpt>
      <trkpt lat="40.85907333" lon="-4.08805667">
        <ele>1181.0</ele>
        <time>2018-05-26T12:22:50.709Z</time>
      </trkpt>
      <trkpt lat="40.85917833" lon="-4.088085">
        <ele>1181.0</ele>
        <time>2018-05-26T12:22:51.706Z</time>
      </trkpt>
      <trkpt lat="40.85917833" lon="-4.088085">
        <ele>1181.0</ele>
        <time>2018-05-26T12:22:52.713Z</time>
      </trkpt>
      <trkpt lat="40.85928167" lon="-4.08810833">
        <ele>1181.0</ele>
        <time>2018-05-26T12:22:53.680Z</time>
      </trkpt>
      <trkpt lat="40.85933" lon="-4.088115">
        <ele>1181.0</ele>
        <time>2018-05-26T12:22:54.710Z</time>
      </trkpt>
      <trkpt lat="40.85933" lon="-4.088115">
        <ele>1181.0</ele>
        <time>2018-05-26T12:22:55.711Z</time>
      </trkpt>
      <trkpt lat="40.859425" lon="-4.08813167">
        <ele>1181.0</ele>
        <time>2018-05-26T12:22:56.711Z</time>
      </trkpt>
      <trkpt lat="40.85947167" lon="-4.08814667">
        <ele>1181.0</ele>
        <time>2018-05-26T12:22:57.678Z</time>
      </trkpt>
      <trkpt lat="40.85947167" lon="-4.08814667">
        <ele>1181.0</ele>
        <time>2018-05-26T12:22:58.683Z</time>
      </trkpt>
      <trkpt lat="40.85955333" lon="-4.08816333">
        <ele>1181.0</ele>
        <time>2018-05-26T12:22:59.698Z</time>
      </trkpt>
      <trkpt lat="40.85959" lon="-4.08817333">
        <ele>1182.0</ele>
        <time>2018-05-26T12:23:00.711Z</time>
      </trkpt>
      <trkpt lat="40.85959" lon="-4.08817333">
        <ele>1182.0</ele>
        <time>2018-05-26T12:23:01.677Z</time>
      </trkpt>
      <trkpt lat="40.859665" lon="-4.08819">
        <ele>1182.0</ele>
        <time>2018-05-26T12:23:02.684Z</time>
      </trkpt>
      <trkpt lat="40.8597" lon="-4.08819833">
        <ele>1183.0</ele>
        <time>2018-05-26T12:23:03.690Z</time>
      </trkpt>
      <trkpt lat="40.8597" lon="-4.08819833">
        <ele>1183.0</ele>
        <time>2018-05-26T12:23:04.697Z</time>
      </trkpt>
      <trkpt lat="40.859775" lon="-4.08821333">
        <ele>1184.0</ele>
        <time>2018-05-26T12:23:05.687Z</time>
      </trkpt>
      <trkpt lat="40.859775" lon="-4.08821333">
        <ele>1184.0</ele>
        <time>2018-05-26T12:23:06.694Z</time>
      </trkpt>
      <trkpt lat="40.859845" lon="-4.08822833">
        <ele>1186.0</ele>
        <time>2018-05-26T12:23:07.701Z</time>
      </trkpt>
      <trkpt lat="40.859845" lon="-4.08822833">
        <ele>1186.0</ele>
        <time>2018-05-26T12:23:08.707Z</time>
      </trkpt>
      <trkpt lat="40.859915" lon="-4.08824833">
        <ele>1187.0</ele>
        <time>2018-05-26T12:23:09.709Z</time>
      </trkpt>
      <trkpt lat="40.85995" lon="-4.088265">
        <ele>1188.0</ele>
        <time>2018-05-26T12:23:10.676Z</time>
      </trkpt>
      <trkpt lat="40.85995" lon="-4.088265">
        <ele>1188.0</ele>
        <time>2018-05-26T12:23:11.682Z</time>
      </trkpt>
      <trkpt lat="40.86000667" lon="-4.08829167">
        <ele>1191.0</ele>
        <time>2018-05-26T12:23:12.688Z</time>
      </trkpt>
      <trkpt lat="40.860035" lon="-4.08830667">
        <ele>1192.0</ele>
        <time>2018-05-26T12:23:13.683Z</time>
      </trkpt>
      <trkpt lat="40.860035" lon="-4.08830667">
        <ele>1192.0</ele>
        <time>2018-05-26T12:23:14.689Z</time>
      </trkpt>
      <trkpt lat="40.86009167" lon="-4.08833333">
        <ele>1194.0</ele>
        <time>2018-05-26T12:23:15.699Z</time>
      </trkpt>
      <trkpt lat="40.86012167" lon="-4.08834833">
        <ele>1195.0</ele>
        <time>2018-05-26T12:23:16.680Z</time>
      </trkpt>
      <trkpt lat="40.86012167" lon="-4.08834833">
        <ele>1195.0</ele>
        <time>2018-05-26T12:23:17.686Z</time>
      </trkpt>
      <trkpt lat="40.8602" lon="-4.088375">
        <ele>1196.0</ele>
        <time>2018-05-26T12:23:18.693Z</time>
      </trkpt>
      <trkpt lat="40.86022833" lon="-4.08838333">
        <ele>1197.0</ele>
        <time>2018-05-26T12:23:19.700Z</time>
      </trkpt>
      <trkpt lat="40.86022833" lon="-4.08838333">
        <ele>1197.0</ele>
        <time>2018-05-26T12:23:20.707Z</time>
      </trkpt>
      <trkpt lat="40.86028333" lon="-4.08839667">
        <ele>1199.0</ele>
        <time>2018-05-26T12:23:21.714Z</time>
      </trkpt>
      <trkpt lat="40.86028333" lon="-4.08839667">
        <ele>1199.0</ele>
        <time>2018-05-26T12:23:22.680Z</time>
      </trkpt>
      <trkpt lat="40.860355" lon="-4.088425">
        <ele>1200.0</ele>
        <time>2018-05-26T12:23:23.709Z</time>
      </trkpt>
      <trkpt lat="40.860355" lon="-4.088425">
        <ele>1200.0</ele>
        <time>2018-05-26T12:23:24.675Z</time>
      </trkpt>
      <trkpt lat="40.86041833" lon="-4.08846333">
        <ele>1200.0</ele>
        <time>2018-05-26T12:23:25.704Z</time>
      </trkpt>
      <trkpt lat="40.86044667" lon="-4.08847167">
        <ele>1201.0</ele>
        <time>2018-05-26T12:23:26.691Z</time>
      </trkpt>
      <trkpt lat="40.86044667" lon="-4.08847167">
        <ele>1201.0</ele>
        <time>2018-05-26T12:23:27.700Z</time>
      </trkpt>
      <trkpt lat="40.86051333" lon="-4.08845833">
        <ele>1201.0</ele>
        <time>2018-05-26T12:23:28.686Z</time>
      </trkpt>
      <trkpt lat="40.86051333" lon="-4.08845833">
        <ele>1201.0</ele>
        <time>2018-05-26T12:23:29.692Z</time>
      </trkpt>
      <trkpt lat="40.86056" lon="-4.08845">
        <ele>1202.0</ele>
        <time>2018-05-26T12:23:30.704Z</time>
      </trkpt>
      <trkpt lat="40.86058" lon="-4.08845">
        <ele>1203.0</ele>
        <time>2018-05-26T12:23:31.700Z</time>
      </trkpt>
      <trkpt lat="40.86058" lon="-4.08845">
        <ele>1203.0</ele>
        <time>2018-05-26T12:23:32.697Z</time>
      </trkpt>
      <trkpt lat="40.86061667" lon="-4.08845833">
        <ele>1204.0</ele>
        <time>2018-05-26T12:23:33.705Z</time>
      </trkpt>
      <trkpt lat="40.86061667" lon="-4.08845833">
        <ele>1204.0</ele>
        <time>2018-05-26T12:23:34.712Z</time>
      </trkpt>
      <trkpt lat="40.86065" lon="-4.08847167">
        <ele>1204.0</ele>
        <time>2018-05-26T12:23:35.678Z</time>
      </trkpt>
      <trkpt lat="40.860665" lon="-4.08847833">
        <ele>1205.0</ele>
        <time>2018-05-26T12:23:36.689Z</time>
      </trkpt>
      <trkpt lat="40.860665" lon="-4.08847833">
        <ele>1205.0</ele>
        <time>2018-05-26T12:23:37.700Z</time>
      </trkpt>
      <trkpt lat="40.86069667" lon="-4.08848">
        <ele>1206.0</ele>
        <time>2018-05-26T12:23:38.693Z</time>
      </trkpt>
      <trkpt lat="40.86071167" lon="-4.08847667">
        <ele>1206.0</ele>
        <time>2018-05-26T12:23:39.714Z</time>
      </trkpt>
      <trkpt lat="40.860725" lon="-4.08847333">
        <ele>1207.0</ele>
        <time>2018-05-26T12:23:40.703Z</time>
      </trkpt>
      <trkpt lat="40.860725" lon="-4.08847333">
        <ele>1207.0</ele>
        <time>2018-05-26T12:23:41.709Z</time>
      </trkpt>
      <trkpt lat="40.86075333" lon="-4.08847667">
        <ele>1207.0</ele>
        <time>2018-05-26T12:23:42.676Z</time>
      </trkpt>
      <trkpt lat="40.860765" lon="-4.08847667">
        <ele>1208.0</ele>
        <time>2018-05-26T12:23:43.703Z</time>
      </trkpt>
      <trkpt lat="40.86077833" lon="-4.08848">
        <ele>1208.0</ele>
        <time>2018-05-26T12:23:44.712Z</time>
      </trkpt>
      <trkpt lat="40.86077833" lon="-4.08848">
        <ele>1208.0</ele>
        <time>2018-05-26T12:23:45.678Z</time>
      </trkpt>
      <trkpt lat="40.86080667" lon="-4.08848167">
        <ele>1209.0</ele>
        <time>2018-05-26T12:23:46.694Z</time>
      </trkpt>
      <trkpt lat="40.86082167" lon="-4.08848333">
        <ele>1209.0</ele>
        <time>2018-05-26T12:23:47.709Z</time>
      </trkpt>
      <trkpt lat="40.86082167" lon="-4.08848333">
        <ele>1209.0</ele>
        <time>2018-05-26T12:23:48.675Z</time>
      </trkpt>
      <trkpt lat="40.860855" lon="-4.08848667">
        <ele>1210.0</ele>
        <time>2018-05-26T12:23:49.684Z</time>
      </trkpt>
      <trkpt lat="40.860855" lon="-4.08848667">
        <ele>1210.0</ele>
        <time>2018-05-26T12:23:50.691Z</time>
      </trkpt>
      <trkpt lat="40.86089" lon="-4.08849333">
        <ele>1209.0</ele>
        <time>2018-05-26T12:23:51.699Z</time>
      </trkpt>
      <trkpt lat="40.86089" lon="-4.08849333">
        <ele>1209.0</ele>
        <time>2018-05-26T12:23:52.705Z</time>
      </trkpt>
      <trkpt lat="40.86092167" lon="-4.088495">
        <ele>1209.0</ele>
        <time>2018-05-26T12:23:53.713Z</time>
      </trkpt>
      <trkpt lat="40.86092167" lon="-4.088495">
        <ele>1209.0</ele>
        <time>2018-05-26T12:23:54.679Z</time>
      </trkpt>
      <trkpt lat="40.86095333" lon="-4.08849167">
        <ele>1210.0</ele>
        <time>2018-05-26T12:23:55.711Z</time>
      </trkpt>
      <trkpt lat="40.86096667" lon="-4.08848833">
        <ele>1210.0</ele>
        <time>2018-05-26T12:23:56.677Z</time>
      </trkpt>
      <trkpt lat="40.86098167" lon="-4.08848333">
        <ele>1210.0</ele>
        <time>2018-05-26T12:23:57.684Z</time>
      </trkpt>
      <trkpt lat="40.86098167" lon="-4.08848333">
        <ele>1210.0</ele>
        <time>2018-05-26T12:23:58.690Z</time>
      </trkpt>
      <trkpt lat="40.86101167" lon="-4.088465">
        <ele>1210.0</ele>
        <time>2018-05-26T12:23:59.709Z</time>
      </trkpt>
      <trkpt lat="40.861025" lon="-4.08846">
        <ele>1210.0</ele>
        <time>2018-05-26T12:24:00.693Z</time>
      </trkpt>
      <trkpt lat="40.861025" lon="-4.08846">
        <ele>1210.0</ele>
        <time>2018-05-26T12:24:01.700Z</time>
      </trkpt>
      <trkpt lat="40.861035" lon="-4.08845333">
        <ele>1210.0</ele>
        <time>2018-05-26T12:24:02.711Z</time>
      </trkpt>
      <trkpt lat="40.861035" lon="-4.08845333">
        <ele>1210.0</ele>
        <time>2018-05-26T12:24:03.677Z</time>
      </trkpt>
      <trkpt lat="40.86105333" lon="-4.088445">
        <ele>1209.0</ele>
        <time>2018-05-26T12:24:04.684Z</time>
      </trkpt>
      <trkpt lat="40.86105333" lon="-4.088445">
        <ele>1209.0</ele>
        <time>2018-05-26T12:24:05.691Z</time>
      </trkpt>
      <trkpt lat="40.86106833" lon="-4.08843833">
        <ele>1210.0</ele>
        <time>2018-05-26T12:24:06.699Z</time>
      </trkpt>
      <trkpt lat="40.86107667" lon="-4.08843667">
        <ele>1210.0</ele>
        <time>2018-05-26T12:24:07.682Z</time>
      </trkpt>
      <trkpt lat="40.86108667" lon="-4.08843667">
        <ele>1210.0</ele>
        <time>2018-05-26T12:24:08.689Z</time>
      </trkpt>
      <trkpt lat="40.86108667" lon="-4.08843667">
        <ele>1210.0</ele>
        <time>2018-05-26T12:24:09.695Z</time>
      </trkpt>
      <trkpt lat="40.86110167" lon="-4.08843333">
        <ele>1210.0</ele>
        <time>2018-05-26T12:24:10.679Z</time>
      </trkpt>
      <trkpt lat="40.86110167" lon="-4.08843333">
        <ele>1210.0</ele>
        <time>2018-05-26T12:24:11.686Z</time>
      </trkpt>
      <trkpt lat="40.86111667" lon="-4.08842833">
        <ele>1210.0</ele>
        <time>2018-05-26T12:24:12.704Z</time>
      </trkpt>
      <trkpt lat="40.86111667" lon="-4.08842833">
        <ele>1210.0</ele>
        <time>2018-05-26T12:24:13.710Z</time>
      </trkpt>
      <trkpt lat="40.86112333" lon="-4.08842667">
        <ele>1211.0</ele>
        <time>2018-05-26T12:24:14.699Z</time>
      </trkpt>
      <trkpt lat="40.86112667" lon="-4.088425">
        <ele>1211.0</ele>
        <time>2018-05-26T12:24:15.710Z</time>
      </trkpt>
      <trkpt lat="40.86112667" lon="-4.088425">
        <ele>1211.0</ele>
        <time>2018-05-26T12:24:16.676Z</time>
      </trkpt>
      <trkpt lat="40.86113667" lon="-4.08842167">
        <ele>1212.0</ele>
        <time>2018-05-26T12:24:17.710Z</time>
      </trkpt>
      <trkpt lat="40.86113667" lon="-4.08842167">
        <ele>1212.0</ele>
        <time>2018-05-26T12:24:18.676Z</time>
      </trkpt>
      <trkpt lat="40.86114667" lon="-4.088415">
        <ele>1211.0</ele>
        <time>2018-05-26T12:24:19.683Z</time>
      </trkpt>
      <trkpt lat="40.86114667" lon="-4.088415">
        <ele>1211.0</ele>
        <time>2018-05-26T12:24:20.690Z</time>
      </trkpt>
      <trkpt lat="40.86115333" lon="-4.08841167">
        <ele>1211.0</ele>
        <time>2018-05-26T12:24:21.699Z</time>
      </trkpt>
      <trkpt lat="40.86115333" lon="-4.08841167">
        <ele>1211.0</ele>
        <time>2018-05-26T12:24:22.710Z</time>
      </trkpt>
      <trkpt lat="40.86119" lon="-4.08839333">
        <ele>1212.0</ele>
        <time>2018-05-26T12:24:23.713Z</time>
      </trkpt>
      <trkpt lat="40.86119" lon="-4.08839333">
        <ele>1212.0</ele>
        <time>2018-05-26T12:24:24.705Z</time>
      </trkpt>
      <trkpt lat="40.86119" lon="-4.08839333">
        <ele>1212.0</ele>
        <time>2018-05-26T12:24:25.704Z</time>
      </trkpt>
      <trkpt lat="40.86121333" lon="-4.08837167">
        <ele>1213.0</ele>
        <time>2018-05-26T12:24:26.702Z</time>
      </trkpt>
      <trkpt lat="40.86121333" lon="-4.08837167">
        <ele>1213.0</ele>
        <time>2018-05-26T12:24:27.702Z</time>
      </trkpt>
      <trkpt lat="40.86124167" lon="-4.088345">
        <ele>1214.0</ele>
        <time>2018-05-26T12:24:28.701Z</time>
      </trkpt>
      <trkpt lat="40.86124167" lon="-4.088345">
        <ele>1214.0</ele>
        <time>2018-05-26T12:24:29.700Z</time>
      </trkpt>
      <trkpt lat="40.86125167" lon="-4.088335">
        <ele>1214.0</ele>
        <time>2018-05-26T12:24:30.693Z</time>
      </trkpt>
      <trkpt lat="40.86125167" lon="-4.088335">
        <ele>1214.0</ele>
        <time>2018-05-26T12:24:31.689Z</time>
      </trkpt>
      <trkpt lat="40.86125833" lon="-4.088325">
        <ele>1214.0</ele>
        <time>2018-05-26T12:24:32.680Z</time>
      </trkpt>
      <trkpt lat="40.86126167" lon="-4.08832">
        <ele>1214.0</ele>
        <time>2018-05-26T12:24:33.688Z</time>
      </trkpt>
      <trkpt lat="40.86126167" lon="-4.08832">
        <ele>1214.0</ele>
        <time>2018-05-26T12:24:34.694Z</time>
      </trkpt>
      <trkpt lat="40.86127333" lon="-4.08831167">
        <ele>1215.0</ele>
        <time>2018-05-26T12:24:35.679Z</time>
      </trkpt>
      <trkpt lat="40.86128167" lon="-4.08830333">
        <ele>1214.0</ele>
        <time>2018-05-26T12:24:36.687Z</time>
      </trkpt>
      <trkpt lat="40.86128167" lon="-4.08830333">
        <ele>1214.0</ele>
        <time>2018-05-26T12:24:37.693Z</time>
      </trkpt>
      <trkpt lat="40.86129167" lon="-4.08829">
        <ele>1214.0</ele>
        <time>2018-05-26T12:24:38.711Z</time>
      </trkpt>
      <trkpt lat="40.8613" lon="-4.08828333">
        <ele>1213.0</ele>
        <time>2018-05-26T12:24:39.682Z</time>
      </trkpt>
      <trkpt lat="40.8613" lon="-4.08828333">
        <ele>1213.0</ele>
        <time>2018-05-26T12:24:40.687Z</time>
      </trkpt>
      <trkpt lat="40.86131667" lon="-4.08826833">
        <ele>1213.0</ele>
        <time>2018-05-26T12:24:41.682Z</time>
      </trkpt>
      <trkpt lat="40.86132667" lon="-4.08826167">
        <ele>1212.0</ele>
        <time>2018-05-26T12:24:42.691Z</time>
      </trkpt>
      <trkpt lat="40.86132667" lon="-4.08826167">
        <ele>1212.0</ele>
        <time>2018-05-26T12:24:43.696Z</time>
      </trkpt>
      <trkpt lat="40.86134667" lon="-4.088245">
        <ele>1211.0</ele>
        <time>2018-05-26T12:24:44.687Z</time>
      </trkpt>
      <trkpt lat="40.86134667" lon="-4.088245">
        <ele>1211.0</ele>
        <time>2018-05-26T12:24:45.694Z</time>
      </trkpt>
      <trkpt lat="40.86136833" lon="-4.08823333">
        <ele>1211.0</ele>
        <time>2018-05-26T12:24:46.704Z</time>
      </trkpt>
      <trkpt lat="40.86136833" lon="-4.08823333">
        <ele>1211.0</ele>
        <time>2018-05-26T12:24:47.714Z</time>
      </trkpt>
      <trkpt lat="40.86139" lon="-4.08822333">
        <ele>1210.0</ele>
        <time>2018-05-26T12:24:48.707Z</time>
      </trkpt>
      <trkpt lat="40.86139" lon="-4.08822333">
        <ele>1210.0</ele>
        <time>2018-05-26T12:24:49.712Z</time>
      </trkpt>
      <trkpt lat="40.86141" lon="-4.08821833">
        <ele>1210.0</ele>
        <time>2018-05-26T12:24:50.682Z</time>
      </trkpt>
      <trkpt lat="40.86142167" lon="-4.088215">
        <ele>1210.0</ele>
        <time>2018-05-26T12:24:51.696Z</time>
      </trkpt>
      <trkpt lat="40.86142167" lon="-4.088215">
        <ele>1210.0</ele>
        <time>2018-05-26T12:24:52.703Z</time>
      </trkpt>
      <trkpt lat="40.86144" lon="-4.08821667">
        <ele>1210.0</ele>
        <time>2018-05-26T12:24:53.710Z</time>
      </trkpt>
      <trkpt lat="40.86144333" lon="-4.08821667">
        <ele>1210.0</ele>
        <time>2018-05-26T12:24:54.702Z</time>
      </trkpt>
      <trkpt lat="40.86144333" lon="-4.08821667">
        <ele>1210.0</ele>
        <time>2018-05-26T12:24:55.699Z</time>
      </trkpt>
      <trkpt lat="40.86151333" lon="-4.08824">
        <ele>1208.0</ele>
        <time>2018-05-26T12:24:56.678Z</time>
      </trkpt>
      <trkpt lat="40.86153667" lon="-4.08824333">
        <ele>1208.0</ele>
        <time>2018-05-26T12:24:57.685Z</time>
      </trkpt>
      <trkpt lat="40.86156167" lon="-4.08824667">
        <ele>1208.0</ele>
        <time>2018-05-26T12:24:58.692Z</time>
      </trkpt>
      <trkpt lat="40.86156167" lon="-4.08824667">
        <ele>1208.0</ele>
        <time>2018-05-26T12:24:59.698Z</time>
      </trkpt>
      <trkpt lat="40.86160833" lon="-4.08825333">
        <ele>1208.0</ele>
        <time>2018-05-26T12:25:00.685Z</time>
      </trkpt>
      <trkpt lat="40.86163333" lon="-4.08825667">
        <ele>1208.0</ele>
        <time>2018-05-26T12:25:01.692Z</time>
      </trkpt>
      <trkpt lat="40.86163333" lon="-4.08825667">
        <ele>1208.0</ele>
        <time>2018-05-26T12:25:02.708Z</time>
      </trkpt>
      <trkpt lat="40.86168" lon="-4.088265">
        <ele>1208.0</ele>
        <time>2018-05-26T12:25:03.693Z</time>
      </trkpt>
      <trkpt lat="40.86170333" lon="-4.08827167">
        <ele>1208.0</ele>
        <time>2018-05-26T12:25:04.677Z</time>
      </trkpt>
      <trkpt lat="40.86170333" lon="-4.08827167">
        <ele>1208.0</ele>
        <time>2018-05-26T12:25:05.703Z</time>
      </trkpt>
      <trkpt lat="40.86175" lon="-4.08828167">
        <ele>1208.0</ele>
        <time>2018-05-26T12:25:06.713Z</time>
      </trkpt>
      <trkpt lat="40.861775" lon="-4.08828167">
        <ele>1208.0</ele>
        <time>2018-05-26T12:25:07.707Z</time>
      </trkpt>
      <trkpt lat="40.861775" lon="-4.08828167">
        <ele>1208.0</ele>
        <time>2018-05-26T12:25:08.692Z</time>
      </trkpt>
      <trkpt lat="40.861825" lon="-4.088275">
        <ele>1208.0</ele>
        <time>2018-05-26T12:25:09.715Z</time>
      </trkpt>
      <trkpt lat="40.86185" lon="-4.08827">
        <ele>1209.0</ele>
        <time>2018-05-26T12:25:10.694Z</time>
      </trkpt>
      <trkpt lat="40.86185" lon="-4.08827">
        <ele>1209.0</ele>
        <time>2018-05-26T12:25:11.714Z</time>
      </trkpt>
      <trkpt lat="40.86189833" lon="-4.08825333">
        <ele>1209.0</ele>
        <time>2018-05-26T12:25:12.690Z</time>
      </trkpt>
      <trkpt lat="40.86189833" lon="-4.08825333">
        <ele>1209.0</ele>
        <time>2018-05-26T12:25:13.697Z</time>
      </trkpt>
      <trkpt lat="40.86194" lon="-4.08821833">
        <ele>1209.0</ele>
        <time>2018-05-26T12:25:14.704Z</time>
      </trkpt>
      <trkpt lat="40.86194" lon="-4.08821833">
        <ele>1209.0</ele>
        <time>2018-05-26T12:25:15.685Z</time>
      </trkpt>
      <trkpt lat="40.86197667" lon="-4.088175">
        <ele>1209.0</ele>
        <time>2018-05-26T12:25:16.683Z</time>
      </trkpt>
      <trkpt lat="40.86197667" lon="-4.088175">
        <ele>1209.0</ele>
        <time>2018-05-26T12:25:17.708Z</time>
      </trkpt>
      <trkpt lat="40.86201667" lon="-4.08813167">
        <ele>1209.0</ele>
        <time>2018-05-26T12:25:18.714Z</time>
      </trkpt>
      <trkpt lat="40.86201667" lon="-4.08813167">
        <ele>1209.0</ele>
        <time>2018-05-26T12:25:19.697Z</time>
      </trkpt>
      <trkpt lat="40.86205667" lon="-4.088085">
        <ele>1210.0</ele>
        <time>2018-05-26T12:25:20.693Z</time>
      </trkpt>
      <trkpt lat="40.86205667" lon="-4.088085">
        <ele>1210.0</ele>
        <time>2018-05-26T12:25:21.692Z</time>
      </trkpt>
      <trkpt lat="40.86209667" lon="-4.08803167">
        <ele>1210.0</ele>
        <time>2018-05-26T12:25:22.700Z</time>
      </trkpt>
      <trkpt lat="40.86209667" lon="-4.08803167">
        <ele>1210.0</ele>
        <time>2018-05-26T12:25:23.685Z</time>
      </trkpt>
      <trkpt lat="40.86213667" lon="-4.08797833">
        <ele>1210.0</ele>
        <time>2018-05-26T12:25:24.692Z</time>
      </trkpt>
      <trkpt lat="40.86213667" lon="-4.08797833">
        <ele>1210.0</ele>
        <time>2018-05-26T12:25:25.696Z</time>
      </trkpt>
      <trkpt lat="40.86219333" lon="-4.08795167">
        <ele>1210.0</ele>
        <time>2018-05-26T12:25:26.683Z</time>
      </trkpt>
      <trkpt lat="40.86219333" lon="-4.08795167">
        <ele>1210.0</ele>
        <time>2018-05-26T12:25:27.687Z</time>
      </trkpt>
      <trkpt lat="40.86224833" lon="-4.087915">
        <ele>1211.0</ele>
        <time>2018-05-26T12:25:28.721Z</time>
      </trkpt>
      <trkpt lat="40.86224833" lon="-4.087915">
        <ele>1211.0</ele>
        <time>2018-05-26T12:25:29.714Z</time>
      </trkpt>
      <trkpt lat="40.86228333" lon="-4.08785667">
        <ele>1211.0</ele>
        <time>2018-05-26T12:25:30.680Z</time>
      </trkpt>
      <trkpt lat="40.86228333" lon="-4.08785667">
        <ele>1211.0</ele>
        <time>2018-05-26T12:25:31.708Z</time>
      </trkpt>
      <trkpt lat="40.862315" lon="-4.087795">
        <ele>1211.0</ele>
        <time>2018-05-26T12:25:32.677Z</time>
      </trkpt>
      <trkpt lat="40.86233667" lon="-4.08776667">
        <ele>1211.0</ele>
        <time>2018-05-26T12:25:33.700Z</time>
      </trkpt>
      <trkpt lat="40.86236333" lon="-4.08774667">
        <ele>1211.0</ele>
        <time>2018-05-26T12:25:34.684Z</time>
      </trkpt>
      <trkpt lat="40.86236333" lon="-4.08774667">
        <ele>1211.0</ele>
        <time>2018-05-26T12:25:35.711Z</time>
      </trkpt>
      <trkpt lat="40.86243667" lon="-4.08773">
        <ele>1210.0</ele>
        <time>2018-05-26T12:25:36.678Z</time>
      </trkpt>
      <trkpt lat="40.86247667" lon="-4.087705">
        <ele>1209.0</ele>
        <time>2018-05-26T12:25:37.697Z</time>
      </trkpt>
      <trkpt lat="40.86247667" lon="-4.087705">
        <ele>1209.0</ele>
        <time>2018-05-26T12:25:38.696Z</time>
      </trkpt>
      <trkpt lat="40.86252833" lon="-4.08760667">
        <ele>1208.0</ele>
        <time>2018-05-26T12:25:39.703Z</time>
      </trkpt>
      <trkpt lat="40.86254667" lon="-4.08754167">
        <ele>1206.0</ele>
        <time>2018-05-26T12:25:40.694Z</time>
      </trkpt>
      <trkpt lat="40.86254667" lon="-4.08754167">
        <ele>1206.0</ele>
        <time>2018-05-26T12:25:41.700Z</time>
      </trkpt>
      <trkpt lat="40.86258167" lon="-4.08742">
        <ele>1205.0</ele>
        <time>2018-05-26T12:25:42.693Z</time>
      </trkpt>
      <trkpt lat="40.86258167" lon="-4.08742">
        <ele>1205.0</ele>
        <time>2018-05-26T12:25:43.691Z</time>
      </trkpt>
      <trkpt lat="40.86262833" lon="-4.08734167">
        <ele>1205.0</ele>
        <time>2018-05-26T12:25:44.697Z</time>
      </trkpt>
      <trkpt lat="40.86265167" lon="-4.08733167">
        <ele>1205.0</ele>
        <time>2018-05-26T12:25:45.688Z</time>
      </trkpt>
      <trkpt lat="40.86267167" lon="-4.08732167">
        <ele>1204.0</ele>
        <time>2018-05-26T12:25:46.675Z</time>
      </trkpt>
      <trkpt lat="40.86267167" lon="-4.08732167">
        <ele>1204.0</ele>
        <time>2018-05-26T12:25:47.695Z</time>
      </trkpt>
      <trkpt lat="40.86269333" lon="-4.087315">
        <ele>1204.0</ele>
        <time>2018-05-26T12:25:48.691Z</time>
      </trkpt>
      <trkpt lat="40.86269333" lon="-4.087315">
        <ele>1204.0</ele>
        <time>2018-05-26T12:25:49.704Z</time>
      </trkpt>
      <trkpt lat="40.86271167" lon="-4.08732167">
        <ele>1204.0</ele>
        <time>2018-05-26T12:25:50.711Z</time>
      </trkpt>
      <trkpt lat="40.86272167" lon="-4.08732">
        <ele>1204.0</ele>
        <time>2018-05-26T12:25:51.691Z</time>
      </trkpt>
      <trkpt lat="40.86272167" lon="-4.08732">
        <ele>1204.0</ele>
        <time>2018-05-26T12:25:52.683Z</time>
      </trkpt>
      <trkpt lat="40.86273833" lon="-4.08731333">
        <ele>1204.0</ele>
        <time>2018-05-26T12:25:53.682Z</time>
      </trkpt>
      <trkpt lat="40.86273833" lon="-4.08731333">
        <ele>1204.0</ele>
        <time>2018-05-26T12:25:54.682Z</time>
      </trkpt>
      <trkpt lat="40.86275333" lon="-4.087305">
        <ele>1204.0</ele>
        <time>2018-05-26T12:25:55.712Z</time>
      </trkpt>
      <trkpt lat="40.86275833" lon="-4.0873">
        <ele>1205.0</ele>
        <time>2018-05-26T12:25:56.707Z</time>
      </trkpt>
      <trkpt lat="40.86275833" lon="-4.0873">
        <ele>1205.0</ele>
        <time>2018-05-26T12:25:57.707Z</time>
      </trkpt>
      <trkpt lat="40.86276667" lon="-4.087295">
        <ele>1205.0</ele>
        <time>2018-05-26T12:25:58.713Z</time>
      </trkpt>
      <trkpt lat="40.86277667" lon="-4.08728667">
        <ele>1206.0</ele>
        <time>2018-05-26T12:25:59.690Z</time>
      </trkpt>
      <trkpt lat="40.86278167" lon="-4.087285">
        <ele>1206.0</ele>
        <time>2018-05-26T12:26:00.683Z</time>
      </trkpt>
      <trkpt lat="40.86278167" lon="-4.087285">
        <ele>1206.0</ele>
        <time>2018-05-26T12:26:01.675Z</time>
      </trkpt>
      <trkpt lat="40.86279333" lon="-4.08728">
        <ele>1207.0</ele>
        <time>2018-05-26T12:26:02.680Z</time>
      </trkpt>
      <trkpt lat="40.86279833" lon="-4.08727667">
        <ele>1207.0</ele>
        <time>2018-05-26T12:26:03.694Z</time>
      </trkpt>
      <trkpt lat="40.86279833" lon="-4.08727667">
        <ele>1207.0</ele>
        <time>2018-05-26T12:26:04.700Z</time>
      </trkpt>
      <trkpt lat="40.86281" lon="-4.08727333">
        <ele>1208.0</ele>
        <time>2018-05-26T12:26:05.685Z</time>
      </trkpt>
      <trkpt lat="40.862815" lon="-4.08727">
        <ele>1208.0</ele>
        <time>2018-05-26T12:26:06.711Z</time>
      </trkpt>
      <trkpt lat="40.862815" lon="-4.08727">
        <ele>1208.0</ele>
        <time>2018-05-26T12:26:07.677Z</time>
      </trkpt>
      <trkpt lat="40.862825" lon="-4.08726667">
        <ele>1209.0</ele>
        <time>2018-05-26T12:26:08.691Z</time>
      </trkpt>
      <trkpt lat="40.86283" lon="-4.087265">
        <ele>1209.0</ele>
        <time>2018-05-26T12:26:09.685Z</time>
      </trkpt>
      <trkpt lat="40.86283" lon="-4.087265">
        <ele>1209.0</ele>
        <time>2018-05-26T12:26:10.692Z</time>
      </trkpt>
      <trkpt lat="40.862845" lon="-4.08726">
        <ele>1209.0</ele>
        <time>2018-05-26T12:26:11.699Z</time>
      </trkpt>
      <trkpt lat="40.862845" lon="-4.08726">
        <ele>1209.0</ele>
        <time>2018-05-26T12:26:12.707Z</time>
      </trkpt>
      <trkpt lat="40.86286" lon="-4.08725333">
        <ele>1209.0</ele>
        <time>2018-05-26T12:26:13.676Z</time>
      </trkpt>
      <trkpt lat="40.86286" lon="-4.08725333">
        <ele>1209.0</ele>
        <time>2018-05-26T12:26:14.682Z</time>
      </trkpt>
      <trkpt lat="40.86288" lon="-4.087255">
        <ele>1210.0</ele>
        <time>2018-05-26T12:26:15.691Z</time>
      </trkpt>
      <trkpt lat="40.86288" lon="-4.087255">
        <ele>1210.0</ele>
        <time>2018-05-26T12:26:16.682Z</time>
      </trkpt>
      <trkpt lat="40.86289833" lon="-4.08727167">
        <ele>1211.0</ele>
        <time>2018-05-26T12:26:17.701Z</time>
      </trkpt>
      <trkpt lat="40.86289833" lon="-4.08727167">
        <ele>1211.0</ele>
        <time>2018-05-26T12:26:18.710Z</time>
      </trkpt>
      <trkpt lat="40.86292167" lon="-4.08728333">
        <ele>1211.0</ele>
        <time>2018-05-26T12:26:19.677Z</time>
      </trkpt>
      <trkpt lat="40.86293167" lon="-4.08728667">
        <ele>1211.0</ele>
        <time>2018-05-26T12:26:20.686Z</time>
      </trkpt>
      <trkpt lat="40.86293167" lon="-4.08728667">
        <ele>1211.0</ele>
        <time>2018-05-26T12:26:21.692Z</time>
      </trkpt>
      <trkpt lat="40.86295" lon="-4.0873">
        <ele>1211.0</ele>
        <time>2018-05-26T12:26:22.699Z</time>
      </trkpt>
      <trkpt lat="40.86295" lon="-4.0873">
        <ele>1211.0</ele>
        <time>2018-05-26T12:26:23.707Z</time>
      </trkpt>
      <trkpt lat="40.86295333" lon="-4.08730333">
        <ele>1211.0</ele>
        <time>2018-05-26T12:26:24.710Z</time>
      </trkpt>
      <trkpt lat="40.86300833" lon="-4.08739667">
        <ele>1212.0</ele>
        <time>2018-05-26T12:26:25.700Z</time>
      </trkpt>
      <trkpt lat="40.86300833" lon="-4.08739667">
        <ele>1212.0</ele>
        <time>2018-05-26T12:26:26.690Z</time>
      </trkpt>
      <trkpt lat="40.86303" lon="-4.087425">
        <ele>1212.0</ele>
        <time>2018-05-26T12:26:27.679Z</time>
      </trkpt>
      <trkpt lat="40.86304167" lon="-4.08744167">
        <ele>1212.0</ele>
        <time>2018-05-26T12:26:28.710Z</time>
      </trkpt>
      <trkpt lat="40.86304167" lon="-4.08744167">
        <ele>1212.0</ele>
        <time>2018-05-26T12:26:29.676Z</time>
      </trkpt>
      <trkpt lat="40.86306333" lon="-4.08747333">
        <ele>1212.0</ele>
        <time>2018-05-26T12:26:30.695Z</time>
      </trkpt>
      <trkpt lat="40.86307667" lon="-4.08749167">
        <ele>1212.0</ele>
        <time>2018-05-26T12:26:31.677Z</time>
      </trkpt>
      <trkpt lat="40.86309" lon="-4.08751">
        <ele>1212.0</ele>
        <time>2018-05-26T12:26:32.693Z</time>
      </trkpt>
      <trkpt lat="40.86309" lon="-4.08751">
        <ele>1212.0</ele>
        <time>2018-05-26T12:26:33.682Z</time>
      </trkpt>
      <trkpt lat="40.86312167" lon="-4.08753">
        <ele>1213.0</ele>
        <time>2018-05-26T12:26:34.689Z</time>
      </trkpt>
      <trkpt lat="40.86313667" lon="-4.087535">
        <ele>1213.0</ele>
        <time>2018-05-26T12:26:35.707Z</time>
      </trkpt>
      <trkpt lat="40.86315167" lon="-4.08754">
        <ele>1213.0</ele>
        <time>2018-05-26T12:26:36.675Z</time>
      </trkpt>
      <trkpt lat="40.86315167" lon="-4.08754">
        <ele>1213.0</ele>
        <time>2018-05-26T12:26:37.703Z</time>
      </trkpt>
      <trkpt lat="40.86318167" lon="-4.08754667">
        <ele>1214.0</ele>
        <time>2018-05-26T12:26:38.707Z</time>
      </trkpt>
      <trkpt lat="40.86319833" lon="-4.08755">
        <ele>1214.0</ele>
        <time>2018-05-26T12:26:39.719Z</time>
      </trkpt>
      <trkpt lat="40.86319833" lon="-4.08755">
        <ele>1214.0</ele>
        <time>2018-05-26T12:26:40.699Z</time>
      </trkpt>
      <trkpt lat="40.86322833" lon="-4.08755167">
        <ele>1215.0</ele>
        <time>2018-05-26T12:26:41.707Z</time>
      </trkpt>
      <trkpt lat="40.86322833" lon="-4.08755167">
        <ele>1215.0</ele>
        <time>2018-05-26T12:26:42.695Z</time>
      </trkpt>
      <trkpt lat="40.86325667" lon="-4.087555">
        <ele>1215.0</ele>
        <time>2018-05-26T12:26:43.682Z</time>
      </trkpt>
      <trkpt lat="40.86325667" lon="-4.087555">
        <ele>1215.0</ele>
        <time>2018-05-26T12:26:44.705Z</time>
      </trkpt>
      <trkpt lat="40.86328667" lon="-4.08756">
        <ele>1216.0</ele>
        <time>2018-05-26T12:26:45.712Z</time>
      </trkpt>
      <trkpt lat="40.86329833" lon="-4.08756333">
        <ele>1216.0</ele>
        <time>2018-05-26T12:26:46.682Z</time>
      </trkpt>
      <trkpt lat="40.86329833" lon="-4.08756333">
        <ele>1216.0</ele>
        <time>2018-05-26T12:26:47.684Z</time>
      </trkpt>
      <trkpt lat="40.86332" lon="-4.08756667">
        <ele>1216.0</ele>
        <time>2018-05-26T12:26:48.696Z</time>
      </trkpt>
      <trkpt lat="40.86332" lon="-4.08756667">
        <ele>1216.0</ele>
        <time>2018-05-26T12:26:49.677Z</time>
      </trkpt>
      <trkpt lat="40.86334" lon="-4.08754833">
        <ele>1216.0</ele>
        <time>2018-05-26T12:26:50.712Z</time>
      </trkpt>
      <trkpt lat="40.86334" lon="-4.08754833">
        <ele>1216.0</ele>
        <time>2018-05-26T12:26:51.696Z</time>
      </trkpt>
      <trkpt lat="40.86337" lon="-4.08753667">
        <ele>1217.0</ele>
        <time>2018-05-26T12:26:52.703Z</time>
      </trkpt>
      <trkpt lat="40.86337" lon="-4.08753667">
        <ele>1217.0</ele>
        <time>2018-05-26T12:26:53.687Z</time>
      </trkpt>
      <trkpt lat="40.8634" lon="-4.08753833">
        <ele>1217.0</ele>
        <time>2018-05-26T12:26:54.683Z</time>
      </trkpt>
      <trkpt lat="40.863415" lon="-4.08754833">
        <ele>1217.0</ele>
        <time>2018-05-26T12:26:55.675Z</time>
      </trkpt>
      <trkpt lat="40.863415" lon="-4.08754833">
        <ele>1217.0</ele>
        <time>2018-05-26T12:26:56.698Z</time>
      </trkpt>
      <trkpt lat="40.86344667" lon="-4.08758167">
        <ele>1217.0</ele>
        <time>2018-05-26T12:26:57.679Z</time>
      </trkpt>
      <trkpt lat="40.86344667" lon="-4.08758167">
        <ele>1217.0</ele>
        <time>2018-05-26T12:26:58.714Z</time>
      </trkpt>
      <trkpt lat="40.86347333" lon="-4.08762">
        <ele>1218.0</ele>
        <time>2018-05-26T12:26:59.680Z</time>
      </trkpt>
      <trkpt lat="40.86347333" lon="-4.08762">
        <ele>1218.0</ele>
        <time>2018-05-26T12:27:00.706Z</time>
      </trkpt>
      <trkpt lat="40.86350833" lon="-4.08765167">
        <ele>1218.0</ele>
        <time>2018-05-26T12:27:01.678Z</time>
      </trkpt>
      <trkpt lat="40.86350833" lon="-4.08765167">
        <ele>1218.0</ele>
        <time>2018-05-26T12:27:02.697Z</time>
      </trkpt>
      <trkpt lat="40.86355167" lon="-4.08766667">
        <ele>1218.0</ele>
        <time>2018-05-26T12:27:03.704Z</time>
      </trkpt>
      <trkpt lat="40.86357167" lon="-4.08767333">
        <ele>1218.0</ele>
        <time>2018-05-26T12:27:04.682Z</time>
      </trkpt>
      <trkpt lat="40.86357167" lon="-4.08767333">
        <ele>1218.0</ele>
        <time>2018-05-26T12:27:05.712Z</time>
      </trkpt>
      <trkpt lat="40.863615" lon="-4.08768833">
        <ele>1219.0</ele>
        <time>2018-05-26T12:27:06.686Z</time>
      </trkpt>
      <trkpt lat="40.86363833" lon="-4.087695">
        <ele>1219.0</ele>
        <time>2018-05-26T12:27:07.675Z</time>
      </trkpt>
      <trkpt lat="40.86363833" lon="-4.087695">
        <ele>1219.0</ele>
        <time>2018-05-26T12:27:08.683Z</time>
      </trkpt>
      <trkpt lat="40.86368167" lon="-4.08770333">
        <ele>1219.0</ele>
        <time>2018-05-26T12:27:09.690Z</time>
      </trkpt>
      <trkpt lat="40.863705" lon="-4.08770667">
        <ele>1219.0</ele>
        <time>2018-05-26T12:27:10.676Z</time>
      </trkpt>
      <trkpt lat="40.863705" lon="-4.08770667">
        <ele>1219.0</ele>
        <time>2018-05-26T12:27:11.714Z</time>
      </trkpt>
      <trkpt lat="40.86375167" lon="-4.08771333">
        <ele>1220.0</ele>
        <time>2018-05-26T12:27:12.685Z</time>
      </trkpt>
      <trkpt lat="40.86377333" lon="-4.08771667">
        <ele>1220.0</ele>
        <time>2018-05-26T12:27:13.705Z</time>
      </trkpt>
      <trkpt lat="40.86377333" lon="-4.08771667">
        <ele>1220.0</ele>
        <time>2018-05-26T12:27:14.690Z</time>
      </trkpt>
      <trkpt lat="40.86381667" lon="-4.087725">
        <ele>1220.0</ele>
        <time>2018-05-26T12:27:15.698Z</time>
      </trkpt>
      <trkpt lat="40.86381667" lon="-4.087725">
        <ele>1220.0</ele>
        <time>2018-05-26T12:27:16.714Z</time>
      </trkpt>
      <trkpt lat="40.86385667" lon="-4.08772667">
        <ele>1221.0</ele>
        <time>2018-05-26T12:27:17.675Z</time>
      </trkpt>
      <trkpt lat="40.86385667" lon="-4.08772667">
        <ele>1221.0</ele>
        <time>2018-05-26T12:27:18.675Z</time>
      </trkpt>
      <trkpt lat="40.86390333" lon="-4.087725">
        <ele>1221.0</ele>
        <time>2018-05-26T12:27:19.687Z</time>
      </trkpt>
      <trkpt lat="40.863925" lon="-4.08772333">
        <ele>1222.0</ele>
        <time>2018-05-26T12:27:20.687Z</time>
      </trkpt>
      <trkpt lat="40.863925" lon="-4.08772333">
        <ele>1222.0</ele>
        <time>2018-05-26T12:27:21.685Z</time>
      </trkpt>
      <trkpt lat="40.86396667" lon="-4.08771833">
        <ele>1222.0</ele>
        <time>2018-05-26T12:27:22.692Z</time>
      </trkpt>
      <trkpt lat="40.86399" lon="-4.08771333">
        <ele>1223.0</ele>
        <time>2018-05-26T12:27:23.683Z</time>
      </trkpt>
      <trkpt lat="40.86399" lon="-4.08771333">
        <ele>1223.0</ele>
        <time>2018-05-26T12:27:24.706Z</time>
      </trkpt>
      <trkpt lat="40.86403333" lon="-4.087695">
        <ele>1223.0</ele>
        <time>2018-05-26T12:27:25.713Z</time>
      </trkpt>
      <trkpt lat="40.86403333" lon="-4.087695">
        <ele>1223.0</ele>
        <time>2018-05-26T12:27:26.699Z</time>
      </trkpt>
      <trkpt lat="40.86407667" lon="-4.087675">
        <ele>1224.0</ele>
        <time>2018-05-26T12:27:27.682Z</time>
      </trkpt>
      <trkpt lat="40.86407667" lon="-4.087675">
        <ele>1224.0</ele>
        <time>2018-05-26T12:27:28.713Z</time>
      </trkpt>
      <trkpt lat="40.86411833" lon="-4.087665">
        <ele>1224.0</ele>
        <time>2018-05-26T12:27:29.685Z</time>
      </trkpt>
      <trkpt lat="40.86411833" lon="-4.087665">
        <ele>1224.0</ele>
        <time>2018-05-26T12:27:30.710Z</time>
      </trkpt>
      <trkpt lat="40.86415667" lon="-4.087655">
        <ele>1224.0</ele>
        <time>2018-05-26T12:27:31.682Z</time>
      </trkpt>
      <trkpt lat="40.86415667" lon="-4.087655">
        <ele>1224.0</ele>
        <time>2018-05-26T12:27:32.714Z</time>
      </trkpt>
      <trkpt lat="40.86419833" lon="-4.08764167">
        <ele>1225.0</ele>
        <time>2018-05-26T12:27:33.686Z</time>
      </trkpt>
      <trkpt lat="40.86422167" lon="-4.087635">
        <ele>1225.0</ele>
        <time>2018-05-26T12:27:34.678Z</time>
      </trkpt>
      <trkpt lat="40.86422167" lon="-4.087635">
        <ele>1225.0</ele>
        <time>2018-05-26T12:27:35.698Z</time>
      </trkpt>
      <trkpt lat="40.86427" lon="-4.08762833">
        <ele>1225.0</ele>
        <time>2018-05-26T12:27:36.710Z</time>
      </trkpt>
      <trkpt lat="40.864295" lon="-4.08762667">
        <ele>1225.0</ele>
        <time>2018-05-26T12:27:37.702Z</time>
      </trkpt>
      <trkpt lat="40.864295" lon="-4.08762667">
        <ele>1225.0</ele>
        <time>2018-05-26T12:27:38.694Z</time>
      </trkpt>
      <trkpt lat="40.86434167" lon="-4.08762">
        <ele>1226.0</ele>
        <time>2018-05-26T12:27:39.701Z</time>
      </trkpt>
      <trkpt lat="40.86434167" lon="-4.08762">
        <ele>1226.0</ele>
        <time>2018-05-26T12:27:40.686Z</time>
      </trkpt>
      <trkpt lat="40.86438667" lon="-4.08761833">
        <ele>1226.0</ele>
        <time>2018-05-26T12:27:41.718Z</time>
      </trkpt>
      <trkpt lat="40.86438667" lon="-4.08761833">
        <ele>1226.0</ele>
        <time>2018-05-26T12:27:42.685Z</time>
      </trkpt>
      <trkpt lat="40.86443167" lon="-4.08761833">
        <ele>1227.0</ele>
        <time>2018-05-26T12:27:43.692Z</time>
      </trkpt>
      <trkpt lat="40.86443167" lon="-4.08761833">
        <ele>1227.0</ele>
        <time>2018-05-26T12:27:44.692Z</time>
      </trkpt>
      <trkpt lat="40.86447833" lon="-4.08762">
        <ele>1228.0</ele>
        <time>2018-05-26T12:27:45.690Z</time>
      </trkpt>
      <trkpt lat="40.86447833" lon="-4.08762">
        <ele>1228.0</ele>
        <time>2018-05-26T12:27:46.711Z</time>
      </trkpt>
      <trkpt lat="40.86452667" lon="-4.08762833">
        <ele>1228.0</ele>
        <time>2018-05-26T12:27:47.678Z</time>
      </trkpt>
      <trkpt lat="40.86452667" lon="-4.08762833">
        <ele>1228.0</ele>
        <time>2018-05-26T12:27:48.709Z</time>
      </trkpt>
      <trkpt lat="40.86457667" lon="-4.08764">
        <ele>1228.0</ele>
        <time>2018-05-26T12:27:49.702Z</time>
      </trkpt>
      <trkpt lat="40.86457667" lon="-4.08764">
        <ele>1228.0</ele>
        <time>2018-05-26T12:27:50.706Z</time>
      </trkpt>
      <trkpt lat="40.86462833" lon="-4.08764833">
        <ele>1229.0</ele>
        <time>2018-05-26T12:27:51.712Z</time>
      </trkpt>
      <trkpt lat="40.86462833" lon="-4.08764833">
        <ele>1229.0</ele>
        <time>2018-05-26T12:27:52.689Z</time>
      </trkpt>
      <trkpt lat="40.86468167" lon="-4.08766167">
        <ele>1229.0</ele>
        <time>2018-05-26T12:27:53.686Z</time>
      </trkpt>
      <trkpt lat="40.86468167" lon="-4.08766167">
        <ele>1229.0</ele>
        <time>2018-05-26T12:27:54.691Z</time>
      </trkpt>
      <trkpt lat="40.864735" lon="-4.08767833">
        <ele>1230.0</ele>
        <time>2018-05-26T12:27:55.699Z</time>
      </trkpt>
      <trkpt lat="40.864735" lon="-4.08767833">
        <ele>1230.0</ele>
        <time>2018-05-26T12:27:56.684Z</time>
      </trkpt>
      <trkpt lat="40.86479" lon="-4.087695">
        <ele>1230.0</ele>
        <time>2018-05-26T12:27:57.682Z</time>
      </trkpt>
      <trkpt lat="40.86479" lon="-4.087695">
        <ele>1230.0</ele>
        <time>2018-05-26T12:27:58.709Z</time>
      </trkpt>
      <trkpt lat="40.86485" lon="-4.087715">
        <ele>1230.0</ele>
        <time>2018-05-26T12:27:59.675Z</time>
      </trkpt>
      <trkpt lat="40.86488" lon="-4.087725">
        <ele>1230.0</ele>
        <time>2018-05-26T12:28:00.710Z</time>
      </trkpt>
      <trkpt lat="40.86491" lon="-4.087735">
        <ele>1231.0</ele>
        <time>2018-05-26T12:28:01.676Z</time>
      </trkpt>
      <trkpt lat="40.86491" lon="-4.087735">
        <ele>1231.0</ele>
        <time>2018-05-26T12:28:02.702Z</time>
      </trkpt>
      <trkpt lat="40.86497" lon="-4.08775167">
        <ele>1231.0</ele>
        <time>2018-05-26T12:28:03.687Z</time>
      </trkpt>
      <trkpt lat="40.865" lon="-4.08776">
        <ele>1231.0</ele>
        <time>2018-05-26T12:28:04.685Z</time>
      </trkpt>
      <trkpt lat="40.865" lon="-4.08776">
        <ele>1231.0</ele>
        <time>2018-05-26T12:28:05.710Z</time>
      </trkpt>
      <trkpt lat="40.865065" lon="-4.08778">
        <ele>1232.0</ele>
        <time>2018-05-26T12:28:06.692Z</time>
      </trkpt>
      <trkpt lat="40.86509667" lon="-4.08778833">
        <ele>1232.0</ele>
        <time>2018-05-26T12:28:07.684Z</time>
      </trkpt>
      <trkpt lat="40.86509667" lon="-4.08778833">
        <ele>1232.0</ele>
        <time>2018-05-26T12:28:08.711Z</time>
      </trkpt>
      <trkpt lat="40.86516667" lon="-4.08780167">
        <ele>1232.0</ele>
        <time>2018-05-26T12:28:09.714Z</time>
      </trkpt>
      <trkpt lat="40.86520167" lon="-4.08781">
        <ele>1232.0</ele>
        <time>2018-05-26T12:28:10.694Z</time>
      </trkpt>
      <trkpt lat="40.86520167" lon="-4.08781">
        <ele>1232.0</ele>
        <time>2018-05-26T12:28:11.684Z</time>
      </trkpt>
      <trkpt lat="40.86527167" lon="-4.08781833">
        <ele>1232.0</ele>
        <time>2018-05-26T12:28:12.707Z</time>
      </trkpt>
      <trkpt lat="40.86530667" lon="-4.08782167">
        <ele>1233.0</ele>
        <time>2018-05-26T12:28:13.688Z</time>
      </trkpt>
      <trkpt lat="40.86530667" lon="-4.08782167">
        <ele>1233.0</ele>
        <time>2018-05-26T12:28:14.701Z</time>
      </trkpt>
      <trkpt lat="40.86537333" lon="-4.08783">
        <ele>1233.0</ele>
        <time>2018-05-26T12:28:15.707Z</time>
      </trkpt>
      <trkpt lat="40.86540833" lon="-4.087835">
        <ele>1232.0</ele>
        <time>2018-05-26T12:28:16.682Z</time>
      </trkpt>
      <trkpt lat="40.86540833" lon="-4.087835">
        <ele>1232.0</ele>
        <time>2018-05-26T12:28:17.686Z</time>
      </trkpt>
      <trkpt lat="40.86548167" lon="-4.08784833">
        <ele>1232.0</ele>
        <time>2018-05-26T12:28:18.692Z</time>
      </trkpt>
      <trkpt lat="40.86552" lon="-4.087855">
        <ele>1232.0</ele>
        <time>2018-05-26T12:28:19.692Z</time>
      </trkpt>
      <trkpt lat="40.86552" lon="-4.087855">
        <ele>1232.0</ele>
        <time>2018-05-26T12:28:20.675Z</time>
      </trkpt>
      <trkpt lat="40.865595" lon="-4.087875">
        <ele>1232.0</ele>
        <time>2018-05-26T12:28:21.684Z</time>
      </trkpt>
      <trkpt lat="40.865595" lon="-4.087875">
        <ele>1232.0</ele>
        <time>2018-05-26T12:28:22.709Z</time>
      </trkpt>
      <trkpt lat="40.86568167" lon="-4.08788833">
        <ele>1231.0</ele>
        <time>2018-05-26T12:28:23.682Z</time>
      </trkpt>
      <trkpt lat="40.86572667" lon="-4.08788167">
        <ele>1231.0</ele>
        <time>2018-05-26T12:28:24.707Z</time>
      </trkpt>
      <trkpt lat="40.86572667" lon="-4.08788167">
        <ele>1231.0</ele>
        <time>2018-05-26T12:28:25.692Z</time>
      </trkpt>
      <trkpt lat="40.865825" lon="-4.08785167">
        <ele>1231.0</ele>
        <time>2018-05-26T12:28:26.712Z</time>
      </trkpt>
      <trkpt lat="40.865875" lon="-4.08782833">
        <ele>1230.0</ele>
        <time>2018-05-26T12:28:27.689Z</time>
      </trkpt>
      <trkpt lat="40.865875" lon="-4.08782833">
        <ele>1230.0</ele>
        <time>2018-05-26T12:28:28.713Z</time>
      </trkpt>
      <trkpt lat="40.865955" lon="-4.08780833">
        <ele>1230.0</ele>
        <time>2018-05-26T12:28:29.687Z</time>
      </trkpt>
      <trkpt lat="40.865955" lon="-4.08780833">
        <ele>1230.0</ele>
        <time>2018-05-26T12:28:30.692Z</time>
      </trkpt>
      <trkpt lat="40.86603333" lon="-4.08779833">
        <ele>1231.0</ele>
        <time>2018-05-26T12:28:31.698Z</time>
      </trkpt>
      <trkpt lat="40.86603333" lon="-4.08779833">
        <ele>1231.0</ele>
        <time>2018-05-26T12:28:32.714Z</time>
      </trkpt>
      <trkpt lat="40.86611333" lon="-4.08779667">
        <ele>1232.0</ele>
        <time>2018-05-26T12:28:33.679Z</time>
      </trkpt>
      <trkpt lat="40.86611333" lon="-4.08779667">
        <ele>1232.0</ele>
        <time>2018-05-26T12:28:34.685Z</time>
      </trkpt>
      <trkpt lat="40.86619333" lon="-4.08779667">
        <ele>1232.0</ele>
        <time>2018-05-26T12:28:35.693Z</time>
      </trkpt>
      <trkpt lat="40.86623333" lon="-4.087795">
        <ele>1233.0</ele>
        <time>2018-05-26T12:28:36.708Z</time>
      </trkpt>
      <trkpt lat="40.86623333" lon="-4.087795">
        <ele>1233.0</ele>
        <time>2018-05-26T12:28:37.706Z</time>
      </trkpt>
      <trkpt lat="40.86631333" lon="-4.087785">
        <ele>1233.0</ele>
        <time>2018-05-26T12:28:38.687Z</time>
      </trkpt>
      <trkpt lat="40.86631333" lon="-4.087785">
        <ele>1233.0</ele>
        <time>2018-05-26T12:28:39.712Z</time>
      </trkpt>
      <trkpt lat="40.86639333" lon="-4.08778667">
        <ele>1234.0</ele>
        <time>2018-05-26T12:28:40.713Z</time>
      </trkpt>
      <trkpt lat="40.86639333" lon="-4.08778667">
        <ele>1234.0</ele>
        <time>2018-05-26T12:28:41.683Z</time>
      </trkpt>
      <trkpt lat="40.86647833" lon="-4.08778833">
        <ele>1233.0</ele>
        <time>2018-05-26T12:28:42.692Z</time>
      </trkpt>
      <trkpt lat="40.86647833" lon="-4.08778833">
        <ele>1233.0</ele>
        <time>2018-05-26T12:28:43.679Z</time>
      </trkpt>
      <trkpt lat="40.86656" lon="-4.08779667">
        <ele>1233.0</ele>
        <time>2018-05-26T12:28:44.675Z</time>
      </trkpt>
      <trkpt lat="40.86656" lon="-4.08779667">
        <ele>1233.0</ele>
        <time>2018-05-26T12:28:45.697Z</time>
      </trkpt>
      <trkpt lat="40.866645" lon="-4.08781167">
        <ele>1234.0</ele>
        <time>2018-05-26T12:28:46.703Z</time>
      </trkpt>
      <trkpt lat="40.866645" lon="-4.08781167">
        <ele>1234.0</ele>
        <time>2018-05-26T12:28:47.688Z</time>
      </trkpt>
      <trkpt lat="40.86673333" lon="-4.08782833">
        <ele>1234.0</ele>
        <time>2018-05-26T12:28:48.679Z</time>
      </trkpt>
      <trkpt lat="40.86677667" lon="-4.08783833">
        <ele>1235.0</ele>
        <time>2018-05-26T12:28:49.709Z</time>
      </trkpt>
      <trkpt lat="40.86677667" lon="-4.08783833">
        <ele>1235.0</ele>
        <time>2018-05-26T12:28:50.695Z</time>
      </trkpt>
      <trkpt lat="40.866865" lon="-4.08785667">
        <ele>1235.0</ele>
        <time>2018-05-26T12:28:51.680Z</time>
      </trkpt>
      <trkpt lat="40.86691" lon="-4.08786333">
        <ele>1235.0</ele>
        <time>2018-05-26T12:28:52.689Z</time>
      </trkpt>
      <trkpt lat="40.86691" lon="-4.08786333">
        <ele>1235.0</ele>
        <time>2018-05-26T12:28:53.676Z</time>
      </trkpt>
      <trkpt lat="40.86700167" lon="-4.08787167">
        <ele>1235.0</ele>
        <time>2018-05-26T12:28:54.675Z</time>
      </trkpt>
      <trkpt lat="40.86704833" lon="-4.08787333">
        <ele>1235.0</ele>
        <time>2018-05-26T12:28:55.691Z</time>
      </trkpt>
      <trkpt lat="40.86704833" lon="-4.08787333">
        <ele>1235.0</ele>
        <time>2018-05-26T12:28:56.680Z</time>
      </trkpt>
      <trkpt lat="40.86714167" lon="-4.08787833">
        <ele>1236.0</ele>
        <time>2018-05-26T12:28:57.702Z</time>
      </trkpt>
      <trkpt lat="40.86718667" lon="-4.08788">
        <ele>1236.0</ele>
        <time>2018-05-26T12:28:58.686Z</time>
      </trkpt>
      <trkpt lat="40.86718667" lon="-4.08788">
        <ele>1236.0</ele>
        <time>2018-05-26T12:28:59.711Z</time>
      </trkpt>
      <trkpt lat="40.86727833" lon="-4.08788167">
        <ele>1235.0</ele>
        <time>2018-05-26T12:29:00.680Z</time>
      </trkpt>
      <trkpt lat="40.86732333" lon="-4.087885">
        <ele>1235.0</ele>
        <time>2018-05-26T12:29:01.712Z</time>
      </trkpt>
      <trkpt lat="40.86732333" lon="-4.087885">
        <ele>1235.0</ele>
        <time>2018-05-26T12:29:02.691Z</time>
      </trkpt>
      <trkpt lat="40.86741167" lon="-4.08788833">
        <ele>1235.0</ele>
        <time>2018-05-26T12:29:03.682Z</time>
      </trkpt>
      <trkpt lat="40.86741167" lon="-4.08788833">
        <ele>1235.0</ele>
        <time>2018-05-26T12:29:04.683Z</time>
      </trkpt>
      <trkpt lat="40.86749667" lon="-4.08788667">
        <ele>1235.0</ele>
        <time>2018-05-26T12:29:05.692Z</time>
      </trkpt>
      <trkpt lat="40.86753667" lon="-4.087885">
        <ele>1235.0</ele>
        <time>2018-05-26T12:29:06.675Z</time>
      </trkpt>
      <trkpt lat="40.86753667" lon="-4.087885">
        <ele>1235.0</ele>
        <time>2018-05-26T12:29:07.701Z</time>
      </trkpt>
      <trkpt lat="40.867625" lon="-4.087885">
        <ele>1235.0</ele>
        <time>2018-05-26T12:29:08.707Z</time>
      </trkpt>
      <trkpt lat="40.867625" lon="-4.087885">
        <ele>1235.0</ele>
        <time>2018-05-26T12:29:09.696Z</time>
      </trkpt>
      <trkpt lat="40.86770667" lon="-4.08789667">
        <ele>1235.0</ele>
        <time>2018-05-26T12:29:10.680Z</time>
      </trkpt>
      <trkpt lat="40.86770667" lon="-4.08789667">
        <ele>1235.0</ele>
        <time>2018-05-26T12:29:11.692Z</time>
      </trkpt>
      <trkpt lat="40.86779" lon="-4.08791333">
        <ele>1234.0</ele>
        <time>2018-05-26T12:29:12.699Z</time>
      </trkpt>
      <trkpt lat="40.867835" lon="-4.08792333">
        <ele>1234.0</ele>
        <time>2018-05-26T12:29:13.704Z</time>
      </trkpt>
      <trkpt lat="40.867835" lon="-4.08792333">
        <ele>1234.0</ele>
        <time>2018-05-26T12:29:14.709Z</time>
      </trkpt>
      <trkpt lat="40.86793667" lon="-4.08793667">
        <ele>1233.0</ele>
        <time>2018-05-26T12:29:15.679Z</time>
      </trkpt>
      <trkpt lat="40.86793667" lon="-4.08793667">
        <ele>1233.0</ele>
        <time>2018-05-26T12:29:16.708Z</time>
      </trkpt>
      <trkpt lat="40.868035" lon="-4.08794167">
        <ele>1233.0</ele>
        <time>2018-05-26T12:29:17.697Z</time>
      </trkpt>
      <trkpt lat="40.86808333" lon="-4.08794333">
        <ele>1233.0</ele>
        <time>2018-05-26T12:29:18.687Z</time>
      </trkpt>
      <trkpt lat="40.868135" lon="-4.08794667">
        <ele>1233.0</ele>
        <time>2018-05-26T12:29:19.701Z</time>
      </trkpt>
      <trkpt lat="40.86818667" lon="-4.08794833">
        <ele>1233.0</ele>
        <time>2018-05-26T12:29:20.685Z</time>
      </trkpt>
      <trkpt lat="40.86818667" lon="-4.08794833">
        <ele>1233.0</ele>
        <time>2018-05-26T12:29:21.710Z</time>
      </trkpt>
      <trkpt lat="40.86828833" lon="-4.08794333">
        <ele>1233.0</ele>
        <time>2018-05-26T12:29:22.683Z</time>
      </trkpt>
      <trkpt lat="40.86828833" lon="-4.08794333">
        <ele>1233.0</ele>
        <time>2018-05-26T12:29:23.685Z</time>
      </trkpt>
      <trkpt lat="40.86838167" lon="-4.08793">
        <ele>1233.0</ele>
        <time>2018-05-26T12:29:24.692Z</time>
      </trkpt>
      <trkpt lat="40.86843" lon="-4.08792167">
        <ele>1233.0</ele>
        <time>2018-05-26T12:29:25.719Z</time>
      </trkpt>
      <trkpt lat="40.86843" lon="-4.08792167">
        <ele>1233.0</ele>
        <time>2018-05-26T12:29:26.683Z</time>
      </trkpt>
      <trkpt lat="40.868515" lon="-4.08788833">
        <ele>1234.0</ele>
        <time>2018-05-26T12:29:27.691Z</time>
      </trkpt>
      <trkpt lat="40.86855333" lon="-4.08786333">
        <ele>1234.0</ele>
        <time>2018-05-26T12:29:28.719Z</time>
      </trkpt>
      <trkpt lat="40.86859333" lon="-4.08784833">
        <ele>1235.0</ele>
        <time>2018-05-26T12:29:29.706Z</time>
      </trkpt>
      <trkpt lat="40.86859333" lon="-4.08784833">
        <ele>1235.0</ele>
        <time>2018-05-26T12:29:30.692Z</time>
      </trkpt>
      <trkpt lat="40.868675" lon="-4.087845">
        <ele>1235.0</ele>
        <time>2018-05-26T12:29:31.712Z</time>
      </trkpt>
      <trkpt lat="40.868675" lon="-4.087845">
        <ele>1235.0</ele>
        <time>2018-05-26T12:29:32.714Z</time>
      </trkpt>
      <trkpt lat="40.86877167" lon="-4.08786833">
        <ele>1235.0</ele>
        <time>2018-05-26T12:29:33.686Z</time>
      </trkpt>
      <trkpt lat="40.86877167" lon="-4.08786833">
        <ele>1235.0</ele>
        <time>2018-05-26T12:29:34.713Z</time>
      </trkpt>
      <trkpt lat="40.868885" lon="-4.08788333">
        <ele>1234.0</ele>
        <time>2018-05-26T12:29:35.682Z</time>
      </trkpt>
      <trkpt lat="40.86893833" lon="-4.08788">
        <ele>1234.0</ele>
        <time>2018-05-26T12:29:36.708Z</time>
      </trkpt>
      <trkpt lat="40.86899" lon="-4.08787">
        <ele>1234.0</ele>
        <time>2018-05-26T12:29:37.711Z</time>
      </trkpt>
      <trkpt lat="40.86899" lon="-4.08787">
        <ele>1234.0</ele>
        <time>2018-05-26T12:29:38.697Z</time>
      </trkpt>
      <trkpt lat="40.86908833" lon="-4.08785667">
        <ele>1234.0</ele>
        <time>2018-05-26T12:29:39.704Z</time>
      </trkpt>
      <trkpt lat="40.869135" lon="-4.08784667">
        <ele>1234.0</ele>
        <time>2018-05-26T12:29:40.720Z</time>
      </trkpt>
      <trkpt lat="40.869135" lon="-4.08784667">
        <ele>1234.0</ele>
        <time>2018-05-26T12:29:41.711Z</time>
      </trkpt>
      <trkpt lat="40.86923167" lon="-4.08782333">
        <ele>1233.0</ele>
        <time>2018-05-26T12:29:42.686Z</time>
      </trkpt>
      <trkpt lat="40.86928333" lon="-4.08781833">
        <ele>1233.0</ele>
        <time>2018-05-26T12:29:43.681Z</time>
      </trkpt>
      <trkpt lat="40.86928333" lon="-4.08781833">
        <ele>1233.0</ele>
        <time>2018-05-26T12:29:44.690Z</time>
      </trkpt>
      <trkpt lat="40.869385" lon="-4.08779167">
        <ele>1234.0</ele>
        <time>2018-05-26T12:29:45.697Z</time>
      </trkpt>
      <trkpt lat="40.86943833" lon="-4.08777">
        <ele>1233.0</ele>
        <time>2018-05-26T12:29:46.687Z</time>
      </trkpt>
      <trkpt lat="40.86943833" lon="-4.08777">
        <ele>1233.0</ele>
        <time>2018-05-26T12:29:47.702Z</time>
      </trkpt>
      <trkpt lat="40.86954667" lon="-4.08773167">
        <ele>1233.0</ele>
        <time>2018-05-26T12:29:48.682Z</time>
      </trkpt>
      <trkpt lat="40.86960167" lon="-4.08772333">
        <ele>1233.0</ele>
        <time>2018-05-26T12:29:49.703Z</time>
      </trkpt>
      <trkpt lat="40.86960167" lon="-4.08772333">
        <ele>1233.0</ele>
        <time>2018-05-26T12:29:50.687Z</time>
      </trkpt>
      <trkpt lat="40.86970833" lon="-4.087705">
        <ele>1233.0</ele>
        <time>2018-05-26T12:29:51.697Z</time>
      </trkpt>
      <trkpt lat="40.86970833" lon="-4.087705">
        <ele>1233.0</ele>
        <time>2018-05-26T12:29:52.697Z</time>
      </trkpt>
      <trkpt lat="40.86980667" lon="-4.08766167">
        <ele>1233.0</ele>
        <time>2018-05-26T12:29:53.692Z</time>
      </trkpt>
      <trkpt lat="40.86980667" lon="-4.08766167">
        <ele>1233.0</ele>
        <time>2018-05-26T12:29:54.714Z</time>
      </trkpt>
      <trkpt lat="40.86989333" lon="-4.08761833">
        <ele>1233.0</ele>
        <time>2018-05-26T12:29:55.723Z</time>
      </trkpt>
      <trkpt lat="40.86989333" lon="-4.08761833">
        <ele>1233.0</ele>
        <time>2018-05-26T12:29:56.703Z</time>
      </trkpt>
      <trkpt lat="40.869975" lon="-4.08759333">
        <ele>1233.0</ele>
        <time>2018-05-26T12:29:57.680Z</time>
      </trkpt>
      <trkpt lat="40.869975" lon="-4.08759333">
        <ele>1233.0</ele>
        <time>2018-05-26T12:29:58.703Z</time>
      </trkpt>
      <trkpt lat="40.87006833" lon="-4.08759333">
        <ele>1233.0</ele>
        <time>2018-05-26T12:29:59.710Z</time>
      </trkpt>
      <trkpt lat="40.87006833" lon="-4.08759333">
        <ele>1233.0</ele>
        <time>2018-05-26T12:30:00.686Z</time>
      </trkpt>
      <trkpt lat="40.87016333" lon="-4.08761">
        <ele>1233.0</ele>
        <time>2018-05-26T12:30:01.712Z</time>
      </trkpt>
      <trkpt lat="40.87016333" lon="-4.08761">
        <ele>1233.0</ele>
        <time>2018-05-26T12:30:02.697Z</time>
      </trkpt>
      <trkpt lat="40.87026" lon="-4.08763833">
        <ele>1233.0</ele>
        <time>2018-05-26T12:30:03.704Z</time>
      </trkpt>
      <trkpt lat="40.87031167" lon="-4.08765167">
        <ele>1233.0</ele>
        <time>2018-05-26T12:30:04.692Z</time>
      </trkpt>
      <trkpt lat="40.87031167" lon="-4.08765167">
        <ele>1233.0</ele>
        <time>2018-05-26T12:30:05.686Z</time>
      </trkpt>
      <trkpt lat="40.87041167" lon="-4.08767333">
        <ele>1234.0</ele>
        <time>2018-05-26T12:30:06.696Z</time>
      </trkpt>
      <trkpt lat="40.87046333" lon="-4.08768">
        <ele>1234.0</ele>
        <time>2018-05-26T12:30:07.698Z</time>
      </trkpt>
      <trkpt lat="40.87046333" lon="-4.08768">
        <ele>1234.0</ele>
        <time>2018-05-26T12:30:08.713Z</time>
      </trkpt>
      <trkpt lat="40.87056833" lon="-4.087685">
        <ele>1234.0</ele>
        <time>2018-05-26T12:30:09.684Z</time>
      </trkpt>
      <trkpt lat="40.87062333" lon="-4.08768667">
        <ele>1234.0</ele>
        <time>2018-05-26T12:30:10.712Z</time>
      </trkpt>
      <trkpt lat="40.87062333" lon="-4.08768667">
        <ele>1234.0</ele>
        <time>2018-05-26T12:30:11.692Z</time>
      </trkpt>
      <trkpt lat="40.87073167" lon="-4.08768667">
        <ele>1235.0</ele>
        <time>2018-05-26T12:30:12.681Z</time>
      </trkpt>
      <trkpt lat="40.87078667" lon="-4.08768333">
        <ele>1235.0</ele>
        <time>2018-05-26T12:30:13.686Z</time>
      </trkpt>
      <trkpt lat="40.87078667" lon="-4.08768333">
        <ele>1235.0</ele>
        <time>2018-05-26T12:30:14.710Z</time>
      </trkpt>
      <trkpt lat="40.87089" lon="-4.087675">
        <ele>1234.0</ele>
        <time>2018-05-26T12:30:15.722Z</time>
      </trkpt>
      <trkpt lat="40.87089" lon="-4.087675">
        <ele>1234.0</ele>
        <time>2018-05-26T12:30:16.704Z</time>
      </trkpt>
      <trkpt lat="40.87099167" lon="-4.08766333">
        <ele>1235.0</ele>
        <time>2018-05-26T12:30:17.711Z</time>
      </trkpt>
      <trkpt lat="40.87099167" lon="-4.08766333">
        <ele>1235.0</ele>
        <time>2018-05-26T12:30:18.677Z</time>
      </trkpt>
      <trkpt lat="40.87110167" lon="-4.08764667">
        <ele>1235.0</ele>
        <time>2018-05-26T12:30:19.682Z</time>
      </trkpt>
      <trkpt lat="40.87110167" lon="-4.08764667">
        <ele>1235.0</ele>
        <time>2018-05-26T12:30:20.682Z</time>
      </trkpt>
      <trkpt lat="40.87121333" lon="-4.08761167">
        <ele>1235.0</ele>
        <time>2018-05-26T12:30:21.689Z</time>
      </trkpt>
      <trkpt lat="40.87121333" lon="-4.08761167">
        <ele>1235.0</ele>
        <time>2018-05-26T12:30:22.714Z</time>
      </trkpt>
      <trkpt lat="40.87132833" lon="-4.08756">
        <ele>1234.0</ele>
        <time>2018-05-26T12:30:23.692Z</time>
      </trkpt>
      <trkpt lat="40.87132833" lon="-4.08756">
        <ele>1234.0</ele>
        <time>2018-05-26T12:30:24.689Z</time>
      </trkpt>
      <trkpt lat="40.87144" lon="-4.08750333">
        <ele>1234.0</ele>
        <time>2018-05-26T12:30:25.696Z</time>
      </trkpt>
      <trkpt lat="40.87144" lon="-4.08750333">
        <ele>1234.0</ele>
        <time>2018-05-26T12:30:26.684Z</time>
      </trkpt>
      <trkpt lat="40.87154833" lon="-4.087445">
        <ele>1234.0</ele>
        <time>2018-05-26T12:30:27.686Z</time>
      </trkpt>
      <trkpt lat="40.87154833" lon="-4.087445">
        <ele>1234.0</ele>
        <time>2018-05-26T12:30:28.684Z</time>
      </trkpt>
      <trkpt lat="40.87164667" lon="-4.08736167">
        <ele>1233.0</ele>
        <time>2018-05-26T12:30:29.696Z</time>
      </trkpt>
      <trkpt lat="40.87164667" lon="-4.08736167">
        <ele>1233.0</ele>
        <time>2018-05-26T12:30:30.691Z</time>
      </trkpt>
      <trkpt lat="40.87176333" lon="-4.08731833">
        <ele>1233.0</ele>
        <time>2018-05-26T12:30:31.682Z</time>
      </trkpt>
      <trkpt lat="40.87176333" lon="-4.08731833">
        <ele>1233.0</ele>
        <time>2018-05-26T12:30:32.704Z</time>
      </trkpt>
      <trkpt lat="40.87190167" lon="-4.08729333">
        <ele>1232.0</ele>
        <time>2018-05-26T12:30:33.714Z</time>
      </trkpt>
      <trkpt lat="40.87197667" lon="-4.08727333">
        <ele>1232.0</ele>
        <time>2018-05-26T12:30:34.678Z</time>
      </trkpt>
      <trkpt lat="40.87197667" lon="-4.08727333">
        <ele>1232.0</ele>
        <time>2018-05-26T12:30:35.698Z</time>
      </trkpt>
      <trkpt lat="40.872135" lon="-4.087215">
        <ele>1231.0</ele>
        <time>2018-05-26T12:30:36.705Z</time>
      </trkpt>
      <trkpt lat="40.87221667" lon="-4.08718333">
        <ele>1230.0</ele>
        <time>2018-05-26T12:30:37.711Z</time>
      </trkpt>
      <trkpt lat="40.87221667" lon="-4.08718333">
        <ele>1230.0</ele>
        <time>2018-05-26T12:30:38.685Z</time>
      </trkpt>
      <trkpt lat="40.87236667" lon="-4.08709167">
        <ele>1229.0</ele>
        <time>2018-05-26T12:30:39.691Z</time>
      </trkpt>
      <trkpt lat="40.87243833" lon="-4.08704167">
        <ele>1229.0</ele>
        <time>2018-05-26T12:30:40.698Z</time>
      </trkpt>
      <trkpt lat="40.87243833" lon="-4.08704167">
        <ele>1229.0</ele>
        <time>2018-05-26T12:30:41.706Z</time>
      </trkpt>
      <trkpt lat="40.87258" lon="-4.08695">
        <ele>1229.0</ele>
        <time>2018-05-26T12:30:42.713Z</time>
      </trkpt>
      <trkpt lat="40.87265667" lon="-4.08691167">
        <ele>1229.0</ele>
        <time>2018-05-26T12:30:43.714Z</time>
      </trkpt>
      <trkpt lat="40.87265667" lon="-4.08691167">
        <ele>1229.0</ele>
        <time>2018-05-26T12:30:44.698Z</time>
      </trkpt>
      <trkpt lat="40.872815" lon="-4.08683833">
        <ele>1228.0</ele>
        <time>2018-05-26T12:30:45.705Z</time>
      </trkpt>
      <trkpt lat="40.87289333" lon="-4.086795">
        <ele>1228.0</ele>
        <time>2018-05-26T12:30:46.692Z</time>
      </trkpt>
      <trkpt lat="40.87289333" lon="-4.086795">
        <ele>1228.0</ele>
        <time>2018-05-26T12:30:47.706Z</time>
      </trkpt>
      <trkpt lat="40.87304" lon="-4.08669">
        <ele>1228.0</ele>
        <time>2018-05-26T12:30:48.714Z</time>
      </trkpt>
      <trkpt lat="40.87311" lon="-4.08663167">
        <ele>1228.0</ele>
        <time>2018-05-26T12:30:49.720Z</time>
      </trkpt>
      <trkpt lat="40.87311" lon="-4.08663167">
        <ele>1228.0</ele>
        <time>2018-05-26T12:30:50.699Z</time>
      </trkpt>
      <trkpt lat="40.87325" lon="-4.086495">
        <ele>1228.0</ele>
        <time>2018-05-26T12:30:51.679Z</time>
      </trkpt>
      <trkpt lat="40.87325" lon="-4.086495">
        <ele>1228.0</ele>
        <time>2018-05-26T12:30:52.704Z</time>
      </trkpt>
      <trkpt lat="40.8734" lon="-4.08636333">
        <ele>1227.0</ele>
        <time>2018-05-26T12:30:53.684Z</time>
      </trkpt>
      <trkpt lat="40.8734" lon="-4.08636333">
        <ele>1227.0</ele>
        <time>2018-05-26T12:30:54.690Z</time>
      </trkpt>
      <trkpt lat="40.87356333" lon="-4.08625333">
        <ele>1226.0</ele>
        <time>2018-05-26T12:30:55.697Z</time>
      </trkpt>
      <trkpt lat="40.87356333" lon="-4.08625333">
        <ele>1226.0</ele>
        <time>2018-05-26T12:30:56.714Z</time>
      </trkpt>
      <trkpt lat="40.87373333" lon="-4.08617167">
        <ele>1226.0</ele>
        <time>2018-05-26T12:30:57.712Z</time>
      </trkpt>
      <trkpt lat="40.87373333" lon="-4.08617167">
        <ele>1226.0</ele>
        <time>2018-05-26T12:30:58.680Z</time>
      </trkpt>
      <trkpt lat="40.873905" lon="-4.08611">
        <ele>1225.0</ele>
        <time>2018-05-26T12:30:59.689Z</time>
      </trkpt>
      <trkpt lat="40.873905" lon="-4.08611">
        <ele>1225.0</ele>
        <time>2018-05-26T12:31:00.675Z</time>
      </trkpt>
      <trkpt lat="40.87407833" lon="-4.08607333">
        <ele>1224.0</ele>
        <time>2018-05-26T12:31:01.679Z</time>
      </trkpt>
      <trkpt lat="40.87407833" lon="-4.08607333">
        <ele>1224.0</ele>
        <time>2018-05-26T12:31:02.705Z</time>
      </trkpt>
      <trkpt lat="40.87425333" lon="-4.08603833">
        <ele>1223.0</ele>
        <time>2018-05-26T12:31:03.712Z</time>
      </trkpt>
      <trkpt lat="40.87425333" lon="-4.08603833">
        <ele>1223.0</ele>
        <time>2018-05-26T12:31:04.696Z</time>
      </trkpt>
      <trkpt lat="40.87442" lon="-4.08598">
        <ele>1222.0</ele>
        <time>2018-05-26T12:31:05.678Z</time>
      </trkpt>
      <trkpt lat="40.87442" lon="-4.08598">
        <ele>1222.0</ele>
        <time>2018-05-26T12:31:06.705Z</time>
      </trkpt>
      <trkpt lat="40.87456667" lon="-4.085885">
        <ele>1222.0</ele>
        <time>2018-05-26T12:31:07.712Z</time>
      </trkpt>
      <trkpt lat="40.87456667" lon="-4.085885">
        <ele>1222.0</ele>
        <time>2018-05-26T12:31:08.704Z</time>
      </trkpt>
      <trkpt lat="40.874715" lon="-4.08579167">
        <ele>1221.0</ele>
        <time>2018-05-26T12:31:09.688Z</time>
      </trkpt>
      <trkpt lat="40.874715" lon="-4.08579167">
        <ele>1221.0</ele>
        <time>2018-05-26T12:31:10.713Z</time>
      </trkpt>
      <trkpt lat="40.87488" lon="-4.08574667">
        <ele>1220.0</ele>
        <time>2018-05-26T12:31:11.689Z</time>
      </trkpt>
      <trkpt lat="40.87488" lon="-4.08574667">
        <ele>1220.0</ele>
        <time>2018-05-26T12:31:12.712Z</time>
      </trkpt>
      <trkpt lat="40.87505167" lon="-4.08574667">
        <ele>1219.0</ele>
        <time>2018-05-26T12:31:13.676Z</time>
      </trkpt>
      <trkpt lat="40.87505167" lon="-4.08574667">
        <ele>1219.0</ele>
        <time>2018-05-26T12:31:14.697Z</time>
      </trkpt>
      <trkpt lat="40.87522333" lon="-4.085725">
        <ele>1219.0</ele>
        <time>2018-05-26T12:31:15.703Z</time>
      </trkpt>
      <trkpt lat="40.87522333" lon="-4.085725">
        <ele>1219.0</ele>
        <time>2018-05-26T12:31:16.687Z</time>
      </trkpt>
      <trkpt lat="40.87538667" lon="-4.08566333">
        <ele>1219.0</ele>
        <time>2018-05-26T12:31:17.678Z</time>
      </trkpt>
      <trkpt lat="40.87546333" lon="-4.08562667">
        <ele>1218.0</ele>
        <time>2018-05-26T12:31:18.693Z</time>
      </trkpt>
      <trkpt lat="40.87554333" lon="-4.0856">
        <ele>1218.0</ele>
        <time>2018-05-26T12:31:19.703Z</time>
      </trkpt>
      <trkpt lat="40.87554333" lon="-4.0856">
        <ele>1218.0</ele>
        <time>2018-05-26T12:31:20.685Z</time>
      </trkpt>
      <trkpt lat="40.87569833" lon="-4.08557">
        <ele>1217.0</ele>
        <time>2018-05-26T12:31:21.692Z</time>
      </trkpt>
      <trkpt lat="40.87569833" lon="-4.08557">
        <ele>1217.0</ele>
        <time>2018-05-26T12:31:22.681Z</time>
      </trkpt>
      <trkpt lat="40.87585667" lon="-4.08556667">
        <ele>1217.0</ele>
        <time>2018-05-26T12:31:23.713Z</time>
      </trkpt>
      <trkpt lat="40.87585667" lon="-4.08556667">
        <ele>1217.0</ele>
        <time>2018-05-26T12:31:24.688Z</time>
      </trkpt>
      <trkpt lat="40.87602" lon="-4.08556333">
        <ele>1217.0</ele>
        <time>2018-05-26T12:31:25.696Z</time>
      </trkpt>
      <trkpt lat="40.87602" lon="-4.08556333">
        <ele>1217.0</ele>
        <time>2018-05-26T12:31:26.680Z</time>
      </trkpt>
      <trkpt lat="40.87618167" lon="-4.08553333">
        <ele>1217.0</ele>
        <time>2018-05-26T12:31:27.682Z</time>
      </trkpt>
      <trkpt lat="40.87618167" lon="-4.08553333">
        <ele>1217.0</ele>
        <time>2018-05-26T12:31:28.712Z</time>
      </trkpt>
      <trkpt lat="40.87633667" lon="-4.08549667">
        <ele>1217.0</ele>
        <time>2018-05-26T12:31:29.685Z</time>
      </trkpt>
      <trkpt lat="40.87633667" lon="-4.08549667">
        <ele>1217.0</ele>
        <time>2018-05-26T12:31:30.714Z</time>
      </trkpt>
      <trkpt lat="40.876485" lon="-4.08548667">
        <ele>1216.0</ele>
        <time>2018-05-26T12:31:31.682Z</time>
      </trkpt>
      <trkpt lat="40.876485" lon="-4.08548667">
        <ele>1216.0</ele>
        <time>2018-05-26T12:31:32.713Z</time>
      </trkpt>
      <trkpt lat="40.87663167" lon="-4.08550333">
        <ele>1216.0</ele>
        <time>2018-05-26T12:31:33.693Z</time>
      </trkpt>
      <trkpt lat="40.87663167" lon="-4.08550333">
        <ele>1216.0</ele>
        <time>2018-05-26T12:31:34.692Z</time>
      </trkpt>
      <trkpt lat="40.87677333" lon="-4.08550833">
        <ele>1216.0</ele>
        <time>2018-05-26T12:31:35.699Z</time>
      </trkpt>
      <trkpt lat="40.87677333" lon="-4.08550833">
        <ele>1216.0</ele>
        <time>2018-05-26T12:31:36.684Z</time>
      </trkpt>
      <trkpt lat="40.87691833" lon="-4.08548167">
        <ele>1215.0</ele>
        <time>2018-05-26T12:31:37.694Z</time>
      </trkpt>
      <trkpt lat="40.87691833" lon="-4.08548167">
        <ele>1215.0</ele>
        <time>2018-05-26T12:31:38.712Z</time>
      </trkpt>
      <trkpt lat="40.87705833" lon="-4.08545">
        <ele>1215.0</ele>
        <time>2018-05-26T12:31:39.688Z</time>
      </trkpt>
      <trkpt lat="40.87712" lon="-4.08543167">
        <ele>1216.0</ele>
        <time>2018-05-26T12:31:40.679Z</time>
      </trkpt>
      <trkpt lat="40.87712" lon="-4.08543167">
        <ele>1216.0</ele>
        <time>2018-05-26T12:31:41.684Z</time>
      </trkpt>
      <trkpt lat="40.87722167" lon="-4.08542">
        <ele>1216.0</ele>
        <time>2018-05-26T12:31:42.691Z</time>
      </trkpt>
      <trkpt lat="40.87726833" lon="-4.085425">
        <ele>1216.0</ele>
        <time>2018-05-26T12:31:43.700Z</time>
      </trkpt>
      <trkpt lat="40.87726833" lon="-4.085425">
        <ele>1216.0</ele>
        <time>2018-05-26T12:31:44.689Z</time>
      </trkpt>
      <trkpt lat="40.877345" lon="-4.08547333">
        <ele>1216.0</ele>
        <time>2018-05-26T12:31:45.692Z</time>
      </trkpt>
      <trkpt lat="40.877345" lon="-4.08547333">
        <ele>1216.0</ele>
        <time>2018-05-26T12:31:46.707Z</time>
      </trkpt>
      <trkpt lat="40.87745333" lon="-4.08551167">
        <ele>1217.0</ele>
        <time>2018-05-26T12:31:47.714Z</time>
      </trkpt>
      <trkpt lat="40.87745333" lon="-4.08551167">
        <ele>1217.0</ele>
        <time>2018-05-26T12:31:48.713Z</time>
      </trkpt>
      <trkpt lat="40.877585" lon="-4.0855">
        <ele>1216.0</ele>
        <time>2018-05-26T12:31:49.682Z</time>
      </trkpt>
      <trkpt lat="40.877585" lon="-4.0855">
        <ele>1216.0</ele>
        <time>2018-05-26T12:31:50.698Z</time>
      </trkpt>
      <trkpt lat="40.877715" lon="-4.08549333">
        <ele>1217.0</ele>
        <time>2018-05-26T12:31:51.704Z</time>
      </trkpt>
      <trkpt lat="40.877715" lon="-4.08549333">
        <ele>1217.0</ele>
        <time>2018-05-26T12:31:52.684Z</time>
      </trkpt>
      <trkpt lat="40.877855" lon="-4.08549">
        <ele>1217.0</ele>
        <time>2018-05-26T12:31:53.712Z</time>
      </trkpt>
      <trkpt lat="40.87792833" lon="-4.08548333">
        <ele>1217.0</ele>
        <time>2018-05-26T12:31:54.697Z</time>
      </trkpt>
      <trkpt lat="40.878" lon="-4.08547">
        <ele>1218.0</ele>
        <time>2018-05-26T12:31:55.683Z</time>
      </trkpt>
      <trkpt lat="40.878" lon="-4.08547">
        <ele>1218.0</ele>
        <time>2018-05-26T12:31:56.711Z</time>
      </trkpt>
      <trkpt lat="40.87814167" lon="-4.08543">
        <ele>1218.0</ele>
        <time>2018-05-26T12:31:57.684Z</time>
      </trkpt>
      <trkpt lat="40.87814167" lon="-4.08543">
        <ele>1218.0</ele>
        <time>2018-05-26T12:31:58.710Z</time>
      </trkpt>
      <trkpt lat="40.87828833" lon="-4.08541">
        <ele>1219.0</ele>
        <time>2018-05-26T12:31:59.685Z</time>
      </trkpt>
      <trkpt lat="40.87837" lon="-4.0854">
        <ele>1218.0</ele>
        <time>2018-05-26T12:32:00.712Z</time>
      </trkpt>
      <trkpt lat="40.87837" lon="-4.0854">
        <ele>1218.0</ele>
        <time>2018-05-26T12:32:01.696Z</time>
      </trkpt>
      <trkpt lat="40.878535" lon="-4.08539">
        <ele>1218.0</ele>
        <time>2018-05-26T12:32:02.677Z</time>
      </trkpt>
      <trkpt lat="40.87862167" lon="-4.08537833">
        <ele>1218.0</ele>
        <time>2018-05-26T12:32:03.695Z</time>
      </trkpt>
      <trkpt lat="40.87862167" lon="-4.08537833">
        <ele>1218.0</ele>
        <time>2018-05-26T12:32:04.685Z</time>
      </trkpt>
      <trkpt lat="40.87879333" lon="-4.085375">
        <ele>1216.0</ele>
        <time>2018-05-26T12:32:05.702Z</time>
      </trkpt>
      <trkpt lat="40.87879333" lon="-4.085375">
        <ele>1216.0</ele>
        <time>2018-05-26T12:32:06.686Z</time>
      </trkpt>
      <trkpt lat="40.87896167" lon="-4.08536667">
        <ele>1216.0</ele>
        <time>2018-05-26T12:32:07.697Z</time>
      </trkpt>
      <trkpt lat="40.87896167" lon="-4.08536667">
        <ele>1216.0</ele>
        <time>2018-05-26T12:32:08.681Z</time>
      </trkpt>
      <trkpt lat="40.87912333" lon="-4.08531167">
        <ele>1213.0</ele>
        <time>2018-05-26T12:32:09.711Z</time>
      </trkpt>
      <trkpt lat="40.87912333" lon="-4.08531167">
        <ele>1213.0</ele>
        <time>2018-05-26T12:32:10.678Z</time>
      </trkpt>
      <trkpt lat="40.87928667" lon="-4.08523333">
        <ele>1213.0</ele>
        <time>2018-05-26T12:32:11.687Z</time>
      </trkpt>
      <trkpt lat="40.87928667" lon="-4.08523333">
        <ele>1213.0</ele>
        <time>2018-05-26T12:32:12.707Z</time>
      </trkpt>
      <trkpt lat="40.879455" lon="-4.08513833">
        <ele>1212.0</ele>
        <time>2018-05-26T12:32:13.712Z</time>
      </trkpt>
      <trkpt lat="40.879455" lon="-4.08513833">
        <ele>1212.0</ele>
        <time>2018-05-26T12:32:14.696Z</time>
      </trkpt>
      <trkpt lat="40.87961" lon="-4.08501333">
        <ele>1211.0</ele>
        <time>2018-05-26T12:32:15.703Z</time>
      </trkpt>
      <trkpt lat="40.87961" lon="-4.08501333">
        <ele>1211.0</ele>
        <time>2018-05-26T12:32:16.711Z</time>
      </trkpt>
      <trkpt lat="40.87977167" lon="-4.08491">
        <ele>1211.0</ele>
        <time>2018-05-26T12:32:17.694Z</time>
      </trkpt>
      <trkpt lat="40.87985167" lon="-4.08486167">
        <ele>1211.0</ele>
        <time>2018-05-26T12:32:18.687Z</time>
      </trkpt>
      <trkpt lat="40.87985167" lon="-4.08486167">
        <ele>1211.0</ele>
        <time>2018-05-26T12:32:19.678Z</time>
      </trkpt>
      <trkpt lat="40.88001833" lon="-4.08479167">
        <ele>1210.0</ele>
        <time>2018-05-26T12:32:20.676Z</time>
      </trkpt>
      <trkpt lat="40.88001833" lon="-4.08479167">
        <ele>1210.0</ele>
        <time>2018-05-26T12:32:21.700Z</time>
      </trkpt>
      <trkpt lat="40.88019833" lon="-4.08472667">
        <ele>1208.0</ele>
        <time>2018-05-26T12:32:22.713Z</time>
      </trkpt>
      <trkpt lat="40.88019833" lon="-4.08472667">
        <ele>1208.0</ele>
        <time>2018-05-26T12:32:23.696Z</time>
      </trkpt>
      <trkpt lat="40.88036167" lon="-4.084605">
        <ele>1208.0</ele>
        <time>2018-05-26T12:32:24.703Z</time>
      </trkpt>
      <trkpt lat="40.880445" lon="-4.084535">
        <ele>1207.0</ele>
        <time>2018-05-26T12:32:25.693Z</time>
      </trkpt>
      <trkpt lat="40.880445" lon="-4.084535">
        <ele>1207.0</ele>
        <time>2018-05-26T12:32:26.691Z</time>
      </trkpt>
      <trkpt lat="40.880615" lon="-4.08442167">
        <ele>1206.0</ele>
        <time>2018-05-26T12:32:27.692Z</time>
      </trkpt>
      <trkpt lat="40.880615" lon="-4.08442167">
        <ele>1206.0</ele>
        <time>2018-05-26T12:32:28.705Z</time>
      </trkpt>
      <trkpt lat="40.88078667" lon="-4.08432667">
        <ele>1205.0</ele>
        <time>2018-05-26T12:32:29.712Z</time>
      </trkpt>
      <trkpt lat="40.88087" lon="-4.08427833">
        <ele>1205.0</ele>
        <time>2018-05-26T12:32:30.682Z</time>
      </trkpt>
      <trkpt lat="40.880955" lon="-4.08424">
        <ele>1204.0</ele>
        <time>2018-05-26T12:32:31.691Z</time>
      </trkpt>
      <trkpt lat="40.880955" lon="-4.08424">
        <ele>1204.0</ele>
        <time>2018-05-26T12:32:32.695Z</time>
      </trkpt>
      <trkpt lat="40.88112833" lon="-4.084155">
        <ele>1202.0</ele>
        <time>2018-05-26T12:32:33.705Z</time>
      </trkpt>
      <trkpt lat="40.88112833" lon="-4.084155">
        <ele>1202.0</ele>
        <time>2018-05-26T12:32:34.691Z</time>
      </trkpt>
      <trkpt lat="40.88130167" lon="-4.08405">
        <ele>1201.0</ele>
        <time>2018-05-26T12:32:35.700Z</time>
      </trkpt>
      <trkpt lat="40.88130167" lon="-4.08405">
        <ele>1201.0</ele>
        <time>2018-05-26T12:32:36.708Z</time>
      </trkpt>
      <trkpt lat="40.88147667" lon="-4.08394667">
        <ele>1198.0</ele>
        <time>2018-05-26T12:32:37.675Z</time>
      </trkpt>
      <trkpt lat="40.88147667" lon="-4.08394667">
        <ele>1198.0</ele>
        <time>2018-05-26T12:32:38.703Z</time>
      </trkpt>
      <trkpt lat="40.88165" lon="-4.083825">
        <ele>1197.0</ele>
        <time>2018-05-26T12:32:39.711Z</time>
      </trkpt>
      <trkpt lat="40.88165" lon="-4.083825">
        <ele>1197.0</ele>
        <time>2018-05-26T12:32:40.696Z</time>
      </trkpt>
      <trkpt lat="40.88181833" lon="-4.08372">
        <ele>1195.0</ele>
        <time>2018-05-26T12:32:41.702Z</time>
      </trkpt>
      <trkpt lat="40.88181833" lon="-4.08372">
        <ele>1195.0</ele>
        <time>2018-05-26T12:32:42.686Z</time>
      </trkpt>
      <trkpt lat="40.88196667" lon="-4.08362333">
        <ele>1194.0</ele>
        <time>2018-05-26T12:32:43.676Z</time>
      </trkpt>
      <trkpt lat="40.88196667" lon="-4.08362333">
        <ele>1194.0</ele>
        <time>2018-05-26T12:32:44.676Z</time>
      </trkpt>
      <trkpt lat="40.88212333" lon="-4.083535">
        <ele>1193.0</ele>
        <time>2018-05-26T12:32:45.684Z</time>
      </trkpt>
      <trkpt lat="40.88212333" lon="-4.083535">
        <ele>1193.0</ele>
        <time>2018-05-26T12:32:46.707Z</time>
      </trkpt>
      <trkpt lat="40.88228833" lon="-4.08346833">
        <ele>1193.0</ele>
        <time>2018-05-26T12:32:47.692Z</time>
      </trkpt>
      <trkpt lat="40.88228833" lon="-4.08346833">
        <ele>1193.0</ele>
        <time>2018-05-26T12:32:48.694Z</time>
      </trkpt>
      <trkpt lat="40.88245833" lon="-4.08338833">
        <ele>1191.0</ele>
        <time>2018-05-26T12:32:49.701Z</time>
      </trkpt>
      <trkpt lat="40.88245833" lon="-4.08338833">
        <ele>1191.0</ele>
        <time>2018-05-26T12:32:50.686Z</time>
      </trkpt>
      <trkpt lat="40.88261667" lon="-4.08326167">
        <ele>1190.0</ele>
        <time>2018-05-26T12:32:51.682Z</time>
      </trkpt>
      <trkpt lat="40.88261667" lon="-4.08326167">
        <ele>1190.0</ele>
        <time>2018-05-26T12:32:52.693Z</time>
      </trkpt>
      <trkpt lat="40.88278" lon="-4.08314833">
        <ele>1189.0</ele>
        <time>2018-05-26T12:32:53.702Z</time>
      </trkpt>
      <trkpt lat="40.88278" lon="-4.08314833">
        <ele>1189.0</ele>
        <time>2018-05-26T12:32:54.690Z</time>
      </trkpt>
      <trkpt lat="40.882925" lon="-4.08299333">
        <ele>1187.0</ele>
        <time>2018-05-26T12:32:55.682Z</time>
      </trkpt>
      <trkpt lat="40.882925" lon="-4.08299333">
        <ele>1187.0</ele>
        <time>2018-05-26T12:32:56.690Z</time>
      </trkpt>
      <trkpt lat="40.88307333" lon="-4.08281833">
        <ele>1186.0</ele>
        <time>2018-05-26T12:32:57.696Z</time>
      </trkpt>
      <trkpt lat="40.88314833" lon="-4.08272">
        <ele>1185.0</ele>
        <time>2018-05-26T12:32:58.685Z</time>
      </trkpt>
      <trkpt lat="40.88314833" lon="-4.08272">
        <ele>1185.0</ele>
        <time>2018-05-26T12:32:59.689Z</time>
      </trkpt>
      <trkpt lat="40.883275" lon="-4.08250167">
        <ele>1184.0</ele>
        <time>2018-05-26T12:33:00.679Z</time>
      </trkpt>
      <trkpt lat="40.88333167" lon="-4.08239167">
        <ele>1183.0</ele>
        <time>2018-05-26T12:33:01.707Z</time>
      </trkpt>
      <trkpt lat="40.88333167" lon="-4.08239167">
        <ele>1183.0</ele>
        <time>2018-05-26T12:33:02.702Z</time>
      </trkpt>
      <trkpt lat="40.88345" lon="-4.08217833">
        <ele>1181.0</ele>
        <time>2018-05-26T12:33:03.676Z</time>
      </trkpt>
      <trkpt lat="40.88345" lon="-4.08217833">
        <ele>1181.0</ele>
        <time>2018-05-26T12:33:04.692Z</time>
      </trkpt>
      <trkpt lat="40.88357667" lon="-4.081985">
        <ele>1179.0</ele>
        <time>2018-05-26T12:33:05.698Z</time>
      </trkpt>
      <trkpt lat="40.88357667" lon="-4.081985">
        <ele>1179.0</ele>
        <time>2018-05-26T12:33:06.714Z</time>
      </trkpt>
      <trkpt lat="40.88370667" lon="-4.08182167">
        <ele>1178.0</ele>
        <time>2018-05-26T12:33:07.679Z</time>
      </trkpt>
      <trkpt lat="40.88370667" lon="-4.08182167">
        <ele>1178.0</ele>
        <time>2018-05-26T12:33:08.683Z</time>
      </trkpt>
      <trkpt lat="40.88383333" lon="-4.08163167">
        <ele>1177.0</ele>
        <time>2018-05-26T12:33:09.702Z</time>
      </trkpt>
      <trkpt lat="40.88389833" lon="-4.081535">
        <ele>1176.0</ele>
        <time>2018-05-26T12:33:10.682Z</time>
      </trkpt>
      <trkpt lat="40.88389833" lon="-4.081535">
        <ele>1176.0</ele>
        <time>2018-05-26T12:33:11.712Z</time>
      </trkpt>
      <trkpt lat="40.884035" lon="-4.081345">
        <ele>1175.0</ele>
        <time>2018-05-26T12:33:12.683Z</time>
      </trkpt>
      <trkpt lat="40.884035" lon="-4.081345">
        <ele>1175.0</ele>
        <time>2018-05-26T12:33:13.708Z</time>
      </trkpt>
      <trkpt lat="40.88416" lon="-4.08114667">
        <ele>1174.0</ele>
        <time>2018-05-26T12:33:14.685Z</time>
      </trkpt>
      <trkpt lat="40.88416" lon="-4.08114667">
        <ele>1174.0</ele>
        <time>2018-05-26T12:33:15.694Z</time>
      </trkpt>
      <trkpt lat="40.88428" lon="-4.08093833">
        <ele>1173.0</ele>
        <time>2018-05-26T12:33:16.707Z</time>
      </trkpt>
      <trkpt lat="40.88428" lon="-4.08093833">
        <ele>1173.0</ele>
        <time>2018-05-26T12:33:17.684Z</time>
      </trkpt>
      <trkpt lat="40.88443333" lon="-4.08077833">
        <ele>1172.0</ele>
        <time>2018-05-26T12:33:18.692Z</time>
      </trkpt>
      <trkpt lat="40.88450333" lon="-4.08069">
        <ele>1172.0</ele>
        <time>2018-05-26T12:33:19.687Z</time>
      </trkpt>
      <trkpt lat="40.88450333" lon="-4.08069">
        <ele>1172.0</ele>
        <time>2018-05-26T12:33:20.706Z</time>
      </trkpt>
      <trkpt lat="40.88462333" lon="-4.08051">
        <ele>1171.0</ele>
        <time>2018-05-26T12:33:21.680Z</time>
      </trkpt>
      <trkpt lat="40.88468333" lon="-4.08042167">
        <ele>1170.0</ele>
        <time>2018-05-26T12:33:22.700Z</time>
      </trkpt>
      <trkpt lat="40.88468333" lon="-4.08042167">
        <ele>1170.0</ele>
        <time>2018-05-26T12:33:23.675Z</time>
      </trkpt>
      <trkpt lat="40.88481333" lon="-4.08024333">
        <ele>1169.0</ele>
        <time>2018-05-26T12:33:24.692Z</time>
      </trkpt>
      <trkpt lat="40.88488" lon="-4.08015833">
        <ele>1169.0</ele>
        <time>2018-05-26T12:33:25.704Z</time>
      </trkpt>
      <trkpt lat="40.88488" lon="-4.08015833">
        <ele>1169.0</ele>
        <time>2018-05-26T12:33:26.688Z</time>
      </trkpt>
      <trkpt lat="40.88500667" lon="-4.079985">
        <ele>1168.0</ele>
        <time>2018-05-26T12:33:27.707Z</time>
      </trkpt>
      <trkpt lat="40.88500667" lon="-4.079985">
        <ele>1168.0</ele>
        <time>2018-05-26T12:33:28.684Z</time>
      </trkpt>
      <trkpt lat="40.885125" lon="-4.07981167">
        <ele>1167.0</ele>
        <time>2018-05-26T12:33:29.698Z</time>
      </trkpt>
      <trkpt lat="40.88517333" lon="-4.07972167">
        <ele>1166.0</ele>
        <time>2018-05-26T12:33:30.675Z</time>
      </trkpt>
      <trkpt lat="40.88522167" lon="-4.079635">
        <ele>1166.0</ele>
        <time>2018-05-26T12:33:31.707Z</time>
      </trkpt>
      <trkpt lat="40.88522167" lon="-4.079635">
        <ele>1166.0</ele>
        <time>2018-05-26T12:33:32.685Z</time>
      </trkpt>
      <trkpt lat="40.88530333" lon="-4.07946833">
        <ele>1166.0</ele>
        <time>2018-05-26T12:33:33.695Z</time>
      </trkpt>
      <trkpt lat="40.88534333" lon="-4.07938667">
        <ele>1166.0</ele>
        <time>2018-05-26T12:33:34.714Z</time>
      </trkpt>
      <trkpt lat="40.8854" lon="-4.07932667">
        <ele>1166.0</ele>
        <time>2018-05-26T12:33:35.698Z</time>
      </trkpt>
      <trkpt lat="40.8854" lon="-4.07932667">
        <ele>1166.0</ele>
        <time>2018-05-26T12:33:36.683Z</time>
      </trkpt>
      <trkpt lat="40.885515" lon="-4.07918167">
        <ele>1166.0</ele>
        <time>2018-05-26T12:33:37.690Z</time>
      </trkpt>
      <trkpt lat="40.885515" lon="-4.07918167">
        <ele>1166.0</ele>
        <time>2018-05-26T12:33:38.708Z</time>
      </trkpt>
      <trkpt lat="40.88562" lon="-4.07901333">
        <ele>1165.0</ele>
        <time>2018-05-26T12:33:39.714Z</time>
      </trkpt>
      <trkpt lat="40.88562" lon="-4.07901333">
        <ele>1165.0</ele>
        <time>2018-05-26T12:33:40.705Z</time>
      </trkpt>
      <trkpt lat="40.88571833" lon="-4.07886667">
        <ele>1165.0</ele>
        <time>2018-05-26T12:33:41.712Z</time>
      </trkpt>
      <trkpt lat="40.88571833" lon="-4.07886667">
        <ele>1165.0</ele>
        <time>2018-05-26T12:33:42.697Z</time>
      </trkpt>
      <trkpt lat="40.88582667" lon="-4.078725">
        <ele>1164.0</ele>
        <time>2018-05-26T12:33:43.695Z</time>
      </trkpt>
      <trkpt lat="40.88588" lon="-4.07865333">
        <ele>1163.0</ele>
        <time>2018-05-26T12:33:44.685Z</time>
      </trkpt>
      <trkpt lat="40.88588" lon="-4.07865333">
        <ele>1163.0</ele>
        <time>2018-05-26T12:33:45.685Z</time>
      </trkpt>
      <trkpt lat="40.88599" lon="-4.07850333">
        <ele>1162.0</ele>
        <time>2018-05-26T12:33:46.710Z</time>
      </trkpt>
      <trkpt lat="40.88604667" lon="-4.07842167">
        <ele>1161.0</ele>
        <time>2018-05-26T12:33:47.701Z</time>
      </trkpt>
      <trkpt lat="40.88604667" lon="-4.07842167">
        <ele>1161.0</ele>
        <time>2018-05-26T12:33:48.677Z</time>
      </trkpt>
      <trkpt lat="40.88617" lon="-4.07825">
        <ele>1160.0</ele>
        <time>2018-05-26T12:33:49.685Z</time>
      </trkpt>
      <trkpt lat="40.88617" lon="-4.07825">
        <ele>1160.0</ele>
        <time>2018-05-26T12:33:50.675Z</time>
      </trkpt>
      <trkpt lat="40.886305" lon="-4.07806667">
        <ele>1158.0</ele>
        <time>2018-05-26T12:33:51.683Z</time>
      </trkpt>
      <trkpt lat="40.886305" lon="-4.07806667">
        <ele>1158.0</ele>
        <time>2018-05-26T12:33:52.709Z</time>
      </trkpt>
      <trkpt lat="40.88643833" lon="-4.07786333">
        <ele>1157.0</ele>
        <time>2018-05-26T12:33:53.679Z</time>
      </trkpt>
      <trkpt lat="40.88650833" lon="-4.07776167">
        <ele>1156.0</ele>
        <time>2018-05-26T12:33:54.703Z</time>
      </trkpt>
      <trkpt lat="40.88650833" lon="-4.07776167">
        <ele>1156.0</ele>
        <time>2018-05-26T12:33:55.689Z</time>
      </trkpt>
      <trkpt lat="40.88665" lon="-4.07755333">
        <ele>1154.0</ele>
        <time>2018-05-26T12:33:56.701Z</time>
      </trkpt>
      <trkpt lat="40.88665" lon="-4.07755333">
        <ele>1154.0</ele>
        <time>2018-05-26T12:33:57.713Z</time>
      </trkpt>
      <trkpt lat="40.88679333" lon="-4.07734833">
        <ele>1153.0</ele>
        <time>2018-05-26T12:33:58.684Z</time>
      </trkpt>
      <trkpt lat="40.88686167" lon="-4.07724833">
        <ele>1152.0</ele>
        <time>2018-05-26T12:33:59.684Z</time>
      </trkpt>
      <trkpt lat="40.88686167" lon="-4.07724833">
        <ele>1152.0</ele>
        <time>2018-05-26T12:34:00.707Z</time>
      </trkpt>
      <trkpt lat="40.88699333" lon="-4.07704">
        <ele>1150.0</ele>
        <time>2018-05-26T12:34:01.713Z</time>
      </trkpt>
      <trkpt lat="40.88699333" lon="-4.07704">
        <ele>1150.0</ele>
        <time>2018-05-26T12:34:02.700Z</time>
      </trkpt>
      <trkpt lat="40.88713" lon="-4.07682667">
        <ele>1148.0</ele>
        <time>2018-05-26T12:34:03.675Z</time>
      </trkpt>
      <trkpt lat="40.88713" lon="-4.07682667">
        <ele>1148.0</ele>
        <time>2018-05-26T12:34:04.686Z</time>
      </trkpt>
      <trkpt lat="40.88727167" lon="-4.07662">
        <ele>1145.0</ele>
        <time>2018-05-26T12:34:05.695Z</time>
      </trkpt>
      <trkpt lat="40.88727167" lon="-4.07662">
        <ele>1145.0</ele>
        <time>2018-05-26T12:34:06.679Z</time>
      </trkpt>
      <trkpt lat="40.88741167" lon="-4.07641833">
        <ele>1144.0</ele>
        <time>2018-05-26T12:34:07.677Z</time>
      </trkpt>
      <trkpt lat="40.88741167" lon="-4.07641833">
        <ele>1144.0</ele>
        <time>2018-05-26T12:34:08.706Z</time>
      </trkpt>
      <trkpt lat="40.88754667" lon="-4.07621833">
        <ele>1142.0</ele>
        <time>2018-05-26T12:34:09.712Z</time>
      </trkpt>
      <trkpt lat="40.88761167" lon="-4.07612167">
        <ele>1142.0</ele>
        <time>2018-05-26T12:34:10.682Z</time>
      </trkpt>
      <trkpt lat="40.88761167" lon="-4.07612167">
        <ele>1142.0</ele>
        <time>2018-05-26T12:34:11.692Z</time>
      </trkpt>
      <trkpt lat="40.88773667" lon="-4.075935">
        <ele>1140.0</ele>
        <time>2018-05-26T12:34:12.698Z</time>
      </trkpt>
      <trkpt lat="40.88779" lon="-4.07585333">
        <ele>1140.0</ele>
        <time>2018-05-26T12:34:13.715Z</time>
      </trkpt>
      <trkpt lat="40.88779" lon="-4.07585333">
        <ele>1140.0</ele>
        <time>2018-05-26T12:34:14.685Z</time>
      </trkpt>
      <trkpt lat="40.88789833" lon="-4.07571333">
        <ele>1140.0</ele>
        <time>2018-05-26T12:34:15.694Z</time>
      </trkpt>
      <trkpt lat="40.88789833" lon="-4.07571333">
        <ele>1140.0</ele>
        <time>2018-05-26T12:34:16.680Z</time>
      </trkpt>
      <trkpt lat="40.88799167" lon="-4.07558333">
        <ele>1140.0</ele>
        <time>2018-05-26T12:34:17.698Z</time>
      </trkpt>
      <trkpt lat="40.888035" lon="-4.075525">
        <ele>1140.0</ele>
        <time>2018-05-26T12:34:18.683Z</time>
      </trkpt>
      <trkpt lat="40.888035" lon="-4.075525">
        <ele>1140.0</ele>
        <time>2018-05-26T12:34:19.689Z</time>
      </trkpt>
      <trkpt lat="40.888115" lon="-4.07541167">
        <ele>1140.0</ele>
        <time>2018-05-26T12:34:20.697Z</time>
      </trkpt>
      <trkpt lat="40.888115" lon="-4.07541167">
        <ele>1140.0</ele>
        <time>2018-05-26T12:34:21.681Z</time>
      </trkpt>
      <trkpt lat="40.888175" lon="-4.07532333">
        <ele>1141.0</ele>
        <time>2018-05-26T12:34:22.699Z</time>
      </trkpt>
      <trkpt lat="40.888175" lon="-4.07532333">
        <ele>1141.0</ele>
        <time>2018-05-26T12:34:23.683Z</time>
      </trkpt>
      <trkpt lat="40.88823" lon="-4.07525333">
        <ele>1141.0</ele>
        <time>2018-05-26T12:34:24.689Z</time>
      </trkpt>
      <trkpt lat="40.88824833" lon="-4.07522167">
        <ele>1142.0</ele>
        <time>2018-05-26T12:34:25.712Z</time>
      </trkpt>
      <trkpt lat="40.88824833" lon="-4.07522167">
        <ele>1142.0</ele>
        <time>2018-05-26T12:34:26.704Z</time>
      </trkpt>
      <trkpt lat="40.88827667" lon="-4.07516667">
        <ele>1143.0</ele>
        <time>2018-05-26T12:34:27.683Z</time>
      </trkpt>
      <trkpt lat="40.88827667" lon="-4.07516667">
        <ele>1143.0</ele>
        <time>2018-05-26T12:34:28.694Z</time>
      </trkpt>
      <trkpt lat="40.88828667" lon="-4.07511167">
        <ele>1145.0</ele>
        <time>2018-05-26T12:34:29.707Z</time>
      </trkpt>
      <trkpt lat="40.88828667" lon="-4.07511167">
        <ele>1145.0</ele>
        <time>2018-05-26T12:34:30.691Z</time>
      </trkpt>
      <trkpt lat="40.88831333" lon="-4.07507">
        <ele>1145.0</ele>
        <time>2018-05-26T12:34:31.686Z</time>
      </trkpt>
      <trkpt lat="40.88831333" lon="-4.07507">
        <ele>1145.0</ele>
        <time>2018-05-26T12:34:32.680Z</time>
      </trkpt>
      <trkpt lat="40.88834" lon="-4.07503">
        <ele>1147.0</ele>
        <time>2018-05-26T12:34:33.690Z</time>
      </trkpt>
      <trkpt lat="40.888355" lon="-4.07500667">
        <ele>1147.0</ele>
        <time>2018-05-26T12:34:34.679Z</time>
      </trkpt>
      <trkpt lat="40.888355" lon="-4.07500667">
        <ele>1147.0</ele>
        <time>2018-05-26T12:34:35.685Z</time>
      </trkpt>
      <trkpt lat="40.888385" lon="-4.07496167">
        <ele>1148.0</ele>
        <time>2018-05-26T12:34:36.691Z</time>
      </trkpt>
      <trkpt lat="40.8884" lon="-4.07494167">
        <ele>1148.0</ele>
        <time>2018-05-26T12:34:37.709Z</time>
      </trkpt>
      <trkpt lat="40.8884" lon="-4.07494167">
        <ele>1148.0</ele>
        <time>2018-05-26T12:34:38.710Z</time>
      </trkpt>
      <trkpt lat="40.88843333" lon="-4.07489833">
        <ele>1149.0</ele>
        <time>2018-05-26T12:34:39.682Z</time>
      </trkpt>
      <trkpt lat="40.88843333" lon="-4.07489833">
        <ele>1149.0</ele>
        <time>2018-05-26T12:34:40.694Z</time>
      </trkpt>
      <trkpt lat="40.88846167" lon="-4.07484667">
        <ele>1149.0</ele>
        <time>2018-05-26T12:34:41.701Z</time>
      </trkpt>
      <trkpt lat="40.88846167" lon="-4.07484667">
        <ele>1149.0</ele>
        <time>2018-05-26T12:34:42.694Z</time>
      </trkpt>
      <trkpt lat="40.88849333" lon="-4.07479667">
        <ele>1150.0</ele>
        <time>2018-05-26T12:34:43.687Z</time>
      </trkpt>
      <trkpt lat="40.88849333" lon="-4.07479667">
        <ele>1150.0</ele>
        <time>2018-05-26T12:34:44.704Z</time>
      </trkpt>
      <trkpt lat="40.888525" lon="-4.07475167">
        <ele>1150.0</ele>
        <time>2018-05-26T12:34:45.711Z</time>
      </trkpt>
      <trkpt lat="40.88854167" lon="-4.07473167">
        <ele>1150.0</ele>
        <time>2018-05-26T12:34:46.714Z</time>
      </trkpt>
      <trkpt lat="40.88854167" lon="-4.07473167">
        <ele>1150.0</ele>
        <time>2018-05-26T12:34:47.699Z</time>
      </trkpt>
      <trkpt lat="40.88857333" lon="-4.074685">
        <ele>1150.0</ele>
        <time>2018-05-26T12:34:48.710Z</time>
      </trkpt>
      <trkpt lat="40.88857333" lon="-4.074685">
        <ele>1150.0</ele>
        <time>2018-05-26T12:34:49.696Z</time>
      </trkpt>
      <trkpt lat="40.88860667" lon="-4.07464167">
        <ele>1151.0</ele>
        <time>2018-05-26T12:34:50.685Z</time>
      </trkpt>
      <trkpt lat="40.88860667" lon="-4.07464167">
        <ele>1151.0</ele>
        <time>2018-05-26T12:34:51.679Z</time>
      </trkpt>
      <trkpt lat="40.88863667" lon="-4.074605">
        <ele>1152.0</ele>
        <time>2018-05-26T12:34:52.685Z</time>
      </trkpt>
      <trkpt lat="40.88863667" lon="-4.074605">
        <ele>1152.0</ele>
        <time>2018-05-26T12:34:53.711Z</time>
      </trkpt>
      <trkpt lat="40.88867" lon="-4.07455">
        <ele>1152.0</ele>
        <time>2018-05-26T12:34:54.694Z</time>
      </trkpt>
      <trkpt lat="40.88868667" lon="-4.074525">
        <ele>1153.0</ele>
        <time>2018-05-26T12:34:55.678Z</time>
      </trkpt>
      <trkpt lat="40.88868667" lon="-4.074525">
        <ele>1153.0</ele>
        <time>2018-05-26T12:34:56.704Z</time>
      </trkpt>
      <trkpt lat="40.88872333" lon="-4.07448">
        <ele>1153.0</ele>
        <time>2018-05-26T12:34:57.710Z</time>
      </trkpt>
      <trkpt lat="40.88874" lon="-4.07446">
        <ele>1153.0</ele>
        <time>2018-05-26T12:34:58.682Z</time>
      </trkpt>
      <trkpt lat="40.88874" lon="-4.07446">
        <ele>1153.0</ele>
        <time>2018-05-26T12:34:59.675Z</time>
      </trkpt>
      <trkpt lat="40.88876667" lon="-4.07441833">
        <ele>1154.0</ele>
        <time>2018-05-26T12:35:00.682Z</time>
      </trkpt>
      <trkpt lat="40.88877833" lon="-4.074395">
        <ele>1154.0</ele>
        <time>2018-05-26T12:35:01.690Z</time>
      </trkpt>
      <trkpt lat="40.88877833" lon="-4.074395">
        <ele>1154.0</ele>
        <time>2018-05-26T12:35:02.690Z</time>
      </trkpt>
      <trkpt lat="40.888805" lon="-4.07434667">
        <ele>1154.0</ele>
        <time>2018-05-26T12:35:03.696Z</time>
      </trkpt>
      <trkpt lat="40.88881667" lon="-4.07432333">
        <ele>1154.0</ele>
        <time>2018-05-26T12:35:04.680Z</time>
      </trkpt>
      <trkpt lat="40.88881667" lon="-4.07432333">
        <ele>1154.0</ele>
        <time>2018-05-26T12:35:05.687Z</time>
      </trkpt>
      <trkpt lat="40.88884833" lon="-4.07427833">
        <ele>1154.0</ele>
        <time>2018-05-26T12:35:06.709Z</time>
      </trkpt>
      <trkpt lat="40.888865" lon="-4.074255">
        <ele>1155.0</ele>
        <time>2018-05-26T12:35:07.699Z</time>
      </trkpt>
      <trkpt lat="40.888865" lon="-4.074255">
        <ele>1155.0</ele>
        <time>2018-05-26T12:35:08.688Z</time>
      </trkpt>
      <trkpt lat="40.88890333" lon="-4.07421">
        <ele>1155.0</ele>
        <time>2018-05-26T12:35:09.697Z</time>
      </trkpt>
      <trkpt lat="40.88890333" lon="-4.07421">
        <ele>1155.0</ele>
        <time>2018-05-26T12:35:10.711Z</time>
      </trkpt>
      <trkpt lat="40.88894" lon="-4.07417167">
        <ele>1155.0</ele>
        <time>2018-05-26T12:35:11.715Z</time>
      </trkpt>
      <trkpt lat="40.88894" lon="-4.07417167">
        <ele>1155.0</ele>
        <time>2018-05-26T12:35:12.682Z</time>
      </trkpt>
      <trkpt lat="40.88897333" lon="-4.07412333">
        <ele>1155.0</ele>
        <time>2018-05-26T12:35:13.690Z</time>
      </trkpt>
      <trkpt lat="40.88899167" lon="-4.07409667">
        <ele>1156.0</ele>
        <time>2018-05-26T12:35:14.692Z</time>
      </trkpt>
      <trkpt lat="40.88899167" lon="-4.07409667">
        <ele>1156.0</ele>
        <time>2018-05-26T12:35:15.698Z</time>
      </trkpt>
      <trkpt lat="40.88902667" lon="-4.07404667">
        <ele>1156.0</ele>
        <time>2018-05-26T12:35:16.705Z</time>
      </trkpt>
      <trkpt lat="40.88902667" lon="-4.07404667">
        <ele>1156.0</ele>
        <time>2018-05-26T12:35:17.687Z</time>
      </trkpt>
      <trkpt lat="40.88906833" lon="-4.074">
        <ele>1156.0</ele>
        <time>2018-05-26T12:35:18.682Z</time>
      </trkpt>
      <trkpt lat="40.88908667" lon="-4.07397">
        <ele>1157.0</ele>
        <time>2018-05-26T12:35:19.691Z</time>
      </trkpt>
      <trkpt lat="40.88908667" lon="-4.07397">
        <ele>1157.0</ele>
        <time>2018-05-26T12:35:20.713Z</time>
      </trkpt>
      <trkpt lat="40.88912833" lon="-4.07392333">
        <ele>1157.0</ele>
        <time>2018-05-26T12:35:21.702Z</time>
      </trkpt>
      <trkpt lat="40.88912833" lon="-4.07392333">
        <ele>1157.0</ele>
        <time>2018-05-26T12:35:22.710Z</time>
      </trkpt>
      <trkpt lat="40.88917167" lon="-4.07388167">
        <ele>1157.0</ele>
        <time>2018-05-26T12:35:23.676Z</time>
      </trkpt>
      <trkpt lat="40.88918667" lon="-4.07385667">
        <ele>1158.0</ele>
        <time>2018-05-26T12:35:24.698Z</time>
      </trkpt>
      <trkpt lat="40.88918667" lon="-4.07385667">
        <ele>1158.0</ele>
        <time>2018-05-26T12:35:25.695Z</time>
      </trkpt>
      <trkpt lat="40.889215" lon="-4.073805">
        <ele>1159.0</ele>
        <time>2018-05-26T12:35:26.707Z</time>
      </trkpt>
      <trkpt lat="40.889215" lon="-4.073805">
        <ele>1159.0</ele>
        <time>2018-05-26T12:35:27.692Z</time>
      </trkpt>
      <trkpt lat="40.88924" lon="-4.07375667">
        <ele>1159.0</ele>
        <time>2018-05-26T12:35:28.682Z</time>
      </trkpt>
      <trkpt lat="40.88924" lon="-4.07375667">
        <ele>1159.0</ele>
        <time>2018-05-26T12:35:29.707Z</time>
      </trkpt>
      <trkpt lat="40.88926833" lon="-4.07370167">
        <ele>1160.0</ele>
        <time>2018-05-26T12:35:30.679Z</time>
      </trkpt>
      <trkpt lat="40.88928167" lon="-4.07367333">
        <ele>1159.0</ele>
        <time>2018-05-26T12:35:31.682Z</time>
      </trkpt>
      <trkpt lat="40.88928167" lon="-4.07367333">
        <ele>1159.0</ele>
        <time>2018-05-26T12:35:32.694Z</time>
      </trkpt>
      <trkpt lat="40.88930833" lon="-4.07361667">
        <ele>1160.0</ele>
        <time>2018-05-26T12:35:33.688Z</time>
      </trkpt>
      <trkpt lat="40.88930833" lon="-4.07361667">
        <ele>1160.0</ele>
        <time>2018-05-26T12:35:34.675Z</time>
      </trkpt>
      <trkpt lat="40.88934" lon="-4.073565">
        <ele>1160.0</ele>
        <time>2018-05-26T12:35:35.683Z</time>
      </trkpt>
      <trkpt lat="40.88935833" lon="-4.07354333">
        <ele>1161.0</ele>
        <time>2018-05-26T12:35:36.722Z</time>
      </trkpt>
      <trkpt lat="40.88935833" lon="-4.07354333">
        <ele>1161.0</ele>
        <time>2018-05-26T12:35:37.686Z</time>
      </trkpt>
      <trkpt lat="40.88939667" lon="-4.07350167">
        <ele>1161.0</ele>
        <time>2018-05-26T12:35:38.693Z</time>
      </trkpt>
      <trkpt lat="40.88941667" lon="-4.07348">
        <ele>1161.0</ele>
        <time>2018-05-26T12:35:39.712Z</time>
      </trkpt>
      <trkpt lat="40.88941667" lon="-4.07348">
        <ele>1161.0</ele>
        <time>2018-05-26T12:35:40.703Z</time>
      </trkpt>
      <trkpt lat="40.88945333" lon="-4.07343167">
        <ele>1161.0</ele>
        <time>2018-05-26T12:35:41.708Z</time>
      </trkpt>
      <trkpt lat="40.88945333" lon="-4.07343167">
        <ele>1161.0</ele>
        <time>2018-05-26T12:35:42.692Z</time>
      </trkpt>
      <trkpt lat="40.889485" lon="-4.07338167">
        <ele>1162.0</ele>
        <time>2018-05-26T12:35:43.716Z</time>
      </trkpt>
      <trkpt lat="40.889485" lon="-4.07338167">
        <ele>1162.0</ele>
        <time>2018-05-26T12:35:44.704Z</time>
      </trkpt>
      <trkpt lat="40.88951667" lon="-4.07333167">
        <ele>1162.0</ele>
        <time>2018-05-26T12:35:45.711Z</time>
      </trkpt>
      <trkpt lat="40.889535" lon="-4.073305">
        <ele>1162.0</ele>
        <time>2018-05-26T12:35:46.703Z</time>
      </trkpt>
      <trkpt lat="40.889535" lon="-4.073305">
        <ele>1162.0</ele>
        <time>2018-05-26T12:35:47.710Z</time>
      </trkpt>
      <trkpt lat="40.88956833" lon="-4.07325">
        <ele>1162.0</ele>
        <time>2018-05-26T12:35:48.677Z</time>
      </trkpt>
      <trkpt lat="40.88958667" lon="-4.073225">
        <ele>1163.0</ele>
        <time>2018-05-26T12:35:49.712Z</time>
      </trkpt>
      <trkpt lat="40.88958667" lon="-4.073225">
        <ele>1163.0</ele>
        <time>2018-05-26T12:35:50.706Z</time>
      </trkpt>
      <trkpt lat="40.889625" lon="-4.07317167">
        <ele>1163.0</ele>
        <time>2018-05-26T12:35:51.697Z</time>
      </trkpt>
      <trkpt lat="40.88964" lon="-4.07314333">
        <ele>1163.0</ele>
        <time>2018-05-26T12:35:52.702Z</time>
      </trkpt>
      <trkpt lat="40.88964" lon="-4.07314333">
        <ele>1163.0</ele>
        <time>2018-05-26T12:35:53.704Z</time>
      </trkpt>
      <trkpt lat="40.88966833" lon="-4.07308333">
        <ele>1163.0</ele>
        <time>2018-05-26T12:35:54.712Z</time>
      </trkpt>
      <trkpt lat="40.88967667" lon="-4.07304833">
        <ele>1163.0</ele>
        <time>2018-05-26T12:35:55.685Z</time>
      </trkpt>
      <trkpt lat="40.88967667" lon="-4.07304833">
        <ele>1163.0</ele>
        <time>2018-05-26T12:35:56.676Z</time>
      </trkpt>
      <trkpt lat="40.88970833" lon="-4.07299">
        <ele>1164.0</ele>
        <time>2018-05-26T12:35:57.687Z</time>
      </trkpt>
      <trkpt lat="40.88972333" lon="-4.07296167">
        <ele>1164.0</ele>
        <time>2018-05-26T12:35:58.708Z</time>
      </trkpt>
      <trkpt lat="40.88972333" lon="-4.07296167">
        <ele>1164.0</ele>
        <time>2018-05-26T12:35:59.679Z</time>
      </trkpt>
      <trkpt lat="40.88976167" lon="-4.07290833">
        <ele>1165.0</ele>
        <time>2018-05-26T12:36:00.708Z</time>
      </trkpt>
      <trkpt lat="40.88976167" lon="-4.07290833">
        <ele>1165.0</ele>
        <time>2018-05-26T12:36:01.698Z</time>
      </trkpt>
      <trkpt lat="40.88980667" lon="-4.07286">
        <ele>1165.0</ele>
        <time>2018-05-26T12:36:02.712Z</time>
      </trkpt>
      <trkpt lat="40.88980667" lon="-4.07286">
        <ele>1165.0</ele>
        <time>2018-05-26T12:36:03.697Z</time>
      </trkpt>
      <trkpt lat="40.88986" lon="-4.07281167">
        <ele>1165.0</ele>
        <time>2018-05-26T12:36:04.703Z</time>
      </trkpt>
      <trkpt lat="40.88986" lon="-4.07281167">
        <ele>1165.0</ele>
        <time>2018-05-26T12:36:05.691Z</time>
      </trkpt>
      <trkpt lat="40.889915" lon="-4.07276167">
        <ele>1165.0</ele>
        <time>2018-05-26T12:36:06.681Z</time>
      </trkpt>
      <trkpt lat="40.889915" lon="-4.07276167">
        <ele>1165.0</ele>
        <time>2018-05-26T12:36:07.710Z</time>
      </trkpt>
      <trkpt lat="40.88997167" lon="-4.07270833">
        <ele>1166.0</ele>
        <time>2018-05-26T12:36:08.677Z</time>
      </trkpt>
      <trkpt lat="40.88997167" lon="-4.07270833">
        <ele>1166.0</ele>
        <time>2018-05-26T12:36:09.703Z</time>
      </trkpt>
      <trkpt lat="40.890025" lon="-4.07264667">
        <ele>1166.0</ele>
        <time>2018-05-26T12:36:10.685Z</time>
      </trkpt>
      <trkpt lat="40.890025" lon="-4.07264667">
        <ele>1166.0</ele>
        <time>2018-05-26T12:36:11.696Z</time>
      </trkpt>
      <trkpt lat="40.89007167" lon="-4.07258167">
        <ele>1167.0</ele>
        <time>2018-05-26T12:36:12.703Z</time>
      </trkpt>
      <trkpt lat="40.89007167" lon="-4.07258167">
        <ele>1167.0</ele>
        <time>2018-05-26T12:36:13.688Z</time>
      </trkpt>
      <trkpt lat="40.89012" lon="-4.07251167">
        <ele>1167.0</ele>
        <time>2018-05-26T12:36:14.678Z</time>
      </trkpt>
      <trkpt lat="40.89012" lon="-4.07251167">
        <ele>1167.0</ele>
        <time>2018-05-26T12:36:15.689Z</time>
      </trkpt>
      <trkpt lat="40.89017167" lon="-4.072445">
        <ele>1167.0</ele>
        <time>2018-05-26T12:36:16.695Z</time>
      </trkpt>
      <trkpt lat="40.89017167" lon="-4.072445">
        <ele>1167.0</ele>
        <time>2018-05-26T12:36:17.685Z</time>
      </trkpt>
      <trkpt lat="40.89021667" lon="-4.07237167">
        <ele>1167.0</ele>
        <time>2018-05-26T12:36:18.682Z</time>
      </trkpt>
      <trkpt lat="40.89021667" lon="-4.07237167">
        <ele>1167.0</ele>
        <time>2018-05-26T12:36:19.712Z</time>
      </trkpt>
      <trkpt lat="40.89026" lon="-4.07229333">
        <ele>1168.0</ele>
        <time>2018-05-26T12:36:20.679Z</time>
      </trkpt>
      <trkpt lat="40.89026" lon="-4.07229333">
        <ele>1168.0</ele>
        <time>2018-05-26T12:36:21.701Z</time>
      </trkpt>
      <trkpt lat="40.89030667" lon="-4.07221">
        <ele>1168.0</ele>
        <time>2018-05-26T12:36:22.676Z</time>
      </trkpt>
      <trkpt lat="40.89030667" lon="-4.07221">
        <ele>1168.0</ele>
        <time>2018-05-26T12:36:23.677Z</time>
      </trkpt>
      <trkpt lat="40.89035333" lon="-4.072125">
        <ele>1168.0</ele>
        <time>2018-05-26T12:36:24.684Z</time>
      </trkpt>
      <trkpt lat="40.890375" lon="-4.07208333">
        <ele>1168.0</ele>
        <time>2018-05-26T12:36:25.680Z</time>
      </trkpt>
      <trkpt lat="40.89039833" lon="-4.07204167">
        <ele>1168.0</ele>
        <time>2018-05-26T12:36:26.675Z</time>
      </trkpt>
      <trkpt lat="40.89039833" lon="-4.07204167">
        <ele>1168.0</ele>
        <time>2018-05-26T12:36:27.701Z</time>
      </trkpt>
      <trkpt lat="40.890445" lon="-4.07195667">
        <ele>1168.0</ele>
        <time>2018-05-26T12:36:28.688Z</time>
      </trkpt>
      <trkpt lat="40.89046833" lon="-4.071915">
        <ele>1169.0</ele>
        <time>2018-05-26T12:36:29.678Z</time>
      </trkpt>
      <trkpt lat="40.89046833" lon="-4.071915">
        <ele>1169.0</ele>
        <time>2018-05-26T12:36:30.705Z</time>
      </trkpt>
      <trkpt lat="40.89051667" lon="-4.07183167">
        <ele>1169.0</ele>
        <time>2018-05-26T12:36:31.692Z</time>
      </trkpt>
      <trkpt lat="40.89051667" lon="-4.07183167">
        <ele>1169.0</ele>
        <time>2018-05-26T12:36:32.694Z</time>
      </trkpt>
      <trkpt lat="40.89057167" lon="-4.07175833">
        <ele>1169.0</ele>
        <time>2018-05-26T12:36:33.718Z</time>
      </trkpt>
      <trkpt lat="40.89057167" lon="-4.07175833">
        <ele>1169.0</ele>
        <time>2018-05-26T12:36:34.701Z</time>
      </trkpt>
      <trkpt lat="40.89063167" lon="-4.07168833">
        <ele>1168.0</ele>
        <time>2018-05-26T12:36:35.709Z</time>
      </trkpt>
      <trkpt lat="40.89063167" lon="-4.07168833">
        <ele>1168.0</ele>
        <time>2018-05-26T12:36:36.694Z</time>
      </trkpt>
      <trkpt lat="40.8907" lon="-4.07162333">
        <ele>1169.0</ele>
        <time>2018-05-26T12:36:37.679Z</time>
      </trkpt>
      <trkpt lat="40.8907" lon="-4.07162333">
        <ele>1169.0</ele>
        <time>2018-05-26T12:36:38.713Z</time>
      </trkpt>
      <trkpt lat="40.89076833" lon="-4.07155667">
        <ele>1168.0</ele>
        <time>2018-05-26T12:36:39.690Z</time>
      </trkpt>
      <trkpt lat="40.89079833" lon="-4.07151333">
        <ele>1169.0</ele>
        <time>2018-05-26T12:36:40.677Z</time>
      </trkpt>
      <trkpt lat="40.89079833" lon="-4.07151333">
        <ele>1169.0</ele>
        <time>2018-05-26T12:36:41.703Z</time>
      </trkpt>
      <trkpt lat="40.89085833" lon="-4.07142167">
        <ele>1168.0</ele>
        <time>2018-05-26T12:36:42.714Z</time>
      </trkpt>
      <trkpt lat="40.89089167" lon="-4.07137667">
        <ele>1168.0</ele>
        <time>2018-05-26T12:36:43.711Z</time>
      </trkpt>
      <trkpt lat="40.89089167" lon="-4.07137667">
        <ele>1168.0</ele>
        <time>2018-05-26T12:36:44.708Z</time>
      </trkpt>
      <trkpt lat="40.89096167" lon="-4.07127833">
        <ele>1168.0</ele>
        <time>2018-05-26T12:36:45.675Z</time>
      </trkpt>
      <trkpt lat="40.89096167" lon="-4.07127833">
        <ele>1168.0</ele>
        <time>2018-05-26T12:36:46.699Z</time>
      </trkpt>
      <trkpt lat="40.89104" lon="-4.07118667">
        <ele>1168.0</ele>
        <time>2018-05-26T12:36:47.712Z</time>
      </trkpt>
      <trkpt lat="40.89104" lon="-4.07118667">
        <ele>1168.0</ele>
        <time>2018-05-26T12:36:48.699Z</time>
      </trkpt>
      <trkpt lat="40.89111" lon="-4.07108333">
        <ele>1167.0</ele>
        <time>2018-05-26T12:36:49.706Z</time>
      </trkpt>
      <trkpt lat="40.89114333" lon="-4.07103167">
        <ele>1167.0</ele>
        <time>2018-05-26T12:36:50.682Z</time>
      </trkpt>
      <trkpt lat="40.89114333" lon="-4.07103167">
        <ele>1167.0</ele>
        <time>2018-05-26T12:36:51.699Z</time>
      </trkpt>
      <trkpt lat="40.891235" lon="-4.07097">
        <ele>1168.0</ele>
        <time>2018-05-26T12:36:52.706Z</time>
      </trkpt>
      <trkpt lat="40.89128333" lon="-4.07097667">
        <ele>1168.0</ele>
        <time>2018-05-26T12:36:53.718Z</time>
      </trkpt>
      <trkpt lat="40.891325" lon="-4.07100167">
        <ele>1168.0</ele>
        <time>2018-05-26T12:36:54.687Z</time>
      </trkpt>
      <trkpt lat="40.891325" lon="-4.07100167">
        <ele>1168.0</ele>
        <time>2018-05-26T12:36:55.704Z</time>
      </trkpt>
      <trkpt lat="40.89141333" lon="-4.07107">
        <ele>1168.0</ele>
        <time>2018-05-26T12:36:56.712Z</time>
      </trkpt>
      <trkpt lat="40.89141333" lon="-4.07107">
        <ele>1168.0</ele>
        <time>2018-05-26T12:36:57.696Z</time>
      </trkpt>
      <trkpt lat="40.89150833" lon="-4.07114167">
        <ele>1167.0</ele>
        <time>2018-05-26T12:36:58.718Z</time>
      </trkpt>
      <trkpt lat="40.89156" lon="-4.07117833">
        <ele>1167.0</ele>
        <time>2018-05-26T12:36:59.714Z</time>
      </trkpt>
      <trkpt lat="40.89156" lon="-4.07117833">
        <ele>1167.0</ele>
        <time>2018-05-26T12:37:00.699Z</time>
      </trkpt>
      <trkpt lat="40.891665" lon="-4.071245">
        <ele>1166.0</ele>
        <time>2018-05-26T12:37:01.690Z</time>
      </trkpt>
      <trkpt lat="40.891665" lon="-4.071245">
        <ele>1166.0</ele>
        <time>2018-05-26T12:37:02.695Z</time>
      </trkpt>
      <trkpt lat="40.89177833" lon="-4.07132667">
        <ele>1165.0</ele>
        <time>2018-05-26T12:37:03.702Z</time>
      </trkpt>
      <trkpt lat="40.89183333" lon="-4.071375">
        <ele>1165.0</ele>
        <time>2018-05-26T12:37:04.694Z</time>
      </trkpt>
      <trkpt lat="40.89189" lon="-4.07143167">
        <ele>1164.0</ele>
        <time>2018-05-26T12:37:05.684Z</time>
      </trkpt>
      <trkpt lat="40.89194333" lon="-4.07149167">
        <ele>1164.0</ele>
        <time>2018-05-26T12:37:06.711Z</time>
      </trkpt>
      <trkpt lat="40.891995" lon="-4.07155833">
        <ele>1163.0</ele>
        <time>2018-05-26T12:37:07.690Z</time>
      </trkpt>
      <trkpt lat="40.891995" lon="-4.07155833">
        <ele>1163.0</ele>
        <time>2018-05-26T12:37:08.675Z</time>
      </trkpt>
      <trkpt lat="40.89211167" lon="-4.07169833">
        <ele>1161.0</ele>
        <time>2018-05-26T12:37:09.682Z</time>
      </trkpt>
      <trkpt lat="40.89216667" lon="-4.07178167">
        <ele>1160.0</ele>
        <time>2018-05-26T12:37:10.685Z</time>
      </trkpt>
      <trkpt lat="40.89216667" lon="-4.07178167">
        <ele>1160.0</ele>
        <time>2018-05-26T12:37:11.714Z</time>
      </trkpt>
      <trkpt lat="40.89224667" lon="-4.071965">
        <ele>1159.0</ele>
        <time>2018-05-26T12:37:12.698Z</time>
      </trkpt>
      <trkpt lat="40.89224667" lon="-4.071965">
        <ele>1159.0</ele>
        <time>2018-05-26T12:37:13.687Z</time>
      </trkpt>
      <trkpt lat="40.89226833" lon="-4.07217">
        <ele>1157.0</ele>
        <time>2018-05-26T12:37:14.683Z</time>
      </trkpt>
      <trkpt lat="40.89226833" lon="-4.07217">
        <ele>1157.0</ele>
        <time>2018-05-26T12:37:15.711Z</time>
      </trkpt>
      <trkpt lat="40.89226833" lon="-4.072375">
        <ele>1156.0</ele>
        <time>2018-05-26T12:37:16.678Z</time>
      </trkpt>
      <trkpt lat="40.89226833" lon="-4.072375">
        <ele>1156.0</ele>
        <time>2018-05-26T12:37:17.703Z</time>
      </trkpt>
      <trkpt lat="40.89233" lon="-4.07255667">
        <ele>1154.0</ele>
        <time>2018-05-26T12:37:18.679Z</time>
      </trkpt>
      <trkpt lat="40.89238333" lon="-4.072635">
        <ele>1154.0</ele>
        <time>2018-05-26T12:37:19.708Z</time>
      </trkpt>
      <trkpt lat="40.89238333" lon="-4.072635">
        <ele>1154.0</ele>
        <time>2018-05-26T12:37:20.682Z</time>
      </trkpt>
      <trkpt lat="40.892505" lon="-4.07277">
        <ele>1152.0</ele>
        <time>2018-05-26T12:37:21.698Z</time>
      </trkpt>
      <trkpt lat="40.89257667" lon="-4.07279667">
        <ele>1151.0</ele>
        <time>2018-05-26T12:37:22.695Z</time>
      </trkpt>
      <trkpt lat="40.89257667" lon="-4.07279667">
        <ele>1151.0</ele>
        <time>2018-05-26T12:37:23.685Z</time>
      </trkpt>
      <trkpt lat="40.89272667" lon="-4.07279333">
        <ele>1150.0</ele>
        <time>2018-05-26T12:37:24.676Z</time>
      </trkpt>
      <trkpt lat="40.89279167" lon="-4.07279667">
        <ele>1150.0</ele>
        <time>2018-05-26T12:37:25.711Z</time>
      </trkpt>
      <trkpt lat="40.89285833" lon="-4.072835">
        <ele>1149.0</ele>
        <time>2018-05-26T12:37:26.698Z</time>
      </trkpt>
      <trkpt lat="40.89285833" lon="-4.072835">
        <ele>1149.0</ele>
        <time>2018-05-26T12:37:27.687Z</time>
      </trkpt>
      <trkpt lat="40.89296" lon="-4.07296667">
        <ele>1148.0</ele>
        <time>2018-05-26T12:37:28.697Z</time>
      </trkpt>
      <trkpt lat="40.89300833" lon="-4.07304167">
        <ele>1147.0</ele>
        <time>2018-05-26T12:37:29.686Z</time>
      </trkpt>
      <trkpt lat="40.89300833" lon="-4.07304167">
        <ele>1147.0</ele>
        <time>2018-05-26T12:37:30.696Z</time>
      </trkpt>
      <trkpt lat="40.893105" lon="-4.073205">
        <ele>1146.0</ele>
        <time>2018-05-26T12:37:31.702Z</time>
      </trkpt>
      <trkpt lat="40.893105" lon="-4.073205">
        <ele>1146.0</ele>
        <time>2018-05-26T12:37:32.703Z</time>
      </trkpt>
      <trkpt lat="40.89321833" lon="-4.07335167">
        <ele>1144.0</ele>
        <time>2018-05-26T12:37:33.675Z</time>
      </trkpt>
      <trkpt lat="40.89328167" lon="-4.07341833">
        <ele>1144.0</ele>
        <time>2018-05-26T12:37:34.677Z</time>
      </trkpt>
      <trkpt lat="40.89334667" lon="-4.073485">
        <ele>1144.0</ele>
        <time>2018-05-26T12:37:35.690Z</time>
      </trkpt>
      <trkpt lat="40.89334667" lon="-4.073485">
        <ele>1144.0</ele>
        <time>2018-05-26T12:37:36.676Z</time>
      </trkpt>
      <trkpt lat="40.893475" lon="-4.07362">
        <ele>1143.0</ele>
        <time>2018-05-26T12:37:37.686Z</time>
      </trkpt>
      <trkpt lat="40.893475" lon="-4.07362">
        <ele>1143.0</ele>
        <time>2018-05-26T12:37:38.697Z</time>
      </trkpt>
      <trkpt lat="40.893605" lon="-4.07373667">
        <ele>1143.0</ele>
        <time>2018-05-26T12:37:39.716Z</time>
      </trkpt>
      <trkpt lat="40.893605" lon="-4.07373667">
        <ele>1143.0</ele>
        <time>2018-05-26T12:37:40.694Z</time>
      </trkpt>
      <trkpt lat="40.89369667" lon="-4.07381833">
        <ele>1143.0</ele>
        <time>2018-05-26T12:37:41.707Z</time>
      </trkpt>
      <trkpt lat="40.89369667" lon="-4.07381833">
        <ele>1143.0</ele>
        <time>2018-05-26T12:37:42.677Z</time>
      </trkpt>
      <trkpt lat="40.89374667" lon="-4.07387833">
        <ele>1143.0</ele>
        <time>2018-05-26T12:37:43.680Z</time>
      </trkpt>
      <trkpt lat="40.89374667" lon="-4.07387833">
        <ele>1143.0</ele>
        <time>2018-05-26T12:37:44.686Z</time>
      </trkpt>
      <trkpt lat="40.89377333" lon="-4.07391667">
        <ele>1143.0</ele>
        <time>2018-05-26T12:37:45.694Z</time>
      </trkpt>
      <trkpt lat="40.89377333" lon="-4.07391667">
        <ele>1143.0</ele>
        <time>2018-05-26T12:37:46.687Z</time>
      </trkpt>
      <trkpt lat="40.89379" lon="-4.07394">
        <ele>1143.0</ele>
        <time>2018-05-26T12:37:47.681Z</time>
      </trkpt>
      <trkpt lat="40.89379" lon="-4.07394">
        <ele>1143.0</ele>
        <time>2018-05-26T12:37:48.693Z</time>
      </trkpt>
      <trkpt lat="40.89379667" lon="-4.07394167">
        <ele>1143.0</ele>
        <time>2018-05-26T12:37:49.692Z</time>
      </trkpt>
      <trkpt lat="40.89379667" lon="-4.07394167">
        <ele>1143.0</ele>
        <time>2018-05-26T12:37:50.714Z</time>
      </trkpt>
      <trkpt lat="40.89380333" lon="-4.07394833">
        <ele>1143.0</ele>
        <time>2018-05-26T12:37:51.705Z</time>
      </trkpt>
      <trkpt lat="40.89389167" lon="-4.07403333">
        <ele>1142.0</ele>
        <time>2018-05-26T12:37:52.698Z</time>
      </trkpt>
      <trkpt lat="40.89389167" lon="-4.07403333">
        <ele>1142.0</ele>
        <time>2018-05-26T12:37:53.690Z</time>
      </trkpt>
      <trkpt lat="40.89397833" lon="-4.07412833">
        <ele>1141.0</ele>
        <time>2018-05-26T12:37:54.693Z</time>
      </trkpt>
      <trkpt lat="40.89397833" lon="-4.07412833">
        <ele>1141.0</ele>
        <time>2018-05-26T12:37:55.694Z</time>
      </trkpt>
      <trkpt lat="40.89408333" lon="-4.074235">
        <ele>1141.0</ele>
        <time>2018-05-26T12:37:56.683Z</time>
      </trkpt>
      <trkpt lat="40.89408333" lon="-4.074235">
        <ele>1141.0</ele>
        <time>2018-05-26T12:37:57.712Z</time>
      </trkpt>
      <trkpt lat="40.89419667" lon="-4.07436333">
        <ele>1140.0</ele>
        <time>2018-05-26T12:37:58.679Z</time>
      </trkpt>
      <trkpt lat="40.89419667" lon="-4.07436333">
        <ele>1140.0</ele>
        <time>2018-05-26T12:37:59.710Z</time>
      </trkpt>
      <trkpt lat="40.89430833" lon="-4.07451667">
        <ele>1139.0</ele>
        <time>2018-05-26T12:38:00.676Z</time>
      </trkpt>
      <trkpt lat="40.89435833" lon="-4.074595">
        <ele>1138.0</ele>
        <time>2018-05-26T12:38:01.684Z</time>
      </trkpt>
      <trkpt lat="40.89435833" lon="-4.074595">
        <ele>1138.0</ele>
        <time>2018-05-26T12:38:02.711Z</time>
      </trkpt>
      <trkpt lat="40.894465" lon="-4.07475333">
        <ele>1137.0</ele>
        <time>2018-05-26T12:38:03.693Z</time>
      </trkpt>
      <trkpt lat="40.89452167" lon="-4.07482833">
        <ele>1137.0</ele>
        <time>2018-05-26T12:38:04.681Z</time>
      </trkpt>
      <trkpt lat="40.89452167" lon="-4.07482833">
        <ele>1137.0</ele>
        <time>2018-05-26T12:38:05.709Z</time>
      </trkpt>
      <trkpt lat="40.894655" lon="-4.074965">
        <ele>1136.0</ele>
        <time>2018-05-26T12:38:06.699Z</time>
      </trkpt>
      <trkpt lat="40.89472833" lon="-4.07502167">
        <ele>1136.0</ele>
        <time>2018-05-26T12:38:07.701Z</time>
      </trkpt>
      <trkpt lat="40.89472833" lon="-4.07502167">
        <ele>1136.0</ele>
        <time>2018-05-26T12:38:08.686Z</time>
      </trkpt>
      <trkpt lat="40.89487" lon="-4.07514333">
        <ele>1135.0</ele>
        <time>2018-05-26T12:38:09.708Z</time>
      </trkpt>
      <trkpt lat="40.89494" lon="-4.07521167">
        <ele>1135.0</ele>
        <time>2018-05-26T12:38:10.687Z</time>
      </trkpt>
      <trkpt lat="40.89494" lon="-4.07521167">
        <ele>1135.0</ele>
        <time>2018-05-26T12:38:11.712Z</time>
      </trkpt>
      <trkpt lat="40.89508167" lon="-4.07536167">
        <ele>1133.0</ele>
        <time>2018-05-26T12:38:12.697Z</time>
      </trkpt>
      <trkpt lat="40.89508167" lon="-4.07536167">
        <ele>1133.0</ele>
        <time>2018-05-26T12:38:13.687Z</time>
      </trkpt>
      <trkpt lat="40.89522167" lon="-4.07552">
        <ele>1132.0</ele>
        <time>2018-05-26T12:38:14.694Z</time>
      </trkpt>
      <trkpt lat="40.89522167" lon="-4.07552">
        <ele>1132.0</ele>
        <time>2018-05-26T12:38:15.691Z</time>
      </trkpt>
      <trkpt lat="40.89537167" lon="-4.07567667">
        <ele>1131.0</ele>
        <time>2018-05-26T12:38:16.678Z</time>
      </trkpt>
      <trkpt lat="40.89537167" lon="-4.07567667">
        <ele>1131.0</ele>
        <time>2018-05-26T12:38:17.687Z</time>
      </trkpt>
      <trkpt lat="40.89553" lon="-4.07581333">
        <ele>1130.0</ele>
        <time>2018-05-26T12:38:18.694Z</time>
      </trkpt>
      <trkpt lat="40.89553" lon="-4.07581333">
        <ele>1130.0</ele>
        <time>2018-05-26T12:38:19.682Z</time>
      </trkpt>
      <trkpt lat="40.89568333" lon="-4.075935">
        <ele>1130.0</ele>
        <time>2018-05-26T12:38:20.676Z</time>
      </trkpt>
      <trkpt lat="40.89568333" lon="-4.075935">
        <ele>1130.0</ele>
        <time>2018-05-26T12:38:21.691Z</time>
      </trkpt>
      <trkpt lat="40.89584" lon="-4.07607">
        <ele>1130.0</ele>
        <time>2018-05-26T12:38:22.698Z</time>
      </trkpt>
      <trkpt lat="40.89584" lon="-4.07607">
        <ele>1130.0</ele>
        <time>2018-05-26T12:38:23.685Z</time>
      </trkpt>
      <trkpt lat="40.89599" lon="-4.07621833">
        <ele>1129.0</ele>
        <time>2018-05-26T12:38:24.712Z</time>
      </trkpt>
      <trkpt lat="40.89599" lon="-4.07621833">
        <ele>1129.0</ele>
        <time>2018-05-26T12:38:25.692Z</time>
      </trkpt>
      <trkpt lat="40.89614" lon="-4.07637667">
        <ele>1128.0</ele>
        <time>2018-05-26T12:38:26.699Z</time>
      </trkpt>
      <trkpt lat="40.89614" lon="-4.07637667">
        <ele>1128.0</ele>
        <time>2018-05-26T12:38:27.680Z</time>
      </trkpt>
      <trkpt lat="40.89628667" lon="-4.07654833">
        <ele>1127.0</ele>
        <time>2018-05-26T12:38:28.696Z</time>
      </trkpt>
      <trkpt lat="40.89628667" lon="-4.07654833">
        <ele>1127.0</ele>
        <time>2018-05-26T12:38:29.710Z</time>
      </trkpt>
      <trkpt lat="40.89642833" lon="-4.07672167">
        <ele>1127.0</ele>
        <time>2018-05-26T12:38:30.684Z</time>
      </trkpt>
      <trkpt lat="40.89650667" lon="-4.07679833">
        <ele>1126.0</ele>
        <time>2018-05-26T12:38:31.677Z</time>
      </trkpt>
      <trkpt lat="40.89650667" lon="-4.07679833">
        <ele>1126.0</ele>
        <time>2018-05-26T12:38:32.714Z</time>
      </trkpt>
      <trkpt lat="40.89666667" lon="-4.07694">
        <ele>1125.0</ele>
        <time>2018-05-26T12:38:33.684Z</time>
      </trkpt>
      <trkpt lat="40.89674833" lon="-4.077005">
        <ele>1125.0</ele>
        <time>2018-05-26T12:38:34.689Z</time>
      </trkpt>
      <trkpt lat="40.89674833" lon="-4.077005">
        <ele>1125.0</ele>
        <time>2018-05-26T12:38:35.682Z</time>
      </trkpt>
      <trkpt lat="40.89691667" lon="-4.07711667">
        <ele>1125.0</ele>
        <time>2018-05-26T12:38:36.689Z</time>
      </trkpt>
      <trkpt lat="40.89691667" lon="-4.07711667">
        <ele>1125.0</ele>
        <time>2018-05-26T12:38:37.713Z</time>
      </trkpt>
      <trkpt lat="40.89708167" lon="-4.07723833">
        <ele>1125.0</ele>
        <time>2018-05-26T12:38:38.711Z</time>
      </trkpt>
      <trkpt lat="40.89708167" lon="-4.07723833">
        <ele>1125.0</ele>
        <time>2018-05-26T12:38:39.680Z</time>
      </trkpt>
      <trkpt lat="40.89724667" lon="-4.07736667">
        <ele>1125.0</ele>
        <time>2018-05-26T12:38:40.688Z</time>
      </trkpt>
      <trkpt lat="40.89724667" lon="-4.07736667">
        <ele>1125.0</ele>
        <time>2018-05-26T12:38:41.702Z</time>
      </trkpt>
      <trkpt lat="40.89740833" lon="-4.07749167">
        <ele>1125.0</ele>
        <time>2018-05-26T12:38:42.719Z</time>
      </trkpt>
      <trkpt lat="40.89740833" lon="-4.07749167">
        <ele>1125.0</ele>
        <time>2018-05-26T12:38:43.714Z</time>
      </trkpt>
      <trkpt lat="40.89756" lon="-4.07762167">
        <ele>1125.0</ele>
        <time>2018-05-26T12:38:44.681Z</time>
      </trkpt>
      <trkpt lat="40.89756" lon="-4.07762167">
        <ele>1125.0</ele>
        <time>2018-05-26T12:38:45.707Z</time>
      </trkpt>
      <trkpt lat="40.89771" lon="-4.07775167">
        <ele>1124.0</ele>
        <time>2018-05-26T12:38:46.692Z</time>
      </trkpt>
      <trkpt lat="40.89771" lon="-4.07775167">
        <ele>1124.0</ele>
        <time>2018-05-26T12:38:47.706Z</time>
      </trkpt>
      <trkpt lat="40.897855" lon="-4.077865">
        <ele>1124.0</ele>
        <time>2018-05-26T12:38:48.714Z</time>
      </trkpt>
      <trkpt lat="40.897855" lon="-4.077865">
        <ele>1124.0</ele>
        <time>2018-05-26T12:38:49.698Z</time>
      </trkpt>
      <trkpt lat="40.89800167" lon="-4.07797">
        <ele>1124.0</ele>
        <time>2018-05-26T12:38:50.682Z</time>
      </trkpt>
      <trkpt lat="40.89800167" lon="-4.07797">
        <ele>1124.0</ele>
        <time>2018-05-26T12:38:51.687Z</time>
      </trkpt>
      <trkpt lat="40.89815167" lon="-4.07806333">
        <ele>1123.0</ele>
        <time>2018-05-26T12:38:52.694Z</time>
      </trkpt>
      <trkpt lat="40.89815167" lon="-4.07806333">
        <ele>1123.0</ele>
        <time>2018-05-26T12:38:53.683Z</time>
      </trkpt>
      <trkpt lat="40.89831" lon="-4.07815">
        <ele>1123.0</ele>
        <time>2018-05-26T12:38:54.710Z</time>
      </trkpt>
      <trkpt lat="40.89839" lon="-4.07820167">
        <ele>1123.0</ele>
        <time>2018-05-26T12:38:55.694Z</time>
      </trkpt>
      <trkpt lat="40.89839" lon="-4.07820167">
        <ele>1123.0</ele>
        <time>2018-05-26T12:38:56.682Z</time>
      </trkpt>
      <trkpt lat="40.89855" lon="-4.0783">
        <ele>1122.0</ele>
        <time>2018-05-26T12:38:57.690Z</time>
      </trkpt>
      <trkpt lat="40.89863167" lon="-4.07834333">
        <ele>1122.0</ele>
        <time>2018-05-26T12:38:58.684Z</time>
      </trkpt>
      <trkpt lat="40.89863167" lon="-4.07834333">
        <ele>1122.0</ele>
        <time>2018-05-26T12:38:59.711Z</time>
      </trkpt>
      <trkpt lat="40.89879833" lon="-4.07842667">
        <ele>1122.0</ele>
        <time>2018-05-26T12:39:00.675Z</time>
      </trkpt>
      <trkpt lat="40.89879833" lon="-4.07842667">
        <ele>1122.0</ele>
        <time>2018-05-26T12:39:01.714Z</time>
      </trkpt>
      <trkpt lat="40.89895667" lon="-4.07851667">
        <ele>1122.0</ele>
        <time>2018-05-26T12:39:02.681Z</time>
      </trkpt>
      <trkpt lat="40.89895667" lon="-4.07851667">
        <ele>1122.0</ele>
        <time>2018-05-26T12:39:03.706Z</time>
      </trkpt>
      <trkpt lat="40.89910833" lon="-4.078605">
        <ele>1122.0</ele>
        <time>2018-05-26T12:39:04.692Z</time>
      </trkpt>
      <trkpt lat="40.89910833" lon="-4.078605">
        <ele>1122.0</ele>
        <time>2018-05-26T12:39:05.682Z</time>
      </trkpt>
      <trkpt lat="40.899265" lon="-4.07869167">
        <ele>1122.0</ele>
        <time>2018-05-26T12:39:06.690Z</time>
      </trkpt>
      <trkpt lat="40.89934167" lon="-4.07873167">
        <ele>1122.0</ele>
        <time>2018-05-26T12:39:07.677Z</time>
      </trkpt>
      <trkpt lat="40.89941833" lon="-4.07877">
        <ele>1122.0</ele>
        <time>2018-05-26T12:39:08.702Z</time>
      </trkpt>
      <trkpt lat="40.89941833" lon="-4.07877">
        <ele>1122.0</ele>
        <time>2018-05-26T12:39:09.688Z</time>
      </trkpt>
      <trkpt lat="40.899575" lon="-4.078845">
        <ele>1122.0</ele>
        <time>2018-05-26T12:39:10.714Z</time>
      </trkpt>
      <trkpt lat="40.899575" lon="-4.078845">
        <ele>1122.0</ele>
        <time>2018-05-26T12:39:11.694Z</time>
      </trkpt>
      <trkpt lat="40.89972333" lon="-4.07891667">
        <ele>1123.0</ele>
        <time>2018-05-26T12:39:12.700Z</time>
      </trkpt>
      <trkpt lat="40.89980167" lon="-4.07894833">
        <ele>1123.0</ele>
        <time>2018-05-26T12:39:13.689Z</time>
      </trkpt>
      <trkpt lat="40.89980167" lon="-4.07894833">
        <ele>1123.0</ele>
        <time>2018-05-26T12:39:14.689Z</time>
      </trkpt>
      <trkpt lat="40.89997" lon="-4.07900167">
        <ele>1122.0</ele>
        <time>2018-05-26T12:39:15.695Z</time>
      </trkpt>
      <trkpt lat="40.900055" lon="-4.07901833">
        <ele>1122.0</ele>
        <time>2018-05-26T12:39:16.711Z</time>
      </trkpt>
      <trkpt lat="40.900055" lon="-4.07901833">
        <ele>1122.0</ele>
        <time>2018-05-26T12:39:17.713Z</time>
      </trkpt>
      <trkpt lat="40.90022833" lon="-4.079065">
        <ele>1121.0</ele>
        <time>2018-05-26T12:39:18.680Z</time>
      </trkpt>
      <trkpt lat="40.90022833" lon="-4.079065">
        <ele>1121.0</ele>
        <time>2018-05-26T12:39:19.708Z</time>
      </trkpt>
      <trkpt lat="40.90039" lon="-4.07911667">
        <ele>1120.0</ele>
        <time>2018-05-26T12:39:20.679Z</time>
      </trkpt>
      <trkpt lat="40.90047" lon="-4.07912833">
        <ele>1120.0</ele>
        <time>2018-05-26T12:39:21.686Z</time>
      </trkpt>
      <trkpt lat="40.90047" lon="-4.07912833">
        <ele>1120.0</ele>
        <time>2018-05-26T12:39:22.675Z</time>
      </trkpt>
      <trkpt lat="40.90064" lon="-4.07917">
        <ele>1120.0</ele>
        <time>2018-05-26T12:39:23.683Z</time>
      </trkpt>
      <trkpt lat="40.90072333" lon="-4.07919333">
        <ele>1120.0</ele>
        <time>2018-05-26T12:39:24.719Z</time>
      </trkpt>
      <trkpt lat="40.90072333" lon="-4.07919333">
        <ele>1120.0</ele>
        <time>2018-05-26T12:39:25.706Z</time>
      </trkpt>
      <trkpt lat="40.90088833" lon="-4.079235">
        <ele>1119.0</ele>
        <time>2018-05-26T12:39:26.677Z</time>
      </trkpt>
      <trkpt lat="40.90097" lon="-4.07926167">
        <ele>1119.0</ele>
        <time>2018-05-26T12:39:27.699Z</time>
      </trkpt>
      <trkpt lat="40.90105167" lon="-4.07929">
        <ele>1119.0</ele>
        <time>2018-05-26T12:39:28.687Z</time>
      </trkpt>
      <trkpt lat="40.90105167" lon="-4.07929">
        <ele>1119.0</ele>
        <time>2018-05-26T12:39:29.714Z</time>
      </trkpt>
      <trkpt lat="40.901215" lon="-4.07935">
        <ele>1119.0</ele>
        <time>2018-05-26T12:39:30.706Z</time>
      </trkpt>
      <trkpt lat="40.901215" lon="-4.07935">
        <ele>1119.0</ele>
        <time>2018-05-26T12:39:31.684Z</time>
      </trkpt>
      <trkpt lat="40.901375" lon="-4.079415">
        <ele>1119.0</ele>
        <time>2018-05-26T12:39:32.702Z</time>
      </trkpt>
      <trkpt lat="40.901455" lon="-4.079445">
        <ele>1119.0</ele>
        <time>2018-05-26T12:39:33.686Z</time>
      </trkpt>
      <trkpt lat="40.901455" lon="-4.079445">
        <ele>1119.0</ele>
        <time>2018-05-26T12:39:34.708Z</time>
      </trkpt>
      <trkpt lat="40.90161833" lon="-4.07951333">
        <ele>1119.0</ele>
        <time>2018-05-26T12:39:35.677Z</time>
      </trkpt>
      <trkpt lat="40.90169667" lon="-4.07954333">
        <ele>1119.0</ele>
        <time>2018-05-26T12:39:36.707Z</time>
      </trkpt>
      <trkpt lat="40.90169667" lon="-4.07954333">
        <ele>1119.0</ele>
        <time>2018-05-26T12:39:37.691Z</time>
      </trkpt>
      <trkpt lat="40.90185667" lon="-4.079605">
        <ele>1119.0</ele>
        <time>2018-05-26T12:39:38.698Z</time>
      </trkpt>
      <trkpt lat="40.90185667" lon="-4.079605">
        <ele>1119.0</ele>
        <time>2018-05-26T12:39:39.689Z</time>
      </trkpt>
      <trkpt lat="40.90201" lon="-4.07967667">
        <ele>1118.0</ele>
        <time>2018-05-26T12:39:40.696Z</time>
      </trkpt>
      <trkpt lat="40.90201" lon="-4.07967667">
        <ele>1118.0</ele>
        <time>2018-05-26T12:39:41.683Z</time>
      </trkpt>
      <trkpt lat="40.90216" lon="-4.07975833">
        <ele>1118.0</ele>
        <time>2018-05-26T12:39:42.709Z</time>
      </trkpt>
      <trkpt lat="40.90223833" lon="-4.079795">
        <ele>1118.0</ele>
        <time>2018-05-26T12:39:43.686Z</time>
      </trkpt>
      <trkpt lat="40.90223833" lon="-4.079795">
        <ele>1118.0</ele>
        <time>2018-05-26T12:39:44.713Z</time>
      </trkpt>
      <trkpt lat="40.902395" lon="-4.07986833">
        <ele>1118.0</ele>
        <time>2018-05-26T12:39:45.676Z</time>
      </trkpt>
      <trkpt lat="40.90247167" lon="-4.07989333">
        <ele>1118.0</ele>
        <time>2018-05-26T12:39:46.701Z</time>
      </trkpt>
      <trkpt lat="40.90247167" lon="-4.07989333">
        <ele>1118.0</ele>
        <time>2018-05-26T12:39:47.678Z</time>
      </trkpt>
      <trkpt lat="40.90261667" lon="-4.07994333">
        <ele>1117.0</ele>
        <time>2018-05-26T12:39:48.686Z</time>
      </trkpt>
      <trkpt lat="40.90261667" lon="-4.07994333">
        <ele>1117.0</ele>
        <time>2018-05-26T12:39:49.690Z</time>
      </trkpt>
      <trkpt lat="40.90276167" lon="-4.08001833">
        <ele>1117.0</ele>
        <time>2018-05-26T12:39:50.683Z</time>
      </trkpt>
      <trkpt lat="40.90276167" lon="-4.08001833">
        <ele>1117.0</ele>
        <time>2018-05-26T12:39:51.705Z</time>
      </trkpt>
      <trkpt lat="40.90290333" lon="-4.080095">
        <ele>1117.0</ele>
        <time>2018-05-26T12:39:52.713Z</time>
      </trkpt>
      <trkpt lat="40.90290333" lon="-4.080095">
        <ele>1117.0</ele>
        <time>2018-05-26T12:39:53.697Z</time>
      </trkpt>
      <trkpt lat="40.90304667" lon="-4.08019667">
        <ele>1116.0</ele>
        <time>2018-05-26T12:39:54.679Z</time>
      </trkpt>
      <trkpt lat="40.90304667" lon="-4.08019667">
        <ele>1116.0</ele>
        <time>2018-05-26T12:39:55.683Z</time>
      </trkpt>
      <trkpt lat="40.9032" lon="-4.08028333">
        <ele>1116.0</ele>
        <time>2018-05-26T12:39:56.692Z</time>
      </trkpt>
      <trkpt lat="40.9032" lon="-4.08028333">
        <ele>1116.0</ele>
        <time>2018-05-26T12:39:57.682Z</time>
      </trkpt>
      <trkpt lat="40.90334833" lon="-4.080375">
        <ele>1115.0</ele>
        <time>2018-05-26T12:39:58.697Z</time>
      </trkpt>
      <trkpt lat="40.90334833" lon="-4.080375">
        <ele>1115.0</ele>
        <time>2018-05-26T12:39:59.693Z</time>
      </trkpt>
      <trkpt lat="40.90348333" lon="-4.08047833">
        <ele>1116.0</ele>
        <time>2018-05-26T12:40:00.687Z</time>
      </trkpt>
      <trkpt lat="40.90354833" lon="-4.08053167">
        <ele>1115.0</ele>
        <time>2018-05-26T12:40:01.688Z</time>
      </trkpt>
      <trkpt lat="40.90354833" lon="-4.08053167">
        <ele>1115.0</ele>
        <time>2018-05-26T12:40:02.703Z</time>
      </trkpt>
      <trkpt lat="40.903685" lon="-4.080645">
        <ele>1115.0</ele>
        <time>2018-05-26T12:40:03.710Z</time>
      </trkpt>
      <trkpt lat="40.903755" lon="-4.08070667">
        <ele>1114.0</ele>
        <time>2018-05-26T12:40:04.699Z</time>
      </trkpt>
      <trkpt lat="40.903755" lon="-4.08070667">
        <ele>1114.0</ele>
        <time>2018-05-26T12:40:05.686Z</time>
      </trkpt>
      <trkpt lat="40.90389667" lon="-4.08082333">
        <ele>1114.0</ele>
        <time>2018-05-26T12:40:06.694Z</time>
      </trkpt>
      <trkpt lat="40.90396833" lon="-4.08087667">
        <ele>1114.0</ele>
        <time>2018-05-26T12:40:07.684Z</time>
      </trkpt>
      <trkpt lat="40.90396833" lon="-4.08087667">
        <ele>1114.0</ele>
        <time>2018-05-26T12:40:08.683Z</time>
      </trkpt>
      <trkpt lat="40.90411667" lon="-4.08096833">
        <ele>1114.0</ele>
        <time>2018-05-26T12:40:09.695Z</time>
      </trkpt>
      <trkpt lat="40.90418667" lon="-4.08102">
        <ele>1113.0</ele>
        <time>2018-05-26T12:40:10.699Z</time>
      </trkpt>
      <trkpt lat="40.90418667" lon="-4.08102">
        <ele>1113.0</ele>
        <time>2018-05-26T12:40:11.688Z</time>
      </trkpt>
      <trkpt lat="40.904325" lon="-4.08112333">
        <ele>1113.0</ele>
        <time>2018-05-26T12:40:12.710Z</time>
      </trkpt>
      <trkpt lat="40.90439667" lon="-4.081165">
        <ele>1113.0</ele>
        <time>2018-05-26T12:40:13.693Z</time>
      </trkpt>
      <trkpt lat="40.90439667" lon="-4.081165">
        <ele>1113.0</ele>
        <time>2018-05-26T12:40:14.682Z</time>
      </trkpt>
      <trkpt lat="40.904535" lon="-4.08118833">
        <ele>1113.0</ele>
        <time>2018-05-26T12:40:15.709Z</time>
      </trkpt>
      <trkpt lat="40.90458833" lon="-4.081165">
        <ele>1113.0</ele>
        <time>2018-05-26T12:40:16.702Z</time>
      </trkpt>
      <trkpt lat="40.904635" lon="-4.081135">
        <ele>1113.0</ele>
        <time>2018-05-26T12:40:17.698Z</time>
      </trkpt>
      <trkpt lat="40.904635" lon="-4.081135">
        <ele>1113.0</ele>
        <time>2018-05-26T12:40:18.693Z</time>
      </trkpt>
      <trkpt lat="40.90471833" lon="-4.08112">
        <ele>1113.0</ele>
        <time>2018-05-26T12:40:19.706Z</time>
      </trkpt>
      <trkpt lat="40.90476167" lon="-4.08115167">
        <ele>1113.0</ele>
        <time>2018-05-26T12:40:20.690Z</time>
      </trkpt>
      <trkpt lat="40.90481667" lon="-4.08120167">
        <ele>1112.0</ele>
        <time>2018-05-26T12:40:21.714Z</time>
      </trkpt>
      <trkpt lat="40.90488167" lon="-4.08125">
        <ele>1112.0</ele>
        <time>2018-05-26T12:40:22.706Z</time>
      </trkpt>
      <trkpt lat="40.90488167" lon="-4.08125">
        <ele>1112.0</ele>
        <time>2018-05-26T12:40:23.689Z</time>
      </trkpt>
      <trkpt lat="40.90504167" lon="-4.08134167">
        <ele>1112.0</ele>
        <time>2018-05-26T12:40:24.685Z</time>
      </trkpt>
      <trkpt lat="40.90504167" lon="-4.08134167">
        <ele>1112.0</ele>
        <time>2018-05-26T12:40:25.685Z</time>
      </trkpt>
      <trkpt lat="40.90520833" lon="-4.08143">
        <ele>1112.0</ele>
        <time>2018-05-26T12:40:26.695Z</time>
      </trkpt>
      <trkpt lat="40.90520833" lon="-4.08143">
        <ele>1112.0</ele>
        <time>2018-05-26T12:40:27.695Z</time>
      </trkpt>
      <trkpt lat="40.90537833" lon="-4.08152667">
        <ele>1113.0</ele>
        <time>2018-05-26T12:40:28.679Z</time>
      </trkpt>
      <trkpt lat="40.90537833" lon="-4.08152667">
        <ele>1113.0</ele>
        <time>2018-05-26T12:40:29.692Z</time>
      </trkpt>
      <trkpt lat="40.90555333" lon="-4.08162167">
        <ele>1114.0</ele>
        <time>2018-05-26T12:40:30.707Z</time>
      </trkpt>
      <trkpt lat="40.90564167" lon="-4.081665">
        <ele>1114.0</ele>
        <time>2018-05-26T12:40:31.712Z</time>
      </trkpt>
      <trkpt lat="40.90564167" lon="-4.081665">
        <ele>1114.0</ele>
        <time>2018-05-26T12:40:32.682Z</time>
      </trkpt>
      <trkpt lat="40.90582" lon="-4.08174833">
        <ele>1114.0</ele>
        <time>2018-05-26T12:40:33.694Z</time>
      </trkpt>
      <trkpt lat="40.90590833" lon="-4.08179">
        <ele>1115.0</ele>
        <time>2018-05-26T12:40:34.708Z</time>
      </trkpt>
      <trkpt lat="40.90590833" lon="-4.08179">
        <ele>1115.0</ele>
        <time>2018-05-26T12:40:35.698Z</time>
      </trkpt>
      <trkpt lat="40.90608" lon="-4.08187833">
        <ele>1115.0</ele>
        <time>2018-05-26T12:40:36.710Z</time>
      </trkpt>
      <trkpt lat="40.90608" lon="-4.08187833">
        <ele>1115.0</ele>
        <time>2018-05-26T12:40:37.683Z</time>
      </trkpt>
      <trkpt lat="40.90623333" lon="-4.08197">
        <ele>1117.0</ele>
        <time>2018-05-26T12:40:38.698Z</time>
      </trkpt>
      <trkpt lat="40.90623333" lon="-4.08197">
        <ele>1117.0</ele>
        <time>2018-05-26T12:40:39.679Z</time>
      </trkpt>
      <trkpt lat="40.90637333" lon="-4.08208">
        <ele>1117.0</ele>
        <time>2018-05-26T12:40:40.704Z</time>
      </trkpt>
      <trkpt lat="40.90637333" lon="-4.08208">
        <ele>1117.0</ele>
        <time>2018-05-26T12:40:41.681Z</time>
      </trkpt>
      <trkpt lat="40.90651667" lon="-4.0822">
        <ele>1117.0</ele>
        <time>2018-05-26T12:40:42.694Z</time>
      </trkpt>
      <trkpt lat="40.90659" lon="-4.08225667">
        <ele>1117.0</ele>
        <time>2018-05-26T12:40:43.682Z</time>
      </trkpt>
      <trkpt lat="40.90659" lon="-4.08225667">
        <ele>1117.0</ele>
        <time>2018-05-26T12:40:44.713Z</time>
      </trkpt>
      <trkpt lat="40.90674667" lon="-4.082355">
        <ele>1116.0</ele>
        <time>2018-05-26T12:40:45.682Z</time>
      </trkpt>
      <trkpt lat="40.90682833" lon="-4.08239333">
        <ele>1116.0</ele>
        <time>2018-05-26T12:40:46.713Z</time>
      </trkpt>
      <trkpt lat="40.90682833" lon="-4.08239333">
        <ele>1116.0</ele>
        <time>2018-05-26T12:40:47.697Z</time>
      </trkpt>
      <trkpt lat="40.90699667" lon="-4.08246167">
        <ele>1115.0</ele>
        <time>2018-05-26T12:40:48.706Z</time>
      </trkpt>
      <trkpt lat="40.90708" lon="-4.08249">
        <ele>1115.0</ele>
        <time>2018-05-26T12:40:49.698Z</time>
      </trkpt>
      <trkpt lat="40.907165" lon="-4.08251167">
        <ele>1115.0</ele>
        <time>2018-05-26T12:40:50.709Z</time>
      </trkpt>
      <trkpt lat="40.907165" lon="-4.08251167">
        <ele>1115.0</ele>
        <time>2018-05-26T12:40:51.701Z</time>
      </trkpt>
      <trkpt lat="40.90732833" lon="-4.082545">
        <ele>1115.0</ele>
        <time>2018-05-26T12:40:52.712Z</time>
      </trkpt>
      <trkpt lat="40.90732833" lon="-4.082545">
        <ele>1115.0</ele>
        <time>2018-05-26T12:40:53.704Z</time>
      </trkpt>
      <trkpt lat="40.90749" lon="-4.082575">
        <ele>1115.0</ele>
        <time>2018-05-26T12:40:54.679Z</time>
      </trkpt>
      <trkpt lat="40.90749" lon="-4.082575">
        <ele>1115.0</ele>
        <time>2018-05-26T12:40:55.698Z</time>
      </trkpt>
      <trkpt lat="40.907655" lon="-4.08260833">
        <ele>1114.0</ele>
        <time>2018-05-26T12:40:56.709Z</time>
      </trkpt>
      <trkpt lat="40.907735" lon="-4.08262833">
        <ele>1114.0</ele>
        <time>2018-05-26T12:40:57.697Z</time>
      </trkpt>
      <trkpt lat="40.90781667" lon="-4.08265167">
        <ele>1114.0</ele>
        <time>2018-05-26T12:40:58.707Z</time>
      </trkpt>
      <trkpt lat="40.90781667" lon="-4.08265167">
        <ele>1114.0</ele>
        <time>2018-05-26T12:40:59.694Z</time>
      </trkpt>
      <trkpt lat="40.907975" lon="-4.082695">
        <ele>1114.0</ele>
        <time>2018-05-26T12:41:00.679Z</time>
      </trkpt>
      <trkpt lat="40.908055" lon="-4.082715">
        <ele>1114.0</ele>
        <time>2018-05-26T12:41:01.714Z</time>
      </trkpt>
      <trkpt lat="40.908055" lon="-4.082715">
        <ele>1114.0</ele>
        <time>2018-05-26T12:41:02.701Z</time>
      </trkpt>
      <trkpt lat="40.90821333" lon="-4.08276167">
        <ele>1114.0</ele>
        <time>2018-05-26T12:41:03.708Z</time>
      </trkpt>
      <trkpt lat="40.90829333" lon="-4.08278667">
        <ele>1114.0</ele>
        <time>2018-05-26T12:41:04.682Z</time>
      </trkpt>
      <trkpt lat="40.90829333" lon="-4.08278667">
        <ele>1114.0</ele>
        <time>2018-05-26T12:41:05.711Z</time>
      </trkpt>
      <trkpt lat="40.90846167" lon="-4.08283333">
        <ele>1113.0</ele>
        <time>2018-05-26T12:41:06.682Z</time>
      </trkpt>
      <trkpt lat="40.90854833" lon="-4.08285333">
        <ele>1113.0</ele>
        <time>2018-05-26T12:41:07.709Z</time>
      </trkpt>
      <trkpt lat="40.90854833" lon="-4.08285333">
        <ele>1113.0</ele>
        <time>2018-05-26T12:41:08.680Z</time>
      </trkpt>
      <trkpt lat="40.90872" lon="-4.08290333">
        <ele>1112.0</ele>
        <time>2018-05-26T12:41:09.689Z</time>
      </trkpt>
      <trkpt lat="40.90872" lon="-4.08290333">
        <ele>1112.0</ele>
        <time>2018-05-26T12:41:10.681Z</time>
      </trkpt>
      <trkpt lat="40.90888833" lon="-4.08298167">
        <ele>1111.0</ele>
        <time>2018-05-26T12:41:11.685Z</time>
      </trkpt>
      <trkpt lat="40.90888833" lon="-4.08298167">
        <ele>1111.0</ele>
        <time>2018-05-26T12:41:12.684Z</time>
      </trkpt>
      <trkpt lat="40.909045" lon="-4.083095">
        <ele>1111.0</ele>
        <time>2018-05-26T12:41:13.684Z</time>
      </trkpt>
      <trkpt lat="40.909045" lon="-4.083095">
        <ele>1111.0</ele>
        <time>2018-05-26T12:41:14.705Z</time>
      </trkpt>
      <trkpt lat="40.90918667" lon="-4.08324167">
        <ele>1110.0</ele>
        <time>2018-05-26T12:41:15.678Z</time>
      </trkpt>
      <trkpt lat="40.90918667" lon="-4.08324167">
        <ele>1110.0</ele>
        <time>2018-05-26T12:41:16.698Z</time>
      </trkpt>
      <trkpt lat="40.909295" lon="-4.08342667">
        <ele>1109.0</ele>
        <time>2018-05-26T12:41:17.679Z</time>
      </trkpt>
      <trkpt lat="40.909295" lon="-4.08342667">
        <ele>1109.0</ele>
        <time>2018-05-26T12:41:18.685Z</time>
      </trkpt>
      <trkpt lat="40.90938333" lon="-4.08362167">
        <ele>1109.0</ele>
        <time>2018-05-26T12:41:19.694Z</time>
      </trkpt>
      <trkpt lat="40.90938333" lon="-4.08362167">
        <ele>1109.0</ele>
        <time>2018-05-26T12:41:20.681Z</time>
      </trkpt>
      <trkpt lat="40.90948333" lon="-4.083805">
        <ele>1108.0</ele>
        <time>2018-05-26T12:41:21.683Z</time>
      </trkpt>
      <trkpt lat="40.90948333" lon="-4.083805">
        <ele>1108.0</ele>
        <time>2018-05-26T12:41:22.681Z</time>
      </trkpt>
      <trkpt lat="40.90958833" lon="-4.08398">
        <ele>1107.0</ele>
        <time>2018-05-26T12:41:23.689Z</time>
      </trkpt>
      <trkpt lat="40.90958833" lon="-4.08398">
        <ele>1107.0</ele>
        <time>2018-05-26T12:41:24.683Z</time>
      </trkpt>
      <trkpt lat="40.9097" lon="-4.08412833">
        <ele>1107.0</ele>
        <time>2018-05-26T12:41:25.679Z</time>
      </trkpt>
      <trkpt lat="40.9097" lon="-4.08412833">
        <ele>1107.0</ele>
        <time>2018-05-26T12:41:26.679Z</time>
      </trkpt>
      <trkpt lat="40.90979833" lon="-4.08424">
        <ele>1107.0</ele>
        <time>2018-05-26T12:41:27.687Z</time>
      </trkpt>
      <trkpt lat="40.90984167" lon="-4.08429">
        <ele>1107.0</ele>
        <time>2018-05-26T12:41:28.678Z</time>
      </trkpt>
      <trkpt lat="40.90984167" lon="-4.08429">
        <ele>1107.0</ele>
        <time>2018-05-26T12:41:29.684Z</time>
      </trkpt>
      <trkpt lat="40.90992667" lon="-4.084365">
        <ele>1107.0</ele>
        <time>2018-05-26T12:41:30.698Z</time>
      </trkpt>
      <trkpt lat="40.90995333" lon="-4.08436167">
        <ele>1108.0</ele>
        <time>2018-05-26T12:41:31.700Z</time>
      </trkpt>
      <trkpt lat="40.90995333" lon="-4.08436167">
        <ele>1108.0</ele>
        <time>2018-05-26T12:41:32.680Z</time>
      </trkpt>
      <trkpt lat="40.91001167" lon="-4.08433833">
        <ele>1108.0</ele>
        <time>2018-05-26T12:41:33.691Z</time>
      </trkpt>
      <trkpt lat="40.91001167" lon="-4.08433833">
        <ele>1108.0</ele>
        <time>2018-05-26T12:41:34.710Z</time>
      </trkpt>
      <trkpt lat="40.91007167" lon="-4.08432">
        <ele>1108.0</ele>
        <time>2018-05-26T12:41:35.699Z</time>
      </trkpt>
      <trkpt lat="40.91007167" lon="-4.08432">
        <ele>1108.0</ele>
        <time>2018-05-26T12:41:36.686Z</time>
      </trkpt>
      <trkpt lat="40.91010833" lon="-4.08431667">
        <ele>1108.0</ele>
        <time>2018-05-26T12:41:37.679Z</time>
      </trkpt>
      <trkpt lat="40.91012833" lon="-4.08432667">
        <ele>1108.0</ele>
        <time>2018-05-26T12:41:38.704Z</time>
      </trkpt>
      <trkpt lat="40.91012833" lon="-4.08432667">
        <ele>1108.0</ele>
        <time>2018-05-26T12:41:39.691Z</time>
      </trkpt>
      <trkpt lat="40.91017167" lon="-4.084335">
        <ele>1109.0</ele>
        <time>2018-05-26T12:41:40.689Z</time>
      </trkpt>
      <trkpt lat="40.91017167" lon="-4.084335">
        <ele>1109.0</ele>
        <time>2018-05-26T12:41:41.682Z</time>
      </trkpt>
      <trkpt lat="40.910195" lon="-4.08432833">
        <ele>1109.0</ele>
        <time>2018-05-26T12:41:42.694Z</time>
      </trkpt>
      <trkpt lat="40.9102" lon="-4.08433">
        <ele>1109.0</ele>
        <time>2018-05-26T12:41:43.711Z</time>
      </trkpt>
      <trkpt lat="40.91021" lon="-4.084335">
        <ele>1109.0</ele>
        <time>2018-05-26T12:41:44.685Z</time>
      </trkpt>
      <trkpt lat="40.91021" lon="-4.084335">
        <ele>1109.0</ele>
        <time>2018-05-26T12:41:45.710Z</time>
      </trkpt>
      <trkpt lat="40.91022667" lon="-4.08435833">
        <ele>1109.0</ele>
        <time>2018-05-26T12:41:46.684Z</time>
      </trkpt>
      <trkpt lat="40.91024167" lon="-4.08437333">
        <ele>1109.0</ele>
        <time>2018-05-26T12:41:47.677Z</time>
      </trkpt>
      <trkpt lat="40.91024167" lon="-4.08437333">
        <ele>1109.0</ele>
        <time>2018-05-26T12:41:48.702Z</time>
      </trkpt>
      <trkpt lat="40.91028833" lon="-4.08441333">
        <ele>1108.0</ele>
        <time>2018-05-26T12:41:49.709Z</time>
      </trkpt>
      <trkpt lat="40.91028833" lon="-4.08441333">
        <ele>1108.0</ele>
        <time>2018-05-26T12:41:50.694Z</time>
      </trkpt>
      <trkpt lat="40.91034833" lon="-4.08448">
        <ele>1108.0</ele>
        <time>2018-05-26T12:41:51.707Z</time>
      </trkpt>
      <trkpt lat="40.91034833" lon="-4.08448">
        <ele>1108.0</ele>
        <time>2018-05-26T12:41:52.681Z</time>
      </trkpt>
      <trkpt lat="40.91042167" lon="-4.08455667">
        <ele>1108.0</ele>
        <time>2018-05-26T12:41:53.690Z</time>
      </trkpt>
      <trkpt lat="40.91042167" lon="-4.08455667">
        <ele>1108.0</ele>
        <time>2018-05-26T12:41:54.678Z</time>
      </trkpt>
      <trkpt lat="40.910515" lon="-4.08463667">
        <ele>1108.0</ele>
        <time>2018-05-26T12:41:55.679Z</time>
      </trkpt>
      <trkpt lat="40.91056667" lon="-4.08467667">
        <ele>1108.0</ele>
        <time>2018-05-26T12:41:56.685Z</time>
      </trkpt>
      <trkpt lat="40.91056667" lon="-4.08467667">
        <ele>1108.0</ele>
        <time>2018-05-26T12:41:57.695Z</time>
      </trkpt>
      <trkpt lat="40.91067667" lon="-4.08475167">
        <ele>1108.0</ele>
        <time>2018-05-26T12:41:58.702Z</time>
      </trkpt>
      <trkpt lat="40.91067667" lon="-4.08475167">
        <ele>1108.0</ele>
        <time>2018-05-26T12:41:59.698Z</time>
      </trkpt>
      <trkpt lat="40.91079833" lon="-4.08482">
        <ele>1107.0</ele>
        <time>2018-05-26T12:42:00.688Z</time>
      </trkpt>
      <trkpt lat="40.91079833" lon="-4.08482">
        <ele>1107.0</ele>
        <time>2018-05-26T12:42:01.682Z</time>
      </trkpt>
      <trkpt lat="40.910925" lon="-4.08490667">
        <ele>1107.0</ele>
        <time>2018-05-26T12:42:02.691Z</time>
      </trkpt>
      <trkpt lat="40.910925" lon="-4.08490667">
        <ele>1107.0</ele>
        <time>2018-05-26T12:42:03.681Z</time>
      </trkpt>
      <trkpt lat="40.91104833" lon="-4.08501667">
        <ele>1107.0</ele>
        <time>2018-05-26T12:42:04.687Z</time>
      </trkpt>
      <trkpt lat="40.91104833" lon="-4.08501667">
        <ele>1107.0</ele>
        <time>2018-05-26T12:42:05.711Z</time>
      </trkpt>
      <trkpt lat="40.91117" lon="-4.08514167">
        <ele>1106.0</ele>
        <time>2018-05-26T12:42:06.685Z</time>
      </trkpt>
      <trkpt lat="40.91117" lon="-4.08514167">
        <ele>1106.0</ele>
        <time>2018-05-26T12:42:07.713Z</time>
      </trkpt>
      <trkpt lat="40.91129667" lon="-4.08526833">
        <ele>1106.0</ele>
        <time>2018-05-26T12:42:08.676Z</time>
      </trkpt>
      <trkpt lat="40.91129667" lon="-4.08526833">
        <ele>1106.0</ele>
        <time>2018-05-26T12:42:09.684Z</time>
      </trkpt>
      <trkpt lat="40.91142167" lon="-4.08539333">
        <ele>1105.0</ele>
        <time>2018-05-26T12:42:10.691Z</time>
      </trkpt>
      <trkpt lat="40.91142167" lon="-4.08539333">
        <ele>1105.0</ele>
        <time>2018-05-26T12:42:11.708Z</time>
      </trkpt>
      <trkpt lat="40.91153667" lon="-4.08550833">
        <ele>1105.0</ele>
        <time>2018-05-26T12:42:12.677Z</time>
      </trkpt>
      <trkpt lat="40.91153667" lon="-4.08550833">
        <ele>1105.0</ele>
        <time>2018-05-26T12:42:13.682Z</time>
      </trkpt>
      <trkpt lat="40.91165167" lon="-4.08561667">
        <ele>1105.0</ele>
        <time>2018-05-26T12:42:14.690Z</time>
      </trkpt>
      <trkpt lat="40.91165167" lon="-4.08561667">
        <ele>1105.0</ele>
        <time>2018-05-26T12:42:15.710Z</time>
      </trkpt>
      <trkpt lat="40.91176833" lon="-4.08572">
        <ele>1104.0</ele>
        <time>2018-05-26T12:42:16.682Z</time>
      </trkpt>
      <trkpt lat="40.91176833" lon="-4.08572">
        <ele>1104.0</ele>
        <time>2018-05-26T12:42:17.695Z</time>
      </trkpt>
      <trkpt lat="40.91188667" lon="-4.08582333">
        <ele>1104.0</ele>
        <time>2018-05-26T12:42:18.703Z</time>
      </trkpt>
      <trkpt lat="40.91194667" lon="-4.08588">
        <ele>1104.0</ele>
        <time>2018-05-26T12:42:19.689Z</time>
      </trkpt>
      <trkpt lat="40.91194667" lon="-4.08588">
        <ele>1104.0</ele>
        <time>2018-05-26T12:42:20.713Z</time>
      </trkpt>
      <trkpt lat="40.91206667" lon="-4.08601">
        <ele>1103.0</ele>
        <time>2018-05-26T12:42:21.683Z</time>
      </trkpt>
      <trkpt lat="40.91206667" lon="-4.08601">
        <ele>1103.0</ele>
        <time>2018-05-26T12:42:22.708Z</time>
      </trkpt>
      <trkpt lat="40.91220167" lon="-4.08614833">
        <ele>1102.0</ele>
        <time>2018-05-26T12:42:23.687Z</time>
      </trkpt>
      <trkpt lat="40.91220167" lon="-4.08614833">
        <ele>1102.0</ele>
        <time>2018-05-26T12:42:24.712Z</time>
      </trkpt>
      <trkpt lat="40.91234667" lon="-4.086275">
        <ele>1102.0</ele>
        <time>2018-05-26T12:42:25.680Z</time>
      </trkpt>
      <trkpt lat="40.91234667" lon="-4.086275">
        <ele>1102.0</ele>
        <time>2018-05-26T12:42:26.708Z</time>
      </trkpt>
      <trkpt lat="40.91249167" lon="-4.086405">
        <ele>1102.0</ele>
        <time>2018-05-26T12:42:27.682Z</time>
      </trkpt>
      <trkpt lat="40.912565" lon="-4.08646667">
        <ele>1101.0</ele>
        <time>2018-05-26T12:42:28.704Z</time>
      </trkpt>
      <trkpt lat="40.912565" lon="-4.08646667">
        <ele>1101.0</ele>
        <time>2018-05-26T12:42:29.688Z</time>
      </trkpt>
      <trkpt lat="40.91270833" lon="-4.08660833">
        <ele>1101.0</ele>
        <time>2018-05-26T12:42:30.682Z</time>
      </trkpt>
      <trkpt lat="40.91270833" lon="-4.08660833">
        <ele>1101.0</ele>
        <time>2018-05-26T12:42:31.712Z</time>
      </trkpt>
      <trkpt lat="40.912845" lon="-4.08676333">
        <ele>1101.0</ele>
        <time>2018-05-26T12:42:32.689Z</time>
      </trkpt>
      <trkpt lat="40.91291833" lon="-4.086835">
        <ele>1100.0</ele>
        <time>2018-05-26T12:42:33.686Z</time>
      </trkpt>
      <trkpt lat="40.91291833" lon="-4.086835">
        <ele>1100.0</ele>
        <time>2018-05-26T12:42:34.681Z</time>
      </trkpt>
      <trkpt lat="40.91306167" lon="-4.08697667">
        <ele>1100.0</ele>
        <time>2018-05-26T12:42:35.699Z</time>
      </trkpt>
      <trkpt lat="40.91306167" lon="-4.08697667">
        <ele>1100.0</ele>
        <time>2018-05-26T12:42:36.686Z</time>
      </trkpt>
      <trkpt lat="40.91320333" lon="-4.08711167">
        <ele>1100.0</ele>
        <time>2018-05-26T12:42:37.694Z</time>
      </trkpt>
      <trkpt lat="40.91328" lon="-4.08716333">
        <ele>1100.0</ele>
        <time>2018-05-26T12:42:38.691Z</time>
      </trkpt>
      <trkpt lat="40.91328" lon="-4.08716333">
        <ele>1100.0</ele>
        <time>2018-05-26T12:42:39.683Z</time>
      </trkpt>
      <trkpt lat="40.91344" lon="-4.087245">
        <ele>1099.0</ele>
        <time>2018-05-26T12:42:40.694Z</time>
      </trkpt>
      <trkpt lat="40.91344" lon="-4.087245">
        <ele>1099.0</ele>
        <time>2018-05-26T12:42:41.682Z</time>
      </trkpt>
      <trkpt lat="40.91359167" lon="-4.087345">
        <ele>1099.0</ele>
        <time>2018-05-26T12:42:42.697Z</time>
      </trkpt>
      <trkpt lat="40.91359167" lon="-4.087345">
        <ele>1099.0</ele>
        <time>2018-05-26T12:42:43.682Z</time>
      </trkpt>
      <trkpt lat="40.91372333" lon="-4.08746167">
        <ele>1098.0</ele>
        <time>2018-05-26T12:42:44.689Z</time>
      </trkpt>
      <trkpt lat="40.91372333" lon="-4.08746167">
        <ele>1098.0</ele>
        <time>2018-05-26T12:42:45.680Z</time>
      </trkpt>
      <trkpt lat="40.91382833" lon="-4.08756667">
        <ele>1098.0</ele>
        <time>2018-05-26T12:42:46.710Z</time>
      </trkpt>
      <trkpt lat="40.91382833" lon="-4.08756667">
        <ele>1098.0</ele>
        <time>2018-05-26T12:42:47.696Z</time>
      </trkpt>
      <trkpt lat="40.913935" lon="-4.08762667">
        <ele>1098.0</ele>
        <time>2018-05-26T12:42:48.704Z</time>
      </trkpt>
      <trkpt lat="40.91399" lon="-4.08764667">
        <ele>1098.0</ele>
        <time>2018-05-26T12:42:49.689Z</time>
      </trkpt>
      <trkpt lat="40.91399" lon="-4.08764667">
        <ele>1098.0</ele>
        <time>2018-05-26T12:42:50.676Z</time>
      </trkpt>
      <trkpt lat="40.914085" lon="-4.087735">
        <ele>1098.0</ele>
        <time>2018-05-26T12:42:51.684Z</time>
      </trkpt>
      <trkpt lat="40.91413167" lon="-4.087785">
        <ele>1098.0</ele>
        <time>2018-05-26T12:42:52.679Z</time>
      </trkpt>
      <trkpt lat="40.91413167" lon="-4.087785">
        <ele>1098.0</ele>
        <time>2018-05-26T12:42:53.704Z</time>
      </trkpt>
      <trkpt lat="40.91423333" lon="-4.087885">
        <ele>1098.0</ele>
        <time>2018-05-26T12:42:54.719Z</time>
      </trkpt>
      <trkpt lat="40.914285" lon="-4.087935">
        <ele>1098.0</ele>
        <time>2018-05-26T12:42:55.684Z</time>
      </trkpt>
      <trkpt lat="40.914285" lon="-4.087935">
        <ele>1098.0</ele>
        <time>2018-05-26T12:42:56.710Z</time>
      </trkpt>
      <trkpt lat="40.91438667" lon="-4.08804833">
        <ele>1099.0</ele>
        <time>2018-05-26T12:42:57.684Z</time>
      </trkpt>
      <trkpt lat="40.91443833" lon="-4.088105">
        <ele>1098.0</ele>
        <time>2018-05-26T12:42:58.689Z</time>
      </trkpt>
      <trkpt lat="40.91443833" lon="-4.088105">
        <ele>1098.0</ele>
        <time>2018-05-26T12:42:59.701Z</time>
      </trkpt>
      <trkpt lat="40.91454" lon="-4.08822333">
        <ele>1098.0</ele>
        <time>2018-05-26T12:43:00.708Z</time>
      </trkpt>
      <trkpt lat="40.91454" lon="-4.08822333">
        <ele>1098.0</ele>
        <time>2018-05-26T12:43:01.694Z</time>
      </trkpt>
      <trkpt lat="40.91464333" lon="-4.08834333">
        <ele>1098.0</ele>
        <time>2018-05-26T12:43:02.677Z</time>
      </trkpt>
      <trkpt lat="40.914695" lon="-4.08840333">
        <ele>1098.0</ele>
        <time>2018-05-26T12:43:03.678Z</time>
      </trkpt>
      <trkpt lat="40.914695" lon="-4.08840333">
        <ele>1098.0</ele>
        <time>2018-05-26T12:43:04.704Z</time>
      </trkpt>
      <trkpt lat="40.9148" lon="-4.08851667">
        <ele>1099.0</ele>
        <time>2018-05-26T12:43:05.684Z</time>
      </trkpt>
      <trkpt lat="40.9148" lon="-4.08851667">
        <ele>1099.0</ele>
        <time>2018-05-26T12:43:06.676Z</time>
      </trkpt>
      <trkpt lat="40.914905" lon="-4.08863333">
        <ele>1099.0</ele>
        <time>2018-05-26T12:43:07.684Z</time>
      </trkpt>
      <trkpt lat="40.914905" lon="-4.08863333">
        <ele>1099.0</ele>
        <time>2018-05-26T12:43:08.710Z</time>
      </trkpt>
      <trkpt lat="40.91500667" lon="-4.088755">
        <ele>1099.0</ele>
        <time>2018-05-26T12:43:09.679Z</time>
      </trkpt>
      <trkpt lat="40.91500667" lon="-4.088755">
        <ele>1099.0</ele>
        <time>2018-05-26T12:43:10.714Z</time>
      </trkpt>
      <trkpt lat="40.915105" lon="-4.08886833">
        <ele>1100.0</ele>
        <time>2018-05-26T12:43:11.682Z</time>
      </trkpt>
      <trkpt lat="40.91515667" lon="-4.08892">
        <ele>1100.0</ele>
        <time>2018-05-26T12:43:12.713Z</time>
      </trkpt>
      <trkpt lat="40.91515667" lon="-4.08892">
        <ele>1100.0</ele>
        <time>2018-05-26T12:43:13.699Z</time>
      </trkpt>
      <trkpt lat="40.91526167" lon="-4.08902167">
        <ele>1101.0</ele>
        <time>2018-05-26T12:43:14.707Z</time>
      </trkpt>
      <trkpt lat="40.91526167" lon="-4.08902167">
        <ele>1101.0</ele>
        <time>2018-05-26T12:43:15.696Z</time>
      </trkpt>
      <trkpt lat="40.91535833" lon="-4.08914333">
        <ele>1101.0</ele>
        <time>2018-05-26T12:43:16.682Z</time>
      </trkpt>
      <trkpt lat="40.91535833" lon="-4.08914333">
        <ele>1101.0</ele>
        <time>2018-05-26T12:43:17.704Z</time>
      </trkpt>
      <trkpt lat="40.91545333" lon="-4.08927167">
        <ele>1101.0</ele>
        <time>2018-05-26T12:43:18.711Z</time>
      </trkpt>
      <trkpt lat="40.9155" lon="-4.08933333">
        <ele>1101.0</ele>
        <time>2018-05-26T12:43:19.703Z</time>
      </trkpt>
      <trkpt lat="40.9155" lon="-4.08933333">
        <ele>1101.0</ele>
        <time>2018-05-26T12:43:20.701Z</time>
      </trkpt>
      <trkpt lat="40.9156" lon="-4.089455">
        <ele>1101.0</ele>
        <time>2018-05-26T12:43:21.711Z</time>
      </trkpt>
      <trkpt lat="40.91565167" lon="-4.08951333">
        <ele>1101.0</ele>
        <time>2018-05-26T12:43:22.709Z</time>
      </trkpt>
      <trkpt lat="40.91565167" lon="-4.08951333">
        <ele>1101.0</ele>
        <time>2018-05-26T12:43:23.712Z</time>
      </trkpt>
      <trkpt lat="40.91575167" lon="-4.08964667">
        <ele>1101.0</ele>
        <time>2018-05-26T12:43:24.684Z</time>
      </trkpt>
      <trkpt lat="40.91580333" lon="-4.089715">
        <ele>1101.0</ele>
        <time>2018-05-26T12:43:25.679Z</time>
      </trkpt>
      <trkpt lat="40.91580333" lon="-4.089715">
        <ele>1101.0</ele>
        <time>2018-05-26T12:43:26.691Z</time>
      </trkpt>
      <trkpt lat="40.91591" lon="-4.08984167">
        <ele>1101.0</ele>
        <time>2018-05-26T12:43:27.707Z</time>
      </trkpt>
      <trkpt lat="40.91596167" lon="-4.08990667">
        <ele>1101.0</ele>
        <time>2018-05-26T12:43:28.695Z</time>
      </trkpt>
      <trkpt lat="40.916015" lon="-4.08997333">
        <ele>1102.0</ele>
        <time>2018-05-26T12:43:29.708Z</time>
      </trkpt>
      <trkpt lat="40.916015" lon="-4.08997333">
        <ele>1102.0</ele>
        <time>2018-05-26T12:43:30.681Z</time>
      </trkpt>
      <trkpt lat="40.91612167" lon="-4.09011333">
        <ele>1102.0</ele>
        <time>2018-05-26T12:43:31.692Z</time>
      </trkpt>
      <trkpt lat="40.916175" lon="-4.09018333">
        <ele>1101.0</ele>
        <time>2018-05-26T12:43:32.711Z</time>
      </trkpt>
      <trkpt lat="40.916175" lon="-4.09018333">
        <ele>1101.0</ele>
        <time>2018-05-26T12:43:33.696Z</time>
      </trkpt>
      <trkpt lat="40.916285" lon="-4.09032">
        <ele>1101.0</ele>
        <time>2018-05-26T12:43:34.704Z</time>
      </trkpt>
      <trkpt lat="40.916285" lon="-4.09032">
        <ele>1101.0</ele>
        <time>2018-05-26T12:43:35.690Z</time>
      </trkpt>
      <trkpt lat="40.91639667" lon="-4.09046">
        <ele>1101.0</ele>
        <time>2018-05-26T12:43:36.697Z</time>
      </trkpt>
      <trkpt lat="40.91645333" lon="-4.09053167">
        <ele>1101.0</ele>
        <time>2018-05-26T12:43:37.690Z</time>
      </trkpt>
      <trkpt lat="40.91645333" lon="-4.09053167">
        <ele>1101.0</ele>
        <time>2018-05-26T12:43:38.690Z</time>
      </trkpt>
      <trkpt lat="40.91657" lon="-4.09067333">
        <ele>1101.0</ele>
        <time>2018-05-26T12:43:39.709Z</time>
      </trkpt>
      <trkpt lat="40.91662833" lon="-4.090745">
        <ele>1101.0</ele>
        <time>2018-05-26T12:43:40.682Z</time>
      </trkpt>
      <trkpt lat="40.91662833" lon="-4.090745">
        <ele>1101.0</ele>
        <time>2018-05-26T12:43:41.700Z</time>
      </trkpt>
      <trkpt lat="40.91674833" lon="-4.09089">
        <ele>1100.0</ele>
        <time>2018-05-26T12:43:42.708Z</time>
      </trkpt>
      <trkpt lat="40.91681" lon="-4.09096">
        <ele>1100.0</ele>
        <time>2018-05-26T12:43:43.701Z</time>
      </trkpt>
      <trkpt lat="40.91681" lon="-4.09096">
        <ele>1100.0</ele>
        <time>2018-05-26T12:43:44.687Z</time>
      </trkpt>
      <trkpt lat="40.91692833" lon="-4.09110333">
        <ele>1100.0</ele>
        <time>2018-05-26T12:43:45.695Z</time>
      </trkpt>
      <trkpt lat="40.91698667" lon="-4.09117667">
        <ele>1100.0</ele>
        <time>2018-05-26T12:43:46.679Z</time>
      </trkpt>
      <trkpt lat="40.91698667" lon="-4.09117667">
        <ele>1100.0</ele>
        <time>2018-05-26T12:43:47.684Z</time>
      </trkpt>
      <trkpt lat="40.917105" lon="-4.09131833">
        <ele>1100.0</ele>
        <time>2018-05-26T12:43:48.694Z</time>
      </trkpt>
      <trkpt lat="40.917105" lon="-4.09131833">
        <ele>1100.0</ele>
        <time>2018-05-26T12:43:49.683Z</time>
      </trkpt>
      <trkpt lat="40.91722333" lon="-4.09147">
        <ele>1099.0</ele>
        <time>2018-05-26T12:43:50.679Z</time>
      </trkpt>
      <trkpt lat="40.91722333" lon="-4.09147">
        <ele>1099.0</ele>
        <time>2018-05-26T12:43:51.700Z</time>
      </trkpt>
      <trkpt lat="40.91734167" lon="-4.091615">
        <ele>1099.0</ele>
        <time>2018-05-26T12:43:52.706Z</time>
      </trkpt>
      <trkpt lat="40.91734167" lon="-4.091615">
        <ele>1099.0</ele>
        <time>2018-05-26T12:43:53.686Z</time>
      </trkpt>
      <trkpt lat="40.91745833" lon="-4.09176333">
        <ele>1098.0</ele>
        <time>2018-05-26T12:43:54.709Z</time>
      </trkpt>
      <trkpt lat="40.91745833" lon="-4.09176333">
        <ele>1098.0</ele>
        <time>2018-05-26T12:43:55.692Z</time>
      </trkpt>
      <trkpt lat="40.91757167" lon="-4.09191167">
        <ele>1098.0</ele>
        <time>2018-05-26T12:43:56.699Z</time>
      </trkpt>
      <trkpt lat="40.91757167" lon="-4.09191167">
        <ele>1098.0</ele>
        <time>2018-05-26T12:43:57.703Z</time>
      </trkpt>
      <trkpt lat="40.91768" lon="-4.092055">
        <ele>1098.0</ele>
        <time>2018-05-26T12:43:58.679Z</time>
      </trkpt>
      <trkpt lat="40.91768" lon="-4.092055">
        <ele>1098.0</ele>
        <time>2018-05-26T12:43:59.693Z</time>
      </trkpt>
      <trkpt lat="40.91778333" lon="-4.09219667">
        <ele>1097.0</ele>
        <time>2018-05-26T12:44:00.700Z</time>
      </trkpt>
      <trkpt lat="40.91778333" lon="-4.09219667">
        <ele>1097.0</ele>
        <time>2018-05-26T12:44:01.684Z</time>
      </trkpt>
      <trkpt lat="40.91788667" lon="-4.09233833">
        <ele>1096.0</ele>
        <time>2018-05-26T12:44:02.679Z</time>
      </trkpt>
      <trkpt lat="40.91788667" lon="-4.09233833">
        <ele>1096.0</ele>
        <time>2018-05-26T12:44:03.684Z</time>
      </trkpt>
      <trkpt lat="40.91798667" lon="-4.09249333">
        <ele>1095.0</ele>
        <time>2018-05-26T12:44:04.691Z</time>
      </trkpt>
      <trkpt lat="40.91798667" lon="-4.09249333">
        <ele>1095.0</ele>
        <time>2018-05-26T12:44:05.695Z</time>
      </trkpt>
      <trkpt lat="40.91809167" lon="-4.09265">
        <ele>1095.0</ele>
        <time>2018-05-26T12:44:06.682Z</time>
      </trkpt>
      <trkpt lat="40.91809167" lon="-4.09265">
        <ele>1095.0</ele>
        <time>2018-05-26T12:44:07.713Z</time>
      </trkpt>
      <trkpt lat="40.91820667" lon="-4.0928">
        <ele>1094.0</ele>
        <time>2018-05-26T12:44:08.681Z</time>
      </trkpt>
      <trkpt lat="40.91820667" lon="-4.0928">
        <ele>1094.0</ele>
        <time>2018-05-26T12:44:09.698Z</time>
      </trkpt>
      <trkpt lat="40.918325" lon="-4.092955">
        <ele>1093.0</ele>
        <time>2018-05-26T12:44:10.712Z</time>
      </trkpt>
      <trkpt lat="40.918325" lon="-4.092955">
        <ele>1093.0</ele>
        <time>2018-05-26T12:44:11.702Z</time>
      </trkpt>
      <trkpt lat="40.91844167" lon="-4.09311833">
        <ele>1093.0</ele>
        <time>2018-05-26T12:44:12.709Z</time>
      </trkpt>
      <trkpt lat="40.91849833" lon="-4.093205">
        <ele>1092.0</ele>
        <time>2018-05-26T12:44:13.677Z</time>
      </trkpt>
      <trkpt lat="40.91855667" lon="-4.09329333">
        <ele>1091.0</ele>
        <time>2018-05-26T12:44:14.700Z</time>
      </trkpt>
      <trkpt lat="40.91855667" lon="-4.09329333">
        <ele>1091.0</ele>
        <time>2018-05-26T12:44:15.684Z</time>
      </trkpt>
      <trkpt lat="40.91868333" lon="-4.093465">
        <ele>1090.0</ele>
        <time>2018-05-26T12:44:16.676Z</time>
      </trkpt>
      <trkpt lat="40.91875" lon="-4.093555">
        <ele>1090.0</ele>
        <time>2018-05-26T12:44:17.704Z</time>
      </trkpt>
      <trkpt lat="40.91875" lon="-4.093555">
        <ele>1090.0</ele>
        <time>2018-05-26T12:44:18.691Z</time>
      </trkpt>
      <trkpt lat="40.91887833" lon="-4.09374">
        <ele>1089.0</ele>
        <time>2018-05-26T12:44:19.698Z</time>
      </trkpt>
      <trkpt lat="40.91894333" lon="-4.09383333">
        <ele>1088.0</ele>
        <time>2018-05-26T12:44:20.724Z</time>
      </trkpt>
      <trkpt lat="40.91894333" lon="-4.09383333">
        <ele>1088.0</ele>
        <time>2018-05-26T12:44:21.693Z</time>
      </trkpt>
      <trkpt lat="40.91908167" lon="-4.09401167">
        <ele>1087.0</ele>
        <time>2018-05-26T12:44:22.699Z</time>
      </trkpt>
      <trkpt lat="40.91908167" lon="-4.09401167">
        <ele>1087.0</ele>
        <time>2018-05-26T12:44:23.685Z</time>
      </trkpt>
      <trkpt lat="40.91921833" lon="-4.09420333">
        <ele>1086.0</ele>
        <time>2018-05-26T12:44:24.689Z</time>
      </trkpt>
      <trkpt lat="40.91921833" lon="-4.09420333">
        <ele>1086.0</ele>
        <time>2018-05-26T12:44:25.682Z</time>
      </trkpt>
      <trkpt lat="40.919355" lon="-4.09439167">
        <ele>1085.0</ele>
        <time>2018-05-26T12:44:26.690Z</time>
      </trkpt>
      <trkpt lat="40.919355" lon="-4.09439167">
        <ele>1085.0</ele>
        <time>2018-05-26T12:44:27.714Z</time>
      </trkpt>
      <trkpt lat="40.91949833" lon="-4.094565">
        <ele>1084.0</ele>
        <time>2018-05-26T12:44:28.700Z</time>
      </trkpt>
      <trkpt lat="40.91949833" lon="-4.094565">
        <ele>1084.0</ele>
        <time>2018-05-26T12:44:29.712Z</time>
      </trkpt>
      <trkpt lat="40.919635" lon="-4.094755">
        <ele>1083.0</ele>
        <time>2018-05-26T12:44:30.679Z</time>
      </trkpt>
      <trkpt lat="40.91970167" lon="-4.09484833">
        <ele>1083.0</ele>
        <time>2018-05-26T12:44:31.705Z</time>
      </trkpt>
      <trkpt lat="40.91970167" lon="-4.09484833">
        <ele>1083.0</ele>
        <time>2018-05-26T12:44:32.697Z</time>
      </trkpt>
      <trkpt lat="40.919835" lon="-4.095035">
        <ele>1083.0</ele>
        <time>2018-05-26T12:44:33.710Z</time>
      </trkpt>
      <trkpt lat="40.919835" lon="-4.095035">
        <ele>1083.0</ele>
        <time>2018-05-26T12:44:34.711Z</time>
      </trkpt>
      <trkpt lat="40.91996833" lon="-4.09521333">
        <ele>1083.0</ele>
        <time>2018-05-26T12:44:35.699Z</time>
      </trkpt>
      <trkpt lat="40.92003833" lon="-4.095295">
        <ele>1082.0</ele>
        <time>2018-05-26T12:44:36.684Z</time>
      </trkpt>
      <trkpt lat="40.92011" lon="-4.09537167">
        <ele>1082.0</ele>
        <time>2018-05-26T12:44:37.708Z</time>
      </trkpt>
      <trkpt lat="40.92011" lon="-4.09537167">
        <ele>1082.0</ele>
        <time>2018-05-26T12:44:38.688Z</time>
      </trkpt>
      <trkpt lat="40.92025" lon="-4.09552">
        <ele>1082.0</ele>
        <time>2018-05-26T12:44:39.680Z</time>
      </trkpt>
      <trkpt lat="40.92025" lon="-4.09552">
        <ele>1082.0</ele>
        <time>2018-05-26T12:44:40.697Z</time>
      </trkpt>
      <trkpt lat="40.92038667" lon="-4.09567667">
        <ele>1081.0</ele>
        <time>2018-05-26T12:44:41.705Z</time>
      </trkpt>
      <trkpt lat="40.92038667" lon="-4.09567667">
        <ele>1081.0</ele>
        <time>2018-05-26T12:44:42.694Z</time>
      </trkpt>
      <trkpt lat="40.92052167" lon="-4.09581833">
        <ele>1081.0</ele>
        <time>2018-05-26T12:44:43.709Z</time>
      </trkpt>
      <trkpt lat="40.92052167" lon="-4.09581833">
        <ele>1081.0</ele>
        <time>2018-05-26T12:44:44.693Z</time>
      </trkpt>
      <trkpt lat="40.920655" lon="-4.09594333">
        <ele>1081.0</ele>
        <time>2018-05-26T12:44:45.700Z</time>
      </trkpt>
      <trkpt lat="40.92071833" lon="-4.096005">
        <ele>1081.0</ele>
        <time>2018-05-26T12:44:46.689Z</time>
      </trkpt>
      <trkpt lat="40.92071833" lon="-4.096005">
        <ele>1081.0</ele>
        <time>2018-05-26T12:44:47.699Z</time>
      </trkpt>
      <trkpt lat="40.920845" lon="-4.09612833">
        <ele>1081.0</ele>
        <time>2018-05-26T12:44:48.705Z</time>
      </trkpt>
      <trkpt lat="40.92090667" lon="-4.09619333">
        <ele>1081.0</ele>
        <time>2018-05-26T12:44:49.714Z</time>
      </trkpt>
      <trkpt lat="40.92090667" lon="-4.09619333">
        <ele>1081.0</ele>
        <time>2018-05-26T12:44:50.690Z</time>
      </trkpt>
      <trkpt lat="40.92103" lon="-4.096325">
        <ele>1080.0</ele>
        <time>2018-05-26T12:44:51.698Z</time>
      </trkpt>
      <trkpt lat="40.92103" lon="-4.096325">
        <ele>1080.0</ele>
        <time>2018-05-26T12:44:52.680Z</time>
      </trkpt>
      <trkpt lat="40.92114667" lon="-4.09645167">
        <ele>1080.0</ele>
        <time>2018-05-26T12:44:53.687Z</time>
      </trkpt>
      <trkpt lat="40.92114667" lon="-4.09645167">
        <ele>1080.0</ele>
        <time>2018-05-26T12:44:54.713Z</time>
      </trkpt>
      <trkpt lat="40.92125667" lon="-4.09657">
        <ele>1080.0</ele>
        <time>2018-05-26T12:44:55.709Z</time>
      </trkpt>
      <trkpt lat="40.92125667" lon="-4.09657">
        <ele>1080.0</ele>
        <time>2018-05-26T12:44:56.699Z</time>
      </trkpt>
      <trkpt lat="40.92135833" lon="-4.09668333">
        <ele>1079.0</ele>
        <time>2018-05-26T12:44:57.706Z</time>
      </trkpt>
      <trkpt lat="40.92140167" lon="-4.09672167">
        <ele>1079.0</ele>
        <time>2018-05-26T12:44:58.684Z</time>
      </trkpt>
      <trkpt lat="40.92140167" lon="-4.09672167">
        <ele>1079.0</ele>
        <time>2018-05-26T12:44:59.690Z</time>
      </trkpt>
      <trkpt lat="40.92146667" lon="-4.09673667">
        <ele>1079.0</ele>
        <time>2018-05-26T12:45:00.709Z</time>
      </trkpt>
      <trkpt lat="40.92146667" lon="-4.09673667">
        <ele>1079.0</ele>
        <time>2018-05-26T12:45:01.700Z</time>
      </trkpt>
      <trkpt lat="40.9215" lon="-4.09666">
        <ele>1079.0</ele>
        <time>2018-05-26T12:45:02.707Z</time>
      </trkpt>
      <trkpt lat="40.9215" lon="-4.09666">
        <ele>1079.0</ele>
        <time>2018-05-26T12:45:03.685Z</time>
      </trkpt>
      <trkpt lat="40.92151" lon="-4.09653667">
        <ele>1078.0</ele>
        <time>2018-05-26T12:45:04.679Z</time>
      </trkpt>
      <trkpt lat="40.92151" lon="-4.09653667">
        <ele>1078.0</ele>
        <time>2018-05-26T12:45:05.685Z</time>
      </trkpt>
      <trkpt lat="40.92152333" lon="-4.09637167">
        <ele>1078.0</ele>
        <time>2018-05-26T12:45:06.693Z</time>
      </trkpt>
      <trkpt lat="40.92153167" lon="-4.09628">
        <ele>1078.0</ele>
        <time>2018-05-26T12:45:07.689Z</time>
      </trkpt>
      <trkpt lat="40.92153167" lon="-4.09628">
        <ele>1078.0</ele>
        <time>2018-05-26T12:45:08.698Z</time>
      </trkpt>
      <trkpt lat="40.92155167" lon="-4.096075">
        <ele>1078.0</ele>
        <time>2018-05-26T12:45:09.704Z</time>
      </trkpt>
      <trkpt lat="40.92156167" lon="-4.09597167">
        <ele>1078.0</ele>
        <time>2018-05-26T12:45:10.680Z</time>
      </trkpt>
      <trkpt lat="40.92156167" lon="-4.09597167">
        <ele>1078.0</ele>
        <time>2018-05-26T12:45:11.704Z</time>
      </trkpt>
      <trkpt lat="40.92158167" lon="-4.09576833">
        <ele>1078.0</ele>
        <time>2018-05-26T12:45:12.710Z</time>
      </trkpt>
      <trkpt lat="40.92159167" lon="-4.09567">
        <ele>1078.0</ele>
        <time>2018-05-26T12:45:13.701Z</time>
      </trkpt>
      <trkpt lat="40.92159167" lon="-4.09567">
        <ele>1078.0</ele>
        <time>2018-05-26T12:45:14.682Z</time>
      </trkpt>
      <trkpt lat="40.92161667" lon="-4.09548333">
        <ele>1078.0</ele>
        <time>2018-05-26T12:45:15.689Z</time>
      </trkpt>
      <trkpt lat="40.92162667" lon="-4.095395">
        <ele>1078.0</ele>
        <time>2018-05-26T12:45:16.694Z</time>
      </trkpt>
      <trkpt lat="40.92162667" lon="-4.095395">
        <ele>1078.0</ele>
        <time>2018-05-26T12:45:17.680Z</time>
      </trkpt>
      <trkpt lat="40.92165333" lon="-4.09522167">
        <ele>1078.0</ele>
        <time>2018-05-26T12:45:18.687Z</time>
      </trkpt>
      <trkpt lat="40.92165333" lon="-4.09522167">
        <ele>1078.0</ele>
        <time>2018-05-26T12:45:19.705Z</time>
      </trkpt>
      <trkpt lat="40.92169667" lon="-4.09506167">
        <ele>1078.0</ele>
        <time>2018-05-26T12:45:20.693Z</time>
      </trkpt>
      <trkpt lat="40.92169667" lon="-4.09506167">
        <ele>1078.0</ele>
        <time>2018-05-26T12:45:21.682Z</time>
      </trkpt>
      <trkpt lat="40.92178" lon="-4.09493833">
        <ele>1077.0</ele>
        <time>2018-05-26T12:45:22.694Z</time>
      </trkpt>
      <trkpt lat="40.92178" lon="-4.09493833">
        <ele>1077.0</ele>
        <time>2018-05-26T12:45:23.702Z</time>
      </trkpt>
      <trkpt lat="40.921895" lon="-4.094895">
        <ele>1077.0</ele>
        <time>2018-05-26T12:45:24.689Z</time>
      </trkpt>
      <trkpt lat="40.921895" lon="-4.094895">
        <ele>1077.0</ele>
        <time>2018-05-26T12:45:25.701Z</time>
      </trkpt>
      <trkpt lat="40.92201333" lon="-4.094915">
        <ele>1077.0</ele>
        <time>2018-05-26T12:45:26.708Z</time>
      </trkpt>
      <trkpt lat="40.92201333" lon="-4.094915">
        <ele>1077.0</ele>
        <time>2018-05-26T12:45:27.702Z</time>
      </trkpt>
      <trkpt lat="40.92213333" lon="-4.09495833">
        <ele>1077.0</ele>
        <time>2018-05-26T12:45:28.712Z</time>
      </trkpt>
      <trkpt lat="40.92213333" lon="-4.09495833">
        <ele>1077.0</ele>
        <time>2018-05-26T12:45:29.697Z</time>
      </trkpt>
      <trkpt lat="40.92228" lon="-4.095075">
        <ele>1077.0</ele>
        <time>2018-05-26T12:45:30.705Z</time>
      </trkpt>
      <trkpt lat="40.92234167" lon="-4.09514667">
        <ele>1077.0</ele>
        <time>2018-05-26T12:45:31.693Z</time>
      </trkpt>
      <trkpt lat="40.92234167" lon="-4.09514667">
        <ele>1077.0</ele>
        <time>2018-05-26T12:45:32.701Z</time>
      </trkpt>
      <trkpt lat="40.922445" lon="-4.09527333">
        <ele>1076.0</ele>
        <time>2018-05-26T12:45:33.711Z</time>
      </trkpt>
      <trkpt lat="40.922445" lon="-4.09527333">
        <ele>1076.0</ele>
        <time>2018-05-26T12:45:34.697Z</time>
      </trkpt>
      <trkpt lat="40.92247167" lon="-4.09541333">
        <ele>1076.0</ele>
        <time>2018-05-26T12:45:35.704Z</time>
      </trkpt>
      <trkpt lat="40.92247167" lon="-4.09548667">
        <ele>1076.0</ele>
        <time>2018-05-26T12:45:36.709Z</time>
      </trkpt>
      <trkpt lat="40.92247167" lon="-4.09548667">
        <ele>1076.0</ele>
        <time>2018-05-26T12:45:37.694Z</time>
      </trkpt>
      <trkpt lat="40.92244167" lon="-4.09563833">
        <ele>1076.0</ele>
        <time>2018-05-26T12:45:38.709Z</time>
      </trkpt>
      <trkpt lat="40.92241667" lon="-4.09571667">
        <ele>1076.0</ele>
        <time>2018-05-26T12:45:39.711Z</time>
      </trkpt>
      <trkpt lat="40.92241667" lon="-4.09571667">
        <ele>1076.0</ele>
        <time>2018-05-26T12:45:40.685Z</time>
      </trkpt>
      <trkpt lat="40.92237333" lon="-4.09586833">
        <ele>1077.0</ele>
        <time>2018-05-26T12:45:41.692Z</time>
      </trkpt>
      <trkpt lat="40.92237333" lon="-4.09586833">
        <ele>1077.0</ele>
        <time>2018-05-26T12:45:42.677Z</time>
      </trkpt>
      <trkpt lat="40.92233667" lon="-4.096025">
        <ele>1077.0</ele>
        <time>2018-05-26T12:45:43.682Z</time>
      </trkpt>
      <trkpt lat="40.92233667" lon="-4.096025">
        <ele>1077.0</ele>
        <time>2018-05-26T12:45:44.682Z</time>
      </trkpt>
      <trkpt lat="40.9223" lon="-4.09617167">
        <ele>1076.0</ele>
        <time>2018-05-26T12:45:45.689Z</time>
      </trkpt>
      <trkpt lat="40.92228333" lon="-4.096245">
        <ele>1076.0</ele>
        <time>2018-05-26T12:45:46.683Z</time>
      </trkpt>
      <trkpt lat="40.92228333" lon="-4.096245">
        <ele>1076.0</ele>
        <time>2018-05-26T12:45:47.694Z</time>
      </trkpt>
      <trkpt lat="40.92224833" lon="-4.09639">
        <ele>1076.0</ele>
        <time>2018-05-26T12:45:48.701Z</time>
      </trkpt>
      <trkpt lat="40.92223333" lon="-4.09646167">
        <ele>1076.0</ele>
        <time>2018-05-26T12:45:49.688Z</time>
      </trkpt>
      <trkpt lat="40.92223333" lon="-4.09646167">
        <ele>1076.0</ele>
        <time>2018-05-26T12:45:50.688Z</time>
      </trkpt>
      <trkpt lat="40.92220167" lon="-4.09660167">
        <ele>1076.0</ele>
        <time>2018-05-26T12:45:51.700Z</time>
      </trkpt>
      <trkpt lat="40.92218667" lon="-4.09667167">
        <ele>1076.0</ele>
        <time>2018-05-26T12:45:52.695Z</time>
      </trkpt>
      <trkpt lat="40.92218667" lon="-4.09667167">
        <ele>1076.0</ele>
        <time>2018-05-26T12:45:53.680Z</time>
      </trkpt>
      <trkpt lat="40.92216" lon="-4.09681">
        <ele>1076.0</ele>
        <time>2018-05-26T12:45:54.705Z</time>
      </trkpt>
      <trkpt lat="40.92215" lon="-4.09687833">
        <ele>1076.0</ele>
        <time>2018-05-26T12:45:55.695Z</time>
      </trkpt>
      <trkpt lat="40.92215" lon="-4.09687833">
        <ele>1076.0</ele>
        <time>2018-05-26T12:45:56.682Z</time>
      </trkpt>
      <trkpt lat="40.92212667" lon="-4.09701833">
        <ele>1076.0</ele>
        <time>2018-05-26T12:45:57.691Z</time>
      </trkpt>
      <trkpt lat="40.922115" lon="-4.09709">
        <ele>1076.0</ele>
        <time>2018-05-26T12:45:58.710Z</time>
      </trkpt>
      <trkpt lat="40.92210333" lon="-4.09716">
        <ele>1076.0</ele>
        <time>2018-05-26T12:45:59.697Z</time>
      </trkpt>
      <trkpt lat="40.92210333" lon="-4.09716">
        <ele>1076.0</ele>
        <time>2018-05-26T12:46:00.683Z</time>
      </trkpt>
      <trkpt lat="40.92208" lon="-4.0973">
        <ele>1076.0</ele>
        <time>2018-05-26T12:46:01.692Z</time>
      </trkpt>
      <trkpt lat="40.92208" lon="-4.0973">
        <ele>1076.0</ele>
        <time>2018-05-26T12:46:02.683Z</time>
      </trkpt>
      <trkpt lat="40.92206167" lon="-4.09744167">
        <ele>1077.0</ele>
        <time>2018-05-26T12:46:03.682Z</time>
      </trkpt>
      <trkpt lat="40.92205667" lon="-4.09751333">
        <ele>1077.0</ele>
        <time>2018-05-26T12:46:04.693Z</time>
      </trkpt>
      <trkpt lat="40.92205667" lon="-4.09751333">
        <ele>1077.0</ele>
        <time>2018-05-26T12:46:05.680Z</time>
      </trkpt>
      <trkpt lat="40.92207833" lon="-4.09765333">
        <ele>1077.0</ele>
        <time>2018-05-26T12:46:06.679Z</time>
      </trkpt>
      <trkpt lat="40.92207833" lon="-4.09765333">
        <ele>1077.0</ele>
        <time>2018-05-26T12:46:07.703Z</time>
      </trkpt>
      <trkpt lat="40.92213333" lon="-4.09778833">
        <ele>1077.0</ele>
        <time>2018-05-26T12:46:08.675Z</time>
      </trkpt>
      <trkpt lat="40.922165" lon="-4.09785833">
        <ele>1077.0</ele>
        <time>2018-05-26T12:46:09.675Z</time>
      </trkpt>
      <trkpt lat="40.922165" lon="-4.09785833">
        <ele>1077.0</ele>
        <time>2018-05-26T12:46:10.685Z</time>
      </trkpt>
      <trkpt lat="40.92223167" lon="-4.09799667">
        <ele>1076.0</ele>
        <time>2018-05-26T12:46:11.692Z</time>
      </trkpt>
      <trkpt lat="40.92223167" lon="-4.09799667">
        <ele>1076.0</ele>
        <time>2018-05-26T12:46:12.680Z</time>
      </trkpt>
      <trkpt lat="40.92230333" lon="-4.09814333">
        <ele>1076.0</ele>
        <time>2018-05-26T12:46:13.682Z</time>
      </trkpt>
      <trkpt lat="40.92230333" lon="-4.09814333">
        <ele>1076.0</ele>
        <time>2018-05-26T12:46:14.684Z</time>
      </trkpt>
      <trkpt lat="40.92238167" lon="-4.09828667">
        <ele>1076.0</ele>
        <time>2018-05-26T12:46:15.694Z</time>
      </trkpt>
      <trkpt lat="40.922425" lon="-4.09835333">
        <ele>1076.0</ele>
        <time>2018-05-26T12:46:16.682Z</time>
      </trkpt>
      <trkpt lat="40.922425" lon="-4.09835333">
        <ele>1076.0</ele>
        <time>2018-05-26T12:46:17.681Z</time>
      </trkpt>
      <trkpt lat="40.92251167" lon="-4.09847833">
        <ele>1076.0</ele>
        <time>2018-05-26T12:46:18.687Z</time>
      </trkpt>
      <trkpt lat="40.92255667" lon="-4.098535">
        <ele>1075.0</ele>
        <time>2018-05-26T12:46:19.676Z</time>
      </trkpt>
      <trkpt lat="40.92255667" lon="-4.098535">
        <ele>1075.0</ele>
        <time>2018-05-26T12:46:20.713Z</time>
      </trkpt>
      <trkpt lat="40.92264833" lon="-4.09865167">
        <ele>1075.0</ele>
        <time>2018-05-26T12:46:21.681Z</time>
      </trkpt>
      <trkpt lat="40.92264833" lon="-4.09865167">
        <ele>1075.0</ele>
        <time>2018-05-26T12:46:22.705Z</time>
      </trkpt>
      <trkpt lat="40.922745" lon="-4.09877">
        <ele>1075.0</ele>
        <time>2018-05-26T12:46:23.679Z</time>
      </trkpt>
      <trkpt lat="40.922745" lon="-4.09877">
        <ele>1075.0</ele>
        <time>2018-05-26T12:46:24.687Z</time>
      </trkpt>
      <trkpt lat="40.92284833" lon="-4.09888833">
        <ele>1075.0</ele>
        <time>2018-05-26T12:46:25.693Z</time>
      </trkpt>
      <trkpt lat="40.9229" lon="-4.09895">
        <ele>1075.0</ele>
        <time>2018-05-26T12:46:26.710Z</time>
      </trkpt>
      <trkpt lat="40.92295167" lon="-4.09901333">
        <ele>1075.0</ele>
        <time>2018-05-26T12:46:27.709Z</time>
      </trkpt>
      <trkpt lat="40.92295167" lon="-4.09901333">
        <ele>1075.0</ele>
        <time>2018-05-26T12:46:28.704Z</time>
      </trkpt>
      <trkpt lat="40.92305167" lon="-4.09914333">
        <ele>1074.0</ele>
        <time>2018-05-26T12:46:29.711Z</time>
      </trkpt>
      <trkpt lat="40.92305167" lon="-4.09914333">
        <ele>1074.0</ele>
        <time>2018-05-26T12:46:30.697Z</time>
      </trkpt>
      <trkpt lat="40.92315667" lon="-4.09926167">
        <ele>1074.0</ele>
        <time>2018-05-26T12:46:31.704Z</time>
      </trkpt>
      <trkpt lat="40.92315667" lon="-4.09926167">
        <ele>1074.0</ele>
        <time>2018-05-26T12:46:32.691Z</time>
      </trkpt>
      <trkpt lat="40.92328" lon="-4.09936667">
        <ele>1073.0</ele>
        <time>2018-05-26T12:46:33.705Z</time>
      </trkpt>
      <trkpt lat="40.923345" lon="-4.09942167">
        <ele>1073.0</ele>
        <time>2018-05-26T12:46:34.699Z</time>
      </trkpt>
      <trkpt lat="40.923345" lon="-4.09942167">
        <ele>1073.0</ele>
        <time>2018-05-26T12:46:35.704Z</time>
      </trkpt>
      <trkpt lat="40.92347833" lon="-4.09952833">
        <ele>1072.0</ele>
        <time>2018-05-26T12:46:36.711Z</time>
      </trkpt>
      <trkpt lat="40.923545" lon="-4.09957833">
        <ele>1072.0</ele>
        <time>2018-05-26T12:46:37.695Z</time>
      </trkpt>
      <trkpt lat="40.92361167" lon="-4.09963">
        <ele>1072.0</ele>
        <time>2018-05-26T12:46:38.681Z</time>
      </trkpt>
      <trkpt lat="40.92361167" lon="-4.09963">
        <ele>1072.0</ele>
        <time>2018-05-26T12:46:39.699Z</time>
      </trkpt>
      <trkpt lat="40.92374167" lon="-4.09974667">
        <ele>1071.0</ele>
        <time>2018-05-26T12:46:40.705Z</time>
      </trkpt>
      <trkpt lat="40.92374167" lon="-4.09974667">
        <ele>1071.0</ele>
        <time>2018-05-26T12:46:41.694Z</time>
      </trkpt>
      <trkpt lat="40.92387" lon="-4.09987167">
        <ele>1070.0</ele>
        <time>2018-05-26T12:46:42.680Z</time>
      </trkpt>
      <trkpt lat="40.92387" lon="-4.09987167">
        <ele>1070.0</ele>
        <time>2018-05-26T12:46:43.686Z</time>
      </trkpt>
      <trkpt lat="40.92399167" lon="-4.09999667">
        <ele>1070.0</ele>
        <time>2018-05-26T12:46:44.693Z</time>
      </trkpt>
      <trkpt lat="40.92399167" lon="-4.09999667">
        <ele>1070.0</ele>
        <time>2018-05-26T12:46:45.678Z</time>
      </trkpt>
      <trkpt lat="40.92410333" lon="-4.10011333">
        <ele>1069.0</ele>
        <time>2018-05-26T12:46:46.713Z</time>
      </trkpt>
      <trkpt lat="40.92410333" lon="-4.10011333">
        <ele>1069.0</ele>
        <time>2018-05-26T12:46:47.700Z</time>
      </trkpt>
      <trkpt lat="40.9242" lon="-4.10018833">
        <ele>1069.0</ele>
        <time>2018-05-26T12:46:48.706Z</time>
      </trkpt>
      <trkpt lat="40.9242" lon="-4.10018833">
        <ele>1069.0</ele>
        <time>2018-05-26T12:46:49.691Z</time>
      </trkpt>
      <trkpt lat="40.92428833" lon="-4.100245">
        <ele>1069.0</ele>
        <time>2018-05-26T12:46:50.697Z</time>
      </trkpt>
      <trkpt lat="40.92428833" lon="-4.100245">
        <ele>1069.0</ele>
        <time>2018-05-26T12:46:51.694Z</time>
      </trkpt>
      <trkpt lat="40.92437167" lon="-4.10031833">
        <ele>1070.0</ele>
        <time>2018-05-26T12:46:52.701Z</time>
      </trkpt>
      <trkpt lat="40.92437167" lon="-4.10031833">
        <ele>1070.0</ele>
        <time>2018-05-26T12:46:53.686Z</time>
      </trkpt>
      <trkpt lat="40.924465" lon="-4.10039833">
        <ele>1070.0</ele>
        <time>2018-05-26T12:46:54.679Z</time>
      </trkpt>
      <trkpt lat="40.924465" lon="-4.10039833">
        <ele>1070.0</ele>
        <time>2018-05-26T12:46:55.712Z</time>
      </trkpt>
      <trkpt lat="40.92456167" lon="-4.10048667">
        <ele>1070.0</ele>
        <time>2018-05-26T12:46:56.685Z</time>
      </trkpt>
      <trkpt lat="40.92456167" lon="-4.10048667">
        <ele>1070.0</ele>
        <time>2018-05-26T12:46:57.693Z</time>
      </trkpt>
      <trkpt lat="40.924665" lon="-4.10058">
        <ele>1069.0</ele>
        <time>2018-05-26T12:46:58.679Z</time>
      </trkpt>
      <trkpt lat="40.924665" lon="-4.10058">
        <ele>1069.0</ele>
        <time>2018-05-26T12:46:59.688Z</time>
      </trkpt>
      <trkpt lat="40.92478" lon="-4.10068">
        <ele>1069.0</ele>
        <time>2018-05-26T12:47:00.695Z</time>
      </trkpt>
      <trkpt lat="40.92478" lon="-4.10068">
        <ele>1069.0</ele>
        <time>2018-05-26T12:47:01.681Z</time>
      </trkpt>
      <trkpt lat="40.92489833" lon="-4.10079333">
        <ele>1069.0</ele>
        <time>2018-05-26T12:47:02.693Z</time>
      </trkpt>
      <trkpt lat="40.92489833" lon="-4.10079333">
        <ele>1069.0</ele>
        <time>2018-05-26T12:47:03.703Z</time>
      </trkpt>
      <trkpt lat="40.925025" lon="-4.10090167">
        <ele>1069.0</ele>
        <time>2018-05-26T12:47:04.710Z</time>
      </trkpt>
      <trkpt lat="40.925025" lon="-4.10090167">
        <ele>1069.0</ele>
        <time>2018-05-26T12:47:05.694Z</time>
      </trkpt>
      <trkpt lat="40.92515333" lon="-4.101">
        <ele>1068.0</ele>
        <time>2018-05-26T12:47:06.689Z</time>
      </trkpt>
      <trkpt lat="40.92515333" lon="-4.101">
        <ele>1068.0</ele>
        <time>2018-05-26T12:47:07.713Z</time>
      </trkpt>
      <trkpt lat="40.925275" lon="-4.101095">
        <ele>1068.0</ele>
        <time>2018-05-26T12:47:08.683Z</time>
      </trkpt>
      <trkpt lat="40.92533" lon="-4.10113833">
        <ele>1067.0</ele>
        <time>2018-05-26T12:47:09.708Z</time>
      </trkpt>
      <trkpt lat="40.92538333" lon="-4.10118333">
        <ele>1067.0</ele>
        <time>2018-05-26T12:47:10.718Z</time>
      </trkpt>
      <trkpt lat="40.92538333" lon="-4.10118333">
        <ele>1067.0</ele>
        <time>2018-05-26T12:47:11.682Z</time>
      </trkpt>
      <trkpt lat="40.92548667" lon="-4.10129">
        <ele>1067.0</ele>
        <time>2018-05-26T12:47:12.691Z</time>
      </trkpt>
      <trkpt lat="40.92548667" lon="-4.10129">
        <ele>1067.0</ele>
        <time>2018-05-26T12:47:13.676Z</time>
      </trkpt>
      <trkpt lat="40.92559" lon="-4.10140667">
        <ele>1066.0</ele>
        <time>2018-05-26T12:47:14.676Z</time>
      </trkpt>
      <trkpt lat="40.92559" lon="-4.10140667">
        <ele>1066.0</ele>
        <time>2018-05-26T12:47:15.685Z</time>
      </trkpt>
      <trkpt lat="40.92569667" lon="-4.10152">
        <ele>1066.0</ele>
        <time>2018-05-26T12:47:16.692Z</time>
      </trkpt>
      <trkpt lat="40.92569667" lon="-4.10152">
        <ele>1066.0</ele>
        <time>2018-05-26T12:47:17.677Z</time>
      </trkpt>
      <trkpt lat="40.92579833" lon="-4.10164167">
        <ele>1065.0</ele>
        <time>2018-05-26T12:47:18.679Z</time>
      </trkpt>
      <trkpt lat="40.92579833" lon="-4.10164167">
        <ele>1065.0</ele>
        <time>2018-05-26T12:47:19.685Z</time>
      </trkpt>
      <trkpt lat="40.92589333" lon="-4.10177167">
        <ele>1065.0</ele>
        <time>2018-05-26T12:47:20.693Z</time>
      </trkpt>
      <trkpt lat="40.92589333" lon="-4.10177167">
        <ele>1065.0</ele>
        <time>2018-05-26T12:47:21.678Z</time>
      </trkpt>
      <trkpt lat="40.92597333" lon="-4.101905">
        <ele>1065.0</ele>
        <time>2018-05-26T12:47:22.679Z</time>
      </trkpt>
      <trkpt lat="40.92597333" lon="-4.101905">
        <ele>1065.0</ele>
        <time>2018-05-26T12:47:23.679Z</time>
      </trkpt>
      <trkpt lat="40.92606" lon="-4.102035">
        <ele>1065.0</ele>
        <time>2018-05-26T12:47:24.694Z</time>
      </trkpt>
      <trkpt lat="40.92606" lon="-4.102035">
        <ele>1065.0</ele>
        <time>2018-05-26T12:47:25.699Z</time>
      </trkpt>
      <trkpt lat="40.92616167" lon="-4.10217">
        <ele>1064.0</ele>
        <time>2018-05-26T12:47:26.680Z</time>
      </trkpt>
      <trkpt lat="40.92616167" lon="-4.10217">
        <ele>1064.0</ele>
        <time>2018-05-26T12:47:27.707Z</time>
      </trkpt>
      <trkpt lat="40.92626" lon="-4.10231">
        <ele>1064.0</ele>
        <time>2018-05-26T12:47:28.713Z</time>
      </trkpt>
      <trkpt lat="40.92626" lon="-4.10231">
        <ele>1064.0</ele>
        <time>2018-05-26T12:47:29.700Z</time>
      </trkpt>
      <trkpt lat="40.926355" lon="-4.10244833">
        <ele>1063.0</ele>
        <time>2018-05-26T12:47:30.682Z</time>
      </trkpt>
      <trkpt lat="40.926355" lon="-4.10244833">
        <ele>1063.0</ele>
        <time>2018-05-26T12:47:31.698Z</time>
      </trkpt>
      <trkpt lat="40.92644667" lon="-4.10258167">
        <ele>1062.0</ele>
        <time>2018-05-26T12:47:32.681Z</time>
      </trkpt>
      <trkpt lat="40.92644667" lon="-4.10258167">
        <ele>1062.0</ele>
        <time>2018-05-26T12:47:33.693Z</time>
      </trkpt>
      <trkpt lat="40.92653167" lon="-4.10272333">
        <ele>1062.0</ele>
        <time>2018-05-26T12:47:34.699Z</time>
      </trkpt>
      <trkpt lat="40.92653167" lon="-4.10272333">
        <ele>1062.0</ele>
        <time>2018-05-26T12:47:35.684Z</time>
      </trkpt>
      <trkpt lat="40.92660333" lon="-4.10287667">
        <ele>1061.0</ele>
        <time>2018-05-26T12:47:36.712Z</time>
      </trkpt>
      <trkpt lat="40.92660333" lon="-4.10287667">
        <ele>1061.0</ele>
        <time>2018-05-26T12:47:37.710Z</time>
      </trkpt>
      <trkpt lat="40.92667" lon="-4.10302167">
        <ele>1061.0</ele>
        <time>2018-05-26T12:47:38.684Z</time>
      </trkpt>
      <trkpt lat="40.926705" lon="-4.10308667">
        <ele>1060.0</ele>
        <time>2018-05-26T12:47:39.710Z</time>
      </trkpt>
      <trkpt lat="40.92675167" lon="-4.10314333">
        <ele>1060.0</ele>
        <time>2018-05-26T12:47:40.682Z</time>
      </trkpt>
      <trkpt lat="40.92675167" lon="-4.10314333">
        <ele>1060.0</ele>
        <time>2018-05-26T12:47:41.683Z</time>
      </trkpt>
      <trkpt lat="40.92685333" lon="-4.103265">
        <ele>1060.0</ele>
        <time>2018-05-26T12:47:42.689Z</time>
      </trkpt>
      <trkpt lat="40.92690167" lon="-4.10333167">
        <ele>1059.0</ele>
        <time>2018-05-26T12:47:43.679Z</time>
      </trkpt>
      <trkpt lat="40.92690167" lon="-4.10333167">
        <ele>1059.0</ele>
        <time>2018-05-26T12:47:44.705Z</time>
      </trkpt>
      <trkpt lat="40.92700167" lon="-4.103465">
        <ele>1059.0</ele>
        <time>2018-05-26T12:47:45.711Z</time>
      </trkpt>
      <trkpt lat="40.92705" lon="-4.10353333">
        <ele>1059.0</ele>
        <time>2018-05-26T12:47:46.686Z</time>
      </trkpt>
      <trkpt lat="40.92705" lon="-4.10353333">
        <ele>1059.0</ele>
        <time>2018-05-26T12:47:47.694Z</time>
      </trkpt>
      <trkpt lat="40.92713333" lon="-4.10368">
        <ele>1058.0</ele>
        <time>2018-05-26T12:47:48.700Z</time>
      </trkpt>
      <trkpt lat="40.92717167" lon="-4.10375333">
        <ele>1058.0</ele>
        <time>2018-05-26T12:47:49.686Z</time>
      </trkpt>
      <trkpt lat="40.92721167" lon="-4.10382">
        <ele>1058.0</ele>
        <time>2018-05-26T12:47:50.714Z</time>
      </trkpt>
      <trkpt lat="40.92721167" lon="-4.10382">
        <ele>1058.0</ele>
        <time>2018-05-26T12:47:51.700Z</time>
      </trkpt>
      <trkpt lat="40.9273" lon="-4.103945">
        <ele>1058.0</ele>
        <time>2018-05-26T12:47:52.707Z</time>
      </trkpt>
      <trkpt lat="40.9273" lon="-4.103945">
        <ele>1058.0</ele>
        <time>2018-05-26T12:47:53.695Z</time>
      </trkpt>
      <trkpt lat="40.92739833" lon="-4.10404833">
        <ele>1058.0</ele>
        <time>2018-05-26T12:47:54.677Z</time>
      </trkpt>
      <trkpt lat="40.92739833" lon="-4.10404833">
        <ele>1058.0</ele>
        <time>2018-05-26T12:47:55.712Z</time>
      </trkpt>
      <trkpt lat="40.92749333" lon="-4.10413">
        <ele>1058.0</ele>
        <time>2018-05-26T12:47:56.684Z</time>
      </trkpt>
      <trkpt lat="40.92749333" lon="-4.10413">
        <ele>1058.0</ele>
        <time>2018-05-26T12:47:57.709Z</time>
      </trkpt>
      <trkpt lat="40.92758167" lon="-4.10420333">
        <ele>1058.0</ele>
        <time>2018-05-26T12:47:58.706Z</time>
      </trkpt>
      <trkpt lat="40.92758167" lon="-4.10420333">
        <ele>1058.0</ele>
        <time>2018-05-26T12:47:59.686Z</time>
      </trkpt>
      <trkpt lat="40.92768" lon="-4.10428833">
        <ele>1058.0</ele>
        <time>2018-05-26T12:48:00.696Z</time>
      </trkpt>
      <trkpt lat="40.92772833" lon="-4.10433333">
        <ele>1058.0</ele>
        <time>2018-05-26T12:48:01.685Z</time>
      </trkpt>
      <trkpt lat="40.92772833" lon="-4.10433333">
        <ele>1058.0</ele>
        <time>2018-05-26T12:48:02.710Z</time>
      </trkpt>
      <trkpt lat="40.92782167" lon="-4.10443667">
        <ele>1058.0</ele>
        <time>2018-05-26T12:48:03.690Z</time>
      </trkpt>
      <trkpt lat="40.92786" lon="-4.10448833">
        <ele>1058.0</ele>
        <time>2018-05-26T12:48:04.684Z</time>
      </trkpt>
      <trkpt lat="40.92790333" lon="-4.104545">
        <ele>1058.0</ele>
        <time>2018-05-26T12:48:05.679Z</time>
      </trkpt>
      <trkpt lat="40.92790333" lon="-4.104545">
        <ele>1058.0</ele>
        <time>2018-05-26T12:48:06.678Z</time>
      </trkpt>
      <trkpt lat="40.92799167" lon="-4.10465">
        <ele>1058.0</ele>
        <time>2018-05-26T12:48:07.686Z</time>
      </trkpt>
      <trkpt lat="40.92804" lon="-4.104695">
        <ele>1057.0</ele>
        <time>2018-05-26T12:48:08.715Z</time>
      </trkpt>
      <trkpt lat="40.92804" lon="-4.104695">
        <ele>1057.0</ele>
        <time>2018-05-26T12:48:09.692Z</time>
      </trkpt>
      <trkpt lat="40.92813333" lon="-4.10478333">
        <ele>1057.0</ele>
        <time>2018-05-26T12:48:10.699Z</time>
      </trkpt>
      <trkpt lat="40.92813333" lon="-4.10478333">
        <ele>1057.0</ele>
        <time>2018-05-26T12:48:11.713Z</time>
      </trkpt>
      <trkpt lat="40.928235" lon="-4.10485667">
        <ele>1057.0</ele>
        <time>2018-05-26T12:48:12.680Z</time>
      </trkpt>
      <trkpt lat="40.928235" lon="-4.10485667">
        <ele>1057.0</ele>
        <time>2018-05-26T12:48:13.704Z</time>
      </trkpt>
      <trkpt lat="40.92833667" lon="-4.10493167">
        <ele>1057.0</ele>
        <time>2018-05-26T12:48:14.693Z</time>
      </trkpt>
      <trkpt lat="40.928385" lon="-4.10497167">
        <ele>1057.0</ele>
        <time>2018-05-26T12:48:15.709Z</time>
      </trkpt>
      <trkpt lat="40.928385" lon="-4.10497167">
        <ele>1057.0</ele>
        <time>2018-05-26T12:48:16.692Z</time>
      </trkpt>
      <trkpt lat="40.92848333" lon="-4.10504667">
        <ele>1057.0</ele>
        <time>2018-05-26T12:48:17.706Z</time>
      </trkpt>
      <trkpt lat="40.92848333" lon="-4.10504667">
        <ele>1057.0</ele>
        <time>2018-05-26T12:48:18.692Z</time>
      </trkpt>
      <trkpt lat="40.928595" lon="-4.1051">
        <ele>1057.0</ele>
        <time>2018-05-26T12:48:19.698Z</time>
      </trkpt>
      <trkpt lat="40.92865" lon="-4.10512833">
        <ele>1057.0</ele>
        <time>2018-05-26T12:48:20.684Z</time>
      </trkpt>
      <trkpt lat="40.92870667" lon="-4.10515667">
        <ele>1056.0</ele>
        <time>2018-05-26T12:48:21.718Z</time>
      </trkpt>
      <trkpt lat="40.92870667" lon="-4.10515667">
        <ele>1056.0</ele>
        <time>2018-05-26T12:48:22.693Z</time>
      </trkpt>
      <trkpt lat="40.92882167" lon="-4.10521667">
        <ele>1056.0</ele>
        <time>2018-05-26T12:48:23.700Z</time>
      </trkpt>
      <trkpt lat="40.92882167" lon="-4.10521667">
        <ele>1056.0</ele>
        <time>2018-05-26T12:48:24.692Z</time>
      </trkpt>
      <trkpt lat="40.92892333" lon="-4.105295">
        <ele>1056.0</ele>
        <time>2018-05-26T12:48:25.681Z</time>
      </trkpt>
      <trkpt lat="40.92892333" lon="-4.105295">
        <ele>1056.0</ele>
        <time>2018-05-26T12:48:26.680Z</time>
      </trkpt>
      <trkpt lat="40.92901167" lon="-4.10538333">
        <ele>1056.0</ele>
        <time>2018-05-26T12:48:27.688Z</time>
      </trkpt>
      <trkpt lat="40.929055" lon="-4.10543">
        <ele>1056.0</ele>
        <time>2018-05-26T12:48:28.678Z</time>
      </trkpt>
      <trkpt lat="40.929055" lon="-4.10543">
        <ele>1056.0</ele>
        <time>2018-05-26T12:48:29.691Z</time>
      </trkpt>
      <trkpt lat="40.92914333" lon="-4.10552833">
        <ele>1056.0</ele>
        <time>2018-05-26T12:48:30.698Z</time>
      </trkpt>
      <trkpt lat="40.92919" lon="-4.10557333">
        <ele>1057.0</ele>
        <time>2018-05-26T12:48:31.678Z</time>
      </trkpt>
      <trkpt lat="40.92919" lon="-4.10557333">
        <ele>1057.0</ele>
        <time>2018-05-26T12:48:32.687Z</time>
      </trkpt>
      <trkpt lat="40.9293" lon="-4.10565">
        <ele>1057.0</ele>
        <time>2018-05-26T12:48:33.690Z</time>
      </trkpt>
      <trkpt lat="40.92936167" lon="-4.10568">
        <ele>1057.0</ele>
        <time>2018-05-26T12:48:34.684Z</time>
      </trkpt>
      <trkpt lat="40.92936167" lon="-4.10568">
        <ele>1057.0</ele>
        <time>2018-05-26T12:48:35.714Z</time>
      </trkpt>
      <trkpt lat="40.92948167" lon="-4.10575167">
        <ele>1057.0</ele>
        <time>2018-05-26T12:48:36.681Z</time>
      </trkpt>
      <trkpt lat="40.92948167" lon="-4.10575167">
        <ele>1057.0</ele>
        <time>2018-05-26T12:48:37.706Z</time>
      </trkpt>
      <trkpt lat="40.92959333" lon="-4.10585667">
        <ele>1057.0</ele>
        <time>2018-05-26T12:48:38.712Z</time>
      </trkpt>
      <trkpt lat="40.92959333" lon="-4.10585667">
        <ele>1057.0</ele>
        <time>2018-05-26T12:48:39.696Z</time>
      </trkpt>
      <trkpt lat="40.929705" lon="-4.10597">
        <ele>1057.0</ele>
        <time>2018-05-26T12:48:40.689Z</time>
      </trkpt>
      <trkpt lat="40.929705" lon="-4.10597">
        <ele>1057.0</ele>
        <time>2018-05-26T12:48:41.713Z</time>
      </trkpt>
      <trkpt lat="40.92981833" lon="-4.10608167">
        <ele>1056.0</ele>
        <time>2018-05-26T12:48:42.684Z</time>
      </trkpt>
      <trkpt lat="40.92981833" lon="-4.10608167">
        <ele>1056.0</ele>
        <time>2018-05-26T12:48:43.712Z</time>
      </trkpt>
      <trkpt lat="40.929935" lon="-4.106185">
        <ele>1056.0</ele>
        <time>2018-05-26T12:48:44.682Z</time>
      </trkpt>
      <trkpt lat="40.929935" lon="-4.106185">
        <ele>1056.0</ele>
        <time>2018-05-26T12:48:45.680Z</time>
      </trkpt>
      <trkpt lat="40.93006333" lon="-4.10629">
        <ele>1055.0</ele>
        <time>2018-05-26T12:48:46.687Z</time>
      </trkpt>
      <trkpt lat="40.93006333" lon="-4.10629">
        <ele>1055.0</ele>
        <time>2018-05-26T12:48:47.713Z</time>
      </trkpt>
      <trkpt lat="40.9302" lon="-4.10639667">
        <ele>1054.0</ele>
        <time>2018-05-26T12:48:48.715Z</time>
      </trkpt>
      <trkpt lat="40.9302" lon="-4.10639667">
        <ele>1054.0</ele>
        <time>2018-05-26T12:48:49.702Z</time>
      </trkpt>
      <trkpt lat="40.93033833" lon="-4.106515">
        <ele>1053.0</ele>
        <time>2018-05-26T12:48:50.709Z</time>
      </trkpt>
      <trkpt lat="40.93033833" lon="-4.106515">
        <ele>1053.0</ele>
        <time>2018-05-26T12:48:51.694Z</time>
      </trkpt>
      <trkpt lat="40.93046833" lon="-4.10664">
        <ele>1052.0</ele>
        <time>2018-05-26T12:48:52.682Z</time>
      </trkpt>
      <trkpt lat="40.93046833" lon="-4.10664">
        <ele>1052.0</ele>
        <time>2018-05-26T12:48:53.682Z</time>
      </trkpt>
      <trkpt lat="40.93060333" lon="-4.106755">
        <ele>1051.0</ele>
        <time>2018-05-26T12:48:54.689Z</time>
      </trkpt>
      <trkpt lat="40.93060333" lon="-4.106755">
        <ele>1051.0</ele>
        <time>2018-05-26T12:48:55.679Z</time>
      </trkpt>
      <trkpt lat="40.93073667" lon="-4.10686">
        <ele>1050.0</ele>
        <time>2018-05-26T12:48:56.679Z</time>
      </trkpt>
      <trkpt lat="40.93073667" lon="-4.10686">
        <ele>1050.0</ele>
        <time>2018-05-26T12:48:57.693Z</time>
      </trkpt>
      <trkpt lat="40.93087167" lon="-4.10695">
        <ele>1050.0</ele>
        <time>2018-05-26T12:48:58.699Z</time>
      </trkpt>
      <trkpt lat="40.93087167" lon="-4.10695">
        <ele>1050.0</ele>
        <time>2018-05-26T12:48:59.685Z</time>
      </trkpt>
      <trkpt lat="40.93100333" lon="-4.10702833">
        <ele>1050.0</ele>
        <time>2018-05-26T12:49:00.692Z</time>
      </trkpt>
      <trkpt lat="40.93100333" lon="-4.10702833">
        <ele>1050.0</ele>
        <time>2018-05-26T12:49:01.705Z</time>
      </trkpt>
      <trkpt lat="40.93112667" lon="-4.10708667">
        <ele>1049.0</ele>
        <time>2018-05-26T12:49:02.712Z</time>
      </trkpt>
      <trkpt lat="40.931175" lon="-4.10710833">
        <ele>1049.0</ele>
        <time>2018-05-26T12:49:03.697Z</time>
      </trkpt>
      <trkpt lat="40.93121667" lon="-4.10712833">
        <ele>1049.0</ele>
        <time>2018-05-26T12:49:04.682Z</time>
      </trkpt>
      <trkpt lat="40.93121667" lon="-4.10712833">
        <ele>1049.0</ele>
        <time>2018-05-26T12:49:05.710Z</time>
      </trkpt>
      <trkpt lat="40.931275" lon="-4.10715833">
        <ele>1050.0</ele>
        <time>2018-05-26T12:49:06.685Z</time>
      </trkpt>
      <trkpt lat="40.9313" lon="-4.10717833">
        <ele>1050.0</ele>
        <time>2018-05-26T12:49:07.689Z</time>
      </trkpt>
      <trkpt lat="40.9313" lon="-4.10717833">
        <ele>1050.0</ele>
        <time>2018-05-26T12:49:08.694Z</time>
      </trkpt>
      <trkpt lat="40.931365" lon="-4.10721833">
        <ele>1050.0</ele>
        <time>2018-05-26T12:49:09.700Z</time>
      </trkpt>
      <trkpt lat="40.931415" lon="-4.10722333">
        <ele>1050.0</ele>
        <time>2018-05-26T12:49:10.696Z</time>
      </trkpt>
      <trkpt lat="40.93146833" lon="-4.10722">
        <ele>1049.0</ele>
        <time>2018-05-26T12:49:11.686Z</time>
      </trkpt>
      <trkpt lat="40.93146833" lon="-4.10722">
        <ele>1049.0</ele>
        <time>2018-05-26T12:49:12.688Z</time>
      </trkpt>
      <trkpt lat="40.93158333" lon="-4.107205">
        <ele>1049.0</ele>
        <time>2018-05-26T12:49:13.694Z</time>
      </trkpt>
      <trkpt lat="40.93158333" lon="-4.107205">
        <ele>1049.0</ele>
        <time>2018-05-26T12:49:14.680Z</time>
      </trkpt>
      <trkpt lat="40.93171333" lon="-4.10718333">
        <ele>1049.0</ele>
        <time>2018-05-26T12:49:15.704Z</time>
      </trkpt>
      <trkpt lat="40.931785" lon="-4.10716833">
        <ele>1048.0</ele>
        <time>2018-05-26T12:49:16.676Z</time>
      </trkpt>
      <trkpt lat="40.931785" lon="-4.10716833">
        <ele>1048.0</ele>
        <time>2018-05-26T12:49:17.691Z</time>
      </trkpt>
      <trkpt lat="40.931915" lon="-4.10715833">
        <ele>1048.0</ele>
        <time>2018-05-26T12:49:18.675Z</time>
      </trkpt>
      <trkpt lat="40.931915" lon="-4.10715833">
        <ele>1048.0</ele>
        <time>2018-05-26T12:49:19.680Z</time>
      </trkpt>
      <trkpt lat="40.93204" lon="-4.10719">
        <ele>1047.0</ele>
        <time>2018-05-26T12:49:20.690Z</time>
      </trkpt>
      <trkpt lat="40.93208833" lon="-4.107205">
        <ele>1046.0</ele>
        <time>2018-05-26T12:49:21.698Z</time>
      </trkpt>
      <trkpt lat="40.93212833" lon="-4.10721667">
        <ele>1047.0</ele>
        <time>2018-05-26T12:49:22.707Z</time>
      </trkpt>
      <trkpt lat="40.93212833" lon="-4.10721667">
        <ele>1047.0</ele>
        <time>2018-05-26T12:49:23.692Z</time>
      </trkpt>
      <trkpt lat="40.93220667" lon="-4.10723667">
        <ele>1046.0</ele>
        <time>2018-05-26T12:49:24.710Z</time>
      </trkpt>
      <trkpt lat="40.93223833" lon="-4.10725167">
        <ele>1046.0</ele>
        <time>2018-05-26T12:49:25.688Z</time>
      </trkpt>
      <trkpt lat="40.93223833" lon="-4.10725167">
        <ele>1046.0</ele>
        <time>2018-05-26T12:49:26.709Z</time>
      </trkpt>
      <trkpt lat="40.93232" lon="-4.10727">
        <ele>1046.0</ele>
        <time>2018-05-26T12:49:27.679Z</time>
      </trkpt>
      <trkpt lat="40.93232" lon="-4.10727">
        <ele>1046.0</ele>
        <time>2018-05-26T12:49:28.680Z</time>
      </trkpt>
      <trkpt lat="40.93243167" lon="-4.10734167">
        <ele>1046.0</ele>
        <time>2018-05-26T12:49:29.686Z</time>
      </trkpt>
      <trkpt lat="40.93243167" lon="-4.10734167">
        <ele>1046.0</ele>
        <time>2018-05-26T12:49:30.712Z</time>
      </trkpt>
      <trkpt lat="40.93252167" lon="-4.10749833">
        <ele>1046.0</ele>
        <time>2018-05-26T12:49:31.693Z</time>
      </trkpt>
      <trkpt lat="40.93252167" lon="-4.10749833">
        <ele>1046.0</ele>
        <time>2018-05-26T12:49:32.685Z</time>
      </trkpt>
      <trkpt lat="40.93261833" lon="-4.10767333">
        <ele>1044.0</ele>
        <time>2018-05-26T12:49:33.697Z</time>
      </trkpt>
      <trkpt lat="40.93266667" lon="-4.10776833">
        <ele>1044.0</ele>
        <time>2018-05-26T12:49:34.675Z</time>
      </trkpt>
      <trkpt lat="40.93266667" lon="-4.10776833">
        <ele>1044.0</ele>
        <time>2018-05-26T12:49:35.683Z</time>
      </trkpt>
      <trkpt lat="40.93276667" lon="-4.10795167">
        <ele>1043.0</ele>
        <time>2018-05-26T12:49:36.690Z</time>
      </trkpt>
      <trkpt lat="40.93276667" lon="-4.10795167">
        <ele>1043.0</ele>
        <time>2018-05-26T12:49:37.683Z</time>
      </trkpt>
      <trkpt lat="40.932875" lon="-4.10812833">
        <ele>1041.0</ele>
        <time>2018-05-26T12:49:38.699Z</time>
      </trkpt>
      <trkpt lat="40.932875" lon="-4.10812833">
        <ele>1041.0</ele>
        <time>2018-05-26T12:49:39.685Z</time>
      </trkpt>
      <trkpt lat="40.93299" lon="-4.10830667">
        <ele>1040.0</ele>
        <time>2018-05-26T12:49:40.713Z</time>
      </trkpt>
      <trkpt lat="40.93299" lon="-4.10830667">
        <ele>1040.0</ele>
        <time>2018-05-26T12:49:41.680Z</time>
      </trkpt>
      <trkpt lat="40.93311833" lon="-4.10846333">
        <ele>1039.0</ele>
        <time>2018-05-26T12:49:42.686Z</time>
      </trkpt>
      <trkpt lat="40.93311833" lon="-4.10846333">
        <ele>1039.0</ele>
        <time>2018-05-26T12:49:43.710Z</time>
      </trkpt>
      <trkpt lat="40.93325333" lon="-4.10861333">
        <ele>1038.0</ele>
        <time>2018-05-26T12:49:44.689Z</time>
      </trkpt>
      <trkpt lat="40.933325" lon="-4.108685">
        <ele>1038.0</ele>
        <time>2018-05-26T12:49:45.684Z</time>
      </trkpt>
      <trkpt lat="40.93339833" lon="-4.10875333">
        <ele>1037.0</ele>
        <time>2018-05-26T12:49:46.709Z</time>
      </trkpt>
      <trkpt lat="40.93339833" lon="-4.10875333">
        <ele>1037.0</ele>
        <time>2018-05-26T12:49:47.695Z</time>
      </trkpt>
      <trkpt lat="40.93355167" lon="-4.108885">
        <ele>1036.0</ele>
        <time>2018-05-26T12:49:48.701Z</time>
      </trkpt>
      <trkpt lat="40.93355167" lon="-4.108885">
        <ele>1036.0</ele>
        <time>2018-05-26T12:49:49.684Z</time>
      </trkpt>
      <trkpt lat="40.93371333" lon="-4.10900667">
        <ele>1036.0</ele>
        <time>2018-05-26T12:49:50.712Z</time>
      </trkpt>
      <trkpt lat="40.93371333" lon="-4.10900667">
        <ele>1036.0</ele>
        <time>2018-05-26T12:49:51.684Z</time>
      </trkpt>
      <trkpt lat="40.93388333" lon="-4.10908833">
        <ele>1035.0</ele>
        <time>2018-05-26T12:49:52.694Z</time>
      </trkpt>
      <trkpt lat="40.93388333" lon="-4.10908833">
        <ele>1035.0</ele>
        <time>2018-05-26T12:49:53.681Z</time>
      </trkpt>
      <trkpt lat="40.93406167" lon="-4.10913833">
        <ele>1034.0</ele>
        <time>2018-05-26T12:49:54.694Z</time>
      </trkpt>
      <trkpt lat="40.93414833" lon="-4.10918333">
        <ele>1034.0</ele>
        <time>2018-05-26T12:49:55.678Z</time>
      </trkpt>
      <trkpt lat="40.93414833" lon="-4.10918333">
        <ele>1034.0</ele>
        <time>2018-05-26T12:49:56.697Z</time>
      </trkpt>
      <trkpt lat="40.93432167" lon="-4.1093">
        <ele>1033.0</ele>
        <time>2018-05-26T12:49:57.686Z</time>
      </trkpt>
      <trkpt lat="40.93432167" lon="-4.1093">
        <ele>1033.0</ele>
        <time>2018-05-26T12:49:58.686Z</time>
      </trkpt>
      <trkpt lat="40.93449333" lon="-4.10941333">
        <ele>1032.0</ele>
        <time>2018-05-26T12:49:59.694Z</time>
      </trkpt>
      <trkpt lat="40.93449333" lon="-4.10941333">
        <ele>1032.0</ele>
        <time>2018-05-26T12:50:00.680Z</time>
      </trkpt>
      <trkpt lat="40.93464667" lon="-4.10951">
        <ele>1031.0</ele>
        <time>2018-05-26T12:50:01.707Z</time>
      </trkpt>
      <trkpt lat="40.934725" lon="-4.10955667">
        <ele>1031.0</ele>
        <time>2018-05-26T12:50:02.676Z</time>
      </trkpt>
      <trkpt lat="40.934725" lon="-4.10955667">
        <ele>1031.0</ele>
        <time>2018-05-26T12:50:03.701Z</time>
      </trkpt>
      <trkpt lat="40.93488" lon="-4.10964167">
        <ele>1030.0</ele>
        <time>2018-05-26T12:50:04.712Z</time>
      </trkpt>
      <trkpt lat="40.93488" lon="-4.10964167">
        <ele>1030.0</ele>
        <time>2018-05-26T12:50:05.694Z</time>
      </trkpt>
      <trkpt lat="40.935005" lon="-4.10971">
        <ele>1030.0</ele>
        <time>2018-05-26T12:50:06.700Z</time>
      </trkpt>
      <trkpt lat="40.93506167" lon="-4.10974167">
        <ele>1030.0</ele>
        <time>2018-05-26T12:50:07.706Z</time>
      </trkpt>
      <trkpt lat="40.93511833" lon="-4.10977167">
        <ele>1029.0</ele>
        <time>2018-05-26T12:50:08.694Z</time>
      </trkpt>
      <trkpt lat="40.93511833" lon="-4.10977167">
        <ele>1029.0</ele>
        <time>2018-05-26T12:50:09.692Z</time>
      </trkpt>
      <trkpt lat="40.93523167" lon="-4.109835">
        <ele>1029.0</ele>
        <time>2018-05-26T12:50:10.699Z</time>
      </trkpt>
      <trkpt lat="40.935285" lon="-4.10986167">
        <ele>1029.0</ele>
        <time>2018-05-26T12:50:11.691Z</time>
      </trkpt>
      <trkpt lat="40.935285" lon="-4.10986167">
        <ele>1029.0</ele>
        <time>2018-05-26T12:50:12.701Z</time>
      </trkpt>
      <trkpt lat="40.93538833" lon="-4.10992">
        <ele>1029.0</ele>
        <time>2018-05-26T12:50:13.708Z</time>
      </trkpt>
      <trkpt lat="40.93543833" lon="-4.10994833">
        <ele>1029.0</ele>
        <time>2018-05-26T12:50:14.689Z</time>
      </trkpt>
      <trkpt lat="40.93543833" lon="-4.10994833">
        <ele>1029.0</ele>
        <time>2018-05-26T12:50:15.695Z</time>
      </trkpt>
      <trkpt lat="40.935535" lon="-4.11">
        <ele>1028.0</ele>
        <time>2018-05-26T12:50:16.702Z</time>
      </trkpt>
      <trkpt lat="40.935535" lon="-4.11">
        <ele>1028.0</ele>
        <time>2018-05-26T12:50:17.687Z</time>
      </trkpt>
      <trkpt lat="40.93563333" lon="-4.11005667">
        <ele>1028.0</ele>
        <time>2018-05-26T12:50:18.702Z</time>
      </trkpt>
      <trkpt lat="40.93563333" lon="-4.11005667">
        <ele>1028.0</ele>
        <time>2018-05-26T12:50:19.693Z</time>
      </trkpt>
      <trkpt lat="40.93574167" lon="-4.11012333">
        <ele>1027.0</ele>
        <time>2018-05-26T12:50:20.699Z</time>
      </trkpt>
      <trkpt lat="40.93579667" lon="-4.11015667">
        <ele>1027.0</ele>
        <time>2018-05-26T12:50:21.689Z</time>
      </trkpt>
      <trkpt lat="40.93579667" lon="-4.11015667">
        <ele>1027.0</ele>
        <time>2018-05-26T12:50:22.712Z</time>
      </trkpt>
      <trkpt lat="40.93591" lon="-4.11023167">
        <ele>1027.0</ele>
        <time>2018-05-26T12:50:23.683Z</time>
      </trkpt>
      <trkpt lat="40.93591" lon="-4.11023167">
        <ele>1027.0</ele>
        <time>2018-05-26T12:50:24.708Z</time>
      </trkpt>
      <trkpt lat="40.93602667" lon="-4.11030667">
        <ele>1027.0</ele>
        <time>2018-05-26T12:50:25.681Z</time>
      </trkpt>
      <trkpt lat="40.93608667" lon="-4.11034167">
        <ele>1027.0</ele>
        <time>2018-05-26T12:50:26.699Z</time>
      </trkpt>
      <trkpt lat="40.93608667" lon="-4.11034167">
        <ele>1027.0</ele>
        <time>2018-05-26T12:50:27.685Z</time>
      </trkpt>
      <trkpt lat="40.93619333" lon="-4.11040833">
        <ele>1027.0</ele>
        <time>2018-05-26T12:50:28.692Z</time>
      </trkpt>
      <trkpt lat="40.93625667" lon="-4.11044167">
        <ele>1027.0</ele>
        <time>2018-05-26T12:50:29.679Z</time>
      </trkpt>
      <trkpt lat="40.93625667" lon="-4.11044167">
        <ele>1027.0</ele>
        <time>2018-05-26T12:50:30.694Z</time>
      </trkpt>
      <trkpt lat="40.93637167" lon="-4.110515">
        <ele>1027.0</ele>
        <time>2018-05-26T12:50:31.700Z</time>
      </trkpt>
      <trkpt lat="40.93637167" lon="-4.110515">
        <ele>1027.0</ele>
        <time>2018-05-26T12:50:32.703Z</time>
      </trkpt>
      <trkpt lat="40.93649167" lon="-4.11057833">
        <ele>1027.0</ele>
        <time>2018-05-26T12:50:33.708Z</time>
      </trkpt>
      <trkpt lat="40.93655" lon="-4.110605">
        <ele>1027.0</ele>
        <time>2018-05-26T12:50:34.705Z</time>
      </trkpt>
      <trkpt lat="40.93655" lon="-4.110605">
        <ele>1027.0</ele>
        <time>2018-05-26T12:50:35.711Z</time>
      </trkpt>
      <trkpt lat="40.93666333" lon="-4.11066333">
        <ele>1027.0</ele>
        <time>2018-05-26T12:50:36.680Z</time>
      </trkpt>
      <trkpt lat="40.93672333" lon="-4.110695">
        <ele>1026.0</ele>
        <time>2018-05-26T12:50:37.690Z</time>
      </trkpt>
      <trkpt lat="40.93672333" lon="-4.110695">
        <ele>1026.0</ele>
        <time>2018-05-26T12:50:38.679Z</time>
      </trkpt>
      <trkpt lat="40.93684667" lon="-4.11076">
        <ele>1026.0</ele>
        <time>2018-05-26T12:50:39.686Z</time>
      </trkpt>
      <trkpt lat="40.93684667" lon="-4.11076">
        <ele>1026.0</ele>
        <time>2018-05-26T12:50:40.714Z</time>
      </trkpt>
      <trkpt lat="40.93696833" lon="-4.11083167">
        <ele>1026.0</ele>
        <time>2018-05-26T12:50:41.683Z</time>
      </trkpt>
      <trkpt lat="40.93696833" lon="-4.11083167">
        <ele>1026.0</ele>
        <time>2018-05-26T12:50:42.702Z</time>
      </trkpt>
      <trkpt lat="40.937095" lon="-4.11090167">
        <ele>1026.0</ele>
        <time>2018-05-26T12:50:43.709Z</time>
      </trkpt>
      <trkpt lat="40.937095" lon="-4.11090167">
        <ele>1026.0</ele>
        <time>2018-05-26T12:50:44.680Z</time>
      </trkpt>
      <trkpt lat="40.937225" lon="-4.110975">
        <ele>1026.0</ele>
        <time>2018-05-26T12:50:45.691Z</time>
      </trkpt>
      <trkpt lat="40.937225" lon="-4.110975">
        <ele>1026.0</ele>
        <time>2018-05-26T12:50:46.703Z</time>
      </trkpt>
      <trkpt lat="40.93735667" lon="-4.11102667">
        <ele>1026.0</ele>
        <time>2018-05-26T12:50:47.710Z</time>
      </trkpt>
      <trkpt lat="40.93735667" lon="-4.11102667">
        <ele>1026.0</ele>
        <time>2018-05-26T12:50:48.695Z</time>
      </trkpt>
      <trkpt lat="40.93749667" lon="-4.11105167">
        <ele>1026.0</ele>
        <time>2018-05-26T12:50:49.690Z</time>
      </trkpt>
      <trkpt lat="40.93749667" lon="-4.11105167">
        <ele>1026.0</ele>
        <time>2018-05-26T12:50:50.715Z</time>
      </trkpt>
      <trkpt lat="40.93762667" lon="-4.11109833">
        <ele>1026.0</ele>
        <time>2018-05-26T12:50:51.690Z</time>
      </trkpt>
      <trkpt lat="40.93768667" lon="-4.11113833">
        <ele>1026.0</ele>
        <time>2018-05-26T12:50:52.678Z</time>
      </trkpt>
      <trkpt lat="40.93768667" lon="-4.11113833">
        <ele>1026.0</ele>
        <time>2018-05-26T12:50:53.701Z</time>
      </trkpt>
      <trkpt lat="40.93777667" lon="-4.11124833">
        <ele>1026.0</ele>
        <time>2018-05-26T12:50:54.710Z</time>
      </trkpt>
      <trkpt lat="40.93777667" lon="-4.11124833">
        <ele>1026.0</ele>
        <time>2018-05-26T12:50:55.700Z</time>
      </trkpt>
      <trkpt lat="40.93785" lon="-4.11136833">
        <ele>1025.0</ele>
        <time>2018-05-26T12:50:56.696Z</time>
      </trkpt>
      <trkpt lat="40.93785" lon="-4.11136833">
        <ele>1025.0</ele>
        <time>2018-05-26T12:50:57.703Z</time>
      </trkpt>
      <trkpt lat="40.93795167" lon="-4.11146">
        <ele>1025.0</ele>
        <time>2018-05-26T12:50:58.714Z</time>
      </trkpt>
      <trkpt lat="40.93795167" lon="-4.11146">
        <ele>1025.0</ele>
        <time>2018-05-26T12:50:59.701Z</time>
      </trkpt>
      <trkpt lat="40.93808333" lon="-4.11154833">
        <ele>1024.0</ele>
        <time>2018-05-26T12:51:00.689Z</time>
      </trkpt>
      <trkpt lat="40.93808333" lon="-4.11154833">
        <ele>1024.0</ele>
        <time>2018-05-26T12:51:01.694Z</time>
      </trkpt>
      <trkpt lat="40.93823333" lon="-4.11162333">
        <ele>1024.0</ele>
        <time>2018-05-26T12:51:02.702Z</time>
      </trkpt>
      <trkpt lat="40.93823333" lon="-4.11162333">
        <ele>1024.0</ele>
        <time>2018-05-26T12:51:03.688Z</time>
      </trkpt>
      <trkpt lat="40.938405" lon="-4.111705">
        <ele>1023.0</ele>
        <time>2018-05-26T12:51:04.679Z</time>
      </trkpt>
      <trkpt lat="40.93848833" lon="-4.11175333">
        <ele>1023.0</ele>
        <time>2018-05-26T12:51:05.696Z</time>
      </trkpt>
      <trkpt lat="40.93848833" lon="-4.11175333">
        <ele>1023.0</ele>
        <time>2018-05-26T12:51:06.680Z</time>
      </trkpt>
      <trkpt lat="40.93866" lon="-4.11184833">
        <ele>1022.0</ele>
        <time>2018-05-26T12:51:07.704Z</time>
      </trkpt>
      <trkpt lat="40.93874167" lon="-4.11189833">
        <ele>1022.0</ele>
        <time>2018-05-26T12:51:08.682Z</time>
      </trkpt>
      <trkpt lat="40.93874167" lon="-4.11189833">
        <ele>1022.0</ele>
        <time>2018-05-26T12:51:09.707Z</time>
      </trkpt>
      <trkpt lat="40.938895" lon="-4.111995">
        <ele>1022.0</ele>
        <time>2018-05-26T12:51:10.689Z</time>
      </trkpt>
      <trkpt lat="40.938895" lon="-4.111995">
        <ele>1022.0</ele>
        <time>2018-05-26T12:51:11.689Z</time>
      </trkpt>
      <trkpt lat="40.93904333" lon="-4.11208667">
        <ele>1022.0</ele>
        <time>2018-05-26T12:51:12.695Z</time>
      </trkpt>
      <trkpt lat="40.93904333" lon="-4.11208667">
        <ele>1022.0</ele>
        <time>2018-05-26T12:51:13.679Z</time>
      </trkpt>
      <trkpt lat="40.93918833" lon="-4.11218">
        <ele>1022.0</ele>
        <time>2018-05-26T12:51:14.679Z</time>
      </trkpt>
      <trkpt lat="40.93918833" lon="-4.11218">
        <ele>1022.0</ele>
        <time>2018-05-26T12:51:15.711Z</time>
      </trkpt>
      <trkpt lat="40.93933833" lon="-4.112265">
        <ele>1021.0</ele>
        <time>2018-05-26T12:51:16.681Z</time>
      </trkpt>
      <trkpt lat="40.93941" lon="-4.11231">
        <ele>1021.0</ele>
        <time>2018-05-26T12:51:17.688Z</time>
      </trkpt>
      <trkpt lat="40.93941" lon="-4.11231">
        <ele>1021.0</ele>
        <time>2018-05-26T12:51:18.714Z</time>
      </trkpt>
      <trkpt lat="40.93955833" lon="-4.112395">
        <ele>1021.0</ele>
        <time>2018-05-26T12:51:19.682Z</time>
      </trkpt>
      <trkpt lat="40.93955833" lon="-4.112395">
        <ele>1021.0</ele>
        <time>2018-05-26T12:51:20.705Z</time>
      </trkpt>
      <trkpt lat="40.93971167" lon="-4.11248167">
        <ele>1020.0</ele>
        <time>2018-05-26T12:51:21.689Z</time>
      </trkpt>
      <trkpt lat="40.93971167" lon="-4.11248167">
        <ele>1020.0</ele>
        <time>2018-05-26T12:51:22.681Z</time>
      </trkpt>
      <trkpt lat="40.93986333" lon="-4.11257167">
        <ele>1020.0</ele>
        <time>2018-05-26T12:51:23.688Z</time>
      </trkpt>
      <trkpt lat="40.93986333" lon="-4.11257167">
        <ele>1020.0</ele>
        <time>2018-05-26T12:51:24.713Z</time>
      </trkpt>
      <trkpt lat="40.94001667" lon="-4.11266333">
        <ele>1019.0</ele>
        <time>2018-05-26T12:51:25.699Z</time>
      </trkpt>
      <trkpt lat="40.94001667" lon="-4.11266333">
        <ele>1019.0</ele>
        <time>2018-05-26T12:51:26.706Z</time>
      </trkpt>
      <trkpt lat="40.94016833" lon="-4.11276167">
        <ele>1019.0</ele>
        <time>2018-05-26T12:51:27.712Z</time>
      </trkpt>
      <trkpt lat="40.94016833" lon="-4.11276167">
        <ele>1019.0</ele>
        <time>2018-05-26T12:51:28.696Z</time>
      </trkpt>
      <trkpt lat="40.94031667" lon="-4.11285833">
        <ele>1019.0</ele>
        <time>2018-05-26T12:51:29.681Z</time>
      </trkpt>
      <trkpt lat="40.94031667" lon="-4.11285833">
        <ele>1019.0</ele>
        <time>2018-05-26T12:51:30.681Z</time>
      </trkpt>
      <trkpt lat="40.94047167" lon="-4.11294833">
        <ele>1018.0</ele>
        <time>2018-05-26T12:51:31.687Z</time>
      </trkpt>
      <trkpt lat="40.94047167" lon="-4.11294833">
        <ele>1018.0</ele>
        <time>2018-05-26T12:51:32.680Z</time>
      </trkpt>
      <trkpt lat="40.940625" lon="-4.11303667">
        <ele>1018.0</ele>
        <time>2018-05-26T12:51:33.693Z</time>
      </trkpt>
      <trkpt lat="40.94070167" lon="-4.11308667">
        <ele>1018.0</ele>
        <time>2018-05-26T12:51:34.684Z</time>
      </trkpt>
      <trkpt lat="40.94070167" lon="-4.11308667">
        <ele>1018.0</ele>
        <time>2018-05-26T12:51:35.711Z</time>
      </trkpt>
      <trkpt lat="40.94085667" lon="-4.113175">
        <ele>1017.0</ele>
        <time>2018-05-26T12:51:36.680Z</time>
      </trkpt>
      <trkpt lat="40.94085667" lon="-4.113175">
        <ele>1017.0</ele>
        <time>2018-05-26T12:51:37.706Z</time>
      </trkpt>
      <trkpt lat="40.94101667" lon="-4.113255">
        <ele>1017.0</ele>
        <time>2018-05-26T12:51:38.689Z</time>
      </trkpt>
      <trkpt lat="40.94101667" lon="-4.113255">
        <ele>1017.0</ele>
        <time>2018-05-26T12:51:39.689Z</time>
      </trkpt>
      <trkpt lat="40.94116833" lon="-4.11334833">
        <ele>1017.0</ele>
        <time>2018-05-26T12:51:40.697Z</time>
      </trkpt>
      <trkpt lat="40.94116833" lon="-4.11334833">
        <ele>1017.0</ele>
        <time>2018-05-26T12:51:41.678Z</time>
      </trkpt>
      <trkpt lat="40.941325" lon="-4.11344167">
        <ele>1016.0</ele>
        <time>2018-05-26T12:51:42.678Z</time>
      </trkpt>
      <trkpt lat="40.94140167" lon="-4.11349">
        <ele>1016.0</ele>
        <time>2018-05-26T12:51:43.693Z</time>
      </trkpt>
      <trkpt lat="40.94140167" lon="-4.11349">
        <ele>1016.0</ele>
        <time>2018-05-26T12:51:44.683Z</time>
      </trkpt>
      <trkpt lat="40.94155" lon="-4.11358667">
        <ele>1015.0</ele>
        <time>2018-05-26T12:51:45.679Z</time>
      </trkpt>
      <trkpt lat="40.94155" lon="-4.11358667">
        <ele>1015.0</ele>
        <time>2018-05-26T12:51:46.677Z</time>
      </trkpt>
      <trkpt lat="40.941685" lon="-4.11367167">
        <ele>1015.0</ele>
        <time>2018-05-26T12:51:47.684Z</time>
      </trkpt>
      <trkpt lat="40.941685" lon="-4.11367167">
        <ele>1015.0</ele>
        <time>2018-05-26T12:51:48.708Z</time>
      </trkpt>
      <trkpt lat="40.94180667" lon="-4.113755">
        <ele>1015.0</ele>
        <time>2018-05-26T12:51:49.689Z</time>
      </trkpt>
      <trkpt lat="40.94180667" lon="-4.113755">
        <ele>1015.0</ele>
        <time>2018-05-26T12:51:50.713Z</time>
      </trkpt>
      <trkpt lat="40.94189833" lon="-4.11387167">
        <ele>1014.0</ele>
        <time>2018-05-26T12:51:51.684Z</time>
      </trkpt>
      <trkpt lat="40.94195" lon="-4.11393333">
        <ele>1014.0</ele>
        <time>2018-05-26T12:51:52.683Z</time>
      </trkpt>
      <trkpt lat="40.94195" lon="-4.11393333">
        <ele>1014.0</ele>
        <time>2018-05-26T12:51:53.684Z</time>
      </trkpt>
      <trkpt lat="40.94206333" lon="-4.11403833">
        <ele>1014.0</ele>
        <time>2018-05-26T12:51:54.691Z</time>
      </trkpt>
      <trkpt lat="40.94212167" lon="-4.114085">
        <ele>1013.0</ele>
        <time>2018-05-26T12:51:55.698Z</time>
      </trkpt>
      <trkpt lat="40.94212167" lon="-4.114085">
        <ele>1013.0</ele>
        <time>2018-05-26T12:51:56.690Z</time>
      </trkpt>
      <trkpt lat="40.94224167" lon="-4.11414167">
        <ele>1012.0</ele>
        <time>2018-05-26T12:51:57.696Z</time>
      </trkpt>
      <trkpt lat="40.94224167" lon="-4.11414167">
        <ele>1012.0</ele>
        <time>2018-05-26T12:51:58.681Z</time>
      </trkpt>
      <trkpt lat="40.94235667" lon="-4.11410167">
        <ele>1012.0</ele>
        <time>2018-05-26T12:51:59.712Z</time>
      </trkpt>
      <trkpt lat="40.94240833" lon="-4.11405667">
        <ele>1012.0</ele>
        <time>2018-05-26T12:52:00.701Z</time>
      </trkpt>
      <trkpt lat="40.94240833" lon="-4.11405667">
        <ele>1012.0</ele>
        <time>2018-05-26T12:52:01.687Z</time>
      </trkpt>
      <trkpt lat="40.94248667" lon="-4.11395333">
        <ele>1011.0</ele>
        <time>2018-05-26T12:52:02.699Z</time>
      </trkpt>
      <trkpt lat="40.94248667" lon="-4.11395333">
        <ele>1011.0</ele>
        <time>2018-05-26T12:52:03.681Z</time>
      </trkpt>
      <trkpt lat="40.94255333" lon="-4.11384833">
        <ele>1011.0</ele>
        <time>2018-05-26T12:52:04.690Z</time>
      </trkpt>
      <trkpt lat="40.94255333" lon="-4.11384833">
        <ele>1011.0</ele>
        <time>2018-05-26T12:52:05.679Z</time>
      </trkpt>
      <trkpt lat="40.94261" lon="-4.113755">
        <ele>1011.0</ele>
        <time>2018-05-26T12:52:06.706Z</time>
      </trkpt>
      <trkpt lat="40.94261" lon="-4.113755">
        <ele>1011.0</ele>
        <time>2018-05-26T12:52:07.695Z</time>
      </trkpt>
      <trkpt lat="40.942665" lon="-4.11366333">
        <ele>1010.0</ele>
        <time>2018-05-26T12:52:08.702Z</time>
      </trkpt>
      <trkpt lat="40.94269333" lon="-4.11362">
        <ele>1010.0</ele>
        <time>2018-05-26T12:52:09.696Z</time>
      </trkpt>
      <trkpt lat="40.94269333" lon="-4.11362">
        <ele>1010.0</ele>
        <time>2018-05-26T12:52:10.713Z</time>
      </trkpt>
      <trkpt lat="40.94275" lon="-4.11353">
        <ele>1010.0</ele>
        <time>2018-05-26T12:52:11.681Z</time>
      </trkpt>
      <trkpt lat="40.94275" lon="-4.11353">
        <ele>1010.0</ele>
        <time>2018-05-26T12:52:12.699Z</time>
      </trkpt>
      <trkpt lat="40.942805" lon="-4.11344167">
        <ele>1009.0</ele>
        <time>2018-05-26T12:52:13.690Z</time>
      </trkpt>
      <trkpt lat="40.942805" lon="-4.11344167">
        <ele>1009.0</ele>
        <time>2018-05-26T12:52:14.683Z</time>
      </trkpt>
      <trkpt lat="40.94285667" lon="-4.11336">
        <ele>1009.0</ele>
        <time>2018-05-26T12:52:15.701Z</time>
      </trkpt>
      <trkpt lat="40.94288167" lon="-4.11332">
        <ele>1008.0</ele>
        <time>2018-05-26T12:52:16.686Z</time>
      </trkpt>
      <trkpt lat="40.94288167" lon="-4.11332">
        <ele>1008.0</ele>
        <time>2018-05-26T12:52:17.712Z</time>
      </trkpt>
      <trkpt lat="40.94293333" lon="-4.11324333">
        <ele>1008.0</ele>
        <time>2018-05-26T12:52:18.682Z</time>
      </trkpt>
      <trkpt lat="40.942955" lon="-4.113195">
        <ele>1007.0</ele>
        <time>2018-05-26T12:52:19.682Z</time>
      </trkpt>
      <trkpt lat="40.942955" lon="-4.113195">
        <ele>1007.0</ele>
        <time>2018-05-26T12:52:20.688Z</time>
      </trkpt>
      <trkpt lat="40.943005" lon="-4.11313167">
        <ele>1007.0</ele>
        <time>2018-05-26T12:52:21.696Z</time>
      </trkpt>
      <trkpt lat="40.94302333" lon="-4.11310333">
        <ele>1007.0</ele>
        <time>2018-05-26T12:52:22.700Z</time>
      </trkpt>
      <trkpt lat="40.94302333" lon="-4.11310333">
        <ele>1007.0</ele>
        <time>2018-05-26T12:52:23.714Z</time>
      </trkpt>
      <trkpt lat="40.94305667" lon="-4.11302167">
        <ele>1007.0</ele>
        <time>2018-05-26T12:52:24.685Z</time>
      </trkpt>
      <trkpt lat="40.94305667" lon="-4.11302167">
        <ele>1007.0</ele>
        <time>2018-05-26T12:52:25.712Z</time>
      </trkpt>
      <trkpt lat="40.94309167" lon="-4.11292333">
        <ele>1007.0</ele>
        <time>2018-05-26T12:52:26.676Z</time>
      </trkpt>
      <trkpt lat="40.94309167" lon="-4.11292333">
        <ele>1007.0</ele>
        <time>2018-05-26T12:52:27.681Z</time>
      </trkpt>
      <trkpt lat="40.943145" lon="-4.11283333">
        <ele>1007.0</ele>
        <time>2018-05-26T12:52:28.688Z</time>
      </trkpt>
      <trkpt lat="40.943145" lon="-4.11283333">
        <ele>1007.0</ele>
        <time>2018-05-26T12:52:29.713Z</time>
      </trkpt>
      <trkpt lat="40.94320833" lon="-4.11276167">
        <ele>1006.0</ele>
        <time>2018-05-26T12:52:30.681Z</time>
      </trkpt>
      <trkpt lat="40.94320833" lon="-4.11276167">
        <ele>1006.0</ele>
        <time>2018-05-26T12:52:31.680Z</time>
      </trkpt>
      <trkpt lat="40.943255" lon="-4.11268333">
        <ele>1007.0</ele>
        <time>2018-05-26T12:52:32.699Z</time>
      </trkpt>
      <trkpt lat="40.94327667" lon="-4.11264167">
        <ele>1007.0</ele>
        <time>2018-05-26T12:52:33.687Z</time>
      </trkpt>
      <trkpt lat="40.94327667" lon="-4.11264167">
        <ele>1007.0</ele>
        <time>2018-05-26T12:52:34.714Z</time>
      </trkpt>
      <trkpt lat="40.94331833" lon="-4.11256667">
        <ele>1007.0</ele>
        <time>2018-05-26T12:52:35.681Z</time>
      </trkpt>
      <trkpt lat="40.94333833" lon="-4.112525">
        <ele>1008.0</ele>
        <time>2018-05-26T12:52:36.719Z</time>
      </trkpt>
      <trkpt lat="40.94333833" lon="-4.112525">
        <ele>1008.0</ele>
        <time>2018-05-26T12:52:37.685Z</time>
      </trkpt>
      <trkpt lat="40.94336667" lon="-4.11244">
        <ele>1009.0</ele>
        <time>2018-05-26T12:52:38.692Z</time>
      </trkpt>
      <trkpt lat="40.94337833" lon="-4.11240167">
        <ele>1010.0</ele>
        <time>2018-05-26T12:52:39.687Z</time>
      </trkpt>
      <trkpt lat="40.94337833" lon="-4.11240167">
        <ele>1010.0</ele>
        <time>2018-05-26T12:52:40.707Z</time>
      </trkpt>
      <trkpt lat="40.94340833" lon="-4.11232833">
        <ele>1011.0</ele>
        <time>2018-05-26T12:52:41.675Z</time>
      </trkpt>
      <trkpt lat="40.94340833" lon="-4.11232833">
        <ele>1011.0</ele>
        <time>2018-05-26T12:52:42.695Z</time>
      </trkpt>
      <trkpt lat="40.94343167" lon="-4.11225667">
        <ele>1012.0</ele>
        <time>2018-05-26T12:52:43.687Z</time>
      </trkpt>
      <trkpt lat="40.94343167" lon="-4.11225667">
        <ele>1012.0</ele>
        <time>2018-05-26T12:52:44.707Z</time>
      </trkpt>
      <trkpt lat="40.94345667" lon="-4.11218">
        <ele>1013.0</ele>
        <time>2018-05-26T12:52:45.714Z</time>
      </trkpt>
      <trkpt lat="40.94345667" lon="-4.11218">
        <ele>1013.0</ele>
        <time>2018-05-26T12:52:46.684Z</time>
      </trkpt>
      <trkpt lat="40.943495" lon="-4.11210333">
        <ele>1014.0</ele>
        <time>2018-05-26T12:52:47.682Z</time>
      </trkpt>
      <trkpt lat="40.943495" lon="-4.11210333">
        <ele>1014.0</ele>
        <time>2018-05-26T12:52:48.708Z</time>
      </trkpt>
      <trkpt lat="40.943535" lon="-4.11202">
        <ele>1014.0</ele>
        <time>2018-05-26T12:52:49.714Z</time>
      </trkpt>
      <trkpt lat="40.94355333" lon="-4.111965">
        <ele>1014.0</ele>
        <time>2018-05-26T12:52:50.676Z</time>
      </trkpt>
      <trkpt lat="40.943575" lon="-4.111915">
        <ele>1014.0</ele>
        <time>2018-05-26T12:52:51.675Z</time>
      </trkpt>
      <trkpt lat="40.943575" lon="-4.111915">
        <ele>1014.0</ele>
        <time>2018-05-26T12:52:52.700Z</time>
      </trkpt>
      <trkpt lat="40.94361333" lon="-4.11181833">
        <ele>1014.0</ele>
        <time>2018-05-26T12:52:53.684Z</time>
      </trkpt>
      <trkpt lat="40.94363" lon="-4.111775">
        <ele>1013.0</ele>
        <time>2018-05-26T12:52:54.702Z</time>
      </trkpt>
      <trkpt lat="40.94363" lon="-4.111775">
        <ele>1013.0</ele>
        <time>2018-05-26T12:52:55.690Z</time>
      </trkpt>
      <trkpt lat="40.94367" lon="-4.11168833">
        <ele>1013.0</ele>
        <time>2018-05-26T12:52:56.699Z</time>
      </trkpt>
      <trkpt lat="40.94369" lon="-4.11164667">
        <ele>1013.0</ele>
        <time>2018-05-26T12:52:57.684Z</time>
      </trkpt>
      <trkpt lat="40.94370833" lon="-4.11160667">
        <ele>1013.0</ele>
        <time>2018-05-26T12:52:58.709Z</time>
      </trkpt>
      <trkpt lat="40.94370833" lon="-4.11160667">
        <ele>1013.0</ele>
        <time>2018-05-26T12:52:59.695Z</time>
      </trkpt>
      <trkpt lat="40.94374167" lon="-4.11152667">
        <ele>1013.0</ele>
        <time>2018-05-26T12:53:00.702Z</time>
      </trkpt>
      <trkpt lat="40.94374167" lon="-4.11152667">
        <ele>1013.0</ele>
        <time>2018-05-26T12:53:01.694Z</time>
      </trkpt>
      <trkpt lat="40.94377667" lon="-4.11145333">
        <ele>1013.0</ele>
        <time>2018-05-26T12:53:02.719Z</time>
      </trkpt>
      <trkpt lat="40.94377667" lon="-4.11145333">
        <ele>1013.0</ele>
        <time>2018-05-26T12:53:03.691Z</time>
      </trkpt>
      <trkpt lat="40.94380333" lon="-4.11138333">
        <ele>1013.0</ele>
        <time>2018-05-26T12:53:04.698Z</time>
      </trkpt>
      <trkpt lat="40.94380333" lon="-4.11138333">
        <ele>1013.0</ele>
        <time>2018-05-26T12:53:05.685Z</time>
      </trkpt>
      <trkpt lat="40.94382333" lon="-4.11132667">
        <ele>1013.0</ele>
        <time>2018-05-26T12:53:06.679Z</time>
      </trkpt>
      <trkpt lat="40.94382333" lon="-4.11132667">
        <ele>1013.0</ele>
        <time>2018-05-26T12:53:07.714Z</time>
      </trkpt>
      <trkpt lat="40.94384167" lon="-4.11126833">
        <ele>1013.0</ele>
        <time>2018-05-26T12:53:08.680Z</time>
      </trkpt>
      <trkpt lat="40.94384167" lon="-4.11126833">
        <ele>1013.0</ele>
        <time>2018-05-26T12:53:09.706Z</time>
      </trkpt>
      <trkpt lat="40.94385833" lon="-4.11123333">
        <ele>1013.0</ele>
        <time>2018-05-26T12:53:10.676Z</time>
      </trkpt>
      <trkpt lat="40.94385833" lon="-4.11123333">
        <ele>1013.0</ele>
        <time>2018-05-26T12:53:11.696Z</time>
      </trkpt>
      <trkpt lat="40.94387167" lon="-4.111225">
        <ele>1013.0</ele>
        <time>2018-05-26T12:53:12.702Z</time>
      </trkpt>
      <trkpt lat="40.94389" lon="-4.11120333">
        <ele>1012.0</ele>
        <time>2018-05-26T12:53:13.704Z</time>
      </trkpt>
      <trkpt lat="40.94390167" lon="-4.11117833">
        <ele>1013.0</ele>
        <time>2018-05-26T12:53:14.679Z</time>
      </trkpt>
      <trkpt lat="40.94390167" lon="-4.11117833">
        <ele>1013.0</ele>
        <time>2018-05-26T12:53:15.685Z</time>
      </trkpt>
      <trkpt lat="40.94392333" lon="-4.11111333">
        <ele>1013.0</ele>
        <time>2018-05-26T12:53:16.697Z</time>
      </trkpt>
      <trkpt lat="40.94392333" lon="-4.11111333">
        <ele>1013.0</ele>
        <time>2018-05-26T12:53:17.676Z</time>
      </trkpt>
      <trkpt lat="40.94396" lon="-4.11105">
        <ele>1014.0</ele>
        <time>2018-05-26T12:53:18.719Z</time>
      </trkpt>
      <trkpt lat="40.94396" lon="-4.11105">
        <ele>1014.0</ele>
        <time>2018-05-26T12:53:19.681Z</time>
      </trkpt>
      <trkpt lat="40.94399667" lon="-4.11097833">
        <ele>1014.0</ele>
        <time>2018-05-26T12:53:20.688Z</time>
      </trkpt>
      <trkpt lat="40.94399667" lon="-4.11097833">
        <ele>1014.0</ele>
        <time>2018-05-26T12:53:21.701Z</time>
      </trkpt>
      <trkpt lat="40.94403333" lon="-4.11092167">
        <ele>1016.0</ele>
        <time>2018-05-26T12:53:22.677Z</time>
      </trkpt>
      <trkpt lat="40.94403333" lon="-4.11092167">
        <ele>1016.0</ele>
        <time>2018-05-26T12:53:23.703Z</time>
      </trkpt>
      <trkpt lat="40.944075" lon="-4.11084833">
        <ele>1016.0</ele>
        <time>2018-05-26T12:53:24.710Z</time>
      </trkpt>
      <trkpt lat="40.944105" lon="-4.11081833">
        <ele>1017.0</ele>
        <time>2018-05-26T12:53:25.677Z</time>
      </trkpt>
      <trkpt lat="40.944105" lon="-4.11081833">
        <ele>1017.0</ele>
        <time>2018-05-26T12:53:26.697Z</time>
      </trkpt>
      <trkpt lat="40.94413167" lon="-4.11075167">
        <ele>1019.0</ele>
        <time>2018-05-26T12:53:27.681Z</time>
      </trkpt>
      <trkpt lat="40.94414167" lon="-4.11072667">
        <ele>1019.0</ele>
        <time>2018-05-26T12:53:28.719Z</time>
      </trkpt>
      <trkpt lat="40.94414167" lon="-4.11072667">
        <ele>1019.0</ele>
        <time>2018-05-26T12:53:29.686Z</time>
      </trkpt>
      <trkpt lat="40.94417333" lon="-4.11068">
        <ele>1021.0</ele>
        <time>2018-05-26T12:53:30.693Z</time>
      </trkpt>
      <trkpt lat="40.94418833" lon="-4.110655">
        <ele>1022.0</ele>
        <time>2018-05-26T12:53:31.695Z</time>
      </trkpt>
      <trkpt lat="40.94418833" lon="-4.110655">
        <ele>1022.0</ele>
        <time>2018-05-26T12:53:32.696Z</time>
      </trkpt>
      <trkpt lat="40.94422" lon="-4.11060167">
        <ele>1023.0</ele>
        <time>2018-05-26T12:53:33.684Z</time>
      </trkpt>
      <trkpt lat="40.94424667" lon="-4.11058">
        <ele>1024.0</ele>
        <time>2018-05-26T12:53:34.709Z</time>
      </trkpt>
      <trkpt lat="40.94427333" lon="-4.11056">
        <ele>1025.0</ele>
        <time>2018-05-26T12:53:35.709Z</time>
      </trkpt>
      <trkpt lat="40.94427333" lon="-4.11056">
        <ele>1025.0</ele>
        <time>2018-05-26T12:53:36.701Z</time>
      </trkpt>
      <trkpt lat="40.94433667" lon="-4.11054833">
        <ele>1026.0</ele>
        <time>2018-05-26T12:53:37.682Z</time>
      </trkpt>
      <trkpt lat="40.94433667" lon="-4.11054833">
        <ele>1026.0</ele>
        <time>2018-05-26T12:53:38.709Z</time>
      </trkpt>
      <trkpt lat="40.94441833" lon="-4.11058167">
        <ele>1027.0</ele>
        <time>2018-05-26T12:53:39.679Z</time>
      </trkpt>
      <trkpt lat="40.94445833" lon="-4.11060667">
        <ele>1027.0</ele>
        <time>2018-05-26T12:53:40.719Z</time>
      </trkpt>
      <trkpt lat="40.94445833" lon="-4.11060667">
        <ele>1027.0</ele>
        <time>2018-05-26T12:53:41.683Z</time>
      </trkpt>
      <trkpt lat="40.944545" lon="-4.110665">
        <ele>1028.0</ele>
        <time>2018-05-26T12:53:42.690Z</time>
      </trkpt>
      <trkpt lat="40.944545" lon="-4.110665">
        <ele>1028.0</ele>
        <time>2018-05-26T12:53:43.682Z</time>
      </trkpt>
      <trkpt lat="40.94463667" lon="-4.11073667">
        <ele>1028.0</ele>
        <time>2018-05-26T12:53:44.680Z</time>
      </trkpt>
      <trkpt lat="40.94463667" lon="-4.11073667">
        <ele>1028.0</ele>
        <time>2018-05-26T12:53:45.703Z</time>
      </trkpt>
      <trkpt lat="40.944735" lon="-4.11082">
        <ele>1028.0</ele>
        <time>2018-05-26T12:53:46.710Z</time>
      </trkpt>
      <trkpt lat="40.94478667" lon="-4.11086333">
        <ele>1028.0</ele>
        <time>2018-05-26T12:53:47.689Z</time>
      </trkpt>
      <trkpt lat="40.94478667" lon="-4.11086333">
        <ele>1028.0</ele>
        <time>2018-05-26T12:53:48.700Z</time>
      </trkpt>
      <trkpt lat="40.94489167" lon="-4.11095">
        <ele>1028.0</ele>
        <time>2018-05-26T12:53:49.706Z</time>
      </trkpt>
      <trkpt lat="40.94489167" lon="-4.11095">
        <ele>1028.0</ele>
        <time>2018-05-26T12:53:50.692Z</time>
      </trkpt>
      <trkpt lat="40.94499833" lon="-4.11104833">
        <ele>1028.0</ele>
        <time>2018-05-26T12:53:51.682Z</time>
      </trkpt>
      <trkpt lat="40.94499833" lon="-4.11104833">
        <ele>1028.0</ele>
        <time>2018-05-26T12:53:52.712Z</time>
      </trkpt>
      <trkpt lat="40.945095" lon="-4.11115667">
        <ele>1028.0</ele>
        <time>2018-05-26T12:53:53.681Z</time>
      </trkpt>
      <trkpt lat="40.945095" lon="-4.11115667">
        <ele>1028.0</ele>
        <time>2018-05-26T12:53:54.706Z</time>
      </trkpt>
      <trkpt lat="40.94519333" lon="-4.11127333">
        <ele>1029.0</ele>
        <time>2018-05-26T12:53:55.679Z</time>
      </trkpt>
      <trkpt lat="40.94519333" lon="-4.11127333">
        <ele>1029.0</ele>
        <time>2018-05-26T12:53:56.692Z</time>
      </trkpt>
      <trkpt lat="40.945295" lon="-4.11140667">
        <ele>1029.0</ele>
        <time>2018-05-26T12:53:57.698Z</time>
      </trkpt>
      <trkpt lat="40.94534833" lon="-4.11147167">
        <ele>1029.0</ele>
        <time>2018-05-26T12:53:58.700Z</time>
      </trkpt>
      <trkpt lat="40.94534833" lon="-4.11147167">
        <ele>1029.0</ele>
        <time>2018-05-26T12:53:59.691Z</time>
      </trkpt>
      <trkpt lat="40.94545167" lon="-4.11160667">
        <ele>1029.0</ele>
        <time>2018-05-26T12:54:00.697Z</time>
      </trkpt>
      <trkpt lat="40.9455" lon="-4.11168">
        <ele>1029.0</ele>
        <time>2018-05-26T12:54:01.717Z</time>
      </trkpt>
      <trkpt lat="40.945545" lon="-4.111755">
        <ele>1029.0</ele>
        <time>2018-05-26T12:54:02.712Z</time>
      </trkpt>
      <trkpt lat="40.945545" lon="-4.111755">
        <ele>1029.0</ele>
        <time>2018-05-26T12:54:03.699Z</time>
      </trkpt>
      <trkpt lat="40.94564" lon="-4.11189833">
        <ele>1029.0</ele>
        <time>2018-05-26T12:54:04.676Z</time>
      </trkpt>
      <trkpt lat="40.94564" lon="-4.11189833">
        <ele>1029.0</ele>
        <time>2018-05-26T12:54:05.690Z</time>
      </trkpt>
      <trkpt lat="40.94572167" lon="-4.112055">
        <ele>1028.0</ele>
        <time>2018-05-26T12:54:06.696Z</time>
      </trkpt>
      <trkpt lat="40.94575667" lon="-4.112145">
        <ele>1028.0</ele>
        <time>2018-05-26T12:54:07.686Z</time>
      </trkpt>
      <trkpt lat="40.94575667" lon="-4.112145">
        <ele>1028.0</ele>
        <time>2018-05-26T12:54:08.682Z</time>
      </trkpt>
      <trkpt lat="40.94582833" lon="-4.11232833">
        <ele>1028.0</ele>
        <time>2018-05-26T12:54:09.690Z</time>
      </trkpt>
      <trkpt lat="40.94582833" lon="-4.11232833">
        <ele>1028.0</ele>
        <time>2018-05-26T12:54:10.682Z</time>
      </trkpt>
      <trkpt lat="40.94589167" lon="-4.11251333">
        <ele>1028.0</ele>
        <time>2018-05-26T12:54:11.680Z</time>
      </trkpt>
      <trkpt lat="40.94589167" lon="-4.11251333">
        <ele>1028.0</ele>
        <time>2018-05-26T12:54:12.706Z</time>
      </trkpt>
      <trkpt lat="40.94596" lon="-4.11269167">
        <ele>1028.0</ele>
        <time>2018-05-26T12:54:13.713Z</time>
      </trkpt>
      <trkpt lat="40.94599333" lon="-4.11278167">
        <ele>1028.0</ele>
        <time>2018-05-26T12:54:14.703Z</time>
      </trkpt>
      <trkpt lat="40.94599333" lon="-4.11278167">
        <ele>1028.0</ele>
        <time>2018-05-26T12:54:15.684Z</time>
      </trkpt>
      <trkpt lat="40.94606833" lon="-4.112955">
        <ele>1027.0</ele>
        <time>2018-05-26T12:54:16.692Z</time>
      </trkpt>
      <trkpt lat="40.94606833" lon="-4.112955">
        <ele>1027.0</ele>
        <time>2018-05-26T12:54:17.687Z</time>
      </trkpt>
      <trkpt lat="40.94614" lon="-4.11312833">
        <ele>1026.0</ele>
        <time>2018-05-26T12:54:18.717Z</time>
      </trkpt>
      <trkpt lat="40.94614" lon="-4.11312833">
        <ele>1026.0</ele>
        <time>2018-05-26T12:54:19.701Z</time>
      </trkpt>
      <trkpt lat="40.94620167" lon="-4.11329167">
        <ele>1025.0</ele>
        <time>2018-05-26T12:54:20.691Z</time>
      </trkpt>
      <trkpt lat="40.94620167" lon="-4.11329167">
        <ele>1025.0</ele>
        <time>2018-05-26T12:54:21.686Z</time>
      </trkpt>
      <trkpt lat="40.94624667" lon="-4.11343">
        <ele>1024.0</ele>
        <time>2018-05-26T12:54:22.675Z</time>
      </trkpt>
      <trkpt lat="40.94624667" lon="-4.11343">
        <ele>1024.0</ele>
        <time>2018-05-26T12:54:23.683Z</time>
      </trkpt>
      <trkpt lat="40.94628" lon="-4.11352">
        <ele>1024.0</ele>
        <time>2018-05-26T12:54:24.690Z</time>
      </trkpt>
      <trkpt lat="40.94628" lon="-4.11352">
        <ele>1024.0</ele>
        <time>2018-05-26T12:54:25.676Z</time>
      </trkpt>
      <trkpt lat="40.946295" lon="-4.11365">
        <ele>1024.0</ele>
        <time>2018-05-26T12:54:26.692Z</time>
      </trkpt>
      <trkpt lat="40.946295" lon="-4.11365">
        <ele>1024.0</ele>
        <time>2018-05-26T12:54:27.696Z</time>
      </trkpt>
      <trkpt lat="40.94629167" lon="-4.11376167">
        <ele>1024.0</ele>
        <time>2018-05-26T12:54:28.702Z</time>
      </trkpt>
      <trkpt lat="40.94629167" lon="-4.11376167">
        <ele>1024.0</ele>
        <time>2018-05-26T12:54:29.688Z</time>
      </trkpt>
      <trkpt lat="40.94629833" lon="-4.11385833">
        <ele>1024.0</ele>
        <time>2018-05-26T12:54:30.679Z</time>
      </trkpt>
      <trkpt lat="40.94629833" lon="-4.11385833">
        <ele>1024.0</ele>
        <time>2018-05-26T12:54:31.682Z</time>
      </trkpt>
      <trkpt lat="40.94630833" lon="-4.11397167">
        <ele>1023.0</ele>
        <time>2018-05-26T12:54:32.717Z</time>
      </trkpt>
      <trkpt lat="40.94630833" lon="-4.11397167">
        <ele>1023.0</ele>
        <time>2018-05-26T12:54:33.703Z</time>
      </trkpt>
      <trkpt lat="40.94631667" lon="-4.114085">
        <ele>1023.0</ele>
        <time>2018-05-26T12:54:34.711Z</time>
      </trkpt>
      <trkpt lat="40.94631667" lon="-4.114085">
        <ele>1023.0</ele>
        <time>2018-05-26T12:54:35.697Z</time>
      </trkpt>
      <trkpt lat="40.946315" lon="-4.114205">
        <ele>1023.0</ele>
        <time>2018-05-26T12:54:36.682Z</time>
      </trkpt>
      <trkpt lat="40.946315" lon="-4.114205">
        <ele>1023.0</ele>
        <time>2018-05-26T12:54:37.709Z</time>
      </trkpt>
      <trkpt lat="40.94632667" lon="-4.114315">
        <ele>1023.0</ele>
        <time>2018-05-26T12:54:38.680Z</time>
      </trkpt>
      <trkpt lat="40.94632833" lon="-4.114375">
        <ele>1023.0</ele>
        <time>2018-05-26T12:54:39.689Z</time>
      </trkpt>
      <trkpt lat="40.94632833" lon="-4.114375">
        <ele>1023.0</ele>
        <time>2018-05-26T12:54:40.704Z</time>
      </trkpt>
      <trkpt lat="40.94634" lon="-4.11450333">
        <ele>1023.0</ele>
        <time>2018-05-26T12:54:41.711Z</time>
      </trkpt>
      <trkpt lat="40.94634" lon="-4.11450333">
        <ele>1023.0</ele>
        <time>2018-05-26T12:54:42.696Z</time>
      </trkpt>
      <trkpt lat="40.94635167" lon="-4.11465167">
        <ele>1024.0</ele>
        <time>2018-05-26T12:54:43.696Z</time>
      </trkpt>
      <trkpt lat="40.94635167" lon="-4.11465167">
        <ele>1024.0</ele>
        <time>2018-05-26T12:54:44.675Z</time>
      </trkpt>
      <trkpt lat="40.94635833" lon="-4.11480833">
        <ele>1024.0</ele>
        <time>2018-05-26T12:54:45.687Z</time>
      </trkpt>
      <trkpt lat="40.94636167" lon="-4.11488667">
        <ele>1024.0</ele>
        <time>2018-05-26T12:54:46.704Z</time>
      </trkpt>
      <trkpt lat="40.94636167" lon="-4.11488667">
        <ele>1024.0</ele>
        <time>2018-05-26T12:54:47.701Z</time>
      </trkpt>
      <trkpt lat="40.94636167" lon="-4.115055">
        <ele>1024.0</ele>
        <time>2018-05-26T12:54:48.708Z</time>
      </trkpt>
      <trkpt lat="40.94636167" lon="-4.115055">
        <ele>1024.0</ele>
        <time>2018-05-26T12:54:49.694Z</time>
      </trkpt>
      <trkpt lat="40.94637167" lon="-4.115235">
        <ele>1024.0</ele>
        <time>2018-05-26T12:54:50.689Z</time>
      </trkpt>
      <trkpt lat="40.94637167" lon="-4.115235">
        <ele>1024.0</ele>
        <time>2018-05-26T12:54:51.693Z</time>
      </trkpt>
      <trkpt lat="40.94639833" lon="-4.11543667">
        <ele>1024.0</ele>
        <time>2018-05-26T12:54:52.699Z</time>
      </trkpt>
      <trkpt lat="40.94639833" lon="-4.11543667">
        <ele>1024.0</ele>
        <time>2018-05-26T12:54:53.685Z</time>
      </trkpt>
      <trkpt lat="40.94641833" lon="-4.11564667">
        <ele>1023.0</ele>
        <time>2018-05-26T12:54:54.679Z</time>
      </trkpt>
      <trkpt lat="40.94641833" lon="-4.11564667">
        <ele>1023.0</ele>
        <time>2018-05-26T12:54:55.680Z</time>
      </trkpt>
      <trkpt lat="40.94644667" lon="-4.11586667">
        <ele>1022.0</ele>
        <time>2018-05-26T12:54:56.687Z</time>
      </trkpt>
      <trkpt lat="40.94644667" lon="-4.11586667">
        <ele>1022.0</ele>
        <time>2018-05-26T12:54:57.714Z</time>
      </trkpt>
      <trkpt lat="40.946445" lon="-4.11608167">
        <ele>1022.0</ele>
        <time>2018-05-26T12:54:58.695Z</time>
      </trkpt>
      <trkpt lat="40.946445" lon="-4.11608167">
        <ele>1022.0</ele>
        <time>2018-05-26T12:54:59.695Z</time>
      </trkpt>
      <trkpt lat="40.94647667" lon="-4.11627">
        <ele>1021.0</ele>
        <time>2018-05-26T12:55:00.719Z</time>
      </trkpt>
      <trkpt lat="40.94651167" lon="-4.11633333">
        <ele>1021.0</ele>
        <time>2018-05-26T12:55:01.692Z</time>
      </trkpt>
      <trkpt lat="40.94651167" lon="-4.11633333">
        <ele>1021.0</ele>
        <time>2018-05-26T12:55:02.691Z</time>
      </trkpt>
      <trkpt lat="40.946625" lon="-4.11634167">
        <ele>1021.0</ele>
        <time>2018-05-26T12:55:03.698Z</time>
      </trkpt>
      <trkpt lat="40.94668667" lon="-4.11632833">
        <ele>1021.0</ele>
        <time>2018-05-26T12:55:04.684Z</time>
      </trkpt>
      <trkpt lat="40.94675167" lon="-4.11632">
        <ele>1021.0</ele>
        <time>2018-05-26T12:55:05.676Z</time>
      </trkpt>
      <trkpt lat="40.94675167" lon="-4.11632">
        <ele>1021.0</ele>
        <time>2018-05-26T12:55:06.701Z</time>
      </trkpt>
      <trkpt lat="40.94688667" lon="-4.11630333">
        <ele>1020.0</ele>
        <time>2018-05-26T12:55:07.709Z</time>
      </trkpt>
      <trkpt lat="40.94694833" lon="-4.11629333">
        <ele>1019.0</ele>
        <time>2018-05-26T12:55:08.709Z</time>
      </trkpt>
      <trkpt lat="40.94694833" lon="-4.11629333">
        <ele>1019.0</ele>
        <time>2018-05-26T12:55:09.703Z</time>
      </trkpt>
      <trkpt lat="40.94706167" lon="-4.11631">
        <ele>1019.0</ele>
        <time>2018-05-26T12:55:10.710Z</time>
      </trkpt>
      <trkpt lat="40.947115" lon="-4.11633167">
        <ele>1018.0</ele>
        <time>2018-05-26T12:55:11.718Z</time>
      </trkpt>
      <trkpt lat="40.947115" lon="-4.11633167">
        <ele>1018.0</ele>
        <time>2018-05-26T12:55:12.684Z</time>
      </trkpt>
      <trkpt lat="40.94720667" lon="-4.11637167">
        <ele>1018.0</ele>
        <time>2018-05-26T12:55:13.693Z</time>
      </trkpt>
      <trkpt lat="40.94725667" lon="-4.116405">
        <ele>1017.0</ele>
        <time>2018-05-26T12:55:14.683Z</time>
      </trkpt>
      <trkpt lat="40.94726833" lon="-4.11648667">
        <ele>1017.0</ele>
        <time>2018-05-26T12:55:15.675Z</time>
      </trkpt>
      <trkpt lat="40.94726833" lon="-4.11648667">
        <ele>1017.0</ele>
        <time>2018-05-26T12:55:16.704Z</time>
      </trkpt>
      <trkpt lat="40.94734333" lon="-4.11652667">
        <ele>1016.0</ele>
        <time>2018-05-26T12:55:17.679Z</time>
      </trkpt>
      <trkpt lat="40.94739667" lon="-4.11654833">
        <ele>1015.0</ele>
        <time>2018-05-26T12:55:18.708Z</time>
      </trkpt>
      <trkpt lat="40.94739667" lon="-4.11654833">
        <ele>1015.0</ele>
        <time>2018-05-26T12:55:19.701Z</time>
      </trkpt>
      <trkpt lat="40.94749167" lon="-4.11665167">
        <ele>1014.0</ele>
        <time>2018-05-26T12:55:20.708Z</time>
      </trkpt>
      <trkpt lat="40.94751333" lon="-4.116745">
        <ele>1014.0</ele>
        <time>2018-05-26T12:55:21.699Z</time>
      </trkpt>
      <trkpt lat="40.94751" lon="-4.11683833">
        <ele>1013.0</ele>
        <time>2018-05-26T12:55:22.683Z</time>
      </trkpt>
      <trkpt lat="40.94751" lon="-4.11683833">
        <ele>1013.0</ele>
        <time>2018-05-26T12:55:23.700Z</time>
      </trkpt>
      <trkpt lat="40.94749333" lon="-4.11702">
        <ele>1013.0</ele>
        <time>2018-05-26T12:55:24.707Z</time>
      </trkpt>
      <trkpt lat="40.94749333" lon="-4.11702">
        <ele>1013.0</ele>
        <time>2018-05-26T12:55:25.688Z</time>
      </trkpt>
      <trkpt lat="40.94747" lon="-4.11719667">
        <ele>1012.0</ele>
        <time>2018-05-26T12:55:26.682Z</time>
      </trkpt>
      <trkpt lat="40.94747" lon="-4.11719667">
        <ele>1012.0</ele>
        <time>2018-05-26T12:55:27.676Z</time>
      </trkpt>
      <trkpt lat="40.94751667" lon="-4.11733333">
        <ele>1011.0</ele>
        <time>2018-05-26T12:55:28.703Z</time>
      </trkpt>
      <trkpt lat="40.94751667" lon="-4.11733333">
        <ele>1011.0</ele>
        <time>2018-05-26T12:55:29.688Z</time>
      </trkpt>
      <trkpt lat="40.94760167" lon="-4.11738333">
        <ele>1010.0</ele>
        <time>2018-05-26T12:55:30.699Z</time>
      </trkpt>
      <trkpt lat="40.94760167" lon="-4.11738333">
        <ele>1010.0</ele>
        <time>2018-05-26T12:55:31.691Z</time>
      </trkpt>
      <trkpt lat="40.9477" lon="-4.11743333">
        <ele>1009.0</ele>
        <time>2018-05-26T12:55:32.708Z</time>
      </trkpt>
      <trkpt lat="40.9477" lon="-4.11743333">
        <ele>1009.0</ele>
        <time>2018-05-26T12:55:33.687Z</time>
      </trkpt>
      <trkpt lat="40.94774" lon="-4.11747167">
        <ele>1008.0</ele>
        <time>2018-05-26T12:55:34.694Z</time>
      </trkpt>
      <trkpt lat="40.94774" lon="-4.11747167">
        <ele>1008.0</ele>
        <time>2018-05-26T12:55:35.688Z</time>
      </trkpt>
      <trkpt lat="40.94774" lon="-4.11746667">
        <ele>1007.0</ele>
        <time>2018-05-26T12:55:36.681Z</time>
      </trkpt>
      <trkpt lat="40.94774" lon="-4.11746667">
        <ele>1007.0</ele>
        <time>2018-05-26T12:55:37.688Z</time>
      </trkpt>
      <trkpt lat="40.947735" lon="-4.11746833">
        <ele>1007.0</ele>
        <time>2018-05-26T12:55:38.695Z</time>
      </trkpt>
      <trkpt lat="40.947735" lon="-4.11746833">
        <ele>1007.0</ele>
        <time>2018-05-26T12:55:39.694Z</time>
      </trkpt>
      <trkpt lat="40.947735" lon="-4.11746833">
        <ele>1007.0</ele>
        <time>2018-05-26T12:55:40.680Z</time>
      </trkpt>
      <trkpt lat="40.94775333" lon="-4.11750667">
        <ele>1007.0</ele>
        <time>2018-05-26T12:55:41.714Z</time>
      </trkpt>
      <trkpt lat="40.94775333" lon="-4.11750667">
        <ele>1006.0</ele>
        <time>2018-05-26T12:55:42.712Z</time>
      </trkpt>
      <trkpt lat="40.94775333" lon="-4.11750667">
        <ele>1006.0</ele>
        <time>2018-05-26T12:55:43.698Z</time>
      </trkpt>
      <trkpt lat="40.94775333" lon="-4.11750667">
        <ele>1006.0</ele>
        <time>2018-05-26T12:55:44.693Z</time>
      </trkpt>
      <trkpt lat="40.947795" lon="-4.11752667">
        <ele>1005.0</ele>
        <time>2018-05-26T12:55:45.712Z</time>
      </trkpt>
      <trkpt lat="40.947795" lon="-4.11752667">
        <ele>1005.0</ele>
        <time>2018-05-26T12:55:46.712Z</time>
      </trkpt>
    </trkseg>
  </trk>
</gpx>
